<?xml version="1.0" encoding="UTF-8" standalone="no" ?>
<gpx xmlns="http://www.topografix.com/GPX/1/1" xmlns:xsi="http://www.w3.org/2001/XMLSchema-instance" xsi:schemaLocation="http://www.topografix.com/GPX/1/1 http://www.topografix.com/GPX/1/1/gpx.xsd" version="1.1" creator="VisuGPX - https://www.visugpx.com">
  <metadata>
    <name>CMC Serre de Montredon et le Roc de l'Aigle</name>
    <desc><![CDATA[Une randonnée à découvrir au départ de Trassanel. Deux points de vues magnifiques.]]></desc>
  </metadata>
  <trk>
    <name><![CDATA[Trassanel Marche à pied]]></name>
    <trkseg>
      <trkpt lat="43.34612" lon="2.43672">
        <ele>445</ele>
        <time>2017-09-24T07:51:53.000Z</time>
      </trkpt>
      <trkpt lat="43.34613" lon="2.43673">
        <ele>445</ele>
        <time>2017-09-24T07:51:54.000Z</time>
      </trkpt>
      <trkpt lat="43.34613" lon="2.43674">
        <ele>445</ele>
        <time>2017-09-24T07:51:55.000Z</time>
      </trkpt>
      <trkpt lat="43.34613" lon="2.43675">
        <ele>444</ele>
        <time>2017-09-24T07:51:56.000Z</time>
      </trkpt>
      <trkpt lat="43.34613" lon="2.43677">
        <ele>444</ele>
        <time>2017-09-24T07:51:57.000Z</time>
      </trkpt>
      <trkpt lat="43.34613" lon="2.43678">
        <ele>444</ele>
        <time>2017-09-24T07:51:58.000Z</time>
      </trkpt>
      <trkpt lat="43.34614" lon="2.43679">
        <ele>444</ele>
        <time>2017-09-24T07:51:59.000Z</time>
      </trkpt>
      <trkpt lat="43.34614" lon="2.43681">
        <ele>444</ele>
        <time>2017-09-24T07:52:00.000Z</time>
      </trkpt>
      <trkpt lat="43.34615" lon="2.43682">
        <ele>445</ele>
        <time>2017-09-24T07:52:01.000Z</time>
      </trkpt>
      <trkpt lat="43.34616" lon="2.43683">
        <ele>445</ele>
        <time>2017-09-24T07:52:02.000Z</time>
      </trkpt>
      <trkpt lat="43.34616" lon="2.43684">
        <ele>445</ele>
        <time>2017-09-24T07:52:03.000Z</time>
      </trkpt>
      <trkpt lat="43.34617" lon="2.43686">
        <ele>445</ele>
        <time>2017-09-24T07:52:04.000Z</time>
      </trkpt>
      <trkpt lat="43.34617" lon="2.43687">
        <ele>445</ele>
        <time>2017-09-24T07:52:05.000Z</time>
      </trkpt>
      <trkpt lat="43.34618" lon="2.43688">
        <ele>445</ele>
        <time>2017-09-24T07:52:06.000Z</time>
      </trkpt>
      <trkpt lat="43.34619" lon="2.43689">
        <ele>445</ele>
        <time>2017-09-24T07:52:07.000Z</time>
      </trkpt>
      <trkpt lat="43.34619" lon="2.4369">
        <ele>445</ele>
        <time>2017-09-24T07:52:08.000Z</time>
      </trkpt>
      <trkpt lat="43.3462" lon="2.43691">
        <ele>445</ele>
        <time>2017-09-24T07:52:09.000Z</time>
      </trkpt>
      <trkpt lat="43.3462" lon="2.43692">
        <ele>445</ele>
        <time>2017-09-24T07:52:10.000Z</time>
      </trkpt>
      <trkpt lat="43.3462" lon="2.43693">
        <ele>445</ele>
        <time>2017-09-24T07:52:11.000Z</time>
      </trkpt>
      <trkpt lat="43.34621" lon="2.43694">
        <ele>446</ele>
        <time>2017-09-24T07:52:12.000Z</time>
      </trkpt>
      <trkpt lat="43.34622" lon="2.43695">
        <ele>446</ele>
        <time>2017-09-24T07:52:13.000Z</time>
      </trkpt>
      <trkpt lat="43.34622" lon="2.43696">
        <ele>446</ele>
        <time>2017-09-24T07:52:14.000Z</time>
      </trkpt>
      <trkpt lat="43.34622" lon="2.43697">
        <ele>446</ele>
        <time>2017-09-24T07:52:15.000Z</time>
      </trkpt>
      <trkpt lat="43.34623" lon="2.43698">
        <ele>446</ele>
        <time>2017-09-24T07:52:16.000Z</time>
      </trkpt>
      <trkpt lat="43.34624" lon="2.43699">
        <ele>446</ele>
        <time>2017-09-24T07:52:17.000Z</time>
      </trkpt>
      <trkpt lat="43.34624" lon="2.437">
        <ele>446</ele>
        <time>2017-09-24T07:52:18.000Z</time>
      </trkpt>
      <trkpt lat="43.34625" lon="2.43701">
        <ele>446</ele>
        <time>2017-09-24T07:52:19.000Z</time>
      </trkpt>
      <trkpt lat="43.34626" lon="2.43701">
        <ele>446</ele>
        <time>2017-09-24T07:52:20.000Z</time>
      </trkpt>
      <trkpt lat="43.34627" lon="2.43702">
        <ele>446</ele>
        <time>2017-09-24T07:52:21.000Z</time>
      </trkpt>
      <trkpt lat="43.34628" lon="2.43703">
        <ele>446</ele>
        <time>2017-09-24T07:52:22.000Z</time>
      </trkpt>
      <trkpt lat="43.34628" lon="2.43704">
        <ele>446</ele>
        <time>2017-09-24T07:52:23.000Z</time>
      </trkpt>
      <trkpt lat="43.34629" lon="2.43705">
        <ele>446</ele>
        <time>2017-09-24T07:52:24.000Z</time>
      </trkpt>
      <trkpt lat="43.3463" lon="2.43705">
        <ele>446</ele>
        <time>2017-09-24T07:52:25.000Z</time>
      </trkpt>
      <trkpt lat="43.34631" lon="2.43706">
        <ele>446</ele>
        <time>2017-09-24T07:52:26.000Z</time>
      </trkpt>
      <trkpt lat="43.34632" lon="2.43706">
        <ele>447</ele>
        <time>2017-09-24T07:52:27.000Z</time>
      </trkpt>
      <trkpt lat="43.34634" lon="2.43707">
        <ele>447</ele>
        <time>2017-09-24T07:52:28.000Z</time>
      </trkpt>
      <trkpt lat="43.34635" lon="2.43708">
        <ele>447</ele>
        <time>2017-09-24T07:52:29.000Z</time>
      </trkpt>
      <trkpt lat="43.34636" lon="2.43709">
        <ele>447</ele>
        <time>2017-09-24T07:52:30.000Z</time>
      </trkpt>
      <trkpt lat="43.34637" lon="2.4371">
        <ele>447</ele>
        <time>2017-09-24T07:52:31.000Z</time>
      </trkpt>
      <trkpt lat="43.34638" lon="2.43711">
        <ele>447</ele>
        <time>2017-09-24T07:52:32.000Z</time>
      </trkpt>
      <trkpt lat="43.34639" lon="2.43712">
        <ele>447</ele>
        <time>2017-09-24T07:52:33.000Z</time>
      </trkpt>
      <trkpt lat="43.3464" lon="2.43713">
        <ele>447</ele>
        <time>2017-09-24T07:52:34.000Z</time>
      </trkpt>
      <trkpt lat="43.3464" lon="2.43714">
        <ele>447</ele>
        <time>2017-09-24T07:52:35.000Z</time>
      </trkpt>
      <trkpt lat="43.34641" lon="2.43715">
        <ele>447</ele>
        <time>2017-09-24T07:52:36.000Z</time>
      </trkpt>
      <trkpt lat="43.34642" lon="2.43716">
        <ele>447</ele>
        <time>2017-09-24T07:52:37.000Z</time>
      </trkpt>
      <trkpt lat="43.34644" lon="2.43717">
        <ele>447</ele>
        <time>2017-09-24T07:52:38.000Z</time>
      </trkpt>
      <trkpt lat="43.34644" lon="2.43718">
        <ele>448</ele>
        <time>2017-09-24T07:52:39.000Z</time>
      </trkpt>
      <trkpt lat="43.34646" lon="2.43719">
        <ele>448</ele>
        <time>2017-09-24T07:52:40.000Z</time>
      </trkpt>
      <trkpt lat="43.34647" lon="2.4372">
        <ele>448</ele>
        <time>2017-09-24T07:52:41.000Z</time>
      </trkpt>
      <trkpt lat="43.34648" lon="2.4372">
        <ele>448</ele>
        <time>2017-09-24T07:52:42.000Z</time>
      </trkpt>
      <trkpt lat="43.34649" lon="2.43721">
        <ele>448</ele>
        <time>2017-09-24T07:52:43.000Z</time>
      </trkpt>
      <trkpt lat="43.3465" lon="2.43721">
        <ele>448</ele>
        <time>2017-09-24T07:52:44.000Z</time>
      </trkpt>
      <trkpt lat="43.34651" lon="2.43721">
        <ele>448</ele>
        <time>2017-09-24T07:52:45.000Z</time>
      </trkpt>
      <trkpt lat="43.34652" lon="2.43721">
        <ele>448</ele>
        <time>2017-09-24T07:52:46.000Z</time>
      </trkpt>
      <trkpt lat="43.34654" lon="2.43721">
        <ele>448</ele>
        <time>2017-09-24T07:52:47.000Z</time>
      </trkpt>
      <trkpt lat="43.34655" lon="2.4372">
        <ele>448</ele>
        <time>2017-09-24T07:52:48.000Z</time>
      </trkpt>
      <trkpt lat="43.34656" lon="2.4372">
        <ele>448</ele>
        <time>2017-09-24T07:52:49.000Z</time>
      </trkpt>
      <trkpt lat="43.34657" lon="2.43719">
        <ele>448</ele>
        <time>2017-09-24T07:52:50.000Z</time>
      </trkpt>
      <trkpt lat="43.34658" lon="2.43719">
        <ele>448</ele>
        <time>2017-09-24T07:52:51.000Z</time>
      </trkpt>
      <trkpt lat="43.34658" lon="2.43718">
        <ele>448</ele>
        <time>2017-09-24T07:52:52.000Z</time>
      </trkpt>
      <trkpt lat="43.34659" lon="2.43718">
        <ele>448</ele>
        <time>2017-09-24T07:52:53.000Z</time>
      </trkpt>
      <trkpt lat="43.34659" lon="2.43718">
        <ele>449</ele>
        <time>2017-09-24T07:52:54.000Z</time>
      </trkpt>
      <trkpt lat="43.3466" lon="2.43717">
        <ele>449</ele>
        <time>2017-09-24T07:52:55.000Z</time>
      </trkpt>
      <trkpt lat="43.3466" lon="2.43717">
        <ele>449</ele>
        <time>2017-09-24T07:52:56.000Z</time>
      </trkpt>
      <trkpt lat="43.34661" lon="2.43704">
        <ele>449</ele>
        <time>2017-09-24T07:54:14.000Z</time>
      </trkpt>
      <trkpt lat="43.3466" lon="2.43703">
        <ele>449</ele>
        <time>2017-09-24T07:54:15.000Z</time>
      </trkpt>
      <trkpt lat="43.34659" lon="2.43702">
        <ele>449</ele>
        <time>2017-09-24T07:54:16.000Z</time>
      </trkpt>
      <trkpt lat="43.34659" lon="2.43701">
        <ele>449</ele>
        <time>2017-09-24T07:54:17.000Z</time>
      </trkpt>
      <trkpt lat="43.34658" lon="2.437">
        <ele>449</ele>
        <time>2017-09-24T07:54:18.000Z</time>
      </trkpt>
      <trkpt lat="43.34658" lon="2.43698">
        <ele>449</ele>
        <time>2017-09-24T07:54:19.000Z</time>
      </trkpt>
      <trkpt lat="43.34657" lon="2.43697">
        <ele>449</ele>
        <time>2017-09-24T07:54:20.000Z</time>
      </trkpt>
      <trkpt lat="43.34656" lon="2.43696">
        <ele>449</ele>
        <time>2017-09-24T07:54:21.000Z</time>
      </trkpt>
      <trkpt lat="43.34656" lon="2.43694">
        <ele>449</ele>
        <time>2017-09-24T07:54:22.000Z</time>
      </trkpt>
      <trkpt lat="43.34655" lon="2.43693">
        <ele>449</ele>
        <time>2017-09-24T07:54:23.000Z</time>
      </trkpt>
      <trkpt lat="43.34655" lon="2.43691">
        <ele>449</ele>
        <time>2017-09-24T07:54:24.000Z</time>
      </trkpt>
      <trkpt lat="43.34654" lon="2.4369">
        <ele>449</ele>
        <time>2017-09-24T07:54:25.000Z</time>
      </trkpt>
      <trkpt lat="43.34654" lon="2.43689">
        <ele>449</ele>
        <time>2017-09-24T07:54:26.000Z</time>
      </trkpt>
      <trkpt lat="43.34654" lon="2.43687">
        <ele>449</ele>
        <time>2017-09-24T07:54:27.000Z</time>
      </trkpt>
      <trkpt lat="43.34653" lon="2.43685">
        <ele>449</ele>
        <time>2017-09-24T07:54:28.000Z</time>
      </trkpt>
      <trkpt lat="43.34653" lon="2.43684">
        <ele>449</ele>
        <time>2017-09-24T07:54:29.000Z</time>
      </trkpt>
      <trkpt lat="43.34653" lon="2.43682">
        <ele>449</ele>
        <time>2017-09-24T07:54:30.000Z</time>
      </trkpt>
      <trkpt lat="43.34653" lon="2.43681">
        <ele>449</ele>
        <time>2017-09-24T07:54:31.000Z</time>
      </trkpt>
      <trkpt lat="43.34653" lon="2.43679">
        <ele>449</ele>
        <time>2017-09-24T07:54:32.000Z</time>
      </trkpt>
      <trkpt lat="43.34653" lon="2.43678">
        <ele>449</ele>
        <time>2017-09-24T07:54:33.000Z</time>
      </trkpt>
      <trkpt lat="43.34653" lon="2.43676">
        <ele>449</ele>
        <time>2017-09-24T07:54:34.000Z</time>
      </trkpt>
      <trkpt lat="43.34653" lon="2.43675">
        <ele>449</ele>
        <time>2017-09-24T07:54:35.000Z</time>
      </trkpt>
      <trkpt lat="43.34653" lon="2.43674">
        <ele>449</ele>
        <time>2017-09-24T07:54:36.000Z</time>
      </trkpt>
      <trkpt lat="43.34653" lon="2.43672">
        <ele>449</ele>
        <time>2017-09-24T07:54:37.000Z</time>
      </trkpt>
      <trkpt lat="43.34653" lon="2.43671">
        <ele>449</ele>
        <time>2017-09-24T07:54:38.000Z</time>
      </trkpt>
      <trkpt lat="43.34653" lon="2.43669">
        <ele>449</ele>
        <time>2017-09-24T07:54:39.000Z</time>
      </trkpt>
      <trkpt lat="43.34653" lon="2.43668">
        <ele>450</ele>
        <time>2017-09-24T07:54:40.000Z</time>
      </trkpt>
      <trkpt lat="43.34653" lon="2.43666">
        <ele>450</ele>
        <time>2017-09-24T07:54:41.000Z</time>
      </trkpt>
      <trkpt lat="43.34653" lon="2.43665">
        <ele>450</ele>
        <time>2017-09-24T07:54:42.000Z</time>
      </trkpt>
      <trkpt lat="43.34653" lon="2.43663">
        <ele>450</ele>
        <time>2017-09-24T07:54:43.000Z</time>
      </trkpt>
      <trkpt lat="43.34653" lon="2.43662">
        <ele>450</ele>
        <time>2017-09-24T07:54:44.000Z</time>
      </trkpt>
      <trkpt lat="43.34654" lon="2.43661">
        <ele>450</ele>
        <time>2017-09-24T07:54:45.000Z</time>
      </trkpt>
      <trkpt lat="43.34654" lon="2.43659">
        <ele>450</ele>
        <time>2017-09-24T07:54:46.000Z</time>
      </trkpt>
      <trkpt lat="43.34655" lon="2.43658">
        <ele>449</ele>
        <time>2017-09-24T07:54:47.000Z</time>
      </trkpt>
      <trkpt lat="43.34655" lon="2.43657">
        <ele>449</ele>
        <time>2017-09-24T07:54:48.000Z</time>
      </trkpt>
      <trkpt lat="43.34655" lon="2.43656">
        <ele>449</ele>
        <time>2017-09-24T07:54:49.000Z</time>
      </trkpt>
      <trkpt lat="43.34656" lon="2.43655">
        <ele>449</ele>
        <time>2017-09-24T07:54:50.000Z</time>
      </trkpt>
      <trkpt lat="43.34657" lon="2.43654">
        <ele>450</ele>
        <time>2017-09-24T07:54:51.000Z</time>
      </trkpt>
      <trkpt lat="43.34657" lon="2.43652">
        <ele>450</ele>
        <time>2017-09-24T07:54:52.000Z</time>
      </trkpt>
      <trkpt lat="43.34658" lon="2.43651">
        <ele>450</ele>
        <time>2017-09-24T07:54:53.000Z</time>
      </trkpt>
      <trkpt lat="43.34659" lon="2.4365">
        <ele>450</ele>
        <time>2017-09-24T07:54:54.000Z</time>
      </trkpt>
      <trkpt lat="43.34659" lon="2.43649">
        <ele>450</ele>
        <time>2017-09-24T07:54:55.000Z</time>
      </trkpt>
      <trkpt lat="43.3466" lon="2.43648">
        <ele>450</ele>
        <time>2017-09-24T07:54:56.000Z</time>
      </trkpt>
      <trkpt lat="43.3466" lon="2.43647">
        <ele>450</ele>
        <time>2017-09-24T07:54:57.000Z</time>
      </trkpt>
      <trkpt lat="43.34661" lon="2.43646">
        <ele>450</ele>
        <time>2017-09-24T07:54:58.000Z</time>
      </trkpt>
      <trkpt lat="43.34662" lon="2.43645">
        <ele>450</ele>
        <time>2017-09-24T07:54:59.000Z</time>
      </trkpt>
      <trkpt lat="43.34662" lon="2.43644">
        <ele>450</ele>
        <time>2017-09-24T07:55:00.000Z</time>
      </trkpt>
      <trkpt lat="43.34663" lon="2.43644">
        <ele>450</ele>
        <time>2017-09-24T07:55:01.000Z</time>
      </trkpt>
      <trkpt lat="43.34664" lon="2.43643">
        <ele>450</ele>
        <time>2017-09-24T07:55:02.000Z</time>
      </trkpt>
      <trkpt lat="43.34665" lon="2.43643">
        <ele>450</ele>
        <time>2017-09-24T07:55:03.000Z</time>
      </trkpt>
      <trkpt lat="43.34666" lon="2.43643">
        <ele>450</ele>
        <time>2017-09-24T07:55:04.000Z</time>
      </trkpt>
      <trkpt lat="43.34667" lon="2.43642">
        <ele>451</ele>
        <time>2017-09-24T07:55:05.000Z</time>
      </trkpt>
      <trkpt lat="43.34667" lon="2.43643">
        <ele>451</ele>
        <time>2017-09-24T07:55:06.000Z</time>
      </trkpt>
      <trkpt lat="43.34668" lon="2.43643">
        <ele>451</ele>
        <time>2017-09-24T07:55:07.000Z</time>
      </trkpt>
      <trkpt lat="43.34668" lon="2.43643">
        <ele>451</ele>
        <time>2017-09-24T07:55:08.000Z</time>
      </trkpt>
      <trkpt lat="43.34669" lon="2.43644">
        <ele>451</ele>
        <time>2017-09-24T07:55:09.000Z</time>
      </trkpt>
      <trkpt lat="43.3467" lon="2.43645">
        <ele>451</ele>
        <time>2017-09-24T07:55:10.000Z</time>
      </trkpt>
      <trkpt lat="43.3467" lon="2.43645">
        <ele>451</ele>
        <time>2017-09-24T07:55:11.000Z</time>
      </trkpt>
      <trkpt lat="43.3467" lon="2.43646">
        <ele>451</ele>
        <time>2017-09-24T07:55:12.000Z</time>
      </trkpt>
      <trkpt lat="43.34671" lon="2.43647">
        <ele>451</ele>
        <time>2017-09-24T07:55:13.000Z</time>
      </trkpt>
      <trkpt lat="43.34671" lon="2.43648">
        <ele>451</ele>
        <time>2017-09-24T07:55:14.000Z</time>
      </trkpt>
      <trkpt lat="43.34671" lon="2.43649">
        <ele>451</ele>
        <time>2017-09-24T07:55:15.000Z</time>
      </trkpt>
      <trkpt lat="43.34672" lon="2.43651">
        <ele>451</ele>
        <time>2017-09-24T07:55:16.000Z</time>
      </trkpt>
      <trkpt lat="43.34672" lon="2.43652">
        <ele>452</ele>
        <time>2017-09-24T07:55:17.000Z</time>
      </trkpt>
      <trkpt lat="43.34672" lon="2.43653">
        <ele>452</ele>
        <time>2017-09-24T07:55:18.000Z</time>
      </trkpt>
      <trkpt lat="43.34673" lon="2.43653">
        <ele>452</ele>
        <time>2017-09-24T07:55:19.000Z</time>
      </trkpt>
      <trkpt lat="43.34673" lon="2.43654">
        <ele>452</ele>
        <time>2017-09-24T07:55:20.000Z</time>
      </trkpt>
      <trkpt lat="43.34674" lon="2.43656">
        <ele>452</ele>
        <time>2017-09-24T07:55:21.000Z</time>
      </trkpt>
      <trkpt lat="43.34674" lon="2.43657">
        <ele>452</ele>
        <time>2017-09-24T07:55:22.000Z</time>
      </trkpt>
      <trkpt lat="43.34675" lon="2.43658">
        <ele>452</ele>
        <time>2017-09-24T07:55:23.000Z</time>
      </trkpt>
      <trkpt lat="43.34675" lon="2.43659">
        <ele>452</ele>
        <time>2017-09-24T07:55:24.000Z</time>
      </trkpt>
      <trkpt lat="43.34675" lon="2.43659">
        <ele>452</ele>
        <time>2017-09-24T07:55:25.000Z</time>
      </trkpt>
      <trkpt lat="43.34676" lon="2.4366">
        <ele>452</ele>
        <time>2017-09-24T07:55:26.000Z</time>
      </trkpt>
      <trkpt lat="43.34676" lon="2.43661">
        <ele>452</ele>
        <time>2017-09-24T07:55:27.000Z</time>
      </trkpt>
      <trkpt lat="43.34677" lon="2.43662">
        <ele>452</ele>
        <time>2017-09-24T07:55:28.000Z</time>
      </trkpt>
      <trkpt lat="43.34677" lon="2.43663">
        <ele>452</ele>
        <time>2017-09-24T07:55:29.000Z</time>
      </trkpt>
      <trkpt lat="43.34678" lon="2.43664">
        <ele>453</ele>
        <time>2017-09-24T07:55:30.000Z</time>
      </trkpt>
      <trkpt lat="43.34679" lon="2.43665">
        <ele>453</ele>
        <time>2017-09-24T07:55:31.000Z</time>
      </trkpt>
      <trkpt lat="43.34679" lon="2.43665">
        <ele>453</ele>
        <time>2017-09-24T07:55:32.000Z</time>
      </trkpt>
      <trkpt lat="43.3468" lon="2.43666">
        <ele>453</ele>
        <time>2017-09-24T07:55:33.000Z</time>
      </trkpt>
      <trkpt lat="43.34681" lon="2.43667">
        <ele>453</ele>
        <time>2017-09-24T07:55:34.000Z</time>
      </trkpt>
      <trkpt lat="43.34681" lon="2.43668">
        <ele>453</ele>
        <time>2017-09-24T07:55:35.000Z</time>
      </trkpt>
      <trkpt lat="43.34682" lon="2.43669">
        <ele>453</ele>
        <time>2017-09-24T07:55:36.000Z</time>
      </trkpt>
      <trkpt lat="43.34682" lon="2.4367">
        <ele>453</ele>
        <time>2017-09-24T07:55:37.000Z</time>
      </trkpt>
      <trkpt lat="43.34683" lon="2.43671">
        <ele>453</ele>
        <time>2017-09-24T07:55:38.000Z</time>
      </trkpt>
      <trkpt lat="43.34683" lon="2.43672">
        <ele>453</ele>
        <time>2017-09-24T07:55:39.000Z</time>
      </trkpt>
      <trkpt lat="43.34684" lon="2.43673">
        <ele>454</ele>
        <time>2017-09-24T07:55:40.000Z</time>
      </trkpt>
      <trkpt lat="43.34684" lon="2.43674">
        <ele>454</ele>
        <time>2017-09-24T07:55:41.000Z</time>
      </trkpt>
      <trkpt lat="43.34685" lon="2.43675">
        <ele>454</ele>
        <time>2017-09-24T07:55:42.000Z</time>
      </trkpt>
      <trkpt lat="43.34686" lon="2.43676">
        <ele>454</ele>
        <time>2017-09-24T07:55:43.000Z</time>
      </trkpt>
      <trkpt lat="43.34686" lon="2.43677">
        <ele>454</ele>
        <time>2017-09-24T07:55:44.000Z</time>
      </trkpt>
      <trkpt lat="43.34687" lon="2.43678">
        <ele>454</ele>
        <time>2017-09-24T07:55:45.000Z</time>
      </trkpt>
      <trkpt lat="43.34688" lon="2.43679">
        <ele>454</ele>
        <time>2017-09-24T07:55:46.000Z</time>
      </trkpt>
      <trkpt lat="43.34688" lon="2.43679">
        <ele>455</ele>
        <time>2017-09-24T07:55:47.000Z</time>
      </trkpt>
      <trkpt lat="43.34689" lon="2.4368">
        <ele>455</ele>
        <time>2017-09-24T07:55:48.000Z</time>
      </trkpt>
      <trkpt lat="43.34689" lon="2.43681">
        <ele>455</ele>
        <time>2017-09-24T07:55:49.000Z</time>
      </trkpt>
      <trkpt lat="43.34689" lon="2.43681">
        <ele>455</ele>
        <time>2017-09-24T07:55:50.000Z</time>
      </trkpt>
      <trkpt lat="43.3469" lon="2.43681">
        <ele>455</ele>
        <time>2017-09-24T07:55:51.000Z</time>
      </trkpt>
      <trkpt lat="43.3469" lon="2.43681">
        <ele>455</ele>
        <time>2017-09-24T07:55:52.000Z</time>
      </trkpt>
      <trkpt lat="43.34691" lon="2.43681">
        <ele>455</ele>
        <time>2017-09-24T07:55:53.000Z</time>
      </trkpt>
      <trkpt lat="43.34692" lon="2.43681">
        <ele>456</ele>
        <time>2017-09-24T07:55:54.000Z</time>
      </trkpt>
      <trkpt lat="43.34693" lon="2.4368">
        <ele>456</ele>
        <time>2017-09-24T07:55:55.000Z</time>
      </trkpt>
      <trkpt lat="43.34694" lon="2.4368">
        <ele>456</ele>
        <time>2017-09-24T07:55:56.000Z</time>
      </trkpt>
      <trkpt lat="43.34694" lon="2.43679">
        <ele>456</ele>
        <time>2017-09-24T07:55:57.000Z</time>
      </trkpt>
      <trkpt lat="43.34695" lon="2.43679">
        <ele>457</ele>
        <time>2017-09-24T07:55:58.000Z</time>
      </trkpt>
      <trkpt lat="43.34696" lon="2.43678">
        <ele>457</ele>
        <time>2017-09-24T07:55:59.000Z</time>
      </trkpt>
      <trkpt lat="43.34696" lon="2.43678">
        <ele>457</ele>
        <time>2017-09-24T07:56:00.000Z</time>
      </trkpt>
      <trkpt lat="43.34697" lon="2.43677">
        <ele>457</ele>
        <time>2017-09-24T07:56:01.000Z</time>
      </trkpt>
      <trkpt lat="43.34697" lon="2.43676">
        <ele>457</ele>
        <time>2017-09-24T07:56:02.000Z</time>
      </trkpt>
      <trkpt lat="43.34698" lon="2.43675">
        <ele>458</ele>
        <time>2017-09-24T07:56:03.000Z</time>
      </trkpt>
      <trkpt lat="43.34698" lon="2.43674">
        <ele>458</ele>
        <time>2017-09-24T07:56:04.000Z</time>
      </trkpt>
      <trkpt lat="43.34698" lon="2.43673">
        <ele>458</ele>
        <time>2017-09-24T07:56:05.000Z</time>
      </trkpt>
      <trkpt lat="43.34699" lon="2.43672">
        <ele>458</ele>
        <time>2017-09-24T07:56:06.000Z</time>
      </trkpt>
      <trkpt lat="43.34699" lon="2.4367">
        <ele>458</ele>
        <time>2017-09-24T07:56:07.000Z</time>
      </trkpt>
      <trkpt lat="43.34699" lon="2.43669">
        <ele>458</ele>
        <time>2017-09-24T07:56:08.000Z</time>
      </trkpt>
      <trkpt lat="43.34699" lon="2.43668">
        <ele>458</ele>
        <time>2017-09-24T07:56:09.000Z</time>
      </trkpt>
      <trkpt lat="43.347" lon="2.43667">
        <ele>459</ele>
        <time>2017-09-24T07:56:10.000Z</time>
      </trkpt>
      <trkpt lat="43.34701" lon="2.43666">
        <ele>459</ele>
        <time>2017-09-24T07:56:11.000Z</time>
      </trkpt>
      <trkpt lat="43.34701" lon="2.43664">
        <ele>459</ele>
        <time>2017-09-24T07:56:12.000Z</time>
      </trkpt>
      <trkpt lat="43.34701" lon="2.43663">
        <ele>459</ele>
        <time>2017-09-24T07:56:13.000Z</time>
      </trkpt>
      <trkpt lat="43.34701" lon="2.43662">
        <ele>459</ele>
        <time>2017-09-24T07:56:14.000Z</time>
      </trkpt>
      <trkpt lat="43.34702" lon="2.43661">
        <ele>459</ele>
        <time>2017-09-24T07:56:15.000Z</time>
      </trkpt>
      <trkpt lat="43.34702" lon="2.43661">
        <ele>459</ele>
        <time>2017-09-24T07:56:16.000Z</time>
      </trkpt>
      <trkpt lat="43.34702" lon="2.4366">
        <ele>459</ele>
        <time>2017-09-24T07:56:17.000Z</time>
      </trkpt>
      <trkpt lat="43.34703" lon="2.43659">
        <ele>460</ele>
        <time>2017-09-24T07:56:18.000Z</time>
      </trkpt>
      <trkpt lat="43.34703" lon="2.43658">
        <ele>460</ele>
        <time>2017-09-24T07:56:19.000Z</time>
      </trkpt>
      <trkpt lat="43.34703" lon="2.43657">
        <ele>460</ele>
        <time>2017-09-24T07:56:20.000Z</time>
      </trkpt>
      <trkpt lat="43.34704" lon="2.43656">
        <ele>460</ele>
        <time>2017-09-24T07:56:21.000Z</time>
      </trkpt>
      <trkpt lat="43.34704" lon="2.43655">
        <ele>460</ele>
        <time>2017-09-24T07:56:22.000Z</time>
      </trkpt>
      <trkpt lat="43.34704" lon="2.43654">
        <ele>460</ele>
        <time>2017-09-24T07:56:23.000Z</time>
      </trkpt>
      <trkpt lat="43.34705" lon="2.43653">
        <ele>460</ele>
        <time>2017-09-24T07:56:24.000Z</time>
      </trkpt>
      <trkpt lat="43.34705" lon="2.43652">
        <ele>460</ele>
        <time>2017-09-24T07:56:25.000Z</time>
      </trkpt>
      <trkpt lat="43.34706" lon="2.43651">
        <ele>460</ele>
        <time>2017-09-24T07:56:26.000Z</time>
      </trkpt>
      <trkpt lat="43.34706" lon="2.4365">
        <ele>461</ele>
        <time>2017-09-24T07:56:27.000Z</time>
      </trkpt>
      <trkpt lat="43.34707" lon="2.43649">
        <ele>461</ele>
        <time>2017-09-24T07:56:28.000Z</time>
      </trkpt>
      <trkpt lat="43.34707" lon="2.43648">
        <ele>461</ele>
        <time>2017-09-24T07:56:29.000Z</time>
      </trkpt>
      <trkpt lat="43.34708" lon="2.43647">
        <ele>461</ele>
        <time>2017-09-24T07:56:30.000Z</time>
      </trkpt>
      <trkpt lat="43.34709" lon="2.43646">
        <ele>461</ele>
        <time>2017-09-24T07:56:31.000Z</time>
      </trkpt>
      <trkpt lat="43.34709" lon="2.43645">
        <ele>461</ele>
        <time>2017-09-24T07:56:32.000Z</time>
      </trkpt>
      <trkpt lat="43.3471" lon="2.43643">
        <ele>462</ele>
        <time>2017-09-24T07:56:33.000Z</time>
      </trkpt>
      <trkpt lat="43.3471" lon="2.43642">
        <ele>462</ele>
        <time>2017-09-24T07:56:34.000Z</time>
      </trkpt>
      <trkpt lat="43.34711" lon="2.43641">
        <ele>462</ele>
        <time>2017-09-24T07:56:35.000Z</time>
      </trkpt>
      <trkpt lat="43.34711" lon="2.43639">
        <ele>462</ele>
        <time>2017-09-24T07:56:36.000Z</time>
      </trkpt>
      <trkpt lat="43.34712" lon="2.43638">
        <ele>462</ele>
        <time>2017-09-24T07:56:37.000Z</time>
      </trkpt>
      <trkpt lat="43.34712" lon="2.43637">
        <ele>462</ele>
        <time>2017-09-24T07:56:38.000Z</time>
      </trkpt>
      <trkpt lat="43.34713" lon="2.43635">
        <ele>463</ele>
        <time>2017-09-24T07:56:39.000Z</time>
      </trkpt>
      <trkpt lat="43.34713" lon="2.43634">
        <ele>463</ele>
        <time>2017-09-24T07:56:40.000Z</time>
      </trkpt>
      <trkpt lat="43.34714" lon="2.43633">
        <ele>463</ele>
        <time>2017-09-24T07:56:41.000Z</time>
      </trkpt>
      <trkpt lat="43.34714" lon="2.43632">
        <ele>463</ele>
        <time>2017-09-24T07:56:42.000Z</time>
      </trkpt>
      <trkpt lat="43.34715" lon="2.43631">
        <ele>463</ele>
        <time>2017-09-24T07:56:43.000Z</time>
      </trkpt>
      <trkpt lat="43.34715" lon="2.4363">
        <ele>463</ele>
        <time>2017-09-24T07:56:44.000Z</time>
      </trkpt>
      <trkpt lat="43.34716" lon="2.43628">
        <ele>464</ele>
        <time>2017-09-24T07:56:45.000Z</time>
      </trkpt>
      <trkpt lat="43.34716" lon="2.43628">
        <ele>464</ele>
        <time>2017-09-24T07:56:46.000Z</time>
      </trkpt>
      <trkpt lat="43.34717" lon="2.43627">
        <ele>464</ele>
        <time>2017-09-24T07:56:47.000Z</time>
      </trkpt>
      <trkpt lat="43.34718" lon="2.43626">
        <ele>464</ele>
        <time>2017-09-24T07:56:48.000Z</time>
      </trkpt>
      <trkpt lat="43.34718" lon="2.43625">
        <ele>464</ele>
        <time>2017-09-24T07:56:49.000Z</time>
      </trkpt>
      <trkpt lat="43.34718" lon="2.43624">
        <ele>464</ele>
        <time>2017-09-24T07:56:50.000Z</time>
      </trkpt>
      <trkpt lat="43.34719" lon="2.43622">
        <ele>464</ele>
        <time>2017-09-24T07:56:51.000Z</time>
      </trkpt>
      <trkpt lat="43.34719" lon="2.43621">
        <ele>464</ele>
        <time>2017-09-24T07:56:52.000Z</time>
      </trkpt>
      <trkpt lat="43.34719" lon="2.43619">
        <ele>464</ele>
        <time>2017-09-24T07:56:53.000Z</time>
      </trkpt>
      <trkpt lat="43.3472" lon="2.43618">
        <ele>465</ele>
        <time>2017-09-24T07:56:54.000Z</time>
      </trkpt>
      <trkpt lat="43.3472" lon="2.43617">
        <ele>465</ele>
        <time>2017-09-24T07:56:55.000Z</time>
      </trkpt>
      <trkpt lat="43.34721" lon="2.43616">
        <ele>465</ele>
        <time>2017-09-24T07:56:56.000Z</time>
      </trkpt>
      <trkpt lat="43.34721" lon="2.43615">
        <ele>465</ele>
        <time>2017-09-24T07:56:57.000Z</time>
      </trkpt>
      <trkpt lat="43.34721" lon="2.43614">
        <ele>465</ele>
        <time>2017-09-24T07:56:58.000Z</time>
      </trkpt>
      <trkpt lat="43.34722" lon="2.43613">
        <ele>465</ele>
        <time>2017-09-24T07:56:59.000Z</time>
      </trkpt>
      <trkpt lat="43.34722" lon="2.43612">
        <ele>465</ele>
        <time>2017-09-24T07:57:00.000Z</time>
      </trkpt>
      <trkpt lat="43.34723" lon="2.43611">
        <ele>465</ele>
        <time>2017-09-24T07:57:01.000Z</time>
      </trkpt>
      <trkpt lat="43.34724" lon="2.4361">
        <ele>465</ele>
        <time>2017-09-24T07:57:02.000Z</time>
      </trkpt>
      <trkpt lat="43.34724" lon="2.43609">
        <ele>465</ele>
        <time>2017-09-24T07:57:03.000Z</time>
      </trkpt>
      <trkpt lat="43.34725" lon="2.43608">
        <ele>466</ele>
        <time>2017-09-24T07:57:04.000Z</time>
      </trkpt>
      <trkpt lat="43.34725" lon="2.43607">
        <ele>466</ele>
        <time>2017-09-24T07:57:05.000Z</time>
      </trkpt>
      <trkpt lat="43.34725" lon="2.43605">
        <ele>466</ele>
        <time>2017-09-24T07:57:06.000Z</time>
      </trkpt>
      <trkpt lat="43.34726" lon="2.43604">
        <ele>466</ele>
        <time>2017-09-24T07:57:07.000Z</time>
      </trkpt>
      <trkpt lat="43.34726" lon="2.43603">
        <ele>466</ele>
        <time>2017-09-24T07:57:08.000Z</time>
      </trkpt>
      <trkpt lat="43.34727" lon="2.43602">
        <ele>466</ele>
        <time>2017-09-24T07:57:09.000Z</time>
      </trkpt>
      <trkpt lat="43.34727" lon="2.43601">
        <ele>466</ele>
        <time>2017-09-24T07:57:10.000Z</time>
      </trkpt>
      <trkpt lat="43.34727" lon="2.436">
        <ele>466</ele>
        <time>2017-09-24T07:57:11.000Z</time>
      </trkpt>
      <trkpt lat="43.34728" lon="2.43599">
        <ele>466</ele>
        <time>2017-09-24T07:57:12.000Z</time>
      </trkpt>
      <trkpt lat="43.34729" lon="2.43597">
        <ele>466</ele>
        <time>2017-09-24T07:57:13.000Z</time>
      </trkpt>
      <trkpt lat="43.34729" lon="2.43596">
        <ele>466</ele>
        <time>2017-09-24T07:57:14.000Z</time>
      </trkpt>
      <trkpt lat="43.34729" lon="2.43595">
        <ele>466</ele>
        <time>2017-09-24T07:57:15.000Z</time>
      </trkpt>
      <trkpt lat="43.3473" lon="2.43594">
        <ele>466</ele>
        <time>2017-09-24T07:57:16.000Z</time>
      </trkpt>
      <trkpt lat="43.34731" lon="2.43593">
        <ele>467</ele>
        <time>2017-09-24T07:57:17.000Z</time>
      </trkpt>
      <trkpt lat="43.34731" lon="2.43592">
        <ele>467</ele>
        <time>2017-09-24T07:57:18.000Z</time>
      </trkpt>
      <trkpt lat="43.34732" lon="2.43591">
        <ele>467</ele>
        <time>2017-09-24T07:57:19.000Z</time>
      </trkpt>
      <trkpt lat="43.34732" lon="2.4359">
        <ele>467</ele>
        <time>2017-09-24T07:57:20.000Z</time>
      </trkpt>
      <trkpt lat="43.34733" lon="2.43589">
        <ele>467</ele>
        <time>2017-09-24T07:57:21.000Z</time>
      </trkpt>
      <trkpt lat="43.34733" lon="2.43588">
        <ele>467</ele>
        <time>2017-09-24T07:57:22.000Z</time>
      </trkpt>
      <trkpt lat="43.34734" lon="2.43587">
        <ele>467</ele>
        <time>2017-09-24T07:57:23.000Z</time>
      </trkpt>
      <trkpt lat="43.34735" lon="2.43586">
        <ele>467</ele>
        <time>2017-09-24T07:57:24.000Z</time>
      </trkpt>
      <trkpt lat="43.34736" lon="2.43585">
        <ele>468</ele>
        <time>2017-09-24T07:57:25.000Z</time>
      </trkpt>
      <trkpt lat="43.34737" lon="2.43584">
        <ele>468</ele>
        <time>2017-09-24T07:57:26.000Z</time>
      </trkpt>
      <trkpt lat="43.34738" lon="2.43583">
        <ele>468</ele>
        <time>2017-09-24T07:57:27.000Z</time>
      </trkpt>
      <trkpt lat="43.34738" lon="2.43581">
        <ele>468</ele>
        <time>2017-09-24T07:57:28.000Z</time>
      </trkpt>
      <trkpt lat="43.34739" lon="2.4358">
        <ele>468</ele>
        <time>2017-09-24T07:57:29.000Z</time>
      </trkpt>
      <trkpt lat="43.34739" lon="2.43579">
        <ele>469</ele>
        <time>2017-09-24T07:57:30.000Z</time>
      </trkpt>
      <trkpt lat="43.3474" lon="2.43577">
        <ele>469</ele>
        <time>2017-09-24T07:57:31.000Z</time>
      </trkpt>
      <trkpt lat="43.3474" lon="2.43576">
        <ele>469</ele>
        <time>2017-09-24T07:57:32.000Z</time>
      </trkpt>
      <trkpt lat="43.34741" lon="2.43575">
        <ele>469</ele>
        <time>2017-09-24T07:57:33.000Z</time>
      </trkpt>
      <trkpt lat="43.34742" lon="2.43574">
        <ele>469</ele>
        <time>2017-09-24T07:57:34.000Z</time>
      </trkpt>
      <trkpt lat="43.34742" lon="2.43573">
        <ele>470</ele>
        <time>2017-09-24T07:57:35.000Z</time>
      </trkpt>
      <trkpt lat="43.34743" lon="2.43572">
        <ele>470</ele>
        <time>2017-09-24T07:57:36.000Z</time>
      </trkpt>
      <trkpt lat="43.34744" lon="2.43571">
        <ele>470</ele>
        <time>2017-09-24T07:57:37.000Z</time>
      </trkpt>
      <trkpt lat="43.34745" lon="2.4357">
        <ele>470</ele>
        <time>2017-09-24T07:57:38.000Z</time>
      </trkpt>
      <trkpt lat="43.34745" lon="2.43569">
        <ele>471</ele>
        <time>2017-09-24T07:57:39.000Z</time>
      </trkpt>
      <trkpt lat="43.34746" lon="2.43568">
        <ele>471</ele>
        <time>2017-09-24T07:57:40.000Z</time>
      </trkpt>
      <trkpt lat="43.34746" lon="2.43567">
        <ele>471</ele>
        <time>2017-09-24T07:57:41.000Z</time>
      </trkpt>
      <trkpt lat="43.34747" lon="2.43566">
        <ele>471</ele>
        <time>2017-09-24T07:57:42.000Z</time>
      </trkpt>
      <trkpt lat="43.34748" lon="2.43565">
        <ele>472</ele>
        <time>2017-09-24T07:57:43.000Z</time>
      </trkpt>
      <trkpt lat="43.34749" lon="2.43563">
        <ele>472</ele>
        <time>2017-09-24T07:57:44.000Z</time>
      </trkpt>
      <trkpt lat="43.34749" lon="2.43563">
        <ele>472</ele>
        <time>2017-09-24T07:57:45.000Z</time>
      </trkpt>
      <trkpt lat="43.3475" lon="2.43561">
        <ele>472</ele>
        <time>2017-09-24T07:57:46.000Z</time>
      </trkpt>
      <trkpt lat="43.34751" lon="2.43561">
        <ele>472</ele>
        <time>2017-09-24T07:57:47.000Z</time>
      </trkpt>
      <trkpt lat="43.34752" lon="2.4356">
        <ele>473</ele>
        <time>2017-09-24T07:57:48.000Z</time>
      </trkpt>
      <trkpt lat="43.34752" lon="2.43559">
        <ele>473</ele>
        <time>2017-09-24T07:57:49.000Z</time>
      </trkpt>
      <trkpt lat="43.34753" lon="2.43557">
        <ele>473</ele>
        <time>2017-09-24T07:57:50.000Z</time>
      </trkpt>
      <trkpt lat="43.34754" lon="2.43556">
        <ele>473</ele>
        <time>2017-09-24T07:57:51.000Z</time>
      </trkpt>
      <trkpt lat="43.34755" lon="2.43555">
        <ele>474</ele>
        <time>2017-09-24T07:57:52.000Z</time>
      </trkpt>
      <trkpt lat="43.34755" lon="2.43554">
        <ele>474</ele>
        <time>2017-09-24T07:57:53.000Z</time>
      </trkpt>
      <trkpt lat="43.34756" lon="2.43553">
        <ele>474</ele>
        <time>2017-09-24T07:57:54.000Z</time>
      </trkpt>
      <trkpt lat="43.34757" lon="2.43552">
        <ele>474</ele>
        <time>2017-09-24T07:57:55.000Z</time>
      </trkpt>
      <trkpt lat="43.34757" lon="2.43551">
        <ele>474</ele>
        <time>2017-09-24T07:57:56.000Z</time>
      </trkpt>
      <trkpt lat="43.34758" lon="2.43549">
        <ele>475</ele>
        <time>2017-09-24T07:57:57.000Z</time>
      </trkpt>
      <trkpt lat="43.34758" lon="2.43548">
        <ele>475</ele>
        <time>2017-09-24T07:57:58.000Z</time>
      </trkpt>
      <trkpt lat="43.34758" lon="2.43547">
        <ele>475</ele>
        <time>2017-09-24T07:57:59.000Z</time>
      </trkpt>
      <trkpt lat="43.34758" lon="2.43545">
        <ele>475</ele>
        <time>2017-09-24T07:58:00.000Z</time>
      </trkpt>
      <trkpt lat="43.34758" lon="2.43543">
        <ele>475</ele>
        <time>2017-09-24T07:58:01.000Z</time>
      </trkpt>
      <trkpt lat="43.34758" lon="2.43542">
        <ele>475</ele>
        <time>2017-09-24T07:58:02.000Z</time>
      </trkpt>
      <trkpt lat="43.34758" lon="2.4354">
        <ele>475</ele>
        <time>2017-09-24T07:58:03.000Z</time>
      </trkpt>
      <trkpt lat="43.34758" lon="2.43539">
        <ele>475</ele>
        <time>2017-09-24T07:58:04.000Z</time>
      </trkpt>
      <trkpt lat="43.34758" lon="2.43537">
        <ele>475</ele>
        <time>2017-09-24T07:58:05.000Z</time>
      </trkpt>
      <trkpt lat="43.34758" lon="2.43536">
        <ele>475</ele>
        <time>2017-09-24T07:58:06.000Z</time>
      </trkpt>
      <trkpt lat="43.34758" lon="2.43534">
        <ele>475</ele>
        <time>2017-09-24T07:58:07.000Z</time>
      </trkpt>
      <trkpt lat="43.34758" lon="2.43533">
        <ele>475</ele>
        <time>2017-09-24T07:58:08.000Z</time>
      </trkpt>
      <trkpt lat="43.34757" lon="2.43532">
        <ele>475</ele>
        <time>2017-09-24T07:58:09.000Z</time>
      </trkpt>
      <trkpt lat="43.34757" lon="2.4353">
        <ele>475</ele>
        <time>2017-09-24T07:58:10.000Z</time>
      </trkpt>
      <trkpt lat="43.34757" lon="2.43529">
        <ele>475</ele>
        <time>2017-09-24T07:58:11.000Z</time>
      </trkpt>
      <trkpt lat="43.34757" lon="2.43528">
        <ele>475</ele>
        <time>2017-09-24T07:58:12.000Z</time>
      </trkpt>
      <trkpt lat="43.34756" lon="2.43527">
        <ele>475</ele>
        <time>2017-09-24T07:58:13.000Z</time>
      </trkpt>
      <trkpt lat="43.34756" lon="2.43525">
        <ele>475</ele>
        <time>2017-09-24T07:58:14.000Z</time>
      </trkpt>
      <trkpt lat="43.34756" lon="2.43524">
        <ele>475</ele>
        <time>2017-09-24T07:58:15.000Z</time>
      </trkpt>
      <trkpt lat="43.34755" lon="2.43523">
        <ele>475</ele>
        <time>2017-09-24T07:58:16.000Z</time>
      </trkpt>
      <trkpt lat="43.34755" lon="2.43521">
        <ele>475</ele>
        <time>2017-09-24T07:58:17.000Z</time>
      </trkpt>
      <trkpt lat="43.34755" lon="2.4352">
        <ele>475</ele>
        <time>2017-09-24T07:58:18.000Z</time>
      </trkpt>
      <trkpt lat="43.34754" lon="2.43519">
        <ele>475</ele>
        <time>2017-09-24T07:58:19.000Z</time>
      </trkpt>
      <trkpt lat="43.34754" lon="2.43518">
        <ele>475</ele>
        <time>2017-09-24T07:58:20.000Z</time>
      </trkpt>
      <trkpt lat="43.34753" lon="2.43516">
        <ele>475</ele>
        <time>2017-09-24T07:58:21.000Z</time>
      </trkpt>
      <trkpt lat="43.34753" lon="2.43515">
        <ele>475</ele>
        <time>2017-09-24T07:58:22.000Z</time>
      </trkpt>
      <trkpt lat="43.34752" lon="2.43514">
        <ele>474</ele>
        <time>2017-09-24T07:58:23.000Z</time>
      </trkpt>
      <trkpt lat="43.34752" lon="2.43512">
        <ele>474</ele>
        <time>2017-09-24T07:58:24.000Z</time>
      </trkpt>
      <trkpt lat="43.34751" lon="2.43511">
        <ele>474</ele>
        <time>2017-09-24T07:58:25.000Z</time>
      </trkpt>
      <trkpt lat="43.34751" lon="2.4351">
        <ele>474</ele>
        <time>2017-09-24T07:58:26.000Z</time>
      </trkpt>
      <trkpt lat="43.34751" lon="2.43508">
        <ele>474</ele>
        <time>2017-09-24T07:58:27.000Z</time>
      </trkpt>
      <trkpt lat="43.3475" lon="2.43507">
        <ele>474</ele>
        <time>2017-09-24T07:58:28.000Z</time>
      </trkpt>
      <trkpt lat="43.3475" lon="2.43506">
        <ele>474</ele>
        <time>2017-09-24T07:58:29.000Z</time>
      </trkpt>
      <trkpt lat="43.34749" lon="2.43505">
        <ele>474</ele>
        <time>2017-09-24T07:58:30.000Z</time>
      </trkpt>
      <trkpt lat="43.34749" lon="2.43503">
        <ele>474</ele>
        <time>2017-09-24T07:58:31.000Z</time>
      </trkpt>
      <trkpt lat="43.34749" lon="2.43502">
        <ele>474</ele>
        <time>2017-09-24T07:58:32.000Z</time>
      </trkpt>
      <trkpt lat="43.34748" lon="2.43501">
        <ele>474</ele>
        <time>2017-09-24T07:58:33.000Z</time>
      </trkpt>
      <trkpt lat="43.34748" lon="2.435">
        <ele>474</ele>
        <time>2017-09-24T07:58:34.000Z</time>
      </trkpt>
      <trkpt lat="43.34747" lon="2.43499">
        <ele>474</ele>
        <time>2017-09-24T07:58:35.000Z</time>
      </trkpt>
      <trkpt lat="43.34747" lon="2.43497">
        <ele>474</ele>
        <time>2017-09-24T07:58:36.000Z</time>
      </trkpt>
      <trkpt lat="43.34747" lon="2.43496">
        <ele>474</ele>
        <time>2017-09-24T07:58:37.000Z</time>
      </trkpt>
      <trkpt lat="43.34747" lon="2.43495">
        <ele>474</ele>
        <time>2017-09-24T07:58:38.000Z</time>
      </trkpt>
      <trkpt lat="43.34747" lon="2.43494">
        <ele>474</ele>
        <time>2017-09-24T07:58:39.000Z</time>
      </trkpt>
      <trkpt lat="43.34746" lon="2.43493">
        <ele>474</ele>
        <time>2017-09-24T07:58:40.000Z</time>
      </trkpt>
      <trkpt lat="43.34746" lon="2.43492">
        <ele>474</ele>
        <time>2017-09-24T07:58:41.000Z</time>
      </trkpt>
      <trkpt lat="43.34746" lon="2.43491">
        <ele>474</ele>
        <time>2017-09-24T07:58:42.000Z</time>
      </trkpt>
      <trkpt lat="43.34745" lon="2.4349">
        <ele>474</ele>
        <time>2017-09-24T07:58:43.000Z</time>
      </trkpt>
      <trkpt lat="43.34745" lon="2.43489">
        <ele>474</ele>
        <time>2017-09-24T07:58:44.000Z</time>
      </trkpt>
      <trkpt lat="43.34745" lon="2.43488">
        <ele>475</ele>
        <time>2017-09-24T07:58:45.000Z</time>
      </trkpt>
      <trkpt lat="43.34744" lon="2.43487">
        <ele>475</ele>
        <time>2017-09-24T07:58:46.000Z</time>
      </trkpt>
      <trkpt lat="43.34744" lon="2.43486">
        <ele>475</ele>
        <time>2017-09-24T07:58:47.000Z</time>
      </trkpt>
      <trkpt lat="43.34744" lon="2.43485">
        <ele>475</ele>
        <time>2017-09-24T07:58:48.000Z</time>
      </trkpt>
      <trkpt lat="43.34744" lon="2.43484">
        <ele>475</ele>
        <time>2017-09-24T07:58:49.000Z</time>
      </trkpt>
      <trkpt lat="43.34743" lon="2.43483">
        <ele>475</ele>
        <time>2017-09-24T07:58:50.000Z</time>
      </trkpt>
      <trkpt lat="43.34743" lon="2.43482">
        <ele>475</ele>
        <time>2017-09-24T07:58:51.000Z</time>
      </trkpt>
      <trkpt lat="43.34742" lon="2.43481">
        <ele>475</ele>
        <time>2017-09-24T07:58:52.000Z</time>
      </trkpt>
      <trkpt lat="43.34742" lon="2.4348">
        <ele>475</ele>
        <time>2017-09-24T07:58:53.000Z</time>
      </trkpt>
      <trkpt lat="43.34742" lon="2.43479">
        <ele>475</ele>
        <time>2017-09-24T07:58:54.000Z</time>
      </trkpt>
      <trkpt lat="43.34741" lon="2.43478">
        <ele>475</ele>
        <time>2017-09-24T07:58:55.000Z</time>
      </trkpt>
      <trkpt lat="43.34741" lon="2.43477">
        <ele>475</ele>
        <time>2017-09-24T07:58:56.000Z</time>
      </trkpt>
      <trkpt lat="43.34741" lon="2.43476">
        <ele>475</ele>
        <time>2017-09-24T07:58:57.000Z</time>
      </trkpt>
      <trkpt lat="43.34741" lon="2.43475">
        <ele>475</ele>
        <time>2017-09-24T07:58:58.000Z</time>
      </trkpt>
      <trkpt lat="43.34741" lon="2.43474">
        <ele>475</ele>
        <time>2017-09-24T07:58:59.000Z</time>
      </trkpt>
      <trkpt lat="43.3474" lon="2.43473">
        <ele>475</ele>
        <time>2017-09-24T07:59:00.000Z</time>
      </trkpt>
      <trkpt lat="43.3474" lon="2.43471">
        <ele>475</ele>
        <time>2017-09-24T07:59:01.000Z</time>
      </trkpt>
      <trkpt lat="43.3474" lon="2.4347">
        <ele>475</ele>
        <time>2017-09-24T07:59:02.000Z</time>
      </trkpt>
      <trkpt lat="43.34739" lon="2.43469">
        <ele>475</ele>
        <time>2017-09-24T07:59:03.000Z</time>
      </trkpt>
      <trkpt lat="43.34739" lon="2.43468">
        <ele>476</ele>
        <time>2017-09-24T07:59:04.000Z</time>
      </trkpt>
      <trkpt lat="43.34739" lon="2.43467">
        <ele>476</ele>
        <time>2017-09-24T07:59:05.000Z</time>
      </trkpt>
      <trkpt lat="43.34738" lon="2.43466">
        <ele>476</ele>
        <time>2017-09-24T07:59:06.000Z</time>
      </trkpt>
      <trkpt lat="43.34738" lon="2.43464">
        <ele>476</ele>
        <time>2017-09-24T07:59:07.000Z</time>
      </trkpt>
      <trkpt lat="43.34737" lon="2.43463">
        <ele>476</ele>
        <time>2017-09-24T07:59:08.000Z</time>
      </trkpt>
      <trkpt lat="43.34737" lon="2.43462">
        <ele>476</ele>
        <time>2017-09-24T07:59:09.000Z</time>
      </trkpt>
      <trkpt lat="43.34737" lon="2.43461">
        <ele>476</ele>
        <time>2017-09-24T07:59:10.000Z</time>
      </trkpt>
      <trkpt lat="43.34736" lon="2.43459">
        <ele>476</ele>
        <time>2017-09-24T07:59:11.000Z</time>
      </trkpt>
      <trkpt lat="43.34736" lon="2.43458">
        <ele>476</ele>
        <time>2017-09-24T07:59:12.000Z</time>
      </trkpt>
      <trkpt lat="43.34735" lon="2.43457">
        <ele>476</ele>
        <time>2017-09-24T07:59:13.000Z</time>
      </trkpt>
      <trkpt lat="43.34735" lon="2.43455">
        <ele>476</ele>
        <time>2017-09-24T07:59:14.000Z</time>
      </trkpt>
      <trkpt lat="43.34734" lon="2.43454">
        <ele>476</ele>
        <time>2017-09-24T07:59:15.000Z</time>
      </trkpt>
      <trkpt lat="43.34734" lon="2.43453">
        <ele>476</ele>
        <time>2017-09-24T07:59:16.000Z</time>
      </trkpt>
      <trkpt lat="43.34734" lon="2.43451">
        <ele>476</ele>
        <time>2017-09-24T07:59:17.000Z</time>
      </trkpt>
      <trkpt lat="43.34733" lon="2.4345">
        <ele>476</ele>
        <time>2017-09-24T07:59:18.000Z</time>
      </trkpt>
      <trkpt lat="43.34733" lon="2.43449">
        <ele>476</ele>
        <time>2017-09-24T07:59:19.000Z</time>
      </trkpt>
      <trkpt lat="43.34733" lon="2.43447">
        <ele>476</ele>
        <time>2017-09-24T07:59:20.000Z</time>
      </trkpt>
      <trkpt lat="43.34732" lon="2.43446">
        <ele>476</ele>
        <time>2017-09-24T07:59:21.000Z</time>
      </trkpt>
      <trkpt lat="43.34732" lon="2.43445">
        <ele>476</ele>
        <time>2017-09-24T07:59:22.000Z</time>
      </trkpt>
      <trkpt lat="43.34732" lon="2.43444">
        <ele>476</ele>
        <time>2017-09-24T07:59:23.000Z</time>
      </trkpt>
      <trkpt lat="43.34732" lon="2.43443">
        <ele>476</ele>
        <time>2017-09-24T07:59:24.000Z</time>
      </trkpt>
      <trkpt lat="43.34732" lon="2.43441">
        <ele>476</ele>
        <time>2017-09-24T07:59:25.000Z</time>
      </trkpt>
      <trkpt lat="43.34731" lon="2.4344">
        <ele>476</ele>
        <time>2017-09-24T07:59:26.000Z</time>
      </trkpt>
      <trkpt lat="43.34731" lon="2.43439">
        <ele>477</ele>
        <time>2017-09-24T07:59:27.000Z</time>
      </trkpt>
      <trkpt lat="43.3473" lon="2.43437">
        <ele>477</ele>
        <time>2017-09-24T07:59:28.000Z</time>
      </trkpt>
      <trkpt lat="43.3473" lon="2.43436">
        <ele>477</ele>
        <time>2017-09-24T07:59:29.000Z</time>
      </trkpt>
      <trkpt lat="43.34729" lon="2.43434">
        <ele>477</ele>
        <time>2017-09-24T07:59:30.000Z</time>
      </trkpt>
      <trkpt lat="43.34728" lon="2.43433">
        <ele>477</ele>
        <time>2017-09-24T07:59:31.000Z</time>
      </trkpt>
      <trkpt lat="43.34728" lon="2.43431">
        <ele>477</ele>
        <time>2017-09-24T07:59:32.000Z</time>
      </trkpt>
      <trkpt lat="43.34727" lon="2.4343">
        <ele>477</ele>
        <time>2017-09-24T07:59:33.000Z</time>
      </trkpt>
      <trkpt lat="43.34727" lon="2.43429">
        <ele>477</ele>
        <time>2017-09-24T07:59:34.000Z</time>
      </trkpt>
      <trkpt lat="43.34727" lon="2.43428">
        <ele>477</ele>
        <time>2017-09-24T07:59:35.000Z</time>
      </trkpt>
      <trkpt lat="43.34726" lon="2.43426">
        <ele>477</ele>
        <time>2017-09-24T07:59:36.000Z</time>
      </trkpt>
      <trkpt lat="43.34726" lon="2.43425">
        <ele>477</ele>
        <time>2017-09-24T07:59:37.000Z</time>
      </trkpt>
      <trkpt lat="43.34725" lon="2.43424">
        <ele>477</ele>
        <time>2017-09-24T07:59:38.000Z</time>
      </trkpt>
      <trkpt lat="43.34725" lon="2.43423">
        <ele>477</ele>
        <time>2017-09-24T07:59:39.000Z</time>
      </trkpt>
      <trkpt lat="43.34725" lon="2.43421">
        <ele>477</ele>
        <time>2017-09-24T07:59:40.000Z</time>
      </trkpt>
      <trkpt lat="43.34725" lon="2.4342">
        <ele>477</ele>
        <time>2017-09-24T07:59:41.000Z</time>
      </trkpt>
      <trkpt lat="43.34725" lon="2.43419">
        <ele>477</ele>
        <time>2017-09-24T07:59:42.000Z</time>
      </trkpt>
      <trkpt lat="43.34724" lon="2.43418">
        <ele>477</ele>
        <time>2017-09-24T07:59:43.000Z</time>
      </trkpt>
      <trkpt lat="43.34724" lon="2.43417">
        <ele>477</ele>
        <time>2017-09-24T07:59:44.000Z</time>
      </trkpt>
      <trkpt lat="43.34723" lon="2.43415">
        <ele>477</ele>
        <time>2017-09-24T07:59:45.000Z</time>
      </trkpt>
      <trkpt lat="43.34723" lon="2.43414">
        <ele>477</ele>
        <time>2017-09-24T07:59:46.000Z</time>
      </trkpt>
      <trkpt lat="43.34722" lon="2.43413">
        <ele>477</ele>
        <time>2017-09-24T07:59:47.000Z</time>
      </trkpt>
      <trkpt lat="43.34722" lon="2.43412">
        <ele>477</ele>
        <time>2017-09-24T07:59:48.000Z</time>
      </trkpt>
      <trkpt lat="43.34721" lon="2.4341">
        <ele>477</ele>
        <time>2017-09-24T07:59:49.000Z</time>
      </trkpt>
      <trkpt lat="43.34721" lon="2.43409">
        <ele>478</ele>
        <time>2017-09-24T07:59:50.000Z</time>
      </trkpt>
      <trkpt lat="43.34721" lon="2.43408">
        <ele>478</ele>
        <time>2017-09-24T07:59:51.000Z</time>
      </trkpt>
      <trkpt lat="43.3472" lon="2.43406">
        <ele>478</ele>
        <time>2017-09-24T07:59:52.000Z</time>
      </trkpt>
      <trkpt lat="43.3472" lon="2.43405">
        <ele>478</ele>
        <time>2017-09-24T07:59:53.000Z</time>
      </trkpt>
      <trkpt lat="43.34719" lon="2.43404">
        <ele>478</ele>
        <time>2017-09-24T07:59:54.000Z</time>
      </trkpt>
      <trkpt lat="43.34719" lon="2.43403">
        <ele>478</ele>
        <time>2017-09-24T07:59:55.000Z</time>
      </trkpt>
      <trkpt lat="43.34719" lon="2.43401">
        <ele>478</ele>
        <time>2017-09-24T07:59:56.000Z</time>
      </trkpt>
      <trkpt lat="43.34718" lon="2.434">
        <ele>478</ele>
        <time>2017-09-24T07:59:57.000Z</time>
      </trkpt>
      <trkpt lat="43.34718" lon="2.43398">
        <ele>479</ele>
        <time>2017-09-24T07:59:58.000Z</time>
      </trkpt>
      <trkpt lat="43.34718" lon="2.43397">
        <ele>479</ele>
        <time>2017-09-24T07:59:59.000Z</time>
      </trkpt>
      <trkpt lat="43.34718" lon="2.43396">
        <ele>479</ele>
        <time>2017-09-24T08:00:00.000Z</time>
      </trkpt>
      <trkpt lat="43.34718" lon="2.43394">
        <ele>479</ele>
        <time>2017-09-24T08:00:01.000Z</time>
      </trkpt>
      <trkpt lat="43.34719" lon="2.43393">
        <ele>479</ele>
        <time>2017-09-24T08:00:02.000Z</time>
      </trkpt>
      <trkpt lat="43.34719" lon="2.43392">
        <ele>480</ele>
        <time>2017-09-24T08:00:03.000Z</time>
      </trkpt>
      <trkpt lat="43.34719" lon="2.4339">
        <ele>480</ele>
        <time>2017-09-24T08:00:04.000Z</time>
      </trkpt>
      <trkpt lat="43.34719" lon="2.43389">
        <ele>480</ele>
        <time>2017-09-24T08:00:05.000Z</time>
      </trkpt>
      <trkpt lat="43.3472" lon="2.43388">
        <ele>480</ele>
        <time>2017-09-24T08:00:06.000Z</time>
      </trkpt>
      <trkpt lat="43.3472" lon="2.43387">
        <ele>481</ele>
        <time>2017-09-24T08:00:07.000Z</time>
      </trkpt>
      <trkpt lat="43.34721" lon="2.43386">
        <ele>481</ele>
        <time>2017-09-24T08:00:08.000Z</time>
      </trkpt>
      <trkpt lat="43.34721" lon="2.43384">
        <ele>481</ele>
        <time>2017-09-24T08:00:09.000Z</time>
      </trkpt>
      <trkpt lat="43.34722" lon="2.43383">
        <ele>481</ele>
        <time>2017-09-24T08:00:10.000Z</time>
      </trkpt>
      <trkpt lat="43.34723" lon="2.43382">
        <ele>482</ele>
        <time>2017-09-24T08:00:11.000Z</time>
      </trkpt>
      <trkpt lat="43.34723" lon="2.43382">
        <ele>482</ele>
        <time>2017-09-24T08:00:12.000Z</time>
      </trkpt>
      <trkpt lat="43.34723" lon="2.43381">
        <ele>482</ele>
        <time>2017-09-24T08:00:13.000Z</time>
      </trkpt>
      <trkpt lat="43.34724" lon="2.4338">
        <ele>482</ele>
        <time>2017-09-24T08:00:14.000Z</time>
      </trkpt>
      <trkpt lat="43.34724" lon="2.43379">
        <ele>483</ele>
        <time>2017-09-24T08:00:15.000Z</time>
      </trkpt>
      <trkpt lat="43.34725" lon="2.43378">
        <ele>483</ele>
        <time>2017-09-24T08:00:16.000Z</time>
      </trkpt>
      <trkpt lat="43.34726" lon="2.43377">
        <ele>483</ele>
        <time>2017-09-24T08:00:17.000Z</time>
      </trkpt>
      <trkpt lat="43.34727" lon="2.43377">
        <ele>483</ele>
        <time>2017-09-24T08:00:18.000Z</time>
      </trkpt>
      <trkpt lat="43.34728" lon="2.43376">
        <ele>483</ele>
        <time>2017-09-24T08:00:19.000Z</time>
      </trkpt>
      <trkpt lat="43.34728" lon="2.43375">
        <ele>483</ele>
        <time>2017-09-24T08:00:20.000Z</time>
      </trkpt>
      <trkpt lat="43.34729" lon="2.43375">
        <ele>483</ele>
        <time>2017-09-24T08:00:21.000Z</time>
      </trkpt>
      <trkpt lat="43.34731" lon="2.43374">
        <ele>483</ele>
        <time>2017-09-24T08:00:22.000Z</time>
      </trkpt>
      <trkpt lat="43.34732" lon="2.43374">
        <ele>483</ele>
        <time>2017-09-24T08:00:23.000Z</time>
      </trkpt>
      <trkpt lat="43.34732" lon="2.43373">
        <ele>483</ele>
        <time>2017-09-24T08:00:24.000Z</time>
      </trkpt>
      <trkpt lat="43.34734" lon="2.43373">
        <ele>483</ele>
        <time>2017-09-24T08:00:25.000Z</time>
      </trkpt>
      <trkpt lat="43.34735" lon="2.43373">
        <ele>483</ele>
        <time>2017-09-24T08:00:26.000Z</time>
      </trkpt>
      <trkpt lat="43.34736" lon="2.43373">
        <ele>483</ele>
        <time>2017-09-24T08:00:27.000Z</time>
      </trkpt>
      <trkpt lat="43.34737" lon="2.43373">
        <ele>483</ele>
        <time>2017-09-24T08:00:28.000Z</time>
      </trkpt>
      <trkpt lat="43.34738" lon="2.43373">
        <ele>483</ele>
        <time>2017-09-24T08:00:29.000Z</time>
      </trkpt>
      <trkpt lat="43.34739" lon="2.43373">
        <ele>483</ele>
        <time>2017-09-24T08:00:30.000Z</time>
      </trkpt>
      <trkpt lat="43.3474" lon="2.43373">
        <ele>483</ele>
        <time>2017-09-24T08:00:31.000Z</time>
      </trkpt>
      <trkpt lat="43.34741" lon="2.43373">
        <ele>483</ele>
        <time>2017-09-24T08:00:32.000Z</time>
      </trkpt>
      <trkpt lat="43.34742" lon="2.43373">
        <ele>483</ele>
        <time>2017-09-24T08:00:33.000Z</time>
      </trkpt>
      <trkpt lat="43.34743" lon="2.43374">
        <ele>483</ele>
        <time>2017-09-24T08:00:34.000Z</time>
      </trkpt>
      <trkpt lat="43.34743" lon="2.43374">
        <ele>484</ele>
        <time>2017-09-24T08:00:35.000Z</time>
      </trkpt>
      <trkpt lat="43.34744" lon="2.43375">
        <ele>484</ele>
        <time>2017-09-24T08:00:36.000Z</time>
      </trkpt>
      <trkpt lat="43.34745" lon="2.43376">
        <ele>484</ele>
        <time>2017-09-24T08:00:37.000Z</time>
      </trkpt>
      <trkpt lat="43.34746" lon="2.43376">
        <ele>484</ele>
        <time>2017-09-24T08:00:38.000Z</time>
      </trkpt>
      <trkpt lat="43.34747" lon="2.43377">
        <ele>484</ele>
        <time>2017-09-24T08:00:39.000Z</time>
      </trkpt>
      <trkpt lat="43.34748" lon="2.43378">
        <ele>484</ele>
        <time>2017-09-24T08:00:40.000Z</time>
      </trkpt>
      <trkpt lat="43.34749" lon="2.43379">
        <ele>484</ele>
        <time>2017-09-24T08:00:41.000Z</time>
      </trkpt>
      <trkpt lat="43.3475" lon="2.4338">
        <ele>484</ele>
        <time>2017-09-24T08:00:42.000Z</time>
      </trkpt>
      <trkpt lat="43.34751" lon="2.43381">
        <ele>484</ele>
        <time>2017-09-24T08:00:43.000Z</time>
      </trkpt>
      <trkpt lat="43.34751" lon="2.43381">
        <ele>484</ele>
        <time>2017-09-24T08:00:44.000Z</time>
      </trkpt>
      <trkpt lat="43.34752" lon="2.43382">
        <ele>484</ele>
        <time>2017-09-24T08:00:45.000Z</time>
      </trkpt>
      <trkpt lat="43.34753" lon="2.43383">
        <ele>484</ele>
        <time>2017-09-24T08:00:46.000Z</time>
      </trkpt>
      <trkpt lat="43.34754" lon="2.43385">
        <ele>484</ele>
        <time>2017-09-24T08:00:47.000Z</time>
      </trkpt>
      <trkpt lat="43.34755" lon="2.43386">
        <ele>484</ele>
        <time>2017-09-24T08:00:48.000Z</time>
      </trkpt>
      <trkpt lat="43.34756" lon="2.43386">
        <ele>484</ele>
        <time>2017-09-24T08:00:49.000Z</time>
      </trkpt>
      <trkpt lat="43.34757" lon="2.43387">
        <ele>484</ele>
        <time>2017-09-24T08:00:50.000Z</time>
      </trkpt>
      <trkpt lat="43.34757" lon="2.43388">
        <ele>485</ele>
        <time>2017-09-24T08:00:51.000Z</time>
      </trkpt>
      <trkpt lat="43.34758" lon="2.43389">
        <ele>485</ele>
        <time>2017-09-24T08:00:52.000Z</time>
      </trkpt>
      <trkpt lat="43.34759" lon="2.4339">
        <ele>485</ele>
        <time>2017-09-24T08:00:53.000Z</time>
      </trkpt>
      <trkpt lat="43.3476" lon="2.43391">
        <ele>485</ele>
        <time>2017-09-24T08:00:54.000Z</time>
      </trkpt>
      <trkpt lat="43.3476" lon="2.43392">
        <ele>485</ele>
        <time>2017-09-24T08:00:55.000Z</time>
      </trkpt>
      <trkpt lat="43.34761" lon="2.43393">
        <ele>485</ele>
        <time>2017-09-24T08:00:56.000Z</time>
      </trkpt>
      <trkpt lat="43.34762" lon="2.43394">
        <ele>485</ele>
        <time>2017-09-24T08:00:57.000Z</time>
      </trkpt>
      <trkpt lat="43.34762" lon="2.43396">
        <ele>485</ele>
        <time>2017-09-24T08:00:58.000Z</time>
      </trkpt>
      <trkpt lat="43.34763" lon="2.43397">
        <ele>485</ele>
        <time>2017-09-24T08:00:59.000Z</time>
      </trkpt>
      <trkpt lat="43.34764" lon="2.43398">
        <ele>485</ele>
        <time>2017-09-24T08:01:00.000Z</time>
      </trkpt>
      <trkpt lat="43.34764" lon="2.434">
        <ele>485</ele>
        <time>2017-09-24T08:01:01.000Z</time>
      </trkpt>
      <trkpt lat="43.34765" lon="2.43401">
        <ele>485</ele>
        <time>2017-09-24T08:01:02.000Z</time>
      </trkpt>
      <trkpt lat="43.34765" lon="2.43402">
        <ele>485</ele>
        <time>2017-09-24T08:01:03.000Z</time>
      </trkpt>
      <trkpt lat="43.34766" lon="2.43403">
        <ele>486</ele>
        <time>2017-09-24T08:01:04.000Z</time>
      </trkpt>
      <trkpt lat="43.34766" lon="2.43404">
        <ele>486</ele>
        <time>2017-09-24T08:01:05.000Z</time>
      </trkpt>
      <trkpt lat="43.34767" lon="2.43405">
        <ele>486</ele>
        <time>2017-09-24T08:01:06.000Z</time>
      </trkpt>
      <trkpt lat="43.34768" lon="2.43406">
        <ele>486</ele>
        <time>2017-09-24T08:01:07.000Z</time>
      </trkpt>
      <trkpt lat="43.34768" lon="2.43407">
        <ele>486</ele>
        <time>2017-09-24T08:01:08.000Z</time>
      </trkpt>
      <trkpt lat="43.34769" lon="2.43408">
        <ele>486</ele>
        <time>2017-09-24T08:01:09.000Z</time>
      </trkpt>
      <trkpt lat="43.34769" lon="2.43409">
        <ele>486</ele>
        <time>2017-09-24T08:01:10.000Z</time>
      </trkpt>
      <trkpt lat="43.3477" lon="2.43411">
        <ele>486</ele>
        <time>2017-09-24T08:01:11.000Z</time>
      </trkpt>
      <trkpt lat="43.34771" lon="2.43412">
        <ele>486</ele>
        <time>2017-09-24T08:01:12.000Z</time>
      </trkpt>
      <trkpt lat="43.34771" lon="2.43413">
        <ele>486</ele>
        <time>2017-09-24T08:01:13.000Z</time>
      </trkpt>
      <trkpt lat="43.34772" lon="2.43414">
        <ele>487</ele>
        <time>2017-09-24T08:01:14.000Z</time>
      </trkpt>
      <trkpt lat="43.34773" lon="2.43415">
        <ele>487</ele>
        <time>2017-09-24T08:01:15.000Z</time>
      </trkpt>
      <trkpt lat="43.34773" lon="2.43416">
        <ele>487</ele>
        <time>2017-09-24T08:01:16.000Z</time>
      </trkpt>
      <trkpt lat="43.34774" lon="2.43417">
        <ele>487</ele>
        <time>2017-09-24T08:01:17.000Z</time>
      </trkpt>
      <trkpt lat="43.34774" lon="2.43418">
        <ele>487</ele>
        <time>2017-09-24T08:01:18.000Z</time>
      </trkpt>
      <trkpt lat="43.34775" lon="2.43419">
        <ele>487</ele>
        <time>2017-09-24T08:01:19.000Z</time>
      </trkpt>
      <trkpt lat="43.34775" lon="2.4342">
        <ele>487</ele>
        <time>2017-09-24T08:01:20.000Z</time>
      </trkpt>
      <trkpt lat="43.34776" lon="2.43421">
        <ele>487</ele>
        <time>2017-09-24T08:01:21.000Z</time>
      </trkpt>
      <trkpt lat="43.34776" lon="2.43422">
        <ele>488</ele>
        <time>2017-09-24T08:01:22.000Z</time>
      </trkpt>
      <trkpt lat="43.34777" lon="2.43423">
        <ele>488</ele>
        <time>2017-09-24T08:01:23.000Z</time>
      </trkpt>
      <trkpt lat="43.34777" lon="2.43424">
        <ele>488</ele>
        <time>2017-09-24T08:01:24.000Z</time>
      </trkpt>
      <trkpt lat="43.34777" lon="2.43424">
        <ele>488</ele>
        <time>2017-09-24T08:01:25.000Z</time>
      </trkpt>
      <trkpt lat="43.34777" lon="2.43425">
        <ele>488</ele>
        <time>2017-09-24T08:01:26.000Z</time>
      </trkpt>
      <trkpt lat="43.34777" lon="2.43426">
        <ele>488</ele>
        <time>2017-09-24T08:01:27.000Z</time>
      </trkpt>
      <trkpt lat="43.34778" lon="2.43427">
        <ele>488</ele>
        <time>2017-09-24T08:01:28.000Z</time>
      </trkpt>
      <trkpt lat="43.34778" lon="2.43428">
        <ele>488</ele>
        <time>2017-09-24T08:01:29.000Z</time>
      </trkpt>
      <trkpt lat="43.34778" lon="2.43429">
        <ele>488</ele>
        <time>2017-09-24T08:01:30.000Z</time>
      </trkpt>
      <trkpt lat="43.34779" lon="2.4343">
        <ele>488</ele>
        <time>2017-09-24T08:01:31.000Z</time>
      </trkpt>
      <trkpt lat="43.3478" lon="2.43431">
        <ele>489</ele>
        <time>2017-09-24T08:01:32.000Z</time>
      </trkpt>
      <trkpt lat="43.3478" lon="2.43432">
        <ele>489</ele>
        <time>2017-09-24T08:01:33.000Z</time>
      </trkpt>
      <trkpt lat="43.34781" lon="2.43433">
        <ele>489</ele>
        <time>2017-09-24T08:01:34.000Z</time>
      </trkpt>
      <trkpt lat="43.34781" lon="2.43434">
        <ele>489</ele>
        <time>2017-09-24T08:01:35.000Z</time>
      </trkpt>
      <trkpt lat="43.34782" lon="2.43435">
        <ele>489</ele>
        <time>2017-09-24T08:01:36.000Z</time>
      </trkpt>
      <trkpt lat="43.34783" lon="2.43435">
        <ele>489</ele>
        <time>2017-09-24T08:01:37.000Z</time>
      </trkpt>
      <trkpt lat="43.34783" lon="2.43436">
        <ele>489</ele>
        <time>2017-09-24T08:01:38.000Z</time>
      </trkpt>
      <trkpt lat="43.34784" lon="2.43437">
        <ele>489</ele>
        <time>2017-09-24T08:01:39.000Z</time>
      </trkpt>
      <trkpt lat="43.34785" lon="2.43438">
        <ele>489</ele>
        <time>2017-09-24T08:01:40.000Z</time>
      </trkpt>
      <trkpt lat="43.34786" lon="2.43439">
        <ele>489</ele>
        <time>2017-09-24T08:01:41.000Z</time>
      </trkpt>
      <trkpt lat="43.34786" lon="2.43439">
        <ele>490</ele>
        <time>2017-09-24T08:01:42.000Z</time>
      </trkpt>
      <trkpt lat="43.34787" lon="2.4344">
        <ele>490</ele>
        <time>2017-09-24T08:01:43.000Z</time>
      </trkpt>
      <trkpt lat="43.34787" lon="2.4344">
        <ele>490</ele>
        <time>2017-09-24T08:01:44.000Z</time>
      </trkpt>
      <trkpt lat="43.34788" lon="2.43441">
        <ele>490</ele>
        <time>2017-09-24T08:01:45.000Z</time>
      </trkpt>
      <trkpt lat="43.34789" lon="2.43442">
        <ele>490</ele>
        <time>2017-09-24T08:01:46.000Z</time>
      </trkpt>
      <trkpt lat="43.3479" lon="2.43442">
        <ele>490</ele>
        <time>2017-09-24T08:01:47.000Z</time>
      </trkpt>
      <trkpt lat="43.34791" lon="2.43442">
        <ele>491</ele>
        <time>2017-09-24T08:01:48.000Z</time>
      </trkpt>
      <trkpt lat="43.34792" lon="2.43443">
        <ele>491</ele>
        <time>2017-09-24T08:01:49.000Z</time>
      </trkpt>
      <trkpt lat="43.34792" lon="2.43443">
        <ele>491</ele>
        <time>2017-09-24T08:01:50.000Z</time>
      </trkpt>
      <trkpt lat="43.34793" lon="2.43443">
        <ele>491</ele>
        <time>2017-09-24T08:01:51.000Z</time>
      </trkpt>
      <trkpt lat="43.34794" lon="2.43443">
        <ele>491</ele>
        <time>2017-09-24T08:01:52.000Z</time>
      </trkpt>
      <trkpt lat="43.34795" lon="2.43444">
        <ele>491</ele>
        <time>2017-09-24T08:01:53.000Z</time>
      </trkpt>
      <trkpt lat="43.34796" lon="2.43444">
        <ele>491</ele>
        <time>2017-09-24T08:01:54.000Z</time>
      </trkpt>
      <trkpt lat="43.34797" lon="2.43445">
        <ele>491</ele>
        <time>2017-09-24T08:01:55.000Z</time>
      </trkpt>
      <trkpt lat="43.34797" lon="2.43445">
        <ele>491</ele>
        <time>2017-09-24T08:01:56.000Z</time>
      </trkpt>
      <trkpt lat="43.34798" lon="2.43445">
        <ele>491</ele>
        <time>2017-09-24T08:01:57.000Z</time>
      </trkpt>
      <trkpt lat="43.34799" lon="2.43445">
        <ele>491</ele>
        <time>2017-09-24T08:01:58.000Z</time>
      </trkpt>
      <trkpt lat="43.348" lon="2.43445">
        <ele>491</ele>
        <time>2017-09-24T08:01:59.000Z</time>
      </trkpt>
      <trkpt lat="43.34801" lon="2.43445">
        <ele>492</ele>
        <time>2017-09-24T08:02:00.000Z</time>
      </trkpt>
      <trkpt lat="43.34802" lon="2.43444">
        <ele>492</ele>
        <time>2017-09-24T08:02:01.000Z</time>
      </trkpt>
      <trkpt lat="43.34803" lon="2.43444">
        <ele>492</ele>
        <time>2017-09-24T08:02:02.000Z</time>
      </trkpt>
      <trkpt lat="43.34804" lon="2.43443">
        <ele>492</ele>
        <time>2017-09-24T08:02:03.000Z</time>
      </trkpt>
      <trkpt lat="43.34805" lon="2.43443">
        <ele>492</ele>
        <time>2017-09-24T08:02:04.000Z</time>
      </trkpt>
      <trkpt lat="43.34806" lon="2.43443">
        <ele>492</ele>
        <time>2017-09-24T08:02:05.000Z</time>
      </trkpt>
      <trkpt lat="43.34807" lon="2.43442">
        <ele>492</ele>
        <time>2017-09-24T08:02:06.000Z</time>
      </trkpt>
      <trkpt lat="43.34808" lon="2.43441">
        <ele>492</ele>
        <time>2017-09-24T08:02:07.000Z</time>
      </trkpt>
      <trkpt lat="43.34809" lon="2.43441">
        <ele>492</ele>
        <time>2017-09-24T08:02:08.000Z</time>
      </trkpt>
      <trkpt lat="43.3481" lon="2.4344">
        <ele>492</ele>
        <time>2017-09-24T08:02:09.000Z</time>
      </trkpt>
      <trkpt lat="43.3481" lon="2.4344">
        <ele>492</ele>
        <time>2017-09-24T08:02:10.000Z</time>
      </trkpt>
      <trkpt lat="43.34811" lon="2.4344">
        <ele>492</ele>
        <time>2017-09-24T08:02:11.000Z</time>
      </trkpt>
      <trkpt lat="43.34813" lon="2.43439">
        <ele>492</ele>
        <time>2017-09-24T08:02:12.000Z</time>
      </trkpt>
      <trkpt lat="43.34813" lon="2.43439">
        <ele>492</ele>
        <time>2017-09-24T08:02:13.000Z</time>
      </trkpt>
      <trkpt lat="43.34814" lon="2.43438">
        <ele>492</ele>
        <time>2017-09-24T08:02:14.000Z</time>
      </trkpt>
      <trkpt lat="43.34815" lon="2.43438">
        <ele>492</ele>
        <time>2017-09-24T08:02:15.000Z</time>
      </trkpt>
      <trkpt lat="43.34816" lon="2.43437">
        <ele>492</ele>
        <time>2017-09-24T08:02:16.000Z</time>
      </trkpt>
      <trkpt lat="43.34817" lon="2.43436">
        <ele>492</ele>
        <time>2017-09-24T08:02:17.000Z</time>
      </trkpt>
      <trkpt lat="43.34818" lon="2.43436">
        <ele>492</ele>
        <time>2017-09-24T08:02:18.000Z</time>
      </trkpt>
      <trkpt lat="43.34819" lon="2.43435">
        <ele>492</ele>
        <time>2017-09-24T08:02:19.000Z</time>
      </trkpt>
      <trkpt lat="43.3482" lon="2.43435">
        <ele>492</ele>
        <time>2017-09-24T08:02:20.000Z</time>
      </trkpt>
      <trkpt lat="43.3482" lon="2.43436">
        <ele>492</ele>
        <time>2017-09-24T08:02:21.000Z</time>
      </trkpt>
      <trkpt lat="43.3482" lon="2.43436">
        <ele>492</ele>
        <time>2017-09-24T08:02:22.000Z</time>
      </trkpt>
      <trkpt lat="43.3482" lon="2.43436">
        <ele>492</ele>
        <time>2017-09-24T08:02:23.000Z</time>
      </trkpt>
      <trkpt lat="43.34824" lon="2.43434">
        <ele>493</ele>
        <time>2017-09-24T08:02:37.000Z</time>
      </trkpt>
      <trkpt lat="43.34825" lon="2.43434">
        <ele>493</ele>
        <time>2017-09-24T08:02:38.000Z</time>
      </trkpt>
      <trkpt lat="43.34826" lon="2.43434">
        <ele>493</ele>
        <time>2017-09-24T08:02:39.000Z</time>
      </trkpt>
      <trkpt lat="43.34827" lon="2.43434">
        <ele>493</ele>
        <time>2017-09-24T08:02:40.000Z</time>
      </trkpt>
      <trkpt lat="43.34829" lon="2.43434">
        <ele>493</ele>
        <time>2017-09-24T08:02:41.000Z</time>
      </trkpt>
      <trkpt lat="43.3483" lon="2.43434">
        <ele>493</ele>
        <time>2017-09-24T08:02:42.000Z</time>
      </trkpt>
      <trkpt lat="43.34831" lon="2.43434">
        <ele>493</ele>
        <time>2017-09-24T08:02:43.000Z</time>
      </trkpt>
      <trkpt lat="43.34832" lon="2.43434">
        <ele>493</ele>
        <time>2017-09-24T08:02:44.000Z</time>
      </trkpt>
      <trkpt lat="43.34833" lon="2.43435">
        <ele>493</ele>
        <time>2017-09-24T08:02:45.000Z</time>
      </trkpt>
      <trkpt lat="43.34835" lon="2.43435">
        <ele>494</ele>
        <time>2017-09-24T08:02:46.000Z</time>
      </trkpt>
      <trkpt lat="43.34836" lon="2.43436">
        <ele>494</ele>
        <time>2017-09-24T08:02:47.000Z</time>
      </trkpt>
      <trkpt lat="43.34837" lon="2.43436">
        <ele>494</ele>
        <time>2017-09-24T08:02:48.000Z</time>
      </trkpt>
      <trkpt lat="43.34838" lon="2.43436">
        <ele>494</ele>
        <time>2017-09-24T08:02:49.000Z</time>
      </trkpt>
      <trkpt lat="43.34839" lon="2.43436">
        <ele>494</ele>
        <time>2017-09-24T08:02:50.000Z</time>
      </trkpt>
      <trkpt lat="43.3484" lon="2.43436">
        <ele>494</ele>
        <time>2017-09-24T08:02:51.000Z</time>
      </trkpt>
      <trkpt lat="43.34841" lon="2.43436">
        <ele>494</ele>
        <time>2017-09-24T08:02:52.000Z</time>
      </trkpt>
      <trkpt lat="43.34842" lon="2.43436">
        <ele>494</ele>
        <time>2017-09-24T08:02:53.000Z</time>
      </trkpt>
      <trkpt lat="43.34843" lon="2.43436">
        <ele>494</ele>
        <time>2017-09-24T08:02:54.000Z</time>
      </trkpt>
      <trkpt lat="43.34844" lon="2.43436">
        <ele>494</ele>
        <time>2017-09-24T08:02:55.000Z</time>
      </trkpt>
      <trkpt lat="43.34845" lon="2.43436">
        <ele>495</ele>
        <time>2017-09-24T08:02:56.000Z</time>
      </trkpt>
      <trkpt lat="43.34846" lon="2.43437">
        <ele>495</ele>
        <time>2017-09-24T08:02:57.000Z</time>
      </trkpt>
      <trkpt lat="43.34847" lon="2.43437">
        <ele>495</ele>
        <time>2017-09-24T08:02:58.000Z</time>
      </trkpt>
      <trkpt lat="43.34849" lon="2.43437">
        <ele>495</ele>
        <time>2017-09-24T08:02:59.000Z</time>
      </trkpt>
      <trkpt lat="43.34849" lon="2.43437">
        <ele>495</ele>
        <time>2017-09-24T08:03:00.000Z</time>
      </trkpt>
      <trkpt lat="43.3485" lon="2.43437">
        <ele>495</ele>
        <time>2017-09-24T08:03:01.000Z</time>
      </trkpt>
      <trkpt lat="43.34852" lon="2.43437">
        <ele>496</ele>
        <time>2017-09-24T08:03:02.000Z</time>
      </trkpt>
      <trkpt lat="43.34853" lon="2.43437">
        <ele>496</ele>
        <time>2017-09-24T08:03:03.000Z</time>
      </trkpt>
      <trkpt lat="43.34854" lon="2.43437">
        <ele>496</ele>
        <time>2017-09-24T08:03:04.000Z</time>
      </trkpt>
      <trkpt lat="43.34855" lon="2.43437">
        <ele>496</ele>
        <time>2017-09-24T08:03:05.000Z</time>
      </trkpt>
      <trkpt lat="43.34856" lon="2.43437">
        <ele>496</ele>
        <time>2017-09-24T08:03:06.000Z</time>
      </trkpt>
      <trkpt lat="43.34857" lon="2.43437">
        <ele>497</ele>
        <time>2017-09-24T08:03:07.000Z</time>
      </trkpt>
      <trkpt lat="43.34858" lon="2.43437">
        <ele>497</ele>
        <time>2017-09-24T08:03:08.000Z</time>
      </trkpt>
      <trkpt lat="43.34859" lon="2.43437">
        <ele>497</ele>
        <time>2017-09-24T08:03:09.000Z</time>
      </trkpt>
      <trkpt lat="43.3486" lon="2.43437">
        <ele>497</ele>
        <time>2017-09-24T08:03:10.000Z</time>
      </trkpt>
      <trkpt lat="43.34861" lon="2.43437">
        <ele>497</ele>
        <time>2017-09-24T08:03:11.000Z</time>
      </trkpt>
      <trkpt lat="43.34863" lon="2.43436">
        <ele>498</ele>
        <time>2017-09-24T08:03:12.000Z</time>
      </trkpt>
      <trkpt lat="43.34864" lon="2.43436">
        <ele>498</ele>
        <time>2017-09-24T08:03:13.000Z</time>
      </trkpt>
      <trkpt lat="43.34865" lon="2.43436">
        <ele>498</ele>
        <time>2017-09-24T08:03:14.000Z</time>
      </trkpt>
      <trkpt lat="43.34866" lon="2.43436">
        <ele>498</ele>
        <time>2017-09-24T08:03:15.000Z</time>
      </trkpt>
      <trkpt lat="43.34867" lon="2.43437">
        <ele>499</ele>
        <time>2017-09-24T08:03:16.000Z</time>
      </trkpt>
      <trkpt lat="43.34868" lon="2.43437">
        <ele>499</ele>
        <time>2017-09-24T08:03:17.000Z</time>
      </trkpt>
      <trkpt lat="43.34869" lon="2.43437">
        <ele>499</ele>
        <time>2017-09-24T08:03:18.000Z</time>
      </trkpt>
      <trkpt lat="43.34871" lon="2.43436">
        <ele>499</ele>
        <time>2017-09-24T08:03:19.000Z</time>
      </trkpt>
      <trkpt lat="43.34872" lon="2.43436">
        <ele>499</ele>
        <time>2017-09-24T08:03:20.000Z</time>
      </trkpt>
      <trkpt lat="43.34873" lon="2.43436">
        <ele>499</ele>
        <time>2017-09-24T08:03:21.000Z</time>
      </trkpt>
      <trkpt lat="43.34874" lon="2.43436">
        <ele>499</ele>
        <time>2017-09-24T08:03:22.000Z</time>
      </trkpt>
      <trkpt lat="43.34875" lon="2.43436">
        <ele>499</ele>
        <time>2017-09-24T08:03:23.000Z</time>
      </trkpt>
      <trkpt lat="43.34877" lon="2.43436">
        <ele>498</ele>
        <time>2017-09-24T08:03:24.000Z</time>
      </trkpt>
      <trkpt lat="43.34878" lon="2.43436">
        <ele>498</ele>
        <time>2017-09-24T08:03:25.000Z</time>
      </trkpt>
      <trkpt lat="43.34879" lon="2.43436">
        <ele>498</ele>
        <time>2017-09-24T08:03:26.000Z</time>
      </trkpt>
      <trkpt lat="43.3488" lon="2.43436">
        <ele>498</ele>
        <time>2017-09-24T08:03:27.000Z</time>
      </trkpt>
      <trkpt lat="43.34881" lon="2.43436">
        <ele>498</ele>
        <time>2017-09-24T08:03:28.000Z</time>
      </trkpt>
      <trkpt lat="43.34882" lon="2.43436">
        <ele>498</ele>
        <time>2017-09-24T08:03:29.000Z</time>
      </trkpt>
      <trkpt lat="43.34883" lon="2.43436">
        <ele>498</ele>
        <time>2017-09-24T08:03:30.000Z</time>
      </trkpt>
      <trkpt lat="43.34884" lon="2.43436">
        <ele>498</ele>
        <time>2017-09-24T08:03:31.000Z</time>
      </trkpt>
      <trkpt lat="43.34885" lon="2.43436">
        <ele>498</ele>
        <time>2017-09-24T08:03:32.000Z</time>
      </trkpt>
      <trkpt lat="43.34886" lon="2.43436">
        <ele>498</ele>
        <time>2017-09-24T08:03:33.000Z</time>
      </trkpt>
      <trkpt lat="43.34888" lon="2.43436">
        <ele>498</ele>
        <time>2017-09-24T08:03:34.000Z</time>
      </trkpt>
      <trkpt lat="43.34889" lon="2.43436">
        <ele>498</ele>
        <time>2017-09-24T08:03:35.000Z</time>
      </trkpt>
      <trkpt lat="43.3489" lon="2.43436">
        <ele>498</ele>
        <time>2017-09-24T08:03:36.000Z</time>
      </trkpt>
      <trkpt lat="43.34891" lon="2.43436">
        <ele>498</ele>
        <time>2017-09-24T08:03:37.000Z</time>
      </trkpt>
      <trkpt lat="43.34893" lon="2.43437">
        <ele>498</ele>
        <time>2017-09-24T08:03:38.000Z</time>
      </trkpt>
      <trkpt lat="43.34894" lon="2.43437">
        <ele>498</ele>
        <time>2017-09-24T08:03:39.000Z</time>
      </trkpt>
      <trkpt lat="43.34895" lon="2.43437">
        <ele>498</ele>
        <time>2017-09-24T08:03:40.000Z</time>
      </trkpt>
      <trkpt lat="43.34896" lon="2.43437">
        <ele>498</ele>
        <time>2017-09-24T08:03:41.000Z</time>
      </trkpt>
      <trkpt lat="43.34897" lon="2.43437">
        <ele>498</ele>
        <time>2017-09-24T08:03:42.000Z</time>
      </trkpt>
      <trkpt lat="43.34898" lon="2.43437">
        <ele>498</ele>
        <time>2017-09-24T08:03:43.000Z</time>
      </trkpt>
      <trkpt lat="43.34899" lon="2.43437">
        <ele>498</ele>
        <time>2017-09-24T08:03:44.000Z</time>
      </trkpt>
      <trkpt lat="43.349" lon="2.43437">
        <ele>498</ele>
        <time>2017-09-24T08:03:45.000Z</time>
      </trkpt>
      <trkpt lat="43.34902" lon="2.43437">
        <ele>498</ele>
        <time>2017-09-24T08:03:46.000Z</time>
      </trkpt>
      <trkpt lat="43.34903" lon="2.43437">
        <ele>498</ele>
        <time>2017-09-24T08:03:47.000Z</time>
      </trkpt>
      <trkpt lat="43.34904" lon="2.43438">
        <ele>498</ele>
        <time>2017-09-24T08:03:48.000Z</time>
      </trkpt>
      <trkpt lat="43.34905" lon="2.43437">
        <ele>498</ele>
        <time>2017-09-24T08:03:49.000Z</time>
      </trkpt>
      <trkpt lat="43.34906" lon="2.43438">
        <ele>498</ele>
        <time>2017-09-24T08:03:50.000Z</time>
      </trkpt>
      <trkpt lat="43.34907" lon="2.43438">
        <ele>498</ele>
        <time>2017-09-24T08:03:51.000Z</time>
      </trkpt>
      <trkpt lat="43.34908" lon="2.43438">
        <ele>498</ele>
        <time>2017-09-24T08:03:52.000Z</time>
      </trkpt>
      <trkpt lat="43.3491" lon="2.43438">
        <ele>498</ele>
        <time>2017-09-24T08:03:53.000Z</time>
      </trkpt>
      <trkpt lat="43.34911" lon="2.43438">
        <ele>498</ele>
        <time>2017-09-24T08:03:54.000Z</time>
      </trkpt>
      <trkpt lat="43.34912" lon="2.43438">
        <ele>498</ele>
        <time>2017-09-24T08:03:55.000Z</time>
      </trkpt>
      <trkpt lat="43.34913" lon="2.43438">
        <ele>498</ele>
        <time>2017-09-24T08:03:56.000Z</time>
      </trkpt>
      <trkpt lat="43.34914" lon="2.43438">
        <ele>498</ele>
        <time>2017-09-24T08:03:57.000Z</time>
      </trkpt>
      <trkpt lat="43.34915" lon="2.43438">
        <ele>498</ele>
        <time>2017-09-24T08:03:58.000Z</time>
      </trkpt>
      <trkpt lat="43.34916" lon="2.43438">
        <ele>498</ele>
        <time>2017-09-24T08:03:59.000Z</time>
      </trkpt>
      <trkpt lat="43.34917" lon="2.43438">
        <ele>498</ele>
        <time>2017-09-24T08:04:00.000Z</time>
      </trkpt>
      <trkpt lat="43.34918" lon="2.43438">
        <ele>498</ele>
        <time>2017-09-24T08:04:01.000Z</time>
      </trkpt>
      <trkpt lat="43.34919" lon="2.43438">
        <ele>498</ele>
        <time>2017-09-24T08:04:02.000Z</time>
      </trkpt>
      <trkpt lat="43.34921" lon="2.43438">
        <ele>498</ele>
        <time>2017-09-24T08:04:03.000Z</time>
      </trkpt>
      <trkpt lat="43.34922" lon="2.43438">
        <ele>498</ele>
        <time>2017-09-24T08:04:04.000Z</time>
      </trkpt>
      <trkpt lat="43.34923" lon="2.43439">
        <ele>498</ele>
        <time>2017-09-24T08:04:05.000Z</time>
      </trkpt>
      <trkpt lat="43.34924" lon="2.43439">
        <ele>498</ele>
        <time>2017-09-24T08:04:06.000Z</time>
      </trkpt>
      <trkpt lat="43.34925" lon="2.43439">
        <ele>498</ele>
        <time>2017-09-24T08:04:07.000Z</time>
      </trkpt>
      <trkpt lat="43.34926" lon="2.43439">
        <ele>498</ele>
        <time>2017-09-24T08:04:08.000Z</time>
      </trkpt>
      <trkpt lat="43.34927" lon="2.43439">
        <ele>498</ele>
        <time>2017-09-24T08:04:09.000Z</time>
      </trkpt>
      <trkpt lat="43.34928" lon="2.43439">
        <ele>498</ele>
        <time>2017-09-24T08:04:10.000Z</time>
      </trkpt>
      <trkpt lat="43.34929" lon="2.43439">
        <ele>498</ele>
        <time>2017-09-24T08:04:11.000Z</time>
      </trkpt>
      <trkpt lat="43.3493" lon="2.4344">
        <ele>498</ele>
        <time>2017-09-24T08:04:12.000Z</time>
      </trkpt>
      <trkpt lat="43.34931" lon="2.4344">
        <ele>498</ele>
        <time>2017-09-24T08:04:13.000Z</time>
      </trkpt>
      <trkpt lat="43.34933" lon="2.4344">
        <ele>499</ele>
        <time>2017-09-24T08:04:14.000Z</time>
      </trkpt>
      <trkpt lat="43.34934" lon="2.43441">
        <ele>499</ele>
        <time>2017-09-24T08:04:15.000Z</time>
      </trkpt>
      <trkpt lat="43.34935" lon="2.43441">
        <ele>499</ele>
        <time>2017-09-24T08:04:16.000Z</time>
      </trkpt>
      <trkpt lat="43.34936" lon="2.43442">
        <ele>499</ele>
        <time>2017-09-24T08:04:17.000Z</time>
      </trkpt>
      <trkpt lat="43.34937" lon="2.43442">
        <ele>499</ele>
        <time>2017-09-24T08:04:18.000Z</time>
      </trkpt>
      <trkpt lat="43.34938" lon="2.43443">
        <ele>499</ele>
        <time>2017-09-24T08:04:19.000Z</time>
      </trkpt>
      <trkpt lat="43.34939" lon="2.43443">
        <ele>500</ele>
        <time>2017-09-24T08:04:20.000Z</time>
      </trkpt>
      <trkpt lat="43.3494" lon="2.43444">
        <ele>500</ele>
        <time>2017-09-24T08:04:21.000Z</time>
      </trkpt>
      <trkpt lat="43.34942" lon="2.43444">
        <ele>500</ele>
        <time>2017-09-24T08:04:22.000Z</time>
      </trkpt>
      <trkpt lat="43.34943" lon="2.43444">
        <ele>500</ele>
        <time>2017-09-24T08:04:23.000Z</time>
      </trkpt>
      <trkpt lat="43.34944" lon="2.43444">
        <ele>500</ele>
        <time>2017-09-24T08:04:24.000Z</time>
      </trkpt>
      <trkpt lat="43.34945" lon="2.43445">
        <ele>500</ele>
        <time>2017-09-24T08:04:25.000Z</time>
      </trkpt>
      <trkpt lat="43.34945" lon="2.43446">
        <ele>501</ele>
        <time>2017-09-24T08:04:26.000Z</time>
      </trkpt>
      <trkpt lat="43.34945" lon="2.43446">
        <ele>501</ele>
        <time>2017-09-24T08:04:27.000Z</time>
      </trkpt>
      <trkpt lat="43.34945" lon="2.43446">
        <ele>501</ele>
        <time>2017-09-24T08:04:28.000Z</time>
      </trkpt>
      <trkpt lat="43.34946" lon="2.43446">
        <ele>501</ele>
        <time>2017-09-24T08:04:29.000Z</time>
      </trkpt>
      <trkpt lat="43.34947" lon="2.43446">
        <ele>501</ele>
        <time>2017-09-24T08:04:30.000Z</time>
      </trkpt>
      <trkpt lat="43.34948" lon="2.43446">
        <ele>501</ele>
        <time>2017-09-24T08:04:31.000Z</time>
      </trkpt>
      <trkpt lat="43.34949" lon="2.43447">
        <ele>501</ele>
        <time>2017-09-24T08:04:32.000Z</time>
      </trkpt>
      <trkpt lat="43.3495" lon="2.43447">
        <ele>501</ele>
        <time>2017-09-24T08:04:33.000Z</time>
      </trkpt>
      <trkpt lat="43.3495" lon="2.43447">
        <ele>501</ele>
        <time>2017-09-24T08:04:34.000Z</time>
      </trkpt>
      <trkpt lat="43.34952" lon="2.43448">
        <ele>502</ele>
        <time>2017-09-24T08:04:35.000Z</time>
      </trkpt>
      <trkpt lat="43.34953" lon="2.43449">
        <ele>502</ele>
        <time>2017-09-24T08:04:36.000Z</time>
      </trkpt>
      <trkpt lat="43.34954" lon="2.43449">
        <ele>502</ele>
        <time>2017-09-24T08:04:37.000Z</time>
      </trkpt>
      <trkpt lat="43.34955" lon="2.43449">
        <ele>502</ele>
        <time>2017-09-24T08:04:38.000Z</time>
      </trkpt>
      <trkpt lat="43.34956" lon="2.43449">
        <ele>502</ele>
        <time>2017-09-24T08:04:39.000Z</time>
      </trkpt>
      <trkpt lat="43.34957" lon="2.4345">
        <ele>503</ele>
        <time>2017-09-24T08:04:40.000Z</time>
      </trkpt>
      <trkpt lat="43.34958" lon="2.4345">
        <ele>503</ele>
        <time>2017-09-24T08:04:41.000Z</time>
      </trkpt>
      <trkpt lat="43.34959" lon="2.43451">
        <ele>503</ele>
        <time>2017-09-24T08:04:42.000Z</time>
      </trkpt>
      <trkpt lat="43.3496" lon="2.43451">
        <ele>503</ele>
        <time>2017-09-24T08:04:43.000Z</time>
      </trkpt>
      <trkpt lat="43.34961" lon="2.43452">
        <ele>503</ele>
        <time>2017-09-24T08:04:44.000Z</time>
      </trkpt>
      <trkpt lat="43.34962" lon="2.43452">
        <ele>503</ele>
        <time>2017-09-24T08:04:45.000Z</time>
      </trkpt>
      <trkpt lat="43.34963" lon="2.43453">
        <ele>504</ele>
        <time>2017-09-24T08:04:46.000Z</time>
      </trkpt>
      <trkpt lat="43.34963" lon="2.43453">
        <ele>504</ele>
        <time>2017-09-24T08:04:47.000Z</time>
      </trkpt>
      <trkpt lat="43.34964" lon="2.43454">
        <ele>504</ele>
        <time>2017-09-24T08:04:48.000Z</time>
      </trkpt>
      <trkpt lat="43.34965" lon="2.43455">
        <ele>504</ele>
        <time>2017-09-24T08:04:49.000Z</time>
      </trkpt>
      <trkpt lat="43.34966" lon="2.43455">
        <ele>505</ele>
        <time>2017-09-24T08:04:50.000Z</time>
      </trkpt>
      <trkpt lat="43.34967" lon="2.43456">
        <ele>505</ele>
        <time>2017-09-24T08:04:51.000Z</time>
      </trkpt>
      <trkpt lat="43.34968" lon="2.43457">
        <ele>505</ele>
        <time>2017-09-24T08:04:52.000Z</time>
      </trkpt>
      <trkpt lat="43.34969" lon="2.43457">
        <ele>505</ele>
        <time>2017-09-24T08:04:53.000Z</time>
      </trkpt>
      <trkpt lat="43.3497" lon="2.43457">
        <ele>505</ele>
        <time>2017-09-24T08:04:54.000Z</time>
      </trkpt>
      <trkpt lat="43.34971" lon="2.43458">
        <ele>506</ele>
        <time>2017-09-24T08:04:55.000Z</time>
      </trkpt>
      <trkpt lat="43.34972" lon="2.43459">
        <ele>506</ele>
        <time>2017-09-24T08:04:56.000Z</time>
      </trkpt>
      <trkpt lat="43.34973" lon="2.43459">
        <ele>506</ele>
        <time>2017-09-24T08:04:57.000Z</time>
      </trkpt>
      <trkpt lat="43.34974" lon="2.4346">
        <ele>506</ele>
        <time>2017-09-24T08:04:58.000Z</time>
      </trkpt>
      <trkpt lat="43.34975" lon="2.4346">
        <ele>506</ele>
        <time>2017-09-24T08:04:59.000Z</time>
      </trkpt>
      <trkpt lat="43.34975" lon="2.4346">
        <ele>507</ele>
        <time>2017-09-24T08:05:00.000Z</time>
      </trkpt>
      <trkpt lat="43.34976" lon="2.43461">
        <ele>507</ele>
        <time>2017-09-24T08:05:01.000Z</time>
      </trkpt>
      <trkpt lat="43.34978" lon="2.43462">
        <ele>507</ele>
        <time>2017-09-24T08:05:02.000Z</time>
      </trkpt>
      <trkpt lat="43.34978" lon="2.43462">
        <ele>507</ele>
        <time>2017-09-24T08:05:03.000Z</time>
      </trkpt>
      <trkpt lat="43.3498" lon="2.43463">
        <ele>507</ele>
        <time>2017-09-24T08:05:04.000Z</time>
      </trkpt>
      <trkpt lat="43.34981" lon="2.43464">
        <ele>508</ele>
        <time>2017-09-24T08:05:05.000Z</time>
      </trkpt>
      <trkpt lat="43.34982" lon="2.43464">
        <ele>508</ele>
        <time>2017-09-24T08:05:06.000Z</time>
      </trkpt>
      <trkpt lat="43.34983" lon="2.43465">
        <ele>508</ele>
        <time>2017-09-24T08:05:07.000Z</time>
      </trkpt>
      <trkpt lat="43.34984" lon="2.43465">
        <ele>508</ele>
        <time>2017-09-24T08:05:08.000Z</time>
      </trkpt>
      <trkpt lat="43.34984" lon="2.43465">
        <ele>508</ele>
        <time>2017-09-24T08:05:09.000Z</time>
      </trkpt>
      <trkpt lat="43.34985" lon="2.43465">
        <ele>508</ele>
        <time>2017-09-24T08:05:10.000Z</time>
      </trkpt>
      <trkpt lat="43.34986" lon="2.43466">
        <ele>508</ele>
        <time>2017-09-24T08:05:11.000Z</time>
      </trkpt>
      <trkpt lat="43.34986" lon="2.43466">
        <ele>508</ele>
        <time>2017-09-24T08:05:12.000Z</time>
      </trkpt>
      <trkpt lat="43.34987" lon="2.43466">
        <ele>509</ele>
        <time>2017-09-24T08:05:13.000Z</time>
      </trkpt>
      <trkpt lat="43.34988" lon="2.43467">
        <ele>509</ele>
        <time>2017-09-24T08:05:14.000Z</time>
      </trkpt>
      <trkpt lat="43.34988" lon="2.43467">
        <ele>509</ele>
        <time>2017-09-24T08:05:15.000Z</time>
      </trkpt>
      <trkpt lat="43.34989" lon="2.43467">
        <ele>509</ele>
        <time>2017-09-24T08:05:16.000Z</time>
      </trkpt>
      <trkpt lat="43.3499" lon="2.43468">
        <ele>509</ele>
        <time>2017-09-24T08:05:17.000Z</time>
      </trkpt>
      <trkpt lat="43.34991" lon="2.43468">
        <ele>509</ele>
        <time>2017-09-24T08:05:18.000Z</time>
      </trkpt>
      <trkpt lat="43.34991" lon="2.43468">
        <ele>509</ele>
        <time>2017-09-24T08:05:19.000Z</time>
      </trkpt>
      <trkpt lat="43.34992" lon="2.43468">
        <ele>509</ele>
        <time>2017-09-24T08:05:20.000Z</time>
      </trkpt>
      <trkpt lat="43.34993" lon="2.43468">
        <ele>509</ele>
        <time>2017-09-24T08:05:21.000Z</time>
      </trkpt>
      <trkpt lat="43.34994" lon="2.43469">
        <ele>509</ele>
        <time>2017-09-24T08:05:22.000Z</time>
      </trkpt>
      <trkpt lat="43.34995" lon="2.43469">
        <ele>509</ele>
        <time>2017-09-24T08:05:23.000Z</time>
      </trkpt>
      <trkpt lat="43.34996" lon="2.43469">
        <ele>509</ele>
        <time>2017-09-24T08:05:24.000Z</time>
      </trkpt>
      <trkpt lat="43.34997" lon="2.43469">
        <ele>509</ele>
        <time>2017-09-24T08:05:25.000Z</time>
      </trkpt>
      <trkpt lat="43.34998" lon="2.43469">
        <ele>509</ele>
        <time>2017-09-24T08:05:26.000Z</time>
      </trkpt>
      <trkpt lat="43.34999" lon="2.43469">
        <ele>510</ele>
        <time>2017-09-24T08:05:27.000Z</time>
      </trkpt>
      <trkpt lat="43.35" lon="2.4347">
        <ele>510</ele>
        <time>2017-09-24T08:05:28.000Z</time>
      </trkpt>
      <trkpt lat="43.35001" lon="2.4347">
        <ele>510</ele>
        <time>2017-09-24T08:05:29.000Z</time>
      </trkpt>
      <trkpt lat="43.35001" lon="2.4347">
        <ele>510</ele>
        <time>2017-09-24T08:05:30.000Z</time>
      </trkpt>
      <trkpt lat="43.35002" lon="2.43471">
        <ele>510</ele>
        <time>2017-09-24T08:05:31.000Z</time>
      </trkpt>
      <trkpt lat="43.35003" lon="2.43471">
        <ele>510</ele>
        <time>2017-09-24T08:05:32.000Z</time>
      </trkpt>
      <trkpt lat="43.35004" lon="2.43471">
        <ele>510</ele>
        <time>2017-09-24T08:05:33.000Z</time>
      </trkpt>
      <trkpt lat="43.35005" lon="2.43471">
        <ele>510</ele>
        <time>2017-09-24T08:05:34.000Z</time>
      </trkpt>
      <trkpt lat="43.35006" lon="2.43472">
        <ele>510</ele>
        <time>2017-09-24T08:05:35.000Z</time>
      </trkpt>
      <trkpt lat="43.35007" lon="2.43472">
        <ele>510</ele>
        <time>2017-09-24T08:05:36.000Z</time>
      </trkpt>
      <trkpt lat="43.35008" lon="2.43472">
        <ele>510</ele>
        <time>2017-09-24T08:05:37.000Z</time>
      </trkpt>
      <trkpt lat="43.35009" lon="2.43471">
        <ele>510</ele>
        <time>2017-09-24T08:05:38.000Z</time>
      </trkpt>
      <trkpt lat="43.3501" lon="2.43471">
        <ele>510</ele>
        <time>2017-09-24T08:05:39.000Z</time>
      </trkpt>
      <trkpt lat="43.3501" lon="2.43472">
        <ele>510</ele>
        <time>2017-09-24T08:05:40.000Z</time>
      </trkpt>
      <trkpt lat="43.35011" lon="2.43472">
        <ele>510</ele>
        <time>2017-09-24T08:05:41.000Z</time>
      </trkpt>
      <trkpt lat="43.35012" lon="2.43472">
        <ele>510</ele>
        <time>2017-09-24T08:05:42.000Z</time>
      </trkpt>
      <trkpt lat="43.35013" lon="2.43472">
        <ele>510</ele>
        <time>2017-09-24T08:05:43.000Z</time>
      </trkpt>
      <trkpt lat="43.35014" lon="2.43472">
        <ele>510</ele>
        <time>2017-09-24T08:05:44.000Z</time>
      </trkpt>
      <trkpt lat="43.35016" lon="2.43473">
        <ele>511</ele>
        <time>2017-09-24T08:05:45.000Z</time>
      </trkpt>
      <trkpt lat="43.35016" lon="2.43473">
        <ele>511</ele>
        <time>2017-09-24T08:05:46.000Z</time>
      </trkpt>
      <trkpt lat="43.35017" lon="2.43473">
        <ele>511</ele>
        <time>2017-09-24T08:05:47.000Z</time>
      </trkpt>
      <trkpt lat="43.35018" lon="2.43473">
        <ele>511</ele>
        <time>2017-09-24T08:05:48.000Z</time>
      </trkpt>
      <trkpt lat="43.35019" lon="2.43473">
        <ele>511</ele>
        <time>2017-09-24T08:05:49.000Z</time>
      </trkpt>
      <trkpt lat="43.3502" lon="2.43473">
        <ele>511</ele>
        <time>2017-09-24T08:05:50.000Z</time>
      </trkpt>
      <trkpt lat="43.35022" lon="2.43473">
        <ele>511</ele>
        <time>2017-09-24T08:05:51.000Z</time>
      </trkpt>
      <trkpt lat="43.35023" lon="2.43473">
        <ele>511</ele>
        <time>2017-09-24T08:05:52.000Z</time>
      </trkpt>
      <trkpt lat="43.35024" lon="2.43473">
        <ele>511</ele>
        <time>2017-09-24T08:05:53.000Z</time>
      </trkpt>
      <trkpt lat="43.35025" lon="2.43473">
        <ele>511</ele>
        <time>2017-09-24T08:05:54.000Z</time>
      </trkpt>
      <trkpt lat="43.35026" lon="2.43473">
        <ele>511</ele>
        <time>2017-09-24T08:05:55.000Z</time>
      </trkpt>
      <trkpt lat="43.35027" lon="2.43473">
        <ele>511</ele>
        <time>2017-09-24T08:05:56.000Z</time>
      </trkpt>
      <trkpt lat="43.35028" lon="2.43473">
        <ele>511</ele>
        <time>2017-09-24T08:05:57.000Z</time>
      </trkpt>
      <trkpt lat="43.35029" lon="2.43474">
        <ele>512</ele>
        <time>2017-09-24T08:05:58.000Z</time>
      </trkpt>
      <trkpt lat="43.3503" lon="2.43474">
        <ele>512</ele>
        <time>2017-09-24T08:05:59.000Z</time>
      </trkpt>
      <trkpt lat="43.35031" lon="2.43474">
        <ele>512</ele>
        <time>2017-09-24T08:06:00.000Z</time>
      </trkpt>
      <trkpt lat="43.35032" lon="2.43474">
        <ele>512</ele>
        <time>2017-09-24T08:06:01.000Z</time>
      </trkpt>
      <trkpt lat="43.35033" lon="2.43474">
        <ele>512</ele>
        <time>2017-09-24T08:06:02.000Z</time>
      </trkpt>
      <trkpt lat="43.35034" lon="2.43474">
        <ele>512</ele>
        <time>2017-09-24T08:06:03.000Z</time>
      </trkpt>
      <trkpt lat="43.35035" lon="2.43474">
        <ele>512</ele>
        <time>2017-09-24T08:06:04.000Z</time>
      </trkpt>
      <trkpt lat="43.35036" lon="2.43474">
        <ele>512</ele>
        <time>2017-09-24T08:06:05.000Z</time>
      </trkpt>
      <trkpt lat="43.35036" lon="2.43474">
        <ele>512</ele>
        <time>2017-09-24T08:06:06.000Z</time>
      </trkpt>
      <trkpt lat="43.35037" lon="2.43474">
        <ele>512</ele>
        <time>2017-09-24T08:06:07.000Z</time>
      </trkpt>
      <trkpt lat="43.35039" lon="2.43475">
        <ele>512</ele>
        <time>2017-09-24T08:06:08.000Z</time>
      </trkpt>
      <trkpt lat="43.35039" lon="2.43475">
        <ele>512</ele>
        <time>2017-09-24T08:06:09.000Z</time>
      </trkpt>
      <trkpt lat="43.3504" lon="2.43475">
        <ele>513</ele>
        <time>2017-09-24T08:06:10.000Z</time>
      </trkpt>
      <trkpt lat="43.35041" lon="2.43475">
        <ele>513</ele>
        <time>2017-09-24T08:06:11.000Z</time>
      </trkpt>
      <trkpt lat="43.35042" lon="2.43475">
        <ele>513</ele>
        <time>2017-09-24T08:06:12.000Z</time>
      </trkpt>
      <trkpt lat="43.35043" lon="2.43475">
        <ele>513</ele>
        <time>2017-09-24T08:06:13.000Z</time>
      </trkpt>
      <trkpt lat="43.35045" lon="2.43476">
        <ele>513</ele>
        <time>2017-09-24T08:06:14.000Z</time>
      </trkpt>
      <trkpt lat="43.35046" lon="2.43477">
        <ele>513</ele>
        <time>2017-09-24T08:06:15.000Z</time>
      </trkpt>
      <trkpt lat="43.35047" lon="2.43477">
        <ele>514</ele>
        <time>2017-09-24T08:06:16.000Z</time>
      </trkpt>
      <trkpt lat="43.35048" lon="2.43477">
        <ele>514</ele>
        <time>2017-09-24T08:06:17.000Z</time>
      </trkpt>
      <trkpt lat="43.35049" lon="2.43478">
        <ele>514</ele>
        <time>2017-09-24T08:06:18.000Z</time>
      </trkpt>
      <trkpt lat="43.3505" lon="2.43478">
        <ele>514</ele>
        <time>2017-09-24T08:06:19.000Z</time>
      </trkpt>
      <trkpt lat="43.35051" lon="2.43478">
        <ele>514</ele>
        <time>2017-09-24T08:06:20.000Z</time>
      </trkpt>
      <trkpt lat="43.35052" lon="2.43478">
        <ele>514</ele>
        <time>2017-09-24T08:06:21.000Z</time>
      </trkpt>
      <trkpt lat="43.35053" lon="2.43479">
        <ele>515</ele>
        <time>2017-09-24T08:06:22.000Z</time>
      </trkpt>
      <trkpt lat="43.35054" lon="2.43479">
        <ele>515</ele>
        <time>2017-09-24T08:06:23.000Z</time>
      </trkpt>
      <trkpt lat="43.35055" lon="2.43479">
        <ele>515</ele>
        <time>2017-09-24T08:06:24.000Z</time>
      </trkpt>
      <trkpt lat="43.35056" lon="2.4348">
        <ele>515</ele>
        <time>2017-09-24T08:06:25.000Z</time>
      </trkpt>
      <trkpt lat="43.35057" lon="2.4348">
        <ele>515</ele>
        <time>2017-09-24T08:06:26.000Z</time>
      </trkpt>
      <trkpt lat="43.35058" lon="2.4348">
        <ele>515</ele>
        <time>2017-09-24T08:06:27.000Z</time>
      </trkpt>
      <trkpt lat="43.3506" lon="2.43481">
        <ele>516</ele>
        <time>2017-09-24T08:06:28.000Z</time>
      </trkpt>
      <trkpt lat="43.35061" lon="2.43481">
        <ele>516</ele>
        <time>2017-09-24T08:06:29.000Z</time>
      </trkpt>
      <trkpt lat="43.35062" lon="2.43481">
        <ele>516</ele>
        <time>2017-09-24T08:06:30.000Z</time>
      </trkpt>
      <trkpt lat="43.35063" lon="2.43482">
        <ele>516</ele>
        <time>2017-09-24T08:06:31.000Z</time>
      </trkpt>
      <trkpt lat="43.35064" lon="2.43482">
        <ele>516</ele>
        <time>2017-09-24T08:06:32.000Z</time>
      </trkpt>
      <trkpt lat="43.35065" lon="2.43482">
        <ele>516</ele>
        <time>2017-09-24T08:06:33.000Z</time>
      </trkpt>
      <trkpt lat="43.35066" lon="2.43482">
        <ele>516</ele>
        <time>2017-09-24T08:06:34.000Z</time>
      </trkpt>
      <trkpt lat="43.35067" lon="2.43482">
        <ele>516</ele>
        <time>2017-09-24T08:06:35.000Z</time>
      </trkpt>
      <trkpt lat="43.35068" lon="2.43482">
        <ele>516</ele>
        <time>2017-09-24T08:06:36.000Z</time>
      </trkpt>
      <trkpt lat="43.35069" lon="2.43482">
        <ele>517</ele>
        <time>2017-09-24T08:06:37.000Z</time>
      </trkpt>
      <trkpt lat="43.3507" lon="2.43482">
        <ele>517</ele>
        <time>2017-09-24T08:06:38.000Z</time>
      </trkpt>
      <trkpt lat="43.35071" lon="2.43482">
        <ele>517</ele>
        <time>2017-09-24T08:06:39.000Z</time>
      </trkpt>
      <trkpt lat="43.35072" lon="2.43482">
        <ele>517</ele>
        <time>2017-09-24T08:06:40.000Z</time>
      </trkpt>
      <trkpt lat="43.35073" lon="2.43481">
        <ele>517</ele>
        <time>2017-09-24T08:06:41.000Z</time>
      </trkpt>
      <trkpt lat="43.35074" lon="2.43482">
        <ele>517</ele>
        <time>2017-09-24T08:06:42.000Z</time>
      </trkpt>
      <trkpt lat="43.35075" lon="2.43482">
        <ele>517</ele>
        <time>2017-09-24T08:06:43.000Z</time>
      </trkpt>
      <trkpt lat="43.35076" lon="2.43482">
        <ele>517</ele>
        <time>2017-09-24T08:06:44.000Z</time>
      </trkpt>
      <trkpt lat="43.35078" lon="2.43482">
        <ele>517</ele>
        <time>2017-09-24T08:06:45.000Z</time>
      </trkpt>
      <trkpt lat="43.35079" lon="2.43482">
        <ele>517</ele>
        <time>2017-09-24T08:06:46.000Z</time>
      </trkpt>
      <trkpt lat="43.3508" lon="2.43482">
        <ele>517</ele>
        <time>2017-09-24T08:06:47.000Z</time>
      </trkpt>
      <trkpt lat="43.35082" lon="2.43483">
        <ele>518</ele>
        <time>2017-09-24T08:06:48.000Z</time>
      </trkpt>
      <trkpt lat="43.35082" lon="2.43483">
        <ele>518</ele>
        <time>2017-09-24T08:06:49.000Z</time>
      </trkpt>
      <trkpt lat="43.35083" lon="2.43484">
        <ele>518</ele>
        <time>2017-09-24T08:06:50.000Z</time>
      </trkpt>
      <trkpt lat="43.35085" lon="2.43484">
        <ele>518</ele>
        <time>2017-09-24T08:06:51.000Z</time>
      </trkpt>
      <trkpt lat="43.35086" lon="2.43484">
        <ele>518</ele>
        <time>2017-09-24T08:06:52.000Z</time>
      </trkpt>
      <trkpt lat="43.35087" lon="2.43484">
        <ele>518</ele>
        <time>2017-09-24T08:06:53.000Z</time>
      </trkpt>
      <trkpt lat="43.35088" lon="2.43484">
        <ele>518</ele>
        <time>2017-09-24T08:06:54.000Z</time>
      </trkpt>
      <trkpt lat="43.35089" lon="2.43484">
        <ele>518</ele>
        <time>2017-09-24T08:06:55.000Z</time>
      </trkpt>
      <trkpt lat="43.3509" lon="2.43484">
        <ele>518</ele>
        <time>2017-09-24T08:06:56.000Z</time>
      </trkpt>
      <trkpt lat="43.35091" lon="2.43484">
        <ele>518</ele>
        <time>2017-09-24T08:06:57.000Z</time>
      </trkpt>
      <trkpt lat="43.35092" lon="2.43484">
        <ele>518</ele>
        <time>2017-09-24T08:06:58.000Z</time>
      </trkpt>
      <trkpt lat="43.35093" lon="2.43484">
        <ele>518</ele>
        <time>2017-09-24T08:06:59.000Z</time>
      </trkpt>
      <trkpt lat="43.35093" lon="2.43483">
        <ele>518</ele>
        <time>2017-09-24T08:07:00.000Z</time>
      </trkpt>
      <trkpt lat="43.35094" lon="2.43484">
        <ele>518</ele>
        <time>2017-09-24T08:07:01.000Z</time>
      </trkpt>
      <trkpt lat="43.35095" lon="2.43483">
        <ele>518</ele>
        <time>2017-09-24T08:07:02.000Z</time>
      </trkpt>
      <trkpt lat="43.35096" lon="2.43484">
        <ele>518</ele>
        <time>2017-09-24T08:07:03.000Z</time>
      </trkpt>
      <trkpt lat="43.35097" lon="2.43484">
        <ele>518</ele>
        <time>2017-09-24T08:07:04.000Z</time>
      </trkpt>
      <trkpt lat="43.35098" lon="2.43483">
        <ele>518</ele>
        <time>2017-09-24T08:07:05.000Z</time>
      </trkpt>
      <trkpt lat="43.35099" lon="2.43483">
        <ele>518</ele>
        <time>2017-09-24T08:07:06.000Z</time>
      </trkpt>
      <trkpt lat="43.351" lon="2.43483">
        <ele>518</ele>
        <time>2017-09-24T08:07:07.000Z</time>
      </trkpt>
      <trkpt lat="43.35101" lon="2.43483">
        <ele>518</ele>
        <time>2017-09-24T08:07:08.000Z</time>
      </trkpt>
      <trkpt lat="43.35101" lon="2.43483">
        <ele>518</ele>
        <time>2017-09-24T08:07:09.000Z</time>
      </trkpt>
      <trkpt lat="43.35102" lon="2.43483">
        <ele>518</ele>
        <time>2017-09-24T08:07:10.000Z</time>
      </trkpt>
      <trkpt lat="43.35103" lon="2.43483">
        <ele>518</ele>
        <time>2017-09-24T08:07:11.000Z</time>
      </trkpt>
      <trkpt lat="43.35104" lon="2.43483">
        <ele>518</ele>
        <time>2017-09-24T08:07:12.000Z</time>
      </trkpt>
      <trkpt lat="43.35105" lon="2.43483">
        <ele>518</ele>
        <time>2017-09-24T08:07:13.000Z</time>
      </trkpt>
      <trkpt lat="43.35106" lon="2.43483">
        <ele>518</ele>
        <time>2017-09-24T08:07:14.000Z</time>
      </trkpt>
      <trkpt lat="43.35107" lon="2.43483">
        <ele>518</ele>
        <time>2017-09-24T08:07:15.000Z</time>
      </trkpt>
      <trkpt lat="43.35108" lon="2.43483">
        <ele>518</ele>
        <time>2017-09-24T08:07:16.000Z</time>
      </trkpt>
      <trkpt lat="43.35109" lon="2.43483">
        <ele>518</ele>
        <time>2017-09-24T08:07:17.000Z</time>
      </trkpt>
      <trkpt lat="43.3511" lon="2.43482">
        <ele>518</ele>
        <time>2017-09-24T08:07:18.000Z</time>
      </trkpt>
      <trkpt lat="43.35111" lon="2.43483">
        <ele>519</ele>
        <time>2017-09-24T08:07:19.000Z</time>
      </trkpt>
      <trkpt lat="43.35112" lon="2.43483">
        <ele>519</ele>
        <time>2017-09-24T08:07:20.000Z</time>
      </trkpt>
      <trkpt lat="43.35113" lon="2.43482">
        <ele>519</ele>
        <time>2017-09-24T08:07:21.000Z</time>
      </trkpt>
      <trkpt lat="43.35114" lon="2.43482">
        <ele>519</ele>
        <time>2017-09-24T08:07:22.000Z</time>
      </trkpt>
      <trkpt lat="43.35115" lon="2.43483">
        <ele>519</ele>
        <time>2017-09-24T08:07:23.000Z</time>
      </trkpt>
      <trkpt lat="43.35117" lon="2.43483">
        <ele>519</ele>
        <time>2017-09-24T08:07:24.000Z</time>
      </trkpt>
      <trkpt lat="43.35118" lon="2.43483">
        <ele>519</ele>
        <time>2017-09-24T08:07:25.000Z</time>
      </trkpt>
      <trkpt lat="43.35119" lon="2.43482">
        <ele>519</ele>
        <time>2017-09-24T08:07:26.000Z</time>
      </trkpt>
      <trkpt lat="43.3512" lon="2.43482">
        <ele>519</ele>
        <time>2017-09-24T08:07:27.000Z</time>
      </trkpt>
      <trkpt lat="43.35121" lon="2.43482">
        <ele>519</ele>
        <time>2017-09-24T08:07:28.000Z</time>
      </trkpt>
      <trkpt lat="43.35121" lon="2.43482">
        <ele>519</ele>
        <time>2017-09-24T08:07:29.000Z</time>
      </trkpt>
      <trkpt lat="43.35122" lon="2.43482">
        <ele>519</ele>
        <time>2017-09-24T08:07:30.000Z</time>
      </trkpt>
      <trkpt lat="43.35124" lon="2.43482">
        <ele>519</ele>
        <time>2017-09-24T08:07:31.000Z</time>
      </trkpt>
      <trkpt lat="43.35125" lon="2.43482">
        <ele>520</ele>
        <time>2017-09-24T08:07:32.000Z</time>
      </trkpt>
      <trkpt lat="43.35126" lon="2.43482">
        <ele>520</ele>
        <time>2017-09-24T08:07:33.000Z</time>
      </trkpt>
      <trkpt lat="43.35128" lon="2.43483">
        <ele>520</ele>
        <time>2017-09-24T08:07:34.000Z</time>
      </trkpt>
      <trkpt lat="43.35129" lon="2.43483">
        <ele>520</ele>
        <time>2017-09-24T08:07:35.000Z</time>
      </trkpt>
      <trkpt lat="43.3513" lon="2.43483">
        <ele>520</ele>
        <time>2017-09-24T08:07:36.000Z</time>
      </trkpt>
      <trkpt lat="43.35132" lon="2.43483">
        <ele>521</ele>
        <time>2017-09-24T08:07:37.000Z</time>
      </trkpt>
      <trkpt lat="43.35133" lon="2.43483">
        <ele>521</ele>
        <time>2017-09-24T08:07:38.000Z</time>
      </trkpt>
      <trkpt lat="43.35134" lon="2.43483">
        <ele>521</ele>
        <time>2017-09-24T08:07:39.000Z</time>
      </trkpt>
      <trkpt lat="43.35135" lon="2.43483">
        <ele>521</ele>
        <time>2017-09-24T08:07:40.000Z</time>
      </trkpt>
      <trkpt lat="43.35135" lon="2.43483">
        <ele>521</ele>
        <time>2017-09-24T08:07:41.000Z</time>
      </trkpt>
      <trkpt lat="43.35136" lon="2.43482">
        <ele>521</ele>
        <time>2017-09-24T08:07:42.000Z</time>
      </trkpt>
      <trkpt lat="43.35137" lon="2.43482">
        <ele>521</ele>
        <time>2017-09-24T08:07:43.000Z</time>
      </trkpt>
      <trkpt lat="43.35138" lon="2.43482">
        <ele>521</ele>
        <time>2017-09-24T08:07:44.000Z</time>
      </trkpt>
      <trkpt lat="43.35139" lon="2.43481">
        <ele>520</ele>
        <time>2017-09-24T08:07:45.000Z</time>
      </trkpt>
      <trkpt lat="43.3514" lon="2.43481">
        <ele>520</ele>
        <time>2017-09-24T08:07:46.000Z</time>
      </trkpt>
      <trkpt lat="43.35141" lon="2.4348">
        <ele>520</ele>
        <time>2017-09-24T08:07:47.000Z</time>
      </trkpt>
      <trkpt lat="43.35142" lon="2.4348">
        <ele>520</ele>
        <time>2017-09-24T08:07:48.000Z</time>
      </trkpt>
      <trkpt lat="43.35143" lon="2.43481">
        <ele>521</ele>
        <time>2017-09-24T08:07:49.000Z</time>
      </trkpt>
      <trkpt lat="43.35144" lon="2.43481">
        <ele>521</ele>
        <time>2017-09-24T08:07:50.000Z</time>
      </trkpt>
      <trkpt lat="43.35145" lon="2.4348">
        <ele>521</ele>
        <time>2017-09-24T08:07:51.000Z</time>
      </trkpt>
      <trkpt lat="43.35146" lon="2.43481">
        <ele>521</ele>
        <time>2017-09-24T08:07:52.000Z</time>
      </trkpt>
      <trkpt lat="43.35147" lon="2.4348">
        <ele>521</ele>
        <time>2017-09-24T08:07:53.000Z</time>
      </trkpt>
      <trkpt lat="43.35148" lon="2.4348">
        <ele>521</ele>
        <time>2017-09-24T08:07:54.000Z</time>
      </trkpt>
      <trkpt lat="43.35149" lon="2.4348">
        <ele>521</ele>
        <time>2017-09-24T08:07:55.000Z</time>
      </trkpt>
      <trkpt lat="43.3515" lon="2.4348">
        <ele>521</ele>
        <time>2017-09-24T08:07:56.000Z</time>
      </trkpt>
      <trkpt lat="43.3515" lon="2.4348">
        <ele>521</ele>
        <time>2017-09-24T08:07:57.000Z</time>
      </trkpt>
      <trkpt lat="43.35151" lon="2.43481">
        <ele>521</ele>
        <time>2017-09-24T08:07:58.000Z</time>
      </trkpt>
      <trkpt lat="43.35151" lon="2.43481">
        <ele>521</ele>
        <time>2017-09-24T08:07:59.000Z</time>
      </trkpt>
      <trkpt lat="43.35152" lon="2.43481">
        <ele>521</ele>
        <time>2017-09-24T08:08:00.000Z</time>
      </trkpt>
      <trkpt lat="43.35153" lon="2.4348">
        <ele>521</ele>
        <time>2017-09-24T08:08:01.000Z</time>
      </trkpt>
      <trkpt lat="43.35155" lon="2.4348">
        <ele>521</ele>
        <time>2017-09-24T08:08:02.000Z</time>
      </trkpt>
      <trkpt lat="43.35156" lon="2.4348">
        <ele>521</ele>
        <time>2017-09-24T08:08:03.000Z</time>
      </trkpt>
      <trkpt lat="43.35157" lon="2.43479">
        <ele>521</ele>
        <time>2017-09-24T08:08:04.000Z</time>
      </trkpt>
      <trkpt lat="43.35158" lon="2.4348">
        <ele>521</ele>
        <time>2017-09-24T08:08:05.000Z</time>
      </trkpt>
      <trkpt lat="43.3516" lon="2.43479">
        <ele>521</ele>
        <time>2017-09-24T08:08:06.000Z</time>
      </trkpt>
      <trkpt lat="43.35161" lon="2.43479">
        <ele>521</ele>
        <time>2017-09-24T08:08:07.000Z</time>
      </trkpt>
      <trkpt lat="43.35162" lon="2.43479">
        <ele>521</ele>
        <time>2017-09-24T08:08:08.000Z</time>
      </trkpt>
      <trkpt lat="43.35163" lon="2.43479">
        <ele>521</ele>
        <time>2017-09-24T08:08:09.000Z</time>
      </trkpt>
      <trkpt lat="43.35164" lon="2.43479">
        <ele>522</ele>
        <time>2017-09-24T08:08:10.000Z</time>
      </trkpt>
      <trkpt lat="43.35165" lon="2.43478">
        <ele>521</ele>
        <time>2017-09-24T08:08:11.000Z</time>
      </trkpt>
      <trkpt lat="43.35166" lon="2.43478">
        <ele>521</ele>
        <time>2017-09-24T08:08:12.000Z</time>
      </trkpt>
      <trkpt lat="43.35167" lon="2.43478">
        <ele>521</ele>
        <time>2017-09-24T08:08:13.000Z</time>
      </trkpt>
      <trkpt lat="43.35168" lon="2.43477">
        <ele>521</ele>
        <time>2017-09-24T08:08:14.000Z</time>
      </trkpt>
      <trkpt lat="43.35168" lon="2.43476">
        <ele>521</ele>
        <time>2017-09-24T08:08:15.000Z</time>
      </trkpt>
      <trkpt lat="43.35169" lon="2.43475">
        <ele>521</ele>
        <time>2017-09-24T08:08:16.000Z</time>
      </trkpt>
      <trkpt lat="43.35169" lon="2.43475">
        <ele>521</ele>
        <time>2017-09-24T08:08:17.000Z</time>
      </trkpt>
      <trkpt lat="43.3517" lon="2.43476">
        <ele>521</ele>
        <time>2017-09-24T08:08:18.000Z</time>
      </trkpt>
      <trkpt lat="43.3517" lon="2.43477">
        <ele>521</ele>
        <time>2017-09-24T08:08:19.000Z</time>
      </trkpt>
      <trkpt lat="43.3517" lon="2.43477">
        <ele>521</ele>
        <time>2017-09-24T08:08:20.000Z</time>
      </trkpt>
      <trkpt lat="43.35177" lon="2.43478">
        <ele>522</ele>
        <time>2017-09-24T08:09:44.000Z</time>
      </trkpt>
      <trkpt lat="43.35177" lon="2.43477">
        <ele>522</ele>
        <time>2017-09-24T08:09:45.000Z</time>
      </trkpt>
      <trkpt lat="43.35179" lon="2.43477">
        <ele>522</ele>
        <time>2017-09-24T08:09:46.000Z</time>
      </trkpt>
      <trkpt lat="43.3518" lon="2.43477">
        <ele>522</ele>
        <time>2017-09-24T08:09:47.000Z</time>
      </trkpt>
      <trkpt lat="43.35181" lon="2.43477">
        <ele>522</ele>
        <time>2017-09-24T08:09:48.000Z</time>
      </trkpt>
      <trkpt lat="43.35182" lon="2.43477">
        <ele>523</ele>
        <time>2017-09-24T08:09:49.000Z</time>
      </trkpt>
      <trkpt lat="43.35183" lon="2.43477">
        <ele>523</ele>
        <time>2017-09-24T08:09:50.000Z</time>
      </trkpt>
      <trkpt lat="43.35184" lon="2.43477">
        <ele>522</ele>
        <time>2017-09-24T08:09:51.000Z</time>
      </trkpt>
      <trkpt lat="43.35185" lon="2.43477">
        <ele>522</ele>
        <time>2017-09-24T08:09:52.000Z</time>
      </trkpt>
      <trkpt lat="43.35186" lon="2.43477">
        <ele>523</ele>
        <time>2017-09-24T08:09:53.000Z</time>
      </trkpt>
      <trkpt lat="43.35187" lon="2.43477">
        <ele>523</ele>
        <time>2017-09-24T08:09:54.000Z</time>
      </trkpt>
      <trkpt lat="43.35189" lon="2.43477">
        <ele>523</ele>
        <time>2017-09-24T08:09:55.000Z</time>
      </trkpt>
      <trkpt lat="43.3519" lon="2.43477">
        <ele>523</ele>
        <time>2017-09-24T08:09:56.000Z</time>
      </trkpt>
      <trkpt lat="43.35191" lon="2.43476">
        <ele>523</ele>
        <time>2017-09-24T08:09:57.000Z</time>
      </trkpt>
      <trkpt lat="43.35192" lon="2.43476">
        <ele>523</ele>
        <time>2017-09-24T08:09:58.000Z</time>
      </trkpt>
      <trkpt lat="43.35194" lon="2.43476">
        <ele>523</ele>
        <time>2017-09-24T08:09:59.000Z</time>
      </trkpt>
      <trkpt lat="43.35195" lon="2.43476">
        <ele>523</ele>
        <time>2017-09-24T08:10:00.000Z</time>
      </trkpt>
      <trkpt lat="43.35197" lon="2.43476">
        <ele>523</ele>
        <time>2017-09-24T08:10:01.000Z</time>
      </trkpt>
      <trkpt lat="43.35198" lon="2.43476">
        <ele>523</ele>
        <time>2017-09-24T08:10:02.000Z</time>
      </trkpt>
      <trkpt lat="43.35199" lon="2.43476">
        <ele>523</ele>
        <time>2017-09-24T08:10:03.000Z</time>
      </trkpt>
      <trkpt lat="43.352" lon="2.43475">
        <ele>523</ele>
        <time>2017-09-24T08:10:04.000Z</time>
      </trkpt>
      <trkpt lat="43.35202" lon="2.43475">
        <ele>523</ele>
        <time>2017-09-24T08:10:05.000Z</time>
      </trkpt>
      <trkpt lat="43.35203" lon="2.43475">
        <ele>523</ele>
        <time>2017-09-24T08:10:06.000Z</time>
      </trkpt>
      <trkpt lat="43.35204" lon="2.43475">
        <ele>523</ele>
        <time>2017-09-24T08:10:07.000Z</time>
      </trkpt>
      <trkpt lat="43.35205" lon="2.43475">
        <ele>523</ele>
        <time>2017-09-24T08:10:08.000Z</time>
      </trkpt>
      <trkpt lat="43.35206" lon="2.43475">
        <ele>523</ele>
        <time>2017-09-24T08:10:09.000Z</time>
      </trkpt>
      <trkpt lat="43.35208" lon="2.43475">
        <ele>523</ele>
        <time>2017-09-24T08:10:10.000Z</time>
      </trkpt>
      <trkpt lat="43.35209" lon="2.43475">
        <ele>523</ele>
        <time>2017-09-24T08:10:11.000Z</time>
      </trkpt>
      <trkpt lat="43.3521" lon="2.43475">
        <ele>524</ele>
        <time>2017-09-24T08:10:12.000Z</time>
      </trkpt>
      <trkpt lat="43.35212" lon="2.43475">
        <ele>524</ele>
        <time>2017-09-24T08:10:13.000Z</time>
      </trkpt>
      <trkpt lat="43.35213" lon="2.43475">
        <ele>524</ele>
        <time>2017-09-24T08:10:14.000Z</time>
      </trkpt>
      <trkpt lat="43.35215" lon="2.43475">
        <ele>524</ele>
        <time>2017-09-24T08:10:15.000Z</time>
      </trkpt>
      <trkpt lat="43.35216" lon="2.43475">
        <ele>524</ele>
        <time>2017-09-24T08:10:16.000Z</time>
      </trkpt>
      <trkpt lat="43.35218" lon="2.43475">
        <ele>524</ele>
        <time>2017-09-24T08:10:17.000Z</time>
      </trkpt>
      <trkpt lat="43.35219" lon="2.43476">
        <ele>524</ele>
        <time>2017-09-24T08:10:18.000Z</time>
      </trkpt>
      <trkpt lat="43.35221" lon="2.43476">
        <ele>525</ele>
        <time>2017-09-24T08:10:19.000Z</time>
      </trkpt>
      <trkpt lat="43.35222" lon="2.43476">
        <ele>525</ele>
        <time>2017-09-24T08:10:20.000Z</time>
      </trkpt>
      <trkpt lat="43.35224" lon="2.43477">
        <ele>525</ele>
        <time>2017-09-24T08:10:21.000Z</time>
      </trkpt>
      <trkpt lat="43.35225" lon="2.43477">
        <ele>525</ele>
        <time>2017-09-24T08:10:22.000Z</time>
      </trkpt>
      <trkpt lat="43.35227" lon="2.43477">
        <ele>526</ele>
        <time>2017-09-24T08:10:23.000Z</time>
      </trkpt>
      <trkpt lat="43.35228" lon="2.43477">
        <ele>526</ele>
        <time>2017-09-24T08:10:24.000Z</time>
      </trkpt>
      <trkpt lat="43.35229" lon="2.43477">
        <ele>526</ele>
        <time>2017-09-24T08:10:25.000Z</time>
      </trkpt>
      <trkpt lat="43.35231" lon="2.43477">
        <ele>526</ele>
        <time>2017-09-24T08:10:26.000Z</time>
      </trkpt>
      <trkpt lat="43.35231" lon="2.43477">
        <ele>526</ele>
        <time>2017-09-24T08:10:27.000Z</time>
      </trkpt>
      <trkpt lat="43.35233" lon="2.43476">
        <ele>526</ele>
        <time>2017-09-24T08:10:28.000Z</time>
      </trkpt>
      <trkpt lat="43.35235" lon="2.43476">
        <ele>526</ele>
        <time>2017-09-24T08:10:29.000Z</time>
      </trkpt>
      <trkpt lat="43.35236" lon="2.43476">
        <ele>526</ele>
        <time>2017-09-24T08:10:30.000Z</time>
      </trkpt>
      <trkpt lat="43.35237" lon="2.43476">
        <ele>526</ele>
        <time>2017-09-24T08:10:31.000Z</time>
      </trkpt>
      <trkpt lat="43.35238" lon="2.43475">
        <ele>526</ele>
        <time>2017-09-24T08:10:32.000Z</time>
      </trkpt>
      <trkpt lat="43.3524" lon="2.43474">
        <ele>525</ele>
        <time>2017-09-24T08:10:33.000Z</time>
      </trkpt>
      <trkpt lat="43.35241" lon="2.43474">
        <ele>525</ele>
        <time>2017-09-24T08:10:34.000Z</time>
      </trkpt>
      <trkpt lat="43.35242" lon="2.43473">
        <ele>525</ele>
        <time>2017-09-24T08:10:35.000Z</time>
      </trkpt>
      <trkpt lat="43.35242" lon="2.43473">
        <ele>525</ele>
        <time>2017-09-24T08:10:36.000Z</time>
      </trkpt>
      <trkpt lat="43.35243" lon="2.43473">
        <ele>525</ele>
        <time>2017-09-24T08:10:37.000Z</time>
      </trkpt>
      <trkpt lat="43.35244" lon="2.43473">
        <ele>525</ele>
        <time>2017-09-24T08:10:38.000Z</time>
      </trkpt>
      <trkpt lat="43.35245" lon="2.43472">
        <ele>525</ele>
        <time>2017-09-24T08:10:39.000Z</time>
      </trkpt>
      <trkpt lat="43.35246" lon="2.43472">
        <ele>525</ele>
        <time>2017-09-24T08:10:40.000Z</time>
      </trkpt>
      <trkpt lat="43.35247" lon="2.43472">
        <ele>525</ele>
        <time>2017-09-24T08:10:41.000Z</time>
      </trkpt>
      <trkpt lat="43.35249" lon="2.43472">
        <ele>525</ele>
        <time>2017-09-24T08:10:42.000Z</time>
      </trkpt>
      <trkpt lat="43.35249" lon="2.43471">
        <ele>525</ele>
        <time>2017-09-24T08:10:43.000Z</time>
      </trkpt>
      <trkpt lat="43.3525" lon="2.43471">
        <ele>525</ele>
        <time>2017-09-24T08:10:44.000Z</time>
      </trkpt>
      <trkpt lat="43.35251" lon="2.43471">
        <ele>525</ele>
        <time>2017-09-24T08:10:45.000Z</time>
      </trkpt>
      <trkpt lat="43.35252" lon="2.4347">
        <ele>525</ele>
        <time>2017-09-24T08:10:46.000Z</time>
      </trkpt>
      <trkpt lat="43.35253" lon="2.4347">
        <ele>525</ele>
        <time>2017-09-24T08:10:47.000Z</time>
      </trkpt>
      <trkpt lat="43.35254" lon="2.43469">
        <ele>525</ele>
        <time>2017-09-24T08:10:48.000Z</time>
      </trkpt>
      <trkpt lat="43.35255" lon="2.43468">
        <ele>525</ele>
        <time>2017-09-24T08:10:49.000Z</time>
      </trkpt>
      <trkpt lat="43.35256" lon="2.43468">
        <ele>525</ele>
        <time>2017-09-24T08:10:50.000Z</time>
      </trkpt>
      <trkpt lat="43.35257" lon="2.43468">
        <ele>525</ele>
        <time>2017-09-24T08:10:51.000Z</time>
      </trkpt>
      <trkpt lat="43.35258" lon="2.43468">
        <ele>525</ele>
        <time>2017-09-24T08:10:52.000Z</time>
      </trkpt>
      <trkpt lat="43.35259" lon="2.43468">
        <ele>525</ele>
        <time>2017-09-24T08:10:53.000Z</time>
      </trkpt>
      <trkpt lat="43.3526" lon="2.43467">
        <ele>525</ele>
        <time>2017-09-24T08:10:54.000Z</time>
      </trkpt>
      <trkpt lat="43.35261" lon="2.43467">
        <ele>525</ele>
        <time>2017-09-24T08:10:55.000Z</time>
      </trkpt>
      <trkpt lat="43.35262" lon="2.43467">
        <ele>525</ele>
        <time>2017-09-24T08:10:56.000Z</time>
      </trkpt>
      <trkpt lat="43.35263" lon="2.43466">
        <ele>525</ele>
        <time>2017-09-24T08:10:57.000Z</time>
      </trkpt>
      <trkpt lat="43.35264" lon="2.43466">
        <ele>525</ele>
        <time>2017-09-24T08:10:58.000Z</time>
      </trkpt>
      <trkpt lat="43.35266" lon="2.43466">
        <ele>525</ele>
        <time>2017-09-24T08:10:59.000Z</time>
      </trkpt>
      <trkpt lat="43.35267" lon="2.43466">
        <ele>525</ele>
        <time>2017-09-24T08:11:00.000Z</time>
      </trkpt>
      <trkpt lat="43.35268" lon="2.43465">
        <ele>525</ele>
        <time>2017-09-24T08:11:01.000Z</time>
      </trkpt>
      <trkpt lat="43.35268" lon="2.43465">
        <ele>525</ele>
        <time>2017-09-24T08:11:02.000Z</time>
      </trkpt>
      <trkpt lat="43.3527" lon="2.43465">
        <ele>525</ele>
        <time>2017-09-24T08:11:03.000Z</time>
      </trkpt>
      <trkpt lat="43.35271" lon="2.43465">
        <ele>525</ele>
        <time>2017-09-24T08:11:04.000Z</time>
      </trkpt>
      <trkpt lat="43.35272" lon="2.43465">
        <ele>525</ele>
        <time>2017-09-24T08:11:05.000Z</time>
      </trkpt>
      <trkpt lat="43.35274" lon="2.43465">
        <ele>525</ele>
        <time>2017-09-24T08:11:06.000Z</time>
      </trkpt>
      <trkpt lat="43.35275" lon="2.43465">
        <ele>525</ele>
        <time>2017-09-24T08:11:07.000Z</time>
      </trkpt>
      <trkpt lat="43.35277" lon="2.43465">
        <ele>525</ele>
        <time>2017-09-24T08:11:08.000Z</time>
      </trkpt>
      <trkpt lat="43.35278" lon="2.43465">
        <ele>526</ele>
        <time>2017-09-24T08:11:09.000Z</time>
      </trkpt>
      <trkpt lat="43.35279" lon="2.43465">
        <ele>526</ele>
        <time>2017-09-24T08:11:10.000Z</time>
      </trkpt>
      <trkpt lat="43.35281" lon="2.43465">
        <ele>526</ele>
        <time>2017-09-24T08:11:11.000Z</time>
      </trkpt>
      <trkpt lat="43.35282" lon="2.43466">
        <ele>526</ele>
        <time>2017-09-24T08:11:12.000Z</time>
      </trkpt>
      <trkpt lat="43.35284" lon="2.43466">
        <ele>526</ele>
        <time>2017-09-24T08:11:13.000Z</time>
      </trkpt>
      <trkpt lat="43.35285" lon="2.43466">
        <ele>526</ele>
        <time>2017-09-24T08:11:14.000Z</time>
      </trkpt>
      <trkpt lat="43.35286" lon="2.43466">
        <ele>526</ele>
        <time>2017-09-24T08:11:15.000Z</time>
      </trkpt>
      <trkpt lat="43.35287" lon="2.43466">
        <ele>526</ele>
        <time>2017-09-24T08:11:16.000Z</time>
      </trkpt>
      <trkpt lat="43.35288" lon="2.43466">
        <ele>526</ele>
        <time>2017-09-24T08:11:17.000Z</time>
      </trkpt>
      <trkpt lat="43.35289" lon="2.43466">
        <ele>526</ele>
        <time>2017-09-24T08:11:18.000Z</time>
      </trkpt>
      <trkpt lat="43.35289" lon="2.43466">
        <ele>526</ele>
        <time>2017-09-24T08:11:19.000Z</time>
      </trkpt>
      <trkpt lat="43.35291" lon="2.43466">
        <ele>526</ele>
        <time>2017-09-24T08:11:20.000Z</time>
      </trkpt>
      <trkpt lat="43.35292" lon="2.43466">
        <ele>526</ele>
        <time>2017-09-24T08:11:21.000Z</time>
      </trkpt>
      <trkpt lat="43.35293" lon="2.43465">
        <ele>526</ele>
        <time>2017-09-24T08:11:22.000Z</time>
      </trkpt>
      <trkpt lat="43.35295" lon="2.43465">
        <ele>526</ele>
        <time>2017-09-24T08:11:23.000Z</time>
      </trkpt>
      <trkpt lat="43.35296" lon="2.43466">
        <ele>527</ele>
        <time>2017-09-24T08:11:24.000Z</time>
      </trkpt>
      <trkpt lat="43.35297" lon="2.43466">
        <ele>527</ele>
        <time>2017-09-24T08:11:25.000Z</time>
      </trkpt>
      <trkpt lat="43.35298" lon="2.43466">
        <ele>527</ele>
        <time>2017-09-24T08:11:26.000Z</time>
      </trkpt>
      <trkpt lat="43.35298" lon="2.43466">
        <ele>527</ele>
        <time>2017-09-24T08:11:27.000Z</time>
      </trkpt>
      <trkpt lat="43.35299" lon="2.43466">
        <ele>527</ele>
        <time>2017-09-24T08:11:28.000Z</time>
      </trkpt>
      <trkpt lat="43.35301" lon="2.43466">
        <ele>527</ele>
        <time>2017-09-24T08:11:29.000Z</time>
      </trkpt>
      <trkpt lat="43.35302" lon="2.43466">
        <ele>527</ele>
        <time>2017-09-24T08:11:30.000Z</time>
      </trkpt>
      <trkpt lat="43.35303" lon="2.43466">
        <ele>527</ele>
        <time>2017-09-24T08:11:31.000Z</time>
      </trkpt>
      <trkpt lat="43.35304" lon="2.43466">
        <ele>527</ele>
        <time>2017-09-24T08:11:32.000Z</time>
      </trkpt>
      <trkpt lat="43.35305" lon="2.43466">
        <ele>527</ele>
        <time>2017-09-24T08:11:33.000Z</time>
      </trkpt>
      <trkpt lat="43.35306" lon="2.43467">
        <ele>527</ele>
        <time>2017-09-24T08:11:34.000Z</time>
      </trkpt>
      <trkpt lat="43.35307" lon="2.43467">
        <ele>527</ele>
        <time>2017-09-24T08:11:35.000Z</time>
      </trkpt>
      <trkpt lat="43.35308" lon="2.43467">
        <ele>528</ele>
        <time>2017-09-24T08:11:36.000Z</time>
      </trkpt>
      <trkpt lat="43.35309" lon="2.43467">
        <ele>528</ele>
        <time>2017-09-24T08:11:37.000Z</time>
      </trkpt>
      <trkpt lat="43.35309" lon="2.43467">
        <ele>528</ele>
        <time>2017-09-24T08:11:38.000Z</time>
      </trkpt>
      <trkpt lat="43.3531" lon="2.43467">
        <ele>528</ele>
        <time>2017-09-24T08:11:39.000Z</time>
      </trkpt>
      <trkpt lat="43.35311" lon="2.43467">
        <ele>528</ele>
        <time>2017-09-24T08:11:40.000Z</time>
      </trkpt>
      <trkpt lat="43.35313" lon="2.43467">
        <ele>528</ele>
        <time>2017-09-24T08:11:41.000Z</time>
      </trkpt>
      <trkpt lat="43.35314" lon="2.43467">
        <ele>528</ele>
        <time>2017-09-24T08:11:42.000Z</time>
      </trkpt>
      <trkpt lat="43.35315" lon="2.43467">
        <ele>528</ele>
        <time>2017-09-24T08:11:43.000Z</time>
      </trkpt>
      <trkpt lat="43.35316" lon="2.43467">
        <ele>528</ele>
        <time>2017-09-24T08:11:44.000Z</time>
      </trkpt>
      <trkpt lat="43.35318" lon="2.43468">
        <ele>528</ele>
        <time>2017-09-24T08:11:45.000Z</time>
      </trkpt>
      <trkpt lat="43.35319" lon="2.43468">
        <ele>529</ele>
        <time>2017-09-24T08:11:46.000Z</time>
      </trkpt>
      <trkpt lat="43.3532" lon="2.43468">
        <ele>529</ele>
        <time>2017-09-24T08:11:47.000Z</time>
      </trkpt>
      <trkpt lat="43.35321" lon="2.43468">
        <ele>529</ele>
        <time>2017-09-24T08:11:48.000Z</time>
      </trkpt>
      <trkpt lat="43.35321" lon="2.43468">
        <ele>529</ele>
        <time>2017-09-24T08:11:49.000Z</time>
      </trkpt>
      <trkpt lat="43.35322" lon="2.43469">
        <ele>529</ele>
        <time>2017-09-24T08:11:50.000Z</time>
      </trkpt>
      <trkpt lat="43.35323" lon="2.43469">
        <ele>529</ele>
        <time>2017-09-24T08:11:51.000Z</time>
      </trkpt>
      <trkpt lat="43.35324" lon="2.43469">
        <ele>530</ele>
        <time>2017-09-24T08:11:52.000Z</time>
      </trkpt>
      <trkpt lat="43.35325" lon="2.43469">
        <ele>530</ele>
        <time>2017-09-24T08:11:53.000Z</time>
      </trkpt>
      <trkpt lat="43.35327" lon="2.43469">
        <ele>530</ele>
        <time>2017-09-24T08:11:54.000Z</time>
      </trkpt>
      <trkpt lat="43.35328" lon="2.43468">
        <ele>530</ele>
        <time>2017-09-24T08:11:55.000Z</time>
      </trkpt>
      <trkpt lat="43.35329" lon="2.43468">
        <ele>530</ele>
        <time>2017-09-24T08:11:56.000Z</time>
      </trkpt>
      <trkpt lat="43.3533" lon="2.43468">
        <ele>530</ele>
        <time>2017-09-24T08:11:57.000Z</time>
      </trkpt>
      <trkpt lat="43.35332" lon="2.43468">
        <ele>531</ele>
        <time>2017-09-24T08:11:58.000Z</time>
      </trkpt>
      <trkpt lat="43.35333" lon="2.43468">
        <ele>531</ele>
        <time>2017-09-24T08:11:59.000Z</time>
      </trkpt>
      <trkpt lat="43.35334" lon="2.43469">
        <ele>531</ele>
        <time>2017-09-24T08:12:00.000Z</time>
      </trkpt>
      <trkpt lat="43.35335" lon="2.43469">
        <ele>531</ele>
        <time>2017-09-24T08:12:01.000Z</time>
      </trkpt>
      <trkpt lat="43.35337" lon="2.43468">
        <ele>531</ele>
        <time>2017-09-24T08:12:02.000Z</time>
      </trkpt>
      <trkpt lat="43.35337" lon="2.43468">
        <ele>531</ele>
        <time>2017-09-24T08:12:03.000Z</time>
      </trkpt>
      <trkpt lat="43.35338" lon="2.43468">
        <ele>531</ele>
        <time>2017-09-24T08:12:04.000Z</time>
      </trkpt>
      <trkpt lat="43.35339" lon="2.43468">
        <ele>532</ele>
        <time>2017-09-24T08:12:05.000Z</time>
      </trkpt>
      <trkpt lat="43.35341" lon="2.43468">
        <ele>532</ele>
        <time>2017-09-24T08:12:07.000Z</time>
      </trkpt>
      <trkpt lat="43.35342" lon="2.43468">
        <ele>532</ele>
        <time>2017-09-24T08:12:08.000Z</time>
      </trkpt>
      <trkpt lat="43.35342" lon="2.43468">
        <ele>532</ele>
        <time>2017-09-24T08:12:09.000Z</time>
      </trkpt>
      <trkpt lat="43.35343" lon="2.43468">
        <ele>532</ele>
        <time>2017-09-24T08:12:10.000Z</time>
      </trkpt>
      <trkpt lat="43.35343" lon="2.43468">
        <ele>532</ele>
        <time>2017-09-24T08:12:11.000Z</time>
      </trkpt>
      <trkpt lat="43.35344" lon="2.43468">
        <ele>532</ele>
        <time>2017-09-24T08:12:12.000Z</time>
      </trkpt>
      <trkpt lat="43.35345" lon="2.43467">
        <ele>532</ele>
        <time>2017-09-24T08:12:13.000Z</time>
      </trkpt>
      <trkpt lat="43.35346" lon="2.43467">
        <ele>532</ele>
        <time>2017-09-24T08:12:14.000Z</time>
      </trkpt>
      <trkpt lat="43.35347" lon="2.43467">
        <ele>532</ele>
        <time>2017-09-24T08:12:15.000Z</time>
      </trkpt>
      <trkpt lat="43.35348" lon="2.43467">
        <ele>533</ele>
        <time>2017-09-24T08:12:16.000Z</time>
      </trkpt>
      <trkpt lat="43.35348" lon="2.43467">
        <ele>533</ele>
        <time>2017-09-24T08:12:17.000Z</time>
      </trkpt>
      <trkpt lat="43.35349" lon="2.43467">
        <ele>533</ele>
        <time>2017-09-24T08:12:18.000Z</time>
      </trkpt>
      <trkpt lat="43.3535" lon="2.43467">
        <ele>533</ele>
        <time>2017-09-24T08:12:19.000Z</time>
      </trkpt>
      <trkpt lat="43.35351" lon="2.43467">
        <ele>533</ele>
        <time>2017-09-24T08:12:20.000Z</time>
      </trkpt>
      <trkpt lat="43.35352" lon="2.43467">
        <ele>533</ele>
        <time>2017-09-24T08:12:21.000Z</time>
      </trkpt>
      <trkpt lat="43.35353" lon="2.43468">
        <ele>533</ele>
        <time>2017-09-24T08:12:22.000Z</time>
      </trkpt>
      <trkpt lat="43.35354" lon="2.43468">
        <ele>533</ele>
        <time>2017-09-24T08:12:23.000Z</time>
      </trkpt>
      <trkpt lat="43.35355" lon="2.43468">
        <ele>533</ele>
        <time>2017-09-24T08:12:24.000Z</time>
      </trkpt>
      <trkpt lat="43.35356" lon="2.43468">
        <ele>533</ele>
        <time>2017-09-24T08:12:25.000Z</time>
      </trkpt>
      <trkpt lat="43.35358" lon="2.43468">
        <ele>533</ele>
        <time>2017-09-24T08:12:26.000Z</time>
      </trkpt>
      <trkpt lat="43.35359" lon="2.43469">
        <ele>533</ele>
        <time>2017-09-24T08:12:27.000Z</time>
      </trkpt>
      <trkpt lat="43.3536" lon="2.43469">
        <ele>533</ele>
        <time>2017-09-24T08:12:28.000Z</time>
      </trkpt>
      <trkpt lat="43.35361" lon="2.43469">
        <ele>533</ele>
        <time>2017-09-24T08:12:29.000Z</time>
      </trkpt>
      <trkpt lat="43.35362" lon="2.43469">
        <ele>533</ele>
        <time>2017-09-24T08:12:30.000Z</time>
      </trkpt>
      <trkpt lat="43.35363" lon="2.43469">
        <ele>534</ele>
        <time>2017-09-24T08:12:31.000Z</time>
      </trkpt>
      <trkpt lat="43.35364" lon="2.43469">
        <ele>534</ele>
        <time>2017-09-24T08:12:32.000Z</time>
      </trkpt>
      <trkpt lat="43.35365" lon="2.4347">
        <ele>534</ele>
        <time>2017-09-24T08:12:33.000Z</time>
      </trkpt>
      <trkpt lat="43.35366" lon="2.4347">
        <ele>534</ele>
        <time>2017-09-24T08:12:34.000Z</time>
      </trkpt>
      <trkpt lat="43.35367" lon="2.4347">
        <ele>534</ele>
        <time>2017-09-24T08:12:35.000Z</time>
      </trkpt>
      <trkpt lat="43.35368" lon="2.4347">
        <ele>534</ele>
        <time>2017-09-24T08:12:36.000Z</time>
      </trkpt>
      <trkpt lat="43.3537" lon="2.4347">
        <ele>534</ele>
        <time>2017-09-24T08:12:37.000Z</time>
      </trkpt>
      <trkpt lat="43.35371" lon="2.43471">
        <ele>534</ele>
        <time>2017-09-24T08:12:38.000Z</time>
      </trkpt>
      <trkpt lat="43.35372" lon="2.43471">
        <ele>534</ele>
        <time>2017-09-24T08:12:39.000Z</time>
      </trkpt>
      <trkpt lat="43.35373" lon="2.43471">
        <ele>534</ele>
        <time>2017-09-24T08:12:40.000Z</time>
      </trkpt>
      <trkpt lat="43.35374" lon="2.43471">
        <ele>534</ele>
        <time>2017-09-24T08:12:41.000Z</time>
      </trkpt>
      <trkpt lat="43.35375" lon="2.43472">
        <ele>534</ele>
        <time>2017-09-24T08:12:42.000Z</time>
      </trkpt>
      <trkpt lat="43.35376" lon="2.43472">
        <ele>535</ele>
        <time>2017-09-24T08:12:43.000Z</time>
      </trkpt>
      <trkpt lat="43.35377" lon="2.43472">
        <ele>535</ele>
        <time>2017-09-24T08:12:44.000Z</time>
      </trkpt>
      <trkpt lat="43.35378" lon="2.43472">
        <ele>535</ele>
        <time>2017-09-24T08:12:45.000Z</time>
      </trkpt>
      <trkpt lat="43.35379" lon="2.43472">
        <ele>535</ele>
        <time>2017-09-24T08:12:46.000Z</time>
      </trkpt>
      <trkpt lat="43.3538" lon="2.43471">
        <ele>534</ele>
        <time>2017-09-24T08:12:47.000Z</time>
      </trkpt>
      <trkpt lat="43.3538" lon="2.43471">
        <ele>534</ele>
        <time>2017-09-24T08:12:48.000Z</time>
      </trkpt>
      <trkpt lat="43.35381" lon="2.43471">
        <ele>534</ele>
        <time>2017-09-24T08:12:49.000Z</time>
      </trkpt>
      <trkpt lat="43.35382" lon="2.43471">
        <ele>534</ele>
        <time>2017-09-24T08:12:50.000Z</time>
      </trkpt>
      <trkpt lat="43.35383" lon="2.43471">
        <ele>534</ele>
        <time>2017-09-24T08:12:51.000Z</time>
      </trkpt>
      <trkpt lat="43.35384" lon="2.43471">
        <ele>534</ele>
        <time>2017-09-24T08:12:52.000Z</time>
      </trkpt>
      <trkpt lat="43.35385" lon="2.4347">
        <ele>534</ele>
        <time>2017-09-24T08:12:53.000Z</time>
      </trkpt>
      <trkpt lat="43.35386" lon="2.43471">
        <ele>534</ele>
        <time>2017-09-24T08:12:54.000Z</time>
      </trkpt>
      <trkpt lat="43.35387" lon="2.4347">
        <ele>534</ele>
        <time>2017-09-24T08:12:55.000Z</time>
      </trkpt>
      <trkpt lat="43.35388" lon="2.4347">
        <ele>534</ele>
        <time>2017-09-24T08:12:56.000Z</time>
      </trkpt>
      <trkpt lat="43.35389" lon="2.4347">
        <ele>534</ele>
        <time>2017-09-24T08:12:57.000Z</time>
      </trkpt>
      <trkpt lat="43.3539" lon="2.4347">
        <ele>534</ele>
        <time>2017-09-24T08:12:58.000Z</time>
      </trkpt>
      <trkpt lat="43.35391" lon="2.4347">
        <ele>534</ele>
        <time>2017-09-24T08:12:59.000Z</time>
      </trkpt>
      <trkpt lat="43.35391" lon="2.43469">
        <ele>534</ele>
        <time>2017-09-24T08:13:00.000Z</time>
      </trkpt>
      <trkpt lat="43.35392" lon="2.43469">
        <ele>534</ele>
        <time>2017-09-24T08:13:01.000Z</time>
      </trkpt>
      <trkpt lat="43.35393" lon="2.43469">
        <ele>534</ele>
        <time>2017-09-24T08:13:02.000Z</time>
      </trkpt>
      <trkpt lat="43.35393" lon="2.43468">
        <ele>534</ele>
        <time>2017-09-24T08:13:03.000Z</time>
      </trkpt>
      <trkpt lat="43.35394" lon="2.43469">
        <ele>534</ele>
        <time>2017-09-24T08:13:04.000Z</time>
      </trkpt>
      <trkpt lat="43.35394" lon="2.43468">
        <ele>534</ele>
        <time>2017-09-24T08:13:05.000Z</time>
      </trkpt>
      <trkpt lat="43.35395" lon="2.43468">
        <ele>534</ele>
        <time>2017-09-24T08:13:06.000Z</time>
      </trkpt>
      <trkpt lat="43.35396" lon="2.43468">
        <ele>534</ele>
        <time>2017-09-24T08:13:07.000Z</time>
      </trkpt>
      <trkpt lat="43.35397" lon="2.43468">
        <ele>534</ele>
        <time>2017-09-24T08:13:08.000Z</time>
      </trkpt>
      <trkpt lat="43.35398" lon="2.43467">
        <ele>534</ele>
        <time>2017-09-24T08:13:09.000Z</time>
      </trkpt>
      <trkpt lat="43.35399" lon="2.43467">
        <ele>534</ele>
        <time>2017-09-24T08:13:10.000Z</time>
      </trkpt>
      <trkpt lat="43.354" lon="2.43467">
        <ele>534</ele>
        <time>2017-09-24T08:13:11.000Z</time>
      </trkpt>
      <trkpt lat="43.35401" lon="2.43466">
        <ele>534</ele>
        <time>2017-09-24T08:13:12.000Z</time>
      </trkpt>
      <trkpt lat="43.35402" lon="2.43466">
        <ele>534</ele>
        <time>2017-09-24T08:13:13.000Z</time>
      </trkpt>
      <trkpt lat="43.35403" lon="2.43466">
        <ele>534</ele>
        <time>2017-09-24T08:13:14.000Z</time>
      </trkpt>
      <trkpt lat="43.35404" lon="2.43465">
        <ele>534</ele>
        <time>2017-09-24T08:13:15.000Z</time>
      </trkpt>
      <trkpt lat="43.35406" lon="2.43465">
        <ele>535</ele>
        <time>2017-09-24T08:13:16.000Z</time>
      </trkpt>
      <trkpt lat="43.35407" lon="2.43465">
        <ele>535</ele>
        <time>2017-09-24T08:13:17.000Z</time>
      </trkpt>
      <trkpt lat="43.35408" lon="2.43464">
        <ele>535</ele>
        <time>2017-09-24T08:13:18.000Z</time>
      </trkpt>
      <trkpt lat="43.35408" lon="2.43464">
        <ele>535</ele>
        <time>2017-09-24T08:13:19.000Z</time>
      </trkpt>
      <trkpt lat="43.35409" lon="2.43464">
        <ele>535</ele>
        <time>2017-09-24T08:13:20.000Z</time>
      </trkpt>
      <trkpt lat="43.3541" lon="2.43463">
        <ele>535</ele>
        <time>2017-09-24T08:13:21.000Z</time>
      </trkpt>
      <trkpt lat="43.35411" lon="2.43463">
        <ele>535</ele>
        <time>2017-09-24T08:13:22.000Z</time>
      </trkpt>
      <trkpt lat="43.35412" lon="2.43463">
        <ele>535</ele>
        <time>2017-09-24T08:13:23.000Z</time>
      </trkpt>
      <trkpt lat="43.35412" lon="2.43462">
        <ele>535</ele>
        <time>2017-09-24T08:13:24.000Z</time>
      </trkpt>
      <trkpt lat="43.35413" lon="2.43462">
        <ele>535</ele>
        <time>2017-09-24T08:13:25.000Z</time>
      </trkpt>
      <trkpt lat="43.35414" lon="2.43462">
        <ele>536</ele>
        <time>2017-09-24T08:13:26.000Z</time>
      </trkpt>
      <trkpt lat="43.35415" lon="2.43462">
        <ele>536</ele>
        <time>2017-09-24T08:13:27.000Z</time>
      </trkpt>
      <trkpt lat="43.35416" lon="2.43461">
        <ele>536</ele>
        <time>2017-09-24T08:13:28.000Z</time>
      </trkpt>
      <trkpt lat="43.35417" lon="2.43461">
        <ele>536</ele>
        <time>2017-09-24T08:13:29.000Z</time>
      </trkpt>
      <trkpt lat="43.35418" lon="2.43461">
        <ele>536</ele>
        <time>2017-09-24T08:13:30.000Z</time>
      </trkpt>
      <trkpt lat="43.35419" lon="2.4346">
        <ele>536</ele>
        <time>2017-09-24T08:13:31.000Z</time>
      </trkpt>
      <trkpt lat="43.3542" lon="2.4346">
        <ele>536</ele>
        <time>2017-09-24T08:13:32.000Z</time>
      </trkpt>
      <trkpt lat="43.35421" lon="2.43459">
        <ele>536</ele>
        <time>2017-09-24T08:13:33.000Z</time>
      </trkpt>
      <trkpt lat="43.35422" lon="2.43459">
        <ele>536</ele>
        <time>2017-09-24T08:13:34.000Z</time>
      </trkpt>
      <trkpt lat="43.35422" lon="2.43458">
        <ele>536</ele>
        <time>2017-09-24T08:13:35.000Z</time>
      </trkpt>
      <trkpt lat="43.35423" lon="2.43458">
        <ele>536</ele>
        <time>2017-09-24T08:13:36.000Z</time>
      </trkpt>
      <trkpt lat="43.35424" lon="2.43457">
        <ele>536</ele>
        <time>2017-09-24T08:13:37.000Z</time>
      </trkpt>
      <trkpt lat="43.35425" lon="2.43457">
        <ele>536</ele>
        <time>2017-09-24T08:13:38.000Z</time>
      </trkpt>
      <trkpt lat="43.35426" lon="2.43456">
        <ele>537</ele>
        <time>2017-09-24T08:13:39.000Z</time>
      </trkpt>
      <trkpt lat="43.35427" lon="2.43455">
        <ele>537</ele>
        <time>2017-09-24T08:13:40.000Z</time>
      </trkpt>
      <trkpt lat="43.35428" lon="2.43454">
        <ele>537</ele>
        <time>2017-09-24T08:13:41.000Z</time>
      </trkpt>
      <trkpt lat="43.35429" lon="2.43454">
        <ele>537</ele>
        <time>2017-09-24T08:13:42.000Z</time>
      </trkpt>
      <trkpt lat="43.3543" lon="2.43453">
        <ele>537</ele>
        <time>2017-09-24T08:13:43.000Z</time>
      </trkpt>
      <trkpt lat="43.35431" lon="2.43453">
        <ele>537</ele>
        <time>2017-09-24T08:13:44.000Z</time>
      </trkpt>
      <trkpt lat="43.35432" lon="2.43453">
        <ele>537</ele>
        <time>2017-09-24T08:13:45.000Z</time>
      </trkpt>
      <trkpt lat="43.35433" lon="2.43452">
        <ele>537</ele>
        <time>2017-09-24T08:13:46.000Z</time>
      </trkpt>
      <trkpt lat="43.35434" lon="2.43452">
        <ele>537</ele>
        <time>2017-09-24T08:13:47.000Z</time>
      </trkpt>
      <trkpt lat="43.35435" lon="2.43451">
        <ele>537</ele>
        <time>2017-09-24T08:13:48.000Z</time>
      </trkpt>
      <trkpt lat="43.35437" lon="2.43451">
        <ele>538</ele>
        <time>2017-09-24T08:13:49.000Z</time>
      </trkpt>
      <trkpt lat="43.35437" lon="2.4345">
        <ele>538</ele>
        <time>2017-09-24T08:13:50.000Z</time>
      </trkpt>
      <trkpt lat="43.35438" lon="2.43449">
        <ele>538</ele>
        <time>2017-09-24T08:13:51.000Z</time>
      </trkpt>
      <trkpt lat="43.35439" lon="2.43448">
        <ele>538</ele>
        <time>2017-09-24T08:13:52.000Z</time>
      </trkpt>
      <trkpt lat="43.35439" lon="2.43448">
        <ele>538</ele>
        <time>2017-09-24T08:13:53.000Z</time>
      </trkpt>
      <trkpt lat="43.3544" lon="2.43447">
        <ele>538</ele>
        <time>2017-09-24T08:13:54.000Z</time>
      </trkpt>
      <trkpt lat="43.35441" lon="2.43446">
        <ele>538</ele>
        <time>2017-09-24T08:13:55.000Z</time>
      </trkpt>
      <trkpt lat="43.35442" lon="2.43445">
        <ele>538</ele>
        <time>2017-09-24T08:13:56.000Z</time>
      </trkpt>
      <trkpt lat="43.35443" lon="2.43444">
        <ele>538</ele>
        <time>2017-09-24T08:13:57.000Z</time>
      </trkpt>
      <trkpt lat="43.35444" lon="2.43444">
        <ele>538</ele>
        <time>2017-09-24T08:13:58.000Z</time>
      </trkpt>
      <trkpt lat="43.35445" lon="2.43443">
        <ele>538</ele>
        <time>2017-09-24T08:13:59.000Z</time>
      </trkpt>
      <trkpt lat="43.35446" lon="2.43442">
        <ele>538</ele>
        <time>2017-09-24T08:14:00.000Z</time>
      </trkpt>
      <trkpt lat="43.35447" lon="2.43442">
        <ele>538</ele>
        <time>2017-09-24T08:14:01.000Z</time>
      </trkpt>
      <trkpt lat="43.35448" lon="2.43442">
        <ele>539</ele>
        <time>2017-09-24T08:14:02.000Z</time>
      </trkpt>
      <trkpt lat="43.35449" lon="2.43442">
        <ele>539</ele>
        <time>2017-09-24T08:14:03.000Z</time>
      </trkpt>
      <trkpt lat="43.3545" lon="2.43442">
        <ele>539</ele>
        <time>2017-09-24T08:14:04.000Z</time>
      </trkpt>
      <trkpt lat="43.35451" lon="2.43441">
        <ele>539</ele>
        <time>2017-09-24T08:14:05.000Z</time>
      </trkpt>
      <trkpt lat="43.35452" lon="2.43441">
        <ele>539</ele>
        <time>2017-09-24T08:14:06.000Z</time>
      </trkpt>
      <trkpt lat="43.35452" lon="2.43441">
        <ele>539</ele>
        <time>2017-09-24T08:14:07.000Z</time>
      </trkpt>
      <trkpt lat="43.35453" lon="2.4344">
        <ele>539</ele>
        <time>2017-09-24T08:14:08.000Z</time>
      </trkpt>
      <trkpt lat="43.35454" lon="2.4344">
        <ele>539</ele>
        <time>2017-09-24T08:14:09.000Z</time>
      </trkpt>
      <trkpt lat="43.35454" lon="2.43439">
        <ele>539</ele>
        <time>2017-09-24T08:14:10.000Z</time>
      </trkpt>
      <trkpt lat="43.35455" lon="2.43439">
        <ele>539</ele>
        <time>2017-09-24T08:14:11.000Z</time>
      </trkpt>
      <trkpt lat="43.35455" lon="2.43439">
        <ele>540</ele>
        <time>2017-09-24T08:14:12.000Z</time>
      </trkpt>
      <trkpt lat="43.35455" lon="2.43439">
        <ele>540</ele>
        <time>2017-09-24T08:14:13.000Z</time>
      </trkpt>
      <trkpt lat="43.35459" lon="2.43438">
        <ele>541</ele>
        <time>2017-09-24T08:14:19.000Z</time>
      </trkpt>
      <trkpt lat="43.3546" lon="2.43438">
        <ele>541</ele>
        <time>2017-09-24T08:14:20.000Z</time>
      </trkpt>
      <trkpt lat="43.35461" lon="2.43437">
        <ele>541</ele>
        <time>2017-09-24T08:14:21.000Z</time>
      </trkpt>
      <trkpt lat="43.35462" lon="2.43437">
        <ele>541</ele>
        <time>2017-09-24T08:14:22.000Z</time>
      </trkpt>
      <trkpt lat="43.35463" lon="2.43438">
        <ele>541</ele>
        <time>2017-09-24T08:14:23.000Z</time>
      </trkpt>
      <trkpt lat="43.35463" lon="2.43437">
        <ele>541</ele>
        <time>2017-09-24T08:14:24.000Z</time>
      </trkpt>
      <trkpt lat="43.35464" lon="2.43437">
        <ele>542</ele>
        <time>2017-09-24T08:14:25.000Z</time>
      </trkpt>
      <trkpt lat="43.35465" lon="2.43436">
        <ele>542</ele>
        <time>2017-09-24T08:14:26.000Z</time>
      </trkpt>
      <trkpt lat="43.35466" lon="2.43436">
        <ele>542</ele>
        <time>2017-09-24T08:14:27.000Z</time>
      </trkpt>
      <trkpt lat="43.35467" lon="2.43436">
        <ele>542</ele>
        <time>2017-09-24T08:14:28.000Z</time>
      </trkpt>
      <trkpt lat="43.35468" lon="2.43436">
        <ele>542</ele>
        <time>2017-09-24T08:14:29.000Z</time>
      </trkpt>
      <trkpt lat="43.35469" lon="2.43435">
        <ele>543</ele>
        <time>2017-09-24T08:14:30.000Z</time>
      </trkpt>
      <trkpt lat="43.35469" lon="2.43435">
        <ele>543</ele>
        <time>2017-09-24T08:14:31.000Z</time>
      </trkpt>
      <trkpt lat="43.3547" lon="2.43435">
        <ele>543</ele>
        <time>2017-09-24T08:14:32.000Z</time>
      </trkpt>
      <trkpt lat="43.35471" lon="2.43435">
        <ele>543</ele>
        <time>2017-09-24T08:14:33.000Z</time>
      </trkpt>
      <trkpt lat="43.35472" lon="2.43434">
        <ele>544</ele>
        <time>2017-09-24T08:14:34.000Z</time>
      </trkpt>
      <trkpt lat="43.35473" lon="2.43434">
        <ele>544</ele>
        <time>2017-09-24T08:14:35.000Z</time>
      </trkpt>
      <trkpt lat="43.35474" lon="2.43434">
        <ele>544</ele>
        <time>2017-09-24T08:14:36.000Z</time>
      </trkpt>
      <trkpt lat="43.35475" lon="2.43434">
        <ele>544</ele>
        <time>2017-09-24T08:14:37.000Z</time>
      </trkpt>
      <trkpt lat="43.35476" lon="2.43434">
        <ele>544</ele>
        <time>2017-09-24T08:14:38.000Z</time>
      </trkpt>
      <trkpt lat="43.35477" lon="2.43433">
        <ele>545</ele>
        <time>2017-09-24T08:14:39.000Z</time>
      </trkpt>
      <trkpt lat="43.35477" lon="2.43433">
        <ele>545</ele>
        <time>2017-09-24T08:14:40.000Z</time>
      </trkpt>
      <trkpt lat="43.35479" lon="2.43433">
        <ele>545</ele>
        <time>2017-09-24T08:14:41.000Z</time>
      </trkpt>
      <trkpt lat="43.35479" lon="2.43432">
        <ele>545</ele>
        <time>2017-09-24T08:14:42.000Z</time>
      </trkpt>
      <trkpt lat="43.3548" lon="2.43432">
        <ele>545</ele>
        <time>2017-09-24T08:14:43.000Z</time>
      </trkpt>
      <trkpt lat="43.35481" lon="2.43432">
        <ele>546</ele>
        <time>2017-09-24T08:14:44.000Z</time>
      </trkpt>
      <trkpt lat="43.35482" lon="2.43432">
        <ele>546</ele>
        <time>2017-09-24T08:14:45.000Z</time>
      </trkpt>
      <trkpt lat="43.35483" lon="2.43431">
        <ele>546</ele>
        <time>2017-09-24T08:14:46.000Z</time>
      </trkpt>
      <trkpt lat="43.35484" lon="2.43431">
        <ele>546</ele>
        <time>2017-09-24T08:14:47.000Z</time>
      </trkpt>
      <trkpt lat="43.35484" lon="2.43431">
        <ele>546</ele>
        <time>2017-09-24T08:14:48.000Z</time>
      </trkpt>
      <trkpt lat="43.35485" lon="2.4343">
        <ele>547</ele>
        <time>2017-09-24T08:14:49.000Z</time>
      </trkpt>
      <trkpt lat="43.35486" lon="2.4343">
        <ele>547</ele>
        <time>2017-09-24T08:14:50.000Z</time>
      </trkpt>
      <trkpt lat="43.35487" lon="2.43429">
        <ele>547</ele>
        <time>2017-09-24T08:14:51.000Z</time>
      </trkpt>
      <trkpt lat="43.35488" lon="2.4343">
        <ele>547</ele>
        <time>2017-09-24T08:14:52.000Z</time>
      </trkpt>
      <trkpt lat="43.35488" lon="2.4343">
        <ele>547</ele>
        <time>2017-09-24T08:14:53.000Z</time>
      </trkpt>
      <trkpt lat="43.35488" lon="2.43429">
        <ele>547</ele>
        <time>2017-09-24T08:14:54.000Z</time>
      </trkpt>
      <trkpt lat="43.35489" lon="2.43428">
        <ele>547</ele>
        <time>2017-09-24T08:14:55.000Z</time>
      </trkpt>
      <trkpt lat="43.3549" lon="2.43428">
        <ele>548</ele>
        <time>2017-09-24T08:14:56.000Z</time>
      </trkpt>
      <trkpt lat="43.3549" lon="2.43428">
        <ele>548</ele>
        <time>2017-09-24T08:14:57.000Z</time>
      </trkpt>
      <trkpt lat="43.35491" lon="2.43428">
        <ele>548</ele>
        <time>2017-09-24T08:14:58.000Z</time>
      </trkpt>
      <trkpt lat="43.35492" lon="2.43428">
        <ele>548</ele>
        <time>2017-09-24T08:14:59.000Z</time>
      </trkpt>
      <trkpt lat="43.35493" lon="2.43427">
        <ele>548</ele>
        <time>2017-09-24T08:15:00.000Z</time>
      </trkpt>
      <trkpt lat="43.35494" lon="2.43427">
        <ele>549</ele>
        <time>2017-09-24T08:15:01.000Z</time>
      </trkpt>
      <trkpt lat="43.35495" lon="2.43427">
        <ele>549</ele>
        <time>2017-09-24T08:15:02.000Z</time>
      </trkpt>
      <trkpt lat="43.35496" lon="2.43427">
        <ele>549</ele>
        <time>2017-09-24T08:15:03.000Z</time>
      </trkpt>
      <trkpt lat="43.35497" lon="2.43427">
        <ele>549</ele>
        <time>2017-09-24T08:15:04.000Z</time>
      </trkpt>
      <trkpt lat="43.35497" lon="2.43426">
        <ele>549</ele>
        <time>2017-09-24T08:15:05.000Z</time>
      </trkpt>
      <trkpt lat="43.35498" lon="2.43426">
        <ele>550</ele>
        <time>2017-09-24T08:15:06.000Z</time>
      </trkpt>
      <trkpt lat="43.35499" lon="2.43426">
        <ele>550</ele>
        <time>2017-09-24T08:15:07.000Z</time>
      </trkpt>
      <trkpt lat="43.355" lon="2.43425">
        <ele>550</ele>
        <time>2017-09-24T08:15:08.000Z</time>
      </trkpt>
      <trkpt lat="43.355" lon="2.43425">
        <ele>550</ele>
        <time>2017-09-24T08:15:09.000Z</time>
      </trkpt>
      <trkpt lat="43.35501" lon="2.43424">
        <ele>550</ele>
        <time>2017-09-24T08:15:10.000Z</time>
      </trkpt>
      <trkpt lat="43.35502" lon="2.43424">
        <ele>550</ele>
        <time>2017-09-24T08:15:11.000Z</time>
      </trkpt>
      <trkpt lat="43.35503" lon="2.43424">
        <ele>551</ele>
        <time>2017-09-24T08:15:12.000Z</time>
      </trkpt>
      <trkpt lat="43.35504" lon="2.43424">
        <ele>551</ele>
        <time>2017-09-24T08:15:13.000Z</time>
      </trkpt>
      <trkpt lat="43.35504" lon="2.43422">
        <ele>551</ele>
        <time>2017-09-24T08:15:14.000Z</time>
      </trkpt>
      <trkpt lat="43.35505" lon="2.43422">
        <ele>551</ele>
        <time>2017-09-24T08:15:15.000Z</time>
      </trkpt>
      <trkpt lat="43.35506" lon="2.43422">
        <ele>551</ele>
        <time>2017-09-24T08:15:16.000Z</time>
      </trkpt>
      <trkpt lat="43.35507" lon="2.43421">
        <ele>551</ele>
        <time>2017-09-24T08:15:17.000Z</time>
      </trkpt>
      <trkpt lat="43.35507" lon="2.43421">
        <ele>552</ele>
        <time>2017-09-24T08:15:18.000Z</time>
      </trkpt>
      <trkpt lat="43.35508" lon="2.43421">
        <ele>552</ele>
        <time>2017-09-24T08:15:19.000Z</time>
      </trkpt>
      <trkpt lat="43.35509" lon="2.43421">
        <ele>552</ele>
        <time>2017-09-24T08:15:20.000Z</time>
      </trkpt>
      <trkpt lat="43.3551" lon="2.43421">
        <ele>552</ele>
        <time>2017-09-24T08:15:21.000Z</time>
      </trkpt>
      <trkpt lat="43.35511" lon="2.4342">
        <ele>552</ele>
        <time>2017-09-24T08:15:22.000Z</time>
      </trkpt>
      <trkpt lat="43.35511" lon="2.4342">
        <ele>553</ele>
        <time>2017-09-24T08:15:23.000Z</time>
      </trkpt>
      <trkpt lat="43.35512" lon="2.4342">
        <ele>553</ele>
        <time>2017-09-24T08:15:24.000Z</time>
      </trkpt>
      <trkpt lat="43.35513" lon="2.4342">
        <ele>553</ele>
        <time>2017-09-24T08:15:25.000Z</time>
      </trkpt>
      <trkpt lat="43.35514" lon="2.4342">
        <ele>553</ele>
        <time>2017-09-24T08:15:26.000Z</time>
      </trkpt>
      <trkpt lat="43.35515" lon="2.4342">
        <ele>554</ele>
        <time>2017-09-24T08:15:27.000Z</time>
      </trkpt>
      <trkpt lat="43.35516" lon="2.4342">
        <ele>554</ele>
        <time>2017-09-24T08:15:28.000Z</time>
      </trkpt>
      <trkpt lat="43.35517" lon="2.4342">
        <ele>554</ele>
        <time>2017-09-24T08:15:29.000Z</time>
      </trkpt>
      <trkpt lat="43.35518" lon="2.4342">
        <ele>554</ele>
        <time>2017-09-24T08:15:30.000Z</time>
      </trkpt>
      <trkpt lat="43.35519" lon="2.43419">
        <ele>555</ele>
        <time>2017-09-24T08:15:31.000Z</time>
      </trkpt>
      <trkpt lat="43.3552" lon="2.4342">
        <ele>555</ele>
        <time>2017-09-24T08:15:32.000Z</time>
      </trkpt>
      <trkpt lat="43.35521" lon="2.4342">
        <ele>555</ele>
        <time>2017-09-24T08:15:33.000Z</time>
      </trkpt>
      <trkpt lat="43.35522" lon="2.4342">
        <ele>556</ele>
        <time>2017-09-24T08:15:34.000Z</time>
      </trkpt>
      <trkpt lat="43.35522" lon="2.4342">
        <ele>556</ele>
        <time>2017-09-24T08:15:35.000Z</time>
      </trkpt>
      <trkpt lat="43.35523" lon="2.4342">
        <ele>556</ele>
        <time>2017-09-24T08:15:36.000Z</time>
      </trkpt>
      <trkpt lat="43.35524" lon="2.4342">
        <ele>556</ele>
        <time>2017-09-24T08:15:37.000Z</time>
      </trkpt>
      <trkpt lat="43.35525" lon="2.4342">
        <ele>557</ele>
        <time>2017-09-24T08:15:38.000Z</time>
      </trkpt>
      <trkpt lat="43.35526" lon="2.4342">
        <ele>557</ele>
        <time>2017-09-24T08:15:39.000Z</time>
      </trkpt>
      <trkpt lat="43.35527" lon="2.4342">
        <ele>557</ele>
        <time>2017-09-24T08:15:40.000Z</time>
      </trkpt>
      <trkpt lat="43.35528" lon="2.4342">
        <ele>557</ele>
        <time>2017-09-24T08:15:41.000Z</time>
      </trkpt>
      <trkpt lat="43.35529" lon="2.4342">
        <ele>558</ele>
        <time>2017-09-24T08:15:42.000Z</time>
      </trkpt>
      <trkpt lat="43.35529" lon="2.4342">
        <ele>558</ele>
        <time>2017-09-24T08:15:43.000Z</time>
      </trkpt>
      <trkpt lat="43.3553" lon="2.43419">
        <ele>558</ele>
        <time>2017-09-24T08:15:44.000Z</time>
      </trkpt>
      <trkpt lat="43.35531" lon="2.43419">
        <ele>558</ele>
        <time>2017-09-24T08:15:45.000Z</time>
      </trkpt>
      <trkpt lat="43.35531" lon="2.43419">
        <ele>558</ele>
        <time>2017-09-24T08:15:46.000Z</time>
      </trkpt>
      <trkpt lat="43.35532" lon="2.43418">
        <ele>558</ele>
        <time>2017-09-24T08:15:47.000Z</time>
      </trkpt>
      <trkpt lat="43.35533" lon="2.43418">
        <ele>559</ele>
        <time>2017-09-24T08:15:48.000Z</time>
      </trkpt>
      <trkpt lat="43.35534" lon="2.43418">
        <ele>559</ele>
        <time>2017-09-24T08:15:49.000Z</time>
      </trkpt>
      <trkpt lat="43.35534" lon="2.43418">
        <ele>559</ele>
        <time>2017-09-24T08:15:50.000Z</time>
      </trkpt>
      <trkpt lat="43.35535" lon="2.43417">
        <ele>559</ele>
        <time>2017-09-24T08:15:51.000Z</time>
      </trkpt>
      <trkpt lat="43.35536" lon="2.43417">
        <ele>559</ele>
        <time>2017-09-24T08:15:52.000Z</time>
      </trkpt>
      <trkpt lat="43.35537" lon="2.43417">
        <ele>560</ele>
        <time>2017-09-24T08:15:53.000Z</time>
      </trkpt>
      <trkpt lat="43.35538" lon="2.43416">
        <ele>560</ele>
        <time>2017-09-24T08:15:54.000Z</time>
      </trkpt>
      <trkpt lat="43.35538" lon="2.43416">
        <ele>560</ele>
        <time>2017-09-24T08:15:55.000Z</time>
      </trkpt>
      <trkpt lat="43.35539" lon="2.43416">
        <ele>560</ele>
        <time>2017-09-24T08:15:56.000Z</time>
      </trkpt>
      <trkpt lat="43.3554" lon="2.43416">
        <ele>560</ele>
        <time>2017-09-24T08:15:57.000Z</time>
      </trkpt>
      <trkpt lat="43.35541" lon="2.43415">
        <ele>560</ele>
        <time>2017-09-24T08:15:58.000Z</time>
      </trkpt>
      <trkpt lat="43.35542" lon="2.43415">
        <ele>561</ele>
        <time>2017-09-24T08:15:59.000Z</time>
      </trkpt>
      <trkpt lat="43.35543" lon="2.43415">
        <ele>561</ele>
        <time>2017-09-24T08:16:00.000Z</time>
      </trkpt>
      <trkpt lat="43.35544" lon="2.43415">
        <ele>561</ele>
        <time>2017-09-24T08:16:01.000Z</time>
      </trkpt>
      <trkpt lat="43.35545" lon="2.43415">
        <ele>562</ele>
        <time>2017-09-24T08:16:02.000Z</time>
      </trkpt>
      <trkpt lat="43.35546" lon="2.43415">
        <ele>562</ele>
        <time>2017-09-24T08:16:03.000Z</time>
      </trkpt>
      <trkpt lat="43.35547" lon="2.43415">
        <ele>562</ele>
        <time>2017-09-24T08:16:04.000Z</time>
      </trkpt>
      <trkpt lat="43.35547" lon="2.43415">
        <ele>562</ele>
        <time>2017-09-24T08:16:05.000Z</time>
      </trkpt>
      <trkpt lat="43.35548" lon="2.43415">
        <ele>563</ele>
        <time>2017-09-24T08:16:06.000Z</time>
      </trkpt>
      <trkpt lat="43.35549" lon="2.43415">
        <ele>563</ele>
        <time>2017-09-24T08:16:07.000Z</time>
      </trkpt>
      <trkpt lat="43.3555" lon="2.43415">
        <ele>563</ele>
        <time>2017-09-24T08:16:08.000Z</time>
      </trkpt>
      <trkpt lat="43.35551" lon="2.43415">
        <ele>563</ele>
        <time>2017-09-24T08:16:09.000Z</time>
      </trkpt>
      <trkpt lat="43.35552" lon="2.43414">
        <ele>564</ele>
        <time>2017-09-24T08:16:10.000Z</time>
      </trkpt>
      <trkpt lat="43.35553" lon="2.43414">
        <ele>564</ele>
        <time>2017-09-24T08:16:11.000Z</time>
      </trkpt>
      <trkpt lat="43.35554" lon="2.43414">
        <ele>564</ele>
        <time>2017-09-24T08:16:12.000Z</time>
      </trkpt>
      <trkpt lat="43.35556" lon="2.43413">
        <ele>564</ele>
        <time>2017-09-24T08:16:13.000Z</time>
      </trkpt>
      <trkpt lat="43.35556" lon="2.43413">
        <ele>564</ele>
        <time>2017-09-24T08:16:14.000Z</time>
      </trkpt>
      <trkpt lat="43.35558" lon="2.43413">
        <ele>565</ele>
        <time>2017-09-24T08:16:15.000Z</time>
      </trkpt>
      <trkpt lat="43.35559" lon="2.43412">
        <ele>565</ele>
        <time>2017-09-24T08:16:16.000Z</time>
      </trkpt>
      <trkpt lat="43.3556" lon="2.43412">
        <ele>565</ele>
        <time>2017-09-24T08:16:17.000Z</time>
      </trkpt>
      <trkpt lat="43.35561" lon="2.43411">
        <ele>565</ele>
        <time>2017-09-24T08:16:18.000Z</time>
      </trkpt>
      <trkpt lat="43.35561" lon="2.43411">
        <ele>565</ele>
        <time>2017-09-24T08:16:19.000Z</time>
      </trkpt>
      <trkpt lat="43.35562" lon="2.4341">
        <ele>565</ele>
        <time>2017-09-24T08:16:20.000Z</time>
      </trkpt>
      <trkpt lat="43.35563" lon="2.4341">
        <ele>565</ele>
        <time>2017-09-24T08:16:21.000Z</time>
      </trkpt>
      <trkpt lat="43.35564" lon="2.43409">
        <ele>565</ele>
        <time>2017-09-24T08:16:22.000Z</time>
      </trkpt>
      <trkpt lat="43.35565" lon="2.43409">
        <ele>565</ele>
        <time>2017-09-24T08:16:23.000Z</time>
      </trkpt>
      <trkpt lat="43.35565" lon="2.43408">
        <ele>566</ele>
        <time>2017-09-24T08:16:24.000Z</time>
      </trkpt>
      <trkpt lat="43.35566" lon="2.43408">
        <ele>566</ele>
        <time>2017-09-24T08:16:25.000Z</time>
      </trkpt>
      <trkpt lat="43.35567" lon="2.43408">
        <ele>566</ele>
        <time>2017-09-24T08:16:26.000Z</time>
      </trkpt>
      <trkpt lat="43.35568" lon="2.43407">
        <ele>566</ele>
        <time>2017-09-24T08:16:27.000Z</time>
      </trkpt>
      <trkpt lat="43.35569" lon="2.43406">
        <ele>566</ele>
        <time>2017-09-24T08:16:28.000Z</time>
      </trkpt>
      <trkpt lat="43.3557" lon="2.43406">
        <ele>566</ele>
        <time>2017-09-24T08:16:29.000Z</time>
      </trkpt>
      <trkpt lat="43.35571" lon="2.43406">
        <ele>566</ele>
        <time>2017-09-24T08:16:30.000Z</time>
      </trkpt>
      <trkpt lat="43.35572" lon="2.43406">
        <ele>567</ele>
        <time>2017-09-24T08:16:31.000Z</time>
      </trkpt>
      <trkpt lat="43.35572" lon="2.43406">
        <ele>567</ele>
        <time>2017-09-24T08:16:32.000Z</time>
      </trkpt>
      <trkpt lat="43.35572" lon="2.43406">
        <ele>567</ele>
        <time>2017-09-24T08:16:33.000Z</time>
      </trkpt>
      <trkpt lat="43.35572" lon="2.43406">
        <ele>567</ele>
        <time>2017-09-24T08:16:34.000Z</time>
      </trkpt>
      <trkpt lat="43.35576" lon="2.43405">
        <ele>568</ele>
        <time>2017-09-24T08:16:40.000Z</time>
      </trkpt>
      <trkpt lat="43.35577" lon="2.43405">
        <ele>568</ele>
        <time>2017-09-24T08:16:41.000Z</time>
      </trkpt>
      <trkpt lat="43.35578" lon="2.43404">
        <ele>568</ele>
        <time>2017-09-24T08:16:42.000Z</time>
      </trkpt>
      <trkpt lat="43.35578" lon="2.43404">
        <ele>568</ele>
        <time>2017-09-24T08:16:43.000Z</time>
      </trkpt>
      <trkpt lat="43.35579" lon="2.43403">
        <ele>568</ele>
        <time>2017-09-24T08:16:44.000Z</time>
      </trkpt>
      <trkpt lat="43.3558" lon="2.43403">
        <ele>568</ele>
        <time>2017-09-24T08:16:45.000Z</time>
      </trkpt>
      <trkpt lat="43.3558" lon="2.43402">
        <ele>568</ele>
        <time>2017-09-24T08:16:46.000Z</time>
      </trkpt>
      <trkpt lat="43.35581" lon="2.43402">
        <ele>568</ele>
        <time>2017-09-24T08:16:47.000Z</time>
      </trkpt>
      <trkpt lat="43.35582" lon="2.43401">
        <ele>568</ele>
        <time>2017-09-24T08:16:48.000Z</time>
      </trkpt>
      <trkpt lat="43.35583" lon="2.434">
        <ele>568</ele>
        <time>2017-09-24T08:16:49.000Z</time>
      </trkpt>
      <trkpt lat="43.35583" lon="2.434">
        <ele>568</ele>
        <time>2017-09-24T08:16:50.000Z</time>
      </trkpt>
      <trkpt lat="43.35584" lon="2.43399">
        <ele>568</ele>
        <time>2017-09-24T08:16:51.000Z</time>
      </trkpt>
      <trkpt lat="43.35585" lon="2.43399">
        <ele>568</ele>
        <time>2017-09-24T08:16:52.000Z</time>
      </trkpt>
      <trkpt lat="43.35586" lon="2.43399">
        <ele>568</ele>
        <time>2017-09-24T08:16:53.000Z</time>
      </trkpt>
      <trkpt lat="43.35587" lon="2.43398">
        <ele>569</ele>
        <time>2017-09-24T08:16:54.000Z</time>
      </trkpt>
      <trkpt lat="43.35588" lon="2.43398">
        <ele>569</ele>
        <time>2017-09-24T08:16:55.000Z</time>
      </trkpt>
      <trkpt lat="43.35589" lon="2.43398">
        <ele>569</ele>
        <time>2017-09-24T08:16:56.000Z</time>
      </trkpt>
      <trkpt lat="43.3559" lon="2.43397">
        <ele>569</ele>
        <time>2017-09-24T08:16:57.000Z</time>
      </trkpt>
      <trkpt lat="43.35591" lon="2.43397">
        <ele>569</ele>
        <time>2017-09-24T08:16:58.000Z</time>
      </trkpt>
      <trkpt lat="43.35591" lon="2.43397">
        <ele>569</ele>
        <time>2017-09-24T08:16:59.000Z</time>
      </trkpt>
      <trkpt lat="43.35592" lon="2.43396">
        <ele>569</ele>
        <time>2017-09-24T08:17:00.000Z</time>
      </trkpt>
      <trkpt lat="43.35593" lon="2.43396">
        <ele>569</ele>
        <time>2017-09-24T08:17:01.000Z</time>
      </trkpt>
      <trkpt lat="43.35594" lon="2.43396">
        <ele>569</ele>
        <time>2017-09-24T08:17:02.000Z</time>
      </trkpt>
      <trkpt lat="43.35595" lon="2.43395">
        <ele>570</ele>
        <time>2017-09-24T08:17:03.000Z</time>
      </trkpt>
      <trkpt lat="43.35595" lon="2.43394">
        <ele>569</ele>
        <time>2017-09-24T08:17:04.000Z</time>
      </trkpt>
      <trkpt lat="43.35596" lon="2.43394">
        <ele>570</ele>
        <time>2017-09-24T08:17:05.000Z</time>
      </trkpt>
      <trkpt lat="43.35597" lon="2.43394">
        <ele>570</ele>
        <time>2017-09-24T08:17:06.000Z</time>
      </trkpt>
      <trkpt lat="43.35598" lon="2.43393">
        <ele>570</ele>
        <time>2017-09-24T08:17:07.000Z</time>
      </trkpt>
      <trkpt lat="43.35599" lon="2.43393">
        <ele>570</ele>
        <time>2017-09-24T08:17:08.000Z</time>
      </trkpt>
      <trkpt lat="43.356" lon="2.43393">
        <ele>570</ele>
        <time>2017-09-24T08:17:09.000Z</time>
      </trkpt>
      <trkpt lat="43.356" lon="2.43392">
        <ele>570</ele>
        <time>2017-09-24T08:17:10.000Z</time>
      </trkpt>
      <trkpt lat="43.35601" lon="2.43392">
        <ele>570</ele>
        <time>2017-09-24T08:17:11.000Z</time>
      </trkpt>
      <trkpt lat="43.35602" lon="2.43391">
        <ele>570</ele>
        <time>2017-09-24T08:17:12.000Z</time>
      </trkpt>
      <trkpt lat="43.35603" lon="2.43391">
        <ele>570</ele>
        <time>2017-09-24T08:17:13.000Z</time>
      </trkpt>
      <trkpt lat="43.35604" lon="2.43391">
        <ele>570</ele>
        <time>2017-09-24T08:17:14.000Z</time>
      </trkpt>
      <trkpt lat="43.35605" lon="2.43391">
        <ele>570</ele>
        <time>2017-09-24T08:17:15.000Z</time>
      </trkpt>
      <trkpt lat="43.35605" lon="2.4339">
        <ele>570</ele>
        <time>2017-09-24T08:17:16.000Z</time>
      </trkpt>
      <trkpt lat="43.35606" lon="2.4339">
        <ele>570</ele>
        <time>2017-09-24T08:17:17.000Z</time>
      </trkpt>
      <trkpt lat="43.35607" lon="2.43389">
        <ele>571</ele>
        <time>2017-09-24T08:17:18.000Z</time>
      </trkpt>
      <trkpt lat="43.35608" lon="2.43389">
        <ele>571</ele>
        <time>2017-09-24T08:17:19.000Z</time>
      </trkpt>
      <trkpt lat="43.35609" lon="2.43388">
        <ele>571</ele>
        <time>2017-09-24T08:17:20.000Z</time>
      </trkpt>
      <trkpt lat="43.3561" lon="2.43388">
        <ele>571</ele>
        <time>2017-09-24T08:17:21.000Z</time>
      </trkpt>
      <trkpt lat="43.35611" lon="2.43387">
        <ele>571</ele>
        <time>2017-09-24T08:17:22.000Z</time>
      </trkpt>
      <trkpt lat="43.35611" lon="2.43387">
        <ele>571</ele>
        <time>2017-09-24T08:17:23.000Z</time>
      </trkpt>
      <trkpt lat="43.35612" lon="2.43387">
        <ele>571</ele>
        <time>2017-09-24T08:17:24.000Z</time>
      </trkpt>
      <trkpt lat="43.35613" lon="2.43387">
        <ele>571</ele>
        <time>2017-09-24T08:17:25.000Z</time>
      </trkpt>
      <trkpt lat="43.35614" lon="2.43386">
        <ele>571</ele>
        <time>2017-09-24T08:17:26.000Z</time>
      </trkpt>
      <trkpt lat="43.35615" lon="2.43386">
        <ele>571</ele>
        <time>2017-09-24T08:17:27.000Z</time>
      </trkpt>
      <trkpt lat="43.35616" lon="2.43386">
        <ele>571</ele>
        <time>2017-09-24T08:17:28.000Z</time>
      </trkpt>
      <trkpt lat="43.35616" lon="2.43385">
        <ele>571</ele>
        <time>2017-09-24T08:17:29.000Z</time>
      </trkpt>
      <trkpt lat="43.35617" lon="2.43385">
        <ele>571</ele>
        <time>2017-09-24T08:17:30.000Z</time>
      </trkpt>
      <trkpt lat="43.35618" lon="2.43384">
        <ele>571</ele>
        <time>2017-09-24T08:17:31.000Z</time>
      </trkpt>
      <trkpt lat="43.35618" lon="2.43384">
        <ele>571</ele>
        <time>2017-09-24T08:17:32.000Z</time>
      </trkpt>
      <trkpt lat="43.35619" lon="2.43384">
        <ele>571</ele>
        <time>2017-09-24T08:17:33.000Z</time>
      </trkpt>
      <trkpt lat="43.3562" lon="2.43383">
        <ele>571</ele>
        <time>2017-09-24T08:17:34.000Z</time>
      </trkpt>
      <trkpt lat="43.35621" lon="2.43383">
        <ele>571</ele>
        <time>2017-09-24T08:17:35.000Z</time>
      </trkpt>
      <trkpt lat="43.35622" lon="2.43382">
        <ele>571</ele>
        <time>2017-09-24T08:17:36.000Z</time>
      </trkpt>
      <trkpt lat="43.35623" lon="2.43382">
        <ele>571</ele>
        <time>2017-09-24T08:17:37.000Z</time>
      </trkpt>
      <trkpt lat="43.35623" lon="2.43381">
        <ele>571</ele>
        <time>2017-09-24T08:17:38.000Z</time>
      </trkpt>
      <trkpt lat="43.35624" lon="2.43381">
        <ele>571</ele>
        <time>2017-09-24T08:17:39.000Z</time>
      </trkpt>
      <trkpt lat="43.35625" lon="2.4338">
        <ele>571</ele>
        <time>2017-09-24T08:17:40.000Z</time>
      </trkpt>
      <trkpt lat="43.35626" lon="2.43379">
        <ele>571</ele>
        <time>2017-09-24T08:17:41.000Z</time>
      </trkpt>
      <trkpt lat="43.35626" lon="2.43379">
        <ele>571</ele>
        <time>2017-09-24T08:17:42.000Z</time>
      </trkpt>
      <trkpt lat="43.35627" lon="2.43378">
        <ele>571</ele>
        <time>2017-09-24T08:17:43.000Z</time>
      </trkpt>
      <trkpt lat="43.35628" lon="2.43378">
        <ele>571</ele>
        <time>2017-09-24T08:17:44.000Z</time>
      </trkpt>
      <trkpt lat="43.35629" lon="2.43378">
        <ele>571</ele>
        <time>2017-09-24T08:17:45.000Z</time>
      </trkpt>
      <trkpt lat="43.3563" lon="2.43377">
        <ele>571</ele>
        <time>2017-09-24T08:17:46.000Z</time>
      </trkpt>
      <trkpt lat="43.35631" lon="2.43376">
        <ele>571</ele>
        <time>2017-09-24T08:17:47.000Z</time>
      </trkpt>
      <trkpt lat="43.35631" lon="2.43376">
        <ele>571</ele>
        <time>2017-09-24T08:17:48.000Z</time>
      </trkpt>
      <trkpt lat="43.35632" lon="2.43375">
        <ele>571</ele>
        <time>2017-09-24T08:17:49.000Z</time>
      </trkpt>
      <trkpt lat="43.35632" lon="2.43375">
        <ele>571</ele>
        <time>2017-09-24T08:17:50.000Z</time>
      </trkpt>
      <trkpt lat="43.35633" lon="2.43374">
        <ele>571</ele>
        <time>2017-09-24T08:17:51.000Z</time>
      </trkpt>
      <trkpt lat="43.35634" lon="2.43373">
        <ele>571</ele>
        <time>2017-09-24T08:17:52.000Z</time>
      </trkpt>
      <trkpt lat="43.35634" lon="2.43373">
        <ele>571</ele>
        <time>2017-09-24T08:17:53.000Z</time>
      </trkpt>
      <trkpt lat="43.35635" lon="2.43372">
        <ele>571</ele>
        <time>2017-09-24T08:17:54.000Z</time>
      </trkpt>
      <trkpt lat="43.35636" lon="2.43372">
        <ele>571</ele>
        <time>2017-09-24T08:17:55.000Z</time>
      </trkpt>
      <trkpt lat="43.35637" lon="2.43371">
        <ele>571</ele>
        <time>2017-09-24T08:17:56.000Z</time>
      </trkpt>
      <trkpt lat="43.35638" lon="2.43371">
        <ele>571</ele>
        <time>2017-09-24T08:17:57.000Z</time>
      </trkpt>
      <trkpt lat="43.35639" lon="2.4337">
        <ele>571</ele>
        <time>2017-09-24T08:17:58.000Z</time>
      </trkpt>
      <trkpt lat="43.3564" lon="2.4337">
        <ele>572</ele>
        <time>2017-09-24T08:17:59.000Z</time>
      </trkpt>
      <trkpt lat="43.3564" lon="2.43369">
        <ele>572</ele>
        <time>2017-09-24T08:18:00.000Z</time>
      </trkpt>
      <trkpt lat="43.35641" lon="2.43369">
        <ele>572</ele>
        <time>2017-09-24T08:18:01.000Z</time>
      </trkpt>
      <trkpt lat="43.35642" lon="2.43368">
        <ele>572</ele>
        <time>2017-09-24T08:18:02.000Z</time>
      </trkpt>
      <trkpt lat="43.35643" lon="2.43368">
        <ele>572</ele>
        <time>2017-09-24T08:18:03.000Z</time>
      </trkpt>
      <trkpt lat="43.35644" lon="2.43367">
        <ele>573</ele>
        <time>2017-09-24T08:18:04.000Z</time>
      </trkpt>
      <trkpt lat="43.35645" lon="2.43367">
        <ele>573</ele>
        <time>2017-09-24T08:18:05.000Z</time>
      </trkpt>
      <trkpt lat="43.35646" lon="2.43367">
        <ele>573</ele>
        <time>2017-09-24T08:18:06.000Z</time>
      </trkpt>
      <trkpt lat="43.35647" lon="2.43367">
        <ele>573</ele>
        <time>2017-09-24T08:18:07.000Z</time>
      </trkpt>
      <trkpt lat="43.35648" lon="2.43366">
        <ele>574</ele>
        <time>2017-09-24T08:18:08.000Z</time>
      </trkpt>
      <trkpt lat="43.35649" lon="2.43366">
        <ele>574</ele>
        <time>2017-09-24T08:18:09.000Z</time>
      </trkpt>
      <trkpt lat="43.3565" lon="2.43366">
        <ele>574</ele>
        <time>2017-09-24T08:18:10.000Z</time>
      </trkpt>
      <trkpt lat="43.3565" lon="2.43366">
        <ele>574</ele>
        <time>2017-09-24T08:18:11.000Z</time>
      </trkpt>
      <trkpt lat="43.35651" lon="2.43366">
        <ele>575</ele>
        <time>2017-09-24T08:18:12.000Z</time>
      </trkpt>
      <trkpt lat="43.35652" lon="2.43365">
        <ele>575</ele>
        <time>2017-09-24T08:18:13.000Z</time>
      </trkpt>
      <trkpt lat="43.35653" lon="2.43365">
        <ele>575</ele>
        <time>2017-09-24T08:18:14.000Z</time>
      </trkpt>
      <trkpt lat="43.35654" lon="2.43365">
        <ele>575</ele>
        <time>2017-09-24T08:18:15.000Z</time>
      </trkpt>
      <trkpt lat="43.35655" lon="2.43364">
        <ele>575</ele>
        <time>2017-09-24T08:18:16.000Z</time>
      </trkpt>
      <trkpt lat="43.35655" lon="2.43364">
        <ele>576</ele>
        <time>2017-09-24T08:18:17.000Z</time>
      </trkpt>
      <trkpt lat="43.35656" lon="2.43363">
        <ele>576</ele>
        <time>2017-09-24T08:18:18.000Z</time>
      </trkpt>
      <trkpt lat="43.35657" lon="2.43363">
        <ele>576</ele>
        <time>2017-09-24T08:18:19.000Z</time>
      </trkpt>
      <trkpt lat="43.35658" lon="2.43363">
        <ele>576</ele>
        <time>2017-09-24T08:18:20.000Z</time>
      </trkpt>
      <trkpt lat="43.35659" lon="2.43362">
        <ele>576</ele>
        <time>2017-09-24T08:18:21.000Z</time>
      </trkpt>
      <trkpt lat="43.3566" lon="2.43361">
        <ele>576</ele>
        <time>2017-09-24T08:18:22.000Z</time>
      </trkpt>
      <trkpt lat="43.35661" lon="2.43361">
        <ele>577</ele>
        <time>2017-09-24T08:18:23.000Z</time>
      </trkpt>
      <trkpt lat="43.35662" lon="2.4336">
        <ele>577</ele>
        <time>2017-09-24T08:18:24.000Z</time>
      </trkpt>
      <trkpt lat="43.35662" lon="2.43359">
        <ele>577</ele>
        <time>2017-09-24T08:18:25.000Z</time>
      </trkpt>
      <trkpt lat="43.35663" lon="2.43359">
        <ele>577</ele>
        <time>2017-09-24T08:18:26.000Z</time>
      </trkpt>
      <trkpt lat="43.35664" lon="2.43359">
        <ele>577</ele>
        <time>2017-09-24T08:18:27.000Z</time>
      </trkpt>
      <trkpt lat="43.35665" lon="2.43358">
        <ele>578</ele>
        <time>2017-09-24T08:18:28.000Z</time>
      </trkpt>
      <trkpt lat="43.35666" lon="2.43358">
        <ele>578</ele>
        <time>2017-09-24T08:18:29.000Z</time>
      </trkpt>
      <trkpt lat="43.35667" lon="2.43357">
        <ele>578</ele>
        <time>2017-09-24T08:18:30.000Z</time>
      </trkpt>
      <trkpt lat="43.35668" lon="2.43357">
        <ele>578</ele>
        <time>2017-09-24T08:18:31.000Z</time>
      </trkpt>
      <trkpt lat="43.35669" lon="2.43357">
        <ele>578</ele>
        <time>2017-09-24T08:18:32.000Z</time>
      </trkpt>
      <trkpt lat="43.3567" lon="2.43357">
        <ele>579</ele>
        <time>2017-09-24T08:18:33.000Z</time>
      </trkpt>
      <trkpt lat="43.3567" lon="2.43356">
        <ele>579</ele>
        <time>2017-09-24T08:18:34.000Z</time>
      </trkpt>
      <trkpt lat="43.35671" lon="2.43356">
        <ele>579</ele>
        <time>2017-09-24T08:18:35.000Z</time>
      </trkpt>
      <trkpt lat="43.35672" lon="2.43356">
        <ele>579</ele>
        <time>2017-09-24T08:18:36.000Z</time>
      </trkpt>
      <trkpt lat="43.35673" lon="2.43355">
        <ele>580</ele>
        <time>2017-09-24T08:18:37.000Z</time>
      </trkpt>
      <trkpt lat="43.35674" lon="2.43355">
        <ele>580</ele>
        <time>2017-09-24T08:18:38.000Z</time>
      </trkpt>
      <trkpt lat="43.35675" lon="2.43355">
        <ele>580</ele>
        <time>2017-09-24T08:18:39.000Z</time>
      </trkpt>
      <trkpt lat="43.35676" lon="2.43354">
        <ele>580</ele>
        <time>2017-09-24T08:18:40.000Z</time>
      </trkpt>
      <trkpt lat="43.35677" lon="2.43354">
        <ele>580</ele>
        <time>2017-09-24T08:18:41.000Z</time>
      </trkpt>
      <trkpt lat="43.35678" lon="2.43353">
        <ele>580</ele>
        <time>2017-09-24T08:18:42.000Z</time>
      </trkpt>
      <trkpt lat="43.35679" lon="2.43352">
        <ele>581</ele>
        <time>2017-09-24T08:18:43.000Z</time>
      </trkpt>
      <trkpt lat="43.35679" lon="2.43352">
        <ele>581</ele>
        <time>2017-09-24T08:18:44.000Z</time>
      </trkpt>
      <trkpt lat="43.3568" lon="2.43352">
        <ele>581</ele>
        <time>2017-09-24T08:18:45.000Z</time>
      </trkpt>
      <trkpt lat="43.35681" lon="2.43351">
        <ele>581</ele>
        <time>2017-09-24T08:18:46.000Z</time>
      </trkpt>
      <trkpt lat="43.35682" lon="2.43351">
        <ele>581</ele>
        <time>2017-09-24T08:18:47.000Z</time>
      </trkpt>
      <trkpt lat="43.35683" lon="2.4335">
        <ele>581</ele>
        <time>2017-09-24T08:18:48.000Z</time>
      </trkpt>
      <trkpt lat="43.35684" lon="2.4335">
        <ele>581</ele>
        <time>2017-09-24T08:18:49.000Z</time>
      </trkpt>
      <trkpt lat="43.35684" lon="2.4335">
        <ele>581</ele>
        <time>2017-09-24T08:18:50.000Z</time>
      </trkpt>
      <trkpt lat="43.35685" lon="2.43349">
        <ele>582</ele>
        <time>2017-09-24T08:18:51.000Z</time>
      </trkpt>
      <trkpt lat="43.35686" lon="2.43349">
        <ele>582</ele>
        <time>2017-09-24T08:18:52.000Z</time>
      </trkpt>
      <trkpt lat="43.35687" lon="2.43348">
        <ele>582</ele>
        <time>2017-09-24T08:18:53.000Z</time>
      </trkpt>
      <trkpt lat="43.35688" lon="2.43348">
        <ele>582</ele>
        <time>2017-09-24T08:18:54.000Z</time>
      </trkpt>
      <trkpt lat="43.35689" lon="2.43348">
        <ele>582</ele>
        <time>2017-09-24T08:18:55.000Z</time>
      </trkpt>
      <trkpt lat="43.3569" lon="2.43347">
        <ele>582</ele>
        <time>2017-09-24T08:18:56.000Z</time>
      </trkpt>
      <trkpt lat="43.35691" lon="2.43347">
        <ele>582</ele>
        <time>2017-09-24T08:18:57.000Z</time>
      </trkpt>
      <trkpt lat="43.35691" lon="2.43346">
        <ele>582</ele>
        <time>2017-09-24T08:18:58.000Z</time>
      </trkpt>
      <trkpt lat="43.35692" lon="2.43345">
        <ele>582</ele>
        <time>2017-09-24T08:18:59.000Z</time>
      </trkpt>
      <trkpt lat="43.35693" lon="2.43345">
        <ele>582</ele>
        <time>2017-09-24T08:19:00.000Z</time>
      </trkpt>
      <trkpt lat="43.35693" lon="2.43344">
        <ele>582</ele>
        <time>2017-09-24T08:19:01.000Z</time>
      </trkpt>
      <trkpt lat="43.35694" lon="2.43344">
        <ele>582</ele>
        <time>2017-09-24T08:19:02.000Z</time>
      </trkpt>
      <trkpt lat="43.35695" lon="2.43344">
        <ele>582</ele>
        <time>2017-09-24T08:19:03.000Z</time>
      </trkpt>
      <trkpt lat="43.35696" lon="2.43344">
        <ele>583</ele>
        <time>2017-09-24T08:19:04.000Z</time>
      </trkpt>
      <trkpt lat="43.35697" lon="2.43343">
        <ele>583</ele>
        <time>2017-09-24T08:19:05.000Z</time>
      </trkpt>
      <trkpt lat="43.35697" lon="2.43343">
        <ele>583</ele>
        <time>2017-09-24T08:19:06.000Z</time>
      </trkpt>
      <trkpt lat="43.35698" lon="2.43343">
        <ele>583</ele>
        <time>2017-09-24T08:19:07.000Z</time>
      </trkpt>
      <trkpt lat="43.35699" lon="2.43343">
        <ele>583</ele>
        <time>2017-09-24T08:19:08.000Z</time>
      </trkpt>
      <trkpt lat="43.357" lon="2.43342">
        <ele>583</ele>
        <time>2017-09-24T08:19:09.000Z</time>
      </trkpt>
      <trkpt lat="43.357" lon="2.43341">
        <ele>583</ele>
        <time>2017-09-24T08:19:10.000Z</time>
      </trkpt>
      <trkpt lat="43.35701" lon="2.43341">
        <ele>584</ele>
        <time>2017-09-24T08:19:11.000Z</time>
      </trkpt>
      <trkpt lat="43.35702" lon="2.4334">
        <ele>584</ele>
        <time>2017-09-24T08:19:12.000Z</time>
      </trkpt>
      <trkpt lat="43.35703" lon="2.4334">
        <ele>584</ele>
        <time>2017-09-24T08:19:13.000Z</time>
      </trkpt>
      <trkpt lat="43.35703" lon="2.4334">
        <ele>584</ele>
        <time>2017-09-24T08:19:14.000Z</time>
      </trkpt>
      <trkpt lat="43.35704" lon="2.43339">
        <ele>584</ele>
        <time>2017-09-24T08:19:15.000Z</time>
      </trkpt>
      <trkpt lat="43.35705" lon="2.43339">
        <ele>584</ele>
        <time>2017-09-24T08:19:16.000Z</time>
      </trkpt>
      <trkpt lat="43.35706" lon="2.43339">
        <ele>585</ele>
        <time>2017-09-24T08:19:17.000Z</time>
      </trkpt>
      <trkpt lat="43.35707" lon="2.43338">
        <ele>585</ele>
        <time>2017-09-24T08:19:18.000Z</time>
      </trkpt>
      <trkpt lat="43.35708" lon="2.43338">
        <ele>585</ele>
        <time>2017-09-24T08:19:19.000Z</time>
      </trkpt>
      <trkpt lat="43.35709" lon="2.43337">
        <ele>585</ele>
        <time>2017-09-24T08:19:20.000Z</time>
      </trkpt>
      <trkpt lat="43.35709" lon="2.43337">
        <ele>585</ele>
        <time>2017-09-24T08:19:21.000Z</time>
      </trkpt>
      <trkpt lat="43.3571" lon="2.43336">
        <ele>585</ele>
        <time>2017-09-24T08:19:22.000Z</time>
      </trkpt>
      <trkpt lat="43.35711" lon="2.43336">
        <ele>585</ele>
        <time>2017-09-24T08:19:23.000Z</time>
      </trkpt>
      <trkpt lat="43.35712" lon="2.43336">
        <ele>586</ele>
        <time>2017-09-24T08:19:24.000Z</time>
      </trkpt>
      <trkpt lat="43.35713" lon="2.43336">
        <ele>586</ele>
        <time>2017-09-24T08:19:25.000Z</time>
      </trkpt>
      <trkpt lat="43.35714" lon="2.43335">
        <ele>586</ele>
        <time>2017-09-24T08:19:26.000Z</time>
      </trkpt>
      <trkpt lat="43.35715" lon="2.43335">
        <ele>586</ele>
        <time>2017-09-24T08:19:27.000Z</time>
      </trkpt>
      <trkpt lat="43.35716" lon="2.43335">
        <ele>587</ele>
        <time>2017-09-24T08:19:28.000Z</time>
      </trkpt>
      <trkpt lat="43.35717" lon="2.43334">
        <ele>587</ele>
        <time>2017-09-24T08:19:29.000Z</time>
      </trkpt>
      <trkpt lat="43.35718" lon="2.43333">
        <ele>587</ele>
        <time>2017-09-24T08:19:30.000Z</time>
      </trkpt>
      <trkpt lat="43.35718" lon="2.43333">
        <ele>587</ele>
        <time>2017-09-24T08:19:31.000Z</time>
      </trkpt>
      <trkpt lat="43.35719" lon="2.43332">
        <ele>587</ele>
        <time>2017-09-24T08:19:32.000Z</time>
      </trkpt>
      <trkpt lat="43.3572" lon="2.43331">
        <ele>587</ele>
        <time>2017-09-24T08:19:33.000Z</time>
      </trkpt>
      <trkpt lat="43.35721" lon="2.43331">
        <ele>587</ele>
        <time>2017-09-24T08:19:34.000Z</time>
      </trkpt>
      <trkpt lat="43.35722" lon="2.4333">
        <ele>587</ele>
        <time>2017-09-24T08:19:35.000Z</time>
      </trkpt>
      <trkpt lat="43.35723" lon="2.4333">
        <ele>587</ele>
        <time>2017-09-24T08:19:36.000Z</time>
      </trkpt>
      <trkpt lat="43.35724" lon="2.43329">
        <ele>587</ele>
        <time>2017-09-24T08:19:37.000Z</time>
      </trkpt>
      <trkpt lat="43.35725" lon="2.43328">
        <ele>588</ele>
        <time>2017-09-24T08:19:38.000Z</time>
      </trkpt>
      <trkpt lat="43.35726" lon="2.43328">
        <ele>588</ele>
        <time>2017-09-24T08:19:39.000Z</time>
      </trkpt>
      <trkpt lat="43.35727" lon="2.43328">
        <ele>588</ele>
        <time>2017-09-24T08:19:40.000Z</time>
      </trkpt>
      <trkpt lat="43.35728" lon="2.43327">
        <ele>588</ele>
        <time>2017-09-24T08:19:41.000Z</time>
      </trkpt>
      <trkpt lat="43.35729" lon="2.43327">
        <ele>588</ele>
        <time>2017-09-24T08:19:42.000Z</time>
      </trkpt>
      <trkpt lat="43.3573" lon="2.43326">
        <ele>588</ele>
        <time>2017-09-24T08:19:43.000Z</time>
      </trkpt>
      <trkpt lat="43.35731" lon="2.43325">
        <ele>588</ele>
        <time>2017-09-24T08:19:44.000Z</time>
      </trkpt>
      <trkpt lat="43.35732" lon="2.43325">
        <ele>589</ele>
        <time>2017-09-24T08:19:45.000Z</time>
      </trkpt>
      <trkpt lat="43.35733" lon="2.43325">
        <ele>589</ele>
        <time>2017-09-24T08:19:46.000Z</time>
      </trkpt>
      <trkpt lat="43.35734" lon="2.43324">
        <ele>589</ele>
        <time>2017-09-24T08:19:47.000Z</time>
      </trkpt>
      <trkpt lat="43.35735" lon="2.43324">
        <ele>589</ele>
        <time>2017-09-24T08:19:48.000Z</time>
      </trkpt>
      <trkpt lat="43.35736" lon="2.43323">
        <ele>589</ele>
        <time>2017-09-24T08:19:49.000Z</time>
      </trkpt>
      <trkpt lat="43.35736" lon="2.43322">
        <ele>589</ele>
        <time>2017-09-24T08:19:50.000Z</time>
      </trkpt>
      <trkpt lat="43.35737" lon="2.43322">
        <ele>589</ele>
        <time>2017-09-24T08:19:51.000Z</time>
      </trkpt>
      <trkpt lat="43.35738" lon="2.43322">
        <ele>589</ele>
        <time>2017-09-24T08:19:52.000Z</time>
      </trkpt>
      <trkpt lat="43.35739" lon="2.43322">
        <ele>590</ele>
        <time>2017-09-24T08:19:53.000Z</time>
      </trkpt>
      <trkpt lat="43.3574" lon="2.43321">
        <ele>590</ele>
        <time>2017-09-24T08:19:54.000Z</time>
      </trkpt>
      <trkpt lat="43.35741" lon="2.43321">
        <ele>590</ele>
        <time>2017-09-24T08:19:55.000Z</time>
      </trkpt>
      <trkpt lat="43.35741" lon="2.43321">
        <ele>590</ele>
        <time>2017-09-24T08:19:56.000Z</time>
      </trkpt>
      <trkpt lat="43.35741" lon="2.43321">
        <ele>590</ele>
        <time>2017-09-24T08:19:57.000Z</time>
      </trkpt>
      <trkpt lat="43.35745" lon="2.43318">
        <ele>590</ele>
        <time>2017-09-24T08:20:09.000Z</time>
      </trkpt>
      <trkpt lat="43.35745" lon="2.43318">
        <ele>590</ele>
        <time>2017-09-24T08:20:10.000Z</time>
      </trkpt>
      <trkpt lat="43.35746" lon="2.43318">
        <ele>591</ele>
        <time>2017-09-24T08:20:11.000Z</time>
      </trkpt>
      <trkpt lat="43.35747" lon="2.43317">
        <ele>591</ele>
        <time>2017-09-24T08:20:12.000Z</time>
      </trkpt>
      <trkpt lat="43.35747" lon="2.43317">
        <ele>591</ele>
        <time>2017-09-24T08:20:13.000Z</time>
      </trkpt>
      <trkpt lat="43.35748" lon="2.43316">
        <ele>591</ele>
        <time>2017-09-24T08:20:14.000Z</time>
      </trkpt>
      <trkpt lat="43.35749" lon="2.43315">
        <ele>591</ele>
        <time>2017-09-24T08:20:15.000Z</time>
      </trkpt>
      <trkpt lat="43.35749" lon="2.43315">
        <ele>591</ele>
        <time>2017-09-24T08:20:16.000Z</time>
      </trkpt>
      <trkpt lat="43.3575" lon="2.43315">
        <ele>591</ele>
        <time>2017-09-24T08:20:17.000Z</time>
      </trkpt>
      <trkpt lat="43.35751" lon="2.43314">
        <ele>591</ele>
        <time>2017-09-24T08:20:18.000Z</time>
      </trkpt>
      <trkpt lat="43.35752" lon="2.43314">
        <ele>591</ele>
        <time>2017-09-24T08:20:19.000Z</time>
      </trkpt>
      <trkpt lat="43.35753" lon="2.43314">
        <ele>592</ele>
        <time>2017-09-24T08:20:20.000Z</time>
      </trkpt>
      <trkpt lat="43.35754" lon="2.43314">
        <ele>592</ele>
        <time>2017-09-24T08:20:21.000Z</time>
      </trkpt>
      <trkpt lat="43.35755" lon="2.43313">
        <ele>592</ele>
        <time>2017-09-24T08:20:22.000Z</time>
      </trkpt>
      <trkpt lat="43.35756" lon="2.43313">
        <ele>592</ele>
        <time>2017-09-24T08:20:23.000Z</time>
      </trkpt>
      <trkpt lat="43.35756" lon="2.43312">
        <ele>592</ele>
        <time>2017-09-24T08:20:24.000Z</time>
      </trkpt>
      <trkpt lat="43.35757" lon="2.43312">
        <ele>592</ele>
        <time>2017-09-24T08:20:25.000Z</time>
      </trkpt>
      <trkpt lat="43.35758" lon="2.43312">
        <ele>593</ele>
        <time>2017-09-24T08:20:26.000Z</time>
      </trkpt>
      <trkpt lat="43.35759" lon="2.43311">
        <ele>593</ele>
        <time>2017-09-24T08:20:27.000Z</time>
      </trkpt>
      <trkpt lat="43.3576" lon="2.4331">
        <ele>593</ele>
        <time>2017-09-24T08:20:28.000Z</time>
      </trkpt>
      <trkpt lat="43.35761" lon="2.4331">
        <ele>593</ele>
        <time>2017-09-24T08:20:29.000Z</time>
      </trkpt>
      <trkpt lat="43.35762" lon="2.4331">
        <ele>593</ele>
        <time>2017-09-24T08:20:30.000Z</time>
      </trkpt>
      <trkpt lat="43.35763" lon="2.43309">
        <ele>594</ele>
        <time>2017-09-24T08:20:31.000Z</time>
      </trkpt>
      <trkpt lat="43.35763" lon="2.43309">
        <ele>594</ele>
        <time>2017-09-24T08:20:32.000Z</time>
      </trkpt>
      <trkpt lat="43.35764" lon="2.43309">
        <ele>594</ele>
        <time>2017-09-24T08:20:33.000Z</time>
      </trkpt>
      <trkpt lat="43.35765" lon="2.43308">
        <ele>594</ele>
        <time>2017-09-24T08:20:34.000Z</time>
      </trkpt>
      <trkpt lat="43.35766" lon="2.43308">
        <ele>594</ele>
        <time>2017-09-24T08:20:35.000Z</time>
      </trkpt>
      <trkpt lat="43.35767" lon="2.43308">
        <ele>594</ele>
        <time>2017-09-24T08:20:36.000Z</time>
      </trkpt>
      <trkpt lat="43.35768" lon="2.43307">
        <ele>594</ele>
        <time>2017-09-24T08:20:37.000Z</time>
      </trkpt>
      <trkpt lat="43.35769" lon="2.43307">
        <ele>594</ele>
        <time>2017-09-24T08:20:38.000Z</time>
      </trkpt>
      <trkpt lat="43.3577" lon="2.43306">
        <ele>595</ele>
        <time>2017-09-24T08:20:39.000Z</time>
      </trkpt>
      <trkpt lat="43.35771" lon="2.43306">
        <ele>595</ele>
        <time>2017-09-24T08:20:40.000Z</time>
      </trkpt>
      <trkpt lat="43.35772" lon="2.43305">
        <ele>595</ele>
        <time>2017-09-24T08:20:41.000Z</time>
      </trkpt>
      <trkpt lat="43.35773" lon="2.43305">
        <ele>595</ele>
        <time>2017-09-24T08:20:42.000Z</time>
      </trkpt>
      <trkpt lat="43.35774" lon="2.43304">
        <ele>595</ele>
        <time>2017-09-24T08:20:43.000Z</time>
      </trkpt>
      <trkpt lat="43.35775" lon="2.43304">
        <ele>595</ele>
        <time>2017-09-24T08:20:44.000Z</time>
      </trkpt>
      <trkpt lat="43.35776" lon="2.43304">
        <ele>595</ele>
        <time>2017-09-24T08:20:45.000Z</time>
      </trkpt>
      <trkpt lat="43.35777" lon="2.43303">
        <ele>595</ele>
        <time>2017-09-24T08:20:46.000Z</time>
      </trkpt>
      <trkpt lat="43.35777" lon="2.43303">
        <ele>595</ele>
        <time>2017-09-24T08:20:47.000Z</time>
      </trkpt>
      <trkpt lat="43.35778" lon="2.43303">
        <ele>596</ele>
        <time>2017-09-24T08:20:48.000Z</time>
      </trkpt>
      <trkpt lat="43.35779" lon="2.43303">
        <ele>596</ele>
        <time>2017-09-24T08:20:49.000Z</time>
      </trkpt>
      <trkpt lat="43.3578" lon="2.43302">
        <ele>596</ele>
        <time>2017-09-24T08:20:50.000Z</time>
      </trkpt>
      <trkpt lat="43.35781" lon="2.43302">
        <ele>596</ele>
        <time>2017-09-24T08:20:51.000Z</time>
      </trkpt>
      <trkpt lat="43.35781" lon="2.43302">
        <ele>596</ele>
        <time>2017-09-24T08:20:52.000Z</time>
      </trkpt>
      <trkpt lat="43.35781" lon="2.43302">
        <ele>596</ele>
        <time>2017-09-24T08:20:53.000Z</time>
      </trkpt>
      <trkpt lat="43.35781" lon="2.43301">
        <ele>596</ele>
        <time>2017-09-24T08:20:54.000Z</time>
      </trkpt>
      <trkpt lat="43.35786" lon="2.43302">
        <ele>597</ele>
        <time>2017-09-24T08:21:01.000Z</time>
      </trkpt>
      <trkpt lat="43.35786" lon="2.43301">
        <ele>597</ele>
        <time>2017-09-24T08:21:02.000Z</time>
      </trkpt>
      <trkpt lat="43.35787" lon="2.43301">
        <ele>597</ele>
        <time>2017-09-24T08:21:03.000Z</time>
      </trkpt>
      <trkpt lat="43.35788" lon="2.433">
        <ele>597</ele>
        <time>2017-09-24T08:21:04.000Z</time>
      </trkpt>
      <trkpt lat="43.35788" lon="2.433">
        <ele>597</ele>
        <time>2017-09-24T08:21:05.000Z</time>
      </trkpt>
      <trkpt lat="43.35789" lon="2.43299">
        <ele>597</ele>
        <time>2017-09-24T08:21:06.000Z</time>
      </trkpt>
      <trkpt lat="43.3579" lon="2.43299">
        <ele>597</ele>
        <time>2017-09-24T08:21:07.000Z</time>
      </trkpt>
      <trkpt lat="43.35791" lon="2.43298">
        <ele>597</ele>
        <time>2017-09-24T08:21:08.000Z</time>
      </trkpt>
      <trkpt lat="43.35792" lon="2.43298">
        <ele>597</ele>
        <time>2017-09-24T08:21:09.000Z</time>
      </trkpt>
      <trkpt lat="43.35792" lon="2.43298">
        <ele>598</ele>
        <time>2017-09-24T08:21:10.000Z</time>
      </trkpt>
      <trkpt lat="43.35793" lon="2.43298">
        <ele>598</ele>
        <time>2017-09-24T08:21:11.000Z</time>
      </trkpt>
      <trkpt lat="43.35794" lon="2.43297">
        <ele>598</ele>
        <time>2017-09-24T08:21:12.000Z</time>
      </trkpt>
      <trkpt lat="43.35795" lon="2.43297">
        <ele>598</ele>
        <time>2017-09-24T08:21:13.000Z</time>
      </trkpt>
      <trkpt lat="43.35796" lon="2.43296">
        <ele>598</ele>
        <time>2017-09-24T08:21:14.000Z</time>
      </trkpt>
      <trkpt lat="43.35796" lon="2.43296">
        <ele>598</ele>
        <time>2017-09-24T08:21:15.000Z</time>
      </trkpt>
      <trkpt lat="43.35797" lon="2.43296">
        <ele>598</ele>
        <time>2017-09-24T08:21:16.000Z</time>
      </trkpt>
      <trkpt lat="43.35798" lon="2.43295">
        <ele>598</ele>
        <time>2017-09-24T08:21:17.000Z</time>
      </trkpt>
      <trkpt lat="43.35799" lon="2.43295">
        <ele>598</ele>
        <time>2017-09-24T08:21:18.000Z</time>
      </trkpt>
      <trkpt lat="43.358" lon="2.43295">
        <ele>599</ele>
        <time>2017-09-24T08:21:19.000Z</time>
      </trkpt>
      <trkpt lat="43.35801" lon="2.43294">
        <ele>599</ele>
        <time>2017-09-24T08:21:20.000Z</time>
      </trkpt>
      <trkpt lat="43.35802" lon="2.43294">
        <ele>599</ele>
        <time>2017-09-24T08:21:21.000Z</time>
      </trkpt>
      <trkpt lat="43.35803" lon="2.43294">
        <ele>599</ele>
        <time>2017-09-24T08:21:22.000Z</time>
      </trkpt>
      <trkpt lat="43.35804" lon="2.43294">
        <ele>599</ele>
        <time>2017-09-24T08:21:23.000Z</time>
      </trkpt>
      <trkpt lat="43.35805" lon="2.43293">
        <ele>599</ele>
        <time>2017-09-24T08:21:24.000Z</time>
      </trkpt>
      <trkpt lat="43.35806" lon="2.43294">
        <ele>600</ele>
        <time>2017-09-24T08:21:25.000Z</time>
      </trkpt>
      <trkpt lat="43.35807" lon="2.43293">
        <ele>600</ele>
        <time>2017-09-24T08:21:26.000Z</time>
      </trkpt>
      <trkpt lat="43.35808" lon="2.43293">
        <ele>600</ele>
        <time>2017-09-24T08:21:27.000Z</time>
      </trkpt>
      <trkpt lat="43.35809" lon="2.43293">
        <ele>600</ele>
        <time>2017-09-24T08:21:28.000Z</time>
      </trkpt>
      <trkpt lat="43.3581" lon="2.43293">
        <ele>600</ele>
        <time>2017-09-24T08:21:29.000Z</time>
      </trkpt>
      <trkpt lat="43.35811" lon="2.43293">
        <ele>601</ele>
        <time>2017-09-24T08:21:30.000Z</time>
      </trkpt>
      <trkpt lat="43.35811" lon="2.43293">
        <ele>601</ele>
        <time>2017-09-24T08:21:31.000Z</time>
      </trkpt>
      <trkpt lat="43.35812" lon="2.43292">
        <ele>601</ele>
        <time>2017-09-24T08:21:32.000Z</time>
      </trkpt>
      <trkpt lat="43.35813" lon="2.43292">
        <ele>601</ele>
        <time>2017-09-24T08:21:33.000Z</time>
      </trkpt>
      <trkpt lat="43.35814" lon="2.43292">
        <ele>602</ele>
        <time>2017-09-24T08:21:34.000Z</time>
      </trkpt>
      <trkpt lat="43.35815" lon="2.43292">
        <ele>602</ele>
        <time>2017-09-24T08:21:35.000Z</time>
      </trkpt>
      <trkpt lat="43.35816" lon="2.43292">
        <ele>602</ele>
        <time>2017-09-24T08:21:36.000Z</time>
      </trkpt>
      <trkpt lat="43.35817" lon="2.43292">
        <ele>602</ele>
        <time>2017-09-24T08:21:37.000Z</time>
      </trkpt>
      <trkpt lat="43.35817" lon="2.43292">
        <ele>602</ele>
        <time>2017-09-24T08:21:38.000Z</time>
      </trkpt>
      <trkpt lat="43.35818" lon="2.43292">
        <ele>603</ele>
        <time>2017-09-24T08:21:39.000Z</time>
      </trkpt>
      <trkpt lat="43.35819" lon="2.43292">
        <ele>603</ele>
        <time>2017-09-24T08:21:40.000Z</time>
      </trkpt>
      <trkpt lat="43.3582" lon="2.43291">
        <ele>603</ele>
        <time>2017-09-24T08:21:41.000Z</time>
      </trkpt>
      <trkpt lat="43.35821" lon="2.43291">
        <ele>603</ele>
        <time>2017-09-24T08:21:42.000Z</time>
      </trkpt>
      <trkpt lat="43.35822" lon="2.43291">
        <ele>604</ele>
        <time>2017-09-24T08:21:43.000Z</time>
      </trkpt>
      <trkpt lat="43.35823" lon="2.4329">
        <ele>604</ele>
        <time>2017-09-24T08:21:44.000Z</time>
      </trkpt>
      <trkpt lat="43.35823" lon="2.43289">
        <ele>604</ele>
        <time>2017-09-24T08:21:45.000Z</time>
      </trkpt>
      <trkpt lat="43.35824" lon="2.43289">
        <ele>604</ele>
        <time>2017-09-24T08:21:46.000Z</time>
      </trkpt>
      <trkpt lat="43.35825" lon="2.43289">
        <ele>604</ele>
        <time>2017-09-24T08:21:47.000Z</time>
      </trkpt>
      <trkpt lat="43.35825" lon="2.43289">
        <ele>604</ele>
        <time>2017-09-24T08:21:48.000Z</time>
      </trkpt>
      <trkpt lat="43.35826" lon="2.43288">
        <ele>604</ele>
        <time>2017-09-24T08:21:49.000Z</time>
      </trkpt>
      <trkpt lat="43.35827" lon="2.43288">
        <ele>605</ele>
        <time>2017-09-24T08:21:50.000Z</time>
      </trkpt>
      <trkpt lat="43.35828" lon="2.43287">
        <ele>605</ele>
        <time>2017-09-24T08:21:51.000Z</time>
      </trkpt>
      <trkpt lat="43.35829" lon="2.43287">
        <ele>605</ele>
        <time>2017-09-24T08:21:52.000Z</time>
      </trkpt>
      <trkpt lat="43.3583" lon="2.43287">
        <ele>605</ele>
        <time>2017-09-24T08:21:53.000Z</time>
      </trkpt>
      <trkpt lat="43.35831" lon="2.43286">
        <ele>606</ele>
        <time>2017-09-24T08:21:54.000Z</time>
      </trkpt>
      <trkpt lat="43.35832" lon="2.43286">
        <ele>606</ele>
        <time>2017-09-24T08:21:55.000Z</time>
      </trkpt>
      <trkpt lat="43.35833" lon="2.43286">
        <ele>606</ele>
        <time>2017-09-24T08:21:56.000Z</time>
      </trkpt>
      <trkpt lat="43.35834" lon="2.43286">
        <ele>606</ele>
        <time>2017-09-24T08:21:57.000Z</time>
      </trkpt>
      <trkpt lat="43.35835" lon="2.43285">
        <ele>606</ele>
        <time>2017-09-24T08:21:58.000Z</time>
      </trkpt>
      <trkpt lat="43.35835" lon="2.43285">
        <ele>607</ele>
        <time>2017-09-24T08:21:59.000Z</time>
      </trkpt>
      <trkpt lat="43.35836" lon="2.43285">
        <ele>607</ele>
        <time>2017-09-24T08:22:00.000Z</time>
      </trkpt>
      <trkpt lat="43.35837" lon="2.43284">
        <ele>607</ele>
        <time>2017-09-24T08:22:01.000Z</time>
      </trkpt>
      <trkpt lat="43.35838" lon="2.43284">
        <ele>607</ele>
        <time>2017-09-24T08:22:02.000Z</time>
      </trkpt>
      <trkpt lat="43.35839" lon="2.43283">
        <ele>607</ele>
        <time>2017-09-24T08:22:03.000Z</time>
      </trkpt>
      <trkpt lat="43.35839" lon="2.43283">
        <ele>607</ele>
        <time>2017-09-24T08:22:04.000Z</time>
      </trkpt>
      <trkpt lat="43.3584" lon="2.43283">
        <ele>608</ele>
        <time>2017-09-24T08:22:05.000Z</time>
      </trkpt>
      <trkpt lat="43.35841" lon="2.43282">
        <ele>608</ele>
        <time>2017-09-24T08:22:06.000Z</time>
      </trkpt>
      <trkpt lat="43.35841" lon="2.43281">
        <ele>608</ele>
        <time>2017-09-24T08:22:07.000Z</time>
      </trkpt>
      <trkpt lat="43.35842" lon="2.43281">
        <ele>608</ele>
        <time>2017-09-24T08:22:08.000Z</time>
      </trkpt>
      <trkpt lat="43.35843" lon="2.43281">
        <ele>608</ele>
        <time>2017-09-24T08:22:09.000Z</time>
      </trkpt>
      <trkpt lat="43.35844" lon="2.4328">
        <ele>608</ele>
        <time>2017-09-24T08:22:10.000Z</time>
      </trkpt>
      <trkpt lat="43.35844" lon="2.4328">
        <ele>608</ele>
        <time>2017-09-24T08:22:11.000Z</time>
      </trkpt>
      <trkpt lat="43.35844" lon="2.43279">
        <ele>608</ele>
        <time>2017-09-24T08:22:12.000Z</time>
      </trkpt>
      <trkpt lat="43.35845" lon="2.43279">
        <ele>608</ele>
        <time>2017-09-24T08:22:13.000Z</time>
      </trkpt>
      <trkpt lat="43.35852" lon="2.4327">
        <ele>609</ele>
        <time>2017-09-24T08:23:00.000Z</time>
      </trkpt>
      <trkpt lat="43.35853" lon="2.43269">
        <ele>609</ele>
        <time>2017-09-24T08:23:01.000Z</time>
      </trkpt>
      <trkpt lat="43.35854" lon="2.43269">
        <ele>609</ele>
        <time>2017-09-24T08:23:02.000Z</time>
      </trkpt>
      <trkpt lat="43.35855" lon="2.43269">
        <ele>609</ele>
        <time>2017-09-24T08:23:03.000Z</time>
      </trkpt>
      <trkpt lat="43.35857" lon="2.43269">
        <ele>609</ele>
        <time>2017-09-24T08:23:04.000Z</time>
      </trkpt>
      <trkpt lat="43.35858" lon="2.43268">
        <ele>609</ele>
        <time>2017-09-24T08:23:05.000Z</time>
      </trkpt>
      <trkpt lat="43.35858" lon="2.43268">
        <ele>610</ele>
        <time>2017-09-24T08:23:06.000Z</time>
      </trkpt>
      <trkpt lat="43.3586" lon="2.43268">
        <ele>610</ele>
        <time>2017-09-24T08:23:07.000Z</time>
      </trkpt>
      <trkpt lat="43.35861" lon="2.43267">
        <ele>610</ele>
        <time>2017-09-24T08:23:08.000Z</time>
      </trkpt>
      <trkpt lat="43.35862" lon="2.43267">
        <ele>610</ele>
        <time>2017-09-24T08:23:09.000Z</time>
      </trkpt>
      <trkpt lat="43.35863" lon="2.43267">
        <ele>610</ele>
        <time>2017-09-24T08:23:10.000Z</time>
      </trkpt>
      <trkpt lat="43.35864" lon="2.43266">
        <ele>610</ele>
        <time>2017-09-24T08:23:11.000Z</time>
      </trkpt>
      <trkpt lat="43.35865" lon="2.43266">
        <ele>610</ele>
        <time>2017-09-24T08:23:12.000Z</time>
      </trkpt>
      <trkpt lat="43.35867" lon="2.43265">
        <ele>611</ele>
        <time>2017-09-24T08:23:13.000Z</time>
      </trkpt>
      <trkpt lat="43.35867" lon="2.43265">
        <ele>611</ele>
        <time>2017-09-24T08:23:14.000Z</time>
      </trkpt>
      <trkpt lat="43.35869" lon="2.43265">
        <ele>611</ele>
        <time>2017-09-24T08:23:15.000Z</time>
      </trkpt>
      <trkpt lat="43.35869" lon="2.43264">
        <ele>611</ele>
        <time>2017-09-24T08:23:16.000Z</time>
      </trkpt>
      <trkpt lat="43.35871" lon="2.43264">
        <ele>612</ele>
        <time>2017-09-24T08:23:17.000Z</time>
      </trkpt>
      <trkpt lat="43.35872" lon="2.43264">
        <ele>612</ele>
        <time>2017-09-24T08:23:18.000Z</time>
      </trkpt>
      <trkpt lat="43.35873" lon="2.43264">
        <ele>612</ele>
        <time>2017-09-24T08:23:19.000Z</time>
      </trkpt>
      <trkpt lat="43.35874" lon="2.43263">
        <ele>612</ele>
        <time>2017-09-24T08:23:20.000Z</time>
      </trkpt>
      <trkpt lat="43.35875" lon="2.43263">
        <ele>612</ele>
        <time>2017-09-24T08:23:21.000Z</time>
      </trkpt>
      <trkpt lat="43.35875" lon="2.43262">
        <ele>613</ele>
        <time>2017-09-24T08:23:22.000Z</time>
      </trkpt>
      <trkpt lat="43.35876" lon="2.43261">
        <ele>613</ele>
        <time>2017-09-24T08:23:23.000Z</time>
      </trkpt>
      <trkpt lat="43.35877" lon="2.43261">
        <ele>613</ele>
        <time>2017-09-24T08:23:24.000Z</time>
      </trkpt>
      <trkpt lat="43.35878" lon="2.4326">
        <ele>613</ele>
        <time>2017-09-24T08:23:25.000Z</time>
      </trkpt>
      <trkpt lat="43.35879" lon="2.43259">
        <ele>613</ele>
        <time>2017-09-24T08:23:26.000Z</time>
      </trkpt>
      <trkpt lat="43.3588" lon="2.43258">
        <ele>613</ele>
        <time>2017-09-24T08:23:27.000Z</time>
      </trkpt>
      <trkpt lat="43.3588" lon="2.43257">
        <ele>613</ele>
        <time>2017-09-24T08:23:28.000Z</time>
      </trkpt>
      <trkpt lat="43.35881" lon="2.43256">
        <ele>614</ele>
        <time>2017-09-24T08:23:29.000Z</time>
      </trkpt>
      <trkpt lat="43.35882" lon="2.43255">
        <ele>614</ele>
        <time>2017-09-24T08:23:30.000Z</time>
      </trkpt>
      <trkpt lat="43.35883" lon="2.43254">
        <ele>614</ele>
        <time>2017-09-24T08:23:31.000Z</time>
      </trkpt>
      <trkpt lat="43.35883" lon="2.43253">
        <ele>614</ele>
        <time>2017-09-24T08:23:32.000Z</time>
      </trkpt>
      <trkpt lat="43.35883" lon="2.43251">
        <ele>614</ele>
        <time>2017-09-24T08:23:33.000Z</time>
      </trkpt>
      <trkpt lat="43.35884" lon="2.4325">
        <ele>614</ele>
        <time>2017-09-24T08:23:34.000Z</time>
      </trkpt>
      <trkpt lat="43.35884" lon="2.43249">
        <ele>614</ele>
        <time>2017-09-24T08:23:35.000Z</time>
      </trkpt>
      <trkpt lat="43.35884" lon="2.43247">
        <ele>614</ele>
        <time>2017-09-24T08:23:36.000Z</time>
      </trkpt>
      <trkpt lat="43.35885" lon="2.43247">
        <ele>614</ele>
        <time>2017-09-24T08:23:37.000Z</time>
      </trkpt>
      <trkpt lat="43.35885" lon="2.43246">
        <ele>614</ele>
        <time>2017-09-24T08:23:38.000Z</time>
      </trkpt>
      <trkpt lat="43.35886" lon="2.43246">
        <ele>614</ele>
        <time>2017-09-24T08:23:39.000Z</time>
      </trkpt>
      <trkpt lat="43.35886" lon="2.43245">
        <ele>614</ele>
        <time>2017-09-24T08:23:40.000Z</time>
      </trkpt>
      <trkpt lat="43.35887" lon="2.43245">
        <ele>614</ele>
        <time>2017-09-24T08:23:41.000Z</time>
      </trkpt>
      <trkpt lat="43.35887" lon="2.43245">
        <ele>614</ele>
        <time>2017-09-24T08:23:42.000Z</time>
      </trkpt>
      <trkpt lat="43.35888" lon="2.43245">
        <ele>614</ele>
        <time>2017-09-24T08:23:43.000Z</time>
      </trkpt>
      <trkpt lat="43.35889" lon="2.43245">
        <ele>614</ele>
        <time>2017-09-24T08:23:44.000Z</time>
      </trkpt>
      <trkpt lat="43.3589" lon="2.43245">
        <ele>615</ele>
        <time>2017-09-24T08:23:45.000Z</time>
      </trkpt>
      <trkpt lat="43.3589" lon="2.43245">
        <ele>615</ele>
        <time>2017-09-24T08:23:46.000Z</time>
      </trkpt>
      <trkpt lat="43.3589" lon="2.43244">
        <ele>615</ele>
        <time>2017-09-24T08:23:47.000Z</time>
      </trkpt>
      <trkpt lat="43.35891" lon="2.43244">
        <ele>615</ele>
        <time>2017-09-24T08:23:48.000Z</time>
      </trkpt>
      <trkpt lat="43.35891" lon="2.43245">
        <ele>615</ele>
        <time>2017-09-24T08:23:49.000Z</time>
      </trkpt>
      <trkpt lat="43.35891" lon="2.43245">
        <ele>615</ele>
        <time>2017-09-24T08:23:50.000Z</time>
      </trkpt>
      <trkpt lat="43.35892" lon="2.43245">
        <ele>615</ele>
        <time>2017-09-24T08:23:51.000Z</time>
      </trkpt>
      <trkpt lat="43.35892" lon="2.43245">
        <ele>615</ele>
        <time>2017-09-24T08:23:52.000Z</time>
      </trkpt>
      <trkpt lat="43.35892" lon="2.43246">
        <ele>615</ele>
        <time>2017-09-24T08:23:53.000Z</time>
      </trkpt>
      <trkpt lat="43.35893" lon="2.43246">
        <ele>615</ele>
        <time>2017-09-24T08:23:54.000Z</time>
      </trkpt>
      <trkpt lat="43.35893" lon="2.43246">
        <ele>616</ele>
        <time>2017-09-24T08:23:55.000Z</time>
      </trkpt>
      <trkpt lat="43.35893" lon="2.43247">
        <ele>616</ele>
        <time>2017-09-24T08:23:56.000Z</time>
      </trkpt>
      <trkpt lat="43.35894" lon="2.43248">
        <ele>616</ele>
        <time>2017-09-24T08:23:57.000Z</time>
      </trkpt>
      <trkpt lat="43.35894" lon="2.43248">
        <ele>616</ele>
        <time>2017-09-24T08:23:58.000Z</time>
      </trkpt>
      <trkpt lat="43.35894" lon="2.43249">
        <ele>616</ele>
        <time>2017-09-24T08:23:59.000Z</time>
      </trkpt>
      <trkpt lat="43.35895" lon="2.4325">
        <ele>616</ele>
        <time>2017-09-24T08:24:00.000Z</time>
      </trkpt>
      <trkpt lat="43.35896" lon="2.4325">
        <ele>617</ele>
        <time>2017-09-24T08:24:01.000Z</time>
      </trkpt>
      <trkpt lat="43.35896" lon="2.43251">
        <ele>617</ele>
        <time>2017-09-24T08:24:02.000Z</time>
      </trkpt>
      <trkpt lat="43.35897" lon="2.43251">
        <ele>617</ele>
        <time>2017-09-24T08:24:03.000Z</time>
      </trkpt>
      <trkpt lat="43.35897" lon="2.43252">
        <ele>617</ele>
        <time>2017-09-24T08:24:04.000Z</time>
      </trkpt>
      <trkpt lat="43.35898" lon="2.43253">
        <ele>617</ele>
        <time>2017-09-24T08:24:05.000Z</time>
      </trkpt>
      <trkpt lat="43.35898" lon="2.43253">
        <ele>617</ele>
        <time>2017-09-24T08:24:06.000Z</time>
      </trkpt>
      <trkpt lat="43.35899" lon="2.43254">
        <ele>618</ele>
        <time>2017-09-24T08:24:07.000Z</time>
      </trkpt>
      <trkpt lat="43.35899" lon="2.43254">
        <ele>618</ele>
        <time>2017-09-24T08:24:08.000Z</time>
      </trkpt>
      <trkpt lat="43.359" lon="2.43253">
        <ele>618</ele>
        <time>2017-09-24T08:24:09.000Z</time>
      </trkpt>
      <trkpt lat="43.35901" lon="2.43253">
        <ele>618</ele>
        <time>2017-09-24T08:24:10.000Z</time>
      </trkpt>
      <trkpt lat="43.35901" lon="2.43253">
        <ele>618</ele>
        <time>2017-09-24T08:24:11.000Z</time>
      </trkpt>
      <trkpt lat="43.35902" lon="2.43253">
        <ele>618</ele>
        <time>2017-09-24T08:24:12.000Z</time>
      </trkpt>
      <trkpt lat="43.35902" lon="2.43254">
        <ele>618</ele>
        <time>2017-09-24T08:24:13.000Z</time>
      </trkpt>
      <trkpt lat="43.35902" lon="2.43255">
        <ele>619</ele>
        <time>2017-09-24T08:24:14.000Z</time>
      </trkpt>
      <trkpt lat="43.35902" lon="2.43255">
        <ele>619</ele>
        <time>2017-09-24T08:24:15.000Z</time>
      </trkpt>
      <trkpt lat="43.35902" lon="2.43256">
        <ele>619</ele>
        <time>2017-09-24T08:24:16.000Z</time>
      </trkpt>
      <trkpt lat="43.35902" lon="2.43257">
        <ele>619</ele>
        <time>2017-09-24T08:24:17.000Z</time>
      </trkpt>
      <trkpt lat="43.35902" lon="2.43258">
        <ele>619</ele>
        <time>2017-09-24T08:24:18.000Z</time>
      </trkpt>
      <trkpt lat="43.35902" lon="2.4326">
        <ele>619</ele>
        <time>2017-09-24T08:24:19.000Z</time>
      </trkpt>
      <trkpt lat="43.35902" lon="2.4326">
        <ele>619</ele>
        <time>2017-09-24T08:24:20.000Z</time>
      </trkpt>
      <trkpt lat="43.35902" lon="2.43262">
        <ele>619</ele>
        <time>2017-09-24T08:24:21.000Z</time>
      </trkpt>
      <trkpt lat="43.35902" lon="2.43263">
        <ele>619</ele>
        <time>2017-09-24T08:24:22.000Z</time>
      </trkpt>
      <trkpt lat="43.35902" lon="2.43263">
        <ele>619</ele>
        <time>2017-09-24T08:24:23.000Z</time>
      </trkpt>
      <trkpt lat="43.35901" lon="2.43264">
        <ele>619</ele>
        <time>2017-09-24T08:24:24.000Z</time>
      </trkpt>
      <trkpt lat="43.35902" lon="2.43265">
        <ele>619</ele>
        <time>2017-09-24T08:24:25.000Z</time>
      </trkpt>
      <trkpt lat="43.35902" lon="2.43266">
        <ele>619</ele>
        <time>2017-09-24T08:24:26.000Z</time>
      </trkpt>
      <trkpt lat="43.35902" lon="2.43267">
        <ele>619</ele>
        <time>2017-09-24T08:24:27.000Z</time>
      </trkpt>
      <trkpt lat="43.35902" lon="2.43268">
        <ele>619</ele>
        <time>2017-09-24T08:24:28.000Z</time>
      </trkpt>
      <trkpt lat="43.35901" lon="2.43269">
        <ele>619</ele>
        <time>2017-09-24T08:24:29.000Z</time>
      </trkpt>
      <trkpt lat="43.35901" lon="2.4327">
        <ele>619</ele>
        <time>2017-09-24T08:24:30.000Z</time>
      </trkpt>
      <trkpt lat="43.35901" lon="2.43272">
        <ele>619</ele>
        <time>2017-09-24T08:24:31.000Z</time>
      </trkpt>
      <trkpt lat="43.359" lon="2.43273">
        <ele>619</ele>
        <time>2017-09-24T08:24:32.000Z</time>
      </trkpt>
      <trkpt lat="43.359" lon="2.43274">
        <ele>619</ele>
        <time>2017-09-24T08:24:33.000Z</time>
      </trkpt>
      <trkpt lat="43.359" lon="2.43275">
        <ele>619</ele>
        <time>2017-09-24T08:24:34.000Z</time>
      </trkpt>
      <trkpt lat="43.359" lon="2.43275">
        <ele>619</ele>
        <time>2017-09-24T08:24:35.000Z</time>
      </trkpt>
      <trkpt lat="43.35899" lon="2.43275">
        <ele>619</ele>
        <time>2017-09-24T08:24:36.000Z</time>
      </trkpt>
      <trkpt lat="43.35899" lon="2.43275">
        <ele>619</ele>
        <time>2017-09-24T08:24:37.000Z</time>
      </trkpt>
      <trkpt lat="43.35898" lon="2.43281">
        <ele>619</ele>
        <time>2017-09-24T08:25:14.000Z</time>
      </trkpt>
      <trkpt lat="43.35898" lon="2.43282">
        <ele>619</ele>
        <time>2017-09-24T08:25:15.000Z</time>
      </trkpt>
      <trkpt lat="43.35898" lon="2.43283">
        <ele>620</ele>
        <time>2017-09-24T08:25:16.000Z</time>
      </trkpt>
      <trkpt lat="43.35898" lon="2.43284">
        <ele>620</ele>
        <time>2017-09-24T08:25:17.000Z</time>
      </trkpt>
      <trkpt lat="43.35898" lon="2.43285">
        <ele>620</ele>
        <time>2017-09-24T08:25:18.000Z</time>
      </trkpt>
      <trkpt lat="43.35898" lon="2.43286">
        <ele>620</ele>
        <time>2017-09-24T08:25:19.000Z</time>
      </trkpt>
      <trkpt lat="43.35898" lon="2.43287">
        <ele>620</ele>
        <time>2017-09-24T08:25:20.000Z</time>
      </trkpt>
      <trkpt lat="43.35898" lon="2.43289">
        <ele>620</ele>
        <time>2017-09-24T08:25:21.000Z</time>
      </trkpt>
      <trkpt lat="43.35898" lon="2.4329">
        <ele>620</ele>
        <time>2017-09-24T08:25:22.000Z</time>
      </trkpt>
      <trkpt lat="43.35898" lon="2.43291">
        <ele>620</ele>
        <time>2017-09-24T08:25:23.000Z</time>
      </trkpt>
      <trkpt lat="43.35897" lon="2.43292">
        <ele>620</ele>
        <time>2017-09-24T08:25:24.000Z</time>
      </trkpt>
      <trkpt lat="43.35897" lon="2.43293">
        <ele>620</ele>
        <time>2017-09-24T08:25:25.000Z</time>
      </trkpt>
      <trkpt lat="43.35897" lon="2.43294">
        <ele>620</ele>
        <time>2017-09-24T08:25:26.000Z</time>
      </trkpt>
      <trkpt lat="43.35897" lon="2.43295">
        <ele>620</ele>
        <time>2017-09-24T08:25:27.000Z</time>
      </trkpt>
      <trkpt lat="43.35897" lon="2.43296">
        <ele>620</ele>
        <time>2017-09-24T08:25:28.000Z</time>
      </trkpt>
      <trkpt lat="43.35897" lon="2.43297">
        <ele>620</ele>
        <time>2017-09-24T08:25:29.000Z</time>
      </trkpt>
      <trkpt lat="43.35897" lon="2.43299">
        <ele>620</ele>
        <time>2017-09-24T08:25:30.000Z</time>
      </trkpt>
      <trkpt lat="43.35897" lon="2.433">
        <ele>621</ele>
        <time>2017-09-24T08:25:31.000Z</time>
      </trkpt>
      <trkpt lat="43.35897" lon="2.43301">
        <ele>621</ele>
        <time>2017-09-24T08:25:32.000Z</time>
      </trkpt>
      <trkpt lat="43.35897" lon="2.43302">
        <ele>621</ele>
        <time>2017-09-24T08:25:33.000Z</time>
      </trkpt>
      <trkpt lat="43.35897" lon="2.43304">
        <ele>621</ele>
        <time>2017-09-24T08:25:34.000Z</time>
      </trkpt>
      <trkpt lat="43.35897" lon="2.43305">
        <ele>621</ele>
        <time>2017-09-24T08:25:35.000Z</time>
      </trkpt>
      <trkpt lat="43.35897" lon="2.43306">
        <ele>622</ele>
        <time>2017-09-24T08:25:36.000Z</time>
      </trkpt>
      <trkpt lat="43.35897" lon="2.43308">
        <ele>622</ele>
        <time>2017-09-24T08:25:37.000Z</time>
      </trkpt>
      <trkpt lat="43.35897" lon="2.43309">
        <ele>622</ele>
        <time>2017-09-24T08:25:38.000Z</time>
      </trkpt>
      <trkpt lat="43.35897" lon="2.4331">
        <ele>622</ele>
        <time>2017-09-24T08:25:39.000Z</time>
      </trkpt>
      <trkpt lat="43.35897" lon="2.43311">
        <ele>622</ele>
        <time>2017-09-24T08:25:40.000Z</time>
      </trkpt>
      <trkpt lat="43.35897" lon="2.43313">
        <ele>622</ele>
        <time>2017-09-24T08:25:41.000Z</time>
      </trkpt>
      <trkpt lat="43.35897" lon="2.43314">
        <ele>623</ele>
        <time>2017-09-24T08:25:42.000Z</time>
      </trkpt>
      <trkpt lat="43.35897" lon="2.43315">
        <ele>623</ele>
        <time>2017-09-24T08:25:43.000Z</time>
      </trkpt>
      <trkpt lat="43.35897" lon="2.43316">
        <ele>623</ele>
        <time>2017-09-24T08:25:44.000Z</time>
      </trkpt>
      <trkpt lat="43.35897" lon="2.43318">
        <ele>623</ele>
        <time>2017-09-24T08:25:45.000Z</time>
      </trkpt>
      <trkpt lat="43.35897" lon="2.43319">
        <ele>623</ele>
        <time>2017-09-24T08:25:46.000Z</time>
      </trkpt>
      <trkpt lat="43.35897" lon="2.4332">
        <ele>624</ele>
        <time>2017-09-24T08:25:47.000Z</time>
      </trkpt>
      <trkpt lat="43.35897" lon="2.43321">
        <ele>624</ele>
        <time>2017-09-24T08:25:48.000Z</time>
      </trkpt>
      <trkpt lat="43.35897" lon="2.43322">
        <ele>624</ele>
        <time>2017-09-24T08:25:49.000Z</time>
      </trkpt>
      <trkpt lat="43.35897" lon="2.43324">
        <ele>624</ele>
        <time>2017-09-24T08:25:50.000Z</time>
      </trkpt>
      <trkpt lat="43.35897" lon="2.43325">
        <ele>624</ele>
        <time>2017-09-24T08:25:51.000Z</time>
      </trkpt>
      <trkpt lat="43.35897" lon="2.43326">
        <ele>624</ele>
        <time>2017-09-24T08:25:52.000Z</time>
      </trkpt>
      <trkpt lat="43.35897" lon="2.43328">
        <ele>625</ele>
        <time>2017-09-24T08:25:53.000Z</time>
      </trkpt>
      <trkpt lat="43.35897" lon="2.43329">
        <ele>625</ele>
        <time>2017-09-24T08:25:54.000Z</time>
      </trkpt>
      <trkpt lat="43.35897" lon="2.43331">
        <ele>625</ele>
        <time>2017-09-24T08:25:55.000Z</time>
      </trkpt>
      <trkpt lat="43.35898" lon="2.43332">
        <ele>625</ele>
        <time>2017-09-24T08:25:56.000Z</time>
      </trkpt>
      <trkpt lat="43.35898" lon="2.43333">
        <ele>625</ele>
        <time>2017-09-24T08:25:57.000Z</time>
      </trkpt>
      <trkpt lat="43.35898" lon="2.43335">
        <ele>626</ele>
        <time>2017-09-24T08:25:58.000Z</time>
      </trkpt>
      <trkpt lat="43.35898" lon="2.43336">
        <ele>626</ele>
        <time>2017-09-24T08:25:59.000Z</time>
      </trkpt>
      <trkpt lat="43.35898" lon="2.43338">
        <ele>626</ele>
        <time>2017-09-24T08:26:00.000Z</time>
      </trkpt>
      <trkpt lat="43.35898" lon="2.43339">
        <ele>626</ele>
        <time>2017-09-24T08:26:01.000Z</time>
      </trkpt>
      <trkpt lat="43.35898" lon="2.43341">
        <ele>626</ele>
        <time>2017-09-24T08:26:02.000Z</time>
      </trkpt>
      <trkpt lat="43.35898" lon="2.43342">
        <ele>626</ele>
        <time>2017-09-24T08:26:03.000Z</time>
      </trkpt>
      <trkpt lat="43.35898" lon="2.43343">
        <ele>626</ele>
        <time>2017-09-24T08:26:04.000Z</time>
      </trkpt>
      <trkpt lat="43.35899" lon="2.43344">
        <ele>626</ele>
        <time>2017-09-24T08:26:05.000Z</time>
      </trkpt>
      <trkpt lat="43.35898" lon="2.43346">
        <ele>626</ele>
        <time>2017-09-24T08:26:06.000Z</time>
      </trkpt>
      <trkpt lat="43.35898" lon="2.43347">
        <ele>626</ele>
        <time>2017-09-24T08:26:07.000Z</time>
      </trkpt>
      <trkpt lat="43.35898" lon="2.43348">
        <ele>626</ele>
        <time>2017-09-24T08:26:08.000Z</time>
      </trkpt>
      <trkpt lat="43.35898" lon="2.43349">
        <ele>626</ele>
        <time>2017-09-24T08:26:09.000Z</time>
      </trkpt>
      <trkpt lat="43.35898" lon="2.4335">
        <ele>626</ele>
        <time>2017-09-24T08:26:10.000Z</time>
      </trkpt>
      <trkpt lat="43.35898" lon="2.43352">
        <ele>626</ele>
        <time>2017-09-24T08:26:11.000Z</time>
      </trkpt>
      <trkpt lat="43.35898" lon="2.43353">
        <ele>626</ele>
        <time>2017-09-24T08:26:12.000Z</time>
      </trkpt>
      <trkpt lat="43.35899" lon="2.43354">
        <ele>627</ele>
        <time>2017-09-24T08:26:13.000Z</time>
      </trkpt>
      <trkpt lat="43.35899" lon="2.43356">
        <ele>627</ele>
        <time>2017-09-24T08:26:14.000Z</time>
      </trkpt>
      <trkpt lat="43.35899" lon="2.43357">
        <ele>627</ele>
        <time>2017-09-24T08:26:15.000Z</time>
      </trkpt>
      <trkpt lat="43.35899" lon="2.43358">
        <ele>627</ele>
        <time>2017-09-24T08:26:16.000Z</time>
      </trkpt>
      <trkpt lat="43.35899" lon="2.4336">
        <ele>627</ele>
        <time>2017-09-24T08:26:17.000Z</time>
      </trkpt>
      <trkpt lat="43.35899" lon="2.43361">
        <ele>627</ele>
        <time>2017-09-24T08:26:18.000Z</time>
      </trkpt>
      <trkpt lat="43.35898" lon="2.43362">
        <ele>627</ele>
        <time>2017-09-24T08:26:19.000Z</time>
      </trkpt>
      <trkpt lat="43.35898" lon="2.43364">
        <ele>627</ele>
        <time>2017-09-24T08:26:20.000Z</time>
      </trkpt>
      <trkpt lat="43.35898" lon="2.43365">
        <ele>627</ele>
        <time>2017-09-24T08:26:21.000Z</time>
      </trkpt>
      <trkpt lat="43.35898" lon="2.43366">
        <ele>627</ele>
        <time>2017-09-24T08:26:22.000Z</time>
      </trkpt>
      <trkpt lat="43.35897" lon="2.43367">
        <ele>627</ele>
        <time>2017-09-24T08:26:23.000Z</time>
      </trkpt>
      <trkpt lat="43.35897" lon="2.43369">
        <ele>627</ele>
        <time>2017-09-24T08:26:24.000Z</time>
      </trkpt>
      <trkpt lat="43.35897" lon="2.4337">
        <ele>627</ele>
        <time>2017-09-24T08:26:25.000Z</time>
      </trkpt>
      <trkpt lat="43.35897" lon="2.43371">
        <ele>627</ele>
        <time>2017-09-24T08:26:26.000Z</time>
      </trkpt>
      <trkpt lat="43.35897" lon="2.43373">
        <ele>627</ele>
        <time>2017-09-24T08:26:27.000Z</time>
      </trkpt>
      <trkpt lat="43.35897" lon="2.43374">
        <ele>627</ele>
        <time>2017-09-24T08:26:28.000Z</time>
      </trkpt>
      <trkpt lat="43.35897" lon="2.43375">
        <ele>627</ele>
        <time>2017-09-24T08:26:29.000Z</time>
      </trkpt>
      <trkpt lat="43.35897" lon="2.43377">
        <ele>627</ele>
        <time>2017-09-24T08:26:30.000Z</time>
      </trkpt>
      <trkpt lat="43.35897" lon="2.43378">
        <ele>627</ele>
        <time>2017-09-24T08:26:31.000Z</time>
      </trkpt>
      <trkpt lat="43.35897" lon="2.43379">
        <ele>628</ele>
        <time>2017-09-24T08:26:32.000Z</time>
      </trkpt>
      <trkpt lat="43.35897" lon="2.4338">
        <ele>628</ele>
        <time>2017-09-24T08:26:33.000Z</time>
      </trkpt>
      <trkpt lat="43.35897" lon="2.43382">
        <ele>628</ele>
        <time>2017-09-24T08:26:34.000Z</time>
      </trkpt>
      <trkpt lat="43.35897" lon="2.43383">
        <ele>628</ele>
        <time>2017-09-24T08:26:35.000Z</time>
      </trkpt>
      <trkpt lat="43.35896" lon="2.43384">
        <ele>628</ele>
        <time>2017-09-24T08:26:36.000Z</time>
      </trkpt>
      <trkpt lat="43.35896" lon="2.43386">
        <ele>628</ele>
        <time>2017-09-24T08:26:37.000Z</time>
      </trkpt>
      <trkpt lat="43.35897" lon="2.43387">
        <ele>628</ele>
        <time>2017-09-24T08:26:38.000Z</time>
      </trkpt>
      <trkpt lat="43.35897" lon="2.43388">
        <ele>628</ele>
        <time>2017-09-24T08:26:39.000Z</time>
      </trkpt>
      <trkpt lat="43.35897" lon="2.43389">
        <ele>628</ele>
        <time>2017-09-24T08:26:40.000Z</time>
      </trkpt>
      <trkpt lat="43.35897" lon="2.43391">
        <ele>628</ele>
        <time>2017-09-24T08:26:41.000Z</time>
      </trkpt>
      <trkpt lat="43.35897" lon="2.43392">
        <ele>628</ele>
        <time>2017-09-24T08:26:42.000Z</time>
      </trkpt>
      <trkpt lat="43.35896" lon="2.43393">
        <ele>629</ele>
        <time>2017-09-24T08:26:43.000Z</time>
      </trkpt>
      <trkpt lat="43.35896" lon="2.43395">
        <ele>629</ele>
        <time>2017-09-24T08:26:44.000Z</time>
      </trkpt>
      <trkpt lat="43.35896" lon="2.43396">
        <ele>629</ele>
        <time>2017-09-24T08:26:45.000Z</time>
      </trkpt>
      <trkpt lat="43.35895" lon="2.43397">
        <ele>629</ele>
        <time>2017-09-24T08:26:46.000Z</time>
      </trkpt>
      <trkpt lat="43.35895" lon="2.43399">
        <ele>629</ele>
        <time>2017-09-24T08:26:47.000Z</time>
      </trkpt>
      <trkpt lat="43.35895" lon="2.434">
        <ele>629</ele>
        <time>2017-09-24T08:26:48.000Z</time>
      </trkpt>
      <trkpt lat="43.35895" lon="2.43401">
        <ele>629</ele>
        <time>2017-09-24T08:26:49.000Z</time>
      </trkpt>
      <trkpt lat="43.35895" lon="2.43401">
        <ele>629</ele>
        <time>2017-09-24T08:26:50.000Z</time>
      </trkpt>
      <trkpt lat="43.35895" lon="2.43401">
        <ele>629</ele>
        <time>2017-09-24T08:26:51.000Z</time>
      </trkpt>
      <trkpt lat="43.35895" lon="2.43402">
        <ele>629</ele>
        <time>2017-09-24T08:26:52.000Z</time>
      </trkpt>
      <trkpt lat="43.35895" lon="2.43402">
        <ele>629</ele>
        <time>2017-09-24T08:26:53.000Z</time>
      </trkpt>
      <trkpt lat="43.35895" lon="2.43403">
        <ele>629</ele>
        <time>2017-09-24T08:26:54.000Z</time>
      </trkpt>
      <trkpt lat="43.35895" lon="2.43404">
        <ele>629</ele>
        <time>2017-09-24T08:26:55.000Z</time>
      </trkpt>
      <trkpt lat="43.35895" lon="2.43405">
        <ele>629</ele>
        <time>2017-09-24T08:26:56.000Z</time>
      </trkpt>
      <trkpt lat="43.35895" lon="2.43406">
        <ele>629</ele>
        <time>2017-09-24T08:26:57.000Z</time>
      </trkpt>
      <trkpt lat="43.35895" lon="2.43407">
        <ele>630</ele>
        <time>2017-09-24T08:26:58.000Z</time>
      </trkpt>
      <trkpt lat="43.35896" lon="2.43408">
        <ele>630</ele>
        <time>2017-09-24T08:26:59.000Z</time>
      </trkpt>
      <trkpt lat="43.35896" lon="2.43409">
        <ele>630</ele>
        <time>2017-09-24T08:27:00.000Z</time>
      </trkpt>
      <trkpt lat="43.35896" lon="2.43411">
        <ele>630</ele>
        <time>2017-09-24T08:27:01.000Z</time>
      </trkpt>
      <trkpt lat="43.35895" lon="2.43412">
        <ele>630</ele>
        <time>2017-09-24T08:27:02.000Z</time>
      </trkpt>
      <trkpt lat="43.35896" lon="2.43414">
        <ele>630</ele>
        <time>2017-09-24T08:27:03.000Z</time>
      </trkpt>
      <trkpt lat="43.35896" lon="2.43415">
        <ele>630</ele>
        <time>2017-09-24T08:27:04.000Z</time>
      </trkpt>
      <trkpt lat="43.35897" lon="2.43417">
        <ele>630</ele>
        <time>2017-09-24T08:27:05.000Z</time>
      </trkpt>
      <trkpt lat="43.35897" lon="2.43418">
        <ele>631</ele>
        <time>2017-09-24T08:27:06.000Z</time>
      </trkpt>
      <trkpt lat="43.35898" lon="2.43419">
        <ele>631</ele>
        <time>2017-09-24T08:27:07.000Z</time>
      </trkpt>
      <trkpt lat="43.35898" lon="2.43421">
        <ele>631</ele>
        <time>2017-09-24T08:27:08.000Z</time>
      </trkpt>
      <trkpt lat="43.35899" lon="2.43422">
        <ele>631</ele>
        <time>2017-09-24T08:27:09.000Z</time>
      </trkpt>
      <trkpt lat="43.35899" lon="2.43423">
        <ele>631</ele>
        <time>2017-09-24T08:27:10.000Z</time>
      </trkpt>
      <trkpt lat="43.35899" lon="2.43424">
        <ele>631</ele>
        <time>2017-09-24T08:27:11.000Z</time>
      </trkpt>
      <trkpt lat="43.359" lon="2.43425">
        <ele>631</ele>
        <time>2017-09-24T08:27:12.000Z</time>
      </trkpt>
      <trkpt lat="43.359" lon="2.43427">
        <ele>631</ele>
        <time>2017-09-24T08:27:13.000Z</time>
      </trkpt>
      <trkpt lat="43.359" lon="2.43428">
        <ele>631</ele>
        <time>2017-09-24T08:27:14.000Z</time>
      </trkpt>
      <trkpt lat="43.35901" lon="2.4343">
        <ele>631</ele>
        <time>2017-09-24T08:27:15.000Z</time>
      </trkpt>
      <trkpt lat="43.35901" lon="2.43431">
        <ele>631</ele>
        <time>2017-09-24T08:27:16.000Z</time>
      </trkpt>
      <trkpt lat="43.35901" lon="2.43432">
        <ele>631</ele>
        <time>2017-09-24T08:27:17.000Z</time>
      </trkpt>
      <trkpt lat="43.35902" lon="2.43434">
        <ele>632</ele>
        <time>2017-09-24T08:27:18.000Z</time>
      </trkpt>
      <trkpt lat="43.35902" lon="2.43435">
        <ele>632</ele>
        <time>2017-09-24T08:27:19.000Z</time>
      </trkpt>
      <trkpt lat="43.35903" lon="2.43436">
        <ele>632</ele>
        <time>2017-09-24T08:27:20.000Z</time>
      </trkpt>
      <trkpt lat="43.35903" lon="2.43437">
        <ele>632</ele>
        <time>2017-09-24T08:27:21.000Z</time>
      </trkpt>
      <trkpt lat="43.35904" lon="2.43439">
        <ele>632</ele>
        <time>2017-09-24T08:27:22.000Z</time>
      </trkpt>
      <trkpt lat="43.35904" lon="2.4344">
        <ele>632</ele>
        <time>2017-09-24T08:27:23.000Z</time>
      </trkpt>
      <trkpt lat="43.35905" lon="2.43441">
        <ele>632</ele>
        <time>2017-09-24T08:27:24.000Z</time>
      </trkpt>
      <trkpt lat="43.35905" lon="2.43442">
        <ele>632</ele>
        <time>2017-09-24T08:27:25.000Z</time>
      </trkpt>
      <trkpt lat="43.35906" lon="2.43443">
        <ele>632</ele>
        <time>2017-09-24T08:27:26.000Z</time>
      </trkpt>
      <trkpt lat="43.35906" lon="2.43444">
        <ele>632</ele>
        <time>2017-09-24T08:27:27.000Z</time>
      </trkpt>
      <trkpt lat="43.35907" lon="2.43445">
        <ele>632</ele>
        <time>2017-09-24T08:27:28.000Z</time>
      </trkpt>
      <trkpt lat="43.35907" lon="2.43447">
        <ele>633</ele>
        <time>2017-09-24T08:27:29.000Z</time>
      </trkpt>
      <trkpt lat="43.35907" lon="2.43448">
        <ele>633</ele>
        <time>2017-09-24T08:27:30.000Z</time>
      </trkpt>
      <trkpt lat="43.35908" lon="2.43449">
        <ele>633</ele>
        <time>2017-09-24T08:27:31.000Z</time>
      </trkpt>
      <trkpt lat="43.35909" lon="2.4345">
        <ele>633</ele>
        <time>2017-09-24T08:27:32.000Z</time>
      </trkpt>
      <trkpt lat="43.35909" lon="2.43451">
        <ele>633</ele>
        <time>2017-09-24T08:27:33.000Z</time>
      </trkpt>
      <trkpt lat="43.3591" lon="2.43452">
        <ele>633</ele>
        <time>2017-09-24T08:27:34.000Z</time>
      </trkpt>
      <trkpt lat="43.35911" lon="2.43454">
        <ele>633</ele>
        <time>2017-09-24T08:27:35.000Z</time>
      </trkpt>
      <trkpt lat="43.35911" lon="2.43455">
        <ele>633</ele>
        <time>2017-09-24T08:27:36.000Z</time>
      </trkpt>
      <trkpt lat="43.35912" lon="2.43456">
        <ele>633</ele>
        <time>2017-09-24T08:27:37.000Z</time>
      </trkpt>
      <trkpt lat="43.35913" lon="2.43457">
        <ele>634</ele>
        <time>2017-09-24T08:27:38.000Z</time>
      </trkpt>
      <trkpt lat="43.35914" lon="2.43458">
        <ele>634</ele>
        <time>2017-09-24T08:27:39.000Z</time>
      </trkpt>
      <trkpt lat="43.35914" lon="2.43459">
        <ele>634</ele>
        <time>2017-09-24T08:27:40.000Z</time>
      </trkpt>
      <trkpt lat="43.35914" lon="2.43461">
        <ele>634</ele>
        <time>2017-09-24T08:27:41.000Z</time>
      </trkpt>
      <trkpt lat="43.35915" lon="2.43462">
        <ele>634</ele>
        <time>2017-09-24T08:27:42.000Z</time>
      </trkpt>
      <trkpt lat="43.35916" lon="2.43463">
        <ele>634</ele>
        <time>2017-09-24T08:27:43.000Z</time>
      </trkpt>
      <trkpt lat="43.35916" lon="2.43464">
        <ele>634</ele>
        <time>2017-09-24T08:27:44.000Z</time>
      </trkpt>
      <trkpt lat="43.35917" lon="2.43465">
        <ele>634</ele>
        <time>2017-09-24T08:27:45.000Z</time>
      </trkpt>
      <trkpt lat="43.35917" lon="2.43466">
        <ele>634</ele>
        <time>2017-09-24T08:27:46.000Z</time>
      </trkpt>
      <trkpt lat="43.35918" lon="2.43468">
        <ele>635</ele>
        <time>2017-09-24T08:27:47.000Z</time>
      </trkpt>
      <trkpt lat="43.35918" lon="2.43469">
        <ele>635</ele>
        <time>2017-09-24T08:27:48.000Z</time>
      </trkpt>
      <trkpt lat="43.35919" lon="2.4347">
        <ele>635</ele>
        <time>2017-09-24T08:27:49.000Z</time>
      </trkpt>
      <trkpt lat="43.3592" lon="2.43471">
        <ele>635</ele>
        <time>2017-09-24T08:27:50.000Z</time>
      </trkpt>
      <trkpt lat="43.3592" lon="2.43472">
        <ele>635</ele>
        <time>2017-09-24T08:27:51.000Z</time>
      </trkpt>
      <trkpt lat="43.35921" lon="2.43472">
        <ele>635</ele>
        <time>2017-09-24T08:27:52.000Z</time>
      </trkpt>
      <trkpt lat="43.35922" lon="2.43474">
        <ele>635</ele>
        <time>2017-09-24T08:27:53.000Z</time>
      </trkpt>
      <trkpt lat="43.35922" lon="2.43475">
        <ele>635</ele>
        <time>2017-09-24T08:27:54.000Z</time>
      </trkpt>
      <trkpt lat="43.35923" lon="2.43475">
        <ele>635</ele>
        <time>2017-09-24T08:27:55.000Z</time>
      </trkpt>
      <trkpt lat="43.35924" lon="2.43477">
        <ele>635</ele>
        <time>2017-09-24T08:27:56.000Z</time>
      </trkpt>
      <trkpt lat="43.35924" lon="2.43477">
        <ele>636</ele>
        <time>2017-09-24T08:27:57.000Z</time>
      </trkpt>
      <trkpt lat="43.35925" lon="2.43478">
        <ele>636</ele>
        <time>2017-09-24T08:27:58.000Z</time>
      </trkpt>
      <trkpt lat="43.35926" lon="2.4348">
        <ele>636</ele>
        <time>2017-09-24T08:27:59.000Z</time>
      </trkpt>
      <trkpt lat="43.35927" lon="2.43481">
        <ele>636</ele>
        <time>2017-09-24T08:28:00.000Z</time>
      </trkpt>
      <trkpt lat="43.35927" lon="2.43482">
        <ele>636</ele>
        <time>2017-09-24T08:28:01.000Z</time>
      </trkpt>
      <trkpt lat="43.35928" lon="2.43483">
        <ele>636</ele>
        <time>2017-09-24T08:28:02.000Z</time>
      </trkpt>
      <trkpt lat="43.35929" lon="2.43484">
        <ele>636</ele>
        <time>2017-09-24T08:28:03.000Z</time>
      </trkpt>
      <trkpt lat="43.35929" lon="2.43485">
        <ele>636</ele>
        <time>2017-09-24T08:28:04.000Z</time>
      </trkpt>
      <trkpt lat="43.3593" lon="2.43486">
        <ele>636</ele>
        <time>2017-09-24T08:28:05.000Z</time>
      </trkpt>
      <trkpt lat="43.3593" lon="2.43487">
        <ele>637</ele>
        <time>2017-09-24T08:28:06.000Z</time>
      </trkpt>
      <trkpt lat="43.3593" lon="2.43488">
        <ele>637</ele>
        <time>2017-09-24T08:28:07.000Z</time>
      </trkpt>
      <trkpt lat="43.35931" lon="2.43489">
        <ele>637</ele>
        <time>2017-09-24T08:28:08.000Z</time>
      </trkpt>
      <trkpt lat="43.35931" lon="2.4349">
        <ele>637</ele>
        <time>2017-09-24T08:28:09.000Z</time>
      </trkpt>
      <trkpt lat="43.35931" lon="2.43492">
        <ele>637</ele>
        <time>2017-09-24T08:28:10.000Z</time>
      </trkpt>
      <trkpt lat="43.35932" lon="2.43493">
        <ele>637</ele>
        <time>2017-09-24T08:28:11.000Z</time>
      </trkpt>
      <trkpt lat="43.35933" lon="2.43494">
        <ele>637</ele>
        <time>2017-09-24T08:28:12.000Z</time>
      </trkpt>
      <trkpt lat="43.35933" lon="2.43495">
        <ele>637</ele>
        <time>2017-09-24T08:28:13.000Z</time>
      </trkpt>
      <trkpt lat="43.35934" lon="2.43496">
        <ele>637</ele>
        <time>2017-09-24T08:28:14.000Z</time>
      </trkpt>
      <trkpt lat="43.35935" lon="2.43497">
        <ele>638</ele>
        <time>2017-09-24T08:28:15.000Z</time>
      </trkpt>
      <trkpt lat="43.35935" lon="2.43498">
        <ele>638</ele>
        <time>2017-09-24T08:28:16.000Z</time>
      </trkpt>
      <trkpt lat="43.35936" lon="2.43499">
        <ele>638</ele>
        <time>2017-09-24T08:28:17.000Z</time>
      </trkpt>
      <trkpt lat="43.35936" lon="2.43501">
        <ele>638</ele>
        <time>2017-09-24T08:28:18.000Z</time>
      </trkpt>
      <trkpt lat="43.35936" lon="2.43502">
        <ele>638</ele>
        <time>2017-09-24T08:28:19.000Z</time>
      </trkpt>
      <trkpt lat="43.35937" lon="2.43503">
        <ele>638</ele>
        <time>2017-09-24T08:28:20.000Z</time>
      </trkpt>
      <trkpt lat="43.35937" lon="2.43504">
        <ele>638</ele>
        <time>2017-09-24T08:28:21.000Z</time>
      </trkpt>
      <trkpt lat="43.35937" lon="2.43505">
        <ele>638</ele>
        <time>2017-09-24T08:28:22.000Z</time>
      </trkpt>
      <trkpt lat="43.35938" lon="2.43507">
        <ele>639</ele>
        <time>2017-09-24T08:28:23.000Z</time>
      </trkpt>
      <trkpt lat="43.35939" lon="2.43508">
        <ele>639</ele>
        <time>2017-09-24T08:28:24.000Z</time>
      </trkpt>
      <trkpt lat="43.3594" lon="2.43509">
        <ele>639</ele>
        <time>2017-09-24T08:28:25.000Z</time>
      </trkpt>
      <trkpt lat="43.3594" lon="2.4351">
        <ele>639</ele>
        <time>2017-09-24T08:28:26.000Z</time>
      </trkpt>
      <trkpt lat="43.35941" lon="2.43512">
        <ele>639</ele>
        <time>2017-09-24T08:28:27.000Z</time>
      </trkpt>
      <trkpt lat="43.35941" lon="2.43513">
        <ele>639</ele>
        <time>2017-09-24T08:28:28.000Z</time>
      </trkpt>
      <trkpt lat="43.35941" lon="2.43513">
        <ele>639</ele>
        <time>2017-09-24T08:28:29.000Z</time>
      </trkpt>
      <trkpt lat="43.35942" lon="2.43514">
        <ele>640</ele>
        <time>2017-09-24T08:28:30.000Z</time>
      </trkpt>
      <trkpt lat="43.35942" lon="2.43515">
        <ele>640</ele>
        <time>2017-09-24T08:28:31.000Z</time>
      </trkpt>
      <trkpt lat="43.35943" lon="2.43516">
        <ele>640</ele>
        <time>2017-09-24T08:28:32.000Z</time>
      </trkpt>
      <trkpt lat="43.35943" lon="2.43517">
        <ele>640</ele>
        <time>2017-09-24T08:28:33.000Z</time>
      </trkpt>
      <trkpt lat="43.35943" lon="2.43518">
        <ele>640</ele>
        <time>2017-09-24T08:28:34.000Z</time>
      </trkpt>
      <trkpt lat="43.35944" lon="2.43519">
        <ele>640</ele>
        <time>2017-09-24T08:28:35.000Z</time>
      </trkpt>
      <trkpt lat="43.35945" lon="2.4352">
        <ele>640</ele>
        <time>2017-09-24T08:28:37.000Z</time>
      </trkpt>
      <trkpt lat="43.35945" lon="2.43521">
        <ele>641</ele>
        <time>2017-09-24T08:28:38.000Z</time>
      </trkpt>
      <trkpt lat="43.35946" lon="2.43522">
        <ele>641</ele>
        <time>2017-09-24T08:28:39.000Z</time>
      </trkpt>
      <trkpt lat="43.35947" lon="2.43522">
        <ele>641</ele>
        <time>2017-09-24T08:28:40.000Z</time>
      </trkpt>
      <trkpt lat="43.35947" lon="2.43523">
        <ele>641</ele>
        <time>2017-09-24T08:28:41.000Z</time>
      </trkpt>
      <trkpt lat="43.35948" lon="2.43524">
        <ele>641</ele>
        <time>2017-09-24T08:28:42.000Z</time>
      </trkpt>
      <trkpt lat="43.35948" lon="2.43524">
        <ele>641</ele>
        <time>2017-09-24T08:28:43.000Z</time>
      </trkpt>
      <trkpt lat="43.35948" lon="2.43525">
        <ele>641</ele>
        <time>2017-09-24T08:28:44.000Z</time>
      </trkpt>
      <trkpt lat="43.35949" lon="2.43526">
        <ele>641</ele>
        <time>2017-09-24T08:28:45.000Z</time>
      </trkpt>
      <trkpt lat="43.35949" lon="2.43526">
        <ele>641</ele>
        <time>2017-09-24T08:28:46.000Z</time>
      </trkpt>
      <trkpt lat="43.3595" lon="2.43527">
        <ele>642</ele>
        <time>2017-09-24T08:28:47.000Z</time>
      </trkpt>
      <trkpt lat="43.3595" lon="2.43527">
        <ele>642</ele>
        <time>2017-09-24T08:28:48.000Z</time>
      </trkpt>
      <trkpt lat="43.35951" lon="2.43527">
        <ele>642</ele>
        <time>2017-09-24T08:28:49.000Z</time>
      </trkpt>
      <trkpt lat="43.35952" lon="2.43528">
        <ele>642</ele>
        <time>2017-09-24T08:28:50.000Z</time>
      </trkpt>
      <trkpt lat="43.35953" lon="2.43528">
        <ele>642</ele>
        <time>2017-09-24T08:28:51.000Z</time>
      </trkpt>
      <trkpt lat="43.35953" lon="2.43529">
        <ele>642</ele>
        <time>2017-09-24T08:28:52.000Z</time>
      </trkpt>
      <trkpt lat="43.35954" lon="2.4353">
        <ele>642</ele>
        <time>2017-09-24T08:28:53.000Z</time>
      </trkpt>
      <trkpt lat="43.35955" lon="2.4353">
        <ele>642</ele>
        <time>2017-09-24T08:28:54.000Z</time>
      </trkpt>
      <trkpt lat="43.35955" lon="2.4353">
        <ele>643</ele>
        <time>2017-09-24T08:28:55.000Z</time>
      </trkpt>
      <trkpt lat="43.35956" lon="2.43531">
        <ele>643</ele>
        <time>2017-09-24T08:28:56.000Z</time>
      </trkpt>
      <trkpt lat="43.35957" lon="2.43531">
        <ele>643</ele>
        <time>2017-09-24T08:28:57.000Z</time>
      </trkpt>
      <trkpt lat="43.35957" lon="2.43532">
        <ele>643</ele>
        <time>2017-09-24T08:28:58.000Z</time>
      </trkpt>
      <trkpt lat="43.35958" lon="2.43532">
        <ele>643</ele>
        <time>2017-09-24T08:28:59.000Z</time>
      </trkpt>
      <trkpt lat="43.35959" lon="2.43533">
        <ele>643</ele>
        <time>2017-09-24T08:29:00.000Z</time>
      </trkpt>
      <trkpt lat="43.3596" lon="2.43533">
        <ele>643</ele>
        <time>2017-09-24T08:29:01.000Z</time>
      </trkpt>
      <trkpt lat="43.3596" lon="2.43534">
        <ele>643</ele>
        <time>2017-09-24T08:29:02.000Z</time>
      </trkpt>
      <trkpt lat="43.35961" lon="2.43535">
        <ele>644</ele>
        <time>2017-09-24T08:29:03.000Z</time>
      </trkpt>
      <trkpt lat="43.35962" lon="2.43535">
        <ele>644</ele>
        <time>2017-09-24T08:29:04.000Z</time>
      </trkpt>
      <trkpt lat="43.35963" lon="2.43535">
        <ele>644</ele>
        <time>2017-09-24T08:29:05.000Z</time>
      </trkpt>
      <trkpt lat="43.35963" lon="2.43535">
        <ele>644</ele>
        <time>2017-09-24T08:29:06.000Z</time>
      </trkpt>
      <trkpt lat="43.35964" lon="2.43536">
        <ele>644</ele>
        <time>2017-09-24T08:29:07.000Z</time>
      </trkpt>
      <trkpt lat="43.35965" lon="2.43536">
        <ele>644</ele>
        <time>2017-09-24T08:29:08.000Z</time>
      </trkpt>
      <trkpt lat="43.35965" lon="2.43536">
        <ele>644</ele>
        <time>2017-09-24T08:29:09.000Z</time>
      </trkpt>
      <trkpt lat="43.35966" lon="2.43536">
        <ele>644</ele>
        <time>2017-09-24T08:29:10.000Z</time>
      </trkpt>
      <trkpt lat="43.35967" lon="2.43536">
        <ele>644</ele>
        <time>2017-09-24T08:29:11.000Z</time>
      </trkpt>
      <trkpt lat="43.35967" lon="2.43537">
        <ele>645</ele>
        <time>2017-09-24T08:29:12.000Z</time>
      </trkpt>
      <trkpt lat="43.35968" lon="2.43537">
        <ele>645</ele>
        <time>2017-09-24T08:29:13.000Z</time>
      </trkpt>
      <trkpt lat="43.35969" lon="2.43537">
        <ele>645</ele>
        <time>2017-09-24T08:29:14.000Z</time>
      </trkpt>
      <trkpt lat="43.3597" lon="2.43537">
        <ele>645</ele>
        <time>2017-09-24T08:29:15.000Z</time>
      </trkpt>
      <trkpt lat="43.35971" lon="2.43538">
        <ele>645</ele>
        <time>2017-09-24T08:29:16.000Z</time>
      </trkpt>
      <trkpt lat="43.35972" lon="2.43539">
        <ele>645</ele>
        <time>2017-09-24T08:29:17.000Z</time>
      </trkpt>
      <trkpt lat="43.35973" lon="2.43539">
        <ele>646</ele>
        <time>2017-09-24T08:29:18.000Z</time>
      </trkpt>
      <trkpt lat="43.35975" lon="2.4354">
        <ele>646</ele>
        <time>2017-09-24T08:29:19.000Z</time>
      </trkpt>
      <trkpt lat="43.35976" lon="2.4354">
        <ele>646</ele>
        <time>2017-09-24T08:29:20.000Z</time>
      </trkpt>
      <trkpt lat="43.35977" lon="2.4354">
        <ele>646</ele>
        <time>2017-09-24T08:29:21.000Z</time>
      </trkpt>
      <trkpt lat="43.35978" lon="2.43541">
        <ele>646</ele>
        <time>2017-09-24T08:29:22.000Z</time>
      </trkpt>
      <trkpt lat="43.35979" lon="2.43541">
        <ele>647</ele>
        <time>2017-09-24T08:29:23.000Z</time>
      </trkpt>
      <trkpt lat="43.3598" lon="2.43541">
        <ele>647</ele>
        <time>2017-09-24T08:29:24.000Z</time>
      </trkpt>
      <trkpt lat="43.35981" lon="2.43542">
        <ele>647</ele>
        <time>2017-09-24T08:29:25.000Z</time>
      </trkpt>
      <trkpt lat="43.35982" lon="2.43542">
        <ele>647</ele>
        <time>2017-09-24T08:29:26.000Z</time>
      </trkpt>
      <trkpt lat="43.35983" lon="2.43543">
        <ele>647</ele>
        <time>2017-09-24T08:29:27.000Z</time>
      </trkpt>
      <trkpt lat="43.35984" lon="2.43543">
        <ele>647</ele>
        <time>2017-09-24T08:29:28.000Z</time>
      </trkpt>
      <trkpt lat="43.35985" lon="2.43544">
        <ele>648</ele>
        <time>2017-09-24T08:29:29.000Z</time>
      </trkpt>
      <trkpt lat="43.35986" lon="2.43544">
        <ele>648</ele>
        <time>2017-09-24T08:29:30.000Z</time>
      </trkpt>
      <trkpt lat="43.35987" lon="2.43545">
        <ele>648</ele>
        <time>2017-09-24T08:29:31.000Z</time>
      </trkpt>
      <trkpt lat="43.35988" lon="2.43545">
        <ele>648</ele>
        <time>2017-09-24T08:29:32.000Z</time>
      </trkpt>
      <trkpt lat="43.35989" lon="2.43545">
        <ele>648</ele>
        <time>2017-09-24T08:29:33.000Z</time>
      </trkpt>
      <trkpt lat="43.3599" lon="2.43545">
        <ele>649</ele>
        <time>2017-09-24T08:29:34.000Z</time>
      </trkpt>
      <trkpt lat="43.35991" lon="2.43546">
        <ele>649</ele>
        <time>2017-09-24T08:29:35.000Z</time>
      </trkpt>
      <trkpt lat="43.35992" lon="2.43546">
        <ele>649</ele>
        <time>2017-09-24T08:29:36.000Z</time>
      </trkpt>
      <trkpt lat="43.35992" lon="2.43547">
        <ele>649</ele>
        <time>2017-09-24T08:29:37.000Z</time>
      </trkpt>
      <trkpt lat="43.35993" lon="2.43547">
        <ele>649</ele>
        <time>2017-09-24T08:29:38.000Z</time>
      </trkpt>
      <trkpt lat="43.35994" lon="2.43547">
        <ele>649</ele>
        <time>2017-09-24T08:29:39.000Z</time>
      </trkpt>
      <trkpt lat="43.35995" lon="2.43548">
        <ele>650</ele>
        <time>2017-09-24T08:29:40.000Z</time>
      </trkpt>
      <trkpt lat="43.35996" lon="2.43548">
        <ele>650</ele>
        <time>2017-09-24T08:29:41.000Z</time>
      </trkpt>
      <trkpt lat="43.35997" lon="2.43548">
        <ele>650</ele>
        <time>2017-09-24T08:29:42.000Z</time>
      </trkpt>
      <trkpt lat="43.35998" lon="2.43549">
        <ele>650</ele>
        <time>2017-09-24T08:29:43.000Z</time>
      </trkpt>
      <trkpt lat="43.35998" lon="2.4355">
        <ele>650</ele>
        <time>2017-09-24T08:29:44.000Z</time>
      </trkpt>
      <trkpt lat="43.35999" lon="2.4355">
        <ele>650</ele>
        <time>2017-09-24T08:29:45.000Z</time>
      </trkpt>
      <trkpt lat="43.35999" lon="2.4355">
        <ele>650</ele>
        <time>2017-09-24T08:29:46.000Z</time>
      </trkpt>
      <trkpt lat="43.36" lon="2.4355">
        <ele>650</ele>
        <time>2017-09-24T08:29:47.000Z</time>
      </trkpt>
      <trkpt lat="43.36" lon="2.4355">
        <ele>650</ele>
        <time>2017-09-24T08:29:48.000Z</time>
      </trkpt>
      <trkpt lat="43.36004" lon="2.43552">
        <ele>651</ele>
        <time>2017-09-24T08:29:57.000Z</time>
      </trkpt>
      <trkpt lat="43.36005" lon="2.43553">
        <ele>651</ele>
        <time>2017-09-24T08:29:58.000Z</time>
      </trkpt>
      <trkpt lat="43.36005" lon="2.43553">
        <ele>651</ele>
        <time>2017-09-24T08:29:59.000Z</time>
      </trkpt>
      <trkpt lat="43.36006" lon="2.43554">
        <ele>652</ele>
        <time>2017-09-24T08:30:00.000Z</time>
      </trkpt>
      <trkpt lat="43.36007" lon="2.43554">
        <ele>652</ele>
        <time>2017-09-24T08:30:01.000Z</time>
      </trkpt>
      <trkpt lat="43.36008" lon="2.43555">
        <ele>652</ele>
        <time>2017-09-24T08:30:02.000Z</time>
      </trkpt>
      <trkpt lat="43.36009" lon="2.43555">
        <ele>652</ele>
        <time>2017-09-24T08:30:03.000Z</time>
      </trkpt>
      <trkpt lat="43.3601" lon="2.43556">
        <ele>652</ele>
        <time>2017-09-24T08:30:04.000Z</time>
      </trkpt>
      <trkpt lat="43.36011" lon="2.43556">
        <ele>652</ele>
        <time>2017-09-24T08:30:05.000Z</time>
      </trkpt>
      <trkpt lat="43.36011" lon="2.43556">
        <ele>653</ele>
        <time>2017-09-24T08:30:06.000Z</time>
      </trkpt>
      <trkpt lat="43.36012" lon="2.43557">
        <ele>653</ele>
        <time>2017-09-24T08:30:07.000Z</time>
      </trkpt>
      <trkpt lat="43.36013" lon="2.43557">
        <ele>653</ele>
        <time>2017-09-24T08:30:08.000Z</time>
      </trkpt>
      <trkpt lat="43.36014" lon="2.43558">
        <ele>653</ele>
        <time>2017-09-24T08:30:09.000Z</time>
      </trkpt>
      <trkpt lat="43.36015" lon="2.43558">
        <ele>653</ele>
        <time>2017-09-24T08:30:10.000Z</time>
      </trkpt>
      <trkpt lat="43.36016" lon="2.43559">
        <ele>653</ele>
        <time>2017-09-24T08:30:11.000Z</time>
      </trkpt>
      <trkpt lat="43.36017" lon="2.43559">
        <ele>653</ele>
        <time>2017-09-24T08:30:12.000Z</time>
      </trkpt>
      <trkpt lat="43.36017" lon="2.43559">
        <ele>653</ele>
        <time>2017-09-24T08:30:13.000Z</time>
      </trkpt>
      <trkpt lat="43.36018" lon="2.4356">
        <ele>653</ele>
        <time>2017-09-24T08:30:14.000Z</time>
      </trkpt>
      <trkpt lat="43.36019" lon="2.4356">
        <ele>654</ele>
        <time>2017-09-24T08:30:15.000Z</time>
      </trkpt>
      <trkpt lat="43.3602" lon="2.43561">
        <ele>654</ele>
        <time>2017-09-24T08:30:16.000Z</time>
      </trkpt>
      <trkpt lat="43.36021" lon="2.43561">
        <ele>654</ele>
        <time>2017-09-24T08:30:17.000Z</time>
      </trkpt>
      <trkpt lat="43.36021" lon="2.43561">
        <ele>654</ele>
        <time>2017-09-24T08:30:18.000Z</time>
      </trkpt>
      <trkpt lat="43.36022" lon="2.43562">
        <ele>654</ele>
        <time>2017-09-24T08:30:19.000Z</time>
      </trkpt>
      <trkpt lat="43.36023" lon="2.43562">
        <ele>654</ele>
        <time>2017-09-24T08:30:20.000Z</time>
      </trkpt>
      <trkpt lat="43.36024" lon="2.43563">
        <ele>654</ele>
        <time>2017-09-24T08:30:21.000Z</time>
      </trkpt>
      <trkpt lat="43.36025" lon="2.43563">
        <ele>654</ele>
        <time>2017-09-24T08:30:22.000Z</time>
      </trkpt>
      <trkpt lat="43.36025" lon="2.43563">
        <ele>654</ele>
        <time>2017-09-24T08:30:23.000Z</time>
      </trkpt>
      <trkpt lat="43.36026" lon="2.43564">
        <ele>654</ele>
        <time>2017-09-24T08:30:24.000Z</time>
      </trkpt>
      <trkpt lat="43.36027" lon="2.43565">
        <ele>654</ele>
        <time>2017-09-24T08:30:25.000Z</time>
      </trkpt>
      <trkpt lat="43.36028" lon="2.43566">
        <ele>655</ele>
        <time>2017-09-24T08:30:26.000Z</time>
      </trkpt>
      <trkpt lat="43.36029" lon="2.43566">
        <ele>655</ele>
        <time>2017-09-24T08:30:27.000Z</time>
      </trkpt>
      <trkpt lat="43.3603" lon="2.43567">
        <ele>655</ele>
        <time>2017-09-24T08:30:28.000Z</time>
      </trkpt>
      <trkpt lat="43.36031" lon="2.43567">
        <ele>655</ele>
        <time>2017-09-24T08:30:29.000Z</time>
      </trkpt>
      <trkpt lat="43.36031" lon="2.43567">
        <ele>655</ele>
        <time>2017-09-24T08:30:30.000Z</time>
      </trkpt>
      <trkpt lat="43.36032" lon="2.43568">
        <ele>655</ele>
        <time>2017-09-24T08:30:31.000Z</time>
      </trkpt>
      <trkpt lat="43.36033" lon="2.43568">
        <ele>655</ele>
        <time>2017-09-24T08:30:32.000Z</time>
      </trkpt>
      <trkpt lat="43.36034" lon="2.43569">
        <ele>655</ele>
        <time>2017-09-24T08:30:33.000Z</time>
      </trkpt>
      <trkpt lat="43.36035" lon="2.43569">
        <ele>655</ele>
        <time>2017-09-24T08:30:34.000Z</time>
      </trkpt>
      <trkpt lat="43.36036" lon="2.43569">
        <ele>655</ele>
        <time>2017-09-24T08:30:35.000Z</time>
      </trkpt>
      <trkpt lat="43.36037" lon="2.4357">
        <ele>655</ele>
        <time>2017-09-24T08:30:36.000Z</time>
      </trkpt>
      <trkpt lat="43.36038" lon="2.4357">
        <ele>656</ele>
        <time>2017-09-24T08:30:37.000Z</time>
      </trkpt>
      <trkpt lat="43.36039" lon="2.4357">
        <ele>656</ele>
        <time>2017-09-24T08:30:38.000Z</time>
      </trkpt>
      <trkpt lat="43.3604" lon="2.43571">
        <ele>656</ele>
        <time>2017-09-24T08:30:39.000Z</time>
      </trkpt>
      <trkpt lat="43.36041" lon="2.43571">
        <ele>656</ele>
        <time>2017-09-24T08:30:40.000Z</time>
      </trkpt>
      <trkpt lat="43.36042" lon="2.43571">
        <ele>656</ele>
        <time>2017-09-24T08:30:41.000Z</time>
      </trkpt>
      <trkpt lat="43.36043" lon="2.43571">
        <ele>656</ele>
        <time>2017-09-24T08:30:42.000Z</time>
      </trkpt>
      <trkpt lat="43.36044" lon="2.43571">
        <ele>656</ele>
        <time>2017-09-24T08:30:43.000Z</time>
      </trkpt>
      <trkpt lat="43.36045" lon="2.43572">
        <ele>656</ele>
        <time>2017-09-24T08:30:44.000Z</time>
      </trkpt>
      <trkpt lat="43.36046" lon="2.43572">
        <ele>656</ele>
        <time>2017-09-24T08:30:45.000Z</time>
      </trkpt>
      <trkpt lat="43.36047" lon="2.43572">
        <ele>656</ele>
        <time>2017-09-24T08:30:46.000Z</time>
      </trkpt>
      <trkpt lat="43.36048" lon="2.43572">
        <ele>656</ele>
        <time>2017-09-24T08:30:47.000Z</time>
      </trkpt>
      <trkpt lat="43.36048" lon="2.43573">
        <ele>657</ele>
        <time>2017-09-24T08:30:48.000Z</time>
      </trkpt>
      <trkpt lat="43.36049" lon="2.43572">
        <ele>657</ele>
        <time>2017-09-24T08:30:49.000Z</time>
      </trkpt>
      <trkpt lat="43.3605" lon="2.43572">
        <ele>657</ele>
        <time>2017-09-24T08:30:50.000Z</time>
      </trkpt>
      <trkpt lat="43.36051" lon="2.43572">
        <ele>657</ele>
        <time>2017-09-24T08:30:51.000Z</time>
      </trkpt>
      <trkpt lat="43.36052" lon="2.43572">
        <ele>657</ele>
        <time>2017-09-24T08:30:52.000Z</time>
      </trkpt>
      <trkpt lat="43.36053" lon="2.43572">
        <ele>657</ele>
        <time>2017-09-24T08:30:53.000Z</time>
      </trkpt>
      <trkpt lat="43.36054" lon="2.43572">
        <ele>657</ele>
        <time>2017-09-24T08:30:54.000Z</time>
      </trkpt>
      <trkpt lat="43.36055" lon="2.43572">
        <ele>657</ele>
        <time>2017-09-24T08:30:55.000Z</time>
      </trkpt>
      <trkpt lat="43.36056" lon="2.43572">
        <ele>657</ele>
        <time>2017-09-24T08:30:56.000Z</time>
      </trkpt>
      <trkpt lat="43.36056" lon="2.43571">
        <ele>657</ele>
        <time>2017-09-24T08:30:57.000Z</time>
      </trkpt>
      <trkpt lat="43.36057" lon="2.43571">
        <ele>657</ele>
        <time>2017-09-24T08:30:58.000Z</time>
      </trkpt>
      <trkpt lat="43.36058" lon="2.43571">
        <ele>657</ele>
        <time>2017-09-24T08:30:59.000Z</time>
      </trkpt>
      <trkpt lat="43.36059" lon="2.43571">
        <ele>657</ele>
        <time>2017-09-24T08:31:00.000Z</time>
      </trkpt>
      <trkpt lat="43.3606" lon="2.43571">
        <ele>657</ele>
        <time>2017-09-24T08:31:01.000Z</time>
      </trkpt>
      <trkpt lat="43.36061" lon="2.4357">
        <ele>657</ele>
        <time>2017-09-24T08:31:02.000Z</time>
      </trkpt>
      <trkpt lat="43.36062" lon="2.4357">
        <ele>658</ele>
        <time>2017-09-24T08:31:03.000Z</time>
      </trkpt>
      <trkpt lat="43.36063" lon="2.43569">
        <ele>658</ele>
        <time>2017-09-24T08:31:04.000Z</time>
      </trkpt>
      <trkpt lat="43.36064" lon="2.43568">
        <ele>658</ele>
        <time>2017-09-24T08:31:05.000Z</time>
      </trkpt>
      <trkpt lat="43.36065" lon="2.43568">
        <ele>658</ele>
        <time>2017-09-24T08:31:06.000Z</time>
      </trkpt>
      <trkpt lat="43.36066" lon="2.43567">
        <ele>658</ele>
        <time>2017-09-24T08:31:07.000Z</time>
      </trkpt>
      <trkpt lat="43.36067" lon="2.43566">
        <ele>658</ele>
        <time>2017-09-24T08:31:08.000Z</time>
      </trkpt>
      <trkpt lat="43.36068" lon="2.43566">
        <ele>658</ele>
        <time>2017-09-24T08:31:09.000Z</time>
      </trkpt>
      <trkpt lat="43.36069" lon="2.43565">
        <ele>658</ele>
        <time>2017-09-24T08:31:10.000Z</time>
      </trkpt>
      <trkpt lat="43.3607" lon="2.43565">
        <ele>658</ele>
        <time>2017-09-24T08:31:11.000Z</time>
      </trkpt>
      <trkpt lat="43.36071" lon="2.43565">
        <ele>658</ele>
        <time>2017-09-24T08:31:12.000Z</time>
      </trkpt>
      <trkpt lat="43.36072" lon="2.43564">
        <ele>658</ele>
        <time>2017-09-24T08:31:13.000Z</time>
      </trkpt>
      <trkpt lat="43.36073" lon="2.43564">
        <ele>658</ele>
        <time>2017-09-24T08:31:14.000Z</time>
      </trkpt>
      <trkpt lat="43.36074" lon="2.43563">
        <ele>658</ele>
        <time>2017-09-24T08:31:15.000Z</time>
      </trkpt>
      <trkpt lat="43.36075" lon="2.43562">
        <ele>658</ele>
        <time>2017-09-24T08:31:16.000Z</time>
      </trkpt>
      <trkpt lat="43.36076" lon="2.43561">
        <ele>658</ele>
        <time>2017-09-24T08:31:17.000Z</time>
      </trkpt>
      <trkpt lat="43.36077" lon="2.43561">
        <ele>658</ele>
        <time>2017-09-24T08:31:18.000Z</time>
      </trkpt>
      <trkpt lat="43.36078" lon="2.4356">
        <ele>659</ele>
        <time>2017-09-24T08:31:19.000Z</time>
      </trkpt>
      <trkpt lat="43.36078" lon="2.43559">
        <ele>659</ele>
        <time>2017-09-24T08:31:20.000Z</time>
      </trkpt>
      <trkpt lat="43.36079" lon="2.43558">
        <ele>659</ele>
        <time>2017-09-24T08:31:21.000Z</time>
      </trkpt>
      <trkpt lat="43.3608" lon="2.43557">
        <ele>659</ele>
        <time>2017-09-24T08:31:22.000Z</time>
      </trkpt>
      <trkpt lat="43.36081" lon="2.43556">
        <ele>659</ele>
        <time>2017-09-24T08:31:23.000Z</time>
      </trkpt>
      <trkpt lat="43.36082" lon="2.43555">
        <ele>659</ele>
        <time>2017-09-24T08:31:24.000Z</time>
      </trkpt>
      <trkpt lat="43.36082" lon="2.43555">
        <ele>659</ele>
        <time>2017-09-24T08:31:25.000Z</time>
      </trkpt>
      <trkpt lat="43.36083" lon="2.43554">
        <ele>659</ele>
        <time>2017-09-24T08:31:26.000Z</time>
      </trkpt>
      <trkpt lat="43.36085" lon="2.43554">
        <ele>659</ele>
        <time>2017-09-24T08:31:27.000Z</time>
      </trkpt>
      <trkpt lat="43.36086" lon="2.43553">
        <ele>659</ele>
        <time>2017-09-24T08:31:28.000Z</time>
      </trkpt>
      <trkpt lat="43.36087" lon="2.43553">
        <ele>659</ele>
        <time>2017-09-24T08:31:29.000Z</time>
      </trkpt>
      <trkpt lat="43.36088" lon="2.43552">
        <ele>660</ele>
        <time>2017-09-24T08:31:30.000Z</time>
      </trkpt>
      <trkpt lat="43.36089" lon="2.43551">
        <ele>660</ele>
        <time>2017-09-24T08:31:31.000Z</time>
      </trkpt>
      <trkpt lat="43.3609" lon="2.4355">
        <ele>660</ele>
        <time>2017-09-24T08:31:32.000Z</time>
      </trkpt>
      <trkpt lat="43.36091" lon="2.43549">
        <ele>660</ele>
        <time>2017-09-24T08:31:33.000Z</time>
      </trkpt>
      <trkpt lat="43.36092" lon="2.43549">
        <ele>660</ele>
        <time>2017-09-24T08:31:34.000Z</time>
      </trkpt>
      <trkpt lat="43.36093" lon="2.43548">
        <ele>660</ele>
        <time>2017-09-24T08:31:35.000Z</time>
      </trkpt>
      <trkpt lat="43.36094" lon="2.43547">
        <ele>660</ele>
        <time>2017-09-24T08:31:36.000Z</time>
      </trkpt>
      <trkpt lat="43.36095" lon="2.43546">
        <ele>660</ele>
        <time>2017-09-24T08:31:37.000Z</time>
      </trkpt>
      <trkpt lat="43.36096" lon="2.43545">
        <ele>660</ele>
        <time>2017-09-24T08:31:38.000Z</time>
      </trkpt>
      <trkpt lat="43.36096" lon="2.43545">
        <ele>660</ele>
        <time>2017-09-24T08:31:39.000Z</time>
      </trkpt>
      <trkpt lat="43.36096" lon="2.43543">
        <ele>660</ele>
        <time>2017-09-24T08:31:40.000Z</time>
      </trkpt>
      <trkpt lat="43.36097" lon="2.43542">
        <ele>660</ele>
        <time>2017-09-24T08:31:41.000Z</time>
      </trkpt>
      <trkpt lat="43.36098" lon="2.43541">
        <ele>661</ele>
        <time>2017-09-24T08:31:42.000Z</time>
      </trkpt>
      <trkpt lat="43.36098" lon="2.4354">
        <ele>661</ele>
        <time>2017-09-24T08:31:43.000Z</time>
      </trkpt>
      <trkpt lat="43.36099" lon="2.43538">
        <ele>661</ele>
        <time>2017-09-24T08:31:44.000Z</time>
      </trkpt>
      <trkpt lat="43.361" lon="2.43537">
        <ele>661</ele>
        <time>2017-09-24T08:31:45.000Z</time>
      </trkpt>
      <trkpt lat="43.36101" lon="2.43536">
        <ele>661</ele>
        <time>2017-09-24T08:31:46.000Z</time>
      </trkpt>
      <trkpt lat="43.36101" lon="2.43535">
        <ele>661</ele>
        <time>2017-09-24T08:31:47.000Z</time>
      </trkpt>
      <trkpt lat="43.36102" lon="2.43534">
        <ele>661</ele>
        <time>2017-09-24T08:31:48.000Z</time>
      </trkpt>
      <trkpt lat="43.36103" lon="2.43533">
        <ele>661</ele>
        <time>2017-09-24T08:31:49.000Z</time>
      </trkpt>
      <trkpt lat="43.36104" lon="2.43533">
        <ele>661</ele>
        <time>2017-09-24T08:31:50.000Z</time>
      </trkpt>
      <trkpt lat="43.36105" lon="2.43532">
        <ele>661</ele>
        <time>2017-09-24T08:31:51.000Z</time>
      </trkpt>
      <trkpt lat="43.36106" lon="2.43531">
        <ele>662</ele>
        <time>2017-09-24T08:31:52.000Z</time>
      </trkpt>
      <trkpt lat="43.36107" lon="2.43531">
        <ele>662</ele>
        <time>2017-09-24T08:31:53.000Z</time>
      </trkpt>
      <trkpt lat="43.36108" lon="2.4353">
        <ele>662</ele>
        <time>2017-09-24T08:31:54.000Z</time>
      </trkpt>
      <trkpt lat="43.36109" lon="2.43529">
        <ele>662</ele>
        <time>2017-09-24T08:31:55.000Z</time>
      </trkpt>
      <trkpt lat="43.3611" lon="2.43528">
        <ele>662</ele>
        <time>2017-09-24T08:31:56.000Z</time>
      </trkpt>
      <trkpt lat="43.3611" lon="2.43527">
        <ele>662</ele>
        <time>2017-09-24T08:31:57.000Z</time>
      </trkpt>
      <trkpt lat="43.3611" lon="2.43525">
        <ele>662</ele>
        <time>2017-09-24T08:31:58.000Z</time>
      </trkpt>
      <trkpt lat="43.36111" lon="2.43524">
        <ele>662</ele>
        <time>2017-09-24T08:31:59.000Z</time>
      </trkpt>
      <trkpt lat="43.36111" lon="2.43523">
        <ele>662</ele>
        <time>2017-09-24T08:32:00.000Z</time>
      </trkpt>
      <trkpt lat="43.36112" lon="2.43522">
        <ele>662</ele>
        <time>2017-09-24T08:32:01.000Z</time>
      </trkpt>
      <trkpt lat="43.36112" lon="2.43521">
        <ele>662</ele>
        <time>2017-09-24T08:32:02.000Z</time>
      </trkpt>
      <trkpt lat="43.36113" lon="2.43521">
        <ele>662</ele>
        <time>2017-09-24T08:32:03.000Z</time>
      </trkpt>
      <trkpt lat="43.36114" lon="2.4352">
        <ele>663</ele>
        <time>2017-09-24T08:32:04.000Z</time>
      </trkpt>
      <trkpt lat="43.36114" lon="2.43519">
        <ele>663</ele>
        <time>2017-09-24T08:32:05.000Z</time>
      </trkpt>
      <trkpt lat="43.36115" lon="2.43518">
        <ele>663</ele>
        <time>2017-09-24T08:32:06.000Z</time>
      </trkpt>
      <trkpt lat="43.36115" lon="2.43517">
        <ele>663</ele>
        <time>2017-09-24T08:32:07.000Z</time>
      </trkpt>
      <trkpt lat="43.36116" lon="2.43516">
        <ele>663</ele>
        <time>2017-09-24T08:32:08.000Z</time>
      </trkpt>
      <trkpt lat="43.36117" lon="2.43515">
        <ele>663</ele>
        <time>2017-09-24T08:32:09.000Z</time>
      </trkpt>
      <trkpt lat="43.36118" lon="2.43514">
        <ele>663</ele>
        <time>2017-09-24T08:32:10.000Z</time>
      </trkpt>
      <trkpt lat="43.36119" lon="2.43514">
        <ele>663</ele>
        <time>2017-09-24T08:32:11.000Z</time>
      </trkpt>
      <trkpt lat="43.3612" lon="2.43513">
        <ele>663</ele>
        <time>2017-09-24T08:32:12.000Z</time>
      </trkpt>
      <trkpt lat="43.36121" lon="2.43512">
        <ele>663</ele>
        <time>2017-09-24T08:32:13.000Z</time>
      </trkpt>
      <trkpt lat="43.36121" lon="2.43511">
        <ele>664</ele>
        <time>2017-09-24T08:32:14.000Z</time>
      </trkpt>
      <trkpt lat="43.36122" lon="2.4351">
        <ele>664</ele>
        <time>2017-09-24T08:32:15.000Z</time>
      </trkpt>
      <trkpt lat="43.36123" lon="2.4351">
        <ele>664</ele>
        <time>2017-09-24T08:32:16.000Z</time>
      </trkpt>
      <trkpt lat="43.36124" lon="2.43509">
        <ele>664</ele>
        <time>2017-09-24T08:32:17.000Z</time>
      </trkpt>
      <trkpt lat="43.36125" lon="2.43508">
        <ele>664</ele>
        <time>2017-09-24T08:32:18.000Z</time>
      </trkpt>
      <trkpt lat="43.36126" lon="2.43508">
        <ele>664</ele>
        <time>2017-09-24T08:32:19.000Z</time>
      </trkpt>
      <trkpt lat="43.36127" lon="2.43507">
        <ele>664</ele>
        <time>2017-09-24T08:32:20.000Z</time>
      </trkpt>
      <trkpt lat="43.36128" lon="2.43507">
        <ele>664</ele>
        <time>2017-09-24T08:32:21.000Z</time>
      </trkpt>
      <trkpt lat="43.36129" lon="2.43506">
        <ele>665</ele>
        <time>2017-09-24T08:32:22.000Z</time>
      </trkpt>
      <trkpt lat="43.36131" lon="2.43506">
        <ele>665</ele>
        <time>2017-09-24T08:32:23.000Z</time>
      </trkpt>
      <trkpt lat="43.36132" lon="2.43505">
        <ele>665</ele>
        <time>2017-09-24T08:32:24.000Z</time>
      </trkpt>
      <trkpt lat="43.36132" lon="2.43505">
        <ele>665</ele>
        <time>2017-09-24T08:32:25.000Z</time>
      </trkpt>
      <trkpt lat="43.36133" lon="2.43504">
        <ele>665</ele>
        <time>2017-09-24T08:32:26.000Z</time>
      </trkpt>
      <trkpt lat="43.36135" lon="2.43503">
        <ele>665</ele>
        <time>2017-09-24T08:32:27.000Z</time>
      </trkpt>
      <trkpt lat="43.36135" lon="2.43503">
        <ele>665</ele>
        <time>2017-09-24T08:32:28.000Z</time>
      </trkpt>
      <trkpt lat="43.36137" lon="2.43502">
        <ele>666</ele>
        <time>2017-09-24T08:32:29.000Z</time>
      </trkpt>
      <trkpt lat="43.36137" lon="2.435">
        <ele>666</ele>
        <time>2017-09-24T08:32:30.000Z</time>
      </trkpt>
      <trkpt lat="43.36138" lon="2.43499">
        <ele>666</ele>
        <time>2017-09-24T08:32:31.000Z</time>
      </trkpt>
      <trkpt lat="43.36138" lon="2.43498">
        <ele>666</ele>
        <time>2017-09-24T08:32:32.000Z</time>
      </trkpt>
      <trkpt lat="43.36139" lon="2.43497">
        <ele>666</ele>
        <time>2017-09-24T08:32:33.000Z</time>
      </trkpt>
      <trkpt lat="43.3614" lon="2.43496">
        <ele>666</ele>
        <time>2017-09-24T08:32:34.000Z</time>
      </trkpt>
      <trkpt lat="43.3614" lon="2.43495">
        <ele>666</ele>
        <time>2017-09-24T08:32:35.000Z</time>
      </trkpt>
      <trkpt lat="43.36141" lon="2.43495">
        <ele>666</ele>
        <time>2017-09-24T08:32:36.000Z</time>
      </trkpt>
      <trkpt lat="43.36142" lon="2.43494">
        <ele>667</ele>
        <time>2017-09-24T08:32:37.000Z</time>
      </trkpt>
      <trkpt lat="43.36143" lon="2.43492">
        <ele>667</ele>
        <time>2017-09-24T08:32:38.000Z</time>
      </trkpt>
      <trkpt lat="43.36143" lon="2.43491">
        <ele>667</ele>
        <time>2017-09-24T08:32:39.000Z</time>
      </trkpt>
      <trkpt lat="43.36145" lon="2.43491">
        <ele>667</ele>
        <time>2017-09-24T08:32:40.000Z</time>
      </trkpt>
      <trkpt lat="43.36146" lon="2.4349">
        <ele>667</ele>
        <time>2017-09-24T08:32:41.000Z</time>
      </trkpt>
      <trkpt lat="43.36146" lon="2.43488">
        <ele>667</ele>
        <time>2017-09-24T08:32:42.000Z</time>
      </trkpt>
      <trkpt lat="43.36146" lon="2.43487">
        <ele>667</ele>
        <time>2017-09-24T08:32:43.000Z</time>
      </trkpt>
      <trkpt lat="43.36147" lon="2.43486">
        <ele>668</ele>
        <time>2017-09-24T08:32:44.000Z</time>
      </trkpt>
      <trkpt lat="43.36147" lon="2.43484">
        <ele>668</ele>
        <time>2017-09-24T08:32:45.000Z</time>
      </trkpt>
      <trkpt lat="43.36148" lon="2.43483">
        <ele>668</ele>
        <time>2017-09-24T08:32:46.000Z</time>
      </trkpt>
      <trkpt lat="43.36149" lon="2.43482">
        <ele>668</ele>
        <time>2017-09-24T08:32:47.000Z</time>
      </trkpt>
      <trkpt lat="43.36149" lon="2.4348">
        <ele>668</ele>
        <time>2017-09-24T08:32:48.000Z</time>
      </trkpt>
      <trkpt lat="43.3615" lon="2.4348">
        <ele>668</ele>
        <time>2017-09-24T08:32:49.000Z</time>
      </trkpt>
      <trkpt lat="43.36151" lon="2.43479">
        <ele>668</ele>
        <time>2017-09-24T08:32:50.000Z</time>
      </trkpt>
      <trkpt lat="43.36152" lon="2.43479">
        <ele>669</ele>
        <time>2017-09-24T08:32:51.000Z</time>
      </trkpt>
      <trkpt lat="43.36153" lon="2.43478">
        <ele>669</ele>
        <time>2017-09-24T08:32:52.000Z</time>
      </trkpt>
      <trkpt lat="43.36154" lon="2.43478">
        <ele>669</ele>
        <time>2017-09-24T08:32:53.000Z</time>
      </trkpt>
      <trkpt lat="43.36155" lon="2.43477">
        <ele>669</ele>
        <time>2017-09-24T08:32:54.000Z</time>
      </trkpt>
      <trkpt lat="43.36156" lon="2.43477">
        <ele>669</ele>
        <time>2017-09-24T08:32:55.000Z</time>
      </trkpt>
      <trkpt lat="43.36156" lon="2.43476">
        <ele>669</ele>
        <time>2017-09-24T08:32:56.000Z</time>
      </trkpt>
      <trkpt lat="43.36157" lon="2.43476">
        <ele>669</ele>
        <time>2017-09-24T08:32:57.000Z</time>
      </trkpt>
      <trkpt lat="43.36158" lon="2.43475">
        <ele>669</ele>
        <time>2017-09-24T08:32:58.000Z</time>
      </trkpt>
      <trkpt lat="43.36158" lon="2.43474">
        <ele>669</ele>
        <time>2017-09-24T08:32:59.000Z</time>
      </trkpt>
      <trkpt lat="43.36159" lon="2.43473">
        <ele>670</ele>
        <time>2017-09-24T08:33:00.000Z</time>
      </trkpt>
      <trkpt lat="43.3616" lon="2.43472">
        <ele>670</ele>
        <time>2017-09-24T08:33:01.000Z</time>
      </trkpt>
      <trkpt lat="43.36161" lon="2.43471">
        <ele>670</ele>
        <time>2017-09-24T08:33:02.000Z</time>
      </trkpt>
      <trkpt lat="43.36162" lon="2.43471">
        <ele>670</ele>
        <time>2017-09-24T08:33:03.000Z</time>
      </trkpt>
      <trkpt lat="43.36162" lon="2.4347">
        <ele>670</ele>
        <time>2017-09-24T08:33:04.000Z</time>
      </trkpt>
      <trkpt lat="43.36163" lon="2.43469">
        <ele>670</ele>
        <time>2017-09-24T08:33:05.000Z</time>
      </trkpt>
      <trkpt lat="43.36164" lon="2.43468">
        <ele>670</ele>
        <time>2017-09-24T08:33:06.000Z</time>
      </trkpt>
      <trkpt lat="43.36165" lon="2.43467">
        <ele>670</ele>
        <time>2017-09-24T08:33:07.000Z</time>
      </trkpt>
      <trkpt lat="43.36165" lon="2.43466">
        <ele>670</ele>
        <time>2017-09-24T08:33:08.000Z</time>
      </trkpt>
      <trkpt lat="43.36165" lon="2.43465">
        <ele>670</ele>
        <time>2017-09-24T08:33:09.000Z</time>
      </trkpt>
      <trkpt lat="43.36166" lon="2.43463">
        <ele>670</ele>
        <time>2017-09-24T08:33:10.000Z</time>
      </trkpt>
      <trkpt lat="43.36166" lon="2.43462">
        <ele>670</ele>
        <time>2017-09-24T08:33:11.000Z</time>
      </trkpt>
      <trkpt lat="43.36167" lon="2.4346">
        <ele>670</ele>
        <time>2017-09-24T08:33:12.000Z</time>
      </trkpt>
      <trkpt lat="43.36167" lon="2.43459">
        <ele>670</ele>
        <time>2017-09-24T08:33:13.000Z</time>
      </trkpt>
      <trkpt lat="43.36168" lon="2.43458">
        <ele>670</ele>
        <time>2017-09-24T08:33:14.000Z</time>
      </trkpt>
      <trkpt lat="43.36169" lon="2.43457">
        <ele>670</ele>
        <time>2017-09-24T08:33:15.000Z</time>
      </trkpt>
      <trkpt lat="43.3617" lon="2.43456">
        <ele>670</ele>
        <time>2017-09-24T08:33:16.000Z</time>
      </trkpt>
      <trkpt lat="43.3617" lon="2.43455">
        <ele>670</ele>
        <time>2017-09-24T08:33:17.000Z</time>
      </trkpt>
      <trkpt lat="43.36171" lon="2.43454">
        <ele>670</ele>
        <time>2017-09-24T08:33:18.000Z</time>
      </trkpt>
      <trkpt lat="43.36171" lon="2.43453">
        <ele>670</ele>
        <time>2017-09-24T08:33:19.000Z</time>
      </trkpt>
      <trkpt lat="43.36171" lon="2.43451">
        <ele>670</ele>
        <time>2017-09-24T08:33:20.000Z</time>
      </trkpt>
      <trkpt lat="43.36171" lon="2.4345">
        <ele>670</ele>
        <time>2017-09-24T08:33:21.000Z</time>
      </trkpt>
      <trkpt lat="43.36172" lon="2.43449">
        <ele>670</ele>
        <time>2017-09-24T08:33:22.000Z</time>
      </trkpt>
      <trkpt lat="43.36172" lon="2.43447">
        <ele>670</ele>
        <time>2017-09-24T08:33:23.000Z</time>
      </trkpt>
      <trkpt lat="43.36173" lon="2.43447">
        <ele>670</ele>
        <time>2017-09-24T08:33:24.000Z</time>
      </trkpt>
      <trkpt lat="43.36174" lon="2.43446">
        <ele>670</ele>
        <time>2017-09-24T08:33:25.000Z</time>
      </trkpt>
      <trkpt lat="43.36174" lon="2.43445">
        <ele>670</ele>
        <time>2017-09-24T08:33:26.000Z</time>
      </trkpt>
      <trkpt lat="43.36175" lon="2.43444">
        <ele>670</ele>
        <time>2017-09-24T08:33:27.000Z</time>
      </trkpt>
      <trkpt lat="43.36176" lon="2.43444">
        <ele>670</ele>
        <time>2017-09-24T08:33:28.000Z</time>
      </trkpt>
      <trkpt lat="43.36177" lon="2.43443">
        <ele>670</ele>
        <time>2017-09-24T08:33:29.000Z</time>
      </trkpt>
      <trkpt lat="43.36178" lon="2.43442">
        <ele>670</ele>
        <time>2017-09-24T08:33:30.000Z</time>
      </trkpt>
      <trkpt lat="43.36178" lon="2.43442">
        <ele>670</ele>
        <time>2017-09-24T08:33:31.000Z</time>
      </trkpt>
      <trkpt lat="43.36179" lon="2.43441">
        <ele>670</ele>
        <time>2017-09-24T08:33:32.000Z</time>
      </trkpt>
      <trkpt lat="43.3618" lon="2.4344">
        <ele>670</ele>
        <time>2017-09-24T08:33:33.000Z</time>
      </trkpt>
      <trkpt lat="43.36181" lon="2.43439">
        <ele>671</ele>
        <time>2017-09-24T08:33:34.000Z</time>
      </trkpt>
      <trkpt lat="43.36182" lon="2.43438">
        <ele>671</ele>
        <time>2017-09-24T08:33:35.000Z</time>
      </trkpt>
      <trkpt lat="43.36183" lon="2.43437">
        <ele>671</ele>
        <time>2017-09-24T08:33:36.000Z</time>
      </trkpt>
      <trkpt lat="43.36184" lon="2.43437">
        <ele>671</ele>
        <time>2017-09-24T08:33:37.000Z</time>
      </trkpt>
      <trkpt lat="43.36185" lon="2.43436">
        <ele>671</ele>
        <time>2017-09-24T08:33:38.000Z</time>
      </trkpt>
      <trkpt lat="43.36186" lon="2.43435">
        <ele>671</ele>
        <time>2017-09-24T08:33:39.000Z</time>
      </trkpt>
      <trkpt lat="43.36186" lon="2.43435">
        <ele>671</ele>
        <time>2017-09-24T08:33:40.000Z</time>
      </trkpt>
      <trkpt lat="43.36187" lon="2.43434">
        <ele>672</ele>
        <time>2017-09-24T08:33:41.000Z</time>
      </trkpt>
      <trkpt lat="43.36187" lon="2.43434">
        <ele>672</ele>
        <time>2017-09-24T08:33:42.000Z</time>
      </trkpt>
      <trkpt lat="43.36188" lon="2.43433">
        <ele>672</ele>
        <time>2017-09-24T08:33:43.000Z</time>
      </trkpt>
      <trkpt lat="43.36189" lon="2.43433">
        <ele>672</ele>
        <time>2017-09-24T08:33:44.000Z</time>
      </trkpt>
      <trkpt lat="43.36189" lon="2.43432">
        <ele>672</ele>
        <time>2017-09-24T08:33:45.000Z</time>
      </trkpt>
      <trkpt lat="43.36189" lon="2.43431">
        <ele>672</ele>
        <time>2017-09-24T08:33:46.000Z</time>
      </trkpt>
      <trkpt lat="43.3619" lon="2.4343">
        <ele>672</ele>
        <time>2017-09-24T08:33:47.000Z</time>
      </trkpt>
      <trkpt lat="43.36191" lon="2.4343">
        <ele>672</ele>
        <time>2017-09-24T08:33:48.000Z</time>
      </trkpt>
      <trkpt lat="43.36192" lon="2.43429">
        <ele>672</ele>
        <time>2017-09-24T08:33:49.000Z</time>
      </trkpt>
      <trkpt lat="43.36192" lon="2.43427">
        <ele>672</ele>
        <time>2017-09-24T08:33:50.000Z</time>
      </trkpt>
      <trkpt lat="43.36193" lon="2.43427">
        <ele>673</ele>
        <time>2017-09-24T08:33:51.000Z</time>
      </trkpt>
      <trkpt lat="43.36194" lon="2.43427">
        <ele>673</ele>
        <time>2017-09-24T08:33:52.000Z</time>
      </trkpt>
      <trkpt lat="43.36194" lon="2.43425">
        <ele>673</ele>
        <time>2017-09-24T08:33:53.000Z</time>
      </trkpt>
      <trkpt lat="43.36195" lon="2.43425">
        <ele>673</ele>
        <time>2017-09-24T08:33:54.000Z</time>
      </trkpt>
      <trkpt lat="43.36195" lon="2.43424">
        <ele>673</ele>
        <time>2017-09-24T08:33:55.000Z</time>
      </trkpt>
      <trkpt lat="43.36196" lon="2.43424">
        <ele>673</ele>
        <time>2017-09-24T08:33:56.000Z</time>
      </trkpt>
      <trkpt lat="43.36197" lon="2.43424">
        <ele>673</ele>
        <time>2017-09-24T08:33:57.000Z</time>
      </trkpt>
      <trkpt lat="43.36198" lon="2.43424">
        <ele>673</ele>
        <time>2017-09-24T08:33:58.000Z</time>
      </trkpt>
      <trkpt lat="43.36199" lon="2.43424">
        <ele>673</ele>
        <time>2017-09-24T08:33:59.000Z</time>
      </trkpt>
      <trkpt lat="43.36199" lon="2.43424">
        <ele>673</ele>
        <time>2017-09-24T08:34:00.000Z</time>
      </trkpt>
      <trkpt lat="43.362" lon="2.43424">
        <ele>673</ele>
        <time>2017-09-24T08:34:01.000Z</time>
      </trkpt>
      <trkpt lat="43.36201" lon="2.43424">
        <ele>674</ele>
        <time>2017-09-24T08:34:02.000Z</time>
      </trkpt>
      <trkpt lat="43.36202" lon="2.43423">
        <ele>674</ele>
        <time>2017-09-24T08:34:03.000Z</time>
      </trkpt>
      <trkpt lat="43.36203" lon="2.43423">
        <ele>674</ele>
        <time>2017-09-24T08:34:04.000Z</time>
      </trkpt>
      <trkpt lat="43.36203" lon="2.43423">
        <ele>674</ele>
        <time>2017-09-24T08:34:05.000Z</time>
      </trkpt>
      <trkpt lat="43.36204" lon="2.43422">
        <ele>674</ele>
        <time>2017-09-24T08:34:06.000Z</time>
      </trkpt>
      <trkpt lat="43.36205" lon="2.43422">
        <ele>674</ele>
        <time>2017-09-24T08:34:07.000Z</time>
      </trkpt>
      <trkpt lat="43.36205" lon="2.43422">
        <ele>674</ele>
        <time>2017-09-24T08:34:08.000Z</time>
      </trkpt>
      <trkpt lat="43.36206" lon="2.43421">
        <ele>674</ele>
        <time>2017-09-24T08:34:09.000Z</time>
      </trkpt>
      <trkpt lat="43.36206" lon="2.43421">
        <ele>674</ele>
        <time>2017-09-24T08:34:10.000Z</time>
      </trkpt>
      <trkpt lat="43.36206" lon="2.43421">
        <ele>674</ele>
        <time>2017-09-24T08:34:11.000Z</time>
      </trkpt>
      <trkpt lat="43.36207" lon="2.43421">
        <ele>674</ele>
        <time>2017-09-24T08:34:12.000Z</time>
      </trkpt>
      <trkpt lat="43.36207" lon="2.43421">
        <ele>674</ele>
        <time>2017-09-24T08:34:13.000Z</time>
      </trkpt>
      <trkpt lat="43.36208" lon="2.43421">
        <ele>675</ele>
        <time>2017-09-24T08:34:14.000Z</time>
      </trkpt>
      <trkpt lat="43.36209" lon="2.43421">
        <ele>675</ele>
        <time>2017-09-24T08:34:15.000Z</time>
      </trkpt>
      <trkpt lat="43.36209" lon="2.43422">
        <ele>675</ele>
        <time>2017-09-24T08:34:16.000Z</time>
      </trkpt>
      <trkpt lat="43.3621" lon="2.43423">
        <ele>675</ele>
        <time>2017-09-24T08:34:17.000Z</time>
      </trkpt>
      <trkpt lat="43.36211" lon="2.43423">
        <ele>675</ele>
        <time>2017-09-24T08:34:18.000Z</time>
      </trkpt>
      <trkpt lat="43.36211" lon="2.43424">
        <ele>675</ele>
        <time>2017-09-24T08:34:19.000Z</time>
      </trkpt>
      <trkpt lat="43.36212" lon="2.43425">
        <ele>675</ele>
        <time>2017-09-24T08:34:20.000Z</time>
      </trkpt>
      <trkpt lat="43.36212" lon="2.43425">
        <ele>675</ele>
        <time>2017-09-24T08:34:21.000Z</time>
      </trkpt>
      <trkpt lat="43.36211" lon="2.4343">
        <ele>676</ele>
        <time>2017-09-24T08:34:28.000Z</time>
      </trkpt>
      <trkpt lat="43.3621" lon="2.43432">
        <ele>676</ele>
        <time>2017-09-24T08:34:29.000Z</time>
      </trkpt>
      <trkpt lat="43.3621" lon="2.43432">
        <ele>676</ele>
        <time>2017-09-24T08:34:30.000Z</time>
      </trkpt>
      <trkpt lat="43.3621" lon="2.43433">
        <ele>676</ele>
        <time>2017-09-24T08:34:31.000Z</time>
      </trkpt>
      <trkpt lat="43.3621" lon="2.43435">
        <ele>676</ele>
        <time>2017-09-24T08:34:32.000Z</time>
      </trkpt>
      <trkpt lat="43.3621" lon="2.43436">
        <ele>676</ele>
        <time>2017-09-24T08:34:33.000Z</time>
      </trkpt>
      <trkpt lat="43.3621" lon="2.43437">
        <ele>676</ele>
        <time>2017-09-24T08:34:34.000Z</time>
      </trkpt>
      <trkpt lat="43.3621" lon="2.43438">
        <ele>676</ele>
        <time>2017-09-24T08:34:35.000Z</time>
      </trkpt>
      <trkpt lat="43.3621" lon="2.43439">
        <ele>676</ele>
        <time>2017-09-24T08:34:36.000Z</time>
      </trkpt>
      <trkpt lat="43.3621" lon="2.4344">
        <ele>676</ele>
        <time>2017-09-24T08:34:37.000Z</time>
      </trkpt>
      <trkpt lat="43.3621" lon="2.43441">
        <ele>676</ele>
        <time>2017-09-24T08:34:38.000Z</time>
      </trkpt>
      <trkpt lat="43.3621" lon="2.43442">
        <ele>676</ele>
        <time>2017-09-24T08:34:39.000Z</time>
      </trkpt>
      <trkpt lat="43.3621" lon="2.43443">
        <ele>676</ele>
        <time>2017-09-24T08:34:40.000Z</time>
      </trkpt>
      <trkpt lat="43.36209" lon="2.43444">
        <ele>676</ele>
        <time>2017-09-24T08:34:41.000Z</time>
      </trkpt>
      <trkpt lat="43.36209" lon="2.43445">
        <ele>676</ele>
        <time>2017-09-24T08:34:42.000Z</time>
      </trkpt>
      <trkpt lat="43.36209" lon="2.43446">
        <ele>676</ele>
        <time>2017-09-24T08:34:43.000Z</time>
      </trkpt>
      <trkpt lat="43.36209" lon="2.43447">
        <ele>676</ele>
        <time>2017-09-24T08:34:44.000Z</time>
      </trkpt>
      <trkpt lat="43.36209" lon="2.43448">
        <ele>676</ele>
        <time>2017-09-24T08:34:45.000Z</time>
      </trkpt>
      <trkpt lat="43.3621" lon="2.4345">
        <ele>676</ele>
        <time>2017-09-24T08:34:46.000Z</time>
      </trkpt>
      <trkpt lat="43.3621" lon="2.43451">
        <ele>676</ele>
        <time>2017-09-24T08:34:47.000Z</time>
      </trkpt>
      <trkpt lat="43.36209" lon="2.43453">
        <ele>676</ele>
        <time>2017-09-24T08:34:48.000Z</time>
      </trkpt>
      <trkpt lat="43.36209" lon="2.43454">
        <ele>676</ele>
        <time>2017-09-24T08:34:49.000Z</time>
      </trkpt>
      <trkpt lat="43.36209" lon="2.43454">
        <ele>676</ele>
        <time>2017-09-24T08:34:50.000Z</time>
      </trkpt>
      <trkpt lat="43.36209" lon="2.43455">
        <ele>676</ele>
        <time>2017-09-24T08:34:51.000Z</time>
      </trkpt>
      <trkpt lat="43.36209" lon="2.43456">
        <ele>676</ele>
        <time>2017-09-24T08:34:52.000Z</time>
      </trkpt>
      <trkpt lat="43.36209" lon="2.43457">
        <ele>676</ele>
        <time>2017-09-24T08:34:53.000Z</time>
      </trkpt>
      <trkpt lat="43.36209" lon="2.43459">
        <ele>676</ele>
        <time>2017-09-24T08:34:54.000Z</time>
      </trkpt>
      <trkpt lat="43.3621" lon="2.4346">
        <ele>677</ele>
        <time>2017-09-24T08:34:55.000Z</time>
      </trkpt>
      <trkpt lat="43.3621" lon="2.4346">
        <ele>677</ele>
        <time>2017-09-24T08:34:56.000Z</time>
      </trkpt>
      <trkpt lat="43.3621" lon="2.43462">
        <ele>677</ele>
        <time>2017-09-24T08:34:57.000Z</time>
      </trkpt>
      <trkpt lat="43.36211" lon="2.43463">
        <ele>677</ele>
        <time>2017-09-24T08:34:58.000Z</time>
      </trkpt>
      <trkpt lat="43.3621" lon="2.43464">
        <ele>677</ele>
        <time>2017-09-24T08:34:59.000Z</time>
      </trkpt>
      <trkpt lat="43.36211" lon="2.43465">
        <ele>677</ele>
        <time>2017-09-24T08:35:00.000Z</time>
      </trkpt>
      <trkpt lat="43.3621" lon="2.43467">
        <ele>677</ele>
        <time>2017-09-24T08:35:01.000Z</time>
      </trkpt>
      <trkpt lat="43.3621" lon="2.43467">
        <ele>677</ele>
        <time>2017-09-24T08:35:02.000Z</time>
      </trkpt>
      <trkpt lat="43.3621" lon="2.43469">
        <ele>677</ele>
        <time>2017-09-24T08:35:03.000Z</time>
      </trkpt>
      <trkpt lat="43.3621" lon="2.4347">
        <ele>677</ele>
        <time>2017-09-24T08:35:04.000Z</time>
      </trkpt>
      <trkpt lat="43.3621" lon="2.43471">
        <ele>677</ele>
        <time>2017-09-24T08:35:05.000Z</time>
      </trkpt>
      <trkpt lat="43.3621" lon="2.43472">
        <ele>677</ele>
        <time>2017-09-24T08:35:06.000Z</time>
      </trkpt>
      <trkpt lat="43.3621" lon="2.43474">
        <ele>677</ele>
        <time>2017-09-24T08:35:07.000Z</time>
      </trkpt>
      <trkpt lat="43.3621" lon="2.43475">
        <ele>677</ele>
        <time>2017-09-24T08:35:08.000Z</time>
      </trkpt>
      <trkpt lat="43.3621" lon="2.43477">
        <ele>677</ele>
        <time>2017-09-24T08:35:09.000Z</time>
      </trkpt>
      <trkpt lat="43.3621" lon="2.43478">
        <ele>677</ele>
        <time>2017-09-24T08:35:10.000Z</time>
      </trkpt>
      <trkpt lat="43.3621" lon="2.43479">
        <ele>677</ele>
        <time>2017-09-24T08:35:11.000Z</time>
      </trkpt>
      <trkpt lat="43.36209" lon="2.4348">
        <ele>677</ele>
        <time>2017-09-24T08:35:12.000Z</time>
      </trkpt>
      <trkpt lat="43.36209" lon="2.43481">
        <ele>677</ele>
        <time>2017-09-24T08:35:13.000Z</time>
      </trkpt>
      <trkpt lat="43.36209" lon="2.43482">
        <ele>677</ele>
        <time>2017-09-24T08:35:14.000Z</time>
      </trkpt>
      <trkpt lat="43.36209" lon="2.43484">
        <ele>677</ele>
        <time>2017-09-24T08:35:15.000Z</time>
      </trkpt>
      <trkpt lat="43.36209" lon="2.43485">
        <ele>677</ele>
        <time>2017-09-24T08:35:16.000Z</time>
      </trkpt>
      <trkpt lat="43.36209" lon="2.43486">
        <ele>677</ele>
        <time>2017-09-24T08:35:17.000Z</time>
      </trkpt>
      <trkpt lat="43.36209" lon="2.43488">
        <ele>677</ele>
        <time>2017-09-24T08:35:18.000Z</time>
      </trkpt>
      <trkpt lat="43.36209" lon="2.43489">
        <ele>677</ele>
        <time>2017-09-24T08:35:19.000Z</time>
      </trkpt>
      <trkpt lat="43.36208" lon="2.43491">
        <ele>677</ele>
        <time>2017-09-24T08:35:20.000Z</time>
      </trkpt>
      <trkpt lat="43.36208" lon="2.43492">
        <ele>677</ele>
        <time>2017-09-24T08:35:21.000Z</time>
      </trkpt>
      <trkpt lat="43.36208" lon="2.43493">
        <ele>677</ele>
        <time>2017-09-24T08:35:22.000Z</time>
      </trkpt>
      <trkpt lat="43.36208" lon="2.43494">
        <ele>677</ele>
        <time>2017-09-24T08:35:23.000Z</time>
      </trkpt>
      <trkpt lat="43.36208" lon="2.43496">
        <ele>677</ele>
        <time>2017-09-24T08:35:24.000Z</time>
      </trkpt>
      <trkpt lat="43.36208" lon="2.43497">
        <ele>677</ele>
        <time>2017-09-24T08:35:25.000Z</time>
      </trkpt>
      <trkpt lat="43.36208" lon="2.43498">
        <ele>677</ele>
        <time>2017-09-24T08:35:26.000Z</time>
      </trkpt>
      <trkpt lat="43.36208" lon="2.43499">
        <ele>677</ele>
        <time>2017-09-24T08:35:27.000Z</time>
      </trkpt>
      <trkpt lat="43.36207" lon="2.435">
        <ele>677</ele>
        <time>2017-09-24T08:35:28.000Z</time>
      </trkpt>
      <trkpt lat="43.36207" lon="2.43501">
        <ele>677</ele>
        <time>2017-09-24T08:35:29.000Z</time>
      </trkpt>
      <trkpt lat="43.36207" lon="2.43503">
        <ele>677</ele>
        <time>2017-09-24T08:35:30.000Z</time>
      </trkpt>
      <trkpt lat="43.36207" lon="2.43504">
        <ele>677</ele>
        <time>2017-09-24T08:35:31.000Z</time>
      </trkpt>
      <trkpt lat="43.36207" lon="2.43505">
        <ele>677</ele>
        <time>2017-09-24T08:35:32.000Z</time>
      </trkpt>
      <trkpt lat="43.36207" lon="2.43506">
        <ele>677</ele>
        <time>2017-09-24T08:35:33.000Z</time>
      </trkpt>
      <trkpt lat="43.36207" lon="2.43508">
        <ele>677</ele>
        <time>2017-09-24T08:35:34.000Z</time>
      </trkpt>
      <trkpt lat="43.36207" lon="2.43509">
        <ele>677</ele>
        <time>2017-09-24T08:35:35.000Z</time>
      </trkpt>
      <trkpt lat="43.36207" lon="2.43511">
        <ele>677</ele>
        <time>2017-09-24T08:35:36.000Z</time>
      </trkpt>
      <trkpt lat="43.36207" lon="2.43512">
        <ele>677</ele>
        <time>2017-09-24T08:35:37.000Z</time>
      </trkpt>
      <trkpt lat="43.36207" lon="2.43513">
        <ele>677</ele>
        <time>2017-09-24T08:35:38.000Z</time>
      </trkpt>
      <trkpt lat="43.36207" lon="2.43515">
        <ele>677</ele>
        <time>2017-09-24T08:35:39.000Z</time>
      </trkpt>
      <trkpt lat="43.36207" lon="2.43516">
        <ele>677</ele>
        <time>2017-09-24T08:35:40.000Z</time>
      </trkpt>
      <trkpt lat="43.36207" lon="2.43517">
        <ele>677</ele>
        <time>2017-09-24T08:35:41.000Z</time>
      </trkpt>
      <trkpt lat="43.36207" lon="2.43519">
        <ele>677</ele>
        <time>2017-09-24T08:35:42.000Z</time>
      </trkpt>
      <trkpt lat="43.36207" lon="2.4352">
        <ele>677</ele>
        <time>2017-09-24T08:35:43.000Z</time>
      </trkpt>
      <trkpt lat="43.36208" lon="2.43521">
        <ele>677</ele>
        <time>2017-09-24T08:35:44.000Z</time>
      </trkpt>
      <trkpt lat="43.36208" lon="2.43523">
        <ele>677</ele>
        <time>2017-09-24T08:35:45.000Z</time>
      </trkpt>
      <trkpt lat="43.36208" lon="2.43524">
        <ele>677</ele>
        <time>2017-09-24T08:35:46.000Z</time>
      </trkpt>
      <trkpt lat="43.36208" lon="2.43526">
        <ele>677</ele>
        <time>2017-09-24T08:35:47.000Z</time>
      </trkpt>
      <trkpt lat="43.36208" lon="2.43526">
        <ele>677</ele>
        <time>2017-09-24T08:35:48.000Z</time>
      </trkpt>
      <trkpt lat="43.36207" lon="2.43528">
        <ele>677</ele>
        <time>2017-09-24T08:35:49.000Z</time>
      </trkpt>
      <trkpt lat="43.36207" lon="2.43529">
        <ele>677</ele>
        <time>2017-09-24T08:35:50.000Z</time>
      </trkpt>
      <trkpt lat="43.36208" lon="2.4353">
        <ele>677</ele>
        <time>2017-09-24T08:35:51.000Z</time>
      </trkpt>
      <trkpt lat="43.36208" lon="2.43532">
        <ele>677</ele>
        <time>2017-09-24T08:35:52.000Z</time>
      </trkpt>
      <trkpt lat="43.36208" lon="2.43533">
        <ele>677</ele>
        <time>2017-09-24T08:35:53.000Z</time>
      </trkpt>
      <trkpt lat="43.36208" lon="2.43535">
        <ele>677</ele>
        <time>2017-09-24T08:35:54.000Z</time>
      </trkpt>
      <trkpt lat="43.36208" lon="2.43536">
        <ele>677</ele>
        <time>2017-09-24T08:35:55.000Z</time>
      </trkpt>
      <trkpt lat="43.36207" lon="2.43538">
        <ele>677</ele>
        <time>2017-09-24T08:35:56.000Z</time>
      </trkpt>
      <trkpt lat="43.36208" lon="2.43539">
        <ele>677</ele>
        <time>2017-09-24T08:35:57.000Z</time>
      </trkpt>
      <trkpt lat="43.36208" lon="2.4354">
        <ele>677</ele>
        <time>2017-09-24T08:35:58.000Z</time>
      </trkpt>
      <trkpt lat="43.36208" lon="2.43542">
        <ele>677</ele>
        <time>2017-09-24T08:35:59.000Z</time>
      </trkpt>
      <trkpt lat="43.36208" lon="2.43543">
        <ele>677</ele>
        <time>2017-09-24T08:36:00.000Z</time>
      </trkpt>
      <trkpt lat="43.36208" lon="2.43545">
        <ele>677</ele>
        <time>2017-09-24T08:36:01.000Z</time>
      </trkpt>
      <trkpt lat="43.36208" lon="2.43546">
        <ele>677</ele>
        <time>2017-09-24T08:36:02.000Z</time>
      </trkpt>
      <trkpt lat="43.36209" lon="2.43548">
        <ele>678</ele>
        <time>2017-09-24T08:36:03.000Z</time>
      </trkpt>
      <trkpt lat="43.36209" lon="2.43549">
        <ele>678</ele>
        <time>2017-09-24T08:36:04.000Z</time>
      </trkpt>
      <trkpt lat="43.36209" lon="2.43551">
        <ele>678</ele>
        <time>2017-09-24T08:36:05.000Z</time>
      </trkpt>
      <trkpt lat="43.36209" lon="2.43552">
        <ele>678</ele>
        <time>2017-09-24T08:36:06.000Z</time>
      </trkpt>
      <trkpt lat="43.36208" lon="2.43554">
        <ele>678</ele>
        <time>2017-09-24T08:36:07.000Z</time>
      </trkpt>
      <trkpt lat="43.36208" lon="2.43555">
        <ele>678</ele>
        <time>2017-09-24T08:36:08.000Z</time>
      </trkpt>
      <trkpt lat="43.36209" lon="2.43556">
        <ele>678</ele>
        <time>2017-09-24T08:36:09.000Z</time>
      </trkpt>
      <trkpt lat="43.36209" lon="2.43558">
        <ele>678</ele>
        <time>2017-09-24T08:36:10.000Z</time>
      </trkpt>
      <trkpt lat="43.36209" lon="2.43559">
        <ele>678</ele>
        <time>2017-09-24T08:36:11.000Z</time>
      </trkpt>
      <trkpt lat="43.36209" lon="2.4356">
        <ele>678</ele>
        <time>2017-09-24T08:36:12.000Z</time>
      </trkpt>
      <trkpt lat="43.3621" lon="2.43562">
        <ele>678</ele>
        <time>2017-09-24T08:36:13.000Z</time>
      </trkpt>
      <trkpt lat="43.3621" lon="2.43563">
        <ele>678</ele>
        <time>2017-09-24T08:36:14.000Z</time>
      </trkpt>
      <trkpt lat="43.3621" lon="2.43564">
        <ele>678</ele>
        <time>2017-09-24T08:36:15.000Z</time>
      </trkpt>
      <trkpt lat="43.3621" lon="2.43565">
        <ele>678</ele>
        <time>2017-09-24T08:36:16.000Z</time>
      </trkpt>
      <trkpt lat="43.36211" lon="2.43567">
        <ele>678</ele>
        <time>2017-09-24T08:36:17.000Z</time>
      </trkpt>
      <trkpt lat="43.36211" lon="2.43568">
        <ele>678</ele>
        <time>2017-09-24T08:36:18.000Z</time>
      </trkpt>
      <trkpt lat="43.36211" lon="2.43569">
        <ele>678</ele>
        <time>2017-09-24T08:36:19.000Z</time>
      </trkpt>
      <trkpt lat="43.36211" lon="2.43571">
        <ele>678</ele>
        <time>2017-09-24T08:36:20.000Z</time>
      </trkpt>
      <trkpt lat="43.36211" lon="2.43572">
        <ele>678</ele>
        <time>2017-09-24T08:36:21.000Z</time>
      </trkpt>
      <trkpt lat="43.36211" lon="2.43573">
        <ele>678</ele>
        <time>2017-09-24T08:36:22.000Z</time>
      </trkpt>
      <trkpt lat="43.36212" lon="2.43574">
        <ele>678</ele>
        <time>2017-09-24T08:36:23.000Z</time>
      </trkpt>
      <trkpt lat="43.36212" lon="2.43575">
        <ele>678</ele>
        <time>2017-09-24T08:36:24.000Z</time>
      </trkpt>
      <trkpt lat="43.36212" lon="2.43576">
        <ele>679</ele>
        <time>2017-09-24T08:36:25.000Z</time>
      </trkpt>
      <trkpt lat="43.36212" lon="2.43578">
        <ele>679</ele>
        <time>2017-09-24T08:36:26.000Z</time>
      </trkpt>
      <trkpt lat="43.36212" lon="2.43579">
        <ele>679</ele>
        <time>2017-09-24T08:36:27.000Z</time>
      </trkpt>
      <trkpt lat="43.36213" lon="2.4358">
        <ele>679</ele>
        <time>2017-09-24T08:36:28.000Z</time>
      </trkpt>
      <trkpt lat="43.36213" lon="2.43581">
        <ele>679</ele>
        <time>2017-09-24T08:36:29.000Z</time>
      </trkpt>
      <trkpt lat="43.36213" lon="2.43583">
        <ele>679</ele>
        <time>2017-09-24T08:36:30.000Z</time>
      </trkpt>
      <trkpt lat="43.36213" lon="2.43584">
        <ele>679</ele>
        <time>2017-09-24T08:36:31.000Z</time>
      </trkpt>
      <trkpt lat="43.36214" lon="2.43585">
        <ele>679</ele>
        <time>2017-09-24T08:36:32.000Z</time>
      </trkpt>
      <trkpt lat="43.36214" lon="2.43586">
        <ele>679</ele>
        <time>2017-09-24T08:36:33.000Z</time>
      </trkpt>
      <trkpt lat="43.36214" lon="2.43587">
        <ele>679</ele>
        <time>2017-09-24T08:36:34.000Z</time>
      </trkpt>
      <trkpt lat="43.36215" lon="2.43588">
        <ele>679</ele>
        <time>2017-09-24T08:36:35.000Z</time>
      </trkpt>
      <trkpt lat="43.36215" lon="2.4359">
        <ele>678</ele>
        <time>2017-09-24T08:36:36.000Z</time>
      </trkpt>
      <trkpt lat="43.36215" lon="2.43591">
        <ele>678</ele>
        <time>2017-09-24T08:36:37.000Z</time>
      </trkpt>
      <trkpt lat="43.36215" lon="2.43592">
        <ele>678</ele>
        <time>2017-09-24T08:36:38.000Z</time>
      </trkpt>
      <trkpt lat="43.36216" lon="2.43593">
        <ele>678</ele>
        <time>2017-09-24T08:36:39.000Z</time>
      </trkpt>
      <trkpt lat="43.36216" lon="2.43594">
        <ele>678</ele>
        <time>2017-09-24T08:36:40.000Z</time>
      </trkpt>
      <trkpt lat="43.36216" lon="2.43595">
        <ele>678</ele>
        <time>2017-09-24T08:36:41.000Z</time>
      </trkpt>
      <trkpt lat="43.36217" lon="2.43597">
        <ele>678</ele>
        <time>2017-09-24T08:36:42.000Z</time>
      </trkpt>
      <trkpt lat="43.36217" lon="2.43598">
        <ele>678</ele>
        <time>2017-09-24T08:36:43.000Z</time>
      </trkpt>
      <trkpt lat="43.36217" lon="2.43599">
        <ele>678</ele>
        <time>2017-09-24T08:36:44.000Z</time>
      </trkpt>
      <trkpt lat="43.36218" lon="2.436">
        <ele>678</ele>
        <time>2017-09-24T08:36:45.000Z</time>
      </trkpt>
      <trkpt lat="43.36218" lon="2.43601">
        <ele>678</ele>
        <time>2017-09-24T08:36:46.000Z</time>
      </trkpt>
      <trkpt lat="43.36219" lon="2.43602">
        <ele>678</ele>
        <time>2017-09-24T08:36:47.000Z</time>
      </trkpt>
      <trkpt lat="43.36219" lon="2.43604">
        <ele>678</ele>
        <time>2017-09-24T08:36:48.000Z</time>
      </trkpt>
      <trkpt lat="43.36219" lon="2.43604">
        <ele>678</ele>
        <time>2017-09-24T08:36:49.000Z</time>
      </trkpt>
      <trkpt lat="43.36219" lon="2.43606">
        <ele>678</ele>
        <time>2017-09-24T08:36:50.000Z</time>
      </trkpt>
      <trkpt lat="43.3622" lon="2.43606">
        <ele>678</ele>
        <time>2017-09-24T08:36:51.000Z</time>
      </trkpt>
      <trkpt lat="43.3622" lon="2.43607">
        <ele>678</ele>
        <time>2017-09-24T08:36:52.000Z</time>
      </trkpt>
      <trkpt lat="43.3622" lon="2.43608">
        <ele>678</ele>
        <time>2017-09-24T08:36:53.000Z</time>
      </trkpt>
      <trkpt lat="43.3622" lon="2.43609">
        <ele>678</ele>
        <time>2017-09-24T08:36:54.000Z</time>
      </trkpt>
      <trkpt lat="43.3622" lon="2.4361">
        <ele>678</ele>
        <time>2017-09-24T08:36:55.000Z</time>
      </trkpt>
      <trkpt lat="43.36221" lon="2.43611">
        <ele>678</ele>
        <time>2017-09-24T08:36:56.000Z</time>
      </trkpt>
      <trkpt lat="43.36221" lon="2.43612">
        <ele>678</ele>
        <time>2017-09-24T08:36:57.000Z</time>
      </trkpt>
      <trkpt lat="43.36221" lon="2.43613">
        <ele>678</ele>
        <time>2017-09-24T08:36:58.000Z</time>
      </trkpt>
      <trkpt lat="43.36221" lon="2.43614">
        <ele>678</ele>
        <time>2017-09-24T08:36:59.000Z</time>
      </trkpt>
      <trkpt lat="43.36221" lon="2.43615">
        <ele>678</ele>
        <time>2017-09-24T08:37:00.000Z</time>
      </trkpt>
      <trkpt lat="43.36222" lon="2.43616">
        <ele>678</ele>
        <time>2017-09-24T08:37:01.000Z</time>
      </trkpt>
      <trkpt lat="43.36222" lon="2.43616">
        <ele>677</ele>
        <time>2017-09-24T08:37:02.000Z</time>
      </trkpt>
      <trkpt lat="43.3623" lon="2.4362">
        <ele>679</ele>
        <time>2017-09-24T08:38:01.000Z</time>
      </trkpt>
      <trkpt lat="43.36231" lon="2.43621">
        <ele>679</ele>
        <time>2017-09-24T08:38:02.000Z</time>
      </trkpt>
      <trkpt lat="43.36232" lon="2.43623">
        <ele>679</ele>
        <time>2017-09-24T08:38:03.000Z</time>
      </trkpt>
      <trkpt lat="43.36232" lon="2.43624">
        <ele>679</ele>
        <time>2017-09-24T08:38:04.000Z</time>
      </trkpt>
      <trkpt lat="43.36233" lon="2.43625">
        <ele>679</ele>
        <time>2017-09-24T08:38:05.000Z</time>
      </trkpt>
      <trkpt lat="43.36234" lon="2.43627">
        <ele>679</ele>
        <time>2017-09-24T08:38:06.000Z</time>
      </trkpt>
      <trkpt lat="43.36235" lon="2.43628">
        <ele>679</ele>
        <time>2017-09-24T08:38:07.000Z</time>
      </trkpt>
      <trkpt lat="43.36235" lon="2.4363">
        <ele>679</ele>
        <time>2017-09-24T08:38:08.000Z</time>
      </trkpt>
      <trkpt lat="43.36236" lon="2.43631">
        <ele>679</ele>
        <time>2017-09-24T08:38:09.000Z</time>
      </trkpt>
      <trkpt lat="43.36237" lon="2.43632">
        <ele>679</ele>
        <time>2017-09-24T08:38:10.000Z</time>
      </trkpt>
      <trkpt lat="43.36238" lon="2.43633">
        <ele>679</ele>
        <time>2017-09-24T08:38:11.000Z</time>
      </trkpt>
      <trkpt lat="43.36238" lon="2.43635">
        <ele>679</ele>
        <time>2017-09-24T08:38:12.000Z</time>
      </trkpt>
      <trkpt lat="43.36239" lon="2.43636">
        <ele>679</ele>
        <time>2017-09-24T08:38:13.000Z</time>
      </trkpt>
      <trkpt lat="43.3624" lon="2.43637">
        <ele>679</ele>
        <time>2017-09-24T08:38:14.000Z</time>
      </trkpt>
      <trkpt lat="43.3624" lon="2.43639">
        <ele>679</ele>
        <time>2017-09-24T08:38:15.000Z</time>
      </trkpt>
      <trkpt lat="43.36241" lon="2.4364">
        <ele>679</ele>
        <time>2017-09-24T08:38:16.000Z</time>
      </trkpt>
      <trkpt lat="43.36242" lon="2.43641">
        <ele>679</ele>
        <time>2017-09-24T08:38:17.000Z</time>
      </trkpt>
      <trkpt lat="43.36242" lon="2.43642">
        <ele>679</ele>
        <time>2017-09-24T08:38:18.000Z</time>
      </trkpt>
      <trkpt lat="43.36243" lon="2.43642">
        <ele>679</ele>
        <time>2017-09-24T08:38:19.000Z</time>
      </trkpt>
      <trkpt lat="43.36244" lon="2.43644">
        <ele>679</ele>
        <time>2017-09-24T08:38:20.000Z</time>
      </trkpt>
      <trkpt lat="43.36245" lon="2.43645">
        <ele>679</ele>
        <time>2017-09-24T08:38:21.000Z</time>
      </trkpt>
      <trkpt lat="43.36246" lon="2.43646">
        <ele>679</ele>
        <time>2017-09-24T08:38:22.000Z</time>
      </trkpt>
      <trkpt lat="43.36247" lon="2.43647">
        <ele>679</ele>
        <time>2017-09-24T08:38:23.000Z</time>
      </trkpt>
      <trkpt lat="43.36248" lon="2.43648">
        <ele>680</ele>
        <time>2017-09-24T08:38:24.000Z</time>
      </trkpt>
      <trkpt lat="43.36249" lon="2.43648">
        <ele>680</ele>
        <time>2017-09-24T08:38:25.000Z</time>
      </trkpt>
      <trkpt lat="43.3625" lon="2.43649">
        <ele>680</ele>
        <time>2017-09-24T08:38:26.000Z</time>
      </trkpt>
      <trkpt lat="43.36252" lon="2.43649">
        <ele>680</ele>
        <time>2017-09-24T08:38:27.000Z</time>
      </trkpt>
      <trkpt lat="43.36253" lon="2.4365">
        <ele>680</ele>
        <time>2017-09-24T08:38:28.000Z</time>
      </trkpt>
      <trkpt lat="43.36254" lon="2.4365">
        <ele>680</ele>
        <time>2017-09-24T08:38:29.000Z</time>
      </trkpt>
      <trkpt lat="43.36255" lon="2.43651">
        <ele>681</ele>
        <time>2017-09-24T08:38:30.000Z</time>
      </trkpt>
      <trkpt lat="43.36256" lon="2.43651">
        <ele>681</ele>
        <time>2017-09-24T08:38:31.000Z</time>
      </trkpt>
      <trkpt lat="43.36257" lon="2.43651">
        <ele>681</ele>
        <time>2017-09-24T08:38:32.000Z</time>
      </trkpt>
      <trkpt lat="43.36259" lon="2.43652">
        <ele>681</ele>
        <time>2017-09-24T08:38:33.000Z</time>
      </trkpt>
      <trkpt lat="43.3626" lon="2.43652">
        <ele>681</ele>
        <time>2017-09-24T08:38:34.000Z</time>
      </trkpt>
      <trkpt lat="43.36261" lon="2.43652">
        <ele>682</ele>
        <time>2017-09-24T08:38:35.000Z</time>
      </trkpt>
      <trkpt lat="43.36263" lon="2.43652">
        <ele>682</ele>
        <time>2017-09-24T08:38:36.000Z</time>
      </trkpt>
      <trkpt lat="43.36264" lon="2.43652">
        <ele>682</ele>
        <time>2017-09-24T08:38:37.000Z</time>
      </trkpt>
      <trkpt lat="43.36265" lon="2.43652">
        <ele>682</ele>
        <time>2017-09-24T08:38:38.000Z</time>
      </trkpt>
      <trkpt lat="43.36266" lon="2.43652">
        <ele>682</ele>
        <time>2017-09-24T08:38:39.000Z</time>
      </trkpt>
      <trkpt lat="43.36268" lon="2.43652">
        <ele>683</ele>
        <time>2017-09-24T08:38:40.000Z</time>
      </trkpt>
      <trkpt lat="43.36269" lon="2.43653">
        <ele>683</ele>
        <time>2017-09-24T08:38:41.000Z</time>
      </trkpt>
      <trkpt lat="43.3627" lon="2.43653">
        <ele>683</ele>
        <time>2017-09-24T08:38:42.000Z</time>
      </trkpt>
      <trkpt lat="43.36271" lon="2.43653">
        <ele>683</ele>
        <time>2017-09-24T08:38:43.000Z</time>
      </trkpt>
      <trkpt lat="43.36273" lon="2.43652">
        <ele>683</ele>
        <time>2017-09-24T08:38:44.000Z</time>
      </trkpt>
      <trkpt lat="43.36274" lon="2.43652">
        <ele>683</ele>
        <time>2017-09-24T08:38:45.000Z</time>
      </trkpt>
      <trkpt lat="43.36275" lon="2.43651">
        <ele>683</ele>
        <time>2017-09-24T08:38:46.000Z</time>
      </trkpt>
      <trkpt lat="43.36276" lon="2.43651">
        <ele>683</ele>
        <time>2017-09-24T08:38:47.000Z</time>
      </trkpt>
      <trkpt lat="43.36277" lon="2.43651">
        <ele>684</ele>
        <time>2017-09-24T08:38:48.000Z</time>
      </trkpt>
      <trkpt lat="43.36278" lon="2.4365">
        <ele>684</ele>
        <time>2017-09-24T08:38:49.000Z</time>
      </trkpt>
      <trkpt lat="43.3628" lon="2.4365">
        <ele>684</ele>
        <time>2017-09-24T08:38:50.000Z</time>
      </trkpt>
      <trkpt lat="43.36281" lon="2.4365">
        <ele>684</ele>
        <time>2017-09-24T08:38:51.000Z</time>
      </trkpt>
      <trkpt lat="43.36282" lon="2.4365">
        <ele>684</ele>
        <time>2017-09-24T08:38:52.000Z</time>
      </trkpt>
      <trkpt lat="43.36283" lon="2.4365">
        <ele>684</ele>
        <time>2017-09-24T08:38:53.000Z</time>
      </trkpt>
      <trkpt lat="43.36285" lon="2.43649">
        <ele>685</ele>
        <time>2017-09-24T08:38:54.000Z</time>
      </trkpt>
      <trkpt lat="43.36286" lon="2.43649">
        <ele>685</ele>
        <time>2017-09-24T08:38:55.000Z</time>
      </trkpt>
      <trkpt lat="43.36288" lon="2.43649">
        <ele>685</ele>
        <time>2017-09-24T08:38:56.000Z</time>
      </trkpt>
      <trkpt lat="43.36289" lon="2.43649">
        <ele>685</ele>
        <time>2017-09-24T08:38:57.000Z</time>
      </trkpt>
      <trkpt lat="43.3629" lon="2.43648">
        <ele>685</ele>
        <time>2017-09-24T08:38:58.000Z</time>
      </trkpt>
      <trkpt lat="43.36292" lon="2.43648">
        <ele>685</ele>
        <time>2017-09-24T08:38:59.000Z</time>
      </trkpt>
      <trkpt lat="43.36293" lon="2.43647">
        <ele>686</ele>
        <time>2017-09-24T08:39:00.000Z</time>
      </trkpt>
      <trkpt lat="43.36294" lon="2.43647">
        <ele>686</ele>
        <time>2017-09-24T08:39:01.000Z</time>
      </trkpt>
      <trkpt lat="43.36295" lon="2.43647">
        <ele>686</ele>
        <time>2017-09-24T08:39:02.000Z</time>
      </trkpt>
      <trkpt lat="43.36297" lon="2.43647">
        <ele>686</ele>
        <time>2017-09-24T08:39:03.000Z</time>
      </trkpt>
      <trkpt lat="43.36298" lon="2.43646">
        <ele>686</ele>
        <time>2017-09-24T08:39:04.000Z</time>
      </trkpt>
      <trkpt lat="43.36299" lon="2.43646">
        <ele>686</ele>
        <time>2017-09-24T08:39:05.000Z</time>
      </trkpt>
      <trkpt lat="43.363" lon="2.43646">
        <ele>687</ele>
        <time>2017-09-24T08:39:06.000Z</time>
      </trkpt>
      <trkpt lat="43.36302" lon="2.43645">
        <ele>687</ele>
        <time>2017-09-24T08:39:07.000Z</time>
      </trkpt>
      <trkpt lat="43.36303" lon="2.43645">
        <ele>687</ele>
        <time>2017-09-24T08:39:08.000Z</time>
      </trkpt>
      <trkpt lat="43.36304" lon="2.43645">
        <ele>687</ele>
        <time>2017-09-24T08:39:09.000Z</time>
      </trkpt>
      <trkpt lat="43.36305" lon="2.43644">
        <ele>687</ele>
        <time>2017-09-24T08:39:10.000Z</time>
      </trkpt>
      <trkpt lat="43.36306" lon="2.43644">
        <ele>687</ele>
        <time>2017-09-24T08:39:11.000Z</time>
      </trkpt>
      <trkpt lat="43.36307" lon="2.43644">
        <ele>687</ele>
        <time>2017-09-24T08:39:12.000Z</time>
      </trkpt>
      <trkpt lat="43.36307" lon="2.43644">
        <ele>687</ele>
        <time>2017-09-24T08:39:13.000Z</time>
      </trkpt>
      <trkpt lat="43.36308" lon="2.43644">
        <ele>687</ele>
        <time>2017-09-24T08:39:14.000Z</time>
      </trkpt>
      <trkpt lat="43.36308" lon="2.43644">
        <ele>688</ele>
        <time>2017-09-24T08:39:15.000Z</time>
      </trkpt>
      <trkpt lat="43.3631" lon="2.43645">
        <ele>688</ele>
        <time>2017-09-24T08:39:16.000Z</time>
      </trkpt>
      <trkpt lat="43.36311" lon="2.43645">
        <ele>688</ele>
        <time>2017-09-24T08:39:17.000Z</time>
      </trkpt>
      <trkpt lat="43.36311" lon="2.43644">
        <ele>688</ele>
        <time>2017-09-24T08:39:18.000Z</time>
      </trkpt>
      <trkpt lat="43.36312" lon="2.43644">
        <ele>688</ele>
        <time>2017-09-24T08:39:19.000Z</time>
      </trkpt>
      <trkpt lat="43.36313" lon="2.43644">
        <ele>688</ele>
        <time>2017-09-24T08:39:20.000Z</time>
      </trkpt>
      <trkpt lat="43.36314" lon="2.43644">
        <ele>688</ele>
        <time>2017-09-24T08:39:21.000Z</time>
      </trkpt>
      <trkpt lat="43.36315" lon="2.43643">
        <ele>688</ele>
        <time>2017-09-24T08:39:22.000Z</time>
      </trkpt>
      <trkpt lat="43.36316" lon="2.43643">
        <ele>688</ele>
        <time>2017-09-24T08:39:23.000Z</time>
      </trkpt>
      <trkpt lat="43.36317" lon="2.43643">
        <ele>689</ele>
        <time>2017-09-24T08:39:24.000Z</time>
      </trkpt>
      <trkpt lat="43.36318" lon="2.43642">
        <ele>689</ele>
        <time>2017-09-24T08:39:25.000Z</time>
      </trkpt>
      <trkpt lat="43.36318" lon="2.43642">
        <ele>689</ele>
        <time>2017-09-24T08:39:26.000Z</time>
      </trkpt>
      <trkpt lat="43.36319" lon="2.43642">
        <ele>689</ele>
        <time>2017-09-24T08:39:27.000Z</time>
      </trkpt>
      <trkpt lat="43.3632" lon="2.43642">
        <ele>689</ele>
        <time>2017-09-24T08:39:28.000Z</time>
      </trkpt>
      <trkpt lat="43.36321" lon="2.43642">
        <ele>689</ele>
        <time>2017-09-24T08:39:29.000Z</time>
      </trkpt>
      <trkpt lat="43.36322" lon="2.43642">
        <ele>689</ele>
        <time>2017-09-24T08:39:30.000Z</time>
      </trkpt>
      <trkpt lat="43.36323" lon="2.43642">
        <ele>689</ele>
        <time>2017-09-24T08:39:31.000Z</time>
      </trkpt>
      <trkpt lat="43.36323" lon="2.43642">
        <ele>689</ele>
        <time>2017-09-24T08:39:32.000Z</time>
      </trkpt>
      <trkpt lat="43.36324" lon="2.43642">
        <ele>690</ele>
        <time>2017-09-24T08:39:33.000Z</time>
      </trkpt>
      <trkpt lat="43.36325" lon="2.43642">
        <ele>690</ele>
        <time>2017-09-24T08:39:34.000Z</time>
      </trkpt>
      <trkpt lat="43.36326" lon="2.43642">
        <ele>690</ele>
        <time>2017-09-24T08:39:35.000Z</time>
      </trkpt>
      <trkpt lat="43.36327" lon="2.43643">
        <ele>690</ele>
        <time>2017-09-24T08:39:36.000Z</time>
      </trkpt>
      <trkpt lat="43.36328" lon="2.43643">
        <ele>690</ele>
        <time>2017-09-24T08:39:37.000Z</time>
      </trkpt>
      <trkpt lat="43.36329" lon="2.43643">
        <ele>690</ele>
        <time>2017-09-24T08:39:38.000Z</time>
      </trkpt>
      <trkpt lat="43.3633" lon="2.43644">
        <ele>690</ele>
        <time>2017-09-24T08:39:39.000Z</time>
      </trkpt>
      <trkpt lat="43.3633" lon="2.43644">
        <ele>690</ele>
        <time>2017-09-24T08:39:40.000Z</time>
      </trkpt>
      <trkpt lat="43.36331" lon="2.43645">
        <ele>690</ele>
        <time>2017-09-24T08:39:41.000Z</time>
      </trkpt>
      <trkpt lat="43.36332" lon="2.43645">
        <ele>691</ele>
        <time>2017-09-24T08:39:42.000Z</time>
      </trkpt>
      <trkpt lat="43.36333" lon="2.43645">
        <ele>691</ele>
        <time>2017-09-24T08:39:43.000Z</time>
      </trkpt>
      <trkpt lat="43.36334" lon="2.43645">
        <ele>691</ele>
        <time>2017-09-24T08:39:44.000Z</time>
      </trkpt>
      <trkpt lat="43.36335" lon="2.43646">
        <ele>691</ele>
        <time>2017-09-24T08:39:45.000Z</time>
      </trkpt>
      <trkpt lat="43.36336" lon="2.43647">
        <ele>691</ele>
        <time>2017-09-24T08:39:46.000Z</time>
      </trkpt>
      <trkpt lat="43.36337" lon="2.43648">
        <ele>691</ele>
        <time>2017-09-24T08:39:47.000Z</time>
      </trkpt>
      <trkpt lat="43.36339" lon="2.43648">
        <ele>691</ele>
        <time>2017-09-24T08:39:48.000Z</time>
      </trkpt>
      <trkpt lat="43.36339" lon="2.43649">
        <ele>691</ele>
        <time>2017-09-24T08:39:49.000Z</time>
      </trkpt>
      <trkpt lat="43.3634" lon="2.4365">
        <ele>691</ele>
        <time>2017-09-24T08:39:50.000Z</time>
      </trkpt>
      <trkpt lat="43.36341" lon="2.4365">
        <ele>691</ele>
        <time>2017-09-24T08:39:51.000Z</time>
      </trkpt>
      <trkpt lat="43.36342" lon="2.43651">
        <ele>691</ele>
        <time>2017-09-24T08:39:52.000Z</time>
      </trkpt>
      <trkpt lat="43.36343" lon="2.43651">
        <ele>691</ele>
        <time>2017-09-24T08:39:53.000Z</time>
      </trkpt>
      <trkpt lat="43.36343" lon="2.43652">
        <ele>691</ele>
        <time>2017-09-24T08:39:54.000Z</time>
      </trkpt>
      <trkpt lat="43.36344" lon="2.43652">
        <ele>692</ele>
        <time>2017-09-24T08:39:55.000Z</time>
      </trkpt>
      <trkpt lat="43.36345" lon="2.43652">
        <ele>692</ele>
        <time>2017-09-24T08:39:56.000Z</time>
      </trkpt>
      <trkpt lat="43.36345" lon="2.43652">
        <ele>692</ele>
        <time>2017-09-24T08:39:57.000Z</time>
      </trkpt>
      <trkpt lat="43.36346" lon="2.43653">
        <ele>692</ele>
        <time>2017-09-24T08:39:58.000Z</time>
      </trkpt>
      <trkpt lat="43.36346" lon="2.43653">
        <ele>692</ele>
        <time>2017-09-24T08:39:59.000Z</time>
      </trkpt>
      <trkpt lat="43.36347" lon="2.43653">
        <ele>692</ele>
        <time>2017-09-24T08:40:00.000Z</time>
      </trkpt>
      <trkpt lat="43.36348" lon="2.43653">
        <ele>692</ele>
        <time>2017-09-24T08:40:01.000Z</time>
      </trkpt>
      <trkpt lat="43.36348" lon="2.43654">
        <ele>692</ele>
        <time>2017-09-24T08:40:02.000Z</time>
      </trkpt>
      <trkpt lat="43.36349" lon="2.43654">
        <ele>692</ele>
        <time>2017-09-24T08:40:03.000Z</time>
      </trkpt>
      <trkpt lat="43.3635" lon="2.43654">
        <ele>692</ele>
        <time>2017-09-24T08:40:04.000Z</time>
      </trkpt>
      <trkpt lat="43.36351" lon="2.43654">
        <ele>693</ele>
        <time>2017-09-24T08:40:05.000Z</time>
      </trkpt>
      <trkpt lat="43.36351" lon="2.43654">
        <ele>693</ele>
        <time>2017-09-24T08:40:06.000Z</time>
      </trkpt>
      <trkpt lat="43.36352" lon="2.43654">
        <ele>693</ele>
        <time>2017-09-24T08:40:07.000Z</time>
      </trkpt>
      <trkpt lat="43.36353" lon="2.43654">
        <ele>693</ele>
        <time>2017-09-24T08:40:08.000Z</time>
      </trkpt>
      <trkpt lat="43.36354" lon="2.43655">
        <ele>693</ele>
        <time>2017-09-24T08:40:09.000Z</time>
      </trkpt>
      <trkpt lat="43.36355" lon="2.43656">
        <ele>693</ele>
        <time>2017-09-24T08:40:10.000Z</time>
      </trkpt>
      <trkpt lat="43.36356" lon="2.43656">
        <ele>693</ele>
        <time>2017-09-24T08:40:11.000Z</time>
      </trkpt>
      <trkpt lat="43.36356" lon="2.43656">
        <ele>694</ele>
        <time>2017-09-24T08:40:12.000Z</time>
      </trkpt>
      <trkpt lat="43.36357" lon="2.43657">
        <ele>694</ele>
        <time>2017-09-24T08:40:13.000Z</time>
      </trkpt>
      <trkpt lat="43.36358" lon="2.43658">
        <ele>694</ele>
        <time>2017-09-24T08:40:14.000Z</time>
      </trkpt>
      <trkpt lat="43.36358" lon="2.43658">
        <ele>694</ele>
        <time>2017-09-24T08:40:15.000Z</time>
      </trkpt>
      <trkpt lat="43.36359" lon="2.43659">
        <ele>694</ele>
        <time>2017-09-24T08:40:16.000Z</time>
      </trkpt>
      <trkpt lat="43.3636" lon="2.4366">
        <ele>694</ele>
        <time>2017-09-24T08:40:17.000Z</time>
      </trkpt>
      <trkpt lat="43.36361" lon="2.43661">
        <ele>694</ele>
        <time>2017-09-24T08:40:18.000Z</time>
      </trkpt>
      <trkpt lat="43.36362" lon="2.43662">
        <ele>694</ele>
        <time>2017-09-24T08:40:19.000Z</time>
      </trkpt>
      <trkpt lat="43.36362" lon="2.43663">
        <ele>694</ele>
        <time>2017-09-24T08:40:20.000Z</time>
      </trkpt>
      <trkpt lat="43.36363" lon="2.43664">
        <ele>694</ele>
        <time>2017-09-24T08:40:21.000Z</time>
      </trkpt>
      <trkpt lat="43.36363" lon="2.43664">
        <ele>694</ele>
        <time>2017-09-24T08:40:22.000Z</time>
      </trkpt>
      <trkpt lat="43.36364" lon="2.43665">
        <ele>694</ele>
        <time>2017-09-24T08:40:23.000Z</time>
      </trkpt>
      <trkpt lat="43.36364" lon="2.43666">
        <ele>694</ele>
        <time>2017-09-24T08:40:24.000Z</time>
      </trkpt>
      <trkpt lat="43.36365" lon="2.43667">
        <ele>694</ele>
        <time>2017-09-24T08:40:25.000Z</time>
      </trkpt>
      <trkpt lat="43.36365" lon="2.43669">
        <ele>694</ele>
        <time>2017-09-24T08:40:26.000Z</time>
      </trkpt>
      <trkpt lat="43.36366" lon="2.4367">
        <ele>694</ele>
        <time>2017-09-24T08:40:27.000Z</time>
      </trkpt>
      <trkpt lat="43.36367" lon="2.43671">
        <ele>694</ele>
        <time>2017-09-24T08:40:28.000Z</time>
      </trkpt>
      <trkpt lat="43.36368" lon="2.43672">
        <ele>694</ele>
        <time>2017-09-24T08:40:29.000Z</time>
      </trkpt>
      <trkpt lat="43.36369" lon="2.43672">
        <ele>694</ele>
        <time>2017-09-24T08:40:30.000Z</time>
      </trkpt>
      <trkpt lat="43.3637" lon="2.43673">
        <ele>694</ele>
        <time>2017-09-24T08:40:31.000Z</time>
      </trkpt>
      <trkpt lat="43.3637" lon="2.43674">
        <ele>694</ele>
        <time>2017-09-24T08:40:32.000Z</time>
      </trkpt>
      <trkpt lat="43.36371" lon="2.43675">
        <ele>694</ele>
        <time>2017-09-24T08:40:33.000Z</time>
      </trkpt>
      <trkpt lat="43.36371" lon="2.43676">
        <ele>694</ele>
        <time>2017-09-24T08:40:34.000Z</time>
      </trkpt>
      <trkpt lat="43.36372" lon="2.43676">
        <ele>694</ele>
        <time>2017-09-24T08:40:35.000Z</time>
      </trkpt>
      <trkpt lat="43.36373" lon="2.43677">
        <ele>694</ele>
        <time>2017-09-24T08:40:36.000Z</time>
      </trkpt>
      <trkpt lat="43.36374" lon="2.43678">
        <ele>695</ele>
        <time>2017-09-24T08:40:37.000Z</time>
      </trkpt>
      <trkpt lat="43.36374" lon="2.43678">
        <ele>695</ele>
        <time>2017-09-24T08:40:38.000Z</time>
      </trkpt>
      <trkpt lat="43.36375" lon="2.43679">
        <ele>695</ele>
        <time>2017-09-24T08:40:39.000Z</time>
      </trkpt>
      <trkpt lat="43.36376" lon="2.4368">
        <ele>695</ele>
        <time>2017-09-24T08:40:40.000Z</time>
      </trkpt>
      <trkpt lat="43.36376" lon="2.43681">
        <ele>695</ele>
        <time>2017-09-24T08:40:41.000Z</time>
      </trkpt>
      <trkpt lat="43.36377" lon="2.43682">
        <ele>695</ele>
        <time>2017-09-24T08:40:42.000Z</time>
      </trkpt>
      <trkpt lat="43.36378" lon="2.43682">
        <ele>695</ele>
        <time>2017-09-24T08:40:43.000Z</time>
      </trkpt>
      <trkpt lat="43.36379" lon="2.43682">
        <ele>695</ele>
        <time>2017-09-24T08:40:44.000Z</time>
      </trkpt>
      <trkpt lat="43.36379" lon="2.43683">
        <ele>695</ele>
        <time>2017-09-24T08:40:45.000Z</time>
      </trkpt>
      <trkpt lat="43.3638" lon="2.43683">
        <ele>695</ele>
        <time>2017-09-24T08:40:46.000Z</time>
      </trkpt>
      <trkpt lat="43.3638" lon="2.43684">
        <ele>695</ele>
        <time>2017-09-24T08:40:47.000Z</time>
      </trkpt>
      <trkpt lat="43.3638" lon="2.43684">
        <ele>695</ele>
        <time>2017-09-24T08:40:48.000Z</time>
      </trkpt>
      <trkpt lat="43.3638" lon="2.43685">
        <ele>695</ele>
        <time>2017-09-24T08:40:49.000Z</time>
      </trkpt>
      <trkpt lat="43.3638" lon="2.43685">
        <ele>695</ele>
        <time>2017-09-24T08:40:50.000Z</time>
      </trkpt>
      <trkpt lat="43.3638" lon="2.43686">
        <ele>695</ele>
        <time>2017-09-24T08:40:51.000Z</time>
      </trkpt>
      <trkpt lat="43.36381" lon="2.43686">
        <ele>695</ele>
        <time>2017-09-24T08:40:52.000Z</time>
      </trkpt>
      <trkpt lat="43.36393" lon="2.43698">
        <ele>697</ele>
        <time>2017-09-24T08:41:32.000Z</time>
      </trkpt>
      <trkpt lat="43.36393" lon="2.43699">
        <ele>697</ele>
        <time>2017-09-24T08:41:33.000Z</time>
      </trkpt>
      <trkpt lat="43.36394" lon="2.437">
        <ele>697</ele>
        <time>2017-09-24T08:41:34.000Z</time>
      </trkpt>
      <trkpt lat="43.36395" lon="2.43701">
        <ele>697</ele>
        <time>2017-09-24T08:41:35.000Z</time>
      </trkpt>
      <trkpt lat="43.36396" lon="2.43702">
        <ele>697</ele>
        <time>2017-09-24T08:41:36.000Z</time>
      </trkpt>
      <trkpt lat="43.36396" lon="2.43703">
        <ele>697</ele>
        <time>2017-09-24T08:41:37.000Z</time>
      </trkpt>
      <trkpt lat="43.36397" lon="2.43704">
        <ele>697</ele>
        <time>2017-09-24T08:41:38.000Z</time>
      </trkpt>
      <trkpt lat="43.36398" lon="2.43705">
        <ele>697</ele>
        <time>2017-09-24T08:41:39.000Z</time>
      </trkpt>
      <trkpt lat="43.36399" lon="2.43706">
        <ele>697</ele>
        <time>2017-09-24T08:41:40.000Z</time>
      </trkpt>
      <trkpt lat="43.364" lon="2.43707">
        <ele>697</ele>
        <time>2017-09-24T08:41:41.000Z</time>
      </trkpt>
      <trkpt lat="43.364" lon="2.43708">
        <ele>697</ele>
        <time>2017-09-24T08:41:42.000Z</time>
      </trkpt>
      <trkpt lat="43.364" lon="2.43709">
        <ele>697</ele>
        <time>2017-09-24T08:41:43.000Z</time>
      </trkpt>
      <trkpt lat="43.36401" lon="2.43709">
        <ele>697</ele>
        <time>2017-09-24T08:41:44.000Z</time>
      </trkpt>
      <trkpt lat="43.36401" lon="2.4371">
        <ele>697</ele>
        <time>2017-09-24T08:41:45.000Z</time>
      </trkpt>
      <trkpt lat="43.36402" lon="2.4371">
        <ele>698</ele>
        <time>2017-09-24T08:41:46.000Z</time>
      </trkpt>
      <trkpt lat="43.36403" lon="2.4371">
        <ele>698</ele>
        <time>2017-09-24T08:41:47.000Z</time>
      </trkpt>
      <trkpt lat="43.36404" lon="2.43711">
        <ele>698</ele>
        <time>2017-09-24T08:41:48.000Z</time>
      </trkpt>
      <trkpt lat="43.36405" lon="2.43711">
        <ele>698</ele>
        <time>2017-09-24T08:41:49.000Z</time>
      </trkpt>
      <trkpt lat="43.36406" lon="2.43711">
        <ele>698</ele>
        <time>2017-09-24T08:41:50.000Z</time>
      </trkpt>
      <trkpt lat="43.36406" lon="2.43711">
        <ele>698</ele>
        <time>2017-09-24T08:41:51.000Z</time>
      </trkpt>
      <trkpt lat="43.36407" lon="2.43711">
        <ele>699</ele>
        <time>2017-09-24T08:41:52.000Z</time>
      </trkpt>
      <trkpt lat="43.36408" lon="2.43711">
        <ele>699</ele>
        <time>2017-09-24T08:41:53.000Z</time>
      </trkpt>
      <trkpt lat="43.36409" lon="2.43711">
        <ele>699</ele>
        <time>2017-09-24T08:41:54.000Z</time>
      </trkpt>
      <trkpt lat="43.3641" lon="2.43711">
        <ele>699</ele>
        <time>2017-09-24T08:41:55.000Z</time>
      </trkpt>
      <trkpt lat="43.3641" lon="2.43711">
        <ele>699</ele>
        <time>2017-09-24T08:41:56.000Z</time>
      </trkpt>
      <trkpt lat="43.36411" lon="2.43712">
        <ele>700</ele>
        <time>2017-09-24T08:41:57.000Z</time>
      </trkpt>
      <trkpt lat="43.36412" lon="2.43712">
        <ele>700</ele>
        <time>2017-09-24T08:41:58.000Z</time>
      </trkpt>
      <trkpt lat="43.36413" lon="2.43712">
        <ele>700</ele>
        <time>2017-09-24T08:41:59.000Z</time>
      </trkpt>
      <trkpt lat="43.36414" lon="2.43712">
        <ele>700</ele>
        <time>2017-09-24T08:42:00.000Z</time>
      </trkpt>
      <trkpt lat="43.36415" lon="2.43712">
        <ele>700</ele>
        <time>2017-09-24T08:42:01.000Z</time>
      </trkpt>
      <trkpt lat="43.36415" lon="2.43712">
        <ele>700</ele>
        <time>2017-09-24T08:42:02.000Z</time>
      </trkpt>
      <trkpt lat="43.36416" lon="2.43712">
        <ele>701</ele>
        <time>2017-09-24T08:42:03.000Z</time>
      </trkpt>
      <trkpt lat="43.36418" lon="2.43713">
        <ele>701</ele>
        <time>2017-09-24T08:42:04.000Z</time>
      </trkpt>
      <trkpt lat="43.36418" lon="2.43713">
        <ele>701</ele>
        <time>2017-09-24T08:42:05.000Z</time>
      </trkpt>
      <trkpt lat="43.36419" lon="2.43714">
        <ele>701</ele>
        <time>2017-09-24T08:42:06.000Z</time>
      </trkpt>
      <trkpt lat="43.3642" lon="2.43715">
        <ele>701</ele>
        <time>2017-09-24T08:42:07.000Z</time>
      </trkpt>
      <trkpt lat="43.36421" lon="2.43715">
        <ele>701</ele>
        <time>2017-09-24T08:42:08.000Z</time>
      </trkpt>
      <trkpt lat="43.36422" lon="2.43716">
        <ele>701</ele>
        <time>2017-09-24T08:42:09.000Z</time>
      </trkpt>
      <trkpt lat="43.36422" lon="2.43716">
        <ele>702</ele>
        <time>2017-09-24T08:42:10.000Z</time>
      </trkpt>
      <trkpt lat="43.36423" lon="2.43717">
        <ele>702</ele>
        <time>2017-09-24T08:42:11.000Z</time>
      </trkpt>
      <trkpt lat="43.36423" lon="2.43718">
        <ele>702</ele>
        <time>2017-09-24T08:42:12.000Z</time>
      </trkpt>
      <trkpt lat="43.36424" lon="2.43719">
        <ele>702</ele>
        <time>2017-09-24T08:42:13.000Z</time>
      </trkpt>
      <trkpt lat="43.36425" lon="2.43721">
        <ele>702</ele>
        <time>2017-09-24T08:42:14.000Z</time>
      </trkpt>
      <trkpt lat="43.36425" lon="2.43722">
        <ele>702</ele>
        <time>2017-09-24T08:42:15.000Z</time>
      </trkpt>
      <trkpt lat="43.36426" lon="2.43723">
        <ele>702</ele>
        <time>2017-09-24T08:42:16.000Z</time>
      </trkpt>
      <trkpt lat="43.36426" lon="2.43724">
        <ele>702</ele>
        <time>2017-09-24T08:42:17.000Z</time>
      </trkpt>
      <trkpt lat="43.36427" lon="2.43726">
        <ele>701</ele>
        <time>2017-09-24T08:42:18.000Z</time>
      </trkpt>
      <trkpt lat="43.36427" lon="2.43727">
        <ele>701</ele>
        <time>2017-09-24T08:42:19.000Z</time>
      </trkpt>
      <trkpt lat="43.36427" lon="2.43728">
        <ele>701</ele>
        <time>2017-09-24T08:42:20.000Z</time>
      </trkpt>
      <trkpt lat="43.36427" lon="2.4373">
        <ele>701</ele>
        <time>2017-09-24T08:42:21.000Z</time>
      </trkpt>
      <trkpt lat="43.36427" lon="2.43731">
        <ele>701</ele>
        <time>2017-09-24T08:42:22.000Z</time>
      </trkpt>
      <trkpt lat="43.36428" lon="2.43732">
        <ele>701</ele>
        <time>2017-09-24T08:42:23.000Z</time>
      </trkpt>
      <trkpt lat="43.36428" lon="2.43734">
        <ele>701</ele>
        <time>2017-09-24T08:42:24.000Z</time>
      </trkpt>
      <trkpt lat="43.36428" lon="2.43735">
        <ele>701</ele>
        <time>2017-09-24T08:42:25.000Z</time>
      </trkpt>
      <trkpt lat="43.36428" lon="2.43737">
        <ele>701</ele>
        <time>2017-09-24T08:42:26.000Z</time>
      </trkpt>
      <trkpt lat="43.36428" lon="2.43739">
        <ele>700</ele>
        <time>2017-09-24T08:42:27.000Z</time>
      </trkpt>
      <trkpt lat="43.36428" lon="2.4374">
        <ele>700</ele>
        <time>2017-09-24T08:42:28.000Z</time>
      </trkpt>
      <trkpt lat="43.36429" lon="2.43741">
        <ele>700</ele>
        <time>2017-09-24T08:42:29.000Z</time>
      </trkpt>
      <trkpt lat="43.36429" lon="2.43741">
        <ele>700</ele>
        <time>2017-09-24T08:42:30.000Z</time>
      </trkpt>
      <trkpt lat="43.36429" lon="2.43743">
        <ele>700</ele>
        <time>2017-09-24T08:42:31.000Z</time>
      </trkpt>
      <trkpt lat="43.3643" lon="2.43744">
        <ele>700</ele>
        <time>2017-09-24T08:42:32.000Z</time>
      </trkpt>
      <trkpt lat="43.36429" lon="2.43745">
        <ele>700</ele>
        <time>2017-09-24T08:42:33.000Z</time>
      </trkpt>
      <trkpt lat="43.3643" lon="2.43746">
        <ele>700</ele>
        <time>2017-09-24T08:42:34.000Z</time>
      </trkpt>
      <trkpt lat="43.3643" lon="2.43747">
        <ele>700</ele>
        <time>2017-09-24T08:42:35.000Z</time>
      </trkpt>
      <trkpt lat="43.3643" lon="2.43749">
        <ele>700</ele>
        <time>2017-09-24T08:42:36.000Z</time>
      </trkpt>
      <trkpt lat="43.3643" lon="2.4375">
        <ele>700</ele>
        <time>2017-09-24T08:42:37.000Z</time>
      </trkpt>
      <trkpt lat="43.3643" lon="2.43751">
        <ele>700</ele>
        <time>2017-09-24T08:42:38.000Z</time>
      </trkpt>
      <trkpt lat="43.3643" lon="2.43753">
        <ele>700</ele>
        <time>2017-09-24T08:42:39.000Z</time>
      </trkpt>
      <trkpt lat="43.3643" lon="2.43754">
        <ele>700</ele>
        <time>2017-09-24T08:42:40.000Z</time>
      </trkpt>
      <trkpt lat="43.3643" lon="2.43755">
        <ele>700</ele>
        <time>2017-09-24T08:42:41.000Z</time>
      </trkpt>
      <trkpt lat="43.3643" lon="2.43756">
        <ele>700</ele>
        <time>2017-09-24T08:42:42.000Z</time>
      </trkpt>
      <trkpt lat="43.3643" lon="2.43757">
        <ele>700</ele>
        <time>2017-09-24T08:42:43.000Z</time>
      </trkpt>
      <trkpt lat="43.3643" lon="2.43759">
        <ele>700</ele>
        <time>2017-09-24T08:42:44.000Z</time>
      </trkpt>
      <trkpt lat="43.36431" lon="2.4376">
        <ele>700</ele>
        <time>2017-09-24T08:42:45.000Z</time>
      </trkpt>
      <trkpt lat="43.3643" lon="2.43761">
        <ele>700</ele>
        <time>2017-09-24T08:42:46.000Z</time>
      </trkpt>
      <trkpt lat="43.3643" lon="2.43763">
        <ele>700</ele>
        <time>2017-09-24T08:42:47.000Z</time>
      </trkpt>
      <trkpt lat="43.3643" lon="2.43764">
        <ele>700</ele>
        <time>2017-09-24T08:42:48.000Z</time>
      </trkpt>
      <trkpt lat="43.36431" lon="2.43765">
        <ele>700</ele>
        <time>2017-09-24T08:42:49.000Z</time>
      </trkpt>
      <trkpt lat="43.3643" lon="2.43766">
        <ele>700</ele>
        <time>2017-09-24T08:42:50.000Z</time>
      </trkpt>
      <trkpt lat="43.36431" lon="2.43767">
        <ele>700</ele>
        <time>2017-09-24T08:42:51.000Z</time>
      </trkpt>
      <trkpt lat="43.3643" lon="2.43768">
        <ele>700</ele>
        <time>2017-09-24T08:42:52.000Z</time>
      </trkpt>
      <trkpt lat="43.36431" lon="2.43769">
        <ele>701</ele>
        <time>2017-09-24T08:42:53.000Z</time>
      </trkpt>
      <trkpt lat="43.3643" lon="2.4377">
        <ele>700</ele>
        <time>2017-09-24T08:42:54.000Z</time>
      </trkpt>
      <trkpt lat="43.3643" lon="2.43772">
        <ele>701</ele>
        <time>2017-09-24T08:42:55.000Z</time>
      </trkpt>
      <trkpt lat="43.3643" lon="2.43773">
        <ele>701</ele>
        <time>2017-09-24T08:42:56.000Z</time>
      </trkpt>
      <trkpt lat="43.3643" lon="2.43774">
        <ele>701</ele>
        <time>2017-09-24T08:42:57.000Z</time>
      </trkpt>
      <trkpt lat="43.3643" lon="2.43776">
        <ele>701</ele>
        <time>2017-09-24T08:42:58.000Z</time>
      </trkpt>
      <trkpt lat="43.3643" lon="2.43777">
        <ele>701</ele>
        <time>2017-09-24T08:42:59.000Z</time>
      </trkpt>
      <trkpt lat="43.3643" lon="2.43779">
        <ele>701</ele>
        <time>2017-09-24T08:43:00.000Z</time>
      </trkpt>
      <trkpt lat="43.3643" lon="2.4378">
        <ele>701</ele>
        <time>2017-09-24T08:43:01.000Z</time>
      </trkpt>
      <trkpt lat="43.36429" lon="2.43781">
        <ele>701</ele>
        <time>2017-09-24T08:43:02.000Z</time>
      </trkpt>
      <trkpt lat="43.36429" lon="2.43783">
        <ele>701</ele>
        <time>2017-09-24T08:43:03.000Z</time>
      </trkpt>
      <trkpt lat="43.36429" lon="2.43784">
        <ele>701</ele>
        <time>2017-09-24T08:43:04.000Z</time>
      </trkpt>
      <trkpt lat="43.36429" lon="2.43786">
        <ele>701</ele>
        <time>2017-09-24T08:43:05.000Z</time>
      </trkpt>
      <trkpt lat="43.36429" lon="2.43787">
        <ele>701</ele>
        <time>2017-09-24T08:43:06.000Z</time>
      </trkpt>
      <trkpt lat="43.36429" lon="2.43789">
        <ele>701</ele>
        <time>2017-09-24T08:43:07.000Z</time>
      </trkpt>
      <trkpt lat="43.36429" lon="2.4379">
        <ele>701</ele>
        <time>2017-09-24T08:43:08.000Z</time>
      </trkpt>
      <trkpt lat="43.36429" lon="2.43791">
        <ele>701</ele>
        <time>2017-09-24T08:43:09.000Z</time>
      </trkpt>
      <trkpt lat="43.36429" lon="2.43793">
        <ele>701</ele>
        <time>2017-09-24T08:43:10.000Z</time>
      </trkpt>
      <trkpt lat="43.36429" lon="2.43794">
        <ele>701</ele>
        <time>2017-09-24T08:43:11.000Z</time>
      </trkpt>
      <trkpt lat="43.36429" lon="2.43795">
        <ele>701</ele>
        <time>2017-09-24T08:43:12.000Z</time>
      </trkpt>
      <trkpt lat="43.36429" lon="2.43796">
        <ele>701</ele>
        <time>2017-09-24T08:43:13.000Z</time>
      </trkpt>
      <trkpt lat="43.36429" lon="2.43797">
        <ele>701</ele>
        <time>2017-09-24T08:43:14.000Z</time>
      </trkpt>
      <trkpt lat="43.36429" lon="2.43798">
        <ele>701</ele>
        <time>2017-09-24T08:43:15.000Z</time>
      </trkpt>
      <trkpt lat="43.36429" lon="2.43799">
        <ele>701</ele>
        <time>2017-09-24T08:43:16.000Z</time>
      </trkpt>
      <trkpt lat="43.36429" lon="2.438">
        <ele>701</ele>
        <time>2017-09-24T08:43:17.000Z</time>
      </trkpt>
      <trkpt lat="43.36429" lon="2.43801">
        <ele>701</ele>
        <time>2017-09-24T08:43:18.000Z</time>
      </trkpt>
      <trkpt lat="43.36428" lon="2.43802">
        <ele>701</ele>
        <time>2017-09-24T08:43:19.000Z</time>
      </trkpt>
      <trkpt lat="43.36428" lon="2.43803">
        <ele>701</ele>
        <time>2017-09-24T08:43:20.000Z</time>
      </trkpt>
      <trkpt lat="43.36427" lon="2.43803">
        <ele>701</ele>
        <time>2017-09-24T08:43:21.000Z</time>
      </trkpt>
      <trkpt lat="43.36427" lon="2.43803">
        <ele>701</ele>
        <time>2017-09-24T08:43:22.000Z</time>
      </trkpt>
      <trkpt lat="43.36428" lon="2.43811">
        <ele>701</ele>
        <time>2017-09-24T08:44:23.000Z</time>
      </trkpt>
      <trkpt lat="43.36428" lon="2.43813">
        <ele>701</ele>
        <time>2017-09-24T08:44:24.000Z</time>
      </trkpt>
      <trkpt lat="43.36428" lon="2.43814">
        <ele>701</ele>
        <time>2017-09-24T08:44:25.000Z</time>
      </trkpt>
      <trkpt lat="43.36428" lon="2.43815">
        <ele>701</ele>
        <time>2017-09-24T08:44:26.000Z</time>
      </trkpt>
      <trkpt lat="43.36428" lon="2.43816">
        <ele>701</ele>
        <time>2017-09-24T08:44:27.000Z</time>
      </trkpt>
      <trkpt lat="43.36428" lon="2.43817">
        <ele>701</ele>
        <time>2017-09-24T08:44:28.000Z</time>
      </trkpt>
      <trkpt lat="43.36428" lon="2.43818">
        <ele>701</ele>
        <time>2017-09-24T08:44:29.000Z</time>
      </trkpt>
      <trkpt lat="43.36428" lon="2.4382">
        <ele>701</ele>
        <time>2017-09-24T08:44:30.000Z</time>
      </trkpt>
      <trkpt lat="43.36428" lon="2.43821">
        <ele>702</ele>
        <time>2017-09-24T08:44:31.000Z</time>
      </trkpt>
      <trkpt lat="43.36428" lon="2.43823">
        <ele>702</ele>
        <time>2017-09-24T08:44:32.000Z</time>
      </trkpt>
      <trkpt lat="43.36428" lon="2.43824">
        <ele>702</ele>
        <time>2017-09-24T08:44:33.000Z</time>
      </trkpt>
      <trkpt lat="43.36428" lon="2.43825">
        <ele>702</ele>
        <time>2017-09-24T08:44:34.000Z</time>
      </trkpt>
      <trkpt lat="43.36428" lon="2.43827">
        <ele>702</ele>
        <time>2017-09-24T08:44:35.000Z</time>
      </trkpt>
      <trkpt lat="43.36428" lon="2.43828">
        <ele>702</ele>
        <time>2017-09-24T08:44:36.000Z</time>
      </trkpt>
      <trkpt lat="43.36428" lon="2.4383">
        <ele>702</ele>
        <time>2017-09-24T08:44:37.000Z</time>
      </trkpt>
      <trkpt lat="43.36428" lon="2.43831">
        <ele>702</ele>
        <time>2017-09-24T08:44:38.000Z</time>
      </trkpt>
      <trkpt lat="43.36428" lon="2.43833">
        <ele>702</ele>
        <time>2017-09-24T08:44:39.000Z</time>
      </trkpt>
      <trkpt lat="43.36428" lon="2.43834">
        <ele>702</ele>
        <time>2017-09-24T08:44:40.000Z</time>
      </trkpt>
      <trkpt lat="43.36428" lon="2.43836">
        <ele>702</ele>
        <time>2017-09-24T08:44:41.000Z</time>
      </trkpt>
      <trkpt lat="43.36428" lon="2.43837">
        <ele>702</ele>
        <time>2017-09-24T08:44:42.000Z</time>
      </trkpt>
      <trkpt lat="43.36428" lon="2.43838">
        <ele>702</ele>
        <time>2017-09-24T08:44:43.000Z</time>
      </trkpt>
      <trkpt lat="43.36428" lon="2.43839">
        <ele>702</ele>
        <time>2017-09-24T08:44:44.000Z</time>
      </trkpt>
      <trkpt lat="43.36428" lon="2.43841">
        <ele>702</ele>
        <time>2017-09-24T08:44:45.000Z</time>
      </trkpt>
      <trkpt lat="43.36428" lon="2.43842">
        <ele>702</ele>
        <time>2017-09-24T08:44:46.000Z</time>
      </trkpt>
      <trkpt lat="43.36428" lon="2.43843">
        <ele>702</ele>
        <time>2017-09-24T08:44:47.000Z</time>
      </trkpt>
      <trkpt lat="43.36428" lon="2.43845">
        <ele>702</ele>
        <time>2017-09-24T08:44:48.000Z</time>
      </trkpt>
      <trkpt lat="43.36428" lon="2.43846">
        <ele>702</ele>
        <time>2017-09-24T08:44:49.000Z</time>
      </trkpt>
      <trkpt lat="43.36428" lon="2.43847">
        <ele>703</ele>
        <time>2017-09-24T08:44:50.000Z</time>
      </trkpt>
      <trkpt lat="43.36427" lon="2.43849">
        <ele>703</ele>
        <time>2017-09-24T08:44:51.000Z</time>
      </trkpt>
      <trkpt lat="43.36427" lon="2.4385">
        <ele>703</ele>
        <time>2017-09-24T08:44:52.000Z</time>
      </trkpt>
      <trkpt lat="43.36427" lon="2.43851">
        <ele>703</ele>
        <time>2017-09-24T08:44:53.000Z</time>
      </trkpt>
      <trkpt lat="43.36427" lon="2.43853">
        <ele>703</ele>
        <time>2017-09-24T08:44:54.000Z</time>
      </trkpt>
      <trkpt lat="43.36427" lon="2.43854">
        <ele>703</ele>
        <time>2017-09-24T08:44:55.000Z</time>
      </trkpt>
      <trkpt lat="43.36427" lon="2.43855">
        <ele>703</ele>
        <time>2017-09-24T08:44:56.000Z</time>
      </trkpt>
      <trkpt lat="43.36427" lon="2.43857">
        <ele>703</ele>
        <time>2017-09-24T08:44:57.000Z</time>
      </trkpt>
      <trkpt lat="43.36427" lon="2.43858">
        <ele>703</ele>
        <time>2017-09-24T08:44:58.000Z</time>
      </trkpt>
      <trkpt lat="43.36426" lon="2.4386">
        <ele>703</ele>
        <time>2017-09-24T08:44:59.000Z</time>
      </trkpt>
      <trkpt lat="43.36426" lon="2.43861">
        <ele>703</ele>
        <time>2017-09-24T08:45:00.000Z</time>
      </trkpt>
      <trkpt lat="43.36426" lon="2.43862">
        <ele>703</ele>
        <time>2017-09-24T08:45:01.000Z</time>
      </trkpt>
      <trkpt lat="43.36425" lon="2.43863">
        <ele>703</ele>
        <time>2017-09-24T08:45:02.000Z</time>
      </trkpt>
      <trkpt lat="43.36425" lon="2.43865">
        <ele>703</ele>
        <time>2017-09-24T08:45:03.000Z</time>
      </trkpt>
      <trkpt lat="43.36425" lon="2.43866">
        <ele>703</ele>
        <time>2017-09-24T08:45:04.000Z</time>
      </trkpt>
      <trkpt lat="43.36425" lon="2.43867">
        <ele>703</ele>
        <time>2017-09-24T08:45:05.000Z</time>
      </trkpt>
      <trkpt lat="43.36424" lon="2.43868">
        <ele>702</ele>
        <time>2017-09-24T08:45:06.000Z</time>
      </trkpt>
      <trkpt lat="43.36424" lon="2.43869">
        <ele>702</ele>
        <time>2017-09-24T08:45:07.000Z</time>
      </trkpt>
      <trkpt lat="43.36423" lon="2.43871">
        <ele>702</ele>
        <time>2017-09-24T08:45:08.000Z</time>
      </trkpt>
      <trkpt lat="43.36423" lon="2.43872">
        <ele>702</ele>
        <time>2017-09-24T08:45:09.000Z</time>
      </trkpt>
      <trkpt lat="43.36423" lon="2.43873">
        <ele>702</ele>
        <time>2017-09-24T08:45:10.000Z</time>
      </trkpt>
      <trkpt lat="43.36423" lon="2.43874">
        <ele>702</ele>
        <time>2017-09-24T08:45:11.000Z</time>
      </trkpt>
      <trkpt lat="43.36422" lon="2.43875">
        <ele>702</ele>
        <time>2017-09-24T08:45:12.000Z</time>
      </trkpt>
      <trkpt lat="43.36422" lon="2.43876">
        <ele>702</ele>
        <time>2017-09-24T08:45:13.000Z</time>
      </trkpt>
      <trkpt lat="43.36421" lon="2.43878">
        <ele>702</ele>
        <time>2017-09-24T08:45:14.000Z</time>
      </trkpt>
      <trkpt lat="43.36421" lon="2.43879">
        <ele>702</ele>
        <time>2017-09-24T08:45:15.000Z</time>
      </trkpt>
      <trkpt lat="43.36421" lon="2.4388">
        <ele>702</ele>
        <time>2017-09-24T08:45:16.000Z</time>
      </trkpt>
      <trkpt lat="43.3642" lon="2.43881">
        <ele>702</ele>
        <time>2017-09-24T08:45:17.000Z</time>
      </trkpt>
      <trkpt lat="43.3642" lon="2.43882">
        <ele>702</ele>
        <time>2017-09-24T08:45:18.000Z</time>
      </trkpt>
      <trkpt lat="43.3642" lon="2.43884">
        <ele>702</ele>
        <time>2017-09-24T08:45:19.000Z</time>
      </trkpt>
      <trkpt lat="43.36419" lon="2.43885">
        <ele>702</ele>
        <time>2017-09-24T08:45:20.000Z</time>
      </trkpt>
      <trkpt lat="43.36419" lon="2.43886">
        <ele>702</ele>
        <time>2017-09-24T08:45:21.000Z</time>
      </trkpt>
      <trkpt lat="43.36419" lon="2.43887">
        <ele>702</ele>
        <time>2017-09-24T08:45:22.000Z</time>
      </trkpt>
      <trkpt lat="43.36419" lon="2.43888">
        <ele>702</ele>
        <time>2017-09-24T08:45:23.000Z</time>
      </trkpt>
      <trkpt lat="43.36419" lon="2.4389">
        <ele>702</ele>
        <time>2017-09-24T08:45:24.000Z</time>
      </trkpt>
      <trkpt lat="43.36418" lon="2.43891">
        <ele>702</ele>
        <time>2017-09-24T08:45:25.000Z</time>
      </trkpt>
      <trkpt lat="43.36418" lon="2.43892">
        <ele>702</ele>
        <time>2017-09-24T08:45:26.000Z</time>
      </trkpt>
      <trkpt lat="43.36417" lon="2.43894">
        <ele>702</ele>
        <time>2017-09-24T08:45:27.000Z</time>
      </trkpt>
      <trkpt lat="43.36417" lon="2.43895">
        <ele>702</ele>
        <time>2017-09-24T08:45:28.000Z</time>
      </trkpt>
      <trkpt lat="43.36417" lon="2.43896">
        <ele>701</ele>
        <time>2017-09-24T08:45:29.000Z</time>
      </trkpt>
      <trkpt lat="43.36417" lon="2.43897">
        <ele>701</ele>
        <time>2017-09-24T08:45:30.000Z</time>
      </trkpt>
      <trkpt lat="43.36417" lon="2.43897">
        <ele>702</ele>
        <time>2017-09-24T08:45:31.000Z</time>
      </trkpt>
      <trkpt lat="43.36417" lon="2.43897">
        <ele>702</ele>
        <time>2017-09-24T08:45:32.000Z</time>
      </trkpt>
      <trkpt lat="43.36417" lon="2.43905">
        <ele>702</ele>
        <time>2017-09-24T08:46:02.000Z</time>
      </trkpt>
      <trkpt lat="43.36418" lon="2.43906">
        <ele>702</ele>
        <time>2017-09-24T08:46:03.000Z</time>
      </trkpt>
      <trkpt lat="43.36418" lon="2.43907">
        <ele>703</ele>
        <time>2017-09-24T08:46:04.000Z</time>
      </trkpt>
      <trkpt lat="43.36418" lon="2.43908">
        <ele>703</ele>
        <time>2017-09-24T08:46:05.000Z</time>
      </trkpt>
      <trkpt lat="43.36419" lon="2.43909">
        <ele>703</ele>
        <time>2017-09-24T08:46:06.000Z</time>
      </trkpt>
      <trkpt lat="43.36419" lon="2.4391">
        <ele>703</ele>
        <time>2017-09-24T08:46:07.000Z</time>
      </trkpt>
      <trkpt lat="43.3642" lon="2.43911">
        <ele>703</ele>
        <time>2017-09-24T08:46:08.000Z</time>
      </trkpt>
      <trkpt lat="43.3642" lon="2.43912">
        <ele>704</ele>
        <time>2017-09-24T08:46:09.000Z</time>
      </trkpt>
      <trkpt lat="43.36421" lon="2.43914">
        <ele>704</ele>
        <time>2017-09-24T08:46:10.000Z</time>
      </trkpt>
      <trkpt lat="43.36422" lon="2.43915">
        <ele>704</ele>
        <time>2017-09-24T08:46:11.000Z</time>
      </trkpt>
      <trkpt lat="43.36423" lon="2.43916">
        <ele>705</ele>
        <time>2017-09-24T08:46:12.000Z</time>
      </trkpt>
      <trkpt lat="43.36423" lon="2.43917">
        <ele>705</ele>
        <time>2017-09-24T08:46:13.000Z</time>
      </trkpt>
      <trkpt lat="43.36424" lon="2.43918">
        <ele>705</ele>
        <time>2017-09-24T08:46:14.000Z</time>
      </trkpt>
      <trkpt lat="43.36425" lon="2.43919">
        <ele>705</ele>
        <time>2017-09-24T08:46:15.000Z</time>
      </trkpt>
      <trkpt lat="43.36426" lon="2.4392">
        <ele>705</ele>
        <time>2017-09-24T08:46:16.000Z</time>
      </trkpt>
      <trkpt lat="43.36427" lon="2.43921">
        <ele>706</ele>
        <time>2017-09-24T08:46:17.000Z</time>
      </trkpt>
      <trkpt lat="43.36428" lon="2.43922">
        <ele>706</ele>
        <time>2017-09-24T08:46:18.000Z</time>
      </trkpt>
      <trkpt lat="43.36429" lon="2.43923">
        <ele>706</ele>
        <time>2017-09-24T08:46:19.000Z</time>
      </trkpt>
      <trkpt lat="43.36429" lon="2.43924">
        <ele>706</ele>
        <time>2017-09-24T08:46:20.000Z</time>
      </trkpt>
      <trkpt lat="43.3643" lon="2.43925">
        <ele>706</ele>
        <time>2017-09-24T08:46:21.000Z</time>
      </trkpt>
      <trkpt lat="43.3643" lon="2.43926">
        <ele>706</ele>
        <time>2017-09-24T08:46:22.000Z</time>
      </trkpt>
      <trkpt lat="43.36431" lon="2.43927">
        <ele>707</ele>
        <time>2017-09-24T08:46:23.000Z</time>
      </trkpt>
      <trkpt lat="43.36432" lon="2.43929">
        <ele>707</ele>
        <time>2017-09-24T08:46:24.000Z</time>
      </trkpt>
      <trkpt lat="43.36433" lon="2.4393">
        <ele>707</ele>
        <time>2017-09-24T08:46:25.000Z</time>
      </trkpt>
      <trkpt lat="43.36434" lon="2.43931">
        <ele>707</ele>
        <time>2017-09-24T08:46:26.000Z</time>
      </trkpt>
      <trkpt lat="43.36434" lon="2.43932">
        <ele>707</ele>
        <time>2017-09-24T08:46:27.000Z</time>
      </trkpt>
      <trkpt lat="43.36435" lon="2.43933">
        <ele>707</ele>
        <time>2017-09-24T08:46:28.000Z</time>
      </trkpt>
      <trkpt lat="43.36435" lon="2.43934">
        <ele>707</ele>
        <time>2017-09-24T08:46:29.000Z</time>
      </trkpt>
      <trkpt lat="43.36436" lon="2.43936">
        <ele>708</ele>
        <time>2017-09-24T08:46:30.000Z</time>
      </trkpt>
      <trkpt lat="43.36437" lon="2.43937">
        <ele>708</ele>
        <time>2017-09-24T08:46:31.000Z</time>
      </trkpt>
      <trkpt lat="43.36438" lon="2.43938">
        <ele>708</ele>
        <time>2017-09-24T08:46:32.000Z</time>
      </trkpt>
      <trkpt lat="43.36438" lon="2.43939">
        <ele>708</ele>
        <time>2017-09-24T08:46:33.000Z</time>
      </trkpt>
      <trkpt lat="43.36439" lon="2.4394">
        <ele>708</ele>
        <time>2017-09-24T08:46:34.000Z</time>
      </trkpt>
      <trkpt lat="43.3644" lon="2.43941">
        <ele>708</ele>
        <time>2017-09-24T08:46:35.000Z</time>
      </trkpt>
      <trkpt lat="43.3644" lon="2.43942">
        <ele>708</ele>
        <time>2017-09-24T08:46:36.000Z</time>
      </trkpt>
      <trkpt lat="43.36441" lon="2.43943">
        <ele>708</ele>
        <time>2017-09-24T08:46:37.000Z</time>
      </trkpt>
      <trkpt lat="43.36441" lon="2.43943">
        <ele>708</ele>
        <time>2017-09-24T08:46:38.000Z</time>
      </trkpt>
      <trkpt lat="43.36442" lon="2.43944">
        <ele>709</ele>
        <time>2017-09-24T08:46:39.000Z</time>
      </trkpt>
      <trkpt lat="43.36443" lon="2.43944">
        <ele>709</ele>
        <time>2017-09-24T08:46:40.000Z</time>
      </trkpt>
      <trkpt lat="43.36443" lon="2.43944">
        <ele>709</ele>
        <time>2017-09-24T08:46:41.000Z</time>
      </trkpt>
      <trkpt lat="43.36444" lon="2.43944">
        <ele>709</ele>
        <time>2017-09-24T08:46:42.000Z</time>
      </trkpt>
      <trkpt lat="43.36444" lon="2.43944">
        <ele>709</ele>
        <time>2017-09-24T08:46:43.000Z</time>
      </trkpt>
      <trkpt lat="43.36445" lon="2.43944">
        <ele>709</ele>
        <time>2017-09-24T08:46:44.000Z</time>
      </trkpt>
      <trkpt lat="43.36446" lon="2.43944">
        <ele>709</ele>
        <time>2017-09-24T08:46:45.000Z</time>
      </trkpt>
      <trkpt lat="43.36447" lon="2.43944">
        <ele>710</ele>
        <time>2017-09-24T08:46:46.000Z</time>
      </trkpt>
      <trkpt lat="43.36447" lon="2.43944">
        <ele>710</ele>
        <time>2017-09-24T08:46:47.000Z</time>
      </trkpt>
      <trkpt lat="43.36448" lon="2.43943">
        <ele>710</ele>
        <time>2017-09-24T08:46:48.000Z</time>
      </trkpt>
      <trkpt lat="43.36449" lon="2.43943">
        <ele>710</ele>
        <time>2017-09-24T08:46:49.000Z</time>
      </trkpt>
      <trkpt lat="43.36449" lon="2.43942">
        <ele>710</ele>
        <time>2017-09-24T08:46:50.000Z</time>
      </trkpt>
      <trkpt lat="43.3645" lon="2.43942">
        <ele>711</ele>
        <time>2017-09-24T08:46:51.000Z</time>
      </trkpt>
      <trkpt lat="43.36451" lon="2.43942">
        <ele>711</ele>
        <time>2017-09-24T08:46:52.000Z</time>
      </trkpt>
      <trkpt lat="43.36451" lon="2.43942">
        <ele>711</ele>
        <time>2017-09-24T08:46:53.000Z</time>
      </trkpt>
      <trkpt lat="43.36452" lon="2.43941">
        <ele>711</ele>
        <time>2017-09-24T08:46:54.000Z</time>
      </trkpt>
      <trkpt lat="43.36453" lon="2.43941">
        <ele>711</ele>
        <time>2017-09-24T08:46:55.000Z</time>
      </trkpt>
      <trkpt lat="43.36454" lon="2.43941">
        <ele>711</ele>
        <time>2017-09-24T08:46:56.000Z</time>
      </trkpt>
      <trkpt lat="43.36454" lon="2.43941">
        <ele>712</ele>
        <time>2017-09-24T08:46:57.000Z</time>
      </trkpt>
      <trkpt lat="43.36454" lon="2.43941">
        <ele>712</ele>
        <time>2017-09-24T08:46:58.000Z</time>
      </trkpt>
      <trkpt lat="43.36453" lon="2.43935">
        <ele>712</ele>
        <time>2017-09-24T08:47:31.000Z</time>
      </trkpt>
      <trkpt lat="43.36453" lon="2.43934">
        <ele>712</ele>
        <time>2017-09-24T08:47:32.000Z</time>
      </trkpt>
      <trkpt lat="43.36453" lon="2.43933">
        <ele>712</ele>
        <time>2017-09-24T08:47:33.000Z</time>
      </trkpt>
      <trkpt lat="43.36454" lon="2.43931">
        <ele>712</ele>
        <time>2017-09-24T08:47:34.000Z</time>
      </trkpt>
      <trkpt lat="43.36454" lon="2.4393">
        <ele>712</ele>
        <time>2017-09-24T08:47:35.000Z</time>
      </trkpt>
      <trkpt lat="43.36454" lon="2.43929">
        <ele>712</ele>
        <time>2017-09-24T08:47:36.000Z</time>
      </trkpt>
      <trkpt lat="43.36455" lon="2.43928">
        <ele>712</ele>
        <time>2017-09-24T08:47:37.000Z</time>
      </trkpt>
      <trkpt lat="43.36455" lon="2.43926">
        <ele>712</ele>
        <time>2017-09-24T08:47:38.000Z</time>
      </trkpt>
      <trkpt lat="43.36456" lon="2.43926">
        <ele>712</ele>
        <time>2017-09-24T08:47:39.000Z</time>
      </trkpt>
      <trkpt lat="43.36456" lon="2.43925">
        <ele>712</ele>
        <time>2017-09-24T08:47:40.000Z</time>
      </trkpt>
      <trkpt lat="43.36456" lon="2.43924">
        <ele>713</ele>
        <time>2017-09-24T08:47:41.000Z</time>
      </trkpt>
      <trkpt lat="43.36456" lon="2.43922">
        <ele>713</ele>
        <time>2017-09-24T08:47:42.000Z</time>
      </trkpt>
      <trkpt lat="43.36455" lon="2.43921">
        <ele>712</ele>
        <time>2017-09-24T08:47:43.000Z</time>
      </trkpt>
      <trkpt lat="43.36456" lon="2.43921">
        <ele>712</ele>
        <time>2017-09-24T08:47:44.000Z</time>
      </trkpt>
      <trkpt lat="43.36455" lon="2.4392">
        <ele>712</ele>
        <time>2017-09-24T08:47:45.000Z</time>
      </trkpt>
      <trkpt lat="43.36455" lon="2.4392">
        <ele>712</ele>
        <time>2017-09-24T08:47:46.000Z</time>
      </trkpt>
      <trkpt lat="43.36455" lon="2.43919">
        <ele>712</ele>
        <time>2017-09-24T08:47:47.000Z</time>
      </trkpt>
      <trkpt lat="43.36458" lon="2.4392">
        <ele>713</ele>
        <time>2017-09-24T08:49:09.000Z</time>
      </trkpt>
      <trkpt lat="43.36458" lon="2.4392">
        <ele>713</ele>
        <time>2017-09-24T08:49:10.000Z</time>
      </trkpt>
      <trkpt lat="43.36458" lon="2.4392">
        <ele>713</ele>
        <time>2017-09-24T08:49:11.000Z</time>
      </trkpt>
      <trkpt lat="43.36458" lon="2.43919">
        <ele>713</ele>
        <time>2017-09-24T08:49:12.000Z</time>
      </trkpt>
      <trkpt lat="43.36457" lon="2.43914">
        <ele>713</ele>
        <time>2017-09-24T08:49:19.000Z</time>
      </trkpt>
      <trkpt lat="43.36457" lon="2.43913">
        <ele>713</ele>
        <time>2017-09-24T08:49:20.000Z</time>
      </trkpt>
      <trkpt lat="43.36457" lon="2.43912">
        <ele>713</ele>
        <time>2017-09-24T08:49:21.000Z</time>
      </trkpt>
      <trkpt lat="43.36457" lon="2.43911">
        <ele>713</ele>
        <time>2017-09-24T08:49:22.000Z</time>
      </trkpt>
      <trkpt lat="43.36457" lon="2.43909">
        <ele>713</ele>
        <time>2017-09-24T08:49:23.000Z</time>
      </trkpt>
      <trkpt lat="43.36457" lon="2.43908">
        <ele>713</ele>
        <time>2017-09-24T08:49:24.000Z</time>
      </trkpt>
      <trkpt lat="43.36457" lon="2.43906">
        <ele>713</ele>
        <time>2017-09-24T08:49:25.000Z</time>
      </trkpt>
      <trkpt lat="43.36457" lon="2.43905">
        <ele>712</ele>
        <time>2017-09-24T08:49:26.000Z</time>
      </trkpt>
      <trkpt lat="43.36457" lon="2.43903">
        <ele>712</ele>
        <time>2017-09-24T08:49:27.000Z</time>
      </trkpt>
      <trkpt lat="43.36457" lon="2.43902">
        <ele>712</ele>
        <time>2017-09-24T08:49:28.000Z</time>
      </trkpt>
      <trkpt lat="43.36457" lon="2.439">
        <ele>712</ele>
        <time>2017-09-24T08:49:29.000Z</time>
      </trkpt>
      <trkpt lat="43.36458" lon="2.43899">
        <ele>712</ele>
        <time>2017-09-24T08:49:30.000Z</time>
      </trkpt>
      <trkpt lat="43.36458" lon="2.43897">
        <ele>712</ele>
        <time>2017-09-24T08:49:31.000Z</time>
      </trkpt>
      <trkpt lat="43.36458" lon="2.43896">
        <ele>712</ele>
        <time>2017-09-24T08:49:32.000Z</time>
      </trkpt>
      <trkpt lat="43.36458" lon="2.43894">
        <ele>712</ele>
        <time>2017-09-24T08:49:33.000Z</time>
      </trkpt>
      <trkpt lat="43.36459" lon="2.43893">
        <ele>712</ele>
        <time>2017-09-24T08:49:34.000Z</time>
      </trkpt>
      <trkpt lat="43.36459" lon="2.43892">
        <ele>712</ele>
        <time>2017-09-24T08:49:35.000Z</time>
      </trkpt>
      <trkpt lat="43.36459" lon="2.43891">
        <ele>712</ele>
        <time>2017-09-24T08:49:36.000Z</time>
      </trkpt>
      <trkpt lat="43.36459" lon="2.4389">
        <ele>712</ele>
        <time>2017-09-24T08:49:37.000Z</time>
      </trkpt>
      <trkpt lat="43.36459" lon="2.43888">
        <ele>712</ele>
        <time>2017-09-24T08:49:38.000Z</time>
      </trkpt>
      <trkpt lat="43.36459" lon="2.43887">
        <ele>712</ele>
        <time>2017-09-24T08:49:39.000Z</time>
      </trkpt>
      <trkpt lat="43.36459" lon="2.43886">
        <ele>712</ele>
        <time>2017-09-24T08:49:40.000Z</time>
      </trkpt>
      <trkpt lat="43.36459" lon="2.43885">
        <ele>712</ele>
        <time>2017-09-24T08:49:41.000Z</time>
      </trkpt>
      <trkpt lat="43.36459" lon="2.43883">
        <ele>712</ele>
        <time>2017-09-24T08:49:42.000Z</time>
      </trkpt>
      <trkpt lat="43.36459" lon="2.43882">
        <ele>712</ele>
        <time>2017-09-24T08:49:43.000Z</time>
      </trkpt>
      <trkpt lat="43.36459" lon="2.4388">
        <ele>712</ele>
        <time>2017-09-24T08:49:44.000Z</time>
      </trkpt>
      <trkpt lat="43.3646" lon="2.43879">
        <ele>712</ele>
        <time>2017-09-24T08:49:45.000Z</time>
      </trkpt>
      <trkpt lat="43.3646" lon="2.43877">
        <ele>712</ele>
        <time>2017-09-24T08:49:46.000Z</time>
      </trkpt>
      <trkpt lat="43.3646" lon="2.43876">
        <ele>712</ele>
        <time>2017-09-24T08:49:47.000Z</time>
      </trkpt>
      <trkpt lat="43.3646" lon="2.43874">
        <ele>712</ele>
        <time>2017-09-24T08:49:48.000Z</time>
      </trkpt>
      <trkpt lat="43.3646" lon="2.43873">
        <ele>712</ele>
        <time>2017-09-24T08:49:49.000Z</time>
      </trkpt>
      <trkpt lat="43.3646" lon="2.43872">
        <ele>712</ele>
        <time>2017-09-24T08:49:50.000Z</time>
      </trkpt>
      <trkpt lat="43.36461" lon="2.43871">
        <ele>712</ele>
        <time>2017-09-24T08:49:51.000Z</time>
      </trkpt>
      <trkpt lat="43.36461" lon="2.4387">
        <ele>712</ele>
        <time>2017-09-24T08:49:52.000Z</time>
      </trkpt>
      <trkpt lat="43.36461" lon="2.43869">
        <ele>712</ele>
        <time>2017-09-24T08:49:53.000Z</time>
      </trkpt>
      <trkpt lat="43.36462" lon="2.43868">
        <ele>712</ele>
        <time>2017-09-24T08:49:54.000Z</time>
      </trkpt>
      <trkpt lat="43.36462" lon="2.43868">
        <ele>712</ele>
        <time>2017-09-24T08:49:55.000Z</time>
      </trkpt>
      <trkpt lat="43.36462" lon="2.43867">
        <ele>712</ele>
        <time>2017-09-24T08:49:56.000Z</time>
      </trkpt>
      <trkpt lat="43.36462" lon="2.43866">
        <ele>712</ele>
        <time>2017-09-24T08:49:57.000Z</time>
      </trkpt>
      <trkpt lat="43.36463" lon="2.43865">
        <ele>712</ele>
        <time>2017-09-24T08:49:58.000Z</time>
      </trkpt>
      <trkpt lat="43.36463" lon="2.43863">
        <ele>712</ele>
        <time>2017-09-24T08:49:59.000Z</time>
      </trkpt>
      <trkpt lat="43.36464" lon="2.43862">
        <ele>712</ele>
        <time>2017-09-24T08:50:00.000Z</time>
      </trkpt>
      <trkpt lat="43.36464" lon="2.43861">
        <ele>712</ele>
        <time>2017-09-24T08:50:01.000Z</time>
      </trkpt>
      <trkpt lat="43.36465" lon="2.4386">
        <ele>712</ele>
        <time>2017-09-24T08:50:02.000Z</time>
      </trkpt>
      <trkpt lat="43.36465" lon="2.43859">
        <ele>712</ele>
        <time>2017-09-24T08:50:03.000Z</time>
      </trkpt>
      <trkpt lat="43.36465" lon="2.43858">
        <ele>713</ele>
        <time>2017-09-24T08:50:04.000Z</time>
      </trkpt>
      <trkpt lat="43.36466" lon="2.43857">
        <ele>713</ele>
        <time>2017-09-24T08:50:05.000Z</time>
      </trkpt>
      <trkpt lat="43.36466" lon="2.43856">
        <ele>713</ele>
        <time>2017-09-24T08:50:06.000Z</time>
      </trkpt>
      <trkpt lat="43.36467" lon="2.43855">
        <ele>713</ele>
        <time>2017-09-24T08:50:07.000Z</time>
      </trkpt>
      <trkpt lat="43.36467" lon="2.43854">
        <ele>713</ele>
        <time>2017-09-24T08:50:08.000Z</time>
      </trkpt>
      <trkpt lat="43.36467" lon="2.43853">
        <ele>713</ele>
        <time>2017-09-24T08:50:09.000Z</time>
      </trkpt>
      <trkpt lat="43.36468" lon="2.43852">
        <ele>714</ele>
        <time>2017-09-24T08:50:10.000Z</time>
      </trkpt>
      <trkpt lat="43.36468" lon="2.43851">
        <ele>714</ele>
        <time>2017-09-24T08:50:11.000Z</time>
      </trkpt>
      <trkpt lat="43.36469" lon="2.4385">
        <ele>714</ele>
        <time>2017-09-24T08:50:12.000Z</time>
      </trkpt>
      <trkpt lat="43.36469" lon="2.43849">
        <ele>714</ele>
        <time>2017-09-24T08:50:13.000Z</time>
      </trkpt>
      <trkpt lat="43.36469" lon="2.43848">
        <ele>714</ele>
        <time>2017-09-24T08:50:14.000Z</time>
      </trkpt>
      <trkpt lat="43.3647" lon="2.43846">
        <ele>714</ele>
        <time>2017-09-24T08:50:15.000Z</time>
      </trkpt>
      <trkpt lat="43.3647" lon="2.43845">
        <ele>714</ele>
        <time>2017-09-24T08:50:16.000Z</time>
      </trkpt>
      <trkpt lat="43.36471" lon="2.43843">
        <ele>715</ele>
        <time>2017-09-24T08:50:17.000Z</time>
      </trkpt>
      <trkpt lat="43.36471" lon="2.43843">
        <ele>715</ele>
        <time>2017-09-24T08:50:18.000Z</time>
      </trkpt>
      <trkpt lat="43.36472" lon="2.43841">
        <ele>715</ele>
        <time>2017-09-24T08:50:19.000Z</time>
      </trkpt>
      <trkpt lat="43.36472" lon="2.4384">
        <ele>715</ele>
        <time>2017-09-24T08:50:20.000Z</time>
      </trkpt>
      <trkpt lat="43.36473" lon="2.43839">
        <ele>715</ele>
        <time>2017-09-24T08:50:21.000Z</time>
      </trkpt>
      <trkpt lat="43.36473" lon="2.43838">
        <ele>715</ele>
        <time>2017-09-24T08:50:22.000Z</time>
      </trkpt>
      <trkpt lat="43.36473" lon="2.43836">
        <ele>715</ele>
        <time>2017-09-24T08:50:23.000Z</time>
      </trkpt>
      <trkpt lat="43.36473" lon="2.43836">
        <ele>716</ele>
        <time>2017-09-24T08:50:24.000Z</time>
      </trkpt>
      <trkpt lat="43.36474" lon="2.43834">
        <ele>716</ele>
        <time>2017-09-24T08:50:25.000Z</time>
      </trkpt>
      <trkpt lat="43.36474" lon="2.43833">
        <ele>716</ele>
        <time>2017-09-24T08:50:26.000Z</time>
      </trkpt>
      <trkpt lat="43.36475" lon="2.43832">
        <ele>716</ele>
        <time>2017-09-24T08:50:27.000Z</time>
      </trkpt>
      <trkpt lat="43.36475" lon="2.43831">
        <ele>716</ele>
        <time>2017-09-24T08:50:28.000Z</time>
      </trkpt>
      <trkpt lat="43.36476" lon="2.4383">
        <ele>716</ele>
        <time>2017-09-24T08:50:29.000Z</time>
      </trkpt>
      <trkpt lat="43.36477" lon="2.43829">
        <ele>716</ele>
        <time>2017-09-24T08:50:30.000Z</time>
      </trkpt>
      <trkpt lat="43.36477" lon="2.43828">
        <ele>717</ele>
        <time>2017-09-24T08:50:31.000Z</time>
      </trkpt>
      <trkpt lat="43.36478" lon="2.43827">
        <ele>717</ele>
        <time>2017-09-24T08:50:32.000Z</time>
      </trkpt>
      <trkpt lat="43.36478" lon="2.43826">
        <ele>717</ele>
        <time>2017-09-24T08:50:33.000Z</time>
      </trkpt>
      <trkpt lat="43.36479" lon="2.43824">
        <ele>717</ele>
        <time>2017-09-24T08:50:34.000Z</time>
      </trkpt>
      <trkpt lat="43.36479" lon="2.43823">
        <ele>717</ele>
        <time>2017-09-24T08:50:35.000Z</time>
      </trkpt>
      <trkpt lat="43.3648" lon="2.43822">
        <ele>717</ele>
        <time>2017-09-24T08:50:36.000Z</time>
      </trkpt>
      <trkpt lat="43.3648" lon="2.43821">
        <ele>717</ele>
        <time>2017-09-24T08:50:37.000Z</time>
      </trkpt>
      <trkpt lat="43.36481" lon="2.4382">
        <ele>718</ele>
        <time>2017-09-24T08:50:38.000Z</time>
      </trkpt>
      <trkpt lat="43.36482" lon="2.43819">
        <ele>718</ele>
        <time>2017-09-24T08:50:39.000Z</time>
      </trkpt>
      <trkpt lat="43.36482" lon="2.43818">
        <ele>718</ele>
        <time>2017-09-24T08:50:40.000Z</time>
      </trkpt>
      <trkpt lat="43.36483" lon="2.43816">
        <ele>718</ele>
        <time>2017-09-24T08:50:41.000Z</time>
      </trkpt>
      <trkpt lat="43.36483" lon="2.43815">
        <ele>718</ele>
        <time>2017-09-24T08:50:42.000Z</time>
      </trkpt>
      <trkpt lat="43.36484" lon="2.43814">
        <ele>718</ele>
        <time>2017-09-24T08:50:43.000Z</time>
      </trkpt>
      <trkpt lat="43.36484" lon="2.43812">
        <ele>718</ele>
        <time>2017-09-24T08:50:44.000Z</time>
      </trkpt>
      <trkpt lat="43.36485" lon="2.43811">
        <ele>718</ele>
        <time>2017-09-24T08:50:45.000Z</time>
      </trkpt>
      <trkpt lat="43.36486" lon="2.4381">
        <ele>719</ele>
        <time>2017-09-24T08:50:46.000Z</time>
      </trkpt>
      <trkpt lat="43.36486" lon="2.43809">
        <ele>719</ele>
        <time>2017-09-24T08:50:47.000Z</time>
      </trkpt>
      <trkpt lat="43.36487" lon="2.43808">
        <ele>719</ele>
        <time>2017-09-24T08:50:48.000Z</time>
      </trkpt>
      <trkpt lat="43.36487" lon="2.43807">
        <ele>719</ele>
        <time>2017-09-24T08:50:49.000Z</time>
      </trkpt>
      <trkpt lat="43.36488" lon="2.43806">
        <ele>719</ele>
        <time>2017-09-24T08:50:50.000Z</time>
      </trkpt>
      <trkpt lat="43.36488" lon="2.43804">
        <ele>719</ele>
        <time>2017-09-24T08:50:51.000Z</time>
      </trkpt>
      <trkpt lat="43.36489" lon="2.43803">
        <ele>719</ele>
        <time>2017-09-24T08:50:52.000Z</time>
      </trkpt>
      <trkpt lat="43.36489" lon="2.43802">
        <ele>719</ele>
        <time>2017-09-24T08:50:53.000Z</time>
      </trkpt>
      <trkpt lat="43.3649" lon="2.438">
        <ele>720</ele>
        <time>2017-09-24T08:50:54.000Z</time>
      </trkpt>
      <trkpt lat="43.3649" lon="2.43799">
        <ele>720</ele>
        <time>2017-09-24T08:50:55.000Z</time>
      </trkpt>
      <trkpt lat="43.36491" lon="2.43798">
        <ele>720</ele>
        <time>2017-09-24T08:50:56.000Z</time>
      </trkpt>
      <trkpt lat="43.36491" lon="2.43796">
        <ele>720</ele>
        <time>2017-09-24T08:50:57.000Z</time>
      </trkpt>
      <trkpt lat="43.36492" lon="2.43795">
        <ele>720</ele>
        <time>2017-09-24T08:50:58.000Z</time>
      </trkpt>
      <trkpt lat="43.36492" lon="2.43794">
        <ele>720</ele>
        <time>2017-09-24T08:50:59.000Z</time>
      </trkpt>
      <trkpt lat="43.36492" lon="2.43793">
        <ele>720</ele>
        <time>2017-09-24T08:51:00.000Z</time>
      </trkpt>
      <trkpt lat="43.36493" lon="2.43792">
        <ele>720</ele>
        <time>2017-09-24T08:51:01.000Z</time>
      </trkpt>
      <trkpt lat="43.36493" lon="2.43791">
        <ele>720</ele>
        <time>2017-09-24T08:51:02.000Z</time>
      </trkpt>
      <trkpt lat="43.36493" lon="2.43789">
        <ele>720</ele>
        <time>2017-09-24T08:51:03.000Z</time>
      </trkpt>
      <trkpt lat="43.36494" lon="2.43788">
        <ele>721</ele>
        <time>2017-09-24T08:51:04.000Z</time>
      </trkpt>
      <trkpt lat="43.36495" lon="2.43787">
        <ele>721</ele>
        <time>2017-09-24T08:51:05.000Z</time>
      </trkpt>
      <trkpt lat="43.36495" lon="2.43786">
        <ele>721</ele>
        <time>2017-09-24T08:51:06.000Z</time>
      </trkpt>
      <trkpt lat="43.36495" lon="2.43785">
        <ele>721</ele>
        <time>2017-09-24T08:51:07.000Z</time>
      </trkpt>
      <trkpt lat="43.36496" lon="2.43783">
        <ele>721</ele>
        <time>2017-09-24T08:51:08.000Z</time>
      </trkpt>
      <trkpt lat="43.36496" lon="2.43782">
        <ele>721</ele>
        <time>2017-09-24T08:51:09.000Z</time>
      </trkpt>
      <trkpt lat="43.36497" lon="2.43781">
        <ele>721</ele>
        <time>2017-09-24T08:51:10.000Z</time>
      </trkpt>
      <trkpt lat="43.36497" lon="2.4378">
        <ele>721</ele>
        <time>2017-09-24T08:51:11.000Z</time>
      </trkpt>
      <trkpt lat="43.36497" lon="2.43779">
        <ele>721</ele>
        <time>2017-09-24T08:51:12.000Z</time>
      </trkpt>
      <trkpt lat="43.36498" lon="2.43777">
        <ele>721</ele>
        <time>2017-09-24T08:51:13.000Z</time>
      </trkpt>
      <trkpt lat="43.36498" lon="2.43776">
        <ele>722</ele>
        <time>2017-09-24T08:51:14.000Z</time>
      </trkpt>
      <trkpt lat="43.36499" lon="2.43775">
        <ele>722</ele>
        <time>2017-09-24T08:51:15.000Z</time>
      </trkpt>
      <trkpt lat="43.36499" lon="2.43774">
        <ele>722</ele>
        <time>2017-09-24T08:51:16.000Z</time>
      </trkpt>
      <trkpt lat="43.365" lon="2.43773">
        <ele>722</ele>
        <time>2017-09-24T08:51:17.000Z</time>
      </trkpt>
      <trkpt lat="43.365" lon="2.43771">
        <ele>722</ele>
        <time>2017-09-24T08:51:18.000Z</time>
      </trkpt>
      <trkpt lat="43.365" lon="2.4377">
        <ele>722</ele>
        <time>2017-09-24T08:51:19.000Z</time>
      </trkpt>
      <trkpt lat="43.365" lon="2.43769">
        <ele>722</ele>
        <time>2017-09-24T08:51:20.000Z</time>
      </trkpt>
      <trkpt lat="43.36501" lon="2.43767">
        <ele>722</ele>
        <time>2017-09-24T08:51:21.000Z</time>
      </trkpt>
      <trkpt lat="43.36501" lon="2.43766">
        <ele>722</ele>
        <time>2017-09-24T08:51:22.000Z</time>
      </trkpt>
      <trkpt lat="43.36501" lon="2.43765">
        <ele>722</ele>
        <time>2017-09-24T08:51:23.000Z</time>
      </trkpt>
      <trkpt lat="43.36502" lon="2.43763">
        <ele>722</ele>
        <time>2017-09-24T08:51:24.000Z</time>
      </trkpt>
      <trkpt lat="43.36502" lon="2.43761">
        <ele>722</ele>
        <time>2017-09-24T08:51:25.000Z</time>
      </trkpt>
      <trkpt lat="43.36502" lon="2.4376">
        <ele>722</ele>
        <time>2017-09-24T08:51:26.000Z</time>
      </trkpt>
      <trkpt lat="43.36502" lon="2.43758">
        <ele>722</ele>
        <time>2017-09-24T08:51:27.000Z</time>
      </trkpt>
      <trkpt lat="43.36502" lon="2.43757">
        <ele>722</ele>
        <time>2017-09-24T08:51:28.000Z</time>
      </trkpt>
      <trkpt lat="43.36502" lon="2.43756">
        <ele>722</ele>
        <time>2017-09-24T08:51:29.000Z</time>
      </trkpt>
      <trkpt lat="43.36503" lon="2.43754">
        <ele>722</ele>
        <time>2017-09-24T08:51:30.000Z</time>
      </trkpt>
      <trkpt lat="43.36503" lon="2.43753">
        <ele>722</ele>
        <time>2017-09-24T08:51:31.000Z</time>
      </trkpt>
      <trkpt lat="43.36503" lon="2.43751">
        <ele>722</ele>
        <time>2017-09-24T08:51:32.000Z</time>
      </trkpt>
      <trkpt lat="43.36503" lon="2.4375">
        <ele>723</ele>
        <time>2017-09-24T08:51:33.000Z</time>
      </trkpt>
      <trkpt lat="43.36503" lon="2.43748">
        <ele>723</ele>
        <time>2017-09-24T08:51:34.000Z</time>
      </trkpt>
      <trkpt lat="43.36504" lon="2.43747">
        <ele>723</ele>
        <time>2017-09-24T08:51:35.000Z</time>
      </trkpt>
      <trkpt lat="43.36504" lon="2.43745">
        <ele>723</ele>
        <time>2017-09-24T08:51:36.000Z</time>
      </trkpt>
      <trkpt lat="43.36504" lon="2.43744">
        <ele>723</ele>
        <time>2017-09-24T08:51:37.000Z</time>
      </trkpt>
      <trkpt lat="43.36504" lon="2.43743">
        <ele>724</ele>
        <time>2017-09-24T08:51:38.000Z</time>
      </trkpt>
      <trkpt lat="43.36504" lon="2.43741">
        <ele>724</ele>
        <time>2017-09-24T08:51:39.000Z</time>
      </trkpt>
      <trkpt lat="43.36505" lon="2.4374">
        <ele>724</ele>
        <time>2017-09-24T08:51:40.000Z</time>
      </trkpt>
      <trkpt lat="43.36505" lon="2.43739">
        <ele>724</ele>
        <time>2017-09-24T08:51:41.000Z</time>
      </trkpt>
      <trkpt lat="43.36505" lon="2.43737">
        <ele>724</ele>
        <time>2017-09-24T08:51:42.000Z</time>
      </trkpt>
      <trkpt lat="43.36506" lon="2.43736">
        <ele>724</ele>
        <time>2017-09-24T08:51:43.000Z</time>
      </trkpt>
      <trkpt lat="43.36506" lon="2.43735">
        <ele>724</ele>
        <time>2017-09-24T08:51:44.000Z</time>
      </trkpt>
      <trkpt lat="43.36506" lon="2.43733">
        <ele>724</ele>
        <time>2017-09-24T08:51:45.000Z</time>
      </trkpt>
      <trkpt lat="43.36506" lon="2.43732">
        <ele>725</ele>
        <time>2017-09-24T08:51:46.000Z</time>
      </trkpt>
      <trkpt lat="43.36507" lon="2.43731">
        <ele>725</ele>
        <time>2017-09-24T08:51:47.000Z</time>
      </trkpt>
      <trkpt lat="43.36507" lon="2.4373">
        <ele>725</ele>
        <time>2017-09-24T08:51:48.000Z</time>
      </trkpt>
      <trkpt lat="43.36507" lon="2.43728">
        <ele>725</ele>
        <time>2017-09-24T08:51:49.000Z</time>
      </trkpt>
      <trkpt lat="43.36508" lon="2.43727">
        <ele>725</ele>
        <time>2017-09-24T08:51:50.000Z</time>
      </trkpt>
      <trkpt lat="43.36508" lon="2.43726">
        <ele>725</ele>
        <time>2017-09-24T08:51:51.000Z</time>
      </trkpt>
      <trkpt lat="43.36508" lon="2.43725">
        <ele>725</ele>
        <time>2017-09-24T08:51:52.000Z</time>
      </trkpt>
      <trkpt lat="43.36508" lon="2.43723">
        <ele>725</ele>
        <time>2017-09-24T08:51:53.000Z</time>
      </trkpt>
      <trkpt lat="43.36508" lon="2.43722">
        <ele>725</ele>
        <time>2017-09-24T08:51:54.000Z</time>
      </trkpt>
      <trkpt lat="43.36508" lon="2.4372">
        <ele>725</ele>
        <time>2017-09-24T08:51:55.000Z</time>
      </trkpt>
      <trkpt lat="43.36508" lon="2.43719">
        <ele>725</ele>
        <time>2017-09-24T08:51:56.000Z</time>
      </trkpt>
      <trkpt lat="43.36508" lon="2.43717">
        <ele>725</ele>
        <time>2017-09-24T08:51:57.000Z</time>
      </trkpt>
      <trkpt lat="43.36508" lon="2.43716">
        <ele>725</ele>
        <time>2017-09-24T08:51:58.000Z</time>
      </trkpt>
      <trkpt lat="43.36508" lon="2.43714">
        <ele>725</ele>
        <time>2017-09-24T08:51:59.000Z</time>
      </trkpt>
      <trkpt lat="43.36508" lon="2.43712">
        <ele>725</ele>
        <time>2017-09-24T08:52:00.000Z</time>
      </trkpt>
      <trkpt lat="43.36509" lon="2.43711">
        <ele>726</ele>
        <time>2017-09-24T08:52:01.000Z</time>
      </trkpt>
      <trkpt lat="43.36509" lon="2.4371">
        <ele>726</ele>
        <time>2017-09-24T08:52:02.000Z</time>
      </trkpt>
      <trkpt lat="43.36509" lon="2.43708">
        <ele>726</ele>
        <time>2017-09-24T08:52:03.000Z</time>
      </trkpt>
      <trkpt lat="43.36509" lon="2.43707">
        <ele>726</ele>
        <time>2017-09-24T08:52:04.000Z</time>
      </trkpt>
      <trkpt lat="43.36509" lon="2.43705">
        <ele>726</ele>
        <time>2017-09-24T08:52:05.000Z</time>
      </trkpt>
      <trkpt lat="43.36509" lon="2.43704">
        <ele>726</ele>
        <time>2017-09-24T08:52:06.000Z</time>
      </trkpt>
      <trkpt lat="43.36509" lon="2.43702">
        <ele>726</ele>
        <time>2017-09-24T08:52:07.000Z</time>
      </trkpt>
      <trkpt lat="43.36509" lon="2.43701">
        <ele>726</ele>
        <time>2017-09-24T08:52:08.000Z</time>
      </trkpt>
      <trkpt lat="43.36509" lon="2.43699">
        <ele>726</ele>
        <time>2017-09-24T08:52:09.000Z</time>
      </trkpt>
      <trkpt lat="43.36509" lon="2.43697">
        <ele>726</ele>
        <time>2017-09-24T08:52:10.000Z</time>
      </trkpt>
      <trkpt lat="43.36509" lon="2.43696">
        <ele>726</ele>
        <time>2017-09-24T08:52:11.000Z</time>
      </trkpt>
      <trkpt lat="43.36509" lon="2.43694">
        <ele>726</ele>
        <time>2017-09-24T08:52:12.000Z</time>
      </trkpt>
      <trkpt lat="43.36509" lon="2.43693">
        <ele>726</ele>
        <time>2017-09-24T08:52:13.000Z</time>
      </trkpt>
      <trkpt lat="43.36509" lon="2.43691">
        <ele>726</ele>
        <time>2017-09-24T08:52:14.000Z</time>
      </trkpt>
      <trkpt lat="43.36509" lon="2.4369">
        <ele>726</ele>
        <time>2017-09-24T08:52:15.000Z</time>
      </trkpt>
      <trkpt lat="43.36509" lon="2.43689">
        <ele>726</ele>
        <time>2017-09-24T08:52:16.000Z</time>
      </trkpt>
      <trkpt lat="43.36509" lon="2.43687">
        <ele>726</ele>
        <time>2017-09-24T08:52:17.000Z</time>
      </trkpt>
      <trkpt lat="43.36508" lon="2.43686">
        <ele>726</ele>
        <time>2017-09-24T08:52:18.000Z</time>
      </trkpt>
      <trkpt lat="43.36508" lon="2.43684">
        <ele>726</ele>
        <time>2017-09-24T08:52:19.000Z</time>
      </trkpt>
      <trkpt lat="43.36508" lon="2.43683">
        <ele>726</ele>
        <time>2017-09-24T08:52:20.000Z</time>
      </trkpt>
      <trkpt lat="43.36508" lon="2.43681">
        <ele>726</ele>
        <time>2017-09-24T08:52:21.000Z</time>
      </trkpt>
      <trkpt lat="43.36508" lon="2.4368">
        <ele>726</ele>
        <time>2017-09-24T08:52:22.000Z</time>
      </trkpt>
      <trkpt lat="43.36507" lon="2.43678">
        <ele>726</ele>
        <time>2017-09-24T08:52:23.000Z</time>
      </trkpt>
      <trkpt lat="43.36507" lon="2.43677">
        <ele>726</ele>
        <time>2017-09-24T08:52:24.000Z</time>
      </trkpt>
      <trkpt lat="43.36507" lon="2.43676">
        <ele>726</ele>
        <time>2017-09-24T08:52:25.000Z</time>
      </trkpt>
      <trkpt lat="43.36507" lon="2.43675">
        <ele>726</ele>
        <time>2017-09-24T08:52:26.000Z</time>
      </trkpt>
      <trkpt lat="43.36507" lon="2.43673">
        <ele>726</ele>
        <time>2017-09-24T08:52:27.000Z</time>
      </trkpt>
      <trkpt lat="43.36507" lon="2.43672">
        <ele>726</ele>
        <time>2017-09-24T08:52:28.000Z</time>
      </trkpt>
      <trkpt lat="43.36507" lon="2.43671">
        <ele>726</ele>
        <time>2017-09-24T08:52:29.000Z</time>
      </trkpt>
      <trkpt lat="43.36507" lon="2.4367">
        <ele>726</ele>
        <time>2017-09-24T08:52:30.000Z</time>
      </trkpt>
      <trkpt lat="43.36507" lon="2.43669">
        <ele>726</ele>
        <time>2017-09-24T08:52:31.000Z</time>
      </trkpt>
      <trkpt lat="43.36507" lon="2.43667">
        <ele>726</ele>
        <time>2017-09-24T08:52:32.000Z</time>
      </trkpt>
      <trkpt lat="43.36507" lon="2.43666">
        <ele>726</ele>
        <time>2017-09-24T08:52:33.000Z</time>
      </trkpt>
      <trkpt lat="43.36507" lon="2.43665">
        <ele>726</ele>
        <time>2017-09-24T08:52:34.000Z</time>
      </trkpt>
      <trkpt lat="43.36506" lon="2.43664">
        <ele>726</ele>
        <time>2017-09-24T08:52:35.000Z</time>
      </trkpt>
      <trkpt lat="43.36506" lon="2.43662">
        <ele>727</ele>
        <time>2017-09-24T08:52:36.000Z</time>
      </trkpt>
      <trkpt lat="43.36506" lon="2.43662">
        <ele>727</ele>
        <time>2017-09-24T08:52:37.000Z</time>
      </trkpt>
      <trkpt lat="43.36506" lon="2.4366">
        <ele>727</ele>
        <time>2017-09-24T08:52:38.000Z</time>
      </trkpt>
      <trkpt lat="43.36506" lon="2.43659">
        <ele>727</ele>
        <time>2017-09-24T08:52:39.000Z</time>
      </trkpt>
      <trkpt lat="43.36505" lon="2.43658">
        <ele>727</ele>
        <time>2017-09-24T08:52:40.000Z</time>
      </trkpt>
      <trkpt lat="43.36505" lon="2.43656">
        <ele>727</ele>
        <time>2017-09-24T08:52:41.000Z</time>
      </trkpt>
      <trkpt lat="43.36505" lon="2.43654">
        <ele>727</ele>
        <time>2017-09-24T08:52:42.000Z</time>
      </trkpt>
      <trkpt lat="43.36505" lon="2.43653">
        <ele>727</ele>
        <time>2017-09-24T08:52:43.000Z</time>
      </trkpt>
      <trkpt lat="43.36504" lon="2.43652">
        <ele>727</ele>
        <time>2017-09-24T08:52:44.000Z</time>
      </trkpt>
      <trkpt lat="43.36504" lon="2.4365">
        <ele>727</ele>
        <time>2017-09-24T08:52:45.000Z</time>
      </trkpt>
      <trkpt lat="43.36504" lon="2.43649">
        <ele>727</ele>
        <time>2017-09-24T08:52:46.000Z</time>
      </trkpt>
      <trkpt lat="43.36504" lon="2.43648">
        <ele>727</ele>
        <time>2017-09-24T08:52:47.000Z</time>
      </trkpt>
      <trkpt lat="43.36503" lon="2.43647">
        <ele>727</ele>
        <time>2017-09-24T08:52:48.000Z</time>
      </trkpt>
      <trkpt lat="43.36503" lon="2.43646">
        <ele>727</ele>
        <time>2017-09-24T08:52:49.000Z</time>
      </trkpt>
      <trkpt lat="43.36503" lon="2.43644">
        <ele>727</ele>
        <time>2017-09-24T08:52:50.000Z</time>
      </trkpt>
      <trkpt lat="43.36503" lon="2.43643">
        <ele>728</ele>
        <time>2017-09-24T08:52:51.000Z</time>
      </trkpt>
      <trkpt lat="43.36503" lon="2.43642">
        <ele>728</ele>
        <time>2017-09-24T08:52:52.000Z</time>
      </trkpt>
      <trkpt lat="43.36502" lon="2.43641">
        <ele>728</ele>
        <time>2017-09-24T08:52:53.000Z</time>
      </trkpt>
      <trkpt lat="43.36502" lon="2.43639">
        <ele>728</ele>
        <time>2017-09-24T08:52:54.000Z</time>
      </trkpt>
      <trkpt lat="43.36502" lon="2.43638">
        <ele>728</ele>
        <time>2017-09-24T08:52:55.000Z</time>
      </trkpt>
      <trkpt lat="43.36502" lon="2.43637">
        <ele>728</ele>
        <time>2017-09-24T08:52:56.000Z</time>
      </trkpt>
      <trkpt lat="43.36502" lon="2.43635">
        <ele>728</ele>
        <time>2017-09-24T08:52:57.000Z</time>
      </trkpt>
      <trkpt lat="43.36502" lon="2.43634">
        <ele>728</ele>
        <time>2017-09-24T08:52:58.000Z</time>
      </trkpt>
      <trkpt lat="43.36501" lon="2.43633">
        <ele>728</ele>
        <time>2017-09-24T08:52:59.000Z</time>
      </trkpt>
      <trkpt lat="43.36501" lon="2.43632">
        <ele>728</ele>
        <time>2017-09-24T08:53:00.000Z</time>
      </trkpt>
      <trkpt lat="43.36501" lon="2.43631">
        <ele>728</ele>
        <time>2017-09-24T08:53:01.000Z</time>
      </trkpt>
      <trkpt lat="43.36501" lon="2.43629">
        <ele>728</ele>
        <time>2017-09-24T08:53:02.000Z</time>
      </trkpt>
      <trkpt lat="43.36501" lon="2.43628">
        <ele>728</ele>
        <time>2017-09-24T08:53:03.000Z</time>
      </trkpt>
      <trkpt lat="43.36501" lon="2.43627">
        <ele>728</ele>
        <time>2017-09-24T08:53:04.000Z</time>
      </trkpt>
      <trkpt lat="43.36501" lon="2.43626">
        <ele>728</ele>
        <time>2017-09-24T08:53:05.000Z</time>
      </trkpt>
      <trkpt lat="43.36501" lon="2.43624">
        <ele>728</ele>
        <time>2017-09-24T08:53:06.000Z</time>
      </trkpt>
      <trkpt lat="43.36501" lon="2.43623">
        <ele>728</ele>
        <time>2017-09-24T08:53:07.000Z</time>
      </trkpt>
      <trkpt lat="43.36501" lon="2.43622">
        <ele>728</ele>
        <time>2017-09-24T08:53:08.000Z</time>
      </trkpt>
      <trkpt lat="43.36501" lon="2.4362">
        <ele>728</ele>
        <time>2017-09-24T08:53:09.000Z</time>
      </trkpt>
      <trkpt lat="43.36501" lon="2.43619">
        <ele>728</ele>
        <time>2017-09-24T08:53:10.000Z</time>
      </trkpt>
      <trkpt lat="43.36501" lon="2.43618">
        <ele>728</ele>
        <time>2017-09-24T08:53:11.000Z</time>
      </trkpt>
      <trkpt lat="43.36501" lon="2.43616">
        <ele>729</ele>
        <time>2017-09-24T08:53:12.000Z</time>
      </trkpt>
      <trkpt lat="43.365" lon="2.43615">
        <ele>729</ele>
        <time>2017-09-24T08:53:13.000Z</time>
      </trkpt>
      <trkpt lat="43.365" lon="2.43613">
        <ele>729</ele>
        <time>2017-09-24T08:53:14.000Z</time>
      </trkpt>
      <trkpt lat="43.365" lon="2.43612">
        <ele>729</ele>
        <time>2017-09-24T08:53:15.000Z</time>
      </trkpt>
      <trkpt lat="43.365" lon="2.43611">
        <ele>729</ele>
        <time>2017-09-24T08:53:16.000Z</time>
      </trkpt>
      <trkpt lat="43.36499" lon="2.43609">
        <ele>729</ele>
        <time>2017-09-24T08:53:17.000Z</time>
      </trkpt>
      <trkpt lat="43.36499" lon="2.43608">
        <ele>729</ele>
        <time>2017-09-24T08:53:18.000Z</time>
      </trkpt>
      <trkpt lat="43.365" lon="2.43606">
        <ele>729</ele>
        <time>2017-09-24T08:53:19.000Z</time>
      </trkpt>
      <trkpt lat="43.365" lon="2.43605">
        <ele>729</ele>
        <time>2017-09-24T08:53:20.000Z</time>
      </trkpt>
      <trkpt lat="43.365" lon="2.43603">
        <ele>729</ele>
        <time>2017-09-24T08:53:21.000Z</time>
      </trkpt>
      <trkpt lat="43.36499" lon="2.43602">
        <ele>729</ele>
        <time>2017-09-24T08:53:22.000Z</time>
      </trkpt>
      <trkpt lat="43.36499" lon="2.436">
        <ele>729</ele>
        <time>2017-09-24T08:53:23.000Z</time>
      </trkpt>
      <trkpt lat="43.36499" lon="2.43599">
        <ele>729</ele>
        <time>2017-09-24T08:53:24.000Z</time>
      </trkpt>
      <trkpt lat="43.36499" lon="2.43597">
        <ele>729</ele>
        <time>2017-09-24T08:53:25.000Z</time>
      </trkpt>
      <trkpt lat="43.36499" lon="2.43596">
        <ele>729</ele>
        <time>2017-09-24T08:53:26.000Z</time>
      </trkpt>
      <trkpt lat="43.36499" lon="2.43594">
        <ele>729</ele>
        <time>2017-09-24T08:53:27.000Z</time>
      </trkpt>
      <trkpt lat="43.36499" lon="2.43593">
        <ele>729</ele>
        <time>2017-09-24T08:53:28.000Z</time>
      </trkpt>
      <trkpt lat="43.36499" lon="2.43591">
        <ele>730</ele>
        <time>2017-09-24T08:53:29.000Z</time>
      </trkpt>
      <trkpt lat="43.36499" lon="2.4359">
        <ele>730</ele>
        <time>2017-09-24T08:53:30.000Z</time>
      </trkpt>
      <trkpt lat="43.36499" lon="2.43588">
        <ele>730</ele>
        <time>2017-09-24T08:53:31.000Z</time>
      </trkpt>
      <trkpt lat="43.36499" lon="2.43587">
        <ele>730</ele>
        <time>2017-09-24T08:53:32.000Z</time>
      </trkpt>
      <trkpt lat="43.36498" lon="2.43585">
        <ele>730</ele>
        <time>2017-09-24T08:53:33.000Z</time>
      </trkpt>
      <trkpt lat="43.36499" lon="2.43583">
        <ele>730</ele>
        <time>2017-09-24T08:53:34.000Z</time>
      </trkpt>
      <trkpt lat="43.36499" lon="2.43582">
        <ele>730</ele>
        <time>2017-09-24T08:53:35.000Z</time>
      </trkpt>
      <trkpt lat="43.36499" lon="2.4358">
        <ele>730</ele>
        <time>2017-09-24T08:53:36.000Z</time>
      </trkpt>
      <trkpt lat="43.36498" lon="2.43579">
        <ele>730</ele>
        <time>2017-09-24T08:53:37.000Z</time>
      </trkpt>
      <trkpt lat="43.36498" lon="2.43578">
        <ele>730</ele>
        <time>2017-09-24T08:53:38.000Z</time>
      </trkpt>
      <trkpt lat="43.36499" lon="2.43576">
        <ele>730</ele>
        <time>2017-09-24T08:53:39.000Z</time>
      </trkpt>
      <trkpt lat="43.36498" lon="2.43574">
        <ele>730</ele>
        <time>2017-09-24T08:53:40.000Z</time>
      </trkpt>
      <trkpt lat="43.36499" lon="2.43573">
        <ele>730</ele>
        <time>2017-09-24T08:53:41.000Z</time>
      </trkpt>
      <trkpt lat="43.36499" lon="2.43572">
        <ele>730</ele>
        <time>2017-09-24T08:53:42.000Z</time>
      </trkpt>
      <trkpt lat="43.36499" lon="2.4357">
        <ele>731</ele>
        <time>2017-09-24T08:53:43.000Z</time>
      </trkpt>
      <trkpt lat="43.36499" lon="2.43569">
        <ele>731</ele>
        <time>2017-09-24T08:53:44.000Z</time>
      </trkpt>
      <trkpt lat="43.36499" lon="2.43567">
        <ele>731</ele>
        <time>2017-09-24T08:53:45.000Z</time>
      </trkpt>
      <trkpt lat="43.36499" lon="2.43566">
        <ele>731</ele>
        <time>2017-09-24T08:53:46.000Z</time>
      </trkpt>
      <trkpt lat="43.365" lon="2.43565">
        <ele>731</ele>
        <time>2017-09-24T08:53:47.000Z</time>
      </trkpt>
      <trkpt lat="43.365" lon="2.43563">
        <ele>731</ele>
        <time>2017-09-24T08:53:48.000Z</time>
      </trkpt>
      <trkpt lat="43.365" lon="2.43562">
        <ele>731</ele>
        <time>2017-09-24T08:53:49.000Z</time>
      </trkpt>
      <trkpt lat="43.365" lon="2.43561">
        <ele>731</ele>
        <time>2017-09-24T08:53:50.000Z</time>
      </trkpt>
      <trkpt lat="43.365" lon="2.43559">
        <ele>731</ele>
        <time>2017-09-24T08:53:51.000Z</time>
      </trkpt>
      <trkpt lat="43.365" lon="2.43558">
        <ele>731</ele>
        <time>2017-09-24T08:53:52.000Z</time>
      </trkpt>
      <trkpt lat="43.365" lon="2.43557">
        <ele>731</ele>
        <time>2017-09-24T08:53:53.000Z</time>
      </trkpt>
      <trkpt lat="43.36501" lon="2.43555">
        <ele>731</ele>
        <time>2017-09-24T08:53:54.000Z</time>
      </trkpt>
      <trkpt lat="43.365" lon="2.43554">
        <ele>731</ele>
        <time>2017-09-24T08:53:55.000Z</time>
      </trkpt>
      <trkpt lat="43.36501" lon="2.43552">
        <ele>731</ele>
        <time>2017-09-24T08:53:56.000Z</time>
      </trkpt>
      <trkpt lat="43.36501" lon="2.43551">
        <ele>731</ele>
        <time>2017-09-24T08:53:57.000Z</time>
      </trkpt>
      <trkpt lat="43.36501" lon="2.4355">
        <ele>731</ele>
        <time>2017-09-24T08:53:58.000Z</time>
      </trkpt>
      <trkpt lat="43.36502" lon="2.43549">
        <ele>731</ele>
        <time>2017-09-24T08:53:59.000Z</time>
      </trkpt>
      <trkpt lat="43.36502" lon="2.43547">
        <ele>731</ele>
        <time>2017-09-24T08:54:00.000Z</time>
      </trkpt>
      <trkpt lat="43.36502" lon="2.43546">
        <ele>731</ele>
        <time>2017-09-24T08:54:01.000Z</time>
      </trkpt>
      <trkpt lat="43.36503" lon="2.43545">
        <ele>731</ele>
        <time>2017-09-24T08:54:02.000Z</time>
      </trkpt>
      <trkpt lat="43.36503" lon="2.43544">
        <ele>731</ele>
        <time>2017-09-24T08:54:03.000Z</time>
      </trkpt>
      <trkpt lat="43.36504" lon="2.43543">
        <ele>731</ele>
        <time>2017-09-24T08:54:04.000Z</time>
      </trkpt>
      <trkpt lat="43.36504" lon="2.43542">
        <ele>731</ele>
        <time>2017-09-24T08:54:05.000Z</time>
      </trkpt>
      <trkpt lat="43.36505" lon="2.43541">
        <ele>732</ele>
        <time>2017-09-24T08:54:06.000Z</time>
      </trkpt>
      <trkpt lat="43.36505" lon="2.4354">
        <ele>732</ele>
        <time>2017-09-24T08:54:07.000Z</time>
      </trkpt>
      <trkpt lat="43.36505" lon="2.43539">
        <ele>732</ele>
        <time>2017-09-24T08:54:08.000Z</time>
      </trkpt>
      <trkpt lat="43.36506" lon="2.43538">
        <ele>732</ele>
        <time>2017-09-24T08:54:09.000Z</time>
      </trkpt>
      <trkpt lat="43.36506" lon="2.43537">
        <ele>732</ele>
        <time>2017-09-24T08:54:10.000Z</time>
      </trkpt>
      <trkpt lat="43.36507" lon="2.43536">
        <ele>732</ele>
        <time>2017-09-24T08:54:11.000Z</time>
      </trkpt>
      <trkpt lat="43.36508" lon="2.43536">
        <ele>732</ele>
        <time>2017-09-24T08:54:12.000Z</time>
      </trkpt>
      <trkpt lat="43.36509" lon="2.43536">
        <ele>732</ele>
        <time>2017-09-24T08:54:13.000Z</time>
      </trkpt>
      <trkpt lat="43.36509" lon="2.43535">
        <ele>732</ele>
        <time>2017-09-24T08:54:14.000Z</time>
      </trkpt>
      <trkpt lat="43.3651" lon="2.43535">
        <ele>732</ele>
        <time>2017-09-24T08:54:15.000Z</time>
      </trkpt>
      <trkpt lat="43.36511" lon="2.43535">
        <ele>732</ele>
        <time>2017-09-24T08:54:16.000Z</time>
      </trkpt>
      <trkpt lat="43.36512" lon="2.43534">
        <ele>732</ele>
        <time>2017-09-24T08:54:17.000Z</time>
      </trkpt>
      <trkpt lat="43.36512" lon="2.43534">
        <ele>732</ele>
        <time>2017-09-24T08:54:18.000Z</time>
      </trkpt>
      <trkpt lat="43.36513" lon="2.43534">
        <ele>732</ele>
        <time>2017-09-24T08:54:19.000Z</time>
      </trkpt>
      <trkpt lat="43.36514" lon="2.43534">
        <ele>733</ele>
        <time>2017-09-24T08:54:20.000Z</time>
      </trkpt>
      <trkpt lat="43.36515" lon="2.43534">
        <ele>733</ele>
        <time>2017-09-24T08:54:21.000Z</time>
      </trkpt>
      <trkpt lat="43.36516" lon="2.43534">
        <ele>733</ele>
        <time>2017-09-24T08:54:22.000Z</time>
      </trkpt>
      <trkpt lat="43.36517" lon="2.43534">
        <ele>733</ele>
        <time>2017-09-24T08:54:23.000Z</time>
      </trkpt>
      <trkpt lat="43.36518" lon="2.43534">
        <ele>733</ele>
        <time>2017-09-24T08:54:24.000Z</time>
      </trkpt>
      <trkpt lat="43.36519" lon="2.43535">
        <ele>733</ele>
        <time>2017-09-24T08:54:25.000Z</time>
      </trkpt>
      <trkpt lat="43.36519" lon="2.43535">
        <ele>733</ele>
        <time>2017-09-24T08:54:26.000Z</time>
      </trkpt>
      <trkpt lat="43.3652" lon="2.43535">
        <ele>733</ele>
        <time>2017-09-24T08:54:27.000Z</time>
      </trkpt>
      <trkpt lat="43.36521" lon="2.43535">
        <ele>733</ele>
        <time>2017-09-24T08:54:28.000Z</time>
      </trkpt>
      <trkpt lat="43.36522" lon="2.43535">
        <ele>733</ele>
        <time>2017-09-24T08:54:29.000Z</time>
      </trkpt>
      <trkpt lat="43.36523" lon="2.43536">
        <ele>733</ele>
        <time>2017-09-24T08:54:30.000Z</time>
      </trkpt>
      <trkpt lat="43.36524" lon="2.43536">
        <ele>733</ele>
        <time>2017-09-24T08:54:31.000Z</time>
      </trkpt>
      <trkpt lat="43.36525" lon="2.43537">
        <ele>733</ele>
        <time>2017-09-24T08:54:32.000Z</time>
      </trkpt>
      <trkpt lat="43.36526" lon="2.43538">
        <ele>733</ele>
        <time>2017-09-24T08:54:33.000Z</time>
      </trkpt>
      <trkpt lat="43.36527" lon="2.43539">
        <ele>734</ele>
        <time>2017-09-24T08:54:34.000Z</time>
      </trkpt>
      <trkpt lat="43.36527" lon="2.43539">
        <ele>734</ele>
        <time>2017-09-24T08:54:35.000Z</time>
      </trkpt>
      <trkpt lat="43.36528" lon="2.4354">
        <ele>734</ele>
        <time>2017-09-24T08:54:36.000Z</time>
      </trkpt>
      <trkpt lat="43.36529" lon="2.43541">
        <ele>734</ele>
        <time>2017-09-24T08:54:37.000Z</time>
      </trkpt>
      <trkpt lat="43.3653" lon="2.43542">
        <ele>734</ele>
        <time>2017-09-24T08:54:38.000Z</time>
      </trkpt>
      <trkpt lat="43.3653" lon="2.43543">
        <ele>734</ele>
        <time>2017-09-24T08:54:39.000Z</time>
      </trkpt>
      <trkpt lat="43.36531" lon="2.43544">
        <ele>734</ele>
        <time>2017-09-24T08:54:40.000Z</time>
      </trkpt>
      <trkpt lat="43.36532" lon="2.43545">
        <ele>734</ele>
        <time>2017-09-24T08:54:41.000Z</time>
      </trkpt>
      <trkpt lat="43.36533" lon="2.43546">
        <ele>734</ele>
        <time>2017-09-24T08:54:42.000Z</time>
      </trkpt>
      <trkpt lat="43.36534" lon="2.43547">
        <ele>734</ele>
        <time>2017-09-24T08:54:43.000Z</time>
      </trkpt>
      <trkpt lat="43.36535" lon="2.43548">
        <ele>734</ele>
        <time>2017-09-24T08:54:44.000Z</time>
      </trkpt>
      <trkpt lat="43.36536" lon="2.43549">
        <ele>734</ele>
        <time>2017-09-24T08:54:45.000Z</time>
      </trkpt>
      <trkpt lat="43.36536" lon="2.4355">
        <ele>734</ele>
        <time>2017-09-24T08:54:46.000Z</time>
      </trkpt>
      <trkpt lat="43.36537" lon="2.43551">
        <ele>734</ele>
        <time>2017-09-24T08:54:47.000Z</time>
      </trkpt>
      <trkpt lat="43.36538" lon="2.43552">
        <ele>734</ele>
        <time>2017-09-24T08:54:48.000Z</time>
      </trkpt>
      <trkpt lat="43.36538" lon="2.43553">
        <ele>734</ele>
        <time>2017-09-24T08:54:49.000Z</time>
      </trkpt>
      <trkpt lat="43.36538" lon="2.43554">
        <ele>734</ele>
        <time>2017-09-24T08:54:50.000Z</time>
      </trkpt>
      <trkpt lat="43.36539" lon="2.43555">
        <ele>734</ele>
        <time>2017-09-24T08:54:51.000Z</time>
      </trkpt>
      <trkpt lat="43.36539" lon="2.43556">
        <ele>734</ele>
        <time>2017-09-24T08:54:52.000Z</time>
      </trkpt>
      <trkpt lat="43.3654" lon="2.43557">
        <ele>734</ele>
        <time>2017-09-24T08:54:53.000Z</time>
      </trkpt>
      <trkpt lat="43.36541" lon="2.43558">
        <ele>735</ele>
        <time>2017-09-24T08:54:54.000Z</time>
      </trkpt>
      <trkpt lat="43.36542" lon="2.43559">
        <ele>735</ele>
        <time>2017-09-24T08:54:55.000Z</time>
      </trkpt>
      <trkpt lat="43.36542" lon="2.4356">
        <ele>735</ele>
        <time>2017-09-24T08:54:56.000Z</time>
      </trkpt>
      <trkpt lat="43.36543" lon="2.4356">
        <ele>735</ele>
        <time>2017-09-24T08:54:57.000Z</time>
      </trkpt>
      <trkpt lat="43.36544" lon="2.43561">
        <ele>735</ele>
        <time>2017-09-24T08:54:58.000Z</time>
      </trkpt>
      <trkpt lat="43.36545" lon="2.43562">
        <ele>735</ele>
        <time>2017-09-24T08:54:59.000Z</time>
      </trkpt>
      <trkpt lat="43.36545" lon="2.43563">
        <ele>735</ele>
        <time>2017-09-24T08:55:00.000Z</time>
      </trkpt>
      <trkpt lat="43.36546" lon="2.43565">
        <ele>735</ele>
        <time>2017-09-24T08:55:01.000Z</time>
      </trkpt>
      <trkpt lat="43.36547" lon="2.43566">
        <ele>735</ele>
        <time>2017-09-24T08:55:02.000Z</time>
      </trkpt>
      <trkpt lat="43.36547" lon="2.43566">
        <ele>735</ele>
        <time>2017-09-24T08:55:03.000Z</time>
      </trkpt>
      <trkpt lat="43.36548" lon="2.43568">
        <ele>735</ele>
        <time>2017-09-24T08:55:04.000Z</time>
      </trkpt>
      <trkpt lat="43.36549" lon="2.43569">
        <ele>735</ele>
        <time>2017-09-24T08:55:05.000Z</time>
      </trkpt>
      <trkpt lat="43.36549" lon="2.4357">
        <ele>735</ele>
        <time>2017-09-24T08:55:06.000Z</time>
      </trkpt>
      <trkpt lat="43.3655" lon="2.43571">
        <ele>735</ele>
        <time>2017-09-24T08:55:07.000Z</time>
      </trkpt>
      <trkpt lat="43.3655" lon="2.43571">
        <ele>735</ele>
        <time>2017-09-24T08:55:08.000Z</time>
      </trkpt>
      <trkpt lat="43.36551" lon="2.43572">
        <ele>735</ele>
        <time>2017-09-24T08:55:09.000Z</time>
      </trkpt>
      <trkpt lat="43.36551" lon="2.43573">
        <ele>735</ele>
        <time>2017-09-24T08:55:10.000Z</time>
      </trkpt>
      <trkpt lat="43.36552" lon="2.43574">
        <ele>735</ele>
        <time>2017-09-24T08:55:11.000Z</time>
      </trkpt>
      <trkpt lat="43.36553" lon="2.43575">
        <ele>735</ele>
        <time>2017-09-24T08:55:12.000Z</time>
      </trkpt>
      <trkpt lat="43.36553" lon="2.43576">
        <ele>735</ele>
        <time>2017-09-24T08:55:13.000Z</time>
      </trkpt>
      <trkpt lat="43.36554" lon="2.43577">
        <ele>735</ele>
        <time>2017-09-24T08:55:14.000Z</time>
      </trkpt>
      <trkpt lat="43.36554" lon="2.43578">
        <ele>735</ele>
        <time>2017-09-24T08:55:15.000Z</time>
      </trkpt>
      <trkpt lat="43.36555" lon="2.4358">
        <ele>735</ele>
        <time>2017-09-24T08:55:16.000Z</time>
      </trkpt>
      <trkpt lat="43.36556" lon="2.43581">
        <ele>736</ele>
        <time>2017-09-24T08:55:17.000Z</time>
      </trkpt>
      <trkpt lat="43.36556" lon="2.43582">
        <ele>736</ele>
        <time>2017-09-24T08:55:18.000Z</time>
      </trkpt>
      <trkpt lat="43.36557" lon="2.43583">
        <ele>736</ele>
        <time>2017-09-24T08:55:19.000Z</time>
      </trkpt>
      <trkpt lat="43.36557" lon="2.43584">
        <ele>736</ele>
        <time>2017-09-24T08:55:20.000Z</time>
      </trkpt>
      <trkpt lat="43.36558" lon="2.43585">
        <ele>736</ele>
        <time>2017-09-24T08:55:21.000Z</time>
      </trkpt>
      <trkpt lat="43.36558" lon="2.43586">
        <ele>736</ele>
        <time>2017-09-24T08:55:22.000Z</time>
      </trkpt>
      <trkpt lat="43.36559" lon="2.43586">
        <ele>736</ele>
        <time>2017-09-24T08:55:23.000Z</time>
      </trkpt>
      <trkpt lat="43.3656" lon="2.43587">
        <ele>736</ele>
        <time>2017-09-24T08:55:24.000Z</time>
      </trkpt>
      <trkpt lat="43.3656" lon="2.43587">
        <ele>736</ele>
        <time>2017-09-24T08:55:25.000Z</time>
      </trkpt>
      <trkpt lat="43.36561" lon="2.43588">
        <ele>736</ele>
        <time>2017-09-24T08:55:26.000Z</time>
      </trkpt>
      <trkpt lat="43.36561" lon="2.43589">
        <ele>736</ele>
        <time>2017-09-24T08:55:27.000Z</time>
      </trkpt>
      <trkpt lat="43.36562" lon="2.43589">
        <ele>736</ele>
        <time>2017-09-24T08:55:28.000Z</time>
      </trkpt>
      <trkpt lat="43.36563" lon="2.4359">
        <ele>736</ele>
        <time>2017-09-24T08:55:29.000Z</time>
      </trkpt>
      <trkpt lat="43.36563" lon="2.4359">
        <ele>736</ele>
        <time>2017-09-24T08:55:30.000Z</time>
      </trkpt>
      <trkpt lat="43.36564" lon="2.43591">
        <ele>736</ele>
        <time>2017-09-24T08:55:31.000Z</time>
      </trkpt>
      <trkpt lat="43.36564" lon="2.43591">
        <ele>736</ele>
        <time>2017-09-24T08:55:32.000Z</time>
      </trkpt>
      <trkpt lat="43.36565" lon="2.43592">
        <ele>736</ele>
        <time>2017-09-24T08:55:33.000Z</time>
      </trkpt>
      <trkpt lat="43.36566" lon="2.43592">
        <ele>736</ele>
        <time>2017-09-24T08:55:34.000Z</time>
      </trkpt>
      <trkpt lat="43.36567" lon="2.43593">
        <ele>737</ele>
        <time>2017-09-24T08:55:35.000Z</time>
      </trkpt>
      <trkpt lat="43.36567" lon="2.43593">
        <ele>737</ele>
        <time>2017-09-24T08:55:36.000Z</time>
      </trkpt>
      <trkpt lat="43.36568" lon="2.43594">
        <ele>737</ele>
        <time>2017-09-24T08:55:37.000Z</time>
      </trkpt>
      <trkpt lat="43.36569" lon="2.43594">
        <ele>737</ele>
        <time>2017-09-24T08:55:38.000Z</time>
      </trkpt>
      <trkpt lat="43.3657" lon="2.43595">
        <ele>737</ele>
        <time>2017-09-24T08:55:39.000Z</time>
      </trkpt>
      <trkpt lat="43.3657" lon="2.43595">
        <ele>737</ele>
        <time>2017-09-24T08:55:40.000Z</time>
      </trkpt>
      <trkpt lat="43.36572" lon="2.43596">
        <ele>737</ele>
        <time>2017-09-24T08:55:41.000Z</time>
      </trkpt>
      <trkpt lat="43.36572" lon="2.43597">
        <ele>737</ele>
        <time>2017-09-24T08:55:42.000Z</time>
      </trkpt>
      <trkpt lat="43.36573" lon="2.43598">
        <ele>737</ele>
        <time>2017-09-24T08:55:43.000Z</time>
      </trkpt>
      <trkpt lat="43.36574" lon="2.43598">
        <ele>737</ele>
        <time>2017-09-24T08:55:44.000Z</time>
      </trkpt>
      <trkpt lat="43.36575" lon="2.43599">
        <ele>737</ele>
        <time>2017-09-24T08:55:45.000Z</time>
      </trkpt>
      <trkpt lat="43.36575" lon="2.436">
        <ele>737</ele>
        <time>2017-09-24T08:55:46.000Z</time>
      </trkpt>
      <trkpt lat="43.36576" lon="2.436">
        <ele>737</ele>
        <time>2017-09-24T08:55:47.000Z</time>
      </trkpt>
      <trkpt lat="43.36577" lon="2.43601">
        <ele>737</ele>
        <time>2017-09-24T08:55:48.000Z</time>
      </trkpt>
      <trkpt lat="43.36578" lon="2.43602">
        <ele>738</ele>
        <time>2017-09-24T08:55:49.000Z</time>
      </trkpt>
      <trkpt lat="43.36579" lon="2.43603">
        <ele>738</ele>
        <time>2017-09-24T08:55:50.000Z</time>
      </trkpt>
      <trkpt lat="43.36579" lon="2.43603">
        <ele>738</ele>
        <time>2017-09-24T08:55:51.000Z</time>
      </trkpt>
      <trkpt lat="43.3658" lon="2.43604">
        <ele>738</ele>
        <time>2017-09-24T08:55:52.000Z</time>
      </trkpt>
      <trkpt lat="43.36581" lon="2.43605">
        <ele>738</ele>
        <time>2017-09-24T08:55:53.000Z</time>
      </trkpt>
      <trkpt lat="43.36581" lon="2.43605">
        <ele>738</ele>
        <time>2017-09-24T08:55:54.000Z</time>
      </trkpt>
      <trkpt lat="43.36582" lon="2.43606">
        <ele>738</ele>
        <time>2017-09-24T08:55:55.000Z</time>
      </trkpt>
      <trkpt lat="43.36583" lon="2.43606">
        <ele>738</ele>
        <time>2017-09-24T08:55:56.000Z</time>
      </trkpt>
      <trkpt lat="43.36583" lon="2.43606">
        <ele>738</ele>
        <time>2017-09-24T08:55:57.000Z</time>
      </trkpt>
      <trkpt lat="43.36584" lon="2.43607">
        <ele>738</ele>
        <time>2017-09-24T08:55:58.000Z</time>
      </trkpt>
      <trkpt lat="43.36585" lon="2.43608">
        <ele>738</ele>
        <time>2017-09-24T08:55:59.000Z</time>
      </trkpt>
      <trkpt lat="43.36586" lon="2.43608">
        <ele>738</ele>
        <time>2017-09-24T08:56:00.000Z</time>
      </trkpt>
      <trkpt lat="43.36587" lon="2.43608">
        <ele>738</ele>
        <time>2017-09-24T08:56:01.000Z</time>
      </trkpt>
      <trkpt lat="43.36587" lon="2.43609">
        <ele>738</ele>
        <time>2017-09-24T08:56:02.000Z</time>
      </trkpt>
      <trkpt lat="43.36588" lon="2.4361">
        <ele>739</ele>
        <time>2017-09-24T08:56:03.000Z</time>
      </trkpt>
      <trkpt lat="43.36589" lon="2.4361">
        <ele>739</ele>
        <time>2017-09-24T08:56:04.000Z</time>
      </trkpt>
      <trkpt lat="43.36589" lon="2.43611">
        <ele>739</ele>
        <time>2017-09-24T08:56:05.000Z</time>
      </trkpt>
      <trkpt lat="43.3659" lon="2.43611">
        <ele>739</ele>
        <time>2017-09-24T08:56:06.000Z</time>
      </trkpt>
      <trkpt lat="43.36591" lon="2.43612">
        <ele>739</ele>
        <time>2017-09-24T08:56:07.000Z</time>
      </trkpt>
      <trkpt lat="43.36592" lon="2.43612">
        <ele>739</ele>
        <time>2017-09-24T08:56:08.000Z</time>
      </trkpt>
      <trkpt lat="43.36592" lon="2.43613">
        <ele>739</ele>
        <time>2017-09-24T08:56:09.000Z</time>
      </trkpt>
      <trkpt lat="43.36593" lon="2.43613">
        <ele>739</ele>
        <time>2017-09-24T08:56:10.000Z</time>
      </trkpt>
      <trkpt lat="43.36594" lon="2.43614">
        <ele>739</ele>
        <time>2017-09-24T08:56:11.000Z</time>
      </trkpt>
      <trkpt lat="43.36595" lon="2.43615">
        <ele>739</ele>
        <time>2017-09-24T08:56:12.000Z</time>
      </trkpt>
      <trkpt lat="43.36596" lon="2.43616">
        <ele>739</ele>
        <time>2017-09-24T08:56:13.000Z</time>
      </trkpt>
      <trkpt lat="43.36597" lon="2.43616">
        <ele>739</ele>
        <time>2017-09-24T08:56:14.000Z</time>
      </trkpt>
      <trkpt lat="43.36598" lon="2.43616">
        <ele>739</ele>
        <time>2017-09-24T08:56:15.000Z</time>
      </trkpt>
      <trkpt lat="43.36599" lon="2.43617">
        <ele>739</ele>
        <time>2017-09-24T08:56:16.000Z</time>
      </trkpt>
      <trkpt lat="43.366" lon="2.43618">
        <ele>739</ele>
        <time>2017-09-24T08:56:17.000Z</time>
      </trkpt>
      <trkpt lat="43.36601" lon="2.43618">
        <ele>739</ele>
        <time>2017-09-24T08:56:18.000Z</time>
      </trkpt>
      <trkpt lat="43.36602" lon="2.43619">
        <ele>739</ele>
        <time>2017-09-24T08:56:19.000Z</time>
      </trkpt>
      <trkpt lat="43.36603" lon="2.4362">
        <ele>739</ele>
        <time>2017-09-24T08:56:20.000Z</time>
      </trkpt>
      <trkpt lat="43.36603" lon="2.43621">
        <ele>739</ele>
        <time>2017-09-24T08:56:21.000Z</time>
      </trkpt>
      <trkpt lat="43.36604" lon="2.43621">
        <ele>739</ele>
        <time>2017-09-24T08:56:22.000Z</time>
      </trkpt>
      <trkpt lat="43.36605" lon="2.43622">
        <ele>739</ele>
        <time>2017-09-24T08:56:23.000Z</time>
      </trkpt>
      <trkpt lat="43.36606" lon="2.43622">
        <ele>739</ele>
        <time>2017-09-24T08:56:24.000Z</time>
      </trkpt>
      <trkpt lat="43.36608" lon="2.43624">
        <ele>739</ele>
        <time>2017-09-24T08:56:25.000Z</time>
      </trkpt>
      <trkpt lat="43.36609" lon="2.43624">
        <ele>738</ele>
        <time>2017-09-24T08:56:26.000Z</time>
      </trkpt>
      <trkpt lat="43.3661" lon="2.43625">
        <ele>738</ele>
        <time>2017-09-24T08:56:27.000Z</time>
      </trkpt>
      <trkpt lat="43.36611" lon="2.43626">
        <ele>738</ele>
        <time>2017-09-24T08:56:28.000Z</time>
      </trkpt>
      <trkpt lat="43.36612" lon="2.43626">
        <ele>738</ele>
        <time>2017-09-24T08:56:29.000Z</time>
      </trkpt>
      <trkpt lat="43.36613" lon="2.43627">
        <ele>738</ele>
        <time>2017-09-24T08:56:30.000Z</time>
      </trkpt>
      <trkpt lat="43.36614" lon="2.43627">
        <ele>738</ele>
        <time>2017-09-24T08:56:31.000Z</time>
      </trkpt>
      <trkpt lat="43.36615" lon="2.43628">
        <ele>738</ele>
        <time>2017-09-24T08:56:32.000Z</time>
      </trkpt>
      <trkpt lat="43.36616" lon="2.43628">
        <ele>738</ele>
        <time>2017-09-24T08:56:33.000Z</time>
      </trkpt>
      <trkpt lat="43.36617" lon="2.43629">
        <ele>738</ele>
        <time>2017-09-24T08:56:34.000Z</time>
      </trkpt>
      <trkpt lat="43.36618" lon="2.4363">
        <ele>738</ele>
        <time>2017-09-24T08:56:35.000Z</time>
      </trkpt>
      <trkpt lat="43.36619" lon="2.43631">
        <ele>738</ele>
        <time>2017-09-24T08:56:36.000Z</time>
      </trkpt>
      <trkpt lat="43.3662" lon="2.43632">
        <ele>737</ele>
        <time>2017-09-24T08:56:37.000Z</time>
      </trkpt>
      <trkpt lat="43.36621" lon="2.43633">
        <ele>737</ele>
        <time>2017-09-24T08:56:38.000Z</time>
      </trkpt>
      <trkpt lat="43.36622" lon="2.43634">
        <ele>737</ele>
        <time>2017-09-24T08:56:39.000Z</time>
      </trkpt>
      <trkpt lat="43.36623" lon="2.43635">
        <ele>737</ele>
        <time>2017-09-24T08:56:40.000Z</time>
      </trkpt>
      <trkpt lat="43.36624" lon="2.43636">
        <ele>737</ele>
        <time>2017-09-24T08:56:41.000Z</time>
      </trkpt>
      <trkpt lat="43.36625" lon="2.43637">
        <ele>737</ele>
        <time>2017-09-24T08:56:42.000Z</time>
      </trkpt>
      <trkpt lat="43.36626" lon="2.43639">
        <ele>737</ele>
        <time>2017-09-24T08:56:43.000Z</time>
      </trkpt>
      <trkpt lat="43.36627" lon="2.4364">
        <ele>737</ele>
        <time>2017-09-24T08:56:44.000Z</time>
      </trkpt>
      <trkpt lat="43.36628" lon="2.43641">
        <ele>737</ele>
        <time>2017-09-24T08:56:45.000Z</time>
      </trkpt>
      <trkpt lat="43.36628" lon="2.43642">
        <ele>737</ele>
        <time>2017-09-24T08:56:46.000Z</time>
      </trkpt>
      <trkpt lat="43.36629" lon="2.43643">
        <ele>737</ele>
        <time>2017-09-24T08:56:47.000Z</time>
      </trkpt>
      <trkpt lat="43.3663" lon="2.43645">
        <ele>737</ele>
        <time>2017-09-24T08:56:48.000Z</time>
      </trkpt>
      <trkpt lat="43.36631" lon="2.43646">
        <ele>737</ele>
        <time>2017-09-24T08:56:49.000Z</time>
      </trkpt>
      <trkpt lat="43.36631" lon="2.43647">
        <ele>737</ele>
        <time>2017-09-24T08:56:50.000Z</time>
      </trkpt>
      <trkpt lat="43.36632" lon="2.43649">
        <ele>736</ele>
        <time>2017-09-24T08:56:51.000Z</time>
      </trkpt>
      <trkpt lat="43.36633" lon="2.4365">
        <ele>736</ele>
        <time>2017-09-24T08:56:52.000Z</time>
      </trkpt>
      <trkpt lat="43.36634" lon="2.43651">
        <ele>736</ele>
        <time>2017-09-24T08:56:53.000Z</time>
      </trkpt>
      <trkpt lat="43.36634" lon="2.43653">
        <ele>736</ele>
        <time>2017-09-24T08:56:54.000Z</time>
      </trkpt>
      <trkpt lat="43.36635" lon="2.43654">
        <ele>736</ele>
        <time>2017-09-24T08:56:55.000Z</time>
      </trkpt>
      <trkpt lat="43.36635" lon="2.43655">
        <ele>736</ele>
        <time>2017-09-24T08:56:56.000Z</time>
      </trkpt>
      <trkpt lat="43.36636" lon="2.43656">
        <ele>736</ele>
        <time>2017-09-24T08:56:57.000Z</time>
      </trkpt>
      <trkpt lat="43.36636" lon="2.43658">
        <ele>736</ele>
        <time>2017-09-24T08:56:58.000Z</time>
      </trkpt>
      <trkpt lat="43.36637" lon="2.43659">
        <ele>736</ele>
        <time>2017-09-24T08:56:59.000Z</time>
      </trkpt>
      <trkpt lat="43.36637" lon="2.4366">
        <ele>736</ele>
        <time>2017-09-24T08:57:00.000Z</time>
      </trkpt>
      <trkpt lat="43.36638" lon="2.43662">
        <ele>736</ele>
        <time>2017-09-24T08:57:01.000Z</time>
      </trkpt>
      <trkpt lat="43.36639" lon="2.43663">
        <ele>736</ele>
        <time>2017-09-24T08:57:02.000Z</time>
      </trkpt>
      <trkpt lat="43.36639" lon="2.43664">
        <ele>736</ele>
        <time>2017-09-24T08:57:03.000Z</time>
      </trkpt>
      <trkpt lat="43.3664" lon="2.43666">
        <ele>736</ele>
        <time>2017-09-24T08:57:04.000Z</time>
      </trkpt>
      <trkpt lat="43.3664" lon="2.43667">
        <ele>736</ele>
        <time>2017-09-24T08:57:05.000Z</time>
      </trkpt>
      <trkpt lat="43.3664" lon="2.43668">
        <ele>736</ele>
        <time>2017-09-24T08:57:06.000Z</time>
      </trkpt>
      <trkpt lat="43.36641" lon="2.4367">
        <ele>736</ele>
        <time>2017-09-24T08:57:07.000Z</time>
      </trkpt>
      <trkpt lat="43.36641" lon="2.43671">
        <ele>736</ele>
        <time>2017-09-24T08:57:08.000Z</time>
      </trkpt>
      <trkpt lat="43.36641" lon="2.43672">
        <ele>736</ele>
        <time>2017-09-24T08:57:09.000Z</time>
      </trkpt>
      <trkpt lat="43.36642" lon="2.43673">
        <ele>736</ele>
        <time>2017-09-24T08:57:10.000Z</time>
      </trkpt>
      <trkpt lat="43.36642" lon="2.43675">
        <ele>736</ele>
        <time>2017-09-24T08:57:11.000Z</time>
      </trkpt>
      <trkpt lat="43.36643" lon="2.43676">
        <ele>736</ele>
        <time>2017-09-24T08:57:12.000Z</time>
      </trkpt>
      <trkpt lat="43.36643" lon="2.43677">
        <ele>736</ele>
        <time>2017-09-24T08:57:13.000Z</time>
      </trkpt>
      <trkpt lat="43.36644" lon="2.43678">
        <ele>736</ele>
        <time>2017-09-24T08:57:14.000Z</time>
      </trkpt>
      <trkpt lat="43.36645" lon="2.4368">
        <ele>736</ele>
        <time>2017-09-24T08:57:15.000Z</time>
      </trkpt>
      <trkpt lat="43.36645" lon="2.43681">
        <ele>736</ele>
        <time>2017-09-24T08:57:16.000Z</time>
      </trkpt>
      <trkpt lat="43.36646" lon="2.43682">
        <ele>736</ele>
        <time>2017-09-24T08:57:17.000Z</time>
      </trkpt>
      <trkpt lat="43.36646" lon="2.43684">
        <ele>736</ele>
        <time>2017-09-24T08:57:18.000Z</time>
      </trkpt>
      <trkpt lat="43.36647" lon="2.43685">
        <ele>736</ele>
        <time>2017-09-24T08:57:19.000Z</time>
      </trkpt>
      <trkpt lat="43.36647" lon="2.43687">
        <ele>736</ele>
        <time>2017-09-24T08:57:20.000Z</time>
      </trkpt>
      <trkpt lat="43.36648" lon="2.43688">
        <ele>736</ele>
        <time>2017-09-24T08:57:21.000Z</time>
      </trkpt>
      <trkpt lat="43.36648" lon="2.43689">
        <ele>736</ele>
        <time>2017-09-24T08:57:22.000Z</time>
      </trkpt>
      <trkpt lat="43.36649" lon="2.43691">
        <ele>736</ele>
        <time>2017-09-24T08:57:23.000Z</time>
      </trkpt>
      <trkpt lat="43.3665" lon="2.43692">
        <ele>736</ele>
        <time>2017-09-24T08:57:24.000Z</time>
      </trkpt>
      <trkpt lat="43.3665" lon="2.43693">
        <ele>736</ele>
        <time>2017-09-24T08:57:25.000Z</time>
      </trkpt>
      <trkpt lat="43.36651" lon="2.43695">
        <ele>736</ele>
        <time>2017-09-24T08:57:26.000Z</time>
      </trkpt>
      <trkpt lat="43.36652" lon="2.43696">
        <ele>736</ele>
        <time>2017-09-24T08:57:27.000Z</time>
      </trkpt>
      <trkpt lat="43.36653" lon="2.43697">
        <ele>735</ele>
        <time>2017-09-24T08:57:28.000Z</time>
      </trkpt>
      <trkpt lat="43.36653" lon="2.43698">
        <ele>735</ele>
        <time>2017-09-24T08:57:29.000Z</time>
      </trkpt>
      <trkpt lat="43.36653" lon="2.437">
        <ele>735</ele>
        <time>2017-09-24T08:57:30.000Z</time>
      </trkpt>
      <trkpt lat="43.36654" lon="2.43701">
        <ele>736</ele>
        <time>2017-09-24T08:57:31.000Z</time>
      </trkpt>
      <trkpt lat="43.36654" lon="2.43703">
        <ele>735</ele>
        <time>2017-09-24T08:57:32.000Z</time>
      </trkpt>
      <trkpt lat="43.36655" lon="2.43704">
        <ele>735</ele>
        <time>2017-09-24T08:57:33.000Z</time>
      </trkpt>
      <trkpt lat="43.36655" lon="2.43705">
        <ele>735</ele>
        <time>2017-09-24T08:57:34.000Z</time>
      </trkpt>
      <trkpt lat="43.36656" lon="2.43706">
        <ele>735</ele>
        <time>2017-09-24T08:57:35.000Z</time>
      </trkpt>
      <trkpt lat="43.36657" lon="2.43708">
        <ele>735</ele>
        <time>2017-09-24T08:57:36.000Z</time>
      </trkpt>
      <trkpt lat="43.36657" lon="2.43709">
        <ele>735</ele>
        <time>2017-09-24T08:57:37.000Z</time>
      </trkpt>
      <trkpt lat="43.36658" lon="2.4371">
        <ele>735</ele>
        <time>2017-09-24T08:57:38.000Z</time>
      </trkpt>
      <trkpt lat="43.36658" lon="2.43711">
        <ele>735</ele>
        <time>2017-09-24T08:57:39.000Z</time>
      </trkpt>
      <trkpt lat="43.36659" lon="2.43713">
        <ele>735</ele>
        <time>2017-09-24T08:57:40.000Z</time>
      </trkpt>
      <trkpt lat="43.3666" lon="2.43714">
        <ele>735</ele>
        <time>2017-09-24T08:57:41.000Z</time>
      </trkpt>
      <trkpt lat="43.36661" lon="2.43716">
        <ele>735</ele>
        <time>2017-09-24T08:57:42.000Z</time>
      </trkpt>
      <trkpt lat="43.36662" lon="2.43717">
        <ele>735</ele>
        <time>2017-09-24T08:57:43.000Z</time>
      </trkpt>
      <trkpt lat="43.36663" lon="2.43718">
        <ele>735</ele>
        <time>2017-09-24T08:57:44.000Z</time>
      </trkpt>
      <trkpt lat="43.36663" lon="2.43719">
        <ele>735</ele>
        <time>2017-09-24T08:57:45.000Z</time>
      </trkpt>
      <trkpt lat="43.36664" lon="2.4372">
        <ele>735</ele>
        <time>2017-09-24T08:57:46.000Z</time>
      </trkpt>
      <trkpt lat="43.36664" lon="2.43722">
        <ele>735</ele>
        <time>2017-09-24T08:57:47.000Z</time>
      </trkpt>
      <trkpt lat="43.36664" lon="2.43723">
        <ele>735</ele>
        <time>2017-09-24T08:57:48.000Z</time>
      </trkpt>
      <trkpt lat="43.36665" lon="2.43724">
        <ele>735</ele>
        <time>2017-09-24T08:57:49.000Z</time>
      </trkpt>
      <trkpt lat="43.36665" lon="2.43726">
        <ele>735</ele>
        <time>2017-09-24T08:57:50.000Z</time>
      </trkpt>
      <trkpt lat="43.36666" lon="2.43727">
        <ele>735</ele>
        <time>2017-09-24T08:57:51.000Z</time>
      </trkpt>
      <trkpt lat="43.36666" lon="2.43728">
        <ele>735</ele>
        <time>2017-09-24T08:57:52.000Z</time>
      </trkpt>
      <trkpt lat="43.36667" lon="2.43729">
        <ele>735</ele>
        <time>2017-09-24T08:57:53.000Z</time>
      </trkpt>
      <trkpt lat="43.36667" lon="2.4373">
        <ele>735</ele>
        <time>2017-09-24T08:57:54.000Z</time>
      </trkpt>
      <trkpt lat="43.36668" lon="2.43732">
        <ele>735</ele>
        <time>2017-09-24T08:57:55.000Z</time>
      </trkpt>
      <trkpt lat="43.36668" lon="2.43733">
        <ele>735</ele>
        <time>2017-09-24T08:57:56.000Z</time>
      </trkpt>
      <trkpt lat="43.36669" lon="2.43735">
        <ele>735</ele>
        <time>2017-09-24T08:57:57.000Z</time>
      </trkpt>
      <trkpt lat="43.3667" lon="2.43736">
        <ele>735</ele>
        <time>2017-09-24T08:57:58.000Z</time>
      </trkpt>
      <trkpt lat="43.36671" lon="2.43737">
        <ele>735</ele>
        <time>2017-09-24T08:57:59.000Z</time>
      </trkpt>
      <trkpt lat="43.36672" lon="2.43737">
        <ele>735</ele>
        <time>2017-09-24T08:58:00.000Z</time>
      </trkpt>
      <trkpt lat="43.36673" lon="2.43738">
        <ele>735</ele>
        <time>2017-09-24T08:58:01.000Z</time>
      </trkpt>
      <trkpt lat="43.36674" lon="2.43739">
        <ele>734</ele>
        <time>2017-09-24T08:58:02.000Z</time>
      </trkpt>
      <trkpt lat="43.36674" lon="2.4374">
        <ele>734</ele>
        <time>2017-09-24T08:58:03.000Z</time>
      </trkpt>
      <trkpt lat="43.36675" lon="2.43741">
        <ele>734</ele>
        <time>2017-09-24T08:58:04.000Z</time>
      </trkpt>
      <trkpt lat="43.36675" lon="2.43742">
        <ele>734</ele>
        <time>2017-09-24T08:58:05.000Z</time>
      </trkpt>
      <trkpt lat="43.36676" lon="2.43743">
        <ele>734</ele>
        <time>2017-09-24T08:58:06.000Z</time>
      </trkpt>
      <trkpt lat="43.36676" lon="2.43745">
        <ele>734</ele>
        <time>2017-09-24T08:58:07.000Z</time>
      </trkpt>
      <trkpt lat="43.36677" lon="2.43746">
        <ele>734</ele>
        <time>2017-09-24T08:58:08.000Z</time>
      </trkpt>
      <trkpt lat="43.36677" lon="2.43747">
        <ele>734</ele>
        <time>2017-09-24T08:58:09.000Z</time>
      </trkpt>
      <trkpt lat="43.36678" lon="2.43749">
        <ele>734</ele>
        <time>2017-09-24T08:58:10.000Z</time>
      </trkpt>
      <trkpt lat="43.36679" lon="2.4375">
        <ele>734</ele>
        <time>2017-09-24T08:58:11.000Z</time>
      </trkpt>
      <trkpt lat="43.36679" lon="2.43752">
        <ele>734</ele>
        <time>2017-09-24T08:58:12.000Z</time>
      </trkpt>
      <trkpt lat="43.3668" lon="2.43753">
        <ele>734</ele>
        <time>2017-09-24T08:58:13.000Z</time>
      </trkpt>
      <trkpt lat="43.3668" lon="2.43754">
        <ele>734</ele>
        <time>2017-09-24T08:58:14.000Z</time>
      </trkpt>
      <trkpt lat="43.36681" lon="2.43756">
        <ele>734</ele>
        <time>2017-09-24T08:58:15.000Z</time>
      </trkpt>
      <trkpt lat="43.36682" lon="2.43758">
        <ele>734</ele>
        <time>2017-09-24T08:58:16.000Z</time>
      </trkpt>
      <trkpt lat="43.36682" lon="2.43759">
        <ele>734</ele>
        <time>2017-09-24T08:58:17.000Z</time>
      </trkpt>
      <trkpt lat="43.36682" lon="2.4376">
        <ele>734</ele>
        <time>2017-09-24T08:58:18.000Z</time>
      </trkpt>
      <trkpt lat="43.36683" lon="2.43762">
        <ele>734</ele>
        <time>2017-09-24T08:58:19.000Z</time>
      </trkpt>
      <trkpt lat="43.36683" lon="2.43763">
        <ele>733</ele>
        <time>2017-09-24T08:58:20.000Z</time>
      </trkpt>
      <trkpt lat="43.36684" lon="2.43765">
        <ele>733</ele>
        <time>2017-09-24T08:58:21.000Z</time>
      </trkpt>
      <trkpt lat="43.36685" lon="2.43766">
        <ele>733</ele>
        <time>2017-09-24T08:58:22.000Z</time>
      </trkpt>
      <trkpt lat="43.36685" lon="2.43768">
        <ele>733</ele>
        <time>2017-09-24T08:58:23.000Z</time>
      </trkpt>
      <trkpt lat="43.36685" lon="2.43769">
        <ele>733</ele>
        <time>2017-09-24T08:58:24.000Z</time>
      </trkpt>
      <trkpt lat="43.36686" lon="2.4377">
        <ele>733</ele>
        <time>2017-09-24T08:58:25.000Z</time>
      </trkpt>
      <trkpt lat="43.36686" lon="2.43771">
        <ele>733</ele>
        <time>2017-09-24T08:58:26.000Z</time>
      </trkpt>
      <trkpt lat="43.36687" lon="2.43773">
        <ele>733</ele>
        <time>2017-09-24T08:58:27.000Z</time>
      </trkpt>
      <trkpt lat="43.36687" lon="2.43774">
        <ele>732</ele>
        <time>2017-09-24T08:58:28.000Z</time>
      </trkpt>
      <trkpt lat="43.36687" lon="2.43776">
        <ele>732</ele>
        <time>2017-09-24T08:58:29.000Z</time>
      </trkpt>
      <trkpt lat="43.36688" lon="2.43778">
        <ele>732</ele>
        <time>2017-09-24T08:58:30.000Z</time>
      </trkpt>
      <trkpt lat="43.36688" lon="2.43779">
        <ele>732</ele>
        <time>2017-09-24T08:58:31.000Z</time>
      </trkpt>
      <trkpt lat="43.36689" lon="2.4378">
        <ele>732</ele>
        <time>2017-09-24T08:58:32.000Z</time>
      </trkpt>
      <trkpt lat="43.36689" lon="2.43782">
        <ele>732</ele>
        <time>2017-09-24T08:58:33.000Z</time>
      </trkpt>
      <trkpt lat="43.3669" lon="2.43783">
        <ele>732</ele>
        <time>2017-09-24T08:58:34.000Z</time>
      </trkpt>
      <trkpt lat="43.3669" lon="2.43785">
        <ele>732</ele>
        <time>2017-09-24T08:58:35.000Z</time>
      </trkpt>
      <trkpt lat="43.3669" lon="2.43787">
        <ele>732</ele>
        <time>2017-09-24T08:58:36.000Z</time>
      </trkpt>
      <trkpt lat="43.3669" lon="2.43789">
        <ele>732</ele>
        <time>2017-09-24T08:58:37.000Z</time>
      </trkpt>
      <trkpt lat="43.3669" lon="2.4379">
        <ele>732</ele>
        <time>2017-09-24T08:58:38.000Z</time>
      </trkpt>
      <trkpt lat="43.3669" lon="2.43792">
        <ele>732</ele>
        <time>2017-09-24T08:58:39.000Z</time>
      </trkpt>
      <trkpt lat="43.3669" lon="2.43793">
        <ele>732</ele>
        <time>2017-09-24T08:58:40.000Z</time>
      </trkpt>
      <trkpt lat="43.3669" lon="2.43795">
        <ele>732</ele>
        <time>2017-09-24T08:58:41.000Z</time>
      </trkpt>
      <trkpt lat="43.3669" lon="2.43796">
        <ele>732</ele>
        <time>2017-09-24T08:58:42.000Z</time>
      </trkpt>
      <trkpt lat="43.3669" lon="2.43798">
        <ele>732</ele>
        <time>2017-09-24T08:58:43.000Z</time>
      </trkpt>
      <trkpt lat="43.3669" lon="2.43799">
        <ele>732</ele>
        <time>2017-09-24T08:58:44.000Z</time>
      </trkpt>
      <trkpt lat="43.3669" lon="2.43801">
        <ele>732</ele>
        <time>2017-09-24T08:58:45.000Z</time>
      </trkpt>
      <trkpt lat="43.36691" lon="2.43802">
        <ele>732</ele>
        <time>2017-09-24T08:58:46.000Z</time>
      </trkpt>
      <trkpt lat="43.36691" lon="2.43804">
        <ele>731</ele>
        <time>2017-09-24T08:58:47.000Z</time>
      </trkpt>
      <trkpt lat="43.36692" lon="2.43806">
        <ele>731</ele>
        <time>2017-09-24T08:58:48.000Z</time>
      </trkpt>
      <trkpt lat="43.36692" lon="2.43807">
        <ele>731</ele>
        <time>2017-09-24T08:58:49.000Z</time>
      </trkpt>
      <trkpt lat="43.36692" lon="2.43809">
        <ele>731</ele>
        <time>2017-09-24T08:58:50.000Z</time>
      </trkpt>
      <trkpt lat="43.36693" lon="2.4381">
        <ele>731</ele>
        <time>2017-09-24T08:58:51.000Z</time>
      </trkpt>
      <trkpt lat="43.36693" lon="2.43811">
        <ele>731</ele>
        <time>2017-09-24T08:58:52.000Z</time>
      </trkpt>
      <trkpt lat="43.36693" lon="2.43813">
        <ele>731</ele>
        <time>2017-09-24T08:58:53.000Z</time>
      </trkpt>
      <trkpt lat="43.36692" lon="2.43815">
        <ele>731</ele>
        <time>2017-09-24T08:58:54.000Z</time>
      </trkpt>
      <trkpt lat="43.36692" lon="2.43816">
        <ele>731</ele>
        <time>2017-09-24T08:58:55.000Z</time>
      </trkpt>
      <trkpt lat="43.36692" lon="2.43817">
        <ele>731</ele>
        <time>2017-09-24T08:58:56.000Z</time>
      </trkpt>
      <trkpt lat="43.36692" lon="2.43819">
        <ele>732</ele>
        <time>2017-09-24T08:58:57.000Z</time>
      </trkpt>
      <trkpt lat="43.36691" lon="2.43821">
        <ele>732</ele>
        <time>2017-09-24T08:58:58.000Z</time>
      </trkpt>
      <trkpt lat="43.36691" lon="2.43822">
        <ele>732</ele>
        <time>2017-09-24T08:58:59.000Z</time>
      </trkpt>
      <trkpt lat="43.3669" lon="2.43823">
        <ele>732</ele>
        <time>2017-09-24T08:59:00.000Z</time>
      </trkpt>
      <trkpt lat="43.3669" lon="2.43824">
        <ele>732</ele>
        <time>2017-09-24T08:59:01.000Z</time>
      </trkpt>
      <trkpt lat="43.3669" lon="2.43826">
        <ele>732</ele>
        <time>2017-09-24T08:59:02.000Z</time>
      </trkpt>
      <trkpt lat="43.3669" lon="2.43827">
        <ele>732</ele>
        <time>2017-09-24T08:59:03.000Z</time>
      </trkpt>
      <trkpt lat="43.36691" lon="2.43828">
        <ele>732</ele>
        <time>2017-09-24T08:59:04.000Z</time>
      </trkpt>
      <trkpt lat="43.3669" lon="2.43829">
        <ele>732</ele>
        <time>2017-09-24T08:59:05.000Z</time>
      </trkpt>
      <trkpt lat="43.3669" lon="2.43831">
        <ele>732</ele>
        <time>2017-09-24T08:59:06.000Z</time>
      </trkpt>
      <trkpt lat="43.3669" lon="2.43832">
        <ele>732</ele>
        <time>2017-09-24T08:59:07.000Z</time>
      </trkpt>
      <trkpt lat="43.3669" lon="2.43833">
        <ele>732</ele>
        <time>2017-09-24T08:59:08.000Z</time>
      </trkpt>
      <trkpt lat="43.3669" lon="2.43835">
        <ele>733</ele>
        <time>2017-09-24T08:59:09.000Z</time>
      </trkpt>
      <trkpt lat="43.36689" lon="2.43837">
        <ele>733</ele>
        <time>2017-09-24T08:59:10.000Z</time>
      </trkpt>
      <trkpt lat="43.36689" lon="2.43839">
        <ele>733</ele>
        <time>2017-09-24T08:59:11.000Z</time>
      </trkpt>
      <trkpt lat="43.36689" lon="2.4384">
        <ele>733</ele>
        <time>2017-09-24T08:59:12.000Z</time>
      </trkpt>
      <trkpt lat="43.36689" lon="2.43842">
        <ele>734</ele>
        <time>2017-09-24T08:59:13.000Z</time>
      </trkpt>
      <trkpt lat="43.36689" lon="2.43843">
        <ele>734</ele>
        <time>2017-09-24T08:59:14.000Z</time>
      </trkpt>
      <trkpt lat="43.36689" lon="2.43845">
        <ele>734</ele>
        <time>2017-09-24T08:59:15.000Z</time>
      </trkpt>
      <trkpt lat="43.36689" lon="2.43847">
        <ele>734</ele>
        <time>2017-09-24T08:59:16.000Z</time>
      </trkpt>
      <trkpt lat="43.36689" lon="2.43848">
        <ele>734</ele>
        <time>2017-09-24T08:59:17.000Z</time>
      </trkpt>
      <trkpt lat="43.36688" lon="2.43849">
        <ele>734</ele>
        <time>2017-09-24T08:59:18.000Z</time>
      </trkpt>
      <trkpt lat="43.36688" lon="2.43851">
        <ele>734</ele>
        <time>2017-09-24T08:59:19.000Z</time>
      </trkpt>
      <trkpt lat="43.36687" lon="2.43853">
        <ele>734</ele>
        <time>2017-09-24T08:59:20.000Z</time>
      </trkpt>
      <trkpt lat="43.36687" lon="2.43854">
        <ele>734</ele>
        <time>2017-09-24T08:59:21.000Z</time>
      </trkpt>
      <trkpt lat="43.36686" lon="2.43855">
        <ele>734</ele>
        <time>2017-09-24T08:59:22.000Z</time>
      </trkpt>
      <trkpt lat="43.36686" lon="2.43857">
        <ele>734</ele>
        <time>2017-09-24T08:59:23.000Z</time>
      </trkpt>
      <trkpt lat="43.36685" lon="2.43858">
        <ele>735</ele>
        <time>2017-09-24T08:59:24.000Z</time>
      </trkpt>
      <trkpt lat="43.36685" lon="2.4386">
        <ele>735</ele>
        <time>2017-09-24T08:59:25.000Z</time>
      </trkpt>
      <trkpt lat="43.36684" lon="2.43861">
        <ele>735</ele>
        <time>2017-09-24T08:59:26.000Z</time>
      </trkpt>
      <trkpt lat="43.36684" lon="2.43863">
        <ele>735</ele>
        <time>2017-09-24T08:59:27.000Z</time>
      </trkpt>
      <trkpt lat="43.36683" lon="2.43864">
        <ele>735</ele>
        <time>2017-09-24T08:59:28.000Z</time>
      </trkpt>
      <trkpt lat="43.36683" lon="2.43866">
        <ele>735</ele>
        <time>2017-09-24T08:59:29.000Z</time>
      </trkpt>
      <trkpt lat="43.36683" lon="2.43868">
        <ele>735</ele>
        <time>2017-09-24T08:59:30.000Z</time>
      </trkpt>
      <trkpt lat="43.36683" lon="2.43869">
        <ele>735</ele>
        <time>2017-09-24T08:59:31.000Z</time>
      </trkpt>
      <trkpt lat="43.36684" lon="2.43871">
        <ele>735</ele>
        <time>2017-09-24T08:59:32.000Z</time>
      </trkpt>
      <trkpt lat="43.36683" lon="2.43872">
        <ele>735</ele>
        <time>2017-09-24T08:59:33.000Z</time>
      </trkpt>
      <trkpt lat="43.36683" lon="2.43872">
        <ele>735</ele>
        <time>2017-09-24T08:59:34.000Z</time>
      </trkpt>
      <trkpt lat="43.36684" lon="2.43873">
        <ele>735</ele>
        <time>2017-09-24T08:59:35.000Z</time>
      </trkpt>
      <trkpt lat="43.36684" lon="2.43875">
        <ele>735</ele>
        <time>2017-09-24T08:59:36.000Z</time>
      </trkpt>
      <trkpt lat="43.36683" lon="2.43876">
        <ele>735</ele>
        <time>2017-09-24T08:59:37.000Z</time>
      </trkpt>
      <trkpt lat="43.36684" lon="2.43877">
        <ele>735</ele>
        <time>2017-09-24T08:59:38.000Z</time>
      </trkpt>
      <trkpt lat="43.36684" lon="2.43879">
        <ele>735</ele>
        <time>2017-09-24T08:59:39.000Z</time>
      </trkpt>
      <trkpt lat="43.36684" lon="2.4388">
        <ele>735</ele>
        <time>2017-09-24T08:59:40.000Z</time>
      </trkpt>
      <trkpt lat="43.36684" lon="2.43882">
        <ele>735</ele>
        <time>2017-09-24T08:59:41.000Z</time>
      </trkpt>
      <trkpt lat="43.36684" lon="2.43883">
        <ele>735</ele>
        <time>2017-09-24T08:59:42.000Z</time>
      </trkpt>
      <trkpt lat="43.36684" lon="2.43884">
        <ele>735</ele>
        <time>2017-09-24T08:59:43.000Z</time>
      </trkpt>
      <trkpt lat="43.36684" lon="2.43886">
        <ele>735</ele>
        <time>2017-09-24T08:59:44.000Z</time>
      </trkpt>
      <trkpt lat="43.36684" lon="2.43887">
        <ele>735</ele>
        <time>2017-09-24T08:59:45.000Z</time>
      </trkpt>
      <trkpt lat="43.36683" lon="2.43889">
        <ele>735</ele>
        <time>2017-09-24T08:59:46.000Z</time>
      </trkpt>
      <trkpt lat="43.36684" lon="2.4389">
        <ele>735</ele>
        <time>2017-09-24T08:59:47.000Z</time>
      </trkpt>
      <trkpt lat="43.36684" lon="2.43891">
        <ele>735</ele>
        <time>2017-09-24T08:59:48.000Z</time>
      </trkpt>
      <trkpt lat="43.36684" lon="2.43892">
        <ele>735</ele>
        <time>2017-09-24T08:59:49.000Z</time>
      </trkpt>
      <trkpt lat="43.36684" lon="2.43894">
        <ele>735</ele>
        <time>2017-09-24T08:59:50.000Z</time>
      </trkpt>
      <trkpt lat="43.36684" lon="2.43895">
        <ele>735</ele>
        <time>2017-09-24T08:59:51.000Z</time>
      </trkpt>
      <trkpt lat="43.36684" lon="2.43897">
        <ele>735</ele>
        <time>2017-09-24T08:59:52.000Z</time>
      </trkpt>
      <trkpt lat="43.36684" lon="2.43898">
        <ele>735</ele>
        <time>2017-09-24T08:59:53.000Z</time>
      </trkpt>
      <trkpt lat="43.36684" lon="2.439">
        <ele>735</ele>
        <time>2017-09-24T08:59:54.000Z</time>
      </trkpt>
      <trkpt lat="43.36685" lon="2.43901">
        <ele>735</ele>
        <time>2017-09-24T08:59:55.000Z</time>
      </trkpt>
      <trkpt lat="43.36685" lon="2.43903">
        <ele>735</ele>
        <time>2017-09-24T08:59:56.000Z</time>
      </trkpt>
      <trkpt lat="43.36685" lon="2.43904">
        <ele>735</ele>
        <time>2017-09-24T08:59:57.000Z</time>
      </trkpt>
      <trkpt lat="43.36685" lon="2.43905">
        <ele>735</ele>
        <time>2017-09-24T08:59:58.000Z</time>
      </trkpt>
      <trkpt lat="43.36685" lon="2.43906">
        <ele>735</ele>
        <time>2017-09-24T08:59:59.000Z</time>
      </trkpt>
      <trkpt lat="43.36686" lon="2.43908">
        <ele>735</ele>
        <time>2017-09-24T09:00:00.000Z</time>
      </trkpt>
      <trkpt lat="43.36686" lon="2.43909">
        <ele>735</ele>
        <time>2017-09-24T09:00:01.000Z</time>
      </trkpt>
      <trkpt lat="43.36686" lon="2.43911">
        <ele>735</ele>
        <time>2017-09-24T09:00:02.000Z</time>
      </trkpt>
      <trkpt lat="43.36686" lon="2.43912">
        <ele>735</ele>
        <time>2017-09-24T09:00:03.000Z</time>
      </trkpt>
      <trkpt lat="43.36687" lon="2.43913">
        <ele>735</ele>
        <time>2017-09-24T09:00:04.000Z</time>
      </trkpt>
      <trkpt lat="43.36687" lon="2.43914">
        <ele>735</ele>
        <time>2017-09-24T09:00:05.000Z</time>
      </trkpt>
      <trkpt lat="43.36687" lon="2.43916">
        <ele>735</ele>
        <time>2017-09-24T09:00:06.000Z</time>
      </trkpt>
      <trkpt lat="43.36687" lon="2.43917">
        <ele>735</ele>
        <time>2017-09-24T09:00:07.000Z</time>
      </trkpt>
      <trkpt lat="43.36688" lon="2.43919">
        <ele>735</ele>
        <time>2017-09-24T09:00:08.000Z</time>
      </trkpt>
      <trkpt lat="43.36688" lon="2.4392">
        <ele>736</ele>
        <time>2017-09-24T09:00:09.000Z</time>
      </trkpt>
      <trkpt lat="43.36688" lon="2.43922">
        <ele>736</ele>
        <time>2017-09-24T09:00:10.000Z</time>
      </trkpt>
      <trkpt lat="43.36688" lon="2.43923">
        <ele>736</ele>
        <time>2017-09-24T09:00:11.000Z</time>
      </trkpt>
      <trkpt lat="43.36689" lon="2.43924">
        <ele>736</ele>
        <time>2017-09-24T09:00:12.000Z</time>
      </trkpt>
      <trkpt lat="43.36689" lon="2.43926">
        <ele>736</ele>
        <time>2017-09-24T09:00:13.000Z</time>
      </trkpt>
      <trkpt lat="43.36689" lon="2.43927">
        <ele>736</ele>
        <time>2017-09-24T09:00:14.000Z</time>
      </trkpt>
      <trkpt lat="43.3669" lon="2.43929">
        <ele>736</ele>
        <time>2017-09-24T09:00:15.000Z</time>
      </trkpt>
      <trkpt lat="43.3669" lon="2.43931">
        <ele>736</ele>
        <time>2017-09-24T09:00:16.000Z</time>
      </trkpt>
      <trkpt lat="43.36691" lon="2.43932">
        <ele>736</ele>
        <time>2017-09-24T09:00:17.000Z</time>
      </trkpt>
      <trkpt lat="43.36691" lon="2.43934">
        <ele>736</ele>
        <time>2017-09-24T09:00:18.000Z</time>
      </trkpt>
      <trkpt lat="43.36692" lon="2.43935">
        <ele>736</ele>
        <time>2017-09-24T09:00:19.000Z</time>
      </trkpt>
      <trkpt lat="43.36692" lon="2.43937">
        <ele>736</ele>
        <time>2017-09-24T09:00:20.000Z</time>
      </trkpt>
      <trkpt lat="43.36693" lon="2.43939">
        <ele>736</ele>
        <time>2017-09-24T09:00:21.000Z</time>
      </trkpt>
      <trkpt lat="43.36693" lon="2.4394">
        <ele>736</ele>
        <time>2017-09-24T09:00:22.000Z</time>
      </trkpt>
      <trkpt lat="43.36694" lon="2.43942">
        <ele>736</ele>
        <time>2017-09-24T09:00:23.000Z</time>
      </trkpt>
      <trkpt lat="43.36694" lon="2.43943">
        <ele>736</ele>
        <time>2017-09-24T09:00:24.000Z</time>
      </trkpt>
      <trkpt lat="43.36695" lon="2.43945">
        <ele>736</ele>
        <time>2017-09-24T09:00:25.000Z</time>
      </trkpt>
      <trkpt lat="43.36695" lon="2.43946">
        <ele>736</ele>
        <time>2017-09-24T09:00:26.000Z</time>
      </trkpt>
      <trkpt lat="43.36696" lon="2.43947">
        <ele>736</ele>
        <time>2017-09-24T09:00:27.000Z</time>
      </trkpt>
      <trkpt lat="43.36696" lon="2.43948">
        <ele>736</ele>
        <time>2017-09-24T09:00:28.000Z</time>
      </trkpt>
      <trkpt lat="43.36696" lon="2.4395">
        <ele>736</ele>
        <time>2017-09-24T09:00:29.000Z</time>
      </trkpt>
      <trkpt lat="43.36696" lon="2.43951">
        <ele>736</ele>
        <time>2017-09-24T09:00:30.000Z</time>
      </trkpt>
      <trkpt lat="43.36697" lon="2.43952">
        <ele>736</ele>
        <time>2017-09-24T09:00:31.000Z</time>
      </trkpt>
      <trkpt lat="43.36697" lon="2.43953">
        <ele>736</ele>
        <time>2017-09-24T09:00:32.000Z</time>
      </trkpt>
      <trkpt lat="43.36697" lon="2.43954">
        <ele>736</ele>
        <time>2017-09-24T09:00:33.000Z</time>
      </trkpt>
      <trkpt lat="43.36698" lon="2.43955">
        <ele>736</ele>
        <time>2017-09-24T09:00:34.000Z</time>
      </trkpt>
      <trkpt lat="43.36699" lon="2.43956">
        <ele>736</ele>
        <time>2017-09-24T09:00:35.000Z</time>
      </trkpt>
      <trkpt lat="43.36701" lon="2.43956">
        <ele>736</ele>
        <time>2017-09-24T09:00:36.000Z</time>
      </trkpt>
      <trkpt lat="43.36701" lon="2.43957">
        <ele>736</ele>
        <time>2017-09-24T09:00:37.000Z</time>
      </trkpt>
      <trkpt lat="43.36702" lon="2.43958">
        <ele>736</ele>
        <time>2017-09-24T09:00:38.000Z</time>
      </trkpt>
      <trkpt lat="43.36704" lon="2.43959">
        <ele>736</ele>
        <time>2017-09-24T09:00:39.000Z</time>
      </trkpt>
      <trkpt lat="43.36704" lon="2.4396">
        <ele>736</ele>
        <time>2017-09-24T09:00:40.000Z</time>
      </trkpt>
      <trkpt lat="43.36705" lon="2.4396">
        <ele>736</ele>
        <time>2017-09-24T09:00:41.000Z</time>
      </trkpt>
      <trkpt lat="43.36706" lon="2.43961">
        <ele>736</ele>
        <time>2017-09-24T09:00:42.000Z</time>
      </trkpt>
      <trkpt lat="43.36707" lon="2.43961">
        <ele>736</ele>
        <time>2017-09-24T09:00:43.000Z</time>
      </trkpt>
      <trkpt lat="43.36708" lon="2.43961">
        <ele>736</ele>
        <time>2017-09-24T09:00:44.000Z</time>
      </trkpt>
      <trkpt lat="43.36708" lon="2.43962">
        <ele>736</ele>
        <time>2017-09-24T09:00:45.000Z</time>
      </trkpt>
      <trkpt lat="43.36709" lon="2.43962">
        <ele>736</ele>
        <time>2017-09-24T09:00:46.000Z</time>
      </trkpt>
      <trkpt lat="43.36711" lon="2.43963">
        <ele>736</ele>
        <time>2017-09-24T09:00:47.000Z</time>
      </trkpt>
      <trkpt lat="43.36712" lon="2.43963">
        <ele>736</ele>
        <time>2017-09-24T09:00:48.000Z</time>
      </trkpt>
      <trkpt lat="43.36712" lon="2.43964">
        <ele>736</ele>
        <time>2017-09-24T09:00:49.000Z</time>
      </trkpt>
      <trkpt lat="43.36713" lon="2.43964">
        <ele>736</ele>
        <time>2017-09-24T09:00:50.000Z</time>
      </trkpt>
      <trkpt lat="43.36714" lon="2.43965">
        <ele>736</ele>
        <time>2017-09-24T09:00:51.000Z</time>
      </trkpt>
      <trkpt lat="43.36714" lon="2.43966">
        <ele>736</ele>
        <time>2017-09-24T09:00:52.000Z</time>
      </trkpt>
      <trkpt lat="43.36715" lon="2.43966">
        <ele>736</ele>
        <time>2017-09-24T09:00:53.000Z</time>
      </trkpt>
      <trkpt lat="43.36715" lon="2.43966">
        <ele>736</ele>
        <time>2017-09-24T09:00:54.000Z</time>
      </trkpt>
      <trkpt lat="43.36715" lon="2.43967">
        <ele>736</ele>
        <time>2017-09-24T09:00:55.000Z</time>
      </trkpt>
      <trkpt lat="43.36715" lon="2.43967">
        <ele>736</ele>
        <time>2017-09-24T09:00:56.000Z</time>
      </trkpt>
      <trkpt lat="43.36719" lon="2.4397">
        <ele>736</ele>
        <time>2017-09-24T09:02:25.000Z</time>
      </trkpt>
      <trkpt lat="43.36719" lon="2.43971">
        <ele>736</ele>
        <time>2017-09-24T09:02:26.000Z</time>
      </trkpt>
      <trkpt lat="43.36719" lon="2.43972">
        <ele>736</ele>
        <time>2017-09-24T09:02:27.000Z</time>
      </trkpt>
      <trkpt lat="43.3672" lon="2.43973">
        <ele>736</ele>
        <time>2017-09-24T09:02:28.000Z</time>
      </trkpt>
      <trkpt lat="43.3672" lon="2.43974">
        <ele>736</ele>
        <time>2017-09-24T09:02:29.000Z</time>
      </trkpt>
      <trkpt lat="43.36721" lon="2.43975">
        <ele>736</ele>
        <time>2017-09-24T09:02:30.000Z</time>
      </trkpt>
      <trkpt lat="43.36722" lon="2.43975">
        <ele>736</ele>
        <time>2017-09-24T09:02:31.000Z</time>
      </trkpt>
      <trkpt lat="43.36722" lon="2.43976">
        <ele>736</ele>
        <time>2017-09-24T09:02:32.000Z</time>
      </trkpt>
      <trkpt lat="43.36723" lon="2.43976">
        <ele>736</ele>
        <time>2017-09-24T09:02:33.000Z</time>
      </trkpt>
      <trkpt lat="43.36723" lon="2.43977">
        <ele>736</ele>
        <time>2017-09-24T09:02:34.000Z</time>
      </trkpt>
      <trkpt lat="43.36724" lon="2.43978">
        <ele>736</ele>
        <time>2017-09-24T09:02:35.000Z</time>
      </trkpt>
      <trkpt lat="43.36724" lon="2.43979">
        <ele>736</ele>
        <time>2017-09-24T09:02:36.000Z</time>
      </trkpt>
      <trkpt lat="43.36725" lon="2.43979">
        <ele>736</ele>
        <time>2017-09-24T09:02:37.000Z</time>
      </trkpt>
      <trkpt lat="43.36725" lon="2.4398">
        <ele>736</ele>
        <time>2017-09-24T09:02:38.000Z</time>
      </trkpt>
      <trkpt lat="43.36726" lon="2.43981">
        <ele>736</ele>
        <time>2017-09-24T09:02:39.000Z</time>
      </trkpt>
      <trkpt lat="43.36727" lon="2.43982">
        <ele>736</ele>
        <time>2017-09-24T09:02:40.000Z</time>
      </trkpt>
      <trkpt lat="43.36727" lon="2.43982">
        <ele>736</ele>
        <time>2017-09-24T09:02:41.000Z</time>
      </trkpt>
      <trkpt lat="43.36728" lon="2.43983">
        <ele>736</ele>
        <time>2017-09-24T09:02:42.000Z</time>
      </trkpt>
      <trkpt lat="43.36728" lon="2.43984">
        <ele>736</ele>
        <time>2017-09-24T09:02:43.000Z</time>
      </trkpt>
      <trkpt lat="43.36729" lon="2.43985">
        <ele>736</ele>
        <time>2017-09-24T09:02:44.000Z</time>
      </trkpt>
      <trkpt lat="43.36729" lon="2.43985">
        <ele>736</ele>
        <time>2017-09-24T09:02:45.000Z</time>
      </trkpt>
      <trkpt lat="43.3673" lon="2.43986">
        <ele>736</ele>
        <time>2017-09-24T09:02:46.000Z</time>
      </trkpt>
      <trkpt lat="43.3673" lon="2.43987">
        <ele>736</ele>
        <time>2017-09-24T09:02:47.000Z</time>
      </trkpt>
      <trkpt lat="43.36731" lon="2.43988">
        <ele>736</ele>
        <time>2017-09-24T09:02:48.000Z</time>
      </trkpt>
      <trkpt lat="43.36731" lon="2.43988">
        <ele>736</ele>
        <time>2017-09-24T09:02:49.000Z</time>
      </trkpt>
      <trkpt lat="43.36732" lon="2.43989">
        <ele>736</ele>
        <time>2017-09-24T09:02:50.000Z</time>
      </trkpt>
      <trkpt lat="43.36732" lon="2.4399">
        <ele>736</ele>
        <time>2017-09-24T09:02:51.000Z</time>
      </trkpt>
      <trkpt lat="43.36733" lon="2.43991">
        <ele>736</ele>
        <time>2017-09-24T09:02:52.000Z</time>
      </trkpt>
      <trkpt lat="43.36733" lon="2.43992">
        <ele>736</ele>
        <time>2017-09-24T09:02:53.000Z</time>
      </trkpt>
      <trkpt lat="43.36733" lon="2.43993">
        <ele>736</ele>
        <time>2017-09-24T09:02:54.000Z</time>
      </trkpt>
      <trkpt lat="43.36734" lon="2.43994">
        <ele>736</ele>
        <time>2017-09-24T09:02:55.000Z</time>
      </trkpt>
      <trkpt lat="43.36735" lon="2.43995">
        <ele>736</ele>
        <time>2017-09-24T09:02:56.000Z</time>
      </trkpt>
      <trkpt lat="43.36735" lon="2.43995">
        <ele>736</ele>
        <time>2017-09-24T09:02:57.000Z</time>
      </trkpt>
      <trkpt lat="43.36735" lon="2.43996">
        <ele>736</ele>
        <time>2017-09-24T09:02:58.000Z</time>
      </trkpt>
      <trkpt lat="43.36736" lon="2.43997">
        <ele>736</ele>
        <time>2017-09-24T09:02:59.000Z</time>
      </trkpt>
      <trkpt lat="43.36736" lon="2.43998">
        <ele>736</ele>
        <time>2017-09-24T09:03:00.000Z</time>
      </trkpt>
      <trkpt lat="43.36736" lon="2.43999">
        <ele>736</ele>
        <time>2017-09-24T09:03:01.000Z</time>
      </trkpt>
      <trkpt lat="43.36737" lon="2.44">
        <ele>736</ele>
        <time>2017-09-24T09:03:02.000Z</time>
      </trkpt>
      <trkpt lat="43.36737" lon="2.44001">
        <ele>736</ele>
        <time>2017-09-24T09:03:03.000Z</time>
      </trkpt>
      <trkpt lat="43.36737" lon="2.44003">
        <ele>736</ele>
        <time>2017-09-24T09:03:04.000Z</time>
      </trkpt>
      <trkpt lat="43.36738" lon="2.44004">
        <ele>736</ele>
        <time>2017-09-24T09:03:05.000Z</time>
      </trkpt>
      <trkpt lat="43.36738" lon="2.44005">
        <ele>736</ele>
        <time>2017-09-24T09:03:06.000Z</time>
      </trkpt>
      <trkpt lat="43.36738" lon="2.44006">
        <ele>736</ele>
        <time>2017-09-24T09:03:07.000Z</time>
      </trkpt>
      <trkpt lat="43.36738" lon="2.44007">
        <ele>737</ele>
        <time>2017-09-24T09:03:08.000Z</time>
      </trkpt>
      <trkpt lat="43.36738" lon="2.44008">
        <ele>737</ele>
        <time>2017-09-24T09:03:09.000Z</time>
      </trkpt>
      <trkpt lat="43.36739" lon="2.44009">
        <ele>737</ele>
        <time>2017-09-24T09:03:10.000Z</time>
      </trkpt>
      <trkpt lat="43.36739" lon="2.4401">
        <ele>737</ele>
        <time>2017-09-24T09:03:11.000Z</time>
      </trkpt>
      <trkpt lat="43.36739" lon="2.44012">
        <ele>737</ele>
        <time>2017-09-24T09:03:12.000Z</time>
      </trkpt>
      <trkpt lat="43.3674" lon="2.44013">
        <ele>737</ele>
        <time>2017-09-24T09:03:13.000Z</time>
      </trkpt>
      <trkpt lat="43.3674" lon="2.44014">
        <ele>737</ele>
        <time>2017-09-24T09:03:14.000Z</time>
      </trkpt>
      <trkpt lat="43.3674" lon="2.44015">
        <ele>738</ele>
        <time>2017-09-24T09:03:15.000Z</time>
      </trkpt>
      <trkpt lat="43.3674" lon="2.44016">
        <ele>738</ele>
        <time>2017-09-24T09:03:16.000Z</time>
      </trkpt>
      <trkpt lat="43.3674" lon="2.44017">
        <ele>738</ele>
        <time>2017-09-24T09:03:17.000Z</time>
      </trkpt>
      <trkpt lat="43.3674" lon="2.44018">
        <ele>738</ele>
        <time>2017-09-24T09:03:18.000Z</time>
      </trkpt>
      <trkpt lat="43.3674" lon="2.44018">
        <ele>738</ele>
        <time>2017-09-24T09:03:19.000Z</time>
      </trkpt>
      <trkpt lat="43.36741" lon="2.4402">
        <ele>738</ele>
        <time>2017-09-24T09:03:20.000Z</time>
      </trkpt>
      <trkpt lat="43.3674" lon="2.4402">
        <ele>738</ele>
        <time>2017-09-24T09:03:21.000Z</time>
      </trkpt>
      <trkpt lat="43.3674" lon="2.44021">
        <ele>738</ele>
        <time>2017-09-24T09:03:22.000Z</time>
      </trkpt>
      <trkpt lat="43.36741" lon="2.44022">
        <ele>738</ele>
        <time>2017-09-24T09:03:23.000Z</time>
      </trkpt>
      <trkpt lat="43.36741" lon="2.44022">
        <ele>738</ele>
        <time>2017-09-24T09:03:24.000Z</time>
      </trkpt>
      <trkpt lat="43.36741" lon="2.44024">
        <ele>739</ele>
        <time>2017-09-24T09:03:25.000Z</time>
      </trkpt>
      <trkpt lat="43.36742" lon="2.44025">
        <ele>739</ele>
        <time>2017-09-24T09:03:26.000Z</time>
      </trkpt>
      <trkpt lat="43.36742" lon="2.44026">
        <ele>739</ele>
        <time>2017-09-24T09:03:27.000Z</time>
      </trkpt>
      <trkpt lat="43.36742" lon="2.44027">
        <ele>739</ele>
        <time>2017-09-24T09:03:28.000Z</time>
      </trkpt>
      <trkpt lat="43.36743" lon="2.44028">
        <ele>739</ele>
        <time>2017-09-24T09:03:29.000Z</time>
      </trkpt>
      <trkpt lat="43.36743" lon="2.44029">
        <ele>739</ele>
        <time>2017-09-24T09:03:30.000Z</time>
      </trkpt>
      <trkpt lat="43.36744" lon="2.4403">
        <ele>739</ele>
        <time>2017-09-24T09:03:31.000Z</time>
      </trkpt>
      <trkpt lat="43.36744" lon="2.44031">
        <ele>739</ele>
        <time>2017-09-24T09:03:32.000Z</time>
      </trkpt>
      <trkpt lat="43.36745" lon="2.44032">
        <ele>739</ele>
        <time>2017-09-24T09:03:33.000Z</time>
      </trkpt>
      <trkpt lat="43.36745" lon="2.44034">
        <ele>740</ele>
        <time>2017-09-24T09:03:34.000Z</time>
      </trkpt>
      <trkpt lat="43.36745" lon="2.44035">
        <ele>740</ele>
        <time>2017-09-24T09:03:35.000Z</time>
      </trkpt>
      <trkpt lat="43.36746" lon="2.44036">
        <ele>740</ele>
        <time>2017-09-24T09:03:36.000Z</time>
      </trkpt>
      <trkpt lat="43.36746" lon="2.44037">
        <ele>740</ele>
        <time>2017-09-24T09:03:37.000Z</time>
      </trkpt>
      <trkpt lat="43.36746" lon="2.44038">
        <ele>740</ele>
        <time>2017-09-24T09:03:38.000Z</time>
      </trkpt>
      <trkpt lat="43.36747" lon="2.44039">
        <ele>740</ele>
        <time>2017-09-24T09:03:39.000Z</time>
      </trkpt>
      <trkpt lat="43.36747" lon="2.4404">
        <ele>740</ele>
        <time>2017-09-24T09:03:40.000Z</time>
      </trkpt>
      <trkpt lat="43.36747" lon="2.44041">
        <ele>740</ele>
        <time>2017-09-24T09:03:41.000Z</time>
      </trkpt>
      <trkpt lat="43.36747" lon="2.44042">
        <ele>741</ele>
        <time>2017-09-24T09:03:42.000Z</time>
      </trkpt>
      <trkpt lat="43.36748" lon="2.44043">
        <ele>741</ele>
        <time>2017-09-24T09:03:43.000Z</time>
      </trkpt>
      <trkpt lat="43.36748" lon="2.44045">
        <ele>741</ele>
        <time>2017-09-24T09:03:44.000Z</time>
      </trkpt>
      <trkpt lat="43.36749" lon="2.44046">
        <ele>741</ele>
        <time>2017-09-24T09:03:45.000Z</time>
      </trkpt>
      <trkpt lat="43.36749" lon="2.44047">
        <ele>741</ele>
        <time>2017-09-24T09:03:46.000Z</time>
      </trkpt>
      <trkpt lat="43.36749" lon="2.44048">
        <ele>741</ele>
        <time>2017-09-24T09:03:47.000Z</time>
      </trkpt>
      <trkpt lat="43.3675" lon="2.44049">
        <ele>741</ele>
        <time>2017-09-24T09:03:48.000Z</time>
      </trkpt>
      <trkpt lat="43.3675" lon="2.4405">
        <ele>741</ele>
        <time>2017-09-24T09:03:49.000Z</time>
      </trkpt>
      <trkpt lat="43.36751" lon="2.44051">
        <ele>742</ele>
        <time>2017-09-24T09:03:50.000Z</time>
      </trkpt>
      <trkpt lat="43.36751" lon="2.44052">
        <ele>742</ele>
        <time>2017-09-24T09:03:51.000Z</time>
      </trkpt>
      <trkpt lat="43.36752" lon="2.44053">
        <ele>742</ele>
        <time>2017-09-24T09:03:52.000Z</time>
      </trkpt>
      <trkpt lat="43.36753" lon="2.44054">
        <ele>742</ele>
        <time>2017-09-24T09:03:53.000Z</time>
      </trkpt>
      <trkpt lat="43.36753" lon="2.44055">
        <ele>742</ele>
        <time>2017-09-24T09:03:54.000Z</time>
      </trkpt>
      <trkpt lat="43.36754" lon="2.44056">
        <ele>742</ele>
        <time>2017-09-24T09:03:55.000Z</time>
      </trkpt>
      <trkpt lat="43.36754" lon="2.44058">
        <ele>742</ele>
        <time>2017-09-24T09:03:56.000Z</time>
      </trkpt>
      <trkpt lat="43.36755" lon="2.44058">
        <ele>742</ele>
        <time>2017-09-24T09:03:57.000Z</time>
      </trkpt>
      <trkpt lat="43.36756" lon="2.44059">
        <ele>742</ele>
        <time>2017-09-24T09:03:58.000Z</time>
      </trkpt>
      <trkpt lat="43.36756" lon="2.4406">
        <ele>743</ele>
        <time>2017-09-24T09:03:59.000Z</time>
      </trkpt>
      <trkpt lat="43.36756" lon="2.44061">
        <ele>743</ele>
        <time>2017-09-24T09:04:00.000Z</time>
      </trkpt>
      <trkpt lat="43.36757" lon="2.44062">
        <ele>743</ele>
        <time>2017-09-24T09:04:01.000Z</time>
      </trkpt>
      <trkpt lat="43.36757" lon="2.44063">
        <ele>743</ele>
        <time>2017-09-24T09:04:02.000Z</time>
      </trkpt>
      <trkpt lat="43.36758" lon="2.44065">
        <ele>743</ele>
        <time>2017-09-24T09:04:03.000Z</time>
      </trkpt>
      <trkpt lat="43.36758" lon="2.44066">
        <ele>743</ele>
        <time>2017-09-24T09:04:04.000Z</time>
      </trkpt>
      <trkpt lat="43.36759" lon="2.44067">
        <ele>743</ele>
        <time>2017-09-24T09:04:05.000Z</time>
      </trkpt>
      <trkpt lat="43.3676" lon="2.44068">
        <ele>743</ele>
        <time>2017-09-24T09:04:06.000Z</time>
      </trkpt>
      <trkpt lat="43.3676" lon="2.44069">
        <ele>744</ele>
        <time>2017-09-24T09:04:07.000Z</time>
      </trkpt>
      <trkpt lat="43.36761" lon="2.44071">
        <ele>744</ele>
        <time>2017-09-24T09:04:08.000Z</time>
      </trkpt>
      <trkpt lat="43.36762" lon="2.44071">
        <ele>744</ele>
        <time>2017-09-24T09:04:09.000Z</time>
      </trkpt>
      <trkpt lat="43.36762" lon="2.44072">
        <ele>744</ele>
        <time>2017-09-24T09:04:10.000Z</time>
      </trkpt>
      <trkpt lat="43.36763" lon="2.44073">
        <ele>744</ele>
        <time>2017-09-24T09:04:11.000Z</time>
      </trkpt>
      <trkpt lat="43.36763" lon="2.44074">
        <ele>744</ele>
        <time>2017-09-24T09:04:12.000Z</time>
      </trkpt>
      <trkpt lat="43.36764" lon="2.44075">
        <ele>744</ele>
        <time>2017-09-24T09:04:13.000Z</time>
      </trkpt>
      <trkpt lat="43.36764" lon="2.44075">
        <ele>744</ele>
        <time>2017-09-24T09:04:14.000Z</time>
      </trkpt>
      <trkpt lat="43.36765" lon="2.44077">
        <ele>744</ele>
        <time>2017-09-24T09:04:15.000Z</time>
      </trkpt>
      <trkpt lat="43.36765" lon="2.44078">
        <ele>745</ele>
        <time>2017-09-24T09:04:16.000Z</time>
      </trkpt>
      <trkpt lat="43.36766" lon="2.44078">
        <ele>745</ele>
        <time>2017-09-24T09:04:17.000Z</time>
      </trkpt>
      <trkpt lat="43.36767" lon="2.44079">
        <ele>745</ele>
        <time>2017-09-24T09:04:18.000Z</time>
      </trkpt>
      <trkpt lat="43.36767" lon="2.4408">
        <ele>745</ele>
        <time>2017-09-24T09:04:19.000Z</time>
      </trkpt>
      <trkpt lat="43.36768" lon="2.44081">
        <ele>745</ele>
        <time>2017-09-24T09:04:20.000Z</time>
      </trkpt>
      <trkpt lat="43.36769" lon="2.44082">
        <ele>745</ele>
        <time>2017-09-24T09:04:21.000Z</time>
      </trkpt>
      <trkpt lat="43.36769" lon="2.44083">
        <ele>746</ele>
        <time>2017-09-24T09:04:22.000Z</time>
      </trkpt>
      <trkpt lat="43.3677" lon="2.44083">
        <ele>746</ele>
        <time>2017-09-24T09:04:23.000Z</time>
      </trkpt>
      <trkpt lat="43.36771" lon="2.44084">
        <ele>746</ele>
        <time>2017-09-24T09:04:24.000Z</time>
      </trkpt>
      <trkpt lat="43.36772" lon="2.44085">
        <ele>746</ele>
        <time>2017-09-24T09:04:25.000Z</time>
      </trkpt>
      <trkpt lat="43.36773" lon="2.44085">
        <ele>746</ele>
        <time>2017-09-24T09:04:26.000Z</time>
      </trkpt>
      <trkpt lat="43.36774" lon="2.44086">
        <ele>746</ele>
        <time>2017-09-24T09:04:27.000Z</time>
      </trkpt>
      <trkpt lat="43.36774" lon="2.44086">
        <ele>746</ele>
        <time>2017-09-24T09:04:28.000Z</time>
      </trkpt>
      <trkpt lat="43.36775" lon="2.44086">
        <ele>746</ele>
        <time>2017-09-24T09:04:29.000Z</time>
      </trkpt>
      <trkpt lat="43.36776" lon="2.44087">
        <ele>746</ele>
        <time>2017-09-24T09:04:30.000Z</time>
      </trkpt>
      <trkpt lat="43.36777" lon="2.44087">
        <ele>746</ele>
        <time>2017-09-24T09:04:31.000Z</time>
      </trkpt>
      <trkpt lat="43.36778" lon="2.44087">
        <ele>747</ele>
        <time>2017-09-24T09:04:32.000Z</time>
      </trkpt>
      <trkpt lat="43.36779" lon="2.44088">
        <ele>747</ele>
        <time>2017-09-24T09:04:33.000Z</time>
      </trkpt>
      <trkpt lat="43.3678" lon="2.44088">
        <ele>747</ele>
        <time>2017-09-24T09:04:34.000Z</time>
      </trkpt>
      <trkpt lat="43.36781" lon="2.44088">
        <ele>747</ele>
        <time>2017-09-24T09:04:35.000Z</time>
      </trkpt>
      <trkpt lat="43.36782" lon="2.44088">
        <ele>747</ele>
        <time>2017-09-24T09:04:36.000Z</time>
      </trkpt>
      <trkpt lat="43.36783" lon="2.44088">
        <ele>747</ele>
        <time>2017-09-24T09:04:37.000Z</time>
      </trkpt>
      <trkpt lat="43.36783" lon="2.44088">
        <ele>747</ele>
        <time>2017-09-24T09:04:38.000Z</time>
      </trkpt>
      <trkpt lat="43.36784" lon="2.44088">
        <ele>747</ele>
        <time>2017-09-24T09:04:39.000Z</time>
      </trkpt>
      <trkpt lat="43.36785" lon="2.44088">
        <ele>747</ele>
        <time>2017-09-24T09:04:40.000Z</time>
      </trkpt>
      <trkpt lat="43.36786" lon="2.44088">
        <ele>747</ele>
        <time>2017-09-24T09:04:41.000Z</time>
      </trkpt>
      <trkpt lat="43.36787" lon="2.44088">
        <ele>748</ele>
        <time>2017-09-24T09:04:42.000Z</time>
      </trkpt>
      <trkpt lat="43.36787" lon="2.44088">
        <ele>748</ele>
        <time>2017-09-24T09:04:43.000Z</time>
      </trkpt>
      <trkpt lat="43.36788" lon="2.44088">
        <ele>748</ele>
        <time>2017-09-24T09:04:44.000Z</time>
      </trkpt>
      <trkpt lat="43.36789" lon="2.44088">
        <ele>748</ele>
        <time>2017-09-24T09:04:45.000Z</time>
      </trkpt>
      <trkpt lat="43.36789" lon="2.44088">
        <ele>748</ele>
        <time>2017-09-24T09:04:46.000Z</time>
      </trkpt>
      <trkpt lat="43.3679" lon="2.44088">
        <ele>748</ele>
        <time>2017-09-24T09:04:47.000Z</time>
      </trkpt>
      <trkpt lat="43.36791" lon="2.44088">
        <ele>748</ele>
        <time>2017-09-24T09:04:48.000Z</time>
      </trkpt>
      <trkpt lat="43.36791" lon="2.44088">
        <ele>748</ele>
        <time>2017-09-24T09:04:49.000Z</time>
      </trkpt>
      <trkpt lat="43.36792" lon="2.44088">
        <ele>748</ele>
        <time>2017-09-24T09:04:50.000Z</time>
      </trkpt>
      <trkpt lat="43.36793" lon="2.44088">
        <ele>748</ele>
        <time>2017-09-24T09:04:51.000Z</time>
      </trkpt>
      <trkpt lat="43.36794" lon="2.44088">
        <ele>748</ele>
        <time>2017-09-24T09:04:52.000Z</time>
      </trkpt>
      <trkpt lat="43.36795" lon="2.44088">
        <ele>748</ele>
        <time>2017-09-24T09:04:53.000Z</time>
      </trkpt>
      <trkpt lat="43.36795" lon="2.44088">
        <ele>749</ele>
        <time>2017-09-24T09:04:54.000Z</time>
      </trkpt>
      <trkpt lat="43.36796" lon="2.44088">
        <ele>749</ele>
        <time>2017-09-24T09:04:55.000Z</time>
      </trkpt>
      <trkpt lat="43.36797" lon="2.44088">
        <ele>749</ele>
        <time>2017-09-24T09:04:56.000Z</time>
      </trkpt>
      <trkpt lat="43.36798" lon="2.44088">
        <ele>749</ele>
        <time>2017-09-24T09:04:57.000Z</time>
      </trkpt>
      <trkpt lat="43.36799" lon="2.44088">
        <ele>749</ele>
        <time>2017-09-24T09:04:58.000Z</time>
      </trkpt>
      <trkpt lat="43.368" lon="2.44088">
        <ele>749</ele>
        <time>2017-09-24T09:04:59.000Z</time>
      </trkpt>
      <trkpt lat="43.36801" lon="2.44088">
        <ele>749</ele>
        <time>2017-09-24T09:05:00.000Z</time>
      </trkpt>
      <trkpt lat="43.36801" lon="2.44087">
        <ele>749</ele>
        <time>2017-09-24T09:05:01.000Z</time>
      </trkpt>
      <trkpt lat="43.36802" lon="2.44087">
        <ele>749</ele>
        <time>2017-09-24T09:05:02.000Z</time>
      </trkpt>
      <trkpt lat="43.36803" lon="2.44087">
        <ele>749</ele>
        <time>2017-09-24T09:05:03.000Z</time>
      </trkpt>
      <trkpt lat="43.36804" lon="2.44087">
        <ele>749</ele>
        <time>2017-09-24T09:05:04.000Z</time>
      </trkpt>
      <trkpt lat="43.36805" lon="2.44087">
        <ele>750</ele>
        <time>2017-09-24T09:05:05.000Z</time>
      </trkpt>
      <trkpt lat="43.36806" lon="2.44087">
        <ele>750</ele>
        <time>2017-09-24T09:05:06.000Z</time>
      </trkpt>
      <trkpt lat="43.36807" lon="2.44087">
        <ele>750</ele>
        <time>2017-09-24T09:05:07.000Z</time>
      </trkpt>
      <trkpt lat="43.36809" lon="2.44087">
        <ele>750</ele>
        <time>2017-09-24T09:05:08.000Z</time>
      </trkpt>
      <trkpt lat="43.3681" lon="2.44087">
        <ele>750</ele>
        <time>2017-09-24T09:05:09.000Z</time>
      </trkpt>
      <trkpt lat="43.3681" lon="2.44087">
        <ele>750</ele>
        <time>2017-09-24T09:05:10.000Z</time>
      </trkpt>
      <trkpt lat="43.36811" lon="2.44087">
        <ele>750</ele>
        <time>2017-09-24T09:05:11.000Z</time>
      </trkpt>
      <trkpt lat="43.36812" lon="2.44087">
        <ele>750</ele>
        <time>2017-09-24T09:05:12.000Z</time>
      </trkpt>
      <trkpt lat="43.36813" lon="2.44087">
        <ele>750</ele>
        <time>2017-09-24T09:05:13.000Z</time>
      </trkpt>
      <trkpt lat="43.36814" lon="2.44087">
        <ele>751</ele>
        <time>2017-09-24T09:05:14.000Z</time>
      </trkpt>
      <trkpt lat="43.36815" lon="2.44087">
        <ele>751</ele>
        <time>2017-09-24T09:05:15.000Z</time>
      </trkpt>
      <trkpt lat="43.36816" lon="2.44087">
        <ele>751</ele>
        <time>2017-09-24T09:05:16.000Z</time>
      </trkpt>
      <trkpt lat="43.36817" lon="2.44087">
        <ele>751</ele>
        <time>2017-09-24T09:05:17.000Z</time>
      </trkpt>
      <trkpt lat="43.36818" lon="2.44087">
        <ele>751</ele>
        <time>2017-09-24T09:05:18.000Z</time>
      </trkpt>
      <trkpt lat="43.36819" lon="2.44087">
        <ele>751</ele>
        <time>2017-09-24T09:05:19.000Z</time>
      </trkpt>
      <trkpt lat="43.36819" lon="2.44087">
        <ele>751</ele>
        <time>2017-09-24T09:05:20.000Z</time>
      </trkpt>
      <trkpt lat="43.3682" lon="2.44087">
        <ele>751</ele>
        <time>2017-09-24T09:05:21.000Z</time>
      </trkpt>
      <trkpt lat="43.36821" lon="2.44086">
        <ele>751</ele>
        <time>2017-09-24T09:05:22.000Z</time>
      </trkpt>
      <trkpt lat="43.36822" lon="2.44086">
        <ele>751</ele>
        <time>2017-09-24T09:05:23.000Z</time>
      </trkpt>
      <trkpt lat="43.36823" lon="2.44086">
        <ele>751</ele>
        <time>2017-09-24T09:05:24.000Z</time>
      </trkpt>
      <trkpt lat="43.36823" lon="2.44086">
        <ele>751</ele>
        <time>2017-09-24T09:05:25.000Z</time>
      </trkpt>
      <trkpt lat="43.36825" lon="2.44086">
        <ele>752</ele>
        <time>2017-09-24T09:05:26.000Z</time>
      </trkpt>
      <trkpt lat="43.36825" lon="2.44086">
        <ele>752</ele>
        <time>2017-09-24T09:05:27.000Z</time>
      </trkpt>
      <trkpt lat="43.36826" lon="2.44086">
        <ele>752</ele>
        <time>2017-09-24T09:05:28.000Z</time>
      </trkpt>
      <trkpt lat="43.36827" lon="2.44086">
        <ele>752</ele>
        <time>2017-09-24T09:05:29.000Z</time>
      </trkpt>
      <trkpt lat="43.36828" lon="2.44086">
        <ele>752</ele>
        <time>2017-09-24T09:05:30.000Z</time>
      </trkpt>
      <trkpt lat="43.36829" lon="2.44087">
        <ele>752</ele>
        <time>2017-09-24T09:05:31.000Z</time>
      </trkpt>
      <trkpt lat="43.3683" lon="2.44087">
        <ele>752</ele>
        <time>2017-09-24T09:05:32.000Z</time>
      </trkpt>
      <trkpt lat="43.3683" lon="2.44088">
        <ele>752</ele>
        <time>2017-09-24T09:05:33.000Z</time>
      </trkpt>
      <trkpt lat="43.36831" lon="2.44088">
        <ele>752</ele>
        <time>2017-09-24T09:05:34.000Z</time>
      </trkpt>
      <trkpt lat="43.36832" lon="2.44088">
        <ele>752</ele>
        <time>2017-09-24T09:05:35.000Z</time>
      </trkpt>
      <trkpt lat="43.36833" lon="2.44088">
        <ele>753</ele>
        <time>2017-09-24T09:05:36.000Z</time>
      </trkpt>
      <trkpt lat="43.36834" lon="2.44088">
        <ele>753</ele>
        <time>2017-09-24T09:05:37.000Z</time>
      </trkpt>
      <trkpt lat="43.36835" lon="2.44088">
        <ele>753</ele>
        <time>2017-09-24T09:05:38.000Z</time>
      </trkpt>
      <trkpt lat="43.36835" lon="2.44089">
        <ele>753</ele>
        <time>2017-09-24T09:05:39.000Z</time>
      </trkpt>
      <trkpt lat="43.36836" lon="2.4409">
        <ele>753</ele>
        <time>2017-09-24T09:05:40.000Z</time>
      </trkpt>
      <trkpt lat="43.36837" lon="2.4409">
        <ele>753</ele>
        <time>2017-09-24T09:05:41.000Z</time>
      </trkpt>
      <trkpt lat="43.36838" lon="2.44091">
        <ele>753</ele>
        <time>2017-09-24T09:05:42.000Z</time>
      </trkpt>
      <trkpt lat="43.36839" lon="2.44091">
        <ele>753</ele>
        <time>2017-09-24T09:05:43.000Z</time>
      </trkpt>
      <trkpt lat="43.3684" lon="2.44092">
        <ele>753</ele>
        <time>2017-09-24T09:05:44.000Z</time>
      </trkpt>
      <trkpt lat="43.36841" lon="2.44092">
        <ele>754</ele>
        <time>2017-09-24T09:05:45.000Z</time>
      </trkpt>
      <trkpt lat="43.36842" lon="2.44093">
        <ele>754</ele>
        <time>2017-09-24T09:05:46.000Z</time>
      </trkpt>
      <trkpt lat="43.36842" lon="2.44093">
        <ele>754</ele>
        <time>2017-09-24T09:05:47.000Z</time>
      </trkpt>
      <trkpt lat="43.36843" lon="2.44093">
        <ele>754</ele>
        <time>2017-09-24T09:05:48.000Z</time>
      </trkpt>
      <trkpt lat="43.36844" lon="2.44093">
        <ele>754</ele>
        <time>2017-09-24T09:05:49.000Z</time>
      </trkpt>
      <trkpt lat="43.36845" lon="2.44094">
        <ele>754</ele>
        <time>2017-09-24T09:05:50.000Z</time>
      </trkpt>
      <trkpt lat="43.36845" lon="2.44094">
        <ele>754</ele>
        <time>2017-09-24T09:05:51.000Z</time>
      </trkpt>
      <trkpt lat="43.36846" lon="2.44094">
        <ele>754</ele>
        <time>2017-09-24T09:05:52.000Z</time>
      </trkpt>
      <trkpt lat="43.36847" lon="2.44094">
        <ele>754</ele>
        <time>2017-09-24T09:05:53.000Z</time>
      </trkpt>
      <trkpt lat="43.36848" lon="2.44095">
        <ele>754</ele>
        <time>2017-09-24T09:05:54.000Z</time>
      </trkpt>
      <trkpt lat="43.36849" lon="2.44095">
        <ele>755</ele>
        <time>2017-09-24T09:05:55.000Z</time>
      </trkpt>
      <trkpt lat="43.3685" lon="2.44095">
        <ele>755</ele>
        <time>2017-09-24T09:05:56.000Z</time>
      </trkpt>
      <trkpt lat="43.36851" lon="2.44096">
        <ele>755</ele>
        <time>2017-09-24T09:05:57.000Z</time>
      </trkpt>
      <trkpt lat="43.36852" lon="2.44096">
        <ele>755</ele>
        <time>2017-09-24T09:05:58.000Z</time>
      </trkpt>
      <trkpt lat="43.36853" lon="2.44097">
        <ele>755</ele>
        <time>2017-09-24T09:05:59.000Z</time>
      </trkpt>
      <trkpt lat="43.36854" lon="2.44097">
        <ele>755</ele>
        <time>2017-09-24T09:06:00.000Z</time>
      </trkpt>
      <trkpt lat="43.36855" lon="2.44097">
        <ele>755</ele>
        <time>2017-09-24T09:06:01.000Z</time>
      </trkpt>
      <trkpt lat="43.36855" lon="2.44097">
        <ele>755</ele>
        <time>2017-09-24T09:06:02.000Z</time>
      </trkpt>
      <trkpt lat="43.36857" lon="2.44098">
        <ele>755</ele>
        <time>2017-09-24T09:06:03.000Z</time>
      </trkpt>
      <trkpt lat="43.36858" lon="2.44097">
        <ele>755</ele>
        <time>2017-09-24T09:06:04.000Z</time>
      </trkpt>
      <trkpt lat="43.36859" lon="2.44097">
        <ele>755</ele>
        <time>2017-09-24T09:06:05.000Z</time>
      </trkpt>
      <trkpt lat="43.36859" lon="2.44097">
        <ele>755</ele>
        <time>2017-09-24T09:06:06.000Z</time>
      </trkpt>
      <trkpt lat="43.36861" lon="2.44097">
        <ele>755</ele>
        <time>2017-09-24T09:06:07.000Z</time>
      </trkpt>
      <trkpt lat="43.36861" lon="2.44097">
        <ele>755</ele>
        <time>2017-09-24T09:06:08.000Z</time>
      </trkpt>
      <trkpt lat="43.36862" lon="2.44097">
        <ele>755</ele>
        <time>2017-09-24T09:06:09.000Z</time>
      </trkpt>
      <trkpt lat="43.36863" lon="2.44097">
        <ele>755</ele>
        <time>2017-09-24T09:06:10.000Z</time>
      </trkpt>
      <trkpt lat="43.36864" lon="2.44097">
        <ele>755</ele>
        <time>2017-09-24T09:06:11.000Z</time>
      </trkpt>
      <trkpt lat="43.36865" lon="2.44097">
        <ele>755</ele>
        <time>2017-09-24T09:06:12.000Z</time>
      </trkpt>
      <trkpt lat="43.36866" lon="2.44098">
        <ele>755</ele>
        <time>2017-09-24T09:06:13.000Z</time>
      </trkpt>
      <trkpt lat="43.36867" lon="2.44098">
        <ele>755</ele>
        <time>2017-09-24T09:06:14.000Z</time>
      </trkpt>
      <trkpt lat="43.36867" lon="2.44099">
        <ele>755</ele>
        <time>2017-09-24T09:06:15.000Z</time>
      </trkpt>
      <trkpt lat="43.36867" lon="2.44099">
        <ele>755</ele>
        <time>2017-09-24T09:06:16.000Z</time>
      </trkpt>
      <trkpt lat="43.36871" lon="2.44103">
        <ele>756</ele>
        <time>2017-09-24T09:06:26.000Z</time>
      </trkpt>
      <trkpt lat="43.36871" lon="2.44104">
        <ele>756</ele>
        <time>2017-09-24T09:06:27.000Z</time>
      </trkpt>
      <trkpt lat="43.36871" lon="2.44106">
        <ele>756</ele>
        <time>2017-09-24T09:06:28.000Z</time>
      </trkpt>
      <trkpt lat="43.36871" lon="2.44107">
        <ele>756</ele>
        <time>2017-09-24T09:06:29.000Z</time>
      </trkpt>
      <trkpt lat="43.36871" lon="2.44109">
        <ele>756</ele>
        <time>2017-09-24T09:06:30.000Z</time>
      </trkpt>
      <trkpt lat="43.36871" lon="2.4411">
        <ele>756</ele>
        <time>2017-09-24T09:06:31.000Z</time>
      </trkpt>
      <trkpt lat="43.36871" lon="2.44111">
        <ele>756</ele>
        <time>2017-09-24T09:06:32.000Z</time>
      </trkpt>
      <trkpt lat="43.36871" lon="2.44113">
        <ele>756</ele>
        <time>2017-09-24T09:06:33.000Z</time>
      </trkpt>
      <trkpt lat="43.36871" lon="2.44115">
        <ele>756</ele>
        <time>2017-09-24T09:06:34.000Z</time>
      </trkpt>
      <trkpt lat="43.36872" lon="2.44116">
        <ele>756</ele>
        <time>2017-09-24T09:06:35.000Z</time>
      </trkpt>
      <trkpt lat="43.36871" lon="2.44118">
        <ele>756</ele>
        <time>2017-09-24T09:06:36.000Z</time>
      </trkpt>
      <trkpt lat="43.36871" lon="2.4412">
        <ele>756</ele>
        <time>2017-09-24T09:06:37.000Z</time>
      </trkpt>
      <trkpt lat="43.36871" lon="2.44121">
        <ele>757</ele>
        <time>2017-09-24T09:06:38.000Z</time>
      </trkpt>
      <trkpt lat="43.36871" lon="2.44123">
        <ele>757</ele>
        <time>2017-09-24T09:06:39.000Z</time>
      </trkpt>
      <trkpt lat="43.36871" lon="2.44124">
        <ele>757</ele>
        <time>2017-09-24T09:06:40.000Z</time>
      </trkpt>
      <trkpt lat="43.36872" lon="2.44125">
        <ele>757</ele>
        <time>2017-09-24T09:06:41.000Z</time>
      </trkpt>
      <trkpt lat="43.36872" lon="2.44126">
        <ele>757</ele>
        <time>2017-09-24T09:06:42.000Z</time>
      </trkpt>
      <trkpt lat="43.36873" lon="2.44127">
        <ele>757</ele>
        <time>2017-09-24T09:06:43.000Z</time>
      </trkpt>
      <trkpt lat="43.36874" lon="2.44129">
        <ele>757</ele>
        <time>2017-09-24T09:06:44.000Z</time>
      </trkpt>
      <trkpt lat="43.36874" lon="2.4413">
        <ele>757</ele>
        <time>2017-09-24T09:06:45.000Z</time>
      </trkpt>
      <trkpt lat="43.36875" lon="2.44132">
        <ele>757</ele>
        <time>2017-09-24T09:06:46.000Z</time>
      </trkpt>
      <trkpt lat="43.36875" lon="2.44133">
        <ele>757</ele>
        <time>2017-09-24T09:06:47.000Z</time>
      </trkpt>
      <trkpt lat="43.36876" lon="2.44135">
        <ele>757</ele>
        <time>2017-09-24T09:06:48.000Z</time>
      </trkpt>
      <trkpt lat="43.36876" lon="2.44136">
        <ele>757</ele>
        <time>2017-09-24T09:06:49.000Z</time>
      </trkpt>
      <trkpt lat="43.36877" lon="2.44137">
        <ele>757</ele>
        <time>2017-09-24T09:06:50.000Z</time>
      </trkpt>
      <trkpt lat="43.36877" lon="2.44139">
        <ele>757</ele>
        <time>2017-09-24T09:06:51.000Z</time>
      </trkpt>
      <trkpt lat="43.36877" lon="2.4414">
        <ele>757</ele>
        <time>2017-09-24T09:06:52.000Z</time>
      </trkpt>
      <trkpt lat="43.36877" lon="2.44142">
        <ele>758</ele>
        <time>2017-09-24T09:06:53.000Z</time>
      </trkpt>
      <trkpt lat="43.36878" lon="2.44143">
        <ele>758</ele>
        <time>2017-09-24T09:06:54.000Z</time>
      </trkpt>
      <trkpt lat="43.36878" lon="2.44145">
        <ele>758</ele>
        <time>2017-09-24T09:06:55.000Z</time>
      </trkpt>
      <trkpt lat="43.36878" lon="2.44146">
        <ele>758</ele>
        <time>2017-09-24T09:06:56.000Z</time>
      </trkpt>
      <trkpt lat="43.36879" lon="2.44148">
        <ele>758</ele>
        <time>2017-09-24T09:06:57.000Z</time>
      </trkpt>
      <trkpt lat="43.36879" lon="2.44149">
        <ele>758</ele>
        <time>2017-09-24T09:06:58.000Z</time>
      </trkpt>
      <trkpt lat="43.3688" lon="2.44151">
        <ele>758</ele>
        <time>2017-09-24T09:06:59.000Z</time>
      </trkpt>
      <trkpt lat="43.3688" lon="2.44152">
        <ele>758</ele>
        <time>2017-09-24T09:07:00.000Z</time>
      </trkpt>
      <trkpt lat="43.36881" lon="2.44153">
        <ele>758</ele>
        <time>2017-09-24T09:07:01.000Z</time>
      </trkpt>
      <trkpt lat="43.36883" lon="2.44154">
        <ele>758</ele>
        <time>2017-09-24T09:07:02.000Z</time>
      </trkpt>
      <trkpt lat="43.36884" lon="2.44155">
        <ele>758</ele>
        <time>2017-09-24T09:07:03.000Z</time>
      </trkpt>
      <trkpt lat="43.36885" lon="2.44156">
        <ele>758</ele>
        <time>2017-09-24T09:07:04.000Z</time>
      </trkpt>
      <trkpt lat="43.36886" lon="2.44157">
        <ele>758</ele>
        <time>2017-09-24T09:07:05.000Z</time>
      </trkpt>
      <trkpt lat="43.36887" lon="2.44158">
        <ele>759</ele>
        <time>2017-09-24T09:07:06.000Z</time>
      </trkpt>
      <trkpt lat="43.36888" lon="2.44158">
        <ele>759</ele>
        <time>2017-09-24T09:07:07.000Z</time>
      </trkpt>
      <trkpt lat="43.36888" lon="2.44159">
        <ele>759</ele>
        <time>2017-09-24T09:07:08.000Z</time>
      </trkpt>
      <trkpt lat="43.36889" lon="2.44159">
        <ele>759</ele>
        <time>2017-09-24T09:07:09.000Z</time>
      </trkpt>
      <trkpt lat="43.3689" lon="2.44159">
        <ele>759</ele>
        <time>2017-09-24T09:07:10.000Z</time>
      </trkpt>
      <trkpt lat="43.36891" lon="2.4416">
        <ele>759</ele>
        <time>2017-09-24T09:07:11.000Z</time>
      </trkpt>
      <trkpt lat="43.36892" lon="2.4416">
        <ele>759</ele>
        <time>2017-09-24T09:07:12.000Z</time>
      </trkpt>
      <trkpt lat="43.36892" lon="2.44161">
        <ele>759</ele>
        <time>2017-09-24T09:07:13.000Z</time>
      </trkpt>
      <trkpt lat="43.36893" lon="2.44162">
        <ele>759</ele>
        <time>2017-09-24T09:07:14.000Z</time>
      </trkpt>
      <trkpt lat="43.36894" lon="2.44163">
        <ele>759</ele>
        <time>2017-09-24T09:07:15.000Z</time>
      </trkpt>
      <trkpt lat="43.36894" lon="2.44164">
        <ele>759</ele>
        <time>2017-09-24T09:07:16.000Z</time>
      </trkpt>
      <trkpt lat="43.36895" lon="2.44164">
        <ele>759</ele>
        <time>2017-09-24T09:07:17.000Z</time>
      </trkpt>
      <trkpt lat="43.36896" lon="2.44165">
        <ele>759</ele>
        <time>2017-09-24T09:07:18.000Z</time>
      </trkpt>
      <trkpt lat="43.36896" lon="2.44165">
        <ele>759</ele>
        <time>2017-09-24T09:07:19.000Z</time>
      </trkpt>
      <trkpt lat="43.36897" lon="2.44166">
        <ele>759</ele>
        <time>2017-09-24T09:07:20.000Z</time>
      </trkpt>
      <trkpt lat="43.36898" lon="2.44166">
        <ele>759</ele>
        <time>2017-09-24T09:07:21.000Z</time>
      </trkpt>
      <trkpt lat="43.36898" lon="2.44167">
        <ele>759</ele>
        <time>2017-09-24T09:07:22.000Z</time>
      </trkpt>
      <trkpt lat="43.36899" lon="2.44167">
        <ele>759</ele>
        <time>2017-09-24T09:07:23.000Z</time>
      </trkpt>
      <trkpt lat="43.369" lon="2.44167">
        <ele>759</ele>
        <time>2017-09-24T09:07:24.000Z</time>
      </trkpt>
      <trkpt lat="43.36901" lon="2.44167">
        <ele>759</ele>
        <time>2017-09-24T09:07:25.000Z</time>
      </trkpt>
      <trkpt lat="43.36902" lon="2.44167">
        <ele>759</ele>
        <time>2017-09-24T09:07:26.000Z</time>
      </trkpt>
      <trkpt lat="43.36903" lon="2.44167">
        <ele>759</ele>
        <time>2017-09-24T09:07:27.000Z</time>
      </trkpt>
      <trkpt lat="43.36903" lon="2.44168">
        <ele>759</ele>
        <time>2017-09-24T09:07:28.000Z</time>
      </trkpt>
      <trkpt lat="43.36904" lon="2.44168">
        <ele>759</ele>
        <time>2017-09-24T09:07:29.000Z</time>
      </trkpt>
      <trkpt lat="43.36905" lon="2.44168">
        <ele>759</ele>
        <time>2017-09-24T09:07:30.000Z</time>
      </trkpt>
      <trkpt lat="43.36906" lon="2.44168">
        <ele>760</ele>
        <time>2017-09-24T09:07:31.000Z</time>
      </trkpt>
      <trkpt lat="43.36906" lon="2.44167">
        <ele>760</ele>
        <time>2017-09-24T09:07:32.000Z</time>
      </trkpt>
      <trkpt lat="43.36908" lon="2.44167">
        <ele>760</ele>
        <time>2017-09-24T09:07:33.000Z</time>
      </trkpt>
      <trkpt lat="43.36908" lon="2.44166">
        <ele>760</ele>
        <time>2017-09-24T09:07:34.000Z</time>
      </trkpt>
      <trkpt lat="43.36908" lon="2.44166">
        <ele>760</ele>
        <time>2017-09-24T09:07:35.000Z</time>
      </trkpt>
      <trkpt lat="43.36909" lon="2.44166">
        <ele>760</ele>
        <time>2017-09-24T09:07:36.000Z</time>
      </trkpt>
      <trkpt lat="43.36909" lon="2.44165">
        <ele>760</ele>
        <time>2017-09-24T09:07:37.000Z</time>
      </trkpt>
      <trkpt lat="43.36912" lon="2.44168">
        <ele>760</ele>
        <time>2017-09-24T09:07:56.000Z</time>
      </trkpt>
      <trkpt lat="43.36913" lon="2.44168">
        <ele>760</ele>
        <time>2017-09-24T09:07:57.000Z</time>
      </trkpt>
      <trkpt lat="43.36914" lon="2.4417">
        <ele>760</ele>
        <time>2017-09-24T09:07:58.000Z</time>
      </trkpt>
      <trkpt lat="43.36914" lon="2.44171">
        <ele>760</ele>
        <time>2017-09-24T09:07:59.000Z</time>
      </trkpt>
      <trkpt lat="43.36914" lon="2.44172">
        <ele>759</ele>
        <time>2017-09-24T09:08:00.000Z</time>
      </trkpt>
      <trkpt lat="43.36914" lon="2.44173">
        <ele>759</ele>
        <time>2017-09-24T09:08:01.000Z</time>
      </trkpt>
      <trkpt lat="43.36914" lon="2.44173">
        <ele>759</ele>
        <time>2017-09-24T09:08:02.000Z</time>
      </trkpt>
      <trkpt lat="43.36919" lon="2.44182">
        <ele>758</ele>
        <time>2017-09-24T09:17:09.000Z</time>
      </trkpt>
      <trkpt lat="43.3692" lon="2.44183">
        <ele>758</ele>
        <time>2017-09-24T09:17:10.000Z</time>
      </trkpt>
      <trkpt lat="43.3692" lon="2.44184">
        <ele>758</ele>
        <time>2017-09-24T09:17:11.000Z</time>
      </trkpt>
      <trkpt lat="43.36921" lon="2.44185">
        <ele>758</ele>
        <time>2017-09-24T09:17:12.000Z</time>
      </trkpt>
      <trkpt lat="43.36921" lon="2.44186">
        <ele>758</ele>
        <time>2017-09-24T09:17:13.000Z</time>
      </trkpt>
      <trkpt lat="43.36922" lon="2.44186">
        <ele>758</ele>
        <time>2017-09-24T09:17:14.000Z</time>
      </trkpt>
      <trkpt lat="43.36923" lon="2.44187">
        <ele>758</ele>
        <time>2017-09-24T09:17:15.000Z</time>
      </trkpt>
      <trkpt lat="43.36924" lon="2.44187">
        <ele>758</ele>
        <time>2017-09-24T09:17:16.000Z</time>
      </trkpt>
      <trkpt lat="43.36925" lon="2.44187">
        <ele>758</ele>
        <time>2017-09-24T09:17:17.000Z</time>
      </trkpt>
      <trkpt lat="43.36926" lon="2.44187">
        <ele>758</ele>
        <time>2017-09-24T09:17:18.000Z</time>
      </trkpt>
      <trkpt lat="43.36926" lon="2.44187">
        <ele>758</ele>
        <time>2017-09-24T09:17:19.000Z</time>
      </trkpt>
      <trkpt lat="43.36927" lon="2.44187">
        <ele>758</ele>
        <time>2017-09-24T09:17:20.000Z</time>
      </trkpt>
      <trkpt lat="43.36928" lon="2.44186">
        <ele>758</ele>
        <time>2017-09-24T09:17:21.000Z</time>
      </trkpt>
      <trkpt lat="43.36929" lon="2.44186">
        <ele>758</ele>
        <time>2017-09-24T09:17:22.000Z</time>
      </trkpt>
      <trkpt lat="43.36929" lon="2.44185">
        <ele>759</ele>
        <time>2017-09-24T09:17:23.000Z</time>
      </trkpt>
      <trkpt lat="43.3693" lon="2.44186">
        <ele>759</ele>
        <time>2017-09-24T09:17:24.000Z</time>
      </trkpt>
      <trkpt lat="43.36931" lon="2.44186">
        <ele>759</ele>
        <time>2017-09-24T09:17:25.000Z</time>
      </trkpt>
      <trkpt lat="43.36931" lon="2.44186">
        <ele>759</ele>
        <time>2017-09-24T09:17:26.000Z</time>
      </trkpt>
      <trkpt lat="43.36932" lon="2.44186">
        <ele>759</ele>
        <time>2017-09-24T09:17:27.000Z</time>
      </trkpt>
      <trkpt lat="43.36932" lon="2.44186">
        <ele>759</ele>
        <time>2017-09-24T09:17:28.000Z</time>
      </trkpt>
      <trkpt lat="43.36933" lon="2.44185">
        <ele>759</ele>
        <time>2017-09-24T09:17:29.000Z</time>
      </trkpt>
      <trkpt lat="43.36933" lon="2.44184">
        <ele>759</ele>
        <time>2017-09-24T09:17:30.000Z</time>
      </trkpt>
      <trkpt lat="43.36934" lon="2.44184">
        <ele>759</ele>
        <time>2017-09-24T09:17:31.000Z</time>
      </trkpt>
      <trkpt lat="43.36935" lon="2.44183">
        <ele>759</ele>
        <time>2017-09-24T09:17:32.000Z</time>
      </trkpt>
      <trkpt lat="43.36936" lon="2.44183">
        <ele>759</ele>
        <time>2017-09-24T09:17:33.000Z</time>
      </trkpt>
      <trkpt lat="43.36936" lon="2.44182">
        <ele>759</ele>
        <time>2017-09-24T09:17:34.000Z</time>
      </trkpt>
      <trkpt lat="43.36937" lon="2.44182">
        <ele>759</ele>
        <time>2017-09-24T09:17:35.000Z</time>
      </trkpt>
      <trkpt lat="43.36938" lon="2.44181">
        <ele>759</ele>
        <time>2017-09-24T09:17:36.000Z</time>
      </trkpt>
      <trkpt lat="43.36939" lon="2.44181">
        <ele>759</ele>
        <time>2017-09-24T09:17:37.000Z</time>
      </trkpt>
      <trkpt lat="43.36939" lon="2.44181">
        <ele>759</ele>
        <time>2017-09-24T09:17:38.000Z</time>
      </trkpt>
      <trkpt lat="43.3694" lon="2.4418">
        <ele>759</ele>
        <time>2017-09-24T09:17:39.000Z</time>
      </trkpt>
      <trkpt lat="43.36941" lon="2.4418">
        <ele>759</ele>
        <time>2017-09-24T09:17:40.000Z</time>
      </trkpt>
      <trkpt lat="43.36941" lon="2.44179">
        <ele>759</ele>
        <time>2017-09-24T09:17:41.000Z</time>
      </trkpt>
      <trkpt lat="43.36942" lon="2.44179">
        <ele>758</ele>
        <time>2017-09-24T09:17:42.000Z</time>
      </trkpt>
      <trkpt lat="43.36943" lon="2.44179">
        <ele>758</ele>
        <time>2017-09-24T09:17:43.000Z</time>
      </trkpt>
      <trkpt lat="43.36943" lon="2.44178">
        <ele>759</ele>
        <time>2017-09-24T09:17:44.000Z</time>
      </trkpt>
      <trkpt lat="43.36944" lon="2.44177">
        <ele>759</ele>
        <time>2017-09-24T09:17:45.000Z</time>
      </trkpt>
      <trkpt lat="43.36944" lon="2.44177">
        <ele>759</ele>
        <time>2017-09-24T09:17:46.000Z</time>
      </trkpt>
      <trkpt lat="43.36945" lon="2.44177">
        <ele>758</ele>
        <time>2017-09-24T09:17:47.000Z</time>
      </trkpt>
      <trkpt lat="43.36946" lon="2.44176">
        <ele>758</ele>
        <time>2017-09-24T09:17:48.000Z</time>
      </trkpt>
      <trkpt lat="43.36947" lon="2.44176">
        <ele>758</ele>
        <time>2017-09-24T09:17:49.000Z</time>
      </trkpt>
      <trkpt lat="43.36948" lon="2.44176">
        <ele>758</ele>
        <time>2017-09-24T09:17:50.000Z</time>
      </trkpt>
      <trkpt lat="43.36948" lon="2.44175">
        <ele>758</ele>
        <time>2017-09-24T09:17:51.000Z</time>
      </trkpt>
      <trkpt lat="43.36949" lon="2.44174">
        <ele>758</ele>
        <time>2017-09-24T09:17:52.000Z</time>
      </trkpt>
      <trkpt lat="43.3695" lon="2.44174">
        <ele>758</ele>
        <time>2017-09-24T09:17:53.000Z</time>
      </trkpt>
      <trkpt lat="43.36951" lon="2.44174">
        <ele>758</ele>
        <time>2017-09-24T09:17:54.000Z</time>
      </trkpt>
      <trkpt lat="43.36951" lon="2.44173">
        <ele>758</ele>
        <time>2017-09-24T09:17:55.000Z</time>
      </trkpt>
      <trkpt lat="43.36952" lon="2.44173">
        <ele>758</ele>
        <time>2017-09-24T09:17:56.000Z</time>
      </trkpt>
      <trkpt lat="43.36953" lon="2.44173">
        <ele>758</ele>
        <time>2017-09-24T09:17:57.000Z</time>
      </trkpt>
      <trkpt lat="43.36954" lon="2.44173">
        <ele>758</ele>
        <time>2017-09-24T09:17:58.000Z</time>
      </trkpt>
      <trkpt lat="43.36955" lon="2.44174">
        <ele>758</ele>
        <time>2017-09-24T09:17:59.000Z</time>
      </trkpt>
      <trkpt lat="43.36956" lon="2.44174">
        <ele>758</ele>
        <time>2017-09-24T09:18:00.000Z</time>
      </trkpt>
      <trkpt lat="43.36956" lon="2.44174">
        <ele>758</ele>
        <time>2017-09-24T09:18:01.000Z</time>
      </trkpt>
      <trkpt lat="43.36957" lon="2.44174">
        <ele>758</ele>
        <time>2017-09-24T09:18:02.000Z</time>
      </trkpt>
      <trkpt lat="43.36958" lon="2.44174">
        <ele>758</ele>
        <time>2017-09-24T09:18:03.000Z</time>
      </trkpt>
      <trkpt lat="43.36958" lon="2.44174">
        <ele>757</ele>
        <time>2017-09-24T09:18:04.000Z</time>
      </trkpt>
      <trkpt lat="43.36959" lon="2.44174">
        <ele>757</ele>
        <time>2017-09-24T09:18:05.000Z</time>
      </trkpt>
      <trkpt lat="43.36959" lon="2.44174">
        <ele>757</ele>
        <time>2017-09-24T09:18:06.000Z</time>
      </trkpt>
      <trkpt lat="43.3696" lon="2.44174">
        <ele>757</ele>
        <time>2017-09-24T09:18:07.000Z</time>
      </trkpt>
      <trkpt lat="43.3696" lon="2.44174">
        <ele>757</ele>
        <time>2017-09-24T09:18:08.000Z</time>
      </trkpt>
      <trkpt lat="43.36961" lon="2.44174">
        <ele>757</ele>
        <time>2017-09-24T09:18:09.000Z</time>
      </trkpt>
      <trkpt lat="43.36962" lon="2.44174">
        <ele>757</ele>
        <time>2017-09-24T09:18:10.000Z</time>
      </trkpt>
      <trkpt lat="43.36962" lon="2.44174">
        <ele>757</ele>
        <time>2017-09-24T09:18:11.000Z</time>
      </trkpt>
      <trkpt lat="43.36963" lon="2.44174">
        <ele>757</ele>
        <time>2017-09-24T09:18:12.000Z</time>
      </trkpt>
      <trkpt lat="43.36963" lon="2.44174">
        <ele>757</ele>
        <time>2017-09-24T09:18:13.000Z</time>
      </trkpt>
      <trkpt lat="43.36964" lon="2.44174">
        <ele>757</ele>
        <time>2017-09-24T09:18:14.000Z</time>
      </trkpt>
      <trkpt lat="43.36964" lon="2.44173">
        <ele>757</ele>
        <time>2017-09-24T09:18:15.000Z</time>
      </trkpt>
      <trkpt lat="43.36965" lon="2.44173">
        <ele>757</ele>
        <time>2017-09-24T09:18:16.000Z</time>
      </trkpt>
      <trkpt lat="43.36966" lon="2.44172">
        <ele>757</ele>
        <time>2017-09-24T09:18:17.000Z</time>
      </trkpt>
      <trkpt lat="43.36967" lon="2.44173">
        <ele>757</ele>
        <time>2017-09-24T09:18:18.000Z</time>
      </trkpt>
      <trkpt lat="43.36967" lon="2.44172">
        <ele>757</ele>
        <time>2017-09-24T09:18:19.000Z</time>
      </trkpt>
      <trkpt lat="43.36968" lon="2.44172">
        <ele>757</ele>
        <time>2017-09-24T09:18:20.000Z</time>
      </trkpt>
      <trkpt lat="43.36968" lon="2.44172">
        <ele>757</ele>
        <time>2017-09-24T09:18:21.000Z</time>
      </trkpt>
      <trkpt lat="43.36969" lon="2.44172">
        <ele>757</ele>
        <time>2017-09-24T09:18:22.000Z</time>
      </trkpt>
      <trkpt lat="43.36969" lon="2.44172">
        <ele>757</ele>
        <time>2017-09-24T09:18:23.000Z</time>
      </trkpt>
      <trkpt lat="43.3697" lon="2.44172">
        <ele>757</ele>
        <time>2017-09-24T09:18:24.000Z</time>
      </trkpt>
      <trkpt lat="43.36971" lon="2.44172">
        <ele>757</ele>
        <time>2017-09-24T09:18:25.000Z</time>
      </trkpt>
      <trkpt lat="43.36971" lon="2.44172">
        <ele>757</ele>
        <time>2017-09-24T09:18:26.000Z</time>
      </trkpt>
      <trkpt lat="43.36972" lon="2.44172">
        <ele>756</ele>
        <time>2017-09-24T09:18:27.000Z</time>
      </trkpt>
      <trkpt lat="43.36973" lon="2.44172">
        <ele>756</ele>
        <time>2017-09-24T09:18:28.000Z</time>
      </trkpt>
      <trkpt lat="43.36974" lon="2.44172">
        <ele>756</ele>
        <time>2017-09-24T09:18:29.000Z</time>
      </trkpt>
      <trkpt lat="43.36975" lon="2.44172">
        <ele>756</ele>
        <time>2017-09-24T09:18:30.000Z</time>
      </trkpt>
      <trkpt lat="43.36976" lon="2.44172">
        <ele>756</ele>
        <time>2017-09-24T09:18:31.000Z</time>
      </trkpt>
      <trkpt lat="43.36978" lon="2.44173">
        <ele>756</ele>
        <time>2017-09-24T09:18:32.000Z</time>
      </trkpt>
      <trkpt lat="43.36978" lon="2.44173">
        <ele>756</ele>
        <time>2017-09-24T09:18:33.000Z</time>
      </trkpt>
      <trkpt lat="43.3698" lon="2.44174">
        <ele>755</ele>
        <time>2017-09-24T09:18:34.000Z</time>
      </trkpt>
      <trkpt lat="43.36981" lon="2.44174">
        <ele>755</ele>
        <time>2017-09-24T09:18:35.000Z</time>
      </trkpt>
      <trkpt lat="43.36982" lon="2.44175">
        <ele>755</ele>
        <time>2017-09-24T09:18:36.000Z</time>
      </trkpt>
      <trkpt lat="43.36983" lon="2.44175">
        <ele>755</ele>
        <time>2017-09-24T09:18:37.000Z</time>
      </trkpt>
      <trkpt lat="43.36984" lon="2.44176">
        <ele>755</ele>
        <time>2017-09-24T09:18:38.000Z</time>
      </trkpt>
      <trkpt lat="43.36985" lon="2.44177">
        <ele>755</ele>
        <time>2017-09-24T09:18:39.000Z</time>
      </trkpt>
      <trkpt lat="43.36986" lon="2.44177">
        <ele>755</ele>
        <time>2017-09-24T09:18:40.000Z</time>
      </trkpt>
      <trkpt lat="43.36987" lon="2.44177">
        <ele>754</ele>
        <time>2017-09-24T09:18:41.000Z</time>
      </trkpt>
      <trkpt lat="43.36988" lon="2.44177">
        <ele>754</ele>
        <time>2017-09-24T09:18:42.000Z</time>
      </trkpt>
      <trkpt lat="43.36989" lon="2.44178">
        <ele>754</ele>
        <time>2017-09-24T09:18:43.000Z</time>
      </trkpt>
      <trkpt lat="43.3699" lon="2.44178">
        <ele>754</ele>
        <time>2017-09-24T09:18:44.000Z</time>
      </trkpt>
      <trkpt lat="43.36991" lon="2.44179">
        <ele>754</ele>
        <time>2017-09-24T09:18:45.000Z</time>
      </trkpt>
      <trkpt lat="43.36992" lon="2.44179">
        <ele>754</ele>
        <time>2017-09-24T09:18:46.000Z</time>
      </trkpt>
      <trkpt lat="43.36993" lon="2.4418">
        <ele>754</ele>
        <time>2017-09-24T09:18:47.000Z</time>
      </trkpt>
      <trkpt lat="43.36995" lon="2.4418">
        <ele>753</ele>
        <time>2017-09-24T09:18:48.000Z</time>
      </trkpt>
      <trkpt lat="43.36995" lon="2.4418">
        <ele>753</ele>
        <time>2017-09-24T09:18:49.000Z</time>
      </trkpt>
      <trkpt lat="43.36996" lon="2.4418">
        <ele>753</ele>
        <time>2017-09-24T09:18:50.000Z</time>
      </trkpt>
      <trkpt lat="43.36997" lon="2.44181">
        <ele>753</ele>
        <time>2017-09-24T09:18:51.000Z</time>
      </trkpt>
      <trkpt lat="43.36998" lon="2.44181">
        <ele>753</ele>
        <time>2017-09-24T09:18:52.000Z</time>
      </trkpt>
      <trkpt lat="43.36998" lon="2.4418">
        <ele>753</ele>
        <time>2017-09-24T09:18:53.000Z</time>
      </trkpt>
      <trkpt lat="43.36999" lon="2.4418">
        <ele>753</ele>
        <time>2017-09-24T09:18:54.000Z</time>
      </trkpt>
      <trkpt lat="43.36999" lon="2.4418">
        <ele>753</ele>
        <time>2017-09-24T09:18:55.000Z</time>
      </trkpt>
      <trkpt lat="43.37" lon="2.4418">
        <ele>753</ele>
        <time>2017-09-24T09:18:56.000Z</time>
      </trkpt>
      <trkpt lat="43.37001" lon="2.44181">
        <ele>753</ele>
        <time>2017-09-24T09:18:57.000Z</time>
      </trkpt>
      <trkpt lat="43.37002" lon="2.44182">
        <ele>752</ele>
        <time>2017-09-24T09:18:58.000Z</time>
      </trkpt>
      <trkpt lat="43.37003" lon="2.44182">
        <ele>752</ele>
        <time>2017-09-24T09:18:59.000Z</time>
      </trkpt>
      <trkpt lat="43.37004" lon="2.44183">
        <ele>752</ele>
        <time>2017-09-24T09:19:00.000Z</time>
      </trkpt>
      <trkpt lat="43.37005" lon="2.44183">
        <ele>752</ele>
        <time>2017-09-24T09:19:01.000Z</time>
      </trkpt>
      <trkpt lat="43.37006" lon="2.44183">
        <ele>752</ele>
        <time>2017-09-24T09:19:02.000Z</time>
      </trkpt>
      <trkpt lat="43.37008" lon="2.44184">
        <ele>752</ele>
        <time>2017-09-24T09:19:03.000Z</time>
      </trkpt>
      <trkpt lat="43.37009" lon="2.44184">
        <ele>752</ele>
        <time>2017-09-24T09:19:04.000Z</time>
      </trkpt>
      <trkpt lat="43.3701" lon="2.44184">
        <ele>751</ele>
        <time>2017-09-24T09:19:05.000Z</time>
      </trkpt>
      <trkpt lat="43.37011" lon="2.44185">
        <ele>751</ele>
        <time>2017-09-24T09:19:06.000Z</time>
      </trkpt>
      <trkpt lat="43.37012" lon="2.44186">
        <ele>751</ele>
        <time>2017-09-24T09:19:07.000Z</time>
      </trkpt>
      <trkpt lat="43.37013" lon="2.44187">
        <ele>751</ele>
        <time>2017-09-24T09:19:08.000Z</time>
      </trkpt>
      <trkpt lat="43.37014" lon="2.44188">
        <ele>751</ele>
        <time>2017-09-24T09:19:09.000Z</time>
      </trkpt>
      <trkpt lat="43.37015" lon="2.4419">
        <ele>750</ele>
        <time>2017-09-24T09:19:10.000Z</time>
      </trkpt>
      <trkpt lat="43.37016" lon="2.44192">
        <ele>750</ele>
        <time>2017-09-24T09:19:11.000Z</time>
      </trkpt>
      <trkpt lat="43.37017" lon="2.44193">
        <ele>750</ele>
        <time>2017-09-24T09:19:12.000Z</time>
      </trkpt>
      <trkpt lat="43.37018" lon="2.44195">
        <ele>749</ele>
        <time>2017-09-24T09:19:13.000Z</time>
      </trkpt>
      <trkpt lat="43.37019" lon="2.44196">
        <ele>749</ele>
        <time>2017-09-24T09:19:14.000Z</time>
      </trkpt>
      <trkpt lat="43.3702" lon="2.44197">
        <ele>749</ele>
        <time>2017-09-24T09:19:15.000Z</time>
      </trkpt>
      <trkpt lat="43.37021" lon="2.44198">
        <ele>749</ele>
        <time>2017-09-24T09:19:16.000Z</time>
      </trkpt>
      <trkpt lat="43.37022" lon="2.44199">
        <ele>748</ele>
        <time>2017-09-24T09:19:17.000Z</time>
      </trkpt>
      <trkpt lat="43.37023" lon="2.442">
        <ele>748</ele>
        <time>2017-09-24T09:19:18.000Z</time>
      </trkpt>
      <trkpt lat="43.37024" lon="2.442">
        <ele>748</ele>
        <time>2017-09-24T09:19:19.000Z</time>
      </trkpt>
      <trkpt lat="43.37025" lon="2.44201">
        <ele>748</ele>
        <time>2017-09-24T09:19:20.000Z</time>
      </trkpt>
      <trkpt lat="43.37026" lon="2.44201">
        <ele>747</ele>
        <time>2017-09-24T09:19:21.000Z</time>
      </trkpt>
      <trkpt lat="43.37027" lon="2.44201">
        <ele>747</ele>
        <time>2017-09-24T09:19:22.000Z</time>
      </trkpt>
      <trkpt lat="43.37028" lon="2.442">
        <ele>747</ele>
        <time>2017-09-24T09:19:23.000Z</time>
      </trkpt>
      <trkpt lat="43.37029" lon="2.442">
        <ele>747</ele>
        <time>2017-09-24T09:19:24.000Z</time>
      </trkpt>
      <trkpt lat="43.3703" lon="2.44199">
        <ele>747</ele>
        <time>2017-09-24T09:19:25.000Z</time>
      </trkpt>
      <trkpt lat="43.37031" lon="2.44198">
        <ele>747</ele>
        <time>2017-09-24T09:19:26.000Z</time>
      </trkpt>
      <trkpt lat="43.37032" lon="2.44198">
        <ele>747</ele>
        <time>2017-09-24T09:19:27.000Z</time>
      </trkpt>
      <trkpt lat="43.37033" lon="2.44198">
        <ele>747</ele>
        <time>2017-09-24T09:19:28.000Z</time>
      </trkpt>
      <trkpt lat="43.37035" lon="2.44198">
        <ele>746</ele>
        <time>2017-09-24T09:19:29.000Z</time>
      </trkpt>
      <trkpt lat="43.37036" lon="2.44198">
        <ele>746</ele>
        <time>2017-09-24T09:19:30.000Z</time>
      </trkpt>
      <trkpt lat="43.37037" lon="2.44198">
        <ele>746</ele>
        <time>2017-09-24T09:19:31.000Z</time>
      </trkpt>
      <trkpt lat="43.37039" lon="2.44198">
        <ele>746</ele>
        <time>2017-09-24T09:19:32.000Z</time>
      </trkpt>
      <trkpt lat="43.3704" lon="2.44197">
        <ele>746</ele>
        <time>2017-09-24T09:19:33.000Z</time>
      </trkpt>
      <trkpt lat="43.37041" lon="2.44196">
        <ele>746</ele>
        <time>2017-09-24T09:19:34.000Z</time>
      </trkpt>
      <trkpt lat="43.37042" lon="2.44196">
        <ele>746</ele>
        <time>2017-09-24T09:19:35.000Z</time>
      </trkpt>
      <trkpt lat="43.37043" lon="2.44196">
        <ele>745</ele>
        <time>2017-09-24T09:19:36.000Z</time>
      </trkpt>
      <trkpt lat="43.37044" lon="2.44195">
        <ele>745</ele>
        <time>2017-09-24T09:19:37.000Z</time>
      </trkpt>
      <trkpt lat="43.37045" lon="2.44195">
        <ele>745</ele>
        <time>2017-09-24T09:19:38.000Z</time>
      </trkpt>
      <trkpt lat="43.37046" lon="2.44194">
        <ele>745</ele>
        <time>2017-09-24T09:19:39.000Z</time>
      </trkpt>
      <trkpt lat="43.37048" lon="2.44194">
        <ele>746</ele>
        <time>2017-09-24T09:19:40.000Z</time>
      </trkpt>
      <trkpt lat="43.37049" lon="2.44194">
        <ele>746</ele>
        <time>2017-09-24T09:19:41.000Z</time>
      </trkpt>
      <trkpt lat="43.3705" lon="2.44193">
        <ele>746</ele>
        <time>2017-09-24T09:19:42.000Z</time>
      </trkpt>
      <trkpt lat="43.37051" lon="2.44193">
        <ele>746</ele>
        <time>2017-09-24T09:19:43.000Z</time>
      </trkpt>
      <trkpt lat="43.37053" lon="2.44192">
        <ele>746</ele>
        <time>2017-09-24T09:19:44.000Z</time>
      </trkpt>
      <trkpt lat="43.37053" lon="2.44192">
        <ele>746</ele>
        <time>2017-09-24T09:19:45.000Z</time>
      </trkpt>
      <trkpt lat="43.37054" lon="2.44191">
        <ele>746</ele>
        <time>2017-09-24T09:19:46.000Z</time>
      </trkpt>
      <trkpt lat="43.37055" lon="2.44191">
        <ele>747</ele>
        <time>2017-09-24T09:19:47.000Z</time>
      </trkpt>
      <trkpt lat="43.37056" lon="2.4419">
        <ele>747</ele>
        <time>2017-09-24T09:19:48.000Z</time>
      </trkpt>
      <trkpt lat="43.37057" lon="2.4419">
        <ele>747</ele>
        <time>2017-09-24T09:19:49.000Z</time>
      </trkpt>
      <trkpt lat="43.37058" lon="2.44189">
        <ele>747</ele>
        <time>2017-09-24T09:19:50.000Z</time>
      </trkpt>
      <trkpt lat="43.37059" lon="2.44189">
        <ele>747</ele>
        <time>2017-09-24T09:19:51.000Z</time>
      </trkpt>
      <trkpt lat="43.3706" lon="2.44189">
        <ele>747</ele>
        <time>2017-09-24T09:19:52.000Z</time>
      </trkpt>
      <trkpt lat="43.37061" lon="2.44188">
        <ele>747</ele>
        <time>2017-09-24T09:19:53.000Z</time>
      </trkpt>
      <trkpt lat="43.37061" lon="2.44187">
        <ele>748</ele>
        <time>2017-09-24T09:19:54.000Z</time>
      </trkpt>
      <trkpt lat="43.37062" lon="2.44186">
        <ele>748</ele>
        <time>2017-09-24T09:19:55.000Z</time>
      </trkpt>
      <trkpt lat="43.37063" lon="2.44186">
        <ele>748</ele>
        <time>2017-09-24T09:19:56.000Z</time>
      </trkpt>
      <trkpt lat="43.37064" lon="2.44185">
        <ele>748</ele>
        <time>2017-09-24T09:19:57.000Z</time>
      </trkpt>
      <trkpt lat="43.37064" lon="2.44185">
        <ele>748</ele>
        <time>2017-09-24T09:19:58.000Z</time>
      </trkpt>
      <trkpt lat="43.37065" lon="2.44185">
        <ele>748</ele>
        <time>2017-09-24T09:19:59.000Z</time>
      </trkpt>
      <trkpt lat="43.37066" lon="2.44184">
        <ele>749</ele>
        <time>2017-09-24T09:20:00.000Z</time>
      </trkpt>
      <trkpt lat="43.37067" lon="2.44184">
        <ele>749</ele>
        <time>2017-09-24T09:20:01.000Z</time>
      </trkpt>
      <trkpt lat="43.37068" lon="2.44183">
        <ele>749</ele>
        <time>2017-09-24T09:20:02.000Z</time>
      </trkpt>
      <trkpt lat="43.37069" lon="2.44183">
        <ele>749</ele>
        <time>2017-09-24T09:20:03.000Z</time>
      </trkpt>
      <trkpt lat="43.37071" lon="2.44183">
        <ele>749</ele>
        <time>2017-09-24T09:20:04.000Z</time>
      </trkpt>
      <trkpt lat="43.37072" lon="2.44182">
        <ele>749</ele>
        <time>2017-09-24T09:20:05.000Z</time>
      </trkpt>
      <trkpt lat="43.37073" lon="2.44182">
        <ele>749</ele>
        <time>2017-09-24T09:20:06.000Z</time>
      </trkpt>
      <trkpt lat="43.37074" lon="2.44182">
        <ele>749</ele>
        <time>2017-09-24T09:20:07.000Z</time>
      </trkpt>
      <trkpt lat="43.37074" lon="2.44181">
        <ele>750</ele>
        <time>2017-09-24T09:20:08.000Z</time>
      </trkpt>
      <trkpt lat="43.37075" lon="2.44181">
        <ele>750</ele>
        <time>2017-09-24T09:20:09.000Z</time>
      </trkpt>
      <trkpt lat="43.37076" lon="2.4418">
        <ele>750</ele>
        <time>2017-09-24T09:20:10.000Z</time>
      </trkpt>
      <trkpt lat="43.37077" lon="2.4418">
        <ele>750</ele>
        <time>2017-09-24T09:20:11.000Z</time>
      </trkpt>
      <trkpt lat="43.37078" lon="2.4418">
        <ele>750</ele>
        <time>2017-09-24T09:20:12.000Z</time>
      </trkpt>
      <trkpt lat="43.37079" lon="2.44179">
        <ele>750</ele>
        <time>2017-09-24T09:20:13.000Z</time>
      </trkpt>
      <trkpt lat="43.3708" lon="2.44179">
        <ele>750</ele>
        <time>2017-09-24T09:20:14.000Z</time>
      </trkpt>
      <trkpt lat="43.37081" lon="2.44179">
        <ele>750</ele>
        <time>2017-09-24T09:20:15.000Z</time>
      </trkpt>
      <trkpt lat="43.37082" lon="2.44179">
        <ele>750</ele>
        <time>2017-09-24T09:20:16.000Z</time>
      </trkpt>
      <trkpt lat="43.37083" lon="2.44178">
        <ele>750</ele>
        <time>2017-09-24T09:20:17.000Z</time>
      </trkpt>
      <trkpt lat="43.37084" lon="2.44178">
        <ele>751</ele>
        <time>2017-09-24T09:20:18.000Z</time>
      </trkpt>
      <trkpt lat="43.37086" lon="2.44177">
        <ele>751</ele>
        <time>2017-09-24T09:20:19.000Z</time>
      </trkpt>
      <trkpt lat="43.37087" lon="2.44177">
        <ele>751</ele>
        <time>2017-09-24T09:20:20.000Z</time>
      </trkpt>
      <trkpt lat="43.37087" lon="2.44176">
        <ele>751</ele>
        <time>2017-09-24T09:20:21.000Z</time>
      </trkpt>
      <trkpt lat="43.37089" lon="2.44176">
        <ele>751</ele>
        <time>2017-09-24T09:20:22.000Z</time>
      </trkpt>
      <trkpt lat="43.3709" lon="2.44176">
        <ele>751</ele>
        <time>2017-09-24T09:20:23.000Z</time>
      </trkpt>
      <trkpt lat="43.37091" lon="2.44175">
        <ele>751</ele>
        <time>2017-09-24T09:20:24.000Z</time>
      </trkpt>
      <trkpt lat="43.37092" lon="2.44175">
        <ele>751</ele>
        <time>2017-09-24T09:20:25.000Z</time>
      </trkpt>
      <trkpt lat="43.37093" lon="2.44174">
        <ele>752</ele>
        <time>2017-09-24T09:20:26.000Z</time>
      </trkpt>
      <trkpt lat="43.37094" lon="2.44174">
        <ele>752</ele>
        <time>2017-09-24T09:20:27.000Z</time>
      </trkpt>
      <trkpt lat="43.37096" lon="2.44174">
        <ele>752</ele>
        <time>2017-09-24T09:20:28.000Z</time>
      </trkpt>
      <trkpt lat="43.37097" lon="2.44174">
        <ele>752</ele>
        <time>2017-09-24T09:20:29.000Z</time>
      </trkpt>
      <trkpt lat="43.37098" lon="2.44173">
        <ele>752</ele>
        <time>2017-09-24T09:20:30.000Z</time>
      </trkpt>
      <trkpt lat="43.37099" lon="2.44173">
        <ele>752</ele>
        <time>2017-09-24T09:20:31.000Z</time>
      </trkpt>
      <trkpt lat="43.371" lon="2.44173">
        <ele>752</ele>
        <time>2017-09-24T09:20:32.000Z</time>
      </trkpt>
      <trkpt lat="43.37101" lon="2.44173">
        <ele>752</ele>
        <time>2017-09-24T09:20:33.000Z</time>
      </trkpt>
      <trkpt lat="43.37102" lon="2.44172">
        <ele>752</ele>
        <time>2017-09-24T09:20:34.000Z</time>
      </trkpt>
      <trkpt lat="43.37103" lon="2.44172">
        <ele>752</ele>
        <time>2017-09-24T09:20:35.000Z</time>
      </trkpt>
      <trkpt lat="43.37104" lon="2.44171">
        <ele>752</ele>
        <time>2017-09-24T09:20:36.000Z</time>
      </trkpt>
      <trkpt lat="43.37105" lon="2.44171">
        <ele>753</ele>
        <time>2017-09-24T09:20:37.000Z</time>
      </trkpt>
      <trkpt lat="43.37106" lon="2.4417">
        <ele>753</ele>
        <time>2017-09-24T09:20:38.000Z</time>
      </trkpt>
      <trkpt lat="43.37107" lon="2.4417">
        <ele>753</ele>
        <time>2017-09-24T09:20:39.000Z</time>
      </trkpt>
      <trkpt lat="43.37108" lon="2.4417">
        <ele>754</ele>
        <time>2017-09-24T09:20:40.000Z</time>
      </trkpt>
      <trkpt lat="43.37109" lon="2.44169">
        <ele>754</ele>
        <time>2017-09-24T09:20:41.000Z</time>
      </trkpt>
      <trkpt lat="43.3711" lon="2.44169">
        <ele>754</ele>
        <time>2017-09-24T09:20:42.000Z</time>
      </trkpt>
      <trkpt lat="43.37111" lon="2.44168">
        <ele>755</ele>
        <time>2017-09-24T09:20:43.000Z</time>
      </trkpt>
      <trkpt lat="43.37111" lon="2.44167">
        <ele>755</ele>
        <time>2017-09-24T09:20:44.000Z</time>
      </trkpt>
      <trkpt lat="43.37112" lon="2.44166">
        <ele>755</ele>
        <time>2017-09-24T09:20:45.000Z</time>
      </trkpt>
      <trkpt lat="43.37113" lon="2.44166">
        <ele>755</ele>
        <time>2017-09-24T09:20:46.000Z</time>
      </trkpt>
      <trkpt lat="43.37114" lon="2.44165">
        <ele>756</ele>
        <time>2017-09-24T09:20:47.000Z</time>
      </trkpt>
      <trkpt lat="43.37115" lon="2.44165">
        <ele>756</ele>
        <time>2017-09-24T09:20:48.000Z</time>
      </trkpt>
      <trkpt lat="43.37116" lon="2.44165">
        <ele>756</ele>
        <time>2017-09-24T09:20:49.000Z</time>
      </trkpt>
      <trkpt lat="43.37117" lon="2.44163">
        <ele>756</ele>
        <time>2017-09-24T09:20:50.000Z</time>
      </trkpt>
      <trkpt lat="43.37118" lon="2.44163">
        <ele>756</ele>
        <time>2017-09-24T09:20:51.000Z</time>
      </trkpt>
      <trkpt lat="43.37119" lon="2.44162">
        <ele>757</ele>
        <time>2017-09-24T09:20:52.000Z</time>
      </trkpt>
      <trkpt lat="43.3712" lon="2.44162">
        <ele>757</ele>
        <time>2017-09-24T09:20:53.000Z</time>
      </trkpt>
      <trkpt lat="43.37121" lon="2.44162">
        <ele>757</ele>
        <time>2017-09-24T09:20:54.000Z</time>
      </trkpt>
      <trkpt lat="43.37122" lon="2.44162">
        <ele>757</ele>
        <time>2017-09-24T09:20:55.000Z</time>
      </trkpt>
      <trkpt lat="43.37123" lon="2.44162">
        <ele>757</ele>
        <time>2017-09-24T09:20:56.000Z</time>
      </trkpt>
      <trkpt lat="43.37124" lon="2.44162">
        <ele>757</ele>
        <time>2017-09-24T09:20:57.000Z</time>
      </trkpt>
      <trkpt lat="43.37125" lon="2.44162">
        <ele>757</ele>
        <time>2017-09-24T09:20:58.000Z</time>
      </trkpt>
      <trkpt lat="43.37126" lon="2.44162">
        <ele>757</ele>
        <time>2017-09-24T09:20:59.000Z</time>
      </trkpt>
      <trkpt lat="43.37127" lon="2.44162">
        <ele>758</ele>
        <time>2017-09-24T09:21:00.000Z</time>
      </trkpt>
      <trkpt lat="43.37128" lon="2.44162">
        <ele>758</ele>
        <time>2017-09-24T09:21:01.000Z</time>
      </trkpt>
      <trkpt lat="43.37129" lon="2.44162">
        <ele>758</ele>
        <time>2017-09-24T09:21:02.000Z</time>
      </trkpt>
      <trkpt lat="43.3713" lon="2.44162">
        <ele>758</ele>
        <time>2017-09-24T09:21:03.000Z</time>
      </trkpt>
      <trkpt lat="43.37131" lon="2.44162">
        <ele>758</ele>
        <time>2017-09-24T09:21:04.000Z</time>
      </trkpt>
      <trkpt lat="43.37132" lon="2.44163">
        <ele>758</ele>
        <time>2017-09-24T09:21:05.000Z</time>
      </trkpt>
      <trkpt lat="43.37133" lon="2.44163">
        <ele>758</ele>
        <time>2017-09-24T09:21:06.000Z</time>
      </trkpt>
      <trkpt lat="43.37134" lon="2.44163">
        <ele>758</ele>
        <time>2017-09-24T09:21:07.000Z</time>
      </trkpt>
      <trkpt lat="43.37134" lon="2.44164">
        <ele>758</ele>
        <time>2017-09-24T09:21:08.000Z</time>
      </trkpt>
      <trkpt lat="43.37135" lon="2.44164">
        <ele>758</ele>
        <time>2017-09-24T09:21:09.000Z</time>
      </trkpt>
      <trkpt lat="43.37136" lon="2.44164">
        <ele>758</ele>
        <time>2017-09-24T09:21:10.000Z</time>
      </trkpt>
      <trkpt lat="43.37136" lon="2.44164">
        <ele>758</ele>
        <time>2017-09-24T09:21:11.000Z</time>
      </trkpt>
      <trkpt lat="43.37137" lon="2.44164">
        <ele>758</ele>
        <time>2017-09-24T09:21:12.000Z</time>
      </trkpt>
      <trkpt lat="43.37137" lon="2.44164">
        <ele>758</ele>
        <time>2017-09-24T09:21:13.000Z</time>
      </trkpt>
      <trkpt lat="43.37137" lon="2.44165">
        <ele>758</ele>
        <time>2017-09-24T09:21:14.000Z</time>
      </trkpt>
      <trkpt lat="43.37137" lon="2.44165">
        <ele>758</ele>
        <time>2017-09-24T09:21:15.000Z</time>
      </trkpt>
      <trkpt lat="43.37143" lon="2.44167">
        <ele>758</ele>
        <time>2017-09-24T09:21:30.000Z</time>
      </trkpt>
      <trkpt lat="43.37144" lon="2.44167">
        <ele>758</ele>
        <time>2017-09-24T09:21:31.000Z</time>
      </trkpt>
      <trkpt lat="43.37144" lon="2.44167">
        <ele>758</ele>
        <time>2017-09-24T09:21:32.000Z</time>
      </trkpt>
      <trkpt lat="43.37145" lon="2.44168">
        <ele>758</ele>
        <time>2017-09-24T09:21:33.000Z</time>
      </trkpt>
      <trkpt lat="43.37146" lon="2.44168">
        <ele>758</ele>
        <time>2017-09-24T09:21:34.000Z</time>
      </trkpt>
      <trkpt lat="43.37147" lon="2.44168">
        <ele>758</ele>
        <time>2017-09-24T09:21:35.000Z</time>
      </trkpt>
      <trkpt lat="43.37148" lon="2.44168">
        <ele>759</ele>
        <time>2017-09-24T09:21:36.000Z</time>
      </trkpt>
      <trkpt lat="43.37148" lon="2.44168">
        <ele>759</ele>
        <time>2017-09-24T09:21:37.000Z</time>
      </trkpt>
      <trkpt lat="43.37149" lon="2.44168">
        <ele>759</ele>
        <time>2017-09-24T09:21:38.000Z</time>
      </trkpt>
      <trkpt lat="43.3715" lon="2.44168">
        <ele>759</ele>
        <time>2017-09-24T09:21:39.000Z</time>
      </trkpt>
      <trkpt lat="43.37151" lon="2.44168">
        <ele>759</ele>
        <time>2017-09-24T09:21:40.000Z</time>
      </trkpt>
      <trkpt lat="43.37152" lon="2.44168">
        <ele>759</ele>
        <time>2017-09-24T09:21:41.000Z</time>
      </trkpt>
      <trkpt lat="43.37153" lon="2.44168">
        <ele>759</ele>
        <time>2017-09-24T09:21:42.000Z</time>
      </trkpt>
      <trkpt lat="43.37154" lon="2.44169">
        <ele>759</ele>
        <time>2017-09-24T09:21:43.000Z</time>
      </trkpt>
      <trkpt lat="43.37155" lon="2.44169">
        <ele>759</ele>
        <time>2017-09-24T09:21:44.000Z</time>
      </trkpt>
      <trkpt lat="43.37156" lon="2.4417">
        <ele>759</ele>
        <time>2017-09-24T09:21:45.000Z</time>
      </trkpt>
      <trkpt lat="43.37157" lon="2.4417">
        <ele>759</ele>
        <time>2017-09-24T09:21:46.000Z</time>
      </trkpt>
      <trkpt lat="43.37158" lon="2.4417">
        <ele>759</ele>
        <time>2017-09-24T09:21:47.000Z</time>
      </trkpt>
      <trkpt lat="43.37159" lon="2.44171">
        <ele>759</ele>
        <time>2017-09-24T09:21:48.000Z</time>
      </trkpt>
      <trkpt lat="43.3716" lon="2.44171">
        <ele>759</ele>
        <time>2017-09-24T09:21:49.000Z</time>
      </trkpt>
      <trkpt lat="43.37161" lon="2.44171">
        <ele>759</ele>
        <time>2017-09-24T09:21:50.000Z</time>
      </trkpt>
      <trkpt lat="43.37162" lon="2.44171">
        <ele>759</ele>
        <time>2017-09-24T09:21:51.000Z</time>
      </trkpt>
      <trkpt lat="43.37163" lon="2.44171">
        <ele>759</ele>
        <time>2017-09-24T09:21:52.000Z</time>
      </trkpt>
      <trkpt lat="43.37164" lon="2.44171">
        <ele>759</ele>
        <time>2017-09-24T09:21:53.000Z</time>
      </trkpt>
      <trkpt lat="43.37165" lon="2.44172">
        <ele>759</ele>
        <time>2017-09-24T09:21:54.000Z</time>
      </trkpt>
      <trkpt lat="43.37166" lon="2.44172">
        <ele>759</ele>
        <time>2017-09-24T09:21:55.000Z</time>
      </trkpt>
      <trkpt lat="43.37167" lon="2.44172">
        <ele>759</ele>
        <time>2017-09-24T09:21:56.000Z</time>
      </trkpt>
      <trkpt lat="43.37168" lon="2.44173">
        <ele>759</ele>
        <time>2017-09-24T09:21:57.000Z</time>
      </trkpt>
      <trkpt lat="43.37169" lon="2.44173">
        <ele>759</ele>
        <time>2017-09-24T09:21:58.000Z</time>
      </trkpt>
      <trkpt lat="43.3717" lon="2.44173">
        <ele>759</ele>
        <time>2017-09-24T09:21:59.000Z</time>
      </trkpt>
      <trkpt lat="43.37171" lon="2.44173">
        <ele>759</ele>
        <time>2017-09-24T09:22:00.000Z</time>
      </trkpt>
      <trkpt lat="43.37172" lon="2.44174">
        <ele>759</ele>
        <time>2017-09-24T09:22:01.000Z</time>
      </trkpt>
      <trkpt lat="43.37173" lon="2.44174">
        <ele>759</ele>
        <time>2017-09-24T09:22:02.000Z</time>
      </trkpt>
      <trkpt lat="43.37174" lon="2.44174">
        <ele>759</ele>
        <time>2017-09-24T09:22:03.000Z</time>
      </trkpt>
      <trkpt lat="43.37175" lon="2.44174">
        <ele>759</ele>
        <time>2017-09-24T09:22:04.000Z</time>
      </trkpt>
      <trkpt lat="43.37176" lon="2.44174">
        <ele>759</ele>
        <time>2017-09-24T09:22:05.000Z</time>
      </trkpt>
      <trkpt lat="43.37177" lon="2.44175">
        <ele>759</ele>
        <time>2017-09-24T09:22:06.000Z</time>
      </trkpt>
      <trkpt lat="43.37178" lon="2.44175">
        <ele>759</ele>
        <time>2017-09-24T09:22:07.000Z</time>
      </trkpt>
      <trkpt lat="43.3718" lon="2.44175">
        <ele>759</ele>
        <time>2017-09-24T09:22:08.000Z</time>
      </trkpt>
      <trkpt lat="43.37181" lon="2.44175">
        <ele>759</ele>
        <time>2017-09-24T09:22:09.000Z</time>
      </trkpt>
      <trkpt lat="43.37182" lon="2.44176">
        <ele>759</ele>
        <time>2017-09-24T09:22:10.000Z</time>
      </trkpt>
      <trkpt lat="43.37183" lon="2.44176">
        <ele>759</ele>
        <time>2017-09-24T09:22:11.000Z</time>
      </trkpt>
      <trkpt lat="43.37184" lon="2.44176">
        <ele>759</ele>
        <time>2017-09-24T09:22:12.000Z</time>
      </trkpt>
      <trkpt lat="43.37185" lon="2.44177">
        <ele>759</ele>
        <time>2017-09-24T09:22:13.000Z</time>
      </trkpt>
      <trkpt lat="43.37186" lon="2.44177">
        <ele>759</ele>
        <time>2017-09-24T09:22:14.000Z</time>
      </trkpt>
      <trkpt lat="43.37187" lon="2.44177">
        <ele>759</ele>
        <time>2017-09-24T09:22:15.000Z</time>
      </trkpt>
      <trkpt lat="43.37188" lon="2.44178">
        <ele>759</ele>
        <time>2017-09-24T09:22:16.000Z</time>
      </trkpt>
      <trkpt lat="43.37189" lon="2.44178">
        <ele>759</ele>
        <time>2017-09-24T09:22:17.000Z</time>
      </trkpt>
      <trkpt lat="43.3719" lon="2.44178">
        <ele>759</ele>
        <time>2017-09-24T09:22:18.000Z</time>
      </trkpt>
      <trkpt lat="43.37192" lon="2.44179">
        <ele>759</ele>
        <time>2017-09-24T09:22:19.000Z</time>
      </trkpt>
      <trkpt lat="43.37193" lon="2.44179">
        <ele>759</ele>
        <time>2017-09-24T09:22:20.000Z</time>
      </trkpt>
      <trkpt lat="43.37194" lon="2.44179">
        <ele>759</ele>
        <time>2017-09-24T09:22:21.000Z</time>
      </trkpt>
      <trkpt lat="43.37195" lon="2.4418">
        <ele>759</ele>
        <time>2017-09-24T09:22:22.000Z</time>
      </trkpt>
      <trkpt lat="43.37196" lon="2.4418">
        <ele>759</ele>
        <time>2017-09-24T09:22:23.000Z</time>
      </trkpt>
      <trkpt lat="43.37197" lon="2.44181">
        <ele>758</ele>
        <time>2017-09-24T09:22:24.000Z</time>
      </trkpt>
      <trkpt lat="43.37198" lon="2.44182">
        <ele>758</ele>
        <time>2017-09-24T09:22:25.000Z</time>
      </trkpt>
      <trkpt lat="43.37199" lon="2.44182">
        <ele>758</ele>
        <time>2017-09-24T09:22:26.000Z</time>
      </trkpt>
      <trkpt lat="43.372" lon="2.44183">
        <ele>758</ele>
        <time>2017-09-24T09:22:27.000Z</time>
      </trkpt>
      <trkpt lat="43.37201" lon="2.44183">
        <ele>758</ele>
        <time>2017-09-24T09:22:28.000Z</time>
      </trkpt>
      <trkpt lat="43.37202" lon="2.44184">
        <ele>758</ele>
        <time>2017-09-24T09:22:29.000Z</time>
      </trkpt>
      <trkpt lat="43.37203" lon="2.44184">
        <ele>758</ele>
        <time>2017-09-24T09:22:30.000Z</time>
      </trkpt>
      <trkpt lat="43.37204" lon="2.44185">
        <ele>758</ele>
        <time>2017-09-24T09:22:31.000Z</time>
      </trkpt>
      <trkpt lat="43.37206" lon="2.44185">
        <ele>758</ele>
        <time>2017-09-24T09:22:32.000Z</time>
      </trkpt>
      <trkpt lat="43.37207" lon="2.44185">
        <ele>758</ele>
        <time>2017-09-24T09:22:33.000Z</time>
      </trkpt>
      <trkpt lat="43.37208" lon="2.44185">
        <ele>758</ele>
        <time>2017-09-24T09:22:34.000Z</time>
      </trkpt>
      <trkpt lat="43.3721" lon="2.44186">
        <ele>758</ele>
        <time>2017-09-24T09:22:35.000Z</time>
      </trkpt>
      <trkpt lat="43.37211" lon="2.44186">
        <ele>758</ele>
        <time>2017-09-24T09:22:36.000Z</time>
      </trkpt>
      <trkpt lat="43.37212" lon="2.44186">
        <ele>758</ele>
        <time>2017-09-24T09:22:37.000Z</time>
      </trkpt>
      <trkpt lat="43.37213" lon="2.44186">
        <ele>758</ele>
        <time>2017-09-24T09:22:38.000Z</time>
      </trkpt>
      <trkpt lat="43.37214" lon="2.44186">
        <ele>758</ele>
        <time>2017-09-24T09:22:39.000Z</time>
      </trkpt>
      <trkpt lat="43.37216" lon="2.44186">
        <ele>759</ele>
        <time>2017-09-24T09:22:40.000Z</time>
      </trkpt>
      <trkpt lat="43.37217" lon="2.44185">
        <ele>759</ele>
        <time>2017-09-24T09:22:41.000Z</time>
      </trkpt>
      <trkpt lat="43.37218" lon="2.44185">
        <ele>759</ele>
        <time>2017-09-24T09:22:42.000Z</time>
      </trkpt>
      <trkpt lat="43.37219" lon="2.44185">
        <ele>759</ele>
        <time>2017-09-24T09:22:43.000Z</time>
      </trkpt>
      <trkpt lat="43.3722" lon="2.44185">
        <ele>759</ele>
        <time>2017-09-24T09:22:44.000Z</time>
      </trkpt>
      <trkpt lat="43.37221" lon="2.44185">
        <ele>759</ele>
        <time>2017-09-24T09:22:45.000Z</time>
      </trkpt>
      <trkpt lat="43.37222" lon="2.44185">
        <ele>759</ele>
        <time>2017-09-24T09:22:46.000Z</time>
      </trkpt>
      <trkpt lat="43.37223" lon="2.44185">
        <ele>760</ele>
        <time>2017-09-24T09:22:47.000Z</time>
      </trkpt>
      <trkpt lat="43.37223" lon="2.44185">
        <ele>760</ele>
        <time>2017-09-24T09:22:48.000Z</time>
      </trkpt>
      <trkpt lat="43.37224" lon="2.44185">
        <ele>760</ele>
        <time>2017-09-24T09:22:49.000Z</time>
      </trkpt>
      <trkpt lat="43.37226" lon="2.44185">
        <ele>760</ele>
        <time>2017-09-24T09:22:50.000Z</time>
      </trkpt>
      <trkpt lat="43.37227" lon="2.44185">
        <ele>760</ele>
        <time>2017-09-24T09:22:51.000Z</time>
      </trkpt>
      <trkpt lat="43.37228" lon="2.44185">
        <ele>760</ele>
        <time>2017-09-24T09:22:52.000Z</time>
      </trkpt>
      <trkpt lat="43.37229" lon="2.44184">
        <ele>761</ele>
        <time>2017-09-24T09:22:53.000Z</time>
      </trkpt>
      <trkpt lat="43.3723" lon="2.44184">
        <ele>761</ele>
        <time>2017-09-24T09:22:54.000Z</time>
      </trkpt>
      <trkpt lat="43.37231" lon="2.44184">
        <ele>761</ele>
        <time>2017-09-24T09:22:55.000Z</time>
      </trkpt>
      <trkpt lat="43.37232" lon="2.44184">
        <ele>761</ele>
        <time>2017-09-24T09:22:56.000Z</time>
      </trkpt>
      <trkpt lat="43.37233" lon="2.44183">
        <ele>762</ele>
        <time>2017-09-24T09:22:57.000Z</time>
      </trkpt>
      <trkpt lat="43.37234" lon="2.44183">
        <ele>762</ele>
        <time>2017-09-24T09:22:58.000Z</time>
      </trkpt>
      <trkpt lat="43.37235" lon="2.44183">
        <ele>762</ele>
        <time>2017-09-24T09:22:59.000Z</time>
      </trkpt>
      <trkpt lat="43.37236" lon="2.44182">
        <ele>763</ele>
        <time>2017-09-24T09:23:00.000Z</time>
      </trkpt>
      <trkpt lat="43.37237" lon="2.44182">
        <ele>763</ele>
        <time>2017-09-24T09:23:01.000Z</time>
      </trkpt>
      <trkpt lat="43.37238" lon="2.44181">
        <ele>763</ele>
        <time>2017-09-24T09:23:02.000Z</time>
      </trkpt>
      <trkpt lat="43.37239" lon="2.4418">
        <ele>764</ele>
        <time>2017-09-24T09:23:03.000Z</time>
      </trkpt>
      <trkpt lat="43.3724" lon="2.4418">
        <ele>764</ele>
        <time>2017-09-24T09:23:04.000Z</time>
      </trkpt>
      <trkpt lat="43.37241" lon="2.4418">
        <ele>764</ele>
        <time>2017-09-24T09:23:05.000Z</time>
      </trkpt>
      <trkpt lat="43.37242" lon="2.44179">
        <ele>764</ele>
        <time>2017-09-24T09:23:06.000Z</time>
      </trkpt>
      <trkpt lat="43.37242" lon="2.44179">
        <ele>765</ele>
        <time>2017-09-24T09:23:07.000Z</time>
      </trkpt>
      <trkpt lat="43.37243" lon="2.44178">
        <ele>765</ele>
        <time>2017-09-24T09:23:08.000Z</time>
      </trkpt>
      <trkpt lat="43.37244" lon="2.44178">
        <ele>765</ele>
        <time>2017-09-24T09:23:09.000Z</time>
      </trkpt>
      <trkpt lat="43.37245" lon="2.44177">
        <ele>766</ele>
        <time>2017-09-24T09:23:10.000Z</time>
      </trkpt>
      <trkpt lat="43.37246" lon="2.44176">
        <ele>766</ele>
        <time>2017-09-24T09:23:11.000Z</time>
      </trkpt>
      <trkpt lat="43.37247" lon="2.44176">
        <ele>767</ele>
        <time>2017-09-24T09:23:12.000Z</time>
      </trkpt>
      <trkpt lat="43.37248" lon="2.44176">
        <ele>767</ele>
        <time>2017-09-24T09:23:13.000Z</time>
      </trkpt>
      <trkpt lat="43.37248" lon="2.44176">
        <ele>767</ele>
        <time>2017-09-24T09:23:14.000Z</time>
      </trkpt>
      <trkpt lat="43.37249" lon="2.44175">
        <ele>767</ele>
        <time>2017-09-24T09:23:15.000Z</time>
      </trkpt>
      <trkpt lat="43.3725" lon="2.44175">
        <ele>767</ele>
        <time>2017-09-24T09:23:16.000Z</time>
      </trkpt>
      <trkpt lat="43.37251" lon="2.44175">
        <ele>768</ele>
        <time>2017-09-24T09:23:17.000Z</time>
      </trkpt>
      <trkpt lat="43.37252" lon="2.44175">
        <ele>768</ele>
        <time>2017-09-24T09:23:18.000Z</time>
      </trkpt>
      <trkpt lat="43.37253" lon="2.44174">
        <ele>768</ele>
        <time>2017-09-24T09:23:19.000Z</time>
      </trkpt>
      <trkpt lat="43.37254" lon="2.44174">
        <ele>768</ele>
        <time>2017-09-24T09:23:20.000Z</time>
      </trkpt>
      <trkpt lat="43.37255" lon="2.44174">
        <ele>769</ele>
        <time>2017-09-24T09:23:21.000Z</time>
      </trkpt>
      <trkpt lat="43.37256" lon="2.44173">
        <ele>769</ele>
        <time>2017-09-24T09:23:22.000Z</time>
      </trkpt>
      <trkpt lat="43.37257" lon="2.44173">
        <ele>769</ele>
        <time>2017-09-24T09:23:23.000Z</time>
      </trkpt>
      <trkpt lat="43.37258" lon="2.44173">
        <ele>769</ele>
        <time>2017-09-24T09:23:24.000Z</time>
      </trkpt>
      <trkpt lat="43.37259" lon="2.44173">
        <ele>769</ele>
        <time>2017-09-24T09:23:25.000Z</time>
      </trkpt>
      <trkpt lat="43.3726" lon="2.44173">
        <ele>769</ele>
        <time>2017-09-24T09:23:26.000Z</time>
      </trkpt>
      <trkpt lat="43.37261" lon="2.44173">
        <ele>770</ele>
        <time>2017-09-24T09:23:27.000Z</time>
      </trkpt>
      <trkpt lat="43.37262" lon="2.44172">
        <ele>770</ele>
        <time>2017-09-24T09:23:28.000Z</time>
      </trkpt>
      <trkpt lat="43.37264" lon="2.44172">
        <ele>770</ele>
        <time>2017-09-24T09:23:29.000Z</time>
      </trkpt>
      <trkpt lat="43.37264" lon="2.44172">
        <ele>770</ele>
        <time>2017-09-24T09:23:30.000Z</time>
      </trkpt>
      <trkpt lat="43.37266" lon="2.44172">
        <ele>770</ele>
        <time>2017-09-24T09:23:31.000Z</time>
      </trkpt>
      <trkpt lat="43.37267" lon="2.44171">
        <ele>771</ele>
        <time>2017-09-24T09:23:32.000Z</time>
      </trkpt>
      <trkpt lat="43.37268" lon="2.44172">
        <ele>771</ele>
        <time>2017-09-24T09:23:33.000Z</time>
      </trkpt>
      <trkpt lat="43.37269" lon="2.44171">
        <ele>771</ele>
        <time>2017-09-24T09:23:34.000Z</time>
      </trkpt>
      <trkpt lat="43.3727" lon="2.44171">
        <ele>771</ele>
        <time>2017-09-24T09:23:35.000Z</time>
      </trkpt>
      <trkpt lat="43.37271" lon="2.44171">
        <ele>771</ele>
        <time>2017-09-24T09:23:36.000Z</time>
      </trkpt>
      <trkpt lat="43.37272" lon="2.4417">
        <ele>771</ele>
        <time>2017-09-24T09:23:37.000Z</time>
      </trkpt>
      <trkpt lat="43.37273" lon="2.4417">
        <ele>772</ele>
        <time>2017-09-24T09:23:38.000Z</time>
      </trkpt>
      <trkpt lat="43.37274" lon="2.44169">
        <ele>772</ele>
        <time>2017-09-24T09:23:39.000Z</time>
      </trkpt>
      <trkpt lat="43.37275" lon="2.44169">
        <ele>772</ele>
        <time>2017-09-24T09:23:40.000Z</time>
      </trkpt>
      <trkpt lat="43.37276" lon="2.44169">
        <ele>772</ele>
        <time>2017-09-24T09:23:41.000Z</time>
      </trkpt>
      <trkpt lat="43.37277" lon="2.44169">
        <ele>772</ele>
        <time>2017-09-24T09:23:42.000Z</time>
      </trkpt>
      <trkpt lat="43.37278" lon="2.44168">
        <ele>772</ele>
        <time>2017-09-24T09:23:43.000Z</time>
      </trkpt>
      <trkpt lat="43.37279" lon="2.44168">
        <ele>772</ele>
        <time>2017-09-24T09:23:44.000Z</time>
      </trkpt>
      <trkpt lat="43.37281" lon="2.44168">
        <ele>772</ele>
        <time>2017-09-24T09:23:45.000Z</time>
      </trkpt>
      <trkpt lat="43.37282" lon="2.44168">
        <ele>772</ele>
        <time>2017-09-24T09:23:46.000Z</time>
      </trkpt>
      <trkpt lat="43.37283" lon="2.44168">
        <ele>772</ele>
        <time>2017-09-24T09:23:47.000Z</time>
      </trkpt>
      <trkpt lat="43.37284" lon="2.44168">
        <ele>772</ele>
        <time>2017-09-24T09:23:48.000Z</time>
      </trkpt>
      <trkpt lat="43.37285" lon="2.44168">
        <ele>772</ele>
        <time>2017-09-24T09:23:49.000Z</time>
      </trkpt>
      <trkpt lat="43.37287" lon="2.44167">
        <ele>773</ele>
        <time>2017-09-24T09:23:50.000Z</time>
      </trkpt>
      <trkpt lat="43.37288" lon="2.44167">
        <ele>773</ele>
        <time>2017-09-24T09:23:51.000Z</time>
      </trkpt>
      <trkpt lat="43.37289" lon="2.44167">
        <ele>773</ele>
        <time>2017-09-24T09:23:52.000Z</time>
      </trkpt>
      <trkpt lat="43.3729" lon="2.44166">
        <ele>773</ele>
        <time>2017-09-24T09:23:53.000Z</time>
      </trkpt>
      <trkpt lat="43.37291" lon="2.44165">
        <ele>773</ele>
        <time>2017-09-24T09:23:54.000Z</time>
      </trkpt>
      <trkpt lat="43.37292" lon="2.44165">
        <ele>773</ele>
        <time>2017-09-24T09:23:55.000Z</time>
      </trkpt>
      <trkpt lat="43.37293" lon="2.44165">
        <ele>774</ele>
        <time>2017-09-24T09:23:56.000Z</time>
      </trkpt>
      <trkpt lat="43.37294" lon="2.44164">
        <ele>774</ele>
        <time>2017-09-24T09:23:57.000Z</time>
      </trkpt>
      <trkpt lat="43.37295" lon="2.44164">
        <ele>774</ele>
        <time>2017-09-24T09:23:58.000Z</time>
      </trkpt>
      <trkpt lat="43.37296" lon="2.44163">
        <ele>774</ele>
        <time>2017-09-24T09:23:59.000Z</time>
      </trkpt>
      <trkpt lat="43.37297" lon="2.44163">
        <ele>774</ele>
        <time>2017-09-24T09:24:00.000Z</time>
      </trkpt>
      <trkpt lat="43.37298" lon="2.44163">
        <ele>774</ele>
        <time>2017-09-24T09:24:01.000Z</time>
      </trkpt>
      <trkpt lat="43.37299" lon="2.44163">
        <ele>774</ele>
        <time>2017-09-24T09:24:02.000Z</time>
      </trkpt>
      <trkpt lat="43.373" lon="2.44164">
        <ele>774</ele>
        <time>2017-09-24T09:24:03.000Z</time>
      </trkpt>
      <trkpt lat="43.37301" lon="2.44164">
        <ele>774</ele>
        <time>2017-09-24T09:24:04.000Z</time>
      </trkpt>
      <trkpt lat="43.37302" lon="2.44165">
        <ele>774</ele>
        <time>2017-09-24T09:24:05.000Z</time>
      </trkpt>
      <trkpt lat="43.37303" lon="2.44165">
        <ele>774</ele>
        <time>2017-09-24T09:24:06.000Z</time>
      </trkpt>
      <trkpt lat="43.37304" lon="2.44165">
        <ele>774</ele>
        <time>2017-09-24T09:24:07.000Z</time>
      </trkpt>
      <trkpt lat="43.37305" lon="2.44164">
        <ele>774</ele>
        <time>2017-09-24T09:24:08.000Z</time>
      </trkpt>
      <trkpt lat="43.37307" lon="2.44164">
        <ele>774</ele>
        <time>2017-09-24T09:24:09.000Z</time>
      </trkpt>
      <trkpt lat="43.37308" lon="2.44164">
        <ele>774</ele>
        <time>2017-09-24T09:24:10.000Z</time>
      </trkpt>
      <trkpt lat="43.37309" lon="2.44163">
        <ele>774</ele>
        <time>2017-09-24T09:24:11.000Z</time>
      </trkpt>
      <trkpt lat="43.3731" lon="2.44163">
        <ele>774</ele>
        <time>2017-09-24T09:24:12.000Z</time>
      </trkpt>
      <trkpt lat="43.37311" lon="2.44163">
        <ele>774</ele>
        <time>2017-09-24T09:24:13.000Z</time>
      </trkpt>
      <trkpt lat="43.37312" lon="2.44162">
        <ele>774</ele>
        <time>2017-09-24T09:24:14.000Z</time>
      </trkpt>
      <trkpt lat="43.37313" lon="2.44162">
        <ele>774</ele>
        <time>2017-09-24T09:24:15.000Z</time>
      </trkpt>
      <trkpt lat="43.37314" lon="2.44162">
        <ele>774</ele>
        <time>2017-09-24T09:24:16.000Z</time>
      </trkpt>
      <trkpt lat="43.37315" lon="2.44162">
        <ele>775</ele>
        <time>2017-09-24T09:24:17.000Z</time>
      </trkpt>
      <trkpt lat="43.37316" lon="2.44161">
        <ele>775</ele>
        <time>2017-09-24T09:24:18.000Z</time>
      </trkpt>
      <trkpt lat="43.37318" lon="2.44161">
        <ele>775</ele>
        <time>2017-09-24T09:24:19.000Z</time>
      </trkpt>
      <trkpt lat="43.37319" lon="2.44161">
        <ele>775</ele>
        <time>2017-09-24T09:24:20.000Z</time>
      </trkpt>
      <trkpt lat="43.3732" lon="2.44161">
        <ele>775</ele>
        <time>2017-09-24T09:24:21.000Z</time>
      </trkpt>
      <trkpt lat="43.37321" lon="2.44161">
        <ele>775</ele>
        <time>2017-09-24T09:24:22.000Z</time>
      </trkpt>
      <trkpt lat="43.37322" lon="2.44161">
        <ele>775</ele>
        <time>2017-09-24T09:24:23.000Z</time>
      </trkpt>
      <trkpt lat="43.37324" lon="2.44162">
        <ele>775</ele>
        <time>2017-09-24T09:24:24.000Z</time>
      </trkpt>
      <trkpt lat="43.37325" lon="2.44162">
        <ele>775</ele>
        <time>2017-09-24T09:24:25.000Z</time>
      </trkpt>
      <trkpt lat="43.37326" lon="2.44162">
        <ele>775</ele>
        <time>2017-09-24T09:24:26.000Z</time>
      </trkpt>
      <trkpt lat="43.37327" lon="2.44162">
        <ele>775</ele>
        <time>2017-09-24T09:24:27.000Z</time>
      </trkpt>
      <trkpt lat="43.37329" lon="2.44163">
        <ele>774</ele>
        <time>2017-09-24T09:24:28.000Z</time>
      </trkpt>
      <trkpt lat="43.3733" lon="2.44163">
        <ele>774</ele>
        <time>2017-09-24T09:24:29.000Z</time>
      </trkpt>
      <trkpt lat="43.37331" lon="2.44163">
        <ele>774</ele>
        <time>2017-09-24T09:24:30.000Z</time>
      </trkpt>
      <trkpt lat="43.37332" lon="2.44163">
        <ele>774</ele>
        <time>2017-09-24T09:24:31.000Z</time>
      </trkpt>
      <trkpt lat="43.37333" lon="2.44163">
        <ele>774</ele>
        <time>2017-09-24T09:24:32.000Z</time>
      </trkpt>
      <trkpt lat="43.37334" lon="2.44163">
        <ele>774</ele>
        <time>2017-09-24T09:24:33.000Z</time>
      </trkpt>
      <trkpt lat="43.37335" lon="2.44162">
        <ele>775</ele>
        <time>2017-09-24T09:24:34.000Z</time>
      </trkpt>
      <trkpt lat="43.37336" lon="2.44162">
        <ele>775</ele>
        <time>2017-09-24T09:24:35.000Z</time>
      </trkpt>
      <trkpt lat="43.37337" lon="2.44162">
        <ele>775</ele>
        <time>2017-09-24T09:24:36.000Z</time>
      </trkpt>
      <trkpt lat="43.37338" lon="2.44162">
        <ele>775</ele>
        <time>2017-09-24T09:24:37.000Z</time>
      </trkpt>
      <trkpt lat="43.37339" lon="2.44162">
        <ele>775</ele>
        <time>2017-09-24T09:24:38.000Z</time>
      </trkpt>
      <trkpt lat="43.3734" lon="2.44163">
        <ele>775</ele>
        <time>2017-09-24T09:24:39.000Z</time>
      </trkpt>
      <trkpt lat="43.37341" lon="2.44163">
        <ele>774</ele>
        <time>2017-09-24T09:24:40.000Z</time>
      </trkpt>
      <trkpt lat="43.37342" lon="2.44164">
        <ele>774</ele>
        <time>2017-09-24T09:24:41.000Z</time>
      </trkpt>
      <trkpt lat="43.37343" lon="2.44165">
        <ele>774</ele>
        <time>2017-09-24T09:24:42.000Z</time>
      </trkpt>
      <trkpt lat="43.37344" lon="2.44165">
        <ele>774</ele>
        <time>2017-09-24T09:24:43.000Z</time>
      </trkpt>
      <trkpt lat="43.37345" lon="2.44166">
        <ele>774</ele>
        <time>2017-09-24T09:24:44.000Z</time>
      </trkpt>
      <trkpt lat="43.37346" lon="2.44166">
        <ele>774</ele>
        <time>2017-09-24T09:24:45.000Z</time>
      </trkpt>
      <trkpt lat="43.37347" lon="2.44167">
        <ele>774</ele>
        <time>2017-09-24T09:24:46.000Z</time>
      </trkpt>
      <trkpt lat="43.37348" lon="2.44167">
        <ele>773</ele>
        <time>2017-09-24T09:24:47.000Z</time>
      </trkpt>
      <trkpt lat="43.37349" lon="2.44168">
        <ele>773</ele>
        <time>2017-09-24T09:24:48.000Z</time>
      </trkpt>
      <trkpt lat="43.37351" lon="2.44169">
        <ele>773</ele>
        <time>2017-09-24T09:24:49.000Z</time>
      </trkpt>
      <trkpt lat="43.37352" lon="2.4417">
        <ele>773</ele>
        <time>2017-09-24T09:24:50.000Z</time>
      </trkpt>
      <trkpt lat="43.37353" lon="2.4417">
        <ele>773</ele>
        <time>2017-09-24T09:24:51.000Z</time>
      </trkpt>
      <trkpt lat="43.37354" lon="2.4417">
        <ele>774</ele>
        <time>2017-09-24T09:24:52.000Z</time>
      </trkpt>
      <trkpt lat="43.37355" lon="2.4417">
        <ele>774</ele>
        <time>2017-09-24T09:24:53.000Z</time>
      </trkpt>
      <trkpt lat="43.37356" lon="2.4417">
        <ele>774</ele>
        <time>2017-09-24T09:24:54.000Z</time>
      </trkpt>
      <trkpt lat="43.37357" lon="2.4417">
        <ele>774</ele>
        <time>2017-09-24T09:24:55.000Z</time>
      </trkpt>
      <trkpt lat="43.37358" lon="2.4417">
        <ele>774</ele>
        <time>2017-09-24T09:24:56.000Z</time>
      </trkpt>
      <trkpt lat="43.37359" lon="2.4417">
        <ele>774</ele>
        <time>2017-09-24T09:24:57.000Z</time>
      </trkpt>
      <trkpt lat="43.3736" lon="2.4417">
        <ele>775</ele>
        <time>2017-09-24T09:24:58.000Z</time>
      </trkpt>
      <trkpt lat="43.37361" lon="2.4417">
        <ele>775</ele>
        <time>2017-09-24T09:24:59.000Z</time>
      </trkpt>
      <trkpt lat="43.37362" lon="2.4417">
        <ele>775</ele>
        <time>2017-09-24T09:25:00.000Z</time>
      </trkpt>
      <trkpt lat="43.37363" lon="2.4417">
        <ele>775</ele>
        <time>2017-09-24T09:25:01.000Z</time>
      </trkpt>
      <trkpt lat="43.37364" lon="2.4417">
        <ele>775</ele>
        <time>2017-09-24T09:25:02.000Z</time>
      </trkpt>
      <trkpt lat="43.37365" lon="2.4417">
        <ele>775</ele>
        <time>2017-09-24T09:25:03.000Z</time>
      </trkpt>
      <trkpt lat="43.37366" lon="2.4417">
        <ele>776</ele>
        <time>2017-09-24T09:25:04.000Z</time>
      </trkpt>
      <trkpt lat="43.37367" lon="2.44171">
        <ele>776</ele>
        <time>2017-09-24T09:25:05.000Z</time>
      </trkpt>
      <trkpt lat="43.37368" lon="2.44171">
        <ele>776</ele>
        <time>2017-09-24T09:25:06.000Z</time>
      </trkpt>
      <trkpt lat="43.37369" lon="2.44171">
        <ele>776</ele>
        <time>2017-09-24T09:25:07.000Z</time>
      </trkpt>
      <trkpt lat="43.3737" lon="2.44171">
        <ele>776</ele>
        <time>2017-09-24T09:25:08.000Z</time>
      </trkpt>
      <trkpt lat="43.37371" lon="2.44171">
        <ele>776</ele>
        <time>2017-09-24T09:25:09.000Z</time>
      </trkpt>
      <trkpt lat="43.37372" lon="2.44171">
        <ele>776</ele>
        <time>2017-09-24T09:25:10.000Z</time>
      </trkpt>
      <trkpt lat="43.37372" lon="2.44171">
        <ele>776</ele>
        <time>2017-09-24T09:25:11.000Z</time>
      </trkpt>
      <trkpt lat="43.37373" lon="2.44172">
        <ele>776</ele>
        <time>2017-09-24T09:25:12.000Z</time>
      </trkpt>
      <trkpt lat="43.37374" lon="2.44172">
        <ele>777</ele>
        <time>2017-09-24T09:25:13.000Z</time>
      </trkpt>
      <trkpt lat="43.37375" lon="2.44172">
        <ele>777</ele>
        <time>2017-09-24T09:25:14.000Z</time>
      </trkpt>
      <trkpt lat="43.37376" lon="2.44172">
        <ele>777</ele>
        <time>2017-09-24T09:25:15.000Z</time>
      </trkpt>
      <trkpt lat="43.37376" lon="2.44173">
        <ele>776</ele>
        <time>2017-09-24T09:25:16.000Z</time>
      </trkpt>
      <trkpt lat="43.37377" lon="2.44173">
        <ele>777</ele>
        <time>2017-09-24T09:25:17.000Z</time>
      </trkpt>
      <trkpt lat="43.37378" lon="2.44174">
        <ele>777</ele>
        <time>2017-09-24T09:25:18.000Z</time>
      </trkpt>
      <trkpt lat="43.37379" lon="2.44174">
        <ele>777</ele>
        <time>2017-09-24T09:25:19.000Z</time>
      </trkpt>
      <trkpt lat="43.3738" lon="2.44174">
        <ele>777</ele>
        <time>2017-09-24T09:25:20.000Z</time>
      </trkpt>
      <trkpt lat="43.37381" lon="2.44174">
        <ele>777</ele>
        <time>2017-09-24T09:25:21.000Z</time>
      </trkpt>
      <trkpt lat="43.37382" lon="2.44174">
        <ele>777</ele>
        <time>2017-09-24T09:25:22.000Z</time>
      </trkpt>
      <trkpt lat="43.37383" lon="2.44175">
        <ele>777</ele>
        <time>2017-09-24T09:25:23.000Z</time>
      </trkpt>
      <trkpt lat="43.37384" lon="2.44174">
        <ele>777</ele>
        <time>2017-09-24T09:25:24.000Z</time>
      </trkpt>
      <trkpt lat="43.37385" lon="2.44175">
        <ele>778</ele>
        <time>2017-09-24T09:25:25.000Z</time>
      </trkpt>
      <trkpt lat="43.37386" lon="2.44175">
        <ele>778</ele>
        <time>2017-09-24T09:25:26.000Z</time>
      </trkpt>
      <trkpt lat="43.37387" lon="2.44175">
        <ele>778</ele>
        <time>2017-09-24T09:25:27.000Z</time>
      </trkpt>
      <trkpt lat="43.37389" lon="2.44176">
        <ele>778</ele>
        <time>2017-09-24T09:25:28.000Z</time>
      </trkpt>
      <trkpt lat="43.3739" lon="2.44177">
        <ele>778</ele>
        <time>2017-09-24T09:25:29.000Z</time>
      </trkpt>
      <trkpt lat="43.37391" lon="2.44177">
        <ele>778</ele>
        <time>2017-09-24T09:25:30.000Z</time>
      </trkpt>
      <trkpt lat="43.37392" lon="2.44177">
        <ele>778</ele>
        <time>2017-09-24T09:25:31.000Z</time>
      </trkpt>
      <trkpt lat="43.37393" lon="2.44178">
        <ele>778</ele>
        <time>2017-09-24T09:25:32.000Z</time>
      </trkpt>
      <trkpt lat="43.37394" lon="2.44178">
        <ele>778</ele>
        <time>2017-09-24T09:25:33.000Z</time>
      </trkpt>
      <trkpt lat="43.37395" lon="2.44178">
        <ele>778</ele>
        <time>2017-09-24T09:25:34.000Z</time>
      </trkpt>
      <trkpt lat="43.37396" lon="2.44178">
        <ele>778</ele>
        <time>2017-09-24T09:25:35.000Z</time>
      </trkpt>
      <trkpt lat="43.37397" lon="2.44177">
        <ele>779</ele>
        <time>2017-09-24T09:25:36.000Z</time>
      </trkpt>
      <trkpt lat="43.37398" lon="2.44177">
        <ele>779</ele>
        <time>2017-09-24T09:25:37.000Z</time>
      </trkpt>
      <trkpt lat="43.37399" lon="2.44177">
        <ele>779</ele>
        <time>2017-09-24T09:25:38.000Z</time>
      </trkpt>
      <trkpt lat="43.374" lon="2.44178">
        <ele>779</ele>
        <time>2017-09-24T09:25:39.000Z</time>
      </trkpt>
      <trkpt lat="43.37402" lon="2.44178">
        <ele>779</ele>
        <time>2017-09-24T09:25:40.000Z</time>
      </trkpt>
      <trkpt lat="43.37403" lon="2.44178">
        <ele>779</ele>
        <time>2017-09-24T09:25:41.000Z</time>
      </trkpt>
      <trkpt lat="43.37404" lon="2.44179">
        <ele>779</ele>
        <time>2017-09-24T09:25:42.000Z</time>
      </trkpt>
      <trkpt lat="43.37405" lon="2.44179">
        <ele>780</ele>
        <time>2017-09-24T09:25:43.000Z</time>
      </trkpt>
      <trkpt lat="43.37406" lon="2.44179">
        <ele>780</ele>
        <time>2017-09-24T09:25:44.000Z</time>
      </trkpt>
      <trkpt lat="43.37407" lon="2.44179">
        <ele>780</ele>
        <time>2017-09-24T09:25:45.000Z</time>
      </trkpt>
      <trkpt lat="43.37408" lon="2.4418">
        <ele>780</ele>
        <time>2017-09-24T09:25:46.000Z</time>
      </trkpt>
      <trkpt lat="43.37409" lon="2.4418">
        <ele>780</ele>
        <time>2017-09-24T09:25:47.000Z</time>
      </trkpt>
      <trkpt lat="43.3741" lon="2.44181">
        <ele>780</ele>
        <time>2017-09-24T09:25:48.000Z</time>
      </trkpt>
      <trkpt lat="43.37411" lon="2.44181">
        <ele>780</ele>
        <time>2017-09-24T09:25:49.000Z</time>
      </trkpt>
      <trkpt lat="43.37412" lon="2.44182">
        <ele>780</ele>
        <time>2017-09-24T09:25:50.000Z</time>
      </trkpt>
      <trkpt lat="43.37413" lon="2.44182">
        <ele>780</ele>
        <time>2017-09-24T09:25:51.000Z</time>
      </trkpt>
      <trkpt lat="43.37414" lon="2.44183">
        <ele>780</ele>
        <time>2017-09-24T09:25:52.000Z</time>
      </trkpt>
      <trkpt lat="43.37415" lon="2.44184">
        <ele>780</ele>
        <time>2017-09-24T09:25:53.000Z</time>
      </trkpt>
      <trkpt lat="43.37416" lon="2.44184">
        <ele>780</ele>
        <time>2017-09-24T09:25:54.000Z</time>
      </trkpt>
      <trkpt lat="43.37417" lon="2.44184">
        <ele>780</ele>
        <time>2017-09-24T09:25:55.000Z</time>
      </trkpt>
      <trkpt lat="43.37418" lon="2.44185">
        <ele>780</ele>
        <time>2017-09-24T09:25:56.000Z</time>
      </trkpt>
      <trkpt lat="43.37419" lon="2.44185">
        <ele>780</ele>
        <time>2017-09-24T09:25:57.000Z</time>
      </trkpt>
      <trkpt lat="43.3742" lon="2.44185">
        <ele>780</ele>
        <time>2017-09-24T09:25:58.000Z</time>
      </trkpt>
      <trkpt lat="43.37421" lon="2.44186">
        <ele>780</ele>
        <time>2017-09-24T09:25:59.000Z</time>
      </trkpt>
      <trkpt lat="43.37423" lon="2.44186">
        <ele>780</ele>
        <time>2017-09-24T09:26:00.000Z</time>
      </trkpt>
      <trkpt lat="43.37424" lon="2.44187">
        <ele>780</ele>
        <time>2017-09-24T09:26:01.000Z</time>
      </trkpt>
      <trkpt lat="43.37425" lon="2.44187">
        <ele>780</ele>
        <time>2017-09-24T09:26:02.000Z</time>
      </trkpt>
      <trkpt lat="43.37426" lon="2.44188">
        <ele>780</ele>
        <time>2017-09-24T09:26:03.000Z</time>
      </trkpt>
      <trkpt lat="43.37427" lon="2.44188">
        <ele>780</ele>
        <time>2017-09-24T09:26:04.000Z</time>
      </trkpt>
      <trkpt lat="43.37428" lon="2.44189">
        <ele>780</ele>
        <time>2017-09-24T09:26:05.000Z</time>
      </trkpt>
      <trkpt lat="43.3743" lon="2.4419">
        <ele>780</ele>
        <time>2017-09-24T09:26:06.000Z</time>
      </trkpt>
      <trkpt lat="43.37431" lon="2.44191">
        <ele>780</ele>
        <time>2017-09-24T09:26:07.000Z</time>
      </trkpt>
      <trkpt lat="43.37432" lon="2.44192">
        <ele>780</ele>
        <time>2017-09-24T09:26:08.000Z</time>
      </trkpt>
      <trkpt lat="43.37433" lon="2.44193">
        <ele>780</ele>
        <time>2017-09-24T09:26:09.000Z</time>
      </trkpt>
      <trkpt lat="43.37434" lon="2.44194">
        <ele>779</ele>
        <time>2017-09-24T09:26:10.000Z</time>
      </trkpt>
      <trkpt lat="43.37435" lon="2.44196">
        <ele>779</ele>
        <time>2017-09-24T09:26:11.000Z</time>
      </trkpt>
      <trkpt lat="43.37436" lon="2.44197">
        <ele>779</ele>
        <time>2017-09-24T09:26:12.000Z</time>
      </trkpt>
      <trkpt lat="43.37437" lon="2.44198">
        <ele>779</ele>
        <time>2017-09-24T09:26:13.000Z</time>
      </trkpt>
      <trkpt lat="43.37438" lon="2.44199">
        <ele>779</ele>
        <time>2017-09-24T09:26:14.000Z</time>
      </trkpt>
      <trkpt lat="43.37439" lon="2.442">
        <ele>779</ele>
        <time>2017-09-24T09:26:15.000Z</time>
      </trkpt>
      <trkpt lat="43.37441" lon="2.44202">
        <ele>779</ele>
        <time>2017-09-24T09:26:16.000Z</time>
      </trkpt>
      <trkpt lat="43.37442" lon="2.44202">
        <ele>779</ele>
        <time>2017-09-24T09:26:17.000Z</time>
      </trkpt>
      <trkpt lat="43.37443" lon="2.44203">
        <ele>779</ele>
        <time>2017-09-24T09:26:18.000Z</time>
      </trkpt>
      <trkpt lat="43.37444" lon="2.44204">
        <ele>779</ele>
        <time>2017-09-24T09:26:19.000Z</time>
      </trkpt>
      <trkpt lat="43.37445" lon="2.44205">
        <ele>779</ele>
        <time>2017-09-24T09:26:20.000Z</time>
      </trkpt>
      <trkpt lat="43.37446" lon="2.44206">
        <ele>779</ele>
        <time>2017-09-24T09:26:21.000Z</time>
      </trkpt>
      <trkpt lat="43.37447" lon="2.44206">
        <ele>779</ele>
        <time>2017-09-24T09:26:22.000Z</time>
      </trkpt>
      <trkpt lat="43.37448" lon="2.44207">
        <ele>779</ele>
        <time>2017-09-24T09:26:23.000Z</time>
      </trkpt>
      <trkpt lat="43.37449" lon="2.44207">
        <ele>779</ele>
        <time>2017-09-24T09:26:24.000Z</time>
      </trkpt>
      <trkpt lat="43.37451" lon="2.44208">
        <ele>779</ele>
        <time>2017-09-24T09:26:25.000Z</time>
      </trkpt>
      <trkpt lat="43.37452" lon="2.44208">
        <ele>779</ele>
        <time>2017-09-24T09:26:26.000Z</time>
      </trkpt>
      <trkpt lat="43.37453" lon="2.44208">
        <ele>780</ele>
        <time>2017-09-24T09:26:27.000Z</time>
      </trkpt>
      <trkpt lat="43.37454" lon="2.44209">
        <ele>780</ele>
        <time>2017-09-24T09:26:28.000Z</time>
      </trkpt>
      <trkpt lat="43.37455" lon="2.44209">
        <ele>780</ele>
        <time>2017-09-24T09:26:29.000Z</time>
      </trkpt>
      <trkpt lat="43.37457" lon="2.4421">
        <ele>780</ele>
        <time>2017-09-24T09:26:30.000Z</time>
      </trkpt>
      <trkpt lat="43.37458" lon="2.4421">
        <ele>780</ele>
        <time>2017-09-24T09:26:31.000Z</time>
      </trkpt>
      <trkpt lat="43.37459" lon="2.44211">
        <ele>780</ele>
        <time>2017-09-24T09:26:32.000Z</time>
      </trkpt>
      <trkpt lat="43.3746" lon="2.44211">
        <ele>781</ele>
        <time>2017-09-24T09:26:33.000Z</time>
      </trkpt>
      <trkpt lat="43.37461" lon="2.44211">
        <ele>781</ele>
        <time>2017-09-24T09:26:34.000Z</time>
      </trkpt>
      <trkpt lat="43.37463" lon="2.44212">
        <ele>781</ele>
        <time>2017-09-24T09:26:35.000Z</time>
      </trkpt>
      <trkpt lat="43.37464" lon="2.44212">
        <ele>781</ele>
        <time>2017-09-24T09:26:36.000Z</time>
      </trkpt>
      <trkpt lat="43.37465" lon="2.44213">
        <ele>781</ele>
        <time>2017-09-24T09:26:37.000Z</time>
      </trkpt>
      <trkpt lat="43.37466" lon="2.44214">
        <ele>781</ele>
        <time>2017-09-24T09:26:38.000Z</time>
      </trkpt>
      <trkpt lat="43.37468" lon="2.44215">
        <ele>781</ele>
        <time>2017-09-24T09:26:39.000Z</time>
      </trkpt>
      <trkpt lat="43.37469" lon="2.44215">
        <ele>782</ele>
        <time>2017-09-24T09:26:40.000Z</time>
      </trkpt>
      <trkpt lat="43.3747" lon="2.44216">
        <ele>782</ele>
        <time>2017-09-24T09:26:41.000Z</time>
      </trkpt>
      <trkpt lat="43.37471" lon="2.44217">
        <ele>782</ele>
        <time>2017-09-24T09:26:42.000Z</time>
      </trkpt>
      <trkpt lat="43.37472" lon="2.44218">
        <ele>782</ele>
        <time>2017-09-24T09:26:43.000Z</time>
      </trkpt>
      <trkpt lat="43.37473" lon="2.44219">
        <ele>782</ele>
        <time>2017-09-24T09:26:44.000Z</time>
      </trkpt>
      <trkpt lat="43.37474" lon="2.4422">
        <ele>782</ele>
        <time>2017-09-24T09:26:45.000Z</time>
      </trkpt>
      <trkpt lat="43.37475" lon="2.4422">
        <ele>781</ele>
        <time>2017-09-24T09:26:46.000Z</time>
      </trkpt>
      <trkpt lat="43.37476" lon="2.44221">
        <ele>781</ele>
        <time>2017-09-24T09:26:47.000Z</time>
      </trkpt>
      <trkpt lat="43.37478" lon="2.44222">
        <ele>782</ele>
        <time>2017-09-24T09:26:48.000Z</time>
      </trkpt>
      <trkpt lat="43.37479" lon="2.44223">
        <ele>782</ele>
        <time>2017-09-24T09:26:49.000Z</time>
      </trkpt>
      <trkpt lat="43.3748" lon="2.44224">
        <ele>782</ele>
        <time>2017-09-24T09:26:50.000Z</time>
      </trkpt>
      <trkpt lat="43.37482" lon="2.44225">
        <ele>782</ele>
        <time>2017-09-24T09:26:51.000Z</time>
      </trkpt>
      <trkpt lat="43.37483" lon="2.44226">
        <ele>782</ele>
        <time>2017-09-24T09:26:52.000Z</time>
      </trkpt>
      <trkpt lat="43.37484" lon="2.44227">
        <ele>782</ele>
        <time>2017-09-24T09:26:53.000Z</time>
      </trkpt>
      <trkpt lat="43.37485" lon="2.44227">
        <ele>782</ele>
        <time>2017-09-24T09:26:54.000Z</time>
      </trkpt>
      <trkpt lat="43.37486" lon="2.44228">
        <ele>782</ele>
        <time>2017-09-24T09:26:55.000Z</time>
      </trkpt>
      <trkpt lat="43.37487" lon="2.44229">
        <ele>782</ele>
        <time>2017-09-24T09:26:56.000Z</time>
      </trkpt>
      <trkpt lat="43.37488" lon="2.4423">
        <ele>782</ele>
        <time>2017-09-24T09:26:57.000Z</time>
      </trkpt>
      <trkpt lat="43.37488" lon="2.4423">
        <ele>781</ele>
        <time>2017-09-24T09:26:58.000Z</time>
      </trkpt>
      <trkpt lat="43.37489" lon="2.44231">
        <ele>782</ele>
        <time>2017-09-24T09:26:59.000Z</time>
      </trkpt>
      <trkpt lat="43.37491" lon="2.44232">
        <ele>782</ele>
        <time>2017-09-24T09:27:00.000Z</time>
      </trkpt>
      <trkpt lat="43.37492" lon="2.44232">
        <ele>782</ele>
        <time>2017-09-24T09:27:01.000Z</time>
      </trkpt>
      <trkpt lat="43.37493" lon="2.44232">
        <ele>782</ele>
        <time>2017-09-24T09:27:02.000Z</time>
      </trkpt>
      <trkpt lat="43.37494" lon="2.44233">
        <ele>782</ele>
        <time>2017-09-24T09:27:03.000Z</time>
      </trkpt>
      <trkpt lat="43.37495" lon="2.44234">
        <ele>782</ele>
        <time>2017-09-24T09:27:04.000Z</time>
      </trkpt>
      <trkpt lat="43.37497" lon="2.44234">
        <ele>782</ele>
        <time>2017-09-24T09:27:05.000Z</time>
      </trkpt>
      <trkpt lat="43.37498" lon="2.44235">
        <ele>782</ele>
        <time>2017-09-24T09:27:06.000Z</time>
      </trkpt>
      <trkpt lat="43.37499" lon="2.44235">
        <ele>782</ele>
        <time>2017-09-24T09:27:07.000Z</time>
      </trkpt>
      <trkpt lat="43.375" lon="2.44236">
        <ele>783</ele>
        <time>2017-09-24T09:27:08.000Z</time>
      </trkpt>
      <trkpt lat="43.37501" lon="2.44237">
        <ele>783</ele>
        <time>2017-09-24T09:27:09.000Z</time>
      </trkpt>
      <trkpt lat="43.37502" lon="2.44238">
        <ele>783</ele>
        <time>2017-09-24T09:27:10.000Z</time>
      </trkpt>
      <trkpt lat="43.37503" lon="2.44238">
        <ele>783</ele>
        <time>2017-09-24T09:27:11.000Z</time>
      </trkpt>
      <trkpt lat="43.37505" lon="2.44238">
        <ele>783</ele>
        <time>2017-09-24T09:27:12.000Z</time>
      </trkpt>
      <trkpt lat="43.37506" lon="2.44239">
        <ele>783</ele>
        <time>2017-09-24T09:27:13.000Z</time>
      </trkpt>
      <trkpt lat="43.37507" lon="2.44239">
        <ele>783</ele>
        <time>2017-09-24T09:27:14.000Z</time>
      </trkpt>
      <trkpt lat="43.37508" lon="2.4424">
        <ele>783</ele>
        <time>2017-09-24T09:27:15.000Z</time>
      </trkpt>
      <trkpt lat="43.3751" lon="2.4424">
        <ele>784</ele>
        <time>2017-09-24T09:27:16.000Z</time>
      </trkpt>
      <trkpt lat="43.37511" lon="2.4424">
        <ele>784</ele>
        <time>2017-09-24T09:27:17.000Z</time>
      </trkpt>
      <trkpt lat="43.37512" lon="2.44241">
        <ele>784</ele>
        <time>2017-09-24T09:27:18.000Z</time>
      </trkpt>
      <trkpt lat="43.37513" lon="2.44241">
        <ele>784</ele>
        <time>2017-09-24T09:27:19.000Z</time>
      </trkpt>
      <trkpt lat="43.37514" lon="2.44242">
        <ele>784</ele>
        <time>2017-09-24T09:27:20.000Z</time>
      </trkpt>
      <trkpt lat="43.37515" lon="2.44242">
        <ele>784</ele>
        <time>2017-09-24T09:27:21.000Z</time>
      </trkpt>
      <trkpt lat="43.37516" lon="2.44243">
        <ele>784</ele>
        <time>2017-09-24T09:27:22.000Z</time>
      </trkpt>
      <trkpt lat="43.37517" lon="2.44243">
        <ele>784</ele>
        <time>2017-09-24T09:27:23.000Z</time>
      </trkpt>
      <trkpt lat="43.37518" lon="2.44244">
        <ele>784</ele>
        <time>2017-09-24T09:27:24.000Z</time>
      </trkpt>
      <trkpt lat="43.37519" lon="2.44244">
        <ele>784</ele>
        <time>2017-09-24T09:27:25.000Z</time>
      </trkpt>
      <trkpt lat="43.3752" lon="2.44245">
        <ele>784</ele>
        <time>2017-09-24T09:27:26.000Z</time>
      </trkpt>
      <trkpt lat="43.37521" lon="2.44245">
        <ele>784</ele>
        <time>2017-09-24T09:27:27.000Z</time>
      </trkpt>
      <trkpt lat="43.37522" lon="2.44245">
        <ele>784</ele>
        <time>2017-09-24T09:27:28.000Z</time>
      </trkpt>
      <trkpt lat="43.37523" lon="2.44246">
        <ele>784</ele>
        <time>2017-09-24T09:27:29.000Z</time>
      </trkpt>
      <trkpt lat="43.37523" lon="2.44247">
        <ele>784</ele>
        <time>2017-09-24T09:27:30.000Z</time>
      </trkpt>
      <trkpt lat="43.37524" lon="2.44247">
        <ele>783</ele>
        <time>2017-09-24T09:27:31.000Z</time>
      </trkpt>
      <trkpt lat="43.37525" lon="2.44248">
        <ele>783</ele>
        <time>2017-09-24T09:27:32.000Z</time>
      </trkpt>
      <trkpt lat="43.37525" lon="2.44249">
        <ele>783</ele>
        <time>2017-09-24T09:27:33.000Z</time>
      </trkpt>
      <trkpt lat="43.37526" lon="2.44249">
        <ele>783</ele>
        <time>2017-09-24T09:27:34.000Z</time>
      </trkpt>
      <trkpt lat="43.37527" lon="2.4425">
        <ele>783</ele>
        <time>2017-09-24T09:27:35.000Z</time>
      </trkpt>
      <trkpt lat="43.37528" lon="2.4425">
        <ele>783</ele>
        <time>2017-09-24T09:27:36.000Z</time>
      </trkpt>
      <trkpt lat="43.37529" lon="2.44251">
        <ele>783</ele>
        <time>2017-09-24T09:27:37.000Z</time>
      </trkpt>
      <trkpt lat="43.3753" lon="2.44251">
        <ele>783</ele>
        <time>2017-09-24T09:27:38.000Z</time>
      </trkpt>
      <trkpt lat="43.37531" lon="2.44252">
        <ele>783</ele>
        <time>2017-09-24T09:27:39.000Z</time>
      </trkpt>
      <trkpt lat="43.37532" lon="2.44252">
        <ele>783</ele>
        <time>2017-09-24T09:27:40.000Z</time>
      </trkpt>
      <trkpt lat="43.37533" lon="2.44253">
        <ele>783</ele>
        <time>2017-09-24T09:27:41.000Z</time>
      </trkpt>
      <trkpt lat="43.37533" lon="2.44253">
        <ele>783</ele>
        <time>2017-09-24T09:27:42.000Z</time>
      </trkpt>
      <trkpt lat="43.37535" lon="2.44253">
        <ele>783</ele>
        <time>2017-09-24T09:27:43.000Z</time>
      </trkpt>
      <trkpt lat="43.37535" lon="2.44253">
        <ele>783</ele>
        <time>2017-09-24T09:27:44.000Z</time>
      </trkpt>
      <trkpt lat="43.37536" lon="2.44253">
        <ele>783</ele>
        <time>2017-09-24T09:27:45.000Z</time>
      </trkpt>
      <trkpt lat="43.37537" lon="2.44253">
        <ele>783</ele>
        <time>2017-09-24T09:27:46.000Z</time>
      </trkpt>
      <trkpt lat="43.37538" lon="2.44253">
        <ele>783</ele>
        <time>2017-09-24T09:27:47.000Z</time>
      </trkpt>
      <trkpt lat="43.37539" lon="2.44253">
        <ele>783</ele>
        <time>2017-09-24T09:27:48.000Z</time>
      </trkpt>
      <trkpt lat="43.3754" lon="2.44253">
        <ele>783</ele>
        <time>2017-09-24T09:27:49.000Z</time>
      </trkpt>
      <trkpt lat="43.37541" lon="2.44254">
        <ele>784</ele>
        <time>2017-09-24T09:27:50.000Z</time>
      </trkpt>
      <trkpt lat="43.37542" lon="2.44254">
        <ele>784</ele>
        <time>2017-09-24T09:27:51.000Z</time>
      </trkpt>
      <trkpt lat="43.37543" lon="2.44254">
        <ele>783</ele>
        <time>2017-09-24T09:27:52.000Z</time>
      </trkpt>
      <trkpt lat="43.37544" lon="2.44254">
        <ele>784</ele>
        <time>2017-09-24T09:27:53.000Z</time>
      </trkpt>
      <trkpt lat="43.37545" lon="2.44254">
        <ele>784</ele>
        <time>2017-09-24T09:27:54.000Z</time>
      </trkpt>
      <trkpt lat="43.37545" lon="2.44254">
        <ele>784</ele>
        <time>2017-09-24T09:27:55.000Z</time>
      </trkpt>
      <trkpt lat="43.37547" lon="2.44254">
        <ele>784</ele>
        <time>2017-09-24T09:27:56.000Z</time>
      </trkpt>
      <trkpt lat="43.37548" lon="2.44254">
        <ele>784</ele>
        <time>2017-09-24T09:27:57.000Z</time>
      </trkpt>
      <trkpt lat="43.37549" lon="2.44254">
        <ele>784</ele>
        <time>2017-09-24T09:27:58.000Z</time>
      </trkpt>
      <trkpt lat="43.3755" lon="2.44255">
        <ele>784</ele>
        <time>2017-09-24T09:27:59.000Z</time>
      </trkpt>
      <trkpt lat="43.37551" lon="2.44255">
        <ele>784</ele>
        <time>2017-09-24T09:28:00.000Z</time>
      </trkpt>
      <trkpt lat="43.37551" lon="2.44255">
        <ele>784</ele>
        <time>2017-09-24T09:28:01.000Z</time>
      </trkpt>
      <trkpt lat="43.37553" lon="2.44255">
        <ele>784</ele>
        <time>2017-09-24T09:28:02.000Z</time>
      </trkpt>
      <trkpt lat="43.37554" lon="2.44255">
        <ele>785</ele>
        <time>2017-09-24T09:28:03.000Z</time>
      </trkpt>
      <trkpt lat="43.37555" lon="2.44255">
        <ele>785</ele>
        <time>2017-09-24T09:28:04.000Z</time>
      </trkpt>
      <trkpt lat="43.37556" lon="2.44256">
        <ele>784</ele>
        <time>2017-09-24T09:28:05.000Z</time>
      </trkpt>
      <trkpt lat="43.37557" lon="2.44256">
        <ele>784</ele>
        <time>2017-09-24T09:28:06.000Z</time>
      </trkpt>
      <trkpt lat="43.37558" lon="2.44256">
        <ele>784</ele>
        <time>2017-09-24T09:28:07.000Z</time>
      </trkpt>
      <trkpt lat="43.37559" lon="2.44257">
        <ele>785</ele>
        <time>2017-09-24T09:28:08.000Z</time>
      </trkpt>
      <trkpt lat="43.3756" lon="2.44257">
        <ele>785</ele>
        <time>2017-09-24T09:28:09.000Z</time>
      </trkpt>
      <trkpt lat="43.37561" lon="2.44257">
        <ele>785</ele>
        <time>2017-09-24T09:28:10.000Z</time>
      </trkpt>
      <trkpt lat="43.37562" lon="2.44258">
        <ele>785</ele>
        <time>2017-09-24T09:28:11.000Z</time>
      </trkpt>
      <trkpt lat="43.37563" lon="2.44258">
        <ele>785</ele>
        <time>2017-09-24T09:28:12.000Z</time>
      </trkpt>
      <trkpt lat="43.37564" lon="2.44258">
        <ele>785</ele>
        <time>2017-09-24T09:28:13.000Z</time>
      </trkpt>
      <trkpt lat="43.37565" lon="2.44258">
        <ele>785</ele>
        <time>2017-09-24T09:28:14.000Z</time>
      </trkpt>
      <trkpt lat="43.37566" lon="2.44258">
        <ele>785</ele>
        <time>2017-09-24T09:28:15.000Z</time>
      </trkpt>
      <trkpt lat="43.37567" lon="2.44258">
        <ele>785</ele>
        <time>2017-09-24T09:28:16.000Z</time>
      </trkpt>
      <trkpt lat="43.37568" lon="2.44259">
        <ele>785</ele>
        <time>2017-09-24T09:28:17.000Z</time>
      </trkpt>
      <trkpt lat="43.37569" lon="2.44259">
        <ele>785</ele>
        <time>2017-09-24T09:28:18.000Z</time>
      </trkpt>
      <trkpt lat="43.3757" lon="2.44259">
        <ele>785</ele>
        <time>2017-09-24T09:28:19.000Z</time>
      </trkpt>
      <trkpt lat="43.37571" lon="2.44259">
        <ele>785</ele>
        <time>2017-09-24T09:28:20.000Z</time>
      </trkpt>
      <trkpt lat="43.37572" lon="2.44259">
        <ele>785</ele>
        <time>2017-09-24T09:28:21.000Z</time>
      </trkpt>
      <trkpt lat="43.37573" lon="2.44259">
        <ele>785</ele>
        <time>2017-09-24T09:28:22.000Z</time>
      </trkpt>
      <trkpt lat="43.37574" lon="2.44259">
        <ele>785</ele>
        <time>2017-09-24T09:28:23.000Z</time>
      </trkpt>
      <trkpt lat="43.37575" lon="2.44259">
        <ele>786</ele>
        <time>2017-09-24T09:28:24.000Z</time>
      </trkpt>
      <trkpt lat="43.37577" lon="2.44259">
        <ele>786</ele>
        <time>2017-09-24T09:28:25.000Z</time>
      </trkpt>
      <trkpt lat="43.37578" lon="2.44259">
        <ele>786</ele>
        <time>2017-09-24T09:28:26.000Z</time>
      </trkpt>
      <trkpt lat="43.37579" lon="2.44259">
        <ele>786</ele>
        <time>2017-09-24T09:28:27.000Z</time>
      </trkpt>
      <trkpt lat="43.3758" lon="2.44259">
        <ele>786</ele>
        <time>2017-09-24T09:28:28.000Z</time>
      </trkpt>
      <trkpt lat="43.37581" lon="2.4426">
        <ele>786</ele>
        <time>2017-09-24T09:28:29.000Z</time>
      </trkpt>
      <trkpt lat="43.37582" lon="2.4426">
        <ele>786</ele>
        <time>2017-09-24T09:28:30.000Z</time>
      </trkpt>
      <trkpt lat="43.37583" lon="2.44261">
        <ele>786</ele>
        <time>2017-09-24T09:28:31.000Z</time>
      </trkpt>
      <trkpt lat="43.37584" lon="2.44261">
        <ele>786</ele>
        <time>2017-09-24T09:28:32.000Z</time>
      </trkpt>
      <trkpt lat="43.37585" lon="2.4426">
        <ele>786</ele>
        <time>2017-09-24T09:28:33.000Z</time>
      </trkpt>
      <trkpt lat="43.37586" lon="2.4426">
        <ele>786</ele>
        <time>2017-09-24T09:28:34.000Z</time>
      </trkpt>
      <trkpt lat="43.37587" lon="2.4426">
        <ele>787</ele>
        <time>2017-09-24T09:28:35.000Z</time>
      </trkpt>
      <trkpt lat="43.37588" lon="2.4426">
        <ele>787</ele>
        <time>2017-09-24T09:28:36.000Z</time>
      </trkpt>
      <trkpt lat="43.37589" lon="2.4426">
        <ele>787</ele>
        <time>2017-09-24T09:28:37.000Z</time>
      </trkpt>
      <trkpt lat="43.3759" lon="2.44259">
        <ele>787</ele>
        <time>2017-09-24T09:28:38.000Z</time>
      </trkpt>
      <trkpt lat="43.37591" lon="2.44259">
        <ele>787</ele>
        <time>2017-09-24T09:28:39.000Z</time>
      </trkpt>
      <trkpt lat="43.37592" lon="2.44259">
        <ele>787</ele>
        <time>2017-09-24T09:28:40.000Z</time>
      </trkpt>
      <trkpt lat="43.37593" lon="2.44259">
        <ele>788</ele>
        <time>2017-09-24T09:28:41.000Z</time>
      </trkpt>
      <trkpt lat="43.37595" lon="2.44259">
        <ele>788</ele>
        <time>2017-09-24T09:28:42.000Z</time>
      </trkpt>
      <trkpt lat="43.37596" lon="2.44258">
        <ele>788</ele>
        <time>2017-09-24T09:28:43.000Z</time>
      </trkpt>
      <trkpt lat="43.37597" lon="2.44258">
        <ele>788</ele>
        <time>2017-09-24T09:28:44.000Z</time>
      </trkpt>
      <trkpt lat="43.37598" lon="2.44258">
        <ele>788</ele>
        <time>2017-09-24T09:28:45.000Z</time>
      </trkpt>
      <trkpt lat="43.37599" lon="2.44258">
        <ele>788</ele>
        <time>2017-09-24T09:28:46.000Z</time>
      </trkpt>
      <trkpt lat="43.376" lon="2.44258">
        <ele>788</ele>
        <time>2017-09-24T09:28:47.000Z</time>
      </trkpt>
      <trkpt lat="43.37602" lon="2.44257">
        <ele>788</ele>
        <time>2017-09-24T09:28:48.000Z</time>
      </trkpt>
      <trkpt lat="43.37603" lon="2.44257">
        <ele>788</ele>
        <time>2017-09-24T09:28:49.000Z</time>
      </trkpt>
      <trkpt lat="43.37604" lon="2.44257">
        <ele>788</ele>
        <time>2017-09-24T09:28:50.000Z</time>
      </trkpt>
      <trkpt lat="43.37605" lon="2.44257">
        <ele>788</ele>
        <time>2017-09-24T09:28:51.000Z</time>
      </trkpt>
      <trkpt lat="43.37607" lon="2.44257">
        <ele>788</ele>
        <time>2017-09-24T09:28:52.000Z</time>
      </trkpt>
      <trkpt lat="43.37608" lon="2.44256">
        <ele>788</ele>
        <time>2017-09-24T09:28:53.000Z</time>
      </trkpt>
      <trkpt lat="43.37609" lon="2.44255">
        <ele>788</ele>
        <time>2017-09-24T09:28:54.000Z</time>
      </trkpt>
      <trkpt lat="43.3761" lon="2.44255">
        <ele>788</ele>
        <time>2017-09-24T09:28:55.000Z</time>
      </trkpt>
      <trkpt lat="43.37611" lon="2.44255">
        <ele>788</ele>
        <time>2017-09-24T09:28:56.000Z</time>
      </trkpt>
      <trkpt lat="43.37612" lon="2.44255">
        <ele>788</ele>
        <time>2017-09-24T09:28:57.000Z</time>
      </trkpt>
      <trkpt lat="43.37613" lon="2.44254">
        <ele>789</ele>
        <time>2017-09-24T09:28:58.000Z</time>
      </trkpt>
      <trkpt lat="43.37614" lon="2.44254">
        <ele>789</ele>
        <time>2017-09-24T09:28:59.000Z</time>
      </trkpt>
      <trkpt lat="43.37615" lon="2.44254">
        <ele>789</ele>
        <time>2017-09-24T09:29:00.000Z</time>
      </trkpt>
      <trkpt lat="43.37616" lon="2.44254">
        <ele>789</ele>
        <time>2017-09-24T09:29:01.000Z</time>
      </trkpt>
      <trkpt lat="43.37617" lon="2.44254">
        <ele>789</ele>
        <time>2017-09-24T09:29:02.000Z</time>
      </trkpt>
      <trkpt lat="43.37619" lon="2.44253">
        <ele>789</ele>
        <time>2017-09-24T09:29:03.000Z</time>
      </trkpt>
      <trkpt lat="43.3762" lon="2.44253">
        <ele>789</ele>
        <time>2017-09-24T09:29:04.000Z</time>
      </trkpt>
      <trkpt lat="43.37621" lon="2.44252">
        <ele>789</ele>
        <time>2017-09-24T09:29:05.000Z</time>
      </trkpt>
      <trkpt lat="43.37622" lon="2.44252">
        <ele>789</ele>
        <time>2017-09-24T09:29:06.000Z</time>
      </trkpt>
      <trkpt lat="43.37623" lon="2.44252">
        <ele>789</ele>
        <time>2017-09-24T09:29:07.000Z</time>
      </trkpt>
      <trkpt lat="43.37624" lon="2.44251">
        <ele>789</ele>
        <time>2017-09-24T09:29:08.000Z</time>
      </trkpt>
      <trkpt lat="43.37625" lon="2.44251">
        <ele>789</ele>
        <time>2017-09-24T09:29:09.000Z</time>
      </trkpt>
      <trkpt lat="43.37626" lon="2.44251">
        <ele>789</ele>
        <time>2017-09-24T09:29:10.000Z</time>
      </trkpt>
      <trkpt lat="43.37627" lon="2.44252">
        <ele>789</ele>
        <time>2017-09-24T09:29:11.000Z</time>
      </trkpt>
      <trkpt lat="43.37627" lon="2.44251">
        <ele>789</ele>
        <time>2017-09-24T09:29:12.000Z</time>
      </trkpt>
      <trkpt lat="43.37628" lon="2.44251">
        <ele>789</ele>
        <time>2017-09-24T09:29:13.000Z</time>
      </trkpt>
      <trkpt lat="43.37628" lon="2.44251">
        <ele>789</ele>
        <time>2017-09-24T09:29:14.000Z</time>
      </trkpt>
      <trkpt lat="43.37631" lon="2.44249">
        <ele>790</ele>
        <time>2017-09-24T09:36:11.000Z</time>
      </trkpt>
      <trkpt lat="43.37632" lon="2.44248">
        <ele>790</ele>
        <time>2017-09-24T09:36:12.000Z</time>
      </trkpt>
      <trkpt lat="43.37633" lon="2.44248">
        <ele>790</ele>
        <time>2017-09-24T09:36:13.000Z</time>
      </trkpt>
      <trkpt lat="43.37634" lon="2.44248">
        <ele>790</ele>
        <time>2017-09-24T09:36:14.000Z</time>
      </trkpt>
      <trkpt lat="43.37635" lon="2.44248">
        <ele>790</ele>
        <time>2017-09-24T09:36:15.000Z</time>
      </trkpt>
      <trkpt lat="43.37637" lon="2.44248">
        <ele>790</ele>
        <time>2017-09-24T09:36:16.000Z</time>
      </trkpt>
      <trkpt lat="43.37638" lon="2.44247">
        <ele>790</ele>
        <time>2017-09-24T09:36:17.000Z</time>
      </trkpt>
      <trkpt lat="43.37639" lon="2.44247">
        <ele>790</ele>
        <time>2017-09-24T09:36:18.000Z</time>
      </trkpt>
      <trkpt lat="43.3764" lon="2.44247">
        <ele>790</ele>
        <time>2017-09-24T09:36:19.000Z</time>
      </trkpt>
      <trkpt lat="43.37641" lon="2.44247">
        <ele>790</ele>
        <time>2017-09-24T09:36:20.000Z</time>
      </trkpt>
      <trkpt lat="43.37642" lon="2.44247">
        <ele>790</ele>
        <time>2017-09-24T09:36:21.000Z</time>
      </trkpt>
      <trkpt lat="43.37644" lon="2.44246">
        <ele>790</ele>
        <time>2017-09-24T09:36:22.000Z</time>
      </trkpt>
      <trkpt lat="43.37645" lon="2.44246">
        <ele>790</ele>
        <time>2017-09-24T09:36:23.000Z</time>
      </trkpt>
      <trkpt lat="43.37646" lon="2.44246">
        <ele>790</ele>
        <time>2017-09-24T09:36:24.000Z</time>
      </trkpt>
      <trkpt lat="43.37647" lon="2.44247">
        <ele>790</ele>
        <time>2017-09-24T09:36:25.000Z</time>
      </trkpt>
      <trkpt lat="43.37648" lon="2.44247">
        <ele>790</ele>
        <time>2017-09-24T09:36:26.000Z</time>
      </trkpt>
      <trkpt lat="43.37649" lon="2.44246">
        <ele>790</ele>
        <time>2017-09-24T09:36:27.000Z</time>
      </trkpt>
      <trkpt lat="43.3765" lon="2.44246">
        <ele>790</ele>
        <time>2017-09-24T09:36:28.000Z</time>
      </trkpt>
      <trkpt lat="43.37651" lon="2.44246">
        <ele>790</ele>
        <time>2017-09-24T09:36:29.000Z</time>
      </trkpt>
      <trkpt lat="43.37652" lon="2.44246">
        <ele>790</ele>
        <time>2017-09-24T09:36:30.000Z</time>
      </trkpt>
      <trkpt lat="43.37653" lon="2.44246">
        <ele>790</ele>
        <time>2017-09-24T09:36:31.000Z</time>
      </trkpt>
      <trkpt lat="43.37654" lon="2.44246">
        <ele>790</ele>
        <time>2017-09-24T09:36:32.000Z</time>
      </trkpt>
      <trkpt lat="43.37656" lon="2.44246">
        <ele>790</ele>
        <time>2017-09-24T09:36:33.000Z</time>
      </trkpt>
      <trkpt lat="43.37657" lon="2.44246">
        <ele>790</ele>
        <time>2017-09-24T09:36:34.000Z</time>
      </trkpt>
      <trkpt lat="43.37658" lon="2.44246">
        <ele>790</ele>
        <time>2017-09-24T09:36:35.000Z</time>
      </trkpt>
      <trkpt lat="43.37659" lon="2.44247">
        <ele>789</ele>
        <time>2017-09-24T09:36:36.000Z</time>
      </trkpt>
      <trkpt lat="43.3766" lon="2.44247">
        <ele>789</ele>
        <time>2017-09-24T09:36:37.000Z</time>
      </trkpt>
      <trkpt lat="43.37661" lon="2.44247">
        <ele>789</ele>
        <time>2017-09-24T09:36:38.000Z</time>
      </trkpt>
      <trkpt lat="43.37662" lon="2.44247">
        <ele>789</ele>
        <time>2017-09-24T09:36:39.000Z</time>
      </trkpt>
      <trkpt lat="43.37664" lon="2.44247">
        <ele>789</ele>
        <time>2017-09-24T09:36:40.000Z</time>
      </trkpt>
      <trkpt lat="43.37665" lon="2.44248">
        <ele>789</ele>
        <time>2017-09-24T09:36:41.000Z</time>
      </trkpt>
      <trkpt lat="43.37666" lon="2.44248">
        <ele>789</ele>
        <time>2017-09-24T09:36:42.000Z</time>
      </trkpt>
      <trkpt lat="43.37667" lon="2.44248">
        <ele>789</ele>
        <time>2017-09-24T09:36:43.000Z</time>
      </trkpt>
      <trkpt lat="43.37667" lon="2.44249">
        <ele>789</ele>
        <time>2017-09-24T09:36:44.000Z</time>
      </trkpt>
      <trkpt lat="43.37668" lon="2.44249">
        <ele>788</ele>
        <time>2017-09-24T09:36:45.000Z</time>
      </trkpt>
      <trkpt lat="43.3767" lon="2.4425">
        <ele>788</ele>
        <time>2017-09-24T09:36:46.000Z</time>
      </trkpt>
      <trkpt lat="43.37671" lon="2.4425">
        <ele>788</ele>
        <time>2017-09-24T09:36:47.000Z</time>
      </trkpt>
      <trkpt lat="43.37672" lon="2.44251">
        <ele>788</ele>
        <time>2017-09-24T09:36:48.000Z</time>
      </trkpt>
      <trkpt lat="43.37673" lon="2.44252">
        <ele>787</ele>
        <time>2017-09-24T09:36:49.000Z</time>
      </trkpt>
      <trkpt lat="43.37674" lon="2.44252">
        <ele>787</ele>
        <time>2017-09-24T09:36:50.000Z</time>
      </trkpt>
      <trkpt lat="43.37676" lon="2.44252">
        <ele>787</ele>
        <time>2017-09-24T09:36:51.000Z</time>
      </trkpt>
      <trkpt lat="43.37677" lon="2.44252">
        <ele>787</ele>
        <time>2017-09-24T09:36:52.000Z</time>
      </trkpt>
      <trkpt lat="43.37678" lon="2.44252">
        <ele>787</ele>
        <time>2017-09-24T09:36:53.000Z</time>
      </trkpt>
      <trkpt lat="43.37679" lon="2.44252">
        <ele>787</ele>
        <time>2017-09-24T09:36:54.000Z</time>
      </trkpt>
      <trkpt lat="43.3768" lon="2.44252">
        <ele>787</ele>
        <time>2017-09-24T09:36:55.000Z</time>
      </trkpt>
      <trkpt lat="43.37681" lon="2.44252">
        <ele>787</ele>
        <time>2017-09-24T09:36:56.000Z</time>
      </trkpt>
      <trkpt lat="43.37682" lon="2.44252">
        <ele>787</ele>
        <time>2017-09-24T09:36:57.000Z</time>
      </trkpt>
      <trkpt lat="43.37683" lon="2.44252">
        <ele>787</ele>
        <time>2017-09-24T09:36:58.000Z</time>
      </trkpt>
      <trkpt lat="43.37684" lon="2.44252">
        <ele>787</ele>
        <time>2017-09-24T09:36:59.000Z</time>
      </trkpt>
      <trkpt lat="43.37685" lon="2.44252">
        <ele>787</ele>
        <time>2017-09-24T09:37:00.000Z</time>
      </trkpt>
      <trkpt lat="43.37686" lon="2.44253">
        <ele>787</ele>
        <time>2017-09-24T09:37:01.000Z</time>
      </trkpt>
      <trkpt lat="43.37687" lon="2.44253">
        <ele>787</ele>
        <time>2017-09-24T09:37:02.000Z</time>
      </trkpt>
      <trkpt lat="43.37689" lon="2.44253">
        <ele>787</ele>
        <time>2017-09-24T09:37:03.000Z</time>
      </trkpt>
      <trkpt lat="43.3769" lon="2.44253">
        <ele>787</ele>
        <time>2017-09-24T09:37:04.000Z</time>
      </trkpt>
      <trkpt lat="43.37691" lon="2.44253">
        <ele>787</ele>
        <time>2017-09-24T09:37:05.000Z</time>
      </trkpt>
      <trkpt lat="43.37692" lon="2.44253">
        <ele>787</ele>
        <time>2017-09-24T09:37:06.000Z</time>
      </trkpt>
      <trkpt lat="43.37694" lon="2.44253">
        <ele>787</ele>
        <time>2017-09-24T09:37:07.000Z</time>
      </trkpt>
      <trkpt lat="43.37695" lon="2.44253">
        <ele>787</ele>
        <time>2017-09-24T09:37:08.000Z</time>
      </trkpt>
      <trkpt lat="43.37696" lon="2.44253">
        <ele>787</ele>
        <time>2017-09-24T09:37:09.000Z</time>
      </trkpt>
      <trkpt lat="43.37697" lon="2.44252">
        <ele>787</ele>
        <time>2017-09-24T09:37:10.000Z</time>
      </trkpt>
      <trkpt lat="43.37698" lon="2.44252">
        <ele>787</ele>
        <time>2017-09-24T09:37:11.000Z</time>
      </trkpt>
      <trkpt lat="43.37699" lon="2.44252">
        <ele>787</ele>
        <time>2017-09-24T09:37:12.000Z</time>
      </trkpt>
      <trkpt lat="43.37701" lon="2.44252">
        <ele>787</ele>
        <time>2017-09-24T09:37:13.000Z</time>
      </trkpt>
      <trkpt lat="43.37702" lon="2.44252">
        <ele>787</ele>
        <time>2017-09-24T09:37:14.000Z</time>
      </trkpt>
      <trkpt lat="43.37703" lon="2.44252">
        <ele>787</ele>
        <time>2017-09-24T09:37:15.000Z</time>
      </trkpt>
      <trkpt lat="43.37704" lon="2.44252">
        <ele>787</ele>
        <time>2017-09-24T09:37:16.000Z</time>
      </trkpt>
      <trkpt lat="43.37705" lon="2.44252">
        <ele>787</ele>
        <time>2017-09-24T09:37:17.000Z</time>
      </trkpt>
      <trkpt lat="43.37706" lon="2.44252">
        <ele>787</ele>
        <time>2017-09-24T09:37:18.000Z</time>
      </trkpt>
      <trkpt lat="43.37707" lon="2.44252">
        <ele>787</ele>
        <time>2017-09-24T09:37:19.000Z</time>
      </trkpt>
      <trkpt lat="43.37708" lon="2.44252">
        <ele>787</ele>
        <time>2017-09-24T09:37:20.000Z</time>
      </trkpt>
      <trkpt lat="43.3771" lon="2.44253">
        <ele>787</ele>
        <time>2017-09-24T09:37:21.000Z</time>
      </trkpt>
      <trkpt lat="43.37711" lon="2.44253">
        <ele>787</ele>
        <time>2017-09-24T09:37:22.000Z</time>
      </trkpt>
      <trkpt lat="43.37712" lon="2.44253">
        <ele>787</ele>
        <time>2017-09-24T09:37:23.000Z</time>
      </trkpt>
      <trkpt lat="43.37713" lon="2.44253">
        <ele>787</ele>
        <time>2017-09-24T09:37:24.000Z</time>
      </trkpt>
      <trkpt lat="43.37714" lon="2.44254">
        <ele>787</ele>
        <time>2017-09-24T09:37:25.000Z</time>
      </trkpt>
      <trkpt lat="43.37716" lon="2.44254">
        <ele>787</ele>
        <time>2017-09-24T09:37:26.000Z</time>
      </trkpt>
      <trkpt lat="43.37717" lon="2.44254">
        <ele>787</ele>
        <time>2017-09-24T09:37:27.000Z</time>
      </trkpt>
      <trkpt lat="43.37718" lon="2.44255">
        <ele>787</ele>
        <time>2017-09-24T09:37:28.000Z</time>
      </trkpt>
      <trkpt lat="43.37719" lon="2.44255">
        <ele>787</ele>
        <time>2017-09-24T09:37:29.000Z</time>
      </trkpt>
      <trkpt lat="43.3772" lon="2.44255">
        <ele>786</ele>
        <time>2017-09-24T09:37:30.000Z</time>
      </trkpt>
      <trkpt lat="43.37721" lon="2.44255">
        <ele>786</ele>
        <time>2017-09-24T09:37:31.000Z</time>
      </trkpt>
      <trkpt lat="43.37723" lon="2.44255">
        <ele>787</ele>
        <time>2017-09-24T09:37:32.000Z</time>
      </trkpt>
      <trkpt lat="43.37723" lon="2.44255">
        <ele>787</ele>
        <time>2017-09-24T09:37:33.000Z</time>
      </trkpt>
      <trkpt lat="43.37725" lon="2.44255">
        <ele>787</ele>
        <time>2017-09-24T09:37:34.000Z</time>
      </trkpt>
      <trkpt lat="43.37726" lon="2.44255">
        <ele>787</ele>
        <time>2017-09-24T09:37:35.000Z</time>
      </trkpt>
      <trkpt lat="43.37727" lon="2.44255">
        <ele>787</ele>
        <time>2017-09-24T09:37:36.000Z</time>
      </trkpt>
      <trkpt lat="43.37728" lon="2.44255">
        <ele>787</ele>
        <time>2017-09-24T09:37:37.000Z</time>
      </trkpt>
      <trkpt lat="43.37729" lon="2.44255">
        <ele>787</ele>
        <time>2017-09-24T09:37:38.000Z</time>
      </trkpt>
      <trkpt lat="43.37731" lon="2.44255">
        <ele>787</ele>
        <time>2017-09-24T09:37:39.000Z</time>
      </trkpt>
      <trkpt lat="43.37732" lon="2.44255">
        <ele>787</ele>
        <time>2017-09-24T09:37:40.000Z</time>
      </trkpt>
      <trkpt lat="43.37733" lon="2.44255">
        <ele>787</ele>
        <time>2017-09-24T09:37:41.000Z</time>
      </trkpt>
      <trkpt lat="43.37734" lon="2.44256">
        <ele>787</ele>
        <time>2017-09-24T09:37:42.000Z</time>
      </trkpt>
      <trkpt lat="43.37736" lon="2.44256">
        <ele>787</ele>
        <time>2017-09-24T09:37:43.000Z</time>
      </trkpt>
      <trkpt lat="43.37737" lon="2.44256">
        <ele>787</ele>
        <time>2017-09-24T09:37:44.000Z</time>
      </trkpt>
      <trkpt lat="43.37738" lon="2.44257">
        <ele>786</ele>
        <time>2017-09-24T09:37:45.000Z</time>
      </trkpt>
      <trkpt lat="43.3774" lon="2.44257">
        <ele>786</ele>
        <time>2017-09-24T09:37:46.000Z</time>
      </trkpt>
      <trkpt lat="43.37741" lon="2.44258">
        <ele>786</ele>
        <time>2017-09-24T09:37:47.000Z</time>
      </trkpt>
      <trkpt lat="43.37742" lon="2.44258">
        <ele>786</ele>
        <time>2017-09-24T09:37:48.000Z</time>
      </trkpt>
      <trkpt lat="43.37744" lon="2.44259">
        <ele>786</ele>
        <time>2017-09-24T09:37:49.000Z</time>
      </trkpt>
      <trkpt lat="43.37745" lon="2.44259">
        <ele>785</ele>
        <time>2017-09-24T09:37:50.000Z</time>
      </trkpt>
      <trkpt lat="43.37746" lon="2.44259">
        <ele>785</ele>
        <time>2017-09-24T09:37:51.000Z</time>
      </trkpt>
      <trkpt lat="43.37747" lon="2.4426">
        <ele>785</ele>
        <time>2017-09-24T09:37:52.000Z</time>
      </trkpt>
      <trkpt lat="43.37748" lon="2.4426">
        <ele>785</ele>
        <time>2017-09-24T09:37:53.000Z</time>
      </trkpt>
      <trkpt lat="43.37749" lon="2.4426">
        <ele>785</ele>
        <time>2017-09-24T09:37:54.000Z</time>
      </trkpt>
      <trkpt lat="43.3775" lon="2.4426">
        <ele>785</ele>
        <time>2017-09-24T09:37:55.000Z</time>
      </trkpt>
      <trkpt lat="43.37751" lon="2.4426">
        <ele>785</ele>
        <time>2017-09-24T09:37:56.000Z</time>
      </trkpt>
      <trkpt lat="43.37752" lon="2.44261">
        <ele>785</ele>
        <time>2017-09-24T09:37:57.000Z</time>
      </trkpt>
      <trkpt lat="43.37753" lon="2.44261">
        <ele>785</ele>
        <time>2017-09-24T09:37:58.000Z</time>
      </trkpt>
      <trkpt lat="43.37754" lon="2.44261">
        <ele>785</ele>
        <time>2017-09-24T09:37:59.000Z</time>
      </trkpt>
      <trkpt lat="43.37756" lon="2.44262">
        <ele>785</ele>
        <time>2017-09-24T09:38:00.000Z</time>
      </trkpt>
      <trkpt lat="43.37756" lon="2.44262">
        <ele>785</ele>
        <time>2017-09-24T09:38:01.000Z</time>
      </trkpt>
      <trkpt lat="43.37758" lon="2.44262">
        <ele>784</ele>
        <time>2017-09-24T09:38:02.000Z</time>
      </trkpt>
      <trkpt lat="43.37759" lon="2.44263">
        <ele>784</ele>
        <time>2017-09-24T09:38:03.000Z</time>
      </trkpt>
      <trkpt lat="43.37761" lon="2.44264">
        <ele>784</ele>
        <time>2017-09-24T09:38:04.000Z</time>
      </trkpt>
      <trkpt lat="43.37762" lon="2.44264">
        <ele>784</ele>
        <time>2017-09-24T09:38:05.000Z</time>
      </trkpt>
      <trkpt lat="43.37763" lon="2.44264">
        <ele>784</ele>
        <time>2017-09-24T09:38:06.000Z</time>
      </trkpt>
      <trkpt lat="43.37764" lon="2.44265">
        <ele>784</ele>
        <time>2017-09-24T09:38:07.000Z</time>
      </trkpt>
      <trkpt lat="43.37765" lon="2.44265">
        <ele>783</ele>
        <time>2017-09-24T09:38:08.000Z</time>
      </trkpt>
      <trkpt lat="43.37766" lon="2.44266">
        <ele>783</ele>
        <time>2017-09-24T09:38:09.000Z</time>
      </trkpt>
      <trkpt lat="43.37767" lon="2.44267">
        <ele>783</ele>
        <time>2017-09-24T09:38:10.000Z</time>
      </trkpt>
      <trkpt lat="43.37768" lon="2.44267">
        <ele>783</ele>
        <time>2017-09-24T09:38:11.000Z</time>
      </trkpt>
      <trkpt lat="43.3777" lon="2.44268">
        <ele>783</ele>
        <time>2017-09-24T09:38:12.000Z</time>
      </trkpt>
      <trkpt lat="43.37771" lon="2.44269">
        <ele>783</ele>
        <time>2017-09-24T09:38:13.000Z</time>
      </trkpt>
      <trkpt lat="43.37772" lon="2.44269">
        <ele>783</ele>
        <time>2017-09-24T09:38:14.000Z</time>
      </trkpt>
      <trkpt lat="43.37773" lon="2.4427">
        <ele>783</ele>
        <time>2017-09-24T09:38:15.000Z</time>
      </trkpt>
      <trkpt lat="43.37774" lon="2.4427">
        <ele>783</ele>
        <time>2017-09-24T09:38:16.000Z</time>
      </trkpt>
      <trkpt lat="43.37776" lon="2.44271">
        <ele>783</ele>
        <time>2017-09-24T09:38:17.000Z</time>
      </trkpt>
      <trkpt lat="43.37777" lon="2.44271">
        <ele>783</ele>
        <time>2017-09-24T09:38:18.000Z</time>
      </trkpt>
      <trkpt lat="43.37778" lon="2.44272">
        <ele>783</ele>
        <time>2017-09-24T09:38:19.000Z</time>
      </trkpt>
      <trkpt lat="43.37779" lon="2.44272">
        <ele>783</ele>
        <time>2017-09-24T09:38:20.000Z</time>
      </trkpt>
      <trkpt lat="43.3778" lon="2.44273">
        <ele>783</ele>
        <time>2017-09-24T09:38:21.000Z</time>
      </trkpt>
      <trkpt lat="43.37781" lon="2.44273">
        <ele>783</ele>
        <time>2017-09-24T09:38:22.000Z</time>
      </trkpt>
      <trkpt lat="43.37782" lon="2.44274">
        <ele>783</ele>
        <time>2017-09-24T09:38:23.000Z</time>
      </trkpt>
      <trkpt lat="43.37783" lon="2.44274">
        <ele>783</ele>
        <time>2017-09-24T09:38:24.000Z</time>
      </trkpt>
      <trkpt lat="43.37784" lon="2.44274">
        <ele>783</ele>
        <time>2017-09-24T09:38:25.000Z</time>
      </trkpt>
      <trkpt lat="43.37785" lon="2.44275">
        <ele>783</ele>
        <time>2017-09-24T09:38:26.000Z</time>
      </trkpt>
      <trkpt lat="43.37787" lon="2.44275">
        <ele>783</ele>
        <time>2017-09-24T09:38:27.000Z</time>
      </trkpt>
      <trkpt lat="43.37788" lon="2.44276">
        <ele>783</ele>
        <time>2017-09-24T09:38:28.000Z</time>
      </trkpt>
      <trkpt lat="43.37789" lon="2.44276">
        <ele>783</ele>
        <time>2017-09-24T09:38:29.000Z</time>
      </trkpt>
      <trkpt lat="43.3779" lon="2.44277">
        <ele>783</ele>
        <time>2017-09-24T09:38:30.000Z</time>
      </trkpt>
      <trkpt lat="43.37792" lon="2.44277">
        <ele>783</ele>
        <time>2017-09-24T09:38:31.000Z</time>
      </trkpt>
      <trkpt lat="43.37793" lon="2.44278">
        <ele>783</ele>
        <time>2017-09-24T09:38:32.000Z</time>
      </trkpt>
      <trkpt lat="43.37794" lon="2.44278">
        <ele>784</ele>
        <time>2017-09-24T09:38:33.000Z</time>
      </trkpt>
      <trkpt lat="43.37795" lon="2.44278">
        <ele>784</ele>
        <time>2017-09-24T09:38:34.000Z</time>
      </trkpt>
      <trkpt lat="43.37796" lon="2.44278">
        <ele>784</ele>
        <time>2017-09-24T09:38:35.000Z</time>
      </trkpt>
      <trkpt lat="43.37797" lon="2.44278">
        <ele>784</ele>
        <time>2017-09-24T09:38:36.000Z</time>
      </trkpt>
      <trkpt lat="43.37799" lon="2.44279">
        <ele>784</ele>
        <time>2017-09-24T09:38:37.000Z</time>
      </trkpt>
      <trkpt lat="43.378" lon="2.44279">
        <ele>784</ele>
        <time>2017-09-24T09:38:38.000Z</time>
      </trkpt>
      <trkpt lat="43.37801" lon="2.44279">
        <ele>784</ele>
        <time>2017-09-24T09:38:39.000Z</time>
      </trkpt>
      <trkpt lat="43.37802" lon="2.4428">
        <ele>784</ele>
        <time>2017-09-24T09:38:40.000Z</time>
      </trkpt>
      <trkpt lat="43.37803" lon="2.4428">
        <ele>783</ele>
        <time>2017-09-24T09:38:41.000Z</time>
      </trkpt>
      <trkpt lat="43.37804" lon="2.44281">
        <ele>783</ele>
        <time>2017-09-24T09:38:42.000Z</time>
      </trkpt>
      <trkpt lat="43.37806" lon="2.44282">
        <ele>783</ele>
        <time>2017-09-24T09:38:43.000Z</time>
      </trkpt>
      <trkpt lat="43.37807" lon="2.44282">
        <ele>783</ele>
        <time>2017-09-24T09:38:44.000Z</time>
      </trkpt>
      <trkpt lat="43.37808" lon="2.44283">
        <ele>783</ele>
        <time>2017-09-24T09:38:45.000Z</time>
      </trkpt>
      <trkpt lat="43.37809" lon="2.44283">
        <ele>783</ele>
        <time>2017-09-24T09:38:46.000Z</time>
      </trkpt>
      <trkpt lat="43.3781" lon="2.44284">
        <ele>783</ele>
        <time>2017-09-24T09:38:47.000Z</time>
      </trkpt>
      <trkpt lat="43.37812" lon="2.44285">
        <ele>783</ele>
        <time>2017-09-24T09:38:48.000Z</time>
      </trkpt>
      <trkpt lat="43.37813" lon="2.44285">
        <ele>783</ele>
        <time>2017-09-24T09:38:49.000Z</time>
      </trkpt>
      <trkpt lat="43.37814" lon="2.44286">
        <ele>783</ele>
        <time>2017-09-24T09:38:50.000Z</time>
      </trkpt>
      <trkpt lat="43.37815" lon="2.44287">
        <ele>782</ele>
        <time>2017-09-24T09:38:51.000Z</time>
      </trkpt>
      <trkpt lat="43.37816" lon="2.44288">
        <ele>782</ele>
        <time>2017-09-24T09:38:52.000Z</time>
      </trkpt>
      <trkpt lat="43.37818" lon="2.44289">
        <ele>782</ele>
        <time>2017-09-24T09:38:53.000Z</time>
      </trkpt>
      <trkpt lat="43.37819" lon="2.44289">
        <ele>782</ele>
        <time>2017-09-24T09:38:54.000Z</time>
      </trkpt>
      <trkpt lat="43.3782" lon="2.4429">
        <ele>782</ele>
        <time>2017-09-24T09:38:55.000Z</time>
      </trkpt>
      <trkpt lat="43.37821" lon="2.44291">
        <ele>782</ele>
        <time>2017-09-24T09:38:56.000Z</time>
      </trkpt>
      <trkpt lat="43.37822" lon="2.44292">
        <ele>781</ele>
        <time>2017-09-24T09:38:57.000Z</time>
      </trkpt>
      <trkpt lat="43.37823" lon="2.44293">
        <ele>781</ele>
        <time>2017-09-24T09:38:58.000Z</time>
      </trkpt>
      <trkpt lat="43.37824" lon="2.44293">
        <ele>781</ele>
        <time>2017-09-24T09:38:59.000Z</time>
      </trkpt>
      <trkpt lat="43.37825" lon="2.44294">
        <ele>781</ele>
        <time>2017-09-24T09:39:00.000Z</time>
      </trkpt>
      <trkpt lat="43.37826" lon="2.44295">
        <ele>781</ele>
        <time>2017-09-24T09:39:01.000Z</time>
      </trkpt>
      <trkpt lat="43.37827" lon="2.44295">
        <ele>781</ele>
        <time>2017-09-24T09:39:02.000Z</time>
      </trkpt>
      <trkpt lat="43.37828" lon="2.44296">
        <ele>781</ele>
        <time>2017-09-24T09:39:03.000Z</time>
      </trkpt>
      <trkpt lat="43.3783" lon="2.44297">
        <ele>781</ele>
        <time>2017-09-24T09:39:04.000Z</time>
      </trkpt>
      <trkpt lat="43.37831" lon="2.44298">
        <ele>780</ele>
        <time>2017-09-24T09:39:05.000Z</time>
      </trkpt>
      <trkpt lat="43.37832" lon="2.44298">
        <ele>780</ele>
        <time>2017-09-24T09:39:06.000Z</time>
      </trkpt>
      <trkpt lat="43.37833" lon="2.44299">
        <ele>780</ele>
        <time>2017-09-24T09:39:07.000Z</time>
      </trkpt>
      <trkpt lat="43.37834" lon="2.44299">
        <ele>780</ele>
        <time>2017-09-24T09:39:08.000Z</time>
      </trkpt>
      <trkpt lat="43.37836" lon="2.443">
        <ele>780</ele>
        <time>2017-09-24T09:39:09.000Z</time>
      </trkpt>
      <trkpt lat="43.37837" lon="2.44301">
        <ele>780</ele>
        <time>2017-09-24T09:39:10.000Z</time>
      </trkpt>
      <trkpt lat="43.37837" lon="2.44301">
        <ele>780</ele>
        <time>2017-09-24T09:39:11.000Z</time>
      </trkpt>
      <trkpt lat="43.37838" lon="2.44302">
        <ele>780</ele>
        <time>2017-09-24T09:39:12.000Z</time>
      </trkpt>
      <trkpt lat="43.37839" lon="2.44303">
        <ele>780</ele>
        <time>2017-09-24T09:39:13.000Z</time>
      </trkpt>
      <trkpt lat="43.37839" lon="2.44303">
        <ele>779</ele>
        <time>2017-09-24T09:39:14.000Z</time>
      </trkpt>
      <trkpt lat="43.3784" lon="2.44304">
        <ele>779</ele>
        <time>2017-09-24T09:39:15.000Z</time>
      </trkpt>
      <trkpt lat="43.37841" lon="2.44305">
        <ele>779</ele>
        <time>2017-09-24T09:39:16.000Z</time>
      </trkpt>
      <trkpt lat="43.37842" lon="2.44306">
        <ele>779</ele>
        <time>2017-09-24T09:39:17.000Z</time>
      </trkpt>
      <trkpt lat="43.37843" lon="2.44306">
        <ele>779</ele>
        <time>2017-09-24T09:39:18.000Z</time>
      </trkpt>
      <trkpt lat="43.37844" lon="2.44306">
        <ele>779</ele>
        <time>2017-09-24T09:39:19.000Z</time>
      </trkpt>
      <trkpt lat="43.37845" lon="2.44307">
        <ele>779</ele>
        <time>2017-09-24T09:39:20.000Z</time>
      </trkpt>
      <trkpt lat="43.37847" lon="2.44307">
        <ele>779</ele>
        <time>2017-09-24T09:39:21.000Z</time>
      </trkpt>
      <trkpt lat="43.37848" lon="2.44307">
        <ele>779</ele>
        <time>2017-09-24T09:39:22.000Z</time>
      </trkpt>
      <trkpt lat="43.37849" lon="2.44307">
        <ele>779</ele>
        <time>2017-09-24T09:39:23.000Z</time>
      </trkpt>
      <trkpt lat="43.3785" lon="2.44307">
        <ele>779</ele>
        <time>2017-09-24T09:39:24.000Z</time>
      </trkpt>
      <trkpt lat="43.37851" lon="2.44307">
        <ele>779</ele>
        <time>2017-09-24T09:39:25.000Z</time>
      </trkpt>
      <trkpt lat="43.37852" lon="2.44308">
        <ele>779</ele>
        <time>2017-09-24T09:39:26.000Z</time>
      </trkpt>
      <trkpt lat="43.37853" lon="2.44308">
        <ele>779</ele>
        <time>2017-09-24T09:39:27.000Z</time>
      </trkpt>
      <trkpt lat="43.37854" lon="2.44309">
        <ele>779</ele>
        <time>2017-09-24T09:39:28.000Z</time>
      </trkpt>
      <trkpt lat="43.37855" lon="2.44309">
        <ele>779</ele>
        <time>2017-09-24T09:39:29.000Z</time>
      </trkpt>
      <trkpt lat="43.37856" lon="2.4431">
        <ele>779</ele>
        <time>2017-09-24T09:39:30.000Z</time>
      </trkpt>
      <trkpt lat="43.37857" lon="2.44311">
        <ele>779</ele>
        <time>2017-09-24T09:39:31.000Z</time>
      </trkpt>
      <trkpt lat="43.37858" lon="2.44311">
        <ele>779</ele>
        <time>2017-09-24T09:39:32.000Z</time>
      </trkpt>
      <trkpt lat="43.37859" lon="2.44312">
        <ele>779</ele>
        <time>2017-09-24T09:39:33.000Z</time>
      </trkpt>
      <trkpt lat="43.3786" lon="2.44313">
        <ele>779</ele>
        <time>2017-09-24T09:39:34.000Z</time>
      </trkpt>
      <trkpt lat="43.37861" lon="2.44314">
        <ele>779</ele>
        <time>2017-09-24T09:39:35.000Z</time>
      </trkpt>
      <trkpt lat="43.37862" lon="2.44314">
        <ele>779</ele>
        <time>2017-09-24T09:39:36.000Z</time>
      </trkpt>
      <trkpt lat="43.37863" lon="2.44315">
        <ele>779</ele>
        <time>2017-09-24T09:39:37.000Z</time>
      </trkpt>
      <trkpt lat="43.37864" lon="2.44316">
        <ele>779</ele>
        <time>2017-09-24T09:39:38.000Z</time>
      </trkpt>
      <trkpt lat="43.37865" lon="2.44317">
        <ele>779</ele>
        <time>2017-09-24T09:39:39.000Z</time>
      </trkpt>
      <trkpt lat="43.37866" lon="2.44318">
        <ele>779</ele>
        <time>2017-09-24T09:39:40.000Z</time>
      </trkpt>
      <trkpt lat="43.37867" lon="2.44319">
        <ele>779</ele>
        <time>2017-09-24T09:39:41.000Z</time>
      </trkpt>
      <trkpt lat="43.37868" lon="2.4432">
        <ele>778</ele>
        <time>2017-09-24T09:39:42.000Z</time>
      </trkpt>
      <trkpt lat="43.37869" lon="2.44321">
        <ele>778</ele>
        <time>2017-09-24T09:39:43.000Z</time>
      </trkpt>
      <trkpt lat="43.37871" lon="2.44322">
        <ele>778</ele>
        <time>2017-09-24T09:39:44.000Z</time>
      </trkpt>
      <trkpt lat="43.37872" lon="2.44322">
        <ele>778</ele>
        <time>2017-09-24T09:39:45.000Z</time>
      </trkpt>
      <trkpt lat="43.37873" lon="2.44323">
        <ele>778</ele>
        <time>2017-09-24T09:39:46.000Z</time>
      </trkpt>
      <trkpt lat="43.37874" lon="2.44324">
        <ele>778</ele>
        <time>2017-09-24T09:39:47.000Z</time>
      </trkpt>
      <trkpt lat="43.37875" lon="2.44325">
        <ele>778</ele>
        <time>2017-09-24T09:39:48.000Z</time>
      </trkpt>
      <trkpt lat="43.37876" lon="2.44326">
        <ele>778</ele>
        <time>2017-09-24T09:39:49.000Z</time>
      </trkpt>
      <trkpt lat="43.37877" lon="2.44326">
        <ele>778</ele>
        <time>2017-09-24T09:39:50.000Z</time>
      </trkpt>
      <trkpt lat="43.37878" lon="2.44327">
        <ele>778</ele>
        <time>2017-09-24T09:39:51.000Z</time>
      </trkpt>
      <trkpt lat="43.37879" lon="2.44327">
        <ele>778</ele>
        <time>2017-09-24T09:39:52.000Z</time>
      </trkpt>
      <trkpt lat="43.3788" lon="2.44328">
        <ele>778</ele>
        <time>2017-09-24T09:39:53.000Z</time>
      </trkpt>
      <trkpt lat="43.37881" lon="2.44328">
        <ele>778</ele>
        <time>2017-09-24T09:39:54.000Z</time>
      </trkpt>
      <trkpt lat="43.37882" lon="2.44329">
        <ele>778</ele>
        <time>2017-09-24T09:39:55.000Z</time>
      </trkpt>
      <trkpt lat="43.37883" lon="2.44329">
        <ele>778</ele>
        <time>2017-09-24T09:39:56.000Z</time>
      </trkpt>
      <trkpt lat="43.37883" lon="2.4433">
        <ele>778</ele>
        <time>2017-09-24T09:39:57.000Z</time>
      </trkpt>
      <trkpt lat="43.37885" lon="2.44331">
        <ele>778</ele>
        <time>2017-09-24T09:39:58.000Z</time>
      </trkpt>
      <trkpt lat="43.37886" lon="2.44332">
        <ele>778</ele>
        <time>2017-09-24T09:39:59.000Z</time>
      </trkpt>
      <trkpt lat="43.37887" lon="2.44332">
        <ele>778</ele>
        <time>2017-09-24T09:40:00.000Z</time>
      </trkpt>
      <trkpt lat="43.37888" lon="2.44333">
        <ele>778</ele>
        <time>2017-09-24T09:40:01.000Z</time>
      </trkpt>
      <trkpt lat="43.37889" lon="2.44333">
        <ele>778</ele>
        <time>2017-09-24T09:40:02.000Z</time>
      </trkpt>
      <trkpt lat="43.3789" lon="2.44333">
        <ele>778</ele>
        <time>2017-09-24T09:40:03.000Z</time>
      </trkpt>
      <trkpt lat="43.37891" lon="2.44333">
        <ele>778</ele>
        <time>2017-09-24T09:40:04.000Z</time>
      </trkpt>
      <trkpt lat="43.37892" lon="2.44333">
        <ele>778</ele>
        <time>2017-09-24T09:40:05.000Z</time>
      </trkpt>
      <trkpt lat="43.37893" lon="2.44333">
        <ele>778</ele>
        <time>2017-09-24T09:40:06.000Z</time>
      </trkpt>
      <trkpt lat="43.37894" lon="2.44333">
        <ele>779</ele>
        <time>2017-09-24T09:40:07.000Z</time>
      </trkpt>
      <trkpt lat="43.37895" lon="2.44333">
        <ele>779</ele>
        <time>2017-09-24T09:40:08.000Z</time>
      </trkpt>
      <trkpt lat="43.37896" lon="2.44333">
        <ele>779</ele>
        <time>2017-09-24T09:40:09.000Z</time>
      </trkpt>
      <trkpt lat="43.37897" lon="2.44333">
        <ele>779</ele>
        <time>2017-09-24T09:40:10.000Z</time>
      </trkpt>
      <trkpt lat="43.37898" lon="2.44333">
        <ele>779</ele>
        <time>2017-09-24T09:40:11.000Z</time>
      </trkpt>
      <trkpt lat="43.37898" lon="2.44334">
        <ele>779</ele>
        <time>2017-09-24T09:40:12.000Z</time>
      </trkpt>
      <trkpt lat="43.37899" lon="2.44334">
        <ele>779</ele>
        <time>2017-09-24T09:40:13.000Z</time>
      </trkpt>
      <trkpt lat="43.379" lon="2.44335">
        <ele>779</ele>
        <time>2017-09-24T09:40:14.000Z</time>
      </trkpt>
      <trkpt lat="43.37901" lon="2.44335">
        <ele>779</ele>
        <time>2017-09-24T09:40:15.000Z</time>
      </trkpt>
      <trkpt lat="43.37902" lon="2.44336">
        <ele>779</ele>
        <time>2017-09-24T09:40:16.000Z</time>
      </trkpt>
      <trkpt lat="43.37903" lon="2.44336">
        <ele>779</ele>
        <time>2017-09-24T09:40:17.000Z</time>
      </trkpt>
      <trkpt lat="43.37904" lon="2.44336">
        <ele>779</ele>
        <time>2017-09-24T09:40:18.000Z</time>
      </trkpt>
      <trkpt lat="43.37905" lon="2.44337">
        <ele>779</ele>
        <time>2017-09-24T09:40:19.000Z</time>
      </trkpt>
      <trkpt lat="43.37907" lon="2.44338">
        <ele>780</ele>
        <time>2017-09-24T09:40:20.000Z</time>
      </trkpt>
      <trkpt lat="43.37907" lon="2.44338">
        <ele>780</ele>
        <time>2017-09-24T09:40:21.000Z</time>
      </trkpt>
      <trkpt lat="43.37908" lon="2.44339">
        <ele>780</ele>
        <time>2017-09-24T09:40:22.000Z</time>
      </trkpt>
      <trkpt lat="43.3791" lon="2.4434">
        <ele>780</ele>
        <time>2017-09-24T09:40:23.000Z</time>
      </trkpt>
      <trkpt lat="43.37911" lon="2.4434">
        <ele>780</ele>
        <time>2017-09-24T09:40:24.000Z</time>
      </trkpt>
      <trkpt lat="43.37911" lon="2.44341">
        <ele>780</ele>
        <time>2017-09-24T09:40:25.000Z</time>
      </trkpt>
      <trkpt lat="43.37912" lon="2.44341">
        <ele>780</ele>
        <time>2017-09-24T09:40:26.000Z</time>
      </trkpt>
      <trkpt lat="43.37913" lon="2.44342">
        <ele>779</ele>
        <time>2017-09-24T09:40:27.000Z</time>
      </trkpt>
      <trkpt lat="43.37914" lon="2.44343">
        <ele>779</ele>
        <time>2017-09-24T09:40:28.000Z</time>
      </trkpt>
      <trkpt lat="43.37914" lon="2.44344">
        <ele>779</ele>
        <time>2017-09-24T09:40:29.000Z</time>
      </trkpt>
      <trkpt lat="43.37915" lon="2.44345">
        <ele>779</ele>
        <time>2017-09-24T09:40:30.000Z</time>
      </trkpt>
      <trkpt lat="43.37916" lon="2.44345">
        <ele>779</ele>
        <time>2017-09-24T09:40:31.000Z</time>
      </trkpt>
      <trkpt lat="43.37917" lon="2.44345">
        <ele>779</ele>
        <time>2017-09-24T09:40:32.000Z</time>
      </trkpt>
      <trkpt lat="43.37917" lon="2.44346">
        <ele>779</ele>
        <time>2017-09-24T09:40:33.000Z</time>
      </trkpt>
      <trkpt lat="43.37918" lon="2.44347">
        <ele>779</ele>
        <time>2017-09-24T09:40:34.000Z</time>
      </trkpt>
      <trkpt lat="43.37919" lon="2.44348">
        <ele>779</ele>
        <time>2017-09-24T09:40:35.000Z</time>
      </trkpt>
      <trkpt lat="43.3792" lon="2.44348">
        <ele>779</ele>
        <time>2017-09-24T09:40:36.000Z</time>
      </trkpt>
      <trkpt lat="43.37921" lon="2.44349">
        <ele>779</ele>
        <time>2017-09-24T09:40:37.000Z</time>
      </trkpt>
      <trkpt lat="43.37921" lon="2.44349">
        <ele>779</ele>
        <time>2017-09-24T09:40:38.000Z</time>
      </trkpt>
      <trkpt lat="43.37922" lon="2.44349">
        <ele>779</ele>
        <time>2017-09-24T09:40:39.000Z</time>
      </trkpt>
      <trkpt lat="43.37923" lon="2.4435">
        <ele>779</ele>
        <time>2017-09-24T09:40:40.000Z</time>
      </trkpt>
      <trkpt lat="43.37924" lon="2.4435">
        <ele>779</ele>
        <time>2017-09-24T09:40:41.000Z</time>
      </trkpt>
      <trkpt lat="43.37925" lon="2.4435">
        <ele>779</ele>
        <time>2017-09-24T09:40:42.000Z</time>
      </trkpt>
      <trkpt lat="43.37926" lon="2.4435">
        <ele>780</ele>
        <time>2017-09-24T09:40:43.000Z</time>
      </trkpt>
      <trkpt lat="43.37927" lon="2.4435">
        <ele>780</ele>
        <time>2017-09-24T09:40:44.000Z</time>
      </trkpt>
      <trkpt lat="43.37928" lon="2.44351">
        <ele>780</ele>
        <time>2017-09-24T09:40:45.000Z</time>
      </trkpt>
      <trkpt lat="43.3793" lon="2.44352">
        <ele>780</ele>
        <time>2017-09-24T09:40:46.000Z</time>
      </trkpt>
      <trkpt lat="43.37931" lon="2.44353">
        <ele>780</ele>
        <time>2017-09-24T09:40:47.000Z</time>
      </trkpt>
      <trkpt lat="43.37932" lon="2.44354">
        <ele>780</ele>
        <time>2017-09-24T09:40:48.000Z</time>
      </trkpt>
      <trkpt lat="43.37933" lon="2.44355">
        <ele>780</ele>
        <time>2017-09-24T09:40:49.000Z</time>
      </trkpt>
      <trkpt lat="43.37934" lon="2.44355">
        <ele>780</ele>
        <time>2017-09-24T09:40:50.000Z</time>
      </trkpt>
      <trkpt lat="43.37935" lon="2.44356">
        <ele>780</ele>
        <time>2017-09-24T09:40:51.000Z</time>
      </trkpt>
      <trkpt lat="43.37936" lon="2.44357">
        <ele>780</ele>
        <time>2017-09-24T09:40:52.000Z</time>
      </trkpt>
      <trkpt lat="43.37937" lon="2.44358">
        <ele>780</ele>
        <time>2017-09-24T09:40:53.000Z</time>
      </trkpt>
      <trkpt lat="43.37938" lon="2.44358">
        <ele>780</ele>
        <time>2017-09-24T09:40:54.000Z</time>
      </trkpt>
      <trkpt lat="43.37939" lon="2.44359">
        <ele>780</ele>
        <time>2017-09-24T09:40:55.000Z</time>
      </trkpt>
      <trkpt lat="43.3794" lon="2.4436">
        <ele>780</ele>
        <time>2017-09-24T09:40:56.000Z</time>
      </trkpt>
      <trkpt lat="43.37941" lon="2.44361">
        <ele>780</ele>
        <time>2017-09-24T09:40:57.000Z</time>
      </trkpt>
      <trkpt lat="43.37942" lon="2.44361">
        <ele>780</ele>
        <time>2017-09-24T09:40:58.000Z</time>
      </trkpt>
      <trkpt lat="43.37943" lon="2.44362">
        <ele>780</ele>
        <time>2017-09-24T09:40:59.000Z</time>
      </trkpt>
      <trkpt lat="43.37943" lon="2.44363">
        <ele>780</ele>
        <time>2017-09-24T09:41:00.000Z</time>
      </trkpt>
      <trkpt lat="43.37944" lon="2.44364">
        <ele>780</ele>
        <time>2017-09-24T09:41:01.000Z</time>
      </trkpt>
      <trkpt lat="43.37945" lon="2.44365">
        <ele>780</ele>
        <time>2017-09-24T09:41:02.000Z</time>
      </trkpt>
      <trkpt lat="43.37946" lon="2.44366">
        <ele>780</ele>
        <time>2017-09-24T09:41:03.000Z</time>
      </trkpt>
      <trkpt lat="43.37947" lon="2.44366">
        <ele>780</ele>
        <time>2017-09-24T09:41:04.000Z</time>
      </trkpt>
      <trkpt lat="43.37949" lon="2.44367">
        <ele>780</ele>
        <time>2017-09-24T09:41:05.000Z</time>
      </trkpt>
      <trkpt lat="43.3795" lon="2.44367">
        <ele>780</ele>
        <time>2017-09-24T09:41:06.000Z</time>
      </trkpt>
      <trkpt lat="43.37951" lon="2.44368">
        <ele>780</ele>
        <time>2017-09-24T09:41:07.000Z</time>
      </trkpt>
      <trkpt lat="43.37952" lon="2.44368">
        <ele>780</ele>
        <time>2017-09-24T09:41:08.000Z</time>
      </trkpt>
      <trkpt lat="43.37953" lon="2.44368">
        <ele>780</ele>
        <time>2017-09-24T09:41:09.000Z</time>
      </trkpt>
      <trkpt lat="43.37954" lon="2.44368">
        <ele>781</ele>
        <time>2017-09-24T09:41:10.000Z</time>
      </trkpt>
      <trkpt lat="43.37955" lon="2.44369">
        <ele>781</ele>
        <time>2017-09-24T09:41:11.000Z</time>
      </trkpt>
      <trkpt lat="43.37956" lon="2.44369">
        <ele>781</ele>
        <time>2017-09-24T09:41:12.000Z</time>
      </trkpt>
      <trkpt lat="43.37957" lon="2.44368">
        <ele>781</ele>
        <time>2017-09-24T09:41:13.000Z</time>
      </trkpt>
      <trkpt lat="43.37958" lon="2.44368">
        <ele>781</ele>
        <time>2017-09-24T09:41:14.000Z</time>
      </trkpt>
      <trkpt lat="43.37959" lon="2.44368">
        <ele>782</ele>
        <time>2017-09-24T09:41:15.000Z</time>
      </trkpt>
      <trkpt lat="43.3796" lon="2.44368">
        <ele>782</ele>
        <time>2017-09-24T09:41:16.000Z</time>
      </trkpt>
      <trkpt lat="43.37961" lon="2.44367">
        <ele>782</ele>
        <time>2017-09-24T09:41:17.000Z</time>
      </trkpt>
      <trkpt lat="43.37962" lon="2.44367">
        <ele>783</ele>
        <time>2017-09-24T09:41:18.000Z</time>
      </trkpt>
      <trkpt lat="43.37964" lon="2.44367">
        <ele>783</ele>
        <time>2017-09-24T09:41:19.000Z</time>
      </trkpt>
      <trkpt lat="43.37965" lon="2.44367">
        <ele>783</ele>
        <time>2017-09-24T09:41:20.000Z</time>
      </trkpt>
      <trkpt lat="43.37966" lon="2.44367">
        <ele>783</ele>
        <time>2017-09-24T09:41:21.000Z</time>
      </trkpt>
      <trkpt lat="43.37967" lon="2.44367">
        <ele>783</ele>
        <time>2017-09-24T09:41:22.000Z</time>
      </trkpt>
      <trkpt lat="43.37968" lon="2.44367">
        <ele>783</ele>
        <time>2017-09-24T09:41:23.000Z</time>
      </trkpt>
      <trkpt lat="43.37969" lon="2.44366">
        <ele>783</ele>
        <time>2017-09-24T09:41:24.000Z</time>
      </trkpt>
      <trkpt lat="43.3797" lon="2.44366">
        <ele>783</ele>
        <time>2017-09-24T09:41:25.000Z</time>
      </trkpt>
      <trkpt lat="43.37971" lon="2.44366">
        <ele>782</ele>
        <time>2017-09-24T09:41:26.000Z</time>
      </trkpt>
      <trkpt lat="43.37972" lon="2.44366">
        <ele>782</ele>
        <time>2017-09-24T09:41:27.000Z</time>
      </trkpt>
      <trkpt lat="43.37973" lon="2.44365">
        <ele>782</ele>
        <time>2017-09-24T09:41:28.000Z</time>
      </trkpt>
      <trkpt lat="43.37974" lon="2.44365">
        <ele>782</ele>
        <time>2017-09-24T09:41:29.000Z</time>
      </trkpt>
      <trkpt lat="43.37976" lon="2.44365">
        <ele>782</ele>
        <time>2017-09-24T09:41:30.000Z</time>
      </trkpt>
      <trkpt lat="43.37977" lon="2.44365">
        <ele>781</ele>
        <time>2017-09-24T09:41:31.000Z</time>
      </trkpt>
      <trkpt lat="43.37978" lon="2.44365">
        <ele>781</ele>
        <time>2017-09-24T09:41:32.000Z</time>
      </trkpt>
      <trkpt lat="43.37979" lon="2.44365">
        <ele>781</ele>
        <time>2017-09-24T09:41:33.000Z</time>
      </trkpt>
      <trkpt lat="43.3798" lon="2.44365">
        <ele>781</ele>
        <time>2017-09-24T09:41:34.000Z</time>
      </trkpt>
      <trkpt lat="43.37981" lon="2.44364">
        <ele>780</ele>
        <time>2017-09-24T09:41:35.000Z</time>
      </trkpt>
      <trkpt lat="43.37982" lon="2.44364">
        <ele>780</ele>
        <time>2017-09-24T09:41:36.000Z</time>
      </trkpt>
      <trkpt lat="43.37983" lon="2.44364">
        <ele>780</ele>
        <time>2017-09-24T09:41:37.000Z</time>
      </trkpt>
      <trkpt lat="43.37984" lon="2.44365">
        <ele>780</ele>
        <time>2017-09-24T09:41:38.000Z</time>
      </trkpt>
      <trkpt lat="43.37984" lon="2.44365">
        <ele>780</ele>
        <time>2017-09-24T09:41:39.000Z</time>
      </trkpt>
      <trkpt lat="43.37985" lon="2.44365">
        <ele>780</ele>
        <time>2017-09-24T09:41:40.000Z</time>
      </trkpt>
      <trkpt lat="43.37985" lon="2.44365">
        <ele>780</ele>
        <time>2017-09-24T09:41:41.000Z</time>
      </trkpt>
      <trkpt lat="43.37986" lon="2.44365">
        <ele>780</ele>
        <time>2017-09-24T09:41:42.000Z</time>
      </trkpt>
      <trkpt lat="43.37986" lon="2.44365">
        <ele>780</ele>
        <time>2017-09-24T09:41:43.000Z</time>
      </trkpt>
      <trkpt lat="43.37987" lon="2.44364">
        <ele>780</ele>
        <time>2017-09-24T09:41:44.000Z</time>
      </trkpt>
      <trkpt lat="43.37988" lon="2.44364">
        <ele>779</ele>
        <time>2017-09-24T09:41:45.000Z</time>
      </trkpt>
      <trkpt lat="43.37988" lon="2.44365">
        <ele>779</ele>
        <time>2017-09-24T09:41:46.000Z</time>
      </trkpt>
      <trkpt lat="43.3799" lon="2.44366">
        <ele>779</ele>
        <time>2017-09-24T09:41:47.000Z</time>
      </trkpt>
      <trkpt lat="43.37991" lon="2.44366">
        <ele>779</ele>
        <time>2017-09-24T09:41:48.000Z</time>
      </trkpt>
      <trkpt lat="43.37992" lon="2.44367">
        <ele>779</ele>
        <time>2017-09-24T09:41:49.000Z</time>
      </trkpt>
      <trkpt lat="43.37993" lon="2.44367">
        <ele>779</ele>
        <time>2017-09-24T09:41:50.000Z</time>
      </trkpt>
      <trkpt lat="43.37994" lon="2.44367">
        <ele>779</ele>
        <time>2017-09-24T09:41:51.000Z</time>
      </trkpt>
      <trkpt lat="43.37994" lon="2.44368">
        <ele>779</ele>
        <time>2017-09-24T09:41:52.000Z</time>
      </trkpt>
      <trkpt lat="43.37995" lon="2.44368">
        <ele>779</ele>
        <time>2017-09-24T09:41:53.000Z</time>
      </trkpt>
      <trkpt lat="43.37996" lon="2.44368">
        <ele>778</ele>
        <time>2017-09-24T09:41:54.000Z</time>
      </trkpt>
      <trkpt lat="43.37996" lon="2.44368">
        <ele>778</ele>
        <time>2017-09-24T09:41:55.000Z</time>
      </trkpt>
      <trkpt lat="43.37997" lon="2.44369">
        <ele>778</ele>
        <time>2017-09-24T09:41:56.000Z</time>
      </trkpt>
      <trkpt lat="43.37997" lon="2.44369">
        <ele>778</ele>
        <time>2017-09-24T09:41:57.000Z</time>
      </trkpt>
      <trkpt lat="43.37991" lon="2.44365">
        <ele>779</ele>
        <time>2017-09-24T09:42:32.000Z</time>
      </trkpt>
      <trkpt lat="43.3799" lon="2.44364">
        <ele>779</ele>
        <time>2017-09-24T09:42:33.000Z</time>
      </trkpt>
      <trkpt lat="43.3799" lon="2.44363">
        <ele>779</ele>
        <time>2017-09-24T09:42:34.000Z</time>
      </trkpt>
      <trkpt lat="43.3799" lon="2.44362">
        <ele>779</ele>
        <time>2017-09-24T09:42:35.000Z</time>
      </trkpt>
      <trkpt lat="43.3799" lon="2.44361">
        <ele>779</ele>
        <time>2017-09-24T09:42:36.000Z</time>
      </trkpt>
      <trkpt lat="43.37989" lon="2.44361">
        <ele>779</ele>
        <time>2017-09-24T09:42:37.000Z</time>
      </trkpt>
      <trkpt lat="43.37989" lon="2.4436">
        <ele>779</ele>
        <time>2017-09-24T09:42:38.000Z</time>
      </trkpt>
      <trkpt lat="43.37988" lon="2.44359">
        <ele>779</ele>
        <time>2017-09-24T09:42:39.000Z</time>
      </trkpt>
      <trkpt lat="43.37988" lon="2.44359">
        <ele>779</ele>
        <time>2017-09-24T09:42:40.000Z</time>
      </trkpt>
      <trkpt lat="43.37987" lon="2.44359">
        <ele>779</ele>
        <time>2017-09-24T09:42:41.000Z</time>
      </trkpt>
      <trkpt lat="43.37986" lon="2.44359">
        <ele>779</ele>
        <time>2017-09-24T09:42:42.000Z</time>
      </trkpt>
      <trkpt lat="43.37986" lon="2.44358">
        <ele>779</ele>
        <time>2017-09-24T09:42:43.000Z</time>
      </trkpt>
      <trkpt lat="43.37985" lon="2.44359">
        <ele>779</ele>
        <time>2017-09-24T09:42:44.000Z</time>
      </trkpt>
      <trkpt lat="43.37984" lon="2.44359">
        <ele>779</ele>
        <time>2017-09-24T09:42:45.000Z</time>
      </trkpt>
      <trkpt lat="43.37984" lon="2.44359">
        <ele>779</ele>
        <time>2017-09-24T09:42:46.000Z</time>
      </trkpt>
      <trkpt lat="43.37983" lon="2.44359">
        <ele>779</ele>
        <time>2017-09-24T09:42:47.000Z</time>
      </trkpt>
      <trkpt lat="43.37983" lon="2.44359">
        <ele>780</ele>
        <time>2017-09-24T09:42:48.000Z</time>
      </trkpt>
      <trkpt lat="43.37982" lon="2.44359">
        <ele>780</ele>
        <time>2017-09-24T09:42:49.000Z</time>
      </trkpt>
      <trkpt lat="43.37981" lon="2.44359">
        <ele>780</ele>
        <time>2017-09-24T09:42:50.000Z</time>
      </trkpt>
      <trkpt lat="43.37981" lon="2.44359">
        <ele>780</ele>
        <time>2017-09-24T09:42:51.000Z</time>
      </trkpt>
      <trkpt lat="43.3798" lon="2.44359">
        <ele>780</ele>
        <time>2017-09-24T09:42:52.000Z</time>
      </trkpt>
      <trkpt lat="43.37979" lon="2.44359">
        <ele>780</ele>
        <time>2017-09-24T09:42:53.000Z</time>
      </trkpt>
      <trkpt lat="43.37979" lon="2.44359">
        <ele>780</ele>
        <time>2017-09-24T09:42:54.000Z</time>
      </trkpt>
      <trkpt lat="43.37978" lon="2.44359">
        <ele>780</ele>
        <time>2017-09-24T09:42:55.000Z</time>
      </trkpt>
      <trkpt lat="43.37977" lon="2.44359">
        <ele>780</ele>
        <time>2017-09-24T09:42:56.000Z</time>
      </trkpt>
      <trkpt lat="43.37977" lon="2.44359">
        <ele>780</ele>
        <time>2017-09-24T09:42:57.000Z</time>
      </trkpt>
      <trkpt lat="43.37976" lon="2.44358">
        <ele>781</ele>
        <time>2017-09-24T09:42:58.000Z</time>
      </trkpt>
      <trkpt lat="43.37976" lon="2.44358">
        <ele>780</ele>
        <time>2017-09-24T09:42:59.000Z</time>
      </trkpt>
      <trkpt lat="43.37976" lon="2.44357">
        <ele>780</ele>
        <time>2017-09-24T09:43:00.000Z</time>
      </trkpt>
      <trkpt lat="43.37976" lon="2.44356">
        <ele>780</ele>
        <time>2017-09-24T09:43:01.000Z</time>
      </trkpt>
      <trkpt lat="43.37976" lon="2.44355">
        <ele>780</ele>
        <time>2017-09-24T09:43:02.000Z</time>
      </trkpt>
      <trkpt lat="43.37975" lon="2.44355">
        <ele>780</ele>
        <time>2017-09-24T09:43:03.000Z</time>
      </trkpt>
      <trkpt lat="43.37975" lon="2.44354">
        <ele>780</ele>
        <time>2017-09-24T09:43:04.000Z</time>
      </trkpt>
      <trkpt lat="43.37975" lon="2.44353">
        <ele>780</ele>
        <time>2017-09-24T09:43:05.000Z</time>
      </trkpt>
      <trkpt lat="43.37975" lon="2.44352">
        <ele>780</ele>
        <time>2017-09-24T09:43:06.000Z</time>
      </trkpt>
      <trkpt lat="43.37975" lon="2.44351">
        <ele>780</ele>
        <time>2017-09-24T09:43:07.000Z</time>
      </trkpt>
      <trkpt lat="43.37975" lon="2.4435">
        <ele>780</ele>
        <time>2017-09-24T09:43:08.000Z</time>
      </trkpt>
      <trkpt lat="43.37976" lon="2.44349">
        <ele>780</ele>
        <time>2017-09-24T09:43:09.000Z</time>
      </trkpt>
      <trkpt lat="43.37976" lon="2.44348">
        <ele>780</ele>
        <time>2017-09-24T09:43:10.000Z</time>
      </trkpt>
      <trkpt lat="43.37976" lon="2.44348">
        <ele>779</ele>
        <time>2017-09-24T09:43:11.000Z</time>
      </trkpt>
      <trkpt lat="43.37976" lon="2.44347">
        <ele>779</ele>
        <time>2017-09-24T09:43:12.000Z</time>
      </trkpt>
      <trkpt lat="43.37976" lon="2.44347">
        <ele>779</ele>
        <time>2017-09-24T09:43:13.000Z</time>
      </trkpt>
      <trkpt lat="43.37977" lon="2.44352">
        <ele>780</ele>
        <time>2017-09-24T09:43:39.000Z</time>
      </trkpt>
      <trkpt lat="43.37977" lon="2.44352">
        <ele>780</ele>
        <time>2017-09-24T09:43:40.000Z</time>
      </trkpt>
      <trkpt lat="43.37977" lon="2.44352">
        <ele>780</ele>
        <time>2017-09-24T09:43:41.000Z</time>
      </trkpt>
      <trkpt lat="43.37977" lon="2.44353">
        <ele>780</ele>
        <time>2017-09-24T09:43:42.000Z</time>
      </trkpt>
      <trkpt lat="43.37972" lon="2.4435">
        <ele>780</ele>
        <time>2017-09-24T09:45:11.000Z</time>
      </trkpt>
      <trkpt lat="43.37971" lon="2.4435">
        <ele>780</ele>
        <time>2017-09-24T09:45:12.000Z</time>
      </trkpt>
      <trkpt lat="43.3797" lon="2.4435">
        <ele>781</ele>
        <time>2017-09-24T09:45:13.000Z</time>
      </trkpt>
      <trkpt lat="43.3797" lon="2.44351">
        <ele>781</ele>
        <time>2017-09-24T09:45:14.000Z</time>
      </trkpt>
      <trkpt lat="43.37969" lon="2.44351">
        <ele>781</ele>
        <time>2017-09-24T09:45:15.000Z</time>
      </trkpt>
      <trkpt lat="43.37968" lon="2.44351">
        <ele>781</ele>
        <time>2017-09-24T09:45:16.000Z</time>
      </trkpt>
      <trkpt lat="43.37967" lon="2.44351">
        <ele>781</ele>
        <time>2017-09-24T09:45:17.000Z</time>
      </trkpt>
      <trkpt lat="43.37967" lon="2.44351">
        <ele>781</ele>
        <time>2017-09-24T09:45:18.000Z</time>
      </trkpt>
      <trkpt lat="43.37966" lon="2.44351">
        <ele>781</ele>
        <time>2017-09-24T09:45:19.000Z</time>
      </trkpt>
      <trkpt lat="43.37965" lon="2.4435">
        <ele>781</ele>
        <time>2017-09-24T09:45:20.000Z</time>
      </trkpt>
      <trkpt lat="43.37964" lon="2.4435">
        <ele>782</ele>
        <time>2017-09-24T09:45:21.000Z</time>
      </trkpt>
      <trkpt lat="43.37963" lon="2.4435">
        <ele>782</ele>
        <time>2017-09-24T09:45:22.000Z</time>
      </trkpt>
      <trkpt lat="43.37963" lon="2.4435">
        <ele>782</ele>
        <time>2017-09-24T09:45:23.000Z</time>
      </trkpt>
      <trkpt lat="43.37962" lon="2.44349">
        <ele>782</ele>
        <time>2017-09-24T09:45:24.000Z</time>
      </trkpt>
      <trkpt lat="43.37961" lon="2.44349">
        <ele>782</ele>
        <time>2017-09-24T09:45:25.000Z</time>
      </trkpt>
      <trkpt lat="43.3796" lon="2.44347">
        <ele>782</ele>
        <time>2017-09-24T09:45:26.000Z</time>
      </trkpt>
      <trkpt lat="43.37959" lon="2.44347">
        <ele>782</ele>
        <time>2017-09-24T09:45:27.000Z</time>
      </trkpt>
      <trkpt lat="43.37959" lon="2.44346">
        <ele>782</ele>
        <time>2017-09-24T09:45:28.000Z</time>
      </trkpt>
      <trkpt lat="43.37958" lon="2.44346">
        <ele>782</ele>
        <time>2017-09-24T09:45:29.000Z</time>
      </trkpt>
      <trkpt lat="43.37958" lon="2.44345">
        <ele>782</ele>
        <time>2017-09-24T09:45:30.000Z</time>
      </trkpt>
      <trkpt lat="43.37957" lon="2.44345">
        <ele>782</ele>
        <time>2017-09-24T09:45:31.000Z</time>
      </trkpt>
      <trkpt lat="43.37957" lon="2.44344">
        <ele>782</ele>
        <time>2017-09-24T09:45:32.000Z</time>
      </trkpt>
      <trkpt lat="43.37956" lon="2.44344">
        <ele>782</ele>
        <time>2017-09-24T09:45:33.000Z</time>
      </trkpt>
      <trkpt lat="43.37955" lon="2.44343">
        <ele>782</ele>
        <time>2017-09-24T09:45:34.000Z</time>
      </trkpt>
      <trkpt lat="43.37955" lon="2.44343">
        <ele>782</ele>
        <time>2017-09-24T09:45:35.000Z</time>
      </trkpt>
      <trkpt lat="43.37954" lon="2.44343">
        <ele>782</ele>
        <time>2017-09-24T09:45:36.000Z</time>
      </trkpt>
      <trkpt lat="43.37953" lon="2.44342">
        <ele>782</ele>
        <time>2017-09-24T09:45:37.000Z</time>
      </trkpt>
      <trkpt lat="43.37953" lon="2.44342">
        <ele>783</ele>
        <time>2017-09-24T09:45:38.000Z</time>
      </trkpt>
      <trkpt lat="43.37952" lon="2.44342">
        <ele>783</ele>
        <time>2017-09-24T09:45:39.000Z</time>
      </trkpt>
      <trkpt lat="43.37951" lon="2.44342">
        <ele>783</ele>
        <time>2017-09-24T09:45:40.000Z</time>
      </trkpt>
      <trkpt lat="43.3795" lon="2.44342">
        <ele>783</ele>
        <time>2017-09-24T09:45:41.000Z</time>
      </trkpt>
      <trkpt lat="43.37949" lon="2.44341">
        <ele>783</ele>
        <time>2017-09-24T09:45:42.000Z</time>
      </trkpt>
      <trkpt lat="43.37948" lon="2.4434">
        <ele>783</ele>
        <time>2017-09-24T09:45:43.000Z</time>
      </trkpt>
      <trkpt lat="43.37947" lon="2.4434">
        <ele>783</ele>
        <time>2017-09-24T09:45:44.000Z</time>
      </trkpt>
      <trkpt lat="43.37947" lon="2.44339">
        <ele>783</ele>
        <time>2017-09-24T09:45:45.000Z</time>
      </trkpt>
      <trkpt lat="43.37946" lon="2.44339">
        <ele>783</ele>
        <time>2017-09-24T09:45:46.000Z</time>
      </trkpt>
      <trkpt lat="43.37945" lon="2.44339">
        <ele>783</ele>
        <time>2017-09-24T09:45:47.000Z</time>
      </trkpt>
      <trkpt lat="43.37945" lon="2.44339">
        <ele>784</ele>
        <time>2017-09-24T09:45:48.000Z</time>
      </trkpt>
      <trkpt lat="43.37944" lon="2.44339">
        <ele>784</ele>
        <time>2017-09-24T09:45:49.000Z</time>
      </trkpt>
      <trkpt lat="43.37943" lon="2.44339">
        <ele>784</ele>
        <time>2017-09-24T09:45:50.000Z</time>
      </trkpt>
      <trkpt lat="43.37943" lon="2.44338">
        <ele>784</ele>
        <time>2017-09-24T09:45:51.000Z</time>
      </trkpt>
      <trkpt lat="43.37942" lon="2.44338">
        <ele>784</ele>
        <time>2017-09-24T09:45:52.000Z</time>
      </trkpt>
      <trkpt lat="43.37941" lon="2.44337">
        <ele>784</ele>
        <time>2017-09-24T09:45:53.000Z</time>
      </trkpt>
      <trkpt lat="43.37941" lon="2.44337">
        <ele>784</ele>
        <time>2017-09-24T09:45:54.000Z</time>
      </trkpt>
      <trkpt lat="43.3794" lon="2.44337">
        <ele>784</ele>
        <time>2017-09-24T09:45:55.000Z</time>
      </trkpt>
      <trkpt lat="43.3794" lon="2.44337">
        <ele>784</ele>
        <time>2017-09-24T09:45:56.000Z</time>
      </trkpt>
      <trkpt lat="43.37939" lon="2.44337">
        <ele>784</ele>
        <time>2017-09-24T09:45:57.000Z</time>
      </trkpt>
      <trkpt lat="43.37938" lon="2.44337">
        <ele>784</ele>
        <time>2017-09-24T09:45:58.000Z</time>
      </trkpt>
      <trkpt lat="43.37938" lon="2.44337">
        <ele>784</ele>
        <time>2017-09-24T09:45:59.000Z</time>
      </trkpt>
      <trkpt lat="43.37937" lon="2.44337">
        <ele>785</ele>
        <time>2017-09-24T09:46:00.000Z</time>
      </trkpt>
      <trkpt lat="43.37936" lon="2.44337">
        <ele>785</ele>
        <time>2017-09-24T09:46:01.000Z</time>
      </trkpt>
      <trkpt lat="43.37935" lon="2.44337">
        <ele>785</ele>
        <time>2017-09-24T09:46:02.000Z</time>
      </trkpt>
      <trkpt lat="43.37934" lon="2.44337">
        <ele>784</ele>
        <time>2017-09-24T09:46:03.000Z</time>
      </trkpt>
      <trkpt lat="43.37933" lon="2.44337">
        <ele>784</ele>
        <time>2017-09-24T09:46:04.000Z</time>
      </trkpt>
      <trkpt lat="43.37933" lon="2.44337">
        <ele>784</ele>
        <time>2017-09-24T09:46:05.000Z</time>
      </trkpt>
      <trkpt lat="43.37932" lon="2.44337">
        <ele>784</ele>
        <time>2017-09-24T09:46:06.000Z</time>
      </trkpt>
      <trkpt lat="43.37932" lon="2.44336">
        <ele>784</ele>
        <time>2017-09-24T09:46:07.000Z</time>
      </trkpt>
      <trkpt lat="43.37931" lon="2.44336">
        <ele>784</ele>
        <time>2017-09-24T09:46:08.000Z</time>
      </trkpt>
      <trkpt lat="43.37931" lon="2.44336">
        <ele>784</ele>
        <time>2017-09-24T09:46:09.000Z</time>
      </trkpt>
      <trkpt lat="43.37931" lon="2.44334">
        <ele>784</ele>
        <time>2017-09-24T09:46:10.000Z</time>
      </trkpt>
      <trkpt lat="43.3793" lon="2.44334">
        <ele>784</ele>
        <time>2017-09-24T09:46:11.000Z</time>
      </trkpt>
      <trkpt lat="43.3793" lon="2.44334">
        <ele>784</ele>
        <time>2017-09-24T09:46:12.000Z</time>
      </trkpt>
      <trkpt lat="43.37929" lon="2.44334">
        <ele>784</ele>
        <time>2017-09-24T09:46:13.000Z</time>
      </trkpt>
      <trkpt lat="43.37929" lon="2.44334">
        <ele>784</ele>
        <time>2017-09-24T09:46:14.000Z</time>
      </trkpt>
      <trkpt lat="43.37923" lon="2.44332">
        <ele>784</ele>
        <time>2017-09-24T09:46:34.000Z</time>
      </trkpt>
      <trkpt lat="43.37922" lon="2.44331">
        <ele>784</ele>
        <time>2017-09-24T09:46:35.000Z</time>
      </trkpt>
      <trkpt lat="43.37922" lon="2.44331">
        <ele>784</ele>
        <time>2017-09-24T09:46:36.000Z</time>
      </trkpt>
      <trkpt lat="43.37921" lon="2.44323">
        <ele>786</ele>
        <time>2017-09-24T09:46:46.000Z</time>
      </trkpt>
      <trkpt lat="43.37921" lon="2.44322">
        <ele>786</ele>
        <time>2017-09-24T09:46:47.000Z</time>
      </trkpt>
      <trkpt lat="43.37921" lon="2.44321">
        <ele>786</ele>
        <time>2017-09-24T09:46:48.000Z</time>
      </trkpt>
      <trkpt lat="43.37921" lon="2.44319">
        <ele>786</ele>
        <time>2017-09-24T09:46:49.000Z</time>
      </trkpt>
      <trkpt lat="43.37921" lon="2.44318">
        <ele>786</ele>
        <time>2017-09-24T09:46:50.000Z</time>
      </trkpt>
      <trkpt lat="43.3792" lon="2.44317">
        <ele>786</ele>
        <time>2017-09-24T09:46:51.000Z</time>
      </trkpt>
      <trkpt lat="43.3792" lon="2.44316">
        <ele>786</ele>
        <time>2017-09-24T09:46:52.000Z</time>
      </trkpt>
      <trkpt lat="43.3792" lon="2.44315">
        <ele>786</ele>
        <time>2017-09-24T09:46:53.000Z</time>
      </trkpt>
      <trkpt lat="43.3792" lon="2.44314">
        <ele>786</ele>
        <time>2017-09-24T09:46:54.000Z</time>
      </trkpt>
      <trkpt lat="43.3792" lon="2.44313">
        <ele>785</ele>
        <time>2017-09-24T09:46:55.000Z</time>
      </trkpt>
      <trkpt lat="43.37921" lon="2.44312">
        <ele>785</ele>
        <time>2017-09-24T09:46:56.000Z</time>
      </trkpt>
      <trkpt lat="43.37921" lon="2.44311">
        <ele>785</ele>
        <time>2017-09-24T09:46:57.000Z</time>
      </trkpt>
      <trkpt lat="43.37921" lon="2.4431">
        <ele>785</ele>
        <time>2017-09-24T09:46:58.000Z</time>
      </trkpt>
      <trkpt lat="43.37921" lon="2.4431">
        <ele>785</ele>
        <time>2017-09-24T09:46:59.000Z</time>
      </trkpt>
      <trkpt lat="43.37922" lon="2.44309">
        <ele>785</ele>
        <time>2017-09-24T09:47:00.000Z</time>
      </trkpt>
      <trkpt lat="43.37922" lon="2.44308">
        <ele>785</ele>
        <time>2017-09-24T09:47:01.000Z</time>
      </trkpt>
      <trkpt lat="43.37922" lon="2.44308">
        <ele>784</ele>
        <time>2017-09-24T09:47:02.000Z</time>
      </trkpt>
      <trkpt lat="43.37922" lon="2.44308">
        <ele>784</ele>
        <time>2017-09-24T09:47:03.000Z</time>
      </trkpt>
      <trkpt lat="43.37917" lon="2.44312">
        <ele>786</ele>
        <time>2017-09-24T09:47:51.000Z</time>
      </trkpt>
      <trkpt lat="43.37916" lon="2.44312">
        <ele>786</ele>
        <time>2017-09-24T09:47:52.000Z</time>
      </trkpt>
      <trkpt lat="43.37915" lon="2.44312">
        <ele>787</ele>
        <time>2017-09-24T09:47:53.000Z</time>
      </trkpt>
      <trkpt lat="43.37914" lon="2.44312">
        <ele>787</ele>
        <time>2017-09-24T09:47:54.000Z</time>
      </trkpt>
      <trkpt lat="43.37913" lon="2.44312">
        <ele>787</ele>
        <time>2017-09-24T09:47:55.000Z</time>
      </trkpt>
      <trkpt lat="43.37913" lon="2.44312">
        <ele>788</ele>
        <time>2017-09-24T09:47:56.000Z</time>
      </trkpt>
      <trkpt lat="43.37912" lon="2.44312">
        <ele>788</ele>
        <time>2017-09-24T09:47:57.000Z</time>
      </trkpt>
      <trkpt lat="43.37911" lon="2.44312">
        <ele>788</ele>
        <time>2017-09-24T09:47:58.000Z</time>
      </trkpt>
      <trkpt lat="43.3791" lon="2.44312">
        <ele>788</ele>
        <time>2017-09-24T09:47:59.000Z</time>
      </trkpt>
      <trkpt lat="43.37909" lon="2.44311">
        <ele>788</ele>
        <time>2017-09-24T09:48:00.000Z</time>
      </trkpt>
      <trkpt lat="43.37909" lon="2.44311">
        <ele>788</ele>
        <time>2017-09-24T09:48:01.000Z</time>
      </trkpt>
      <trkpt lat="43.37908" lon="2.4431">
        <ele>788</ele>
        <time>2017-09-24T09:48:02.000Z</time>
      </trkpt>
      <trkpt lat="43.37908" lon="2.44308">
        <ele>788</ele>
        <time>2017-09-24T09:48:03.000Z</time>
      </trkpt>
      <trkpt lat="43.37908" lon="2.44308">
        <ele>788</ele>
        <time>2017-09-24T09:48:04.000Z</time>
      </trkpt>
      <trkpt lat="43.37908" lon="2.44307">
        <ele>788</ele>
        <time>2017-09-24T09:48:05.000Z</time>
      </trkpt>
      <trkpt lat="43.37908" lon="2.44306">
        <ele>788</ele>
        <time>2017-09-24T09:48:06.000Z</time>
      </trkpt>
      <trkpt lat="43.37908" lon="2.44306">
        <ele>788</ele>
        <time>2017-09-24T09:48:07.000Z</time>
      </trkpt>
      <trkpt lat="43.37907" lon="2.44306">
        <ele>788</ele>
        <time>2017-09-24T09:48:08.000Z</time>
      </trkpt>
      <trkpt lat="43.37907" lon="2.44307">
        <ele>788</ele>
        <time>2017-09-24T09:48:09.000Z</time>
      </trkpt>
      <trkpt lat="43.37906" lon="2.44307">
        <ele>789</ele>
        <time>2017-09-24T09:48:10.000Z</time>
      </trkpt>
      <trkpt lat="43.37906" lon="2.44306">
        <ele>789</ele>
        <time>2017-09-24T09:48:11.000Z</time>
      </trkpt>
      <trkpt lat="43.37905" lon="2.44306">
        <ele>789</ele>
        <time>2017-09-24T09:48:12.000Z</time>
      </trkpt>
      <trkpt lat="43.37905" lon="2.44306">
        <ele>789</ele>
        <time>2017-09-24T09:48:13.000Z</time>
      </trkpt>
      <trkpt lat="43.37904" lon="2.44306">
        <ele>789</ele>
        <time>2017-09-24T09:48:14.000Z</time>
      </trkpt>
      <trkpt lat="43.37904" lon="2.44306">
        <ele>789</ele>
        <time>2017-09-24T09:48:15.000Z</time>
      </trkpt>
      <trkpt lat="43.37903" lon="2.44306">
        <ele>789</ele>
        <time>2017-09-24T09:48:16.000Z</time>
      </trkpt>
      <trkpt lat="43.37902" lon="2.44306">
        <ele>788</ele>
        <time>2017-09-24T09:48:17.000Z</time>
      </trkpt>
      <trkpt lat="43.37901" lon="2.44306">
        <ele>788</ele>
        <time>2017-09-24T09:48:18.000Z</time>
      </trkpt>
      <trkpt lat="43.37901" lon="2.44306">
        <ele>788</ele>
        <time>2017-09-24T09:48:19.000Z</time>
      </trkpt>
      <trkpt lat="43.379" lon="2.44306">
        <ele>788</ele>
        <time>2017-09-24T09:48:20.000Z</time>
      </trkpt>
      <trkpt lat="43.37899" lon="2.44305">
        <ele>788</ele>
        <time>2017-09-24T09:48:21.000Z</time>
      </trkpt>
      <trkpt lat="43.37898" lon="2.44304">
        <ele>788</ele>
        <time>2017-09-24T09:48:22.000Z</time>
      </trkpt>
      <trkpt lat="43.37898" lon="2.44303">
        <ele>788</ele>
        <time>2017-09-24T09:48:23.000Z</time>
      </trkpt>
      <trkpt lat="43.37898" lon="2.44303">
        <ele>789</ele>
        <time>2017-09-24T09:48:24.000Z</time>
      </trkpt>
      <trkpt lat="43.37898" lon="2.44302">
        <ele>789</ele>
        <time>2017-09-24T09:48:25.000Z</time>
      </trkpt>
      <trkpt lat="43.37899" lon="2.44301">
        <ele>789</ele>
        <time>2017-09-24T09:48:26.000Z</time>
      </trkpt>
      <trkpt lat="43.37899" lon="2.44301">
        <ele>789</ele>
        <time>2017-09-24T09:48:27.000Z</time>
      </trkpt>
      <trkpt lat="43.379" lon="2.44301">
        <ele>789</ele>
        <time>2017-09-24T09:48:28.000Z</time>
      </trkpt>
      <trkpt lat="43.379" lon="2.44301">
        <ele>789</ele>
        <time>2017-09-24T09:48:29.000Z</time>
      </trkpt>
      <trkpt lat="43.37901" lon="2.44301">
        <ele>789</ele>
        <time>2017-09-24T09:48:30.000Z</time>
      </trkpt>
      <trkpt lat="43.37901" lon="2.44301">
        <ele>789</ele>
        <time>2017-09-24T09:48:31.000Z</time>
      </trkpt>
      <trkpt lat="43.37902" lon="2.44301">
        <ele>789</ele>
        <time>2017-09-24T09:48:32.000Z</time>
      </trkpt>
      <trkpt lat="43.37881" lon="2.44279">
        <ele>792</ele>
        <time>2017-09-24T09:49:32.000Z</time>
      </trkpt>
      <trkpt lat="43.37881" lon="2.44277">
        <ele>792</ele>
        <time>2017-09-24T09:49:33.000Z</time>
      </trkpt>
      <trkpt lat="43.3788" lon="2.44276">
        <ele>792</ele>
        <time>2017-09-24T09:49:34.000Z</time>
      </trkpt>
      <trkpt lat="43.37879" lon="2.44275">
        <ele>792</ele>
        <time>2017-09-24T09:49:35.000Z</time>
      </trkpt>
      <trkpt lat="43.37879" lon="2.44274">
        <ele>792</ele>
        <time>2017-09-24T09:49:36.000Z</time>
      </trkpt>
      <trkpt lat="43.37878" lon="2.44274">
        <ele>792</ele>
        <time>2017-09-24T09:49:37.000Z</time>
      </trkpt>
      <trkpt lat="43.37877" lon="2.44273">
        <ele>792</ele>
        <time>2017-09-24T09:49:38.000Z</time>
      </trkpt>
      <trkpt lat="43.37876" lon="2.44272">
        <ele>792</ele>
        <time>2017-09-24T09:49:39.000Z</time>
      </trkpt>
      <trkpt lat="43.37876" lon="2.44271">
        <ele>792</ele>
        <time>2017-09-24T09:49:40.000Z</time>
      </trkpt>
      <trkpt lat="43.37875" lon="2.4427">
        <ele>792</ele>
        <time>2017-09-24T09:49:41.000Z</time>
      </trkpt>
      <trkpt lat="43.37875" lon="2.4427">
        <ele>792</ele>
        <time>2017-09-24T09:49:42.000Z</time>
      </trkpt>
      <trkpt lat="43.37874" lon="2.44269">
        <ele>792</ele>
        <time>2017-09-24T09:49:43.000Z</time>
      </trkpt>
      <trkpt lat="43.37873" lon="2.44269">
        <ele>793</ele>
        <time>2017-09-24T09:49:44.000Z</time>
      </trkpt>
      <trkpt lat="43.37873" lon="2.44268">
        <ele>793</ele>
        <time>2017-09-24T09:49:45.000Z</time>
      </trkpt>
      <trkpt lat="43.37872" lon="2.44268">
        <ele>793</ele>
        <time>2017-09-24T09:49:46.000Z</time>
      </trkpt>
      <trkpt lat="43.37872" lon="2.44268">
        <ele>793</ele>
        <time>2017-09-24T09:49:47.000Z</time>
      </trkpt>
      <trkpt lat="43.37871" lon="2.44267">
        <ele>793</ele>
        <time>2017-09-24T09:49:48.000Z</time>
      </trkpt>
      <trkpt lat="43.3787" lon="2.44266">
        <ele>793</ele>
        <time>2017-09-24T09:49:49.000Z</time>
      </trkpt>
      <trkpt lat="43.37869" lon="2.44266">
        <ele>793</ele>
        <time>2017-09-24T09:49:50.000Z</time>
      </trkpt>
      <trkpt lat="43.37868" lon="2.44265">
        <ele>793</ele>
        <time>2017-09-24T09:49:51.000Z</time>
      </trkpt>
      <trkpt lat="43.37867" lon="2.44264">
        <ele>794</ele>
        <time>2017-09-24T09:49:52.000Z</time>
      </trkpt>
      <trkpt lat="43.37867" lon="2.44263">
        <ele>794</ele>
        <time>2017-09-24T09:49:53.000Z</time>
      </trkpt>
      <trkpt lat="43.37866" lon="2.44263">
        <ele>794</ele>
        <time>2017-09-24T09:49:54.000Z</time>
      </trkpt>
      <trkpt lat="43.37865" lon="2.44263">
        <ele>794</ele>
        <time>2017-09-24T09:49:55.000Z</time>
      </trkpt>
      <trkpt lat="43.37864" lon="2.44263">
        <ele>794</ele>
        <time>2017-09-24T09:49:56.000Z</time>
      </trkpt>
      <trkpt lat="43.37863" lon="2.44263">
        <ele>795</ele>
        <time>2017-09-24T09:49:57.000Z</time>
      </trkpt>
      <trkpt lat="43.37863" lon="2.44264">
        <ele>795</ele>
        <time>2017-09-24T09:49:58.000Z</time>
      </trkpt>
      <trkpt lat="43.37862" lon="2.44264">
        <ele>795</ele>
        <time>2017-09-24T09:49:59.000Z</time>
      </trkpt>
      <trkpt lat="43.37861" lon="2.44264">
        <ele>794</ele>
        <time>2017-09-24T09:50:00.000Z</time>
      </trkpt>
      <trkpt lat="43.3786" lon="2.44264">
        <ele>794</ele>
        <time>2017-09-24T09:50:01.000Z</time>
      </trkpt>
      <trkpt lat="43.37859" lon="2.44264">
        <ele>794</ele>
        <time>2017-09-24T09:50:02.000Z</time>
      </trkpt>
      <trkpt lat="43.37859" lon="2.44263">
        <ele>794</ele>
        <time>2017-09-24T09:50:03.000Z</time>
      </trkpt>
      <trkpt lat="43.37858" lon="2.44263">
        <ele>794</ele>
        <time>2017-09-24T09:50:04.000Z</time>
      </trkpt>
      <trkpt lat="43.37858" lon="2.44262">
        <ele>794</ele>
        <time>2017-09-24T09:50:05.000Z</time>
      </trkpt>
      <trkpt lat="43.37857" lon="2.44262">
        <ele>795</ele>
        <time>2017-09-24T09:50:06.000Z</time>
      </trkpt>
      <trkpt lat="43.37856" lon="2.44262">
        <ele>795</ele>
        <time>2017-09-24T09:50:07.000Z</time>
      </trkpt>
      <trkpt lat="43.37855" lon="2.44261">
        <ele>795</ele>
        <time>2017-09-24T09:50:08.000Z</time>
      </trkpt>
      <trkpt lat="43.37855" lon="2.4426">
        <ele>795</ele>
        <time>2017-09-24T09:50:09.000Z</time>
      </trkpt>
      <trkpt lat="43.37854" lon="2.4426">
        <ele>795</ele>
        <time>2017-09-24T09:50:10.000Z</time>
      </trkpt>
      <trkpt lat="43.37854" lon="2.44259">
        <ele>795</ele>
        <time>2017-09-24T09:50:11.000Z</time>
      </trkpt>
      <trkpt lat="43.37853" lon="2.44259">
        <ele>795</ele>
        <time>2017-09-24T09:50:12.000Z</time>
      </trkpt>
      <trkpt lat="43.37852" lon="2.44258">
        <ele>795</ele>
        <time>2017-09-24T09:50:13.000Z</time>
      </trkpt>
      <trkpt lat="43.37851" lon="2.44258">
        <ele>795</ele>
        <time>2017-09-24T09:50:14.000Z</time>
      </trkpt>
      <trkpt lat="43.3785" lon="2.44258">
        <ele>795</ele>
        <time>2017-09-24T09:50:15.000Z</time>
      </trkpt>
      <trkpt lat="43.37849" lon="2.44257">
        <ele>795</ele>
        <time>2017-09-24T09:50:16.000Z</time>
      </trkpt>
      <trkpt lat="43.37849" lon="2.44257">
        <ele>795</ele>
        <time>2017-09-24T09:50:17.000Z</time>
      </trkpt>
      <trkpt lat="43.37848" lon="2.44256">
        <ele>795</ele>
        <time>2017-09-24T09:50:18.000Z</time>
      </trkpt>
      <trkpt lat="43.37848" lon="2.44256">
        <ele>795</ele>
        <time>2017-09-24T09:50:19.000Z</time>
      </trkpt>
      <trkpt lat="43.37847" lon="2.44256">
        <ele>795</ele>
        <time>2017-09-24T09:50:20.000Z</time>
      </trkpt>
      <trkpt lat="43.37846" lon="2.44255">
        <ele>795</ele>
        <time>2017-09-24T09:50:21.000Z</time>
      </trkpt>
      <trkpt lat="43.37845" lon="2.44255">
        <ele>795</ele>
        <time>2017-09-24T09:50:22.000Z</time>
      </trkpt>
      <trkpt lat="43.37845" lon="2.44255">
        <ele>795</ele>
        <time>2017-09-24T09:50:23.000Z</time>
      </trkpt>
      <trkpt lat="43.37845" lon="2.44255">
        <ele>795</ele>
        <time>2017-09-24T09:50:24.000Z</time>
      </trkpt>
      <trkpt lat="43.37828" lon="2.44227">
        <ele>800</ele>
        <time>2017-09-24T09:55:16.000Z</time>
      </trkpt>
      <trkpt lat="43.37829" lon="2.44226">
        <ele>800</ele>
        <time>2017-09-24T09:55:17.000Z</time>
      </trkpt>
      <trkpt lat="43.37829" lon="2.44225">
        <ele>800</ele>
        <time>2017-09-24T09:55:18.000Z</time>
      </trkpt>
      <trkpt lat="43.37829" lon="2.44225">
        <ele>800</ele>
        <time>2017-09-24T09:55:19.000Z</time>
      </trkpt>
      <trkpt lat="43.37826" lon="2.44225">
        <ele>801</ele>
        <time>2017-09-24T09:56:20.000Z</time>
      </trkpt>
      <trkpt lat="43.37825" lon="2.44224">
        <ele>801</ele>
        <time>2017-09-24T09:56:21.000Z</time>
      </trkpt>
      <trkpt lat="43.37824" lon="2.44224">
        <ele>801</ele>
        <time>2017-09-24T09:56:22.000Z</time>
      </trkpt>
      <trkpt lat="43.37824" lon="2.44224">
        <ele>801</ele>
        <time>2017-09-24T09:56:23.000Z</time>
      </trkpt>
      <trkpt lat="43.37823" lon="2.44224">
        <ele>801</ele>
        <time>2017-09-24T09:56:24.000Z</time>
      </trkpt>
      <trkpt lat="43.37822" lon="2.44224">
        <ele>801</ele>
        <time>2017-09-24T09:56:25.000Z</time>
      </trkpt>
      <trkpt lat="43.37822" lon="2.44224">
        <ele>801</ele>
        <time>2017-09-24T09:56:26.000Z</time>
      </trkpt>
      <trkpt lat="43.37821" lon="2.44224">
        <ele>801</ele>
        <time>2017-09-24T09:56:27.000Z</time>
      </trkpt>
      <trkpt lat="43.3782" lon="2.44224">
        <ele>801</ele>
        <time>2017-09-24T09:56:28.000Z</time>
      </trkpt>
      <trkpt lat="43.37819" lon="2.44224">
        <ele>801</ele>
        <time>2017-09-24T09:56:29.000Z</time>
      </trkpt>
      <trkpt lat="43.37819" lon="2.44224">
        <ele>801</ele>
        <time>2017-09-24T09:56:30.000Z</time>
      </trkpt>
      <trkpt lat="43.37818" lon="2.44224">
        <ele>801</ele>
        <time>2017-09-24T09:56:31.000Z</time>
      </trkpt>
      <trkpt lat="43.37817" lon="2.44223">
        <ele>801</ele>
        <time>2017-09-24T09:56:32.000Z</time>
      </trkpt>
      <trkpt lat="43.37816" lon="2.44223">
        <ele>801</ele>
        <time>2017-09-24T09:56:33.000Z</time>
      </trkpt>
      <trkpt lat="43.37816" lon="2.44222">
        <ele>801</ele>
        <time>2017-09-24T09:56:34.000Z</time>
      </trkpt>
      <trkpt lat="43.37815" lon="2.44221">
        <ele>801</ele>
        <time>2017-09-24T09:56:35.000Z</time>
      </trkpt>
      <trkpt lat="43.37814" lon="2.4422">
        <ele>802</ele>
        <time>2017-09-24T09:56:36.000Z</time>
      </trkpt>
      <trkpt lat="43.37813" lon="2.44219">
        <ele>802</ele>
        <time>2017-09-24T09:56:37.000Z</time>
      </trkpt>
      <trkpt lat="43.37812" lon="2.44218">
        <ele>802</ele>
        <time>2017-09-24T09:56:38.000Z</time>
      </trkpt>
      <trkpt lat="43.37811" lon="2.44217">
        <ele>802</ele>
        <time>2017-09-24T09:56:39.000Z</time>
      </trkpt>
      <trkpt lat="43.3781" lon="2.44217">
        <ele>802</ele>
        <time>2017-09-24T09:56:40.000Z</time>
      </trkpt>
      <trkpt lat="43.3781" lon="2.44216">
        <ele>802</ele>
        <time>2017-09-24T09:56:41.000Z</time>
      </trkpt>
      <trkpt lat="43.37809" lon="2.44215">
        <ele>802</ele>
        <time>2017-09-24T09:56:42.000Z</time>
      </trkpt>
      <trkpt lat="43.37808" lon="2.44215">
        <ele>802</ele>
        <time>2017-09-24T09:56:43.000Z</time>
      </trkpt>
      <trkpt lat="43.37807" lon="2.44214">
        <ele>802</ele>
        <time>2017-09-24T09:56:44.000Z</time>
      </trkpt>
      <trkpt lat="43.37805" lon="2.44214">
        <ele>802</ele>
        <time>2017-09-24T09:56:45.000Z</time>
      </trkpt>
      <trkpt lat="43.37804" lon="2.44213">
        <ele>802</ele>
        <time>2017-09-24T09:56:46.000Z</time>
      </trkpt>
      <trkpt lat="43.37804" lon="2.44213">
        <ele>802</ele>
        <time>2017-09-24T09:56:47.000Z</time>
      </trkpt>
      <trkpt lat="43.37803" lon="2.44212">
        <ele>802</ele>
        <time>2017-09-24T09:56:48.000Z</time>
      </trkpt>
      <trkpt lat="43.37802" lon="2.44212">
        <ele>802</ele>
        <time>2017-09-24T09:56:49.000Z</time>
      </trkpt>
      <trkpt lat="43.37801" lon="2.44212">
        <ele>802</ele>
        <time>2017-09-24T09:56:50.000Z</time>
      </trkpt>
      <trkpt lat="43.378" lon="2.44211">
        <ele>802</ele>
        <time>2017-09-24T09:56:51.000Z</time>
      </trkpt>
      <trkpt lat="43.37799" lon="2.44211">
        <ele>802</ele>
        <time>2017-09-24T09:56:52.000Z</time>
      </trkpt>
      <trkpt lat="43.37798" lon="2.4421">
        <ele>803</ele>
        <time>2017-09-24T09:56:53.000Z</time>
      </trkpt>
      <trkpt lat="43.37797" lon="2.44209">
        <ele>803</ele>
        <time>2017-09-24T09:56:54.000Z</time>
      </trkpt>
      <trkpt lat="43.37796" lon="2.44209">
        <ele>803</ele>
        <time>2017-09-24T09:56:55.000Z</time>
      </trkpt>
      <trkpt lat="43.37795" lon="2.44208">
        <ele>803</ele>
        <time>2017-09-24T09:56:56.000Z</time>
      </trkpt>
      <trkpt lat="43.37794" lon="2.44207">
        <ele>803</ele>
        <time>2017-09-24T09:56:57.000Z</time>
      </trkpt>
      <trkpt lat="43.37794" lon="2.44206">
        <ele>803</ele>
        <time>2017-09-24T09:56:58.000Z</time>
      </trkpt>
      <trkpt lat="43.37793" lon="2.44205">
        <ele>803</ele>
        <time>2017-09-24T09:56:59.000Z</time>
      </trkpt>
      <trkpt lat="43.37792" lon="2.44205">
        <ele>804</ele>
        <time>2017-09-24T09:57:00.000Z</time>
      </trkpt>
      <trkpt lat="43.37791" lon="2.44204">
        <ele>804</ele>
        <time>2017-09-24T09:57:01.000Z</time>
      </trkpt>
      <trkpt lat="43.3779" lon="2.44203">
        <ele>804</ele>
        <time>2017-09-24T09:57:02.000Z</time>
      </trkpt>
      <trkpt lat="43.37789" lon="2.44202">
        <ele>804</ele>
        <time>2017-09-24T09:57:03.000Z</time>
      </trkpt>
      <trkpt lat="43.37789" lon="2.44201">
        <ele>804</ele>
        <time>2017-09-24T09:57:04.000Z</time>
      </trkpt>
      <trkpt lat="43.37788" lon="2.442">
        <ele>804</ele>
        <time>2017-09-24T09:57:05.000Z</time>
      </trkpt>
      <trkpt lat="43.37787" lon="2.44199">
        <ele>804</ele>
        <time>2017-09-24T09:57:06.000Z</time>
      </trkpt>
      <trkpt lat="43.37786" lon="2.44198">
        <ele>805</ele>
        <time>2017-09-24T09:57:07.000Z</time>
      </trkpt>
      <trkpt lat="43.37786" lon="2.44197">
        <ele>805</ele>
        <time>2017-09-24T09:57:08.000Z</time>
      </trkpt>
      <trkpt lat="43.37785" lon="2.44196">
        <ele>805</ele>
        <time>2017-09-24T09:57:09.000Z</time>
      </trkpt>
      <trkpt lat="43.37784" lon="2.44195">
        <ele>805</ele>
        <time>2017-09-24T09:57:10.000Z</time>
      </trkpt>
      <trkpt lat="43.37783" lon="2.44194">
        <ele>805</ele>
        <time>2017-09-24T09:57:11.000Z</time>
      </trkpt>
      <trkpt lat="43.37782" lon="2.44193">
        <ele>806</ele>
        <time>2017-09-24T09:57:12.000Z</time>
      </trkpt>
      <trkpt lat="43.37782" lon="2.44193">
        <ele>806</ele>
        <time>2017-09-24T09:57:13.000Z</time>
      </trkpt>
      <trkpt lat="43.37781" lon="2.44192">
        <ele>806</ele>
        <time>2017-09-24T09:57:14.000Z</time>
      </trkpt>
      <trkpt lat="43.3778" lon="2.4419">
        <ele>806</ele>
        <time>2017-09-24T09:57:15.000Z</time>
      </trkpt>
      <trkpt lat="43.37779" lon="2.44189">
        <ele>806</ele>
        <time>2017-09-24T09:57:16.000Z</time>
      </trkpt>
      <trkpt lat="43.37779" lon="2.44188">
        <ele>806</ele>
        <time>2017-09-24T09:57:17.000Z</time>
      </trkpt>
      <trkpt lat="43.37778" lon="2.44188">
        <ele>807</ele>
        <time>2017-09-24T09:57:18.000Z</time>
      </trkpt>
      <trkpt lat="43.37777" lon="2.44187">
        <ele>807</ele>
        <time>2017-09-24T09:57:19.000Z</time>
      </trkpt>
      <trkpt lat="43.37777" lon="2.44186">
        <ele>807</ele>
        <time>2017-09-24T09:57:20.000Z</time>
      </trkpt>
      <trkpt lat="43.37776" lon="2.44186">
        <ele>807</ele>
        <time>2017-09-24T09:57:21.000Z</time>
      </trkpt>
      <trkpt lat="43.37775" lon="2.44185">
        <ele>807</ele>
        <time>2017-09-24T09:57:22.000Z</time>
      </trkpt>
      <trkpt lat="43.37775" lon="2.44184">
        <ele>807</ele>
        <time>2017-09-24T09:57:23.000Z</time>
      </trkpt>
      <trkpt lat="43.37774" lon="2.44184">
        <ele>807</ele>
        <time>2017-09-24T09:57:24.000Z</time>
      </trkpt>
      <trkpt lat="43.37774" lon="2.44183">
        <ele>807</ele>
        <time>2017-09-24T09:57:25.000Z</time>
      </trkpt>
      <trkpt lat="43.37773" lon="2.44182">
        <ele>808</ele>
        <time>2017-09-24T09:57:26.000Z</time>
      </trkpt>
      <trkpt lat="43.37772" lon="2.44182">
        <ele>808</ele>
        <time>2017-09-24T09:57:27.000Z</time>
      </trkpt>
      <trkpt lat="43.37772" lon="2.44181">
        <ele>808</ele>
        <time>2017-09-24T09:57:28.000Z</time>
      </trkpt>
      <trkpt lat="43.37771" lon="2.44181">
        <ele>808</ele>
        <time>2017-09-24T09:57:29.000Z</time>
      </trkpt>
      <trkpt lat="43.37771" lon="2.4418">
        <ele>808</ele>
        <time>2017-09-24T09:57:30.000Z</time>
      </trkpt>
      <trkpt lat="43.3777" lon="2.44179">
        <ele>808</ele>
        <time>2017-09-24T09:57:31.000Z</time>
      </trkpt>
      <trkpt lat="43.3777" lon="2.44179">
        <ele>808</ele>
        <time>2017-09-24T09:57:32.000Z</time>
      </trkpt>
      <trkpt lat="43.37769" lon="2.44179">
        <ele>808</ele>
        <time>2017-09-24T09:57:33.000Z</time>
      </trkpt>
      <trkpt lat="43.37768" lon="2.44177">
        <ele>808</ele>
        <time>2017-09-24T09:57:34.000Z</time>
      </trkpt>
      <trkpt lat="43.37768" lon="2.44177">
        <ele>809</ele>
        <time>2017-09-24T09:57:35.000Z</time>
      </trkpt>
      <trkpt lat="43.37767" lon="2.44176">
        <ele>809</ele>
        <time>2017-09-24T09:57:36.000Z</time>
      </trkpt>
      <trkpt lat="43.37767" lon="2.44176">
        <ele>809</ele>
        <time>2017-09-24T09:57:37.000Z</time>
      </trkpt>
      <trkpt lat="43.37766" lon="2.44175">
        <ele>809</ele>
        <time>2017-09-24T09:57:38.000Z</time>
      </trkpt>
      <trkpt lat="43.37766" lon="2.44175">
        <ele>809</ele>
        <time>2017-09-24T09:57:39.000Z</time>
      </trkpt>
      <trkpt lat="43.37765" lon="2.44174">
        <ele>809</ele>
        <time>2017-09-24T09:57:40.000Z</time>
      </trkpt>
      <trkpt lat="43.37765" lon="2.44174">
        <ele>809</ele>
        <time>2017-09-24T09:57:41.000Z</time>
      </trkpt>
      <trkpt lat="43.37765" lon="2.44173">
        <ele>809</ele>
        <time>2017-09-24T09:57:42.000Z</time>
      </trkpt>
      <trkpt lat="43.37764" lon="2.44172">
        <ele>809</ele>
        <time>2017-09-24T09:57:43.000Z</time>
      </trkpt>
      <trkpt lat="43.37763" lon="2.44172">
        <ele>810</ele>
        <time>2017-09-24T09:57:44.000Z</time>
      </trkpt>
      <trkpt lat="43.37763" lon="2.44171">
        <ele>810</ele>
        <time>2017-09-24T09:57:45.000Z</time>
      </trkpt>
      <trkpt lat="43.37762" lon="2.44171">
        <ele>810</ele>
        <time>2017-09-24T09:57:46.000Z</time>
      </trkpt>
      <trkpt lat="43.37761" lon="2.4417">
        <ele>810</ele>
        <time>2017-09-24T09:57:47.000Z</time>
      </trkpt>
      <trkpt lat="43.37761" lon="2.44169">
        <ele>810</ele>
        <time>2017-09-24T09:57:48.000Z</time>
      </trkpt>
      <trkpt lat="43.3776" lon="2.44169">
        <ele>811</ele>
        <time>2017-09-24T09:57:49.000Z</time>
      </trkpt>
      <trkpt lat="43.3776" lon="2.44168">
        <ele>811</ele>
        <time>2017-09-24T09:57:50.000Z</time>
      </trkpt>
      <trkpt lat="43.3776" lon="2.44168">
        <ele>811</ele>
        <time>2017-09-24T09:57:51.000Z</time>
      </trkpt>
      <trkpt lat="43.37759" lon="2.44167">
        <ele>811</ele>
        <time>2017-09-24T09:57:52.000Z</time>
      </trkpt>
      <trkpt lat="43.37759" lon="2.44167">
        <ele>811</ele>
        <time>2017-09-24T09:57:53.000Z</time>
      </trkpt>
      <trkpt lat="43.37758" lon="2.44167">
        <ele>811</ele>
        <time>2017-09-24T09:57:54.000Z</time>
      </trkpt>
      <trkpt lat="43.37757" lon="2.44167">
        <ele>812</ele>
        <time>2017-09-24T09:57:55.000Z</time>
      </trkpt>
      <trkpt lat="43.37756" lon="2.44166">
        <ele>812</ele>
        <time>2017-09-24T09:57:56.000Z</time>
      </trkpt>
      <trkpt lat="43.37755" lon="2.44166">
        <ele>812</ele>
        <time>2017-09-24T09:57:57.000Z</time>
      </trkpt>
      <trkpt lat="43.37755" lon="2.44165">
        <ele>812</ele>
        <time>2017-09-24T09:57:58.000Z</time>
      </trkpt>
      <trkpt lat="43.37754" lon="2.44164">
        <ele>813</ele>
        <time>2017-09-24T09:57:59.000Z</time>
      </trkpt>
      <trkpt lat="43.37754" lon="2.44163">
        <ele>813</ele>
        <time>2017-09-24T09:58:00.000Z</time>
      </trkpt>
      <trkpt lat="43.37754" lon="2.44162">
        <ele>813</ele>
        <time>2017-09-24T09:58:01.000Z</time>
      </trkpt>
      <trkpt lat="43.37753" lon="2.44161">
        <ele>813</ele>
        <time>2017-09-24T09:58:02.000Z</time>
      </trkpt>
      <trkpt lat="43.37753" lon="2.44159">
        <ele>814</ele>
        <time>2017-09-24T09:58:03.000Z</time>
      </trkpt>
      <trkpt lat="43.37753" lon="2.44158">
        <ele>814</ele>
        <time>2017-09-24T09:58:04.000Z</time>
      </trkpt>
      <trkpt lat="43.37753" lon="2.44157">
        <ele>814</ele>
        <time>2017-09-24T09:58:05.000Z</time>
      </trkpt>
      <trkpt lat="43.37753" lon="2.44156">
        <ele>814</ele>
        <time>2017-09-24T09:58:06.000Z</time>
      </trkpt>
      <trkpt lat="43.37752" lon="2.44155">
        <ele>815</ele>
        <time>2017-09-24T09:58:07.000Z</time>
      </trkpt>
      <trkpt lat="43.37752" lon="2.44153">
        <ele>815</ele>
        <time>2017-09-24T09:58:08.000Z</time>
      </trkpt>
      <trkpt lat="43.37752" lon="2.44153">
        <ele>815</ele>
        <time>2017-09-24T09:58:09.000Z</time>
      </trkpt>
      <trkpt lat="43.37752" lon="2.44152">
        <ele>815</ele>
        <time>2017-09-24T09:58:10.000Z</time>
      </trkpt>
      <trkpt lat="43.37752" lon="2.44151">
        <ele>815</ele>
        <time>2017-09-24T09:58:11.000Z</time>
      </trkpt>
      <trkpt lat="43.37752" lon="2.4415">
        <ele>815</ele>
        <time>2017-09-24T09:58:12.000Z</time>
      </trkpt>
      <trkpt lat="43.37752" lon="2.4415">
        <ele>815</ele>
        <time>2017-09-24T09:58:13.000Z</time>
      </trkpt>
      <trkpt lat="43.37751" lon="2.44151">
        <ele>815</ele>
        <time>2017-09-24T09:58:14.000Z</time>
      </trkpt>
      <trkpt lat="43.37751" lon="2.44151">
        <ele>816</ele>
        <time>2017-09-24T09:58:15.000Z</time>
      </trkpt>
      <trkpt lat="43.3775" lon="2.44151">
        <ele>816</ele>
        <time>2017-09-24T09:58:16.000Z</time>
      </trkpt>
      <trkpt lat="43.37749" lon="2.44151">
        <ele>816</ele>
        <time>2017-09-24T09:58:17.000Z</time>
      </trkpt>
      <trkpt lat="43.37749" lon="2.44151">
        <ele>816</ele>
        <time>2017-09-24T09:58:18.000Z</time>
      </trkpt>
      <trkpt lat="43.37748" lon="2.44151">
        <ele>816</ele>
        <time>2017-09-24T09:58:19.000Z</time>
      </trkpt>
      <trkpt lat="43.37747" lon="2.44151">
        <ele>816</ele>
        <time>2017-09-24T09:58:20.000Z</time>
      </trkpt>
      <trkpt lat="43.37746" lon="2.44151">
        <ele>816</ele>
        <time>2017-09-24T09:58:21.000Z</time>
      </trkpt>
      <trkpt lat="43.37746" lon="2.44151">
        <ele>816</ele>
        <time>2017-09-24T09:58:22.000Z</time>
      </trkpt>
      <trkpt lat="43.37745" lon="2.4415">
        <ele>816</ele>
        <time>2017-09-24T09:58:23.000Z</time>
      </trkpt>
      <trkpt lat="43.37745" lon="2.4415">
        <ele>816</ele>
        <time>2017-09-24T09:58:24.000Z</time>
      </trkpt>
      <trkpt lat="43.37744" lon="2.4415">
        <ele>817</ele>
        <time>2017-09-24T09:58:25.000Z</time>
      </trkpt>
      <trkpt lat="43.37744" lon="2.4415">
        <ele>817</ele>
        <time>2017-09-24T09:58:26.000Z</time>
      </trkpt>
      <trkpt lat="43.37743" lon="2.44149">
        <ele>817</ele>
        <time>2017-09-24T09:58:27.000Z</time>
      </trkpt>
      <trkpt lat="43.37743" lon="2.44149">
        <ele>817</ele>
        <time>2017-09-24T09:58:28.000Z</time>
      </trkpt>
      <trkpt lat="43.37742" lon="2.44148">
        <ele>817</ele>
        <time>2017-09-24T09:58:29.000Z</time>
      </trkpt>
      <trkpt lat="43.37742" lon="2.44148">
        <ele>817</ele>
        <time>2017-09-24T09:58:30.000Z</time>
      </trkpt>
      <trkpt lat="43.37702" lon="2.44116">
        <ele>828</ele>
        <time>2017-09-24T10:26:48.000Z</time>
      </trkpt>
      <trkpt lat="43.37701" lon="2.44117">
        <ele>828</ele>
        <time>2017-09-24T10:26:49.000Z</time>
      </trkpt>
      <trkpt lat="43.377" lon="2.44117">
        <ele>828</ele>
        <time>2017-09-24T10:26:50.000Z</time>
      </trkpt>
      <trkpt lat="43.377" lon="2.44118">
        <ele>828</ele>
        <time>2017-09-24T10:26:51.000Z</time>
      </trkpt>
      <trkpt lat="43.37699" lon="2.44118">
        <ele>828</ele>
        <time>2017-09-24T10:26:52.000Z</time>
      </trkpt>
      <trkpt lat="43.37698" lon="2.44119">
        <ele>828</ele>
        <time>2017-09-24T10:26:53.000Z</time>
      </trkpt>
      <trkpt lat="43.37698" lon="2.4412">
        <ele>828</ele>
        <time>2017-09-24T10:26:54.000Z</time>
      </trkpt>
      <trkpt lat="43.37697" lon="2.4412">
        <ele>828</ele>
        <time>2017-09-24T10:26:55.000Z</time>
      </trkpt>
      <trkpt lat="43.37697" lon="2.4412">
        <ele>828</ele>
        <time>2017-09-24T10:26:56.000Z</time>
      </trkpt>
      <trkpt lat="43.37697" lon="2.44119">
        <ele>828</ele>
        <time>2017-09-24T10:26:57.000Z</time>
      </trkpt>
      <trkpt lat="43.37697" lon="2.44118">
        <ele>828</ele>
        <time>2017-09-24T10:26:58.000Z</time>
      </trkpt>
      <trkpt lat="43.37697" lon="2.44118">
        <ele>828</ele>
        <time>2017-09-24T10:26:59.000Z</time>
      </trkpt>
      <trkpt lat="43.37697" lon="2.44117">
        <ele>829</ele>
        <time>2017-09-24T10:27:00.000Z</time>
      </trkpt>
      <trkpt lat="43.37697" lon="2.44116">
        <ele>829</ele>
        <time>2017-09-24T10:27:01.000Z</time>
      </trkpt>
      <trkpt lat="43.37698" lon="2.44115">
        <ele>829</ele>
        <time>2017-09-24T10:27:02.000Z</time>
      </trkpt>
      <trkpt lat="43.37699" lon="2.44114">
        <ele>829</ele>
        <time>2017-09-24T10:27:03.000Z</time>
      </trkpt>
      <trkpt lat="43.377" lon="2.44114">
        <ele>829</ele>
        <time>2017-09-24T10:27:04.000Z</time>
      </trkpt>
      <trkpt lat="43.37702" lon="2.44112">
        <ele>829</ele>
        <time>2017-09-24T10:27:05.000Z</time>
      </trkpt>
      <trkpt lat="43.37701" lon="2.44112">
        <ele>829</ele>
        <time>2017-09-24T10:27:06.000Z</time>
      </trkpt>
      <trkpt lat="43.37701" lon="2.44112">
        <ele>829</ele>
        <time>2017-09-24T10:27:07.000Z</time>
      </trkpt>
      <trkpt lat="43.37702" lon="2.44112">
        <ele>829</ele>
        <time>2017-09-24T10:27:08.000Z</time>
      </trkpt>
      <trkpt lat="43.37702" lon="2.44111">
        <ele>829</ele>
        <time>2017-09-24T10:27:09.000Z</time>
      </trkpt>
      <trkpt lat="43.37702" lon="2.44111">
        <ele>830</ele>
        <time>2017-09-24T10:27:10.000Z</time>
      </trkpt>
      <trkpt lat="43.37702" lon="2.44111">
        <ele>830</ele>
        <time>2017-09-24T10:27:11.000Z</time>
      </trkpt>
      <trkpt lat="43.37693" lon="2.44108">
        <ele>831</ele>
        <time>2017-09-24T10:57:13.000Z</time>
      </trkpt>
      <trkpt lat="43.37692" lon="2.44107">
        <ele>831</ele>
        <time>2017-09-24T10:57:14.000Z</time>
      </trkpt>
      <trkpt lat="43.37692" lon="2.44106">
        <ele>832</ele>
        <time>2017-09-24T10:57:15.000Z</time>
      </trkpt>
      <trkpt lat="43.37691" lon="2.44105">
        <ele>832</ele>
        <time>2017-09-24T10:57:16.000Z</time>
      </trkpt>
      <trkpt lat="43.37691" lon="2.44104">
        <ele>832</ele>
        <time>2017-09-24T10:57:17.000Z</time>
      </trkpt>
      <trkpt lat="43.37691" lon="2.44103">
        <ele>832</ele>
        <time>2017-09-24T10:57:18.000Z</time>
      </trkpt>
      <trkpt lat="43.3769" lon="2.44102">
        <ele>833</ele>
        <time>2017-09-24T10:57:19.000Z</time>
      </trkpt>
      <trkpt lat="43.37689" lon="2.44101">
        <ele>833</ele>
        <time>2017-09-24T10:57:20.000Z</time>
      </trkpt>
      <trkpt lat="43.37689" lon="2.441">
        <ele>833</ele>
        <time>2017-09-24T10:57:21.000Z</time>
      </trkpt>
      <trkpt lat="43.37688" lon="2.44099">
        <ele>834</ele>
        <time>2017-09-24T10:57:22.000Z</time>
      </trkpt>
      <trkpt lat="43.37688" lon="2.44098">
        <ele>834</ele>
        <time>2017-09-24T10:57:23.000Z</time>
      </trkpt>
      <trkpt lat="43.37687" lon="2.44097">
        <ele>834</ele>
        <time>2017-09-24T10:57:24.000Z</time>
      </trkpt>
      <trkpt lat="43.37687" lon="2.44096">
        <ele>834</ele>
        <time>2017-09-24T10:57:25.000Z</time>
      </trkpt>
      <trkpt lat="43.37686" lon="2.44095">
        <ele>835</ele>
        <time>2017-09-24T10:57:26.000Z</time>
      </trkpt>
      <trkpt lat="43.37686" lon="2.44094">
        <ele>835</ele>
        <time>2017-09-24T10:57:27.000Z</time>
      </trkpt>
      <trkpt lat="43.37685" lon="2.44093">
        <ele>835</ele>
        <time>2017-09-24T10:57:28.000Z</time>
      </trkpt>
      <trkpt lat="43.37685" lon="2.44092">
        <ele>835</ele>
        <time>2017-09-24T10:57:29.000Z</time>
      </trkpt>
      <trkpt lat="43.37684" lon="2.44091">
        <ele>836</ele>
        <time>2017-09-24T10:57:30.000Z</time>
      </trkpt>
      <trkpt lat="43.37684" lon="2.44091">
        <ele>836</ele>
        <time>2017-09-24T10:57:31.000Z</time>
      </trkpt>
      <trkpt lat="43.37683" lon="2.4409">
        <ele>836</ele>
        <time>2017-09-24T10:57:32.000Z</time>
      </trkpt>
      <trkpt lat="43.37683" lon="2.44089">
        <ele>836</ele>
        <time>2017-09-24T10:57:33.000Z</time>
      </trkpt>
      <trkpt lat="43.37682" lon="2.44088">
        <ele>837</ele>
        <time>2017-09-24T10:57:34.000Z</time>
      </trkpt>
      <trkpt lat="43.37682" lon="2.44086">
        <ele>837</ele>
        <time>2017-09-24T10:57:35.000Z</time>
      </trkpt>
      <trkpt lat="43.37681" lon="2.44085">
        <ele>837</ele>
        <time>2017-09-24T10:57:36.000Z</time>
      </trkpt>
      <trkpt lat="43.37681" lon="2.44084">
        <ele>838</ele>
        <time>2017-09-24T10:57:37.000Z</time>
      </trkpt>
      <trkpt lat="43.3768" lon="2.44083">
        <ele>838</ele>
        <time>2017-09-24T10:57:38.000Z</time>
      </trkpt>
      <trkpt lat="43.37679" lon="2.44083">
        <ele>838</ele>
        <time>2017-09-24T10:57:39.000Z</time>
      </trkpt>
      <trkpt lat="43.37678" lon="2.44082">
        <ele>838</ele>
        <time>2017-09-24T10:57:40.000Z</time>
      </trkpt>
      <trkpt lat="43.37678" lon="2.44081">
        <ele>838</ele>
        <time>2017-09-24T10:57:41.000Z</time>
      </trkpt>
      <trkpt lat="43.37677" lon="2.4408">
        <ele>838</ele>
        <time>2017-09-24T10:57:42.000Z</time>
      </trkpt>
      <trkpt lat="43.37676" lon="2.44079">
        <ele>838</ele>
        <time>2017-09-24T10:57:43.000Z</time>
      </trkpt>
      <trkpt lat="43.37675" lon="2.44078">
        <ele>838</ele>
        <time>2017-09-24T10:57:44.000Z</time>
      </trkpt>
      <trkpt lat="43.37675" lon="2.44077">
        <ele>838</ele>
        <time>2017-09-24T10:57:45.000Z</time>
      </trkpt>
      <trkpt lat="43.37674" lon="2.44076">
        <ele>838</ele>
        <time>2017-09-24T10:57:46.000Z</time>
      </trkpt>
      <trkpt lat="43.37673" lon="2.44075">
        <ele>838</ele>
        <time>2017-09-24T10:57:47.000Z</time>
      </trkpt>
      <trkpt lat="43.37673" lon="2.44074">
        <ele>839</ele>
        <time>2017-09-24T10:57:48.000Z</time>
      </trkpt>
      <trkpt lat="43.37672" lon="2.44073">
        <ele>839</ele>
        <time>2017-09-24T10:57:49.000Z</time>
      </trkpt>
      <trkpt lat="43.37671" lon="2.44071">
        <ele>839</ele>
        <time>2017-09-24T10:57:50.000Z</time>
      </trkpt>
      <trkpt lat="43.37671" lon="2.4407">
        <ele>839</ele>
        <time>2017-09-24T10:57:51.000Z</time>
      </trkpt>
      <trkpt lat="43.3767" lon="2.44069">
        <ele>839</ele>
        <time>2017-09-24T10:57:52.000Z</time>
      </trkpt>
      <trkpt lat="43.37669" lon="2.44068">
        <ele>839</ele>
        <time>2017-09-24T10:57:53.000Z</time>
      </trkpt>
      <trkpt lat="43.37669" lon="2.44067">
        <ele>839</ele>
        <time>2017-09-24T10:57:54.000Z</time>
      </trkpt>
      <trkpt lat="43.37668" lon="2.44066">
        <ele>839</ele>
        <time>2017-09-24T10:57:55.000Z</time>
      </trkpt>
      <trkpt lat="43.37668" lon="2.44065">
        <ele>839</ele>
        <time>2017-09-24T10:57:56.000Z</time>
      </trkpt>
      <trkpt lat="43.37667" lon="2.44064">
        <ele>839</ele>
        <time>2017-09-24T10:57:57.000Z</time>
      </trkpt>
      <trkpt lat="43.37666" lon="2.44063">
        <ele>839</ele>
        <time>2017-09-24T10:57:58.000Z</time>
      </trkpt>
      <trkpt lat="43.37666" lon="2.44062">
        <ele>838</ele>
        <time>2017-09-24T10:57:59.000Z</time>
      </trkpt>
      <trkpt lat="43.37665" lon="2.4406">
        <ele>838</ele>
        <time>2017-09-24T10:58:00.000Z</time>
      </trkpt>
      <trkpt lat="43.37665" lon="2.44059">
        <ele>838</ele>
        <time>2017-09-24T10:58:01.000Z</time>
      </trkpt>
      <trkpt lat="43.37664" lon="2.44058">
        <ele>838</ele>
        <time>2017-09-24T10:58:02.000Z</time>
      </trkpt>
      <trkpt lat="43.37664" lon="2.44057">
        <ele>838</ele>
        <time>2017-09-24T10:58:03.000Z</time>
      </trkpt>
      <trkpt lat="43.37663" lon="2.44056">
        <ele>838</ele>
        <time>2017-09-24T10:58:04.000Z</time>
      </trkpt>
      <trkpt lat="43.37663" lon="2.44055">
        <ele>838</ele>
        <time>2017-09-24T10:58:05.000Z</time>
      </trkpt>
      <trkpt lat="43.37662" lon="2.44054">
        <ele>838</ele>
        <time>2017-09-24T10:58:06.000Z</time>
      </trkpt>
      <trkpt lat="43.37662" lon="2.44053">
        <ele>838</ele>
        <time>2017-09-24T10:58:07.000Z</time>
      </trkpt>
      <trkpt lat="43.37661" lon="2.44052">
        <ele>838</ele>
        <time>2017-09-24T10:58:08.000Z</time>
      </trkpt>
      <trkpt lat="43.37661" lon="2.4405">
        <ele>838</ele>
        <time>2017-09-24T10:58:09.000Z</time>
      </trkpt>
      <trkpt lat="43.3766" lon="2.44049">
        <ele>838</ele>
        <time>2017-09-24T10:58:10.000Z</time>
      </trkpt>
      <trkpt lat="43.3766" lon="2.44048">
        <ele>838</ele>
        <time>2017-09-24T10:58:11.000Z</time>
      </trkpt>
      <trkpt lat="43.37659" lon="2.44047">
        <ele>838</ele>
        <time>2017-09-24T10:58:12.000Z</time>
      </trkpt>
      <trkpt lat="43.37658" lon="2.44046">
        <ele>838</ele>
        <time>2017-09-24T10:58:13.000Z</time>
      </trkpt>
      <trkpt lat="43.37658" lon="2.44045">
        <ele>838</ele>
        <time>2017-09-24T10:58:14.000Z</time>
      </trkpt>
      <trkpt lat="43.37657" lon="2.44044">
        <ele>838</ele>
        <time>2017-09-24T10:58:15.000Z</time>
      </trkpt>
      <trkpt lat="43.37657" lon="2.44043">
        <ele>838</ele>
        <time>2017-09-24T10:58:16.000Z</time>
      </trkpt>
      <trkpt lat="43.37656" lon="2.44042">
        <ele>838</ele>
        <time>2017-09-24T10:58:17.000Z</time>
      </trkpt>
      <trkpt lat="43.37656" lon="2.44041">
        <ele>838</ele>
        <time>2017-09-24T10:58:18.000Z</time>
      </trkpt>
      <trkpt lat="43.37655" lon="2.4404">
        <ele>838</ele>
        <time>2017-09-24T10:58:19.000Z</time>
      </trkpt>
      <trkpt lat="43.37655" lon="2.44039">
        <ele>838</ele>
        <time>2017-09-24T10:58:20.000Z</time>
      </trkpt>
      <trkpt lat="43.37655" lon="2.44038">
        <ele>838</ele>
        <time>2017-09-24T10:58:21.000Z</time>
      </trkpt>
      <trkpt lat="43.37654" lon="2.44037">
        <ele>838</ele>
        <time>2017-09-24T10:58:22.000Z</time>
      </trkpt>
      <trkpt lat="43.37654" lon="2.44036">
        <ele>838</ele>
        <time>2017-09-24T10:58:23.000Z</time>
      </trkpt>
      <trkpt lat="43.37653" lon="2.44034">
        <ele>838</ele>
        <time>2017-09-24T10:58:24.000Z</time>
      </trkpt>
      <trkpt lat="43.37653" lon="2.44034">
        <ele>838</ele>
        <time>2017-09-24T10:58:25.000Z</time>
      </trkpt>
      <trkpt lat="43.37652" lon="2.44033">
        <ele>838</ele>
        <time>2017-09-24T10:58:26.000Z</time>
      </trkpt>
      <trkpt lat="43.37651" lon="2.44032">
        <ele>838</ele>
        <time>2017-09-24T10:58:27.000Z</time>
      </trkpt>
      <trkpt lat="43.37651" lon="2.44031">
        <ele>838</ele>
        <time>2017-09-24T10:58:28.000Z</time>
      </trkpt>
      <trkpt lat="43.3765" lon="2.4403">
        <ele>838</ele>
        <time>2017-09-24T10:58:29.000Z</time>
      </trkpt>
      <trkpt lat="43.3765" lon="2.44029">
        <ele>838</ele>
        <time>2017-09-24T10:58:30.000Z</time>
      </trkpt>
      <trkpt lat="43.37649" lon="2.44028">
        <ele>838</ele>
        <time>2017-09-24T10:58:31.000Z</time>
      </trkpt>
      <trkpt lat="43.37649" lon="2.44027">
        <ele>838</ele>
        <time>2017-09-24T10:58:32.000Z</time>
      </trkpt>
      <trkpt lat="43.37648" lon="2.44026">
        <ele>838</ele>
        <time>2017-09-24T10:58:33.000Z</time>
      </trkpt>
      <trkpt lat="43.37648" lon="2.44025">
        <ele>838</ele>
        <time>2017-09-24T10:58:34.000Z</time>
      </trkpt>
      <trkpt lat="43.37647" lon="2.44024">
        <ele>838</ele>
        <time>2017-09-24T10:58:35.000Z</time>
      </trkpt>
      <trkpt lat="43.37647" lon="2.44023">
        <ele>838</ele>
        <time>2017-09-24T10:58:36.000Z</time>
      </trkpt>
      <trkpt lat="43.37646" lon="2.44022">
        <ele>838</ele>
        <time>2017-09-24T10:58:37.000Z</time>
      </trkpt>
      <trkpt lat="43.37645" lon="2.44021">
        <ele>838</ele>
        <time>2017-09-24T10:58:38.000Z</time>
      </trkpt>
      <trkpt lat="43.37645" lon="2.44021">
        <ele>838</ele>
        <time>2017-09-24T10:58:39.000Z</time>
      </trkpt>
      <trkpt lat="43.37644" lon="2.44019">
        <ele>838</ele>
        <time>2017-09-24T10:58:40.000Z</time>
      </trkpt>
      <trkpt lat="43.37644" lon="2.44018">
        <ele>838</ele>
        <time>2017-09-24T10:58:41.000Z</time>
      </trkpt>
      <trkpt lat="43.37643" lon="2.44018">
        <ele>838</ele>
        <time>2017-09-24T10:58:42.000Z</time>
      </trkpt>
      <trkpt lat="43.37643" lon="2.44017">
        <ele>838</ele>
        <time>2017-09-24T10:58:43.000Z</time>
      </trkpt>
      <trkpt lat="43.37642" lon="2.44015">
        <ele>838</ele>
        <time>2017-09-24T10:58:44.000Z</time>
      </trkpt>
      <trkpt lat="43.37642" lon="2.44014">
        <ele>838</ele>
        <time>2017-09-24T10:58:45.000Z</time>
      </trkpt>
      <trkpt lat="43.37641" lon="2.44013">
        <ele>838</ele>
        <time>2017-09-24T10:58:46.000Z</time>
      </trkpt>
      <trkpt lat="43.37641" lon="2.44012">
        <ele>838</ele>
        <time>2017-09-24T10:58:47.000Z</time>
      </trkpt>
      <trkpt lat="43.3764" lon="2.44011">
        <ele>838</ele>
        <time>2017-09-24T10:58:48.000Z</time>
      </trkpt>
      <trkpt lat="43.3764" lon="2.4401">
        <ele>838</ele>
        <time>2017-09-24T10:58:49.000Z</time>
      </trkpt>
      <trkpt lat="43.37639" lon="2.44009">
        <ele>838</ele>
        <time>2017-09-24T10:58:50.000Z</time>
      </trkpt>
      <trkpt lat="43.37638" lon="2.44008">
        <ele>838</ele>
        <time>2017-09-24T10:58:51.000Z</time>
      </trkpt>
      <trkpt lat="43.37638" lon="2.44007">
        <ele>838</ele>
        <time>2017-09-24T10:58:52.000Z</time>
      </trkpt>
      <trkpt lat="43.37637" lon="2.44006">
        <ele>838</ele>
        <time>2017-09-24T10:58:53.000Z</time>
      </trkpt>
      <trkpt lat="43.37637" lon="2.44005">
        <ele>838</ele>
        <time>2017-09-24T10:58:54.000Z</time>
      </trkpt>
      <trkpt lat="43.37636" lon="2.44004">
        <ele>838</ele>
        <time>2017-09-24T10:58:55.000Z</time>
      </trkpt>
      <trkpt lat="43.37635" lon="2.44003">
        <ele>838</ele>
        <time>2017-09-24T10:58:56.000Z</time>
      </trkpt>
      <trkpt lat="43.37635" lon="2.44002">
        <ele>838</ele>
        <time>2017-09-24T10:58:57.000Z</time>
      </trkpt>
      <trkpt lat="43.37634" lon="2.44001">
        <ele>838</ele>
        <time>2017-09-24T10:58:58.000Z</time>
      </trkpt>
      <trkpt lat="43.37633" lon="2.44">
        <ele>838</ele>
        <time>2017-09-24T10:58:59.000Z</time>
      </trkpt>
      <trkpt lat="43.37633" lon="2.43999">
        <ele>838</ele>
        <time>2017-09-24T10:59:00.000Z</time>
      </trkpt>
      <trkpt lat="43.37632" lon="2.43998">
        <ele>838</ele>
        <time>2017-09-24T10:59:01.000Z</time>
      </trkpt>
      <trkpt lat="43.37632" lon="2.43997">
        <ele>838</ele>
        <time>2017-09-24T10:59:02.000Z</time>
      </trkpt>
      <trkpt lat="43.37631" lon="2.43995">
        <ele>839</ele>
        <time>2017-09-24T10:59:03.000Z</time>
      </trkpt>
      <trkpt lat="43.37631" lon="2.43994">
        <ele>839</ele>
        <time>2017-09-24T10:59:04.000Z</time>
      </trkpt>
      <trkpt lat="43.3763" lon="2.43992">
        <ele>839</ele>
        <time>2017-09-24T10:59:05.000Z</time>
      </trkpt>
      <trkpt lat="43.3763" lon="2.43991">
        <ele>839</ele>
        <time>2017-09-24T10:59:06.000Z</time>
      </trkpt>
      <trkpt lat="43.3763" lon="2.43989">
        <ele>839</ele>
        <time>2017-09-24T10:59:07.000Z</time>
      </trkpt>
      <trkpt lat="43.37629" lon="2.43988">
        <ele>840</ele>
        <time>2017-09-24T10:59:08.000Z</time>
      </trkpt>
      <trkpt lat="43.37629" lon="2.43986">
        <ele>840</ele>
        <time>2017-09-24T10:59:09.000Z</time>
      </trkpt>
      <trkpt lat="43.37628" lon="2.43985">
        <ele>840</ele>
        <time>2017-09-24T10:59:10.000Z</time>
      </trkpt>
      <trkpt lat="43.37628" lon="2.43984">
        <ele>840</ele>
        <time>2017-09-24T10:59:11.000Z</time>
      </trkpt>
      <trkpt lat="43.37627" lon="2.43982">
        <ele>840</ele>
        <time>2017-09-24T10:59:12.000Z</time>
      </trkpt>
      <trkpt lat="43.37626" lon="2.43981">
        <ele>841</ele>
        <time>2017-09-24T10:59:13.000Z</time>
      </trkpt>
      <trkpt lat="43.37625" lon="2.4398">
        <ele>841</ele>
        <time>2017-09-24T10:59:14.000Z</time>
      </trkpt>
      <trkpt lat="43.37625" lon="2.43979">
        <ele>841</ele>
        <time>2017-09-24T10:59:15.000Z</time>
      </trkpt>
      <trkpt lat="43.37624" lon="2.43977">
        <ele>841</ele>
        <time>2017-09-24T10:59:16.000Z</time>
      </trkpt>
      <trkpt lat="43.37623" lon="2.43976">
        <ele>842</ele>
        <time>2017-09-24T10:59:17.000Z</time>
      </trkpt>
      <trkpt lat="43.37623" lon="2.43974">
        <ele>842</ele>
        <time>2017-09-24T10:59:18.000Z</time>
      </trkpt>
      <trkpt lat="43.37622" lon="2.43973">
        <ele>842</ele>
        <time>2017-09-24T10:59:19.000Z</time>
      </trkpt>
      <trkpt lat="43.37621" lon="2.43972">
        <ele>842</ele>
        <time>2017-09-24T10:59:20.000Z</time>
      </trkpt>
      <trkpt lat="43.3762" lon="2.43971">
        <ele>843</ele>
        <time>2017-09-24T10:59:21.000Z</time>
      </trkpt>
      <trkpt lat="43.37619" lon="2.43969">
        <ele>843</ele>
        <time>2017-09-24T10:59:22.000Z</time>
      </trkpt>
      <trkpt lat="43.37619" lon="2.43968">
        <ele>843</ele>
        <time>2017-09-24T10:59:23.000Z</time>
      </trkpt>
      <trkpt lat="43.37618" lon="2.43967">
        <ele>843</ele>
        <time>2017-09-24T10:59:24.000Z</time>
      </trkpt>
      <trkpt lat="43.37617" lon="2.43966">
        <ele>843</ele>
        <time>2017-09-24T10:59:25.000Z</time>
      </trkpt>
      <trkpt lat="43.37617" lon="2.43964">
        <ele>844</ele>
        <time>2017-09-24T10:59:26.000Z</time>
      </trkpt>
      <trkpt lat="43.37616" lon="2.43963">
        <ele>844</ele>
        <time>2017-09-24T10:59:27.000Z</time>
      </trkpt>
      <trkpt lat="43.37615" lon="2.43962">
        <ele>844</ele>
        <time>2017-09-24T10:59:28.000Z</time>
      </trkpt>
      <trkpt lat="43.37615" lon="2.43961">
        <ele>844</ele>
        <time>2017-09-24T10:59:29.000Z</time>
      </trkpt>
      <trkpt lat="43.37614" lon="2.43959">
        <ele>845</ele>
        <time>2017-09-24T10:59:30.000Z</time>
      </trkpt>
      <trkpt lat="43.37614" lon="2.43958">
        <ele>845</ele>
        <time>2017-09-24T10:59:31.000Z</time>
      </trkpt>
      <trkpt lat="43.37613" lon="2.43957">
        <ele>845</ele>
        <time>2017-09-24T10:59:32.000Z</time>
      </trkpt>
      <trkpt lat="43.37612" lon="2.43956">
        <ele>845</ele>
        <time>2017-09-24T10:59:33.000Z</time>
      </trkpt>
      <trkpt lat="43.37612" lon="2.43954">
        <ele>845</ele>
        <time>2017-09-24T10:59:34.000Z</time>
      </trkpt>
      <trkpt lat="43.37611" lon="2.43953">
        <ele>845</ele>
        <time>2017-09-24T10:59:35.000Z</time>
      </trkpt>
      <trkpt lat="43.3761" lon="2.43953">
        <ele>846</ele>
        <time>2017-09-24T10:59:36.000Z</time>
      </trkpt>
      <trkpt lat="43.3761" lon="2.43951">
        <ele>846</ele>
        <time>2017-09-24T10:59:37.000Z</time>
      </trkpt>
      <trkpt lat="43.37609" lon="2.4395">
        <ele>846</ele>
        <time>2017-09-24T10:59:38.000Z</time>
      </trkpt>
      <trkpt lat="43.37609" lon="2.4395">
        <ele>846</ele>
        <time>2017-09-24T10:59:39.000Z</time>
      </trkpt>
      <trkpt lat="43.37608" lon="2.43949">
        <ele>846</ele>
        <time>2017-09-24T10:59:40.000Z</time>
      </trkpt>
      <trkpt lat="43.37607" lon="2.43948">
        <ele>847</ele>
        <time>2017-09-24T10:59:41.000Z</time>
      </trkpt>
      <trkpt lat="43.37607" lon="2.43947">
        <ele>847</ele>
        <time>2017-09-24T10:59:42.000Z</time>
      </trkpt>
      <trkpt lat="43.37606" lon="2.43946">
        <ele>847</ele>
        <time>2017-09-24T10:59:43.000Z</time>
      </trkpt>
      <trkpt lat="43.37606" lon="2.43945">
        <ele>847</ele>
        <time>2017-09-24T10:59:44.000Z</time>
      </trkpt>
      <trkpt lat="43.37605" lon="2.43944">
        <ele>847</ele>
        <time>2017-09-24T10:59:45.000Z</time>
      </trkpt>
      <trkpt lat="43.37604" lon="2.43943">
        <ele>847</ele>
        <time>2017-09-24T10:59:46.000Z</time>
      </trkpt>
      <trkpt lat="43.37604" lon="2.43942">
        <ele>848</ele>
        <time>2017-09-24T10:59:47.000Z</time>
      </trkpt>
      <trkpt lat="43.37603" lon="2.43941">
        <ele>848</ele>
        <time>2017-09-24T10:59:48.000Z</time>
      </trkpt>
      <trkpt lat="43.37603" lon="2.4394">
        <ele>848</ele>
        <time>2017-09-24T10:59:49.000Z</time>
      </trkpt>
      <trkpt lat="43.37602" lon="2.43939">
        <ele>848</ele>
        <time>2017-09-24T10:59:50.000Z</time>
      </trkpt>
      <trkpt lat="43.37601" lon="2.43938">
        <ele>848</ele>
        <time>2017-09-24T10:59:51.000Z</time>
      </trkpt>
      <trkpt lat="43.37601" lon="2.43936">
        <ele>849</ele>
        <time>2017-09-24T10:59:52.000Z</time>
      </trkpt>
      <trkpt lat="43.376" lon="2.43935">
        <ele>849</ele>
        <time>2017-09-24T10:59:53.000Z</time>
      </trkpt>
      <trkpt lat="43.37599" lon="2.43934">
        <ele>849</ele>
        <time>2017-09-24T10:59:54.000Z</time>
      </trkpt>
      <trkpt lat="43.37599" lon="2.43933">
        <ele>849</ele>
        <time>2017-09-24T10:59:55.000Z</time>
      </trkpt>
      <trkpt lat="43.37598" lon="2.43932">
        <ele>849</ele>
        <time>2017-09-24T10:59:56.000Z</time>
      </trkpt>
      <trkpt lat="43.37598" lon="2.4393">
        <ele>850</ele>
        <time>2017-09-24T10:59:57.000Z</time>
      </trkpt>
      <trkpt lat="43.37598" lon="2.43929">
        <ele>850</ele>
        <time>2017-09-24T10:59:58.000Z</time>
      </trkpt>
      <trkpt lat="43.37597" lon="2.43928">
        <ele>850</ele>
        <time>2017-09-24T10:59:59.000Z</time>
      </trkpt>
      <trkpt lat="43.37597" lon="2.43927">
        <ele>850</ele>
        <time>2017-09-24T11:00:00.000Z</time>
      </trkpt>
      <trkpt lat="43.37596" lon="2.43925">
        <ele>850</ele>
        <time>2017-09-24T11:00:01.000Z</time>
      </trkpt>
      <trkpt lat="43.37596" lon="2.43923">
        <ele>850</ele>
        <time>2017-09-24T11:00:02.000Z</time>
      </trkpt>
      <trkpt lat="43.37596" lon="2.43922">
        <ele>850</ele>
        <time>2017-09-24T11:00:03.000Z</time>
      </trkpt>
      <trkpt lat="43.37595" lon="2.43921">
        <ele>850</ele>
        <time>2017-09-24T11:00:04.000Z</time>
      </trkpt>
      <trkpt lat="43.37595" lon="2.43919">
        <ele>851</ele>
        <time>2017-09-24T11:00:05.000Z</time>
      </trkpt>
      <trkpt lat="43.37595" lon="2.43918">
        <ele>851</ele>
        <time>2017-09-24T11:00:06.000Z</time>
      </trkpt>
      <trkpt lat="43.37594" lon="2.43917">
        <ele>851</ele>
        <time>2017-09-24T11:00:07.000Z</time>
      </trkpt>
      <trkpt lat="43.37594" lon="2.43915">
        <ele>851</ele>
        <time>2017-09-24T11:00:08.000Z</time>
      </trkpt>
      <trkpt lat="43.37593" lon="2.43914">
        <ele>851</ele>
        <time>2017-09-24T11:00:09.000Z</time>
      </trkpt>
      <trkpt lat="43.37593" lon="2.43913">
        <ele>851</ele>
        <time>2017-09-24T11:00:10.000Z</time>
      </trkpt>
      <trkpt lat="43.37592" lon="2.43911">
        <ele>851</ele>
        <time>2017-09-24T11:00:11.000Z</time>
      </trkpt>
      <trkpt lat="43.37592" lon="2.4391">
        <ele>851</ele>
        <time>2017-09-24T11:00:12.000Z</time>
      </trkpt>
      <trkpt lat="43.37591" lon="2.43909">
        <ele>851</ele>
        <time>2017-09-24T11:00:13.000Z</time>
      </trkpt>
      <trkpt lat="43.37591" lon="2.43907">
        <ele>851</ele>
        <time>2017-09-24T11:00:14.000Z</time>
      </trkpt>
      <trkpt lat="43.3759" lon="2.43906">
        <ele>851</ele>
        <time>2017-09-24T11:00:15.000Z</time>
      </trkpt>
      <trkpt lat="43.3759" lon="2.43904">
        <ele>851</ele>
        <time>2017-09-24T11:00:16.000Z</time>
      </trkpt>
      <trkpt lat="43.3759" lon="2.43903">
        <ele>851</ele>
        <time>2017-09-24T11:00:17.000Z</time>
      </trkpt>
      <trkpt lat="43.37589" lon="2.43901">
        <ele>850</ele>
        <time>2017-09-24T11:00:18.000Z</time>
      </trkpt>
      <trkpt lat="43.37589" lon="2.43899">
        <ele>850</ele>
        <time>2017-09-24T11:00:19.000Z</time>
      </trkpt>
      <trkpt lat="43.37588" lon="2.43897">
        <ele>850</ele>
        <time>2017-09-24T11:00:20.000Z</time>
      </trkpt>
      <trkpt lat="43.37588" lon="2.43896">
        <ele>850</ele>
        <time>2017-09-24T11:00:21.000Z</time>
      </trkpt>
      <trkpt lat="43.37588" lon="2.43895">
        <ele>850</ele>
        <time>2017-09-24T11:00:22.000Z</time>
      </trkpt>
      <trkpt lat="43.37588" lon="2.43893">
        <ele>850</ele>
        <time>2017-09-24T11:00:23.000Z</time>
      </trkpt>
      <trkpt lat="43.37588" lon="2.43892">
        <ele>850</ele>
        <time>2017-09-24T11:00:24.000Z</time>
      </trkpt>
      <trkpt lat="43.37587" lon="2.4389">
        <ele>850</ele>
        <time>2017-09-24T11:00:25.000Z</time>
      </trkpt>
      <trkpt lat="43.37587" lon="2.43889">
        <ele>850</ele>
        <time>2017-09-24T11:00:26.000Z</time>
      </trkpt>
      <trkpt lat="43.37587" lon="2.43887">
        <ele>850</ele>
        <time>2017-09-24T11:00:27.000Z</time>
      </trkpt>
      <trkpt lat="43.37587" lon="2.43886">
        <ele>850</ele>
        <time>2017-09-24T11:00:28.000Z</time>
      </trkpt>
      <trkpt lat="43.37587" lon="2.43884">
        <ele>850</ele>
        <time>2017-09-24T11:00:29.000Z</time>
      </trkpt>
      <trkpt lat="43.37587" lon="2.43883">
        <ele>850</ele>
        <time>2017-09-24T11:00:30.000Z</time>
      </trkpt>
      <trkpt lat="43.37587" lon="2.43882">
        <ele>850</ele>
        <time>2017-09-24T11:00:31.000Z</time>
      </trkpt>
      <trkpt lat="43.37587" lon="2.4388">
        <ele>850</ele>
        <time>2017-09-24T11:00:32.000Z</time>
      </trkpt>
      <trkpt lat="43.37587" lon="2.43879">
        <ele>850</ele>
        <time>2017-09-24T11:00:33.000Z</time>
      </trkpt>
      <trkpt lat="43.37586" lon="2.43877">
        <ele>850</ele>
        <time>2017-09-24T11:00:34.000Z</time>
      </trkpt>
      <trkpt lat="43.37586" lon="2.43876">
        <ele>850</ele>
        <time>2017-09-24T11:00:35.000Z</time>
      </trkpt>
      <trkpt lat="43.37586" lon="2.43875">
        <ele>850</ele>
        <time>2017-09-24T11:00:36.000Z</time>
      </trkpt>
      <trkpt lat="43.37586" lon="2.43873">
        <ele>849</ele>
        <time>2017-09-24T11:00:37.000Z</time>
      </trkpt>
      <trkpt lat="43.37586" lon="2.43872">
        <ele>849</ele>
        <time>2017-09-24T11:00:38.000Z</time>
      </trkpt>
      <trkpt lat="43.37586" lon="2.43871">
        <ele>849</ele>
        <time>2017-09-24T11:00:39.000Z</time>
      </trkpt>
      <trkpt lat="43.37587" lon="2.43869">
        <ele>849</ele>
        <time>2017-09-24T11:00:40.000Z</time>
      </trkpt>
      <trkpt lat="43.37587" lon="2.43867">
        <ele>849</ele>
        <time>2017-09-24T11:00:41.000Z</time>
      </trkpt>
      <trkpt lat="43.37587" lon="2.43866">
        <ele>849</ele>
        <time>2017-09-24T11:00:42.000Z</time>
      </trkpt>
      <trkpt lat="43.37587" lon="2.43865">
        <ele>849</ele>
        <time>2017-09-24T11:00:43.000Z</time>
      </trkpt>
      <trkpt lat="43.37587" lon="2.43863">
        <ele>849</ele>
        <time>2017-09-24T11:00:44.000Z</time>
      </trkpt>
      <trkpt lat="43.37587" lon="2.43862">
        <ele>849</ele>
        <time>2017-09-24T11:00:45.000Z</time>
      </trkpt>
      <trkpt lat="43.37587" lon="2.4386">
        <ele>849</ele>
        <time>2017-09-24T11:00:46.000Z</time>
      </trkpt>
      <trkpt lat="43.37587" lon="2.43859">
        <ele>849</ele>
        <time>2017-09-24T11:00:47.000Z</time>
      </trkpt>
      <trkpt lat="43.37587" lon="2.43858">
        <ele>849</ele>
        <time>2017-09-24T11:00:48.000Z</time>
      </trkpt>
      <trkpt lat="43.37588" lon="2.43856">
        <ele>849</ele>
        <time>2017-09-24T11:00:49.000Z</time>
      </trkpt>
      <trkpt lat="43.37588" lon="2.43855">
        <ele>849</ele>
        <time>2017-09-24T11:00:50.000Z</time>
      </trkpt>
      <trkpt lat="43.37588" lon="2.43854">
        <ele>849</ele>
        <time>2017-09-24T11:00:51.000Z</time>
      </trkpt>
      <trkpt lat="43.37588" lon="2.43852">
        <ele>849</ele>
        <time>2017-09-24T11:00:52.000Z</time>
      </trkpt>
      <trkpt lat="43.37588" lon="2.43851">
        <ele>849</ele>
        <time>2017-09-24T11:00:53.000Z</time>
      </trkpt>
      <trkpt lat="43.37588" lon="2.4385">
        <ele>849</ele>
        <time>2017-09-24T11:00:54.000Z</time>
      </trkpt>
      <trkpt lat="43.37588" lon="2.43849">
        <ele>849</ele>
        <time>2017-09-24T11:00:55.000Z</time>
      </trkpt>
      <trkpt lat="43.37588" lon="2.43848">
        <ele>849</ele>
        <time>2017-09-24T11:00:56.000Z</time>
      </trkpt>
      <trkpt lat="43.37588" lon="2.43846">
        <ele>849</ele>
        <time>2017-09-24T11:00:57.000Z</time>
      </trkpt>
      <trkpt lat="43.37588" lon="2.43845">
        <ele>848</ele>
        <time>2017-09-24T11:00:58.000Z</time>
      </trkpt>
      <trkpt lat="43.37588" lon="2.43844">
        <ele>848</ele>
        <time>2017-09-24T11:00:59.000Z</time>
      </trkpt>
      <trkpt lat="43.37588" lon="2.43843">
        <ele>848</ele>
        <time>2017-09-24T11:01:00.000Z</time>
      </trkpt>
      <trkpt lat="43.37587" lon="2.43842">
        <ele>848</ele>
        <time>2017-09-24T11:01:01.000Z</time>
      </trkpt>
      <trkpt lat="43.37587" lon="2.43841">
        <ele>848</ele>
        <time>2017-09-24T11:01:02.000Z</time>
      </trkpt>
      <trkpt lat="43.37587" lon="2.4384">
        <ele>848</ele>
        <time>2017-09-24T11:01:03.000Z</time>
      </trkpt>
      <trkpt lat="43.37587" lon="2.4384">
        <ele>848</ele>
        <time>2017-09-24T11:01:04.000Z</time>
      </trkpt>
      <trkpt lat="43.37587" lon="2.43839">
        <ele>848</ele>
        <time>2017-09-24T11:01:05.000Z</time>
      </trkpt>
      <trkpt lat="43.37587" lon="2.43838">
        <ele>848</ele>
        <time>2017-09-24T11:01:06.000Z</time>
      </trkpt>
      <trkpt lat="43.37587" lon="2.43838">
        <ele>848</ele>
        <time>2017-09-24T11:01:07.000Z</time>
      </trkpt>
      <trkpt lat="43.37587" lon="2.43837">
        <ele>848</ele>
        <time>2017-09-24T11:01:08.000Z</time>
      </trkpt>
      <trkpt lat="43.37587" lon="2.43835">
        <ele>848</ele>
        <time>2017-09-24T11:01:09.000Z</time>
      </trkpt>
      <trkpt lat="43.37587" lon="2.43834">
        <ele>848</ele>
        <time>2017-09-24T11:01:10.000Z</time>
      </trkpt>
      <trkpt lat="43.37587" lon="2.43833">
        <ele>848</ele>
        <time>2017-09-24T11:01:11.000Z</time>
      </trkpt>
      <trkpt lat="43.37586" lon="2.43832">
        <ele>848</ele>
        <time>2017-09-24T11:01:12.000Z</time>
      </trkpt>
      <trkpt lat="43.37585" lon="2.43831">
        <ele>848</ele>
        <time>2017-09-24T11:01:13.000Z</time>
      </trkpt>
      <trkpt lat="43.37585" lon="2.4383">
        <ele>848</ele>
        <time>2017-09-24T11:01:14.000Z</time>
      </trkpt>
      <trkpt lat="43.37585" lon="2.43829">
        <ele>848</ele>
        <time>2017-09-24T11:01:15.000Z</time>
      </trkpt>
      <trkpt lat="43.37585" lon="2.43828">
        <ele>848</ele>
        <time>2017-09-24T11:01:16.000Z</time>
      </trkpt>
      <trkpt lat="43.37585" lon="2.43827">
        <ele>848</ele>
        <time>2017-09-24T11:01:17.000Z</time>
      </trkpt>
      <trkpt lat="43.37585" lon="2.43826">
        <ele>848</ele>
        <time>2017-09-24T11:01:18.000Z</time>
      </trkpt>
      <trkpt lat="43.37584" lon="2.43825">
        <ele>848</ele>
        <time>2017-09-24T11:01:19.000Z</time>
      </trkpt>
      <trkpt lat="43.37584" lon="2.43824">
        <ele>848</ele>
        <time>2017-09-24T11:01:20.000Z</time>
      </trkpt>
      <trkpt lat="43.37584" lon="2.43824">
        <ele>848</ele>
        <time>2017-09-24T11:01:21.000Z</time>
      </trkpt>
      <trkpt lat="43.37583" lon="2.43824">
        <ele>848</ele>
        <time>2017-09-24T11:01:22.000Z</time>
      </trkpt>
      <trkpt lat="43.37583" lon="2.43824">
        <ele>848</ele>
        <time>2017-09-24T11:01:23.000Z</time>
      </trkpt>
      <trkpt lat="43.37582" lon="2.43823">
        <ele>848</ele>
        <time>2017-09-24T11:01:24.000Z</time>
      </trkpt>
      <trkpt lat="43.37582" lon="2.43823">
        <ele>848</ele>
        <time>2017-09-24T11:01:25.000Z</time>
      </trkpt>
      <trkpt lat="43.37581" lon="2.43817">
        <ele>849</ele>
        <time>2017-09-24T11:01:33.000Z</time>
      </trkpt>
      <trkpt lat="43.37581" lon="2.43815">
        <ele>849</ele>
        <time>2017-09-24T11:01:34.000Z</time>
      </trkpt>
      <trkpt lat="43.3758" lon="2.43813">
        <ele>849</ele>
        <time>2017-09-24T11:01:35.000Z</time>
      </trkpt>
      <trkpt lat="43.3758" lon="2.43811">
        <ele>849</ele>
        <time>2017-09-24T11:01:36.000Z</time>
      </trkpt>
      <trkpt lat="43.3758" lon="2.4381">
        <ele>849</ele>
        <time>2017-09-24T11:01:37.000Z</time>
      </trkpt>
      <trkpt lat="43.3758" lon="2.43808">
        <ele>848</ele>
        <time>2017-09-24T11:01:38.000Z</time>
      </trkpt>
      <trkpt lat="43.3758" lon="2.43807">
        <ele>848</ele>
        <time>2017-09-24T11:01:39.000Z</time>
      </trkpt>
      <trkpt lat="43.3758" lon="2.43805">
        <ele>848</ele>
        <time>2017-09-24T11:01:40.000Z</time>
      </trkpt>
      <trkpt lat="43.37579" lon="2.43803">
        <ele>848</ele>
        <time>2017-09-24T11:01:41.000Z</time>
      </trkpt>
      <trkpt lat="43.37579" lon="2.43802">
        <ele>848</ele>
        <time>2017-09-24T11:01:42.000Z</time>
      </trkpt>
      <trkpt lat="43.37579" lon="2.438">
        <ele>848</ele>
        <time>2017-09-24T11:01:43.000Z</time>
      </trkpt>
      <trkpt lat="43.37578" lon="2.43798">
        <ele>848</ele>
        <time>2017-09-24T11:01:44.000Z</time>
      </trkpt>
      <trkpt lat="43.37578" lon="2.43797">
        <ele>848</ele>
        <time>2017-09-24T11:01:45.000Z</time>
      </trkpt>
      <trkpt lat="43.37578" lon="2.43795">
        <ele>848</ele>
        <time>2017-09-24T11:01:46.000Z</time>
      </trkpt>
      <trkpt lat="43.37577" lon="2.43793">
        <ele>848</ele>
        <time>2017-09-24T11:01:47.000Z</time>
      </trkpt>
      <trkpt lat="43.37577" lon="2.43792">
        <ele>848</ele>
        <time>2017-09-24T11:01:48.000Z</time>
      </trkpt>
      <trkpt lat="43.37576" lon="2.4379">
        <ele>848</ele>
        <time>2017-09-24T11:01:49.000Z</time>
      </trkpt>
      <trkpt lat="43.37576" lon="2.43788">
        <ele>847</ele>
        <time>2017-09-24T11:01:50.000Z</time>
      </trkpt>
      <trkpt lat="43.37576" lon="2.43786">
        <ele>847</ele>
        <time>2017-09-24T11:01:51.000Z</time>
      </trkpt>
      <trkpt lat="43.37576" lon="2.43785">
        <ele>847</ele>
        <time>2017-09-24T11:01:52.000Z</time>
      </trkpt>
      <trkpt lat="43.37576" lon="2.43783">
        <ele>847</ele>
        <time>2017-09-24T11:01:53.000Z</time>
      </trkpt>
      <trkpt lat="43.37575" lon="2.43781">
        <ele>847</ele>
        <time>2017-09-24T11:01:54.000Z</time>
      </trkpt>
      <trkpt lat="43.37575" lon="2.4378">
        <ele>847</ele>
        <time>2017-09-24T11:01:55.000Z</time>
      </trkpt>
      <trkpt lat="43.37575" lon="2.43778">
        <ele>847</ele>
        <time>2017-09-24T11:01:56.000Z</time>
      </trkpt>
      <trkpt lat="43.37575" lon="2.43777">
        <ele>847</ele>
        <time>2017-09-24T11:01:57.000Z</time>
      </trkpt>
      <trkpt lat="43.37575" lon="2.43775">
        <ele>847</ele>
        <time>2017-09-24T11:01:58.000Z</time>
      </trkpt>
      <trkpt lat="43.37575" lon="2.43774">
        <ele>847</ele>
        <time>2017-09-24T11:01:59.000Z</time>
      </trkpt>
      <trkpt lat="43.37575" lon="2.43772">
        <ele>846</ele>
        <time>2017-09-24T11:02:00.000Z</time>
      </trkpt>
      <trkpt lat="43.37575" lon="2.43771">
        <ele>846</ele>
        <time>2017-09-24T11:02:01.000Z</time>
      </trkpt>
      <trkpt lat="43.37575" lon="2.43769">
        <ele>846</ele>
        <time>2017-09-24T11:02:02.000Z</time>
      </trkpt>
      <trkpt lat="43.37575" lon="2.43767">
        <ele>846</ele>
        <time>2017-09-24T11:02:03.000Z</time>
      </trkpt>
      <trkpt lat="43.37575" lon="2.43766">
        <ele>846</ele>
        <time>2017-09-24T11:02:04.000Z</time>
      </trkpt>
      <trkpt lat="43.37575" lon="2.43764">
        <ele>846</ele>
        <time>2017-09-24T11:02:05.000Z</time>
      </trkpt>
      <trkpt lat="43.37574" lon="2.43763">
        <ele>846</ele>
        <time>2017-09-24T11:02:06.000Z</time>
      </trkpt>
      <trkpt lat="43.37574" lon="2.43762">
        <ele>846</ele>
        <time>2017-09-24T11:02:07.000Z</time>
      </trkpt>
      <trkpt lat="43.37574" lon="2.4376">
        <ele>846</ele>
        <time>2017-09-24T11:02:08.000Z</time>
      </trkpt>
      <trkpt lat="43.37574" lon="2.43759">
        <ele>846</ele>
        <time>2017-09-24T11:02:09.000Z</time>
      </trkpt>
      <trkpt lat="43.37573" lon="2.43757">
        <ele>846</ele>
        <time>2017-09-24T11:02:10.000Z</time>
      </trkpt>
      <trkpt lat="43.37573" lon="2.43755">
        <ele>845</ele>
        <time>2017-09-24T11:02:11.000Z</time>
      </trkpt>
      <trkpt lat="43.37573" lon="2.43754">
        <ele>845</ele>
        <time>2017-09-24T11:02:12.000Z</time>
      </trkpt>
      <trkpt lat="43.37573" lon="2.43752">
        <ele>845</ele>
        <time>2017-09-24T11:02:13.000Z</time>
      </trkpt>
      <trkpt lat="43.37572" lon="2.4375">
        <ele>845</ele>
        <time>2017-09-24T11:02:14.000Z</time>
      </trkpt>
      <trkpt lat="43.37572" lon="2.43749">
        <ele>845</ele>
        <time>2017-09-24T11:02:15.000Z</time>
      </trkpt>
      <trkpt lat="43.37571" lon="2.43748">
        <ele>845</ele>
        <time>2017-09-24T11:02:16.000Z</time>
      </trkpt>
      <trkpt lat="43.37571" lon="2.43746">
        <ele>845</ele>
        <time>2017-09-24T11:02:17.000Z</time>
      </trkpt>
      <trkpt lat="43.3757" lon="2.43744">
        <ele>845</ele>
        <time>2017-09-24T11:02:18.000Z</time>
      </trkpt>
      <trkpt lat="43.3757" lon="2.43742">
        <ele>845</ele>
        <time>2017-09-24T11:02:19.000Z</time>
      </trkpt>
      <trkpt lat="43.3757" lon="2.4374">
        <ele>845</ele>
        <time>2017-09-24T11:02:20.000Z</time>
      </trkpt>
      <trkpt lat="43.3757" lon="2.43738">
        <ele>846</ele>
        <time>2017-09-24T11:02:21.000Z</time>
      </trkpt>
      <trkpt lat="43.3757" lon="2.43737">
        <ele>846</ele>
        <time>2017-09-24T11:02:22.000Z</time>
      </trkpt>
      <trkpt lat="43.37569" lon="2.43735">
        <ele>846</ele>
        <time>2017-09-24T11:02:23.000Z</time>
      </trkpt>
      <trkpt lat="43.37569" lon="2.43734">
        <ele>846</ele>
        <time>2017-09-24T11:02:24.000Z</time>
      </trkpt>
      <trkpt lat="43.37569" lon="2.43733">
        <ele>846</ele>
        <time>2017-09-24T11:02:25.000Z</time>
      </trkpt>
      <trkpt lat="43.37568" lon="2.43731">
        <ele>846</ele>
        <time>2017-09-24T11:02:26.000Z</time>
      </trkpt>
      <trkpt lat="43.37568" lon="2.4373">
        <ele>846</ele>
        <time>2017-09-24T11:02:27.000Z</time>
      </trkpt>
      <trkpt lat="43.37567" lon="2.43729">
        <ele>846</ele>
        <time>2017-09-24T11:02:28.000Z</time>
      </trkpt>
      <trkpt lat="43.37567" lon="2.43727">
        <ele>846</ele>
        <time>2017-09-24T11:02:29.000Z</time>
      </trkpt>
      <trkpt lat="43.37567" lon="2.43726">
        <ele>846</ele>
        <time>2017-09-24T11:02:30.000Z</time>
      </trkpt>
      <trkpt lat="43.37566" lon="2.43724">
        <ele>846</ele>
        <time>2017-09-24T11:02:31.000Z</time>
      </trkpt>
      <trkpt lat="43.37567" lon="2.43723">
        <ele>846</ele>
        <time>2017-09-24T11:02:32.000Z</time>
      </trkpt>
      <trkpt lat="43.37567" lon="2.43722">
        <ele>846</ele>
        <time>2017-09-24T11:02:33.000Z</time>
      </trkpt>
      <trkpt lat="43.37567" lon="2.43721">
        <ele>846</ele>
        <time>2017-09-24T11:02:34.000Z</time>
      </trkpt>
      <trkpt lat="43.37567" lon="2.4372">
        <ele>846</ele>
        <time>2017-09-24T11:02:35.000Z</time>
      </trkpt>
      <trkpt lat="43.37567" lon="2.4372">
        <ele>846</ele>
        <time>2017-09-24T11:02:36.000Z</time>
      </trkpt>
      <trkpt lat="43.37567" lon="2.43719">
        <ele>846</ele>
        <time>2017-09-24T11:02:37.000Z</time>
      </trkpt>
      <trkpt lat="43.37567" lon="2.43718">
        <ele>846</ele>
        <time>2017-09-24T11:02:38.000Z</time>
      </trkpt>
      <trkpt lat="43.37567" lon="2.43717">
        <ele>846</ele>
        <time>2017-09-24T11:02:39.000Z</time>
      </trkpt>
      <trkpt lat="43.37567" lon="2.43716">
        <ele>846</ele>
        <time>2017-09-24T11:02:40.000Z</time>
      </trkpt>
      <trkpt lat="43.37567" lon="2.43715">
        <ele>846</ele>
        <time>2017-09-24T11:02:41.000Z</time>
      </trkpt>
      <trkpt lat="43.37567" lon="2.43714">
        <ele>846</ele>
        <time>2017-09-24T11:02:42.000Z</time>
      </trkpt>
      <trkpt lat="43.37567" lon="2.43713">
        <ele>846</ele>
        <time>2017-09-24T11:02:43.000Z</time>
      </trkpt>
      <trkpt lat="43.37567" lon="2.43713">
        <ele>846</ele>
        <time>2017-09-24T11:02:44.000Z</time>
      </trkpt>
      <trkpt lat="43.37566" lon="2.43712">
        <ele>846</ele>
        <time>2017-09-24T11:02:45.000Z</time>
      </trkpt>
      <trkpt lat="43.37566" lon="2.43711">
        <ele>846</ele>
        <time>2017-09-24T11:02:46.000Z</time>
      </trkpt>
      <trkpt lat="43.37566" lon="2.4371">
        <ele>846</ele>
        <time>2017-09-24T11:02:47.000Z</time>
      </trkpt>
      <trkpt lat="43.37566" lon="2.43709">
        <ele>846</ele>
        <time>2017-09-24T11:02:48.000Z</time>
      </trkpt>
      <trkpt lat="43.37566" lon="2.43708">
        <ele>845</ele>
        <time>2017-09-24T11:02:49.000Z</time>
      </trkpt>
      <trkpt lat="43.37566" lon="2.43707">
        <ele>845</ele>
        <time>2017-09-24T11:02:50.000Z</time>
      </trkpt>
      <trkpt lat="43.37566" lon="2.43706">
        <ele>845</ele>
        <time>2017-09-24T11:02:51.000Z</time>
      </trkpt>
      <trkpt lat="43.37566" lon="2.43705">
        <ele>845</ele>
        <time>2017-09-24T11:02:52.000Z</time>
      </trkpt>
      <trkpt lat="43.37566" lon="2.43704">
        <ele>845</ele>
        <time>2017-09-24T11:02:53.000Z</time>
      </trkpt>
      <trkpt lat="43.37566" lon="2.43703">
        <ele>845</ele>
        <time>2017-09-24T11:02:54.000Z</time>
      </trkpt>
      <trkpt lat="43.37566" lon="2.43703">
        <ele>845</ele>
        <time>2017-09-24T11:02:55.000Z</time>
      </trkpt>
      <trkpt lat="43.37566" lon="2.43702">
        <ele>845</ele>
        <time>2017-09-24T11:02:56.000Z</time>
      </trkpt>
      <trkpt lat="43.37566" lon="2.43701">
        <ele>845</ele>
        <time>2017-09-24T11:02:57.000Z</time>
      </trkpt>
      <trkpt lat="43.37566" lon="2.437">
        <ele>845</ele>
        <time>2017-09-24T11:02:58.000Z</time>
      </trkpt>
      <trkpt lat="43.37566" lon="2.437">
        <ele>845</ele>
        <time>2017-09-24T11:02:59.000Z</time>
      </trkpt>
      <trkpt lat="43.37566" lon="2.43699">
        <ele>845</ele>
        <time>2017-09-24T11:03:00.000Z</time>
      </trkpt>
      <trkpt lat="43.37566" lon="2.43699">
        <ele>845</ele>
        <time>2017-09-24T11:03:01.000Z</time>
      </trkpt>
      <trkpt lat="43.37566" lon="2.43699">
        <ele>845</ele>
        <time>2017-09-24T11:03:02.000Z</time>
      </trkpt>
      <trkpt lat="43.37566" lon="2.4369">
        <ele>844</ele>
        <time>2017-09-24T11:03:23.000Z</time>
      </trkpt>
      <trkpt lat="43.37566" lon="2.43689">
        <ele>844</ele>
        <time>2017-09-24T11:03:24.000Z</time>
      </trkpt>
      <trkpt lat="43.37566" lon="2.43688">
        <ele>844</ele>
        <time>2017-09-24T11:03:25.000Z</time>
      </trkpt>
      <trkpt lat="43.37566" lon="2.43687">
        <ele>844</ele>
        <time>2017-09-24T11:03:26.000Z</time>
      </trkpt>
      <trkpt lat="43.37566" lon="2.43685">
        <ele>844</ele>
        <time>2017-09-24T11:03:27.000Z</time>
      </trkpt>
      <trkpt lat="43.37566" lon="2.43685">
        <ele>844</ele>
        <time>2017-09-24T11:03:28.000Z</time>
      </trkpt>
      <trkpt lat="43.37566" lon="2.43683">
        <ele>843</ele>
        <time>2017-09-24T11:03:29.000Z</time>
      </trkpt>
      <trkpt lat="43.37565" lon="2.43682">
        <ele>844</ele>
        <time>2017-09-24T11:03:30.000Z</time>
      </trkpt>
      <trkpt lat="43.37564" lon="2.43681">
        <ele>844</ele>
        <time>2017-09-24T11:03:31.000Z</time>
      </trkpt>
      <trkpt lat="43.37564" lon="2.4368">
        <ele>844</ele>
        <time>2017-09-24T11:03:32.000Z</time>
      </trkpt>
      <trkpt lat="43.37564" lon="2.43679">
        <ele>844</ele>
        <time>2017-09-24T11:03:33.000Z</time>
      </trkpt>
      <trkpt lat="43.37563" lon="2.43678">
        <ele>844</ele>
        <time>2017-09-24T11:03:34.000Z</time>
      </trkpt>
      <trkpt lat="43.37563" lon="2.43677">
        <ele>844</ele>
        <time>2017-09-24T11:03:35.000Z</time>
      </trkpt>
      <trkpt lat="43.37563" lon="2.43676">
        <ele>844</ele>
        <time>2017-09-24T11:03:36.000Z</time>
      </trkpt>
      <trkpt lat="43.37562" lon="2.43675">
        <ele>843</ele>
        <time>2017-09-24T11:03:37.000Z</time>
      </trkpt>
      <trkpt lat="43.37562" lon="2.43674">
        <ele>843</ele>
        <time>2017-09-24T11:03:38.000Z</time>
      </trkpt>
      <trkpt lat="43.37562" lon="2.43673">
        <ele>843</ele>
        <time>2017-09-24T11:03:39.000Z</time>
      </trkpt>
      <trkpt lat="43.37562" lon="2.43671">
        <ele>843</ele>
        <time>2017-09-24T11:03:40.000Z</time>
      </trkpt>
      <trkpt lat="43.37562" lon="2.4367">
        <ele>843</ele>
        <time>2017-09-24T11:03:41.000Z</time>
      </trkpt>
      <trkpt lat="43.37562" lon="2.43669">
        <ele>843</ele>
        <time>2017-09-24T11:03:42.000Z</time>
      </trkpt>
      <trkpt lat="43.37563" lon="2.43668">
        <ele>843</ele>
        <time>2017-09-24T11:03:43.000Z</time>
      </trkpt>
      <trkpt lat="43.37563" lon="2.43666">
        <ele>843</ele>
        <time>2017-09-24T11:03:44.000Z</time>
      </trkpt>
      <trkpt lat="43.37563" lon="2.43665">
        <ele>843</ele>
        <time>2017-09-24T11:03:45.000Z</time>
      </trkpt>
      <trkpt lat="43.37563" lon="2.43664">
        <ele>843</ele>
        <time>2017-09-24T11:03:46.000Z</time>
      </trkpt>
      <trkpt lat="43.37563" lon="2.43663">
        <ele>843</ele>
        <time>2017-09-24T11:03:47.000Z</time>
      </trkpt>
      <trkpt lat="43.37563" lon="2.43661">
        <ele>843</ele>
        <time>2017-09-24T11:03:48.000Z</time>
      </trkpt>
      <trkpt lat="43.37563" lon="2.4366">
        <ele>843</ele>
        <time>2017-09-24T11:03:49.000Z</time>
      </trkpt>
      <trkpt lat="43.37563" lon="2.43659">
        <ele>843</ele>
        <time>2017-09-24T11:03:50.000Z</time>
      </trkpt>
      <trkpt lat="43.37563" lon="2.43658">
        <ele>843</ele>
        <time>2017-09-24T11:03:51.000Z</time>
      </trkpt>
      <trkpt lat="43.37563" lon="2.43657">
        <ele>843</ele>
        <time>2017-09-24T11:03:52.000Z</time>
      </trkpt>
      <trkpt lat="43.37563" lon="2.43656">
        <ele>843</ele>
        <time>2017-09-24T11:03:53.000Z</time>
      </trkpt>
      <trkpt lat="43.37563" lon="2.43655">
        <ele>843</ele>
        <time>2017-09-24T11:03:54.000Z</time>
      </trkpt>
      <trkpt lat="43.37563" lon="2.43653">
        <ele>843</ele>
        <time>2017-09-24T11:03:55.000Z</time>
      </trkpt>
      <trkpt lat="43.37562" lon="2.43652">
        <ele>843</ele>
        <time>2017-09-24T11:03:56.000Z</time>
      </trkpt>
      <trkpt lat="43.37562" lon="2.43651">
        <ele>843</ele>
        <time>2017-09-24T11:03:57.000Z</time>
      </trkpt>
      <trkpt lat="43.37562" lon="2.43649">
        <ele>843</ele>
        <time>2017-09-24T11:03:58.000Z</time>
      </trkpt>
      <trkpt lat="43.37562" lon="2.43648">
        <ele>843</ele>
        <time>2017-09-24T11:03:59.000Z</time>
      </trkpt>
      <trkpt lat="43.37562" lon="2.43647">
        <ele>843</ele>
        <time>2017-09-24T11:04:00.000Z</time>
      </trkpt>
      <trkpt lat="43.37561" lon="2.43646">
        <ele>843</ele>
        <time>2017-09-24T11:04:01.000Z</time>
      </trkpt>
      <trkpt lat="43.37561" lon="2.43645">
        <ele>843</ele>
        <time>2017-09-24T11:04:02.000Z</time>
      </trkpt>
      <trkpt lat="43.3756" lon="2.43644">
        <ele>843</ele>
        <time>2017-09-24T11:04:03.000Z</time>
      </trkpt>
      <trkpt lat="43.3756" lon="2.43642">
        <ele>843</ele>
        <time>2017-09-24T11:04:04.000Z</time>
      </trkpt>
      <trkpt lat="43.37559" lon="2.43641">
        <ele>843</ele>
        <time>2017-09-24T11:04:05.000Z</time>
      </trkpt>
      <trkpt lat="43.37559" lon="2.4364">
        <ele>843</ele>
        <time>2017-09-24T11:04:06.000Z</time>
      </trkpt>
      <trkpt lat="43.37559" lon="2.43638">
        <ele>843</ele>
        <time>2017-09-24T11:04:07.000Z</time>
      </trkpt>
      <trkpt lat="43.37559" lon="2.43637">
        <ele>843</ele>
        <time>2017-09-24T11:04:08.000Z</time>
      </trkpt>
      <trkpt lat="43.37559" lon="2.43636">
        <ele>843</ele>
        <time>2017-09-24T11:04:09.000Z</time>
      </trkpt>
      <trkpt lat="43.37559" lon="2.43634">
        <ele>843</ele>
        <time>2017-09-24T11:04:10.000Z</time>
      </trkpt>
      <trkpt lat="43.37559" lon="2.43633">
        <ele>843</ele>
        <time>2017-09-24T11:04:11.000Z</time>
      </trkpt>
      <trkpt lat="43.37559" lon="2.43631">
        <ele>844</ele>
        <time>2017-09-24T11:04:12.000Z</time>
      </trkpt>
      <trkpt lat="43.37559" lon="2.4363">
        <ele>843</ele>
        <time>2017-09-24T11:04:13.000Z</time>
      </trkpt>
      <trkpt lat="43.37559" lon="2.43629">
        <ele>844</ele>
        <time>2017-09-24T11:04:14.000Z</time>
      </trkpt>
      <trkpt lat="43.37559" lon="2.43628">
        <ele>843</ele>
        <time>2017-09-24T11:04:15.000Z</time>
      </trkpt>
      <trkpt lat="43.37558" lon="2.43626">
        <ele>844</ele>
        <time>2017-09-24T11:04:16.000Z</time>
      </trkpt>
      <trkpt lat="43.37558" lon="2.43625">
        <ele>844</ele>
        <time>2017-09-24T11:04:17.000Z</time>
      </trkpt>
      <trkpt lat="43.37558" lon="2.43624">
        <ele>844</ele>
        <time>2017-09-24T11:04:18.000Z</time>
      </trkpt>
      <trkpt lat="43.37557" lon="2.43622">
        <ele>844</ele>
        <time>2017-09-24T11:04:19.000Z</time>
      </trkpt>
      <trkpt lat="43.37557" lon="2.43621">
        <ele>844</ele>
        <time>2017-09-24T11:04:20.000Z</time>
      </trkpt>
      <trkpt lat="43.37557" lon="2.4362">
        <ele>844</ele>
        <time>2017-09-24T11:04:21.000Z</time>
      </trkpt>
      <trkpt lat="43.37556" lon="2.43618">
        <ele>844</ele>
        <time>2017-09-24T11:04:22.000Z</time>
      </trkpt>
      <trkpt lat="43.37556" lon="2.43617">
        <ele>844</ele>
        <time>2017-09-24T11:04:23.000Z</time>
      </trkpt>
      <trkpt lat="43.37556" lon="2.43616">
        <ele>844</ele>
        <time>2017-09-24T11:04:24.000Z</time>
      </trkpt>
      <trkpt lat="43.37555" lon="2.43615">
        <ele>844</ele>
        <time>2017-09-24T11:04:25.000Z</time>
      </trkpt>
      <trkpt lat="43.37555" lon="2.43614">
        <ele>844</ele>
        <time>2017-09-24T11:04:26.000Z</time>
      </trkpt>
      <trkpt lat="43.37556" lon="2.43613">
        <ele>844</ele>
        <time>2017-09-24T11:04:27.000Z</time>
      </trkpt>
      <trkpt lat="43.37555" lon="2.43612">
        <ele>844</ele>
        <time>2017-09-24T11:04:28.000Z</time>
      </trkpt>
      <trkpt lat="43.37555" lon="2.43611">
        <ele>844</ele>
        <time>2017-09-24T11:04:29.000Z</time>
      </trkpt>
      <trkpt lat="43.37556" lon="2.4361">
        <ele>844</ele>
        <time>2017-09-24T11:04:30.000Z</time>
      </trkpt>
      <trkpt lat="43.37556" lon="2.43609">
        <ele>844</ele>
        <time>2017-09-24T11:04:31.000Z</time>
      </trkpt>
      <trkpt lat="43.37556" lon="2.43608">
        <ele>844</ele>
        <time>2017-09-24T11:04:32.000Z</time>
      </trkpt>
      <trkpt lat="43.37556" lon="2.43607">
        <ele>844</ele>
        <time>2017-09-24T11:04:33.000Z</time>
      </trkpt>
      <trkpt lat="43.37556" lon="2.43606">
        <ele>844</ele>
        <time>2017-09-24T11:04:34.000Z</time>
      </trkpt>
      <trkpt lat="43.37556" lon="2.43605">
        <ele>844</ele>
        <time>2017-09-24T11:04:35.000Z</time>
      </trkpt>
      <trkpt lat="43.37556" lon="2.43604">
        <ele>844</ele>
        <time>2017-09-24T11:04:36.000Z</time>
      </trkpt>
      <trkpt lat="43.37556" lon="2.43603">
        <ele>844</ele>
        <time>2017-09-24T11:04:37.000Z</time>
      </trkpt>
      <trkpt lat="43.37556" lon="2.43602">
        <ele>844</ele>
        <time>2017-09-24T11:04:38.000Z</time>
      </trkpt>
      <trkpt lat="43.37556" lon="2.43601">
        <ele>844</ele>
        <time>2017-09-24T11:04:39.000Z</time>
      </trkpt>
      <trkpt lat="43.37556" lon="2.436">
        <ele>844</ele>
        <time>2017-09-24T11:04:40.000Z</time>
      </trkpt>
      <trkpt lat="43.37556" lon="2.43598">
        <ele>844</ele>
        <time>2017-09-24T11:04:41.000Z</time>
      </trkpt>
      <trkpt lat="43.37555" lon="2.43597">
        <ele>844</ele>
        <time>2017-09-24T11:04:42.000Z</time>
      </trkpt>
      <trkpt lat="43.37555" lon="2.43596">
        <ele>844</ele>
        <time>2017-09-24T11:04:43.000Z</time>
      </trkpt>
      <trkpt lat="43.37555" lon="2.43594">
        <ele>844</ele>
        <time>2017-09-24T11:04:44.000Z</time>
      </trkpt>
      <trkpt lat="43.37555" lon="2.43593">
        <ele>844</ele>
        <time>2017-09-24T11:04:45.000Z</time>
      </trkpt>
      <trkpt lat="43.37554" lon="2.43591">
        <ele>844</ele>
        <time>2017-09-24T11:04:46.000Z</time>
      </trkpt>
      <trkpt lat="43.37554" lon="2.4359">
        <ele>844</ele>
        <time>2017-09-24T11:04:47.000Z</time>
      </trkpt>
      <trkpt lat="43.37554" lon="2.43589">
        <ele>844</ele>
        <time>2017-09-24T11:04:48.000Z</time>
      </trkpt>
      <trkpt lat="43.37554" lon="2.43587">
        <ele>844</ele>
        <time>2017-09-24T11:04:49.000Z</time>
      </trkpt>
      <trkpt lat="43.37554" lon="2.43586">
        <ele>845</ele>
        <time>2017-09-24T11:04:50.000Z</time>
      </trkpt>
      <trkpt lat="43.37554" lon="2.43585">
        <ele>845</ele>
        <time>2017-09-24T11:04:51.000Z</time>
      </trkpt>
      <trkpt lat="43.37554" lon="2.43583">
        <ele>845</ele>
        <time>2017-09-24T11:04:52.000Z</time>
      </trkpt>
      <trkpt lat="43.37554" lon="2.43582">
        <ele>844</ele>
        <time>2017-09-24T11:04:53.000Z</time>
      </trkpt>
      <trkpt lat="43.37554" lon="2.43581">
        <ele>844</ele>
        <time>2017-09-24T11:04:54.000Z</time>
      </trkpt>
      <trkpt lat="43.37554" lon="2.43579">
        <ele>844</ele>
        <time>2017-09-24T11:04:55.000Z</time>
      </trkpt>
      <trkpt lat="43.37554" lon="2.43578">
        <ele>844</ele>
        <time>2017-09-24T11:04:56.000Z</time>
      </trkpt>
      <trkpt lat="43.37555" lon="2.43577">
        <ele>844</ele>
        <time>2017-09-24T11:04:57.000Z</time>
      </trkpt>
      <trkpt lat="43.37555" lon="2.43576">
        <ele>844</ele>
        <time>2017-09-24T11:04:58.000Z</time>
      </trkpt>
      <trkpt lat="43.37555" lon="2.43575">
        <ele>844</ele>
        <time>2017-09-24T11:04:59.000Z</time>
      </trkpt>
      <trkpt lat="43.37554" lon="2.43574">
        <ele>844</ele>
        <time>2017-09-24T11:05:00.000Z</time>
      </trkpt>
      <trkpt lat="43.37554" lon="2.43572">
        <ele>844</ele>
        <time>2017-09-24T11:05:01.000Z</time>
      </trkpt>
      <trkpt lat="43.37554" lon="2.43571">
        <ele>844</ele>
        <time>2017-09-24T11:05:02.000Z</time>
      </trkpt>
      <trkpt lat="43.37553" lon="2.4357">
        <ele>844</ele>
        <time>2017-09-24T11:05:03.000Z</time>
      </trkpt>
      <trkpt lat="43.37553" lon="2.43568">
        <ele>844</ele>
        <time>2017-09-24T11:05:04.000Z</time>
      </trkpt>
      <trkpt lat="43.37553" lon="2.43567">
        <ele>844</ele>
        <time>2017-09-24T11:05:05.000Z</time>
      </trkpt>
      <trkpt lat="43.37552" lon="2.43565">
        <ele>844</ele>
        <time>2017-09-24T11:05:06.000Z</time>
      </trkpt>
      <trkpt lat="43.37552" lon="2.43564">
        <ele>844</ele>
        <time>2017-09-24T11:05:07.000Z</time>
      </trkpt>
      <trkpt lat="43.37552" lon="2.43562">
        <ele>844</ele>
        <time>2017-09-24T11:05:08.000Z</time>
      </trkpt>
      <trkpt lat="43.37552" lon="2.43561">
        <ele>844</ele>
        <time>2017-09-24T11:05:09.000Z</time>
      </trkpt>
      <trkpt lat="43.37551" lon="2.43559">
        <ele>844</ele>
        <time>2017-09-24T11:05:10.000Z</time>
      </trkpt>
      <trkpt lat="43.37551" lon="2.43558">
        <ele>844</ele>
        <time>2017-09-24T11:05:11.000Z</time>
      </trkpt>
      <trkpt lat="43.37551" lon="2.43556">
        <ele>844</ele>
        <time>2017-09-24T11:05:12.000Z</time>
      </trkpt>
      <trkpt lat="43.37551" lon="2.43555">
        <ele>844</ele>
        <time>2017-09-24T11:05:13.000Z</time>
      </trkpt>
      <trkpt lat="43.37551" lon="2.43554">
        <ele>844</ele>
        <time>2017-09-24T11:05:14.000Z</time>
      </trkpt>
      <trkpt lat="43.37551" lon="2.43552">
        <ele>844</ele>
        <time>2017-09-24T11:05:15.000Z</time>
      </trkpt>
      <trkpt lat="43.37551" lon="2.43551">
        <ele>844</ele>
        <time>2017-09-24T11:05:16.000Z</time>
      </trkpt>
      <trkpt lat="43.37551" lon="2.43549">
        <ele>844</ele>
        <time>2017-09-24T11:05:17.000Z</time>
      </trkpt>
      <trkpt lat="43.37551" lon="2.43548">
        <ele>844</ele>
        <time>2017-09-24T11:05:18.000Z</time>
      </trkpt>
      <trkpt lat="43.37551" lon="2.43547">
        <ele>844</ele>
        <time>2017-09-24T11:05:19.000Z</time>
      </trkpt>
      <trkpt lat="43.37551" lon="2.43545">
        <ele>844</ele>
        <time>2017-09-24T11:05:20.000Z</time>
      </trkpt>
      <trkpt lat="43.3755" lon="2.43544">
        <ele>844</ele>
        <time>2017-09-24T11:05:21.000Z</time>
      </trkpt>
      <trkpt lat="43.37549" lon="2.43543">
        <ele>844</ele>
        <time>2017-09-24T11:05:22.000Z</time>
      </trkpt>
      <trkpt lat="43.37549" lon="2.43541">
        <ele>844</ele>
        <time>2017-09-24T11:05:23.000Z</time>
      </trkpt>
      <trkpt lat="43.37549" lon="2.4354">
        <ele>844</ele>
        <time>2017-09-24T11:05:24.000Z</time>
      </trkpt>
      <trkpt lat="43.37549" lon="2.43538">
        <ele>844</ele>
        <time>2017-09-24T11:05:25.000Z</time>
      </trkpt>
      <trkpt lat="43.37548" lon="2.43537">
        <ele>844</ele>
        <time>2017-09-24T11:05:26.000Z</time>
      </trkpt>
      <trkpt lat="43.37548" lon="2.43536">
        <ele>844</ele>
        <time>2017-09-24T11:05:27.000Z</time>
      </trkpt>
      <trkpt lat="43.37548" lon="2.43534">
        <ele>844</ele>
        <time>2017-09-24T11:05:28.000Z</time>
      </trkpt>
      <trkpt lat="43.37548" lon="2.43532">
        <ele>844</ele>
        <time>2017-09-24T11:05:29.000Z</time>
      </trkpt>
      <trkpt lat="43.37548" lon="2.43531">
        <ele>844</ele>
        <time>2017-09-24T11:05:30.000Z</time>
      </trkpt>
      <trkpt lat="43.37547" lon="2.4353">
        <ele>844</ele>
        <time>2017-09-24T11:05:31.000Z</time>
      </trkpt>
      <trkpt lat="43.37547" lon="2.43528">
        <ele>844</ele>
        <time>2017-09-24T11:05:32.000Z</time>
      </trkpt>
      <trkpt lat="43.37547" lon="2.43527">
        <ele>844</ele>
        <time>2017-09-24T11:05:33.000Z</time>
      </trkpt>
      <trkpt lat="43.37547" lon="2.43526">
        <ele>844</ele>
        <time>2017-09-24T11:05:34.000Z</time>
      </trkpt>
      <trkpt lat="43.37546" lon="2.43524">
        <ele>844</ele>
        <time>2017-09-24T11:05:35.000Z</time>
      </trkpt>
      <trkpt lat="43.37546" lon="2.43523">
        <ele>844</ele>
        <time>2017-09-24T11:05:36.000Z</time>
      </trkpt>
      <trkpt lat="43.37545" lon="2.43522">
        <ele>844</ele>
        <time>2017-09-24T11:05:37.000Z</time>
      </trkpt>
      <trkpt lat="43.37545" lon="2.43521">
        <ele>844</ele>
        <time>2017-09-24T11:05:38.000Z</time>
      </trkpt>
      <trkpt lat="43.37544" lon="2.43519">
        <ele>844</ele>
        <time>2017-09-24T11:05:39.000Z</time>
      </trkpt>
      <trkpt lat="43.37544" lon="2.43518">
        <ele>844</ele>
        <time>2017-09-24T11:05:40.000Z</time>
      </trkpt>
      <trkpt lat="43.37544" lon="2.43516">
        <ele>844</ele>
        <time>2017-09-24T11:05:41.000Z</time>
      </trkpt>
      <trkpt lat="43.37544" lon="2.43515">
        <ele>844</ele>
        <time>2017-09-24T11:05:42.000Z</time>
      </trkpt>
      <trkpt lat="43.37544" lon="2.43514">
        <ele>844</ele>
        <time>2017-09-24T11:05:43.000Z</time>
      </trkpt>
      <trkpt lat="43.37543" lon="2.43512">
        <ele>844</ele>
        <time>2017-09-24T11:05:44.000Z</time>
      </trkpt>
      <trkpt lat="43.37543" lon="2.43511">
        <ele>844</ele>
        <time>2017-09-24T11:05:45.000Z</time>
      </trkpt>
      <trkpt lat="43.37543" lon="2.43509">
        <ele>844</ele>
        <time>2017-09-24T11:05:46.000Z</time>
      </trkpt>
      <trkpt lat="43.37543" lon="2.43508">
        <ele>844</ele>
        <time>2017-09-24T11:05:47.000Z</time>
      </trkpt>
      <trkpt lat="43.37543" lon="2.43506">
        <ele>844</ele>
        <time>2017-09-24T11:05:48.000Z</time>
      </trkpt>
      <trkpt lat="43.37542" lon="2.43505">
        <ele>844</ele>
        <time>2017-09-24T11:05:49.000Z</time>
      </trkpt>
      <trkpt lat="43.37542" lon="2.43504">
        <ele>844</ele>
        <time>2017-09-24T11:05:50.000Z</time>
      </trkpt>
      <trkpt lat="43.37542" lon="2.43502">
        <ele>844</ele>
        <time>2017-09-24T11:05:51.000Z</time>
      </trkpt>
      <trkpt lat="43.37542" lon="2.43501">
        <ele>844</ele>
        <time>2017-09-24T11:05:52.000Z</time>
      </trkpt>
      <trkpt lat="43.37542" lon="2.435">
        <ele>844</ele>
        <time>2017-09-24T11:05:53.000Z</time>
      </trkpt>
      <trkpt lat="43.37541" lon="2.43499">
        <ele>845</ele>
        <time>2017-09-24T11:05:54.000Z</time>
      </trkpt>
      <trkpt lat="43.37541" lon="2.43497">
        <ele>845</ele>
        <time>2017-09-24T11:05:55.000Z</time>
      </trkpt>
      <trkpt lat="43.37541" lon="2.43496">
        <ele>845</ele>
        <time>2017-09-24T11:05:56.000Z</time>
      </trkpt>
      <trkpt lat="43.37541" lon="2.43494">
        <ele>845</ele>
        <time>2017-09-24T11:05:57.000Z</time>
      </trkpt>
      <trkpt lat="43.3754" lon="2.43493">
        <ele>845</ele>
        <time>2017-09-24T11:05:58.000Z</time>
      </trkpt>
      <trkpt lat="43.3754" lon="2.43491">
        <ele>845</ele>
        <time>2017-09-24T11:05:59.000Z</time>
      </trkpt>
      <trkpt lat="43.3754" lon="2.4349">
        <ele>845</ele>
        <time>2017-09-24T11:06:00.000Z</time>
      </trkpt>
      <trkpt lat="43.3754" lon="2.43488">
        <ele>844</ele>
        <time>2017-09-24T11:06:01.000Z</time>
      </trkpt>
      <trkpt lat="43.3754" lon="2.43487">
        <ele>844</ele>
        <time>2017-09-24T11:06:02.000Z</time>
      </trkpt>
      <trkpt lat="43.37539" lon="2.43485">
        <ele>844</ele>
        <time>2017-09-24T11:06:03.000Z</time>
      </trkpt>
      <trkpt lat="43.37539" lon="2.43484">
        <ele>845</ele>
        <time>2017-09-24T11:06:04.000Z</time>
      </trkpt>
      <trkpt lat="43.37539" lon="2.43483">
        <ele>844</ele>
        <time>2017-09-24T11:06:05.000Z</time>
      </trkpt>
      <trkpt lat="43.37538" lon="2.43481">
        <ele>845</ele>
        <time>2017-09-24T11:06:06.000Z</time>
      </trkpt>
      <trkpt lat="43.37538" lon="2.4348">
        <ele>845</ele>
        <time>2017-09-24T11:06:07.000Z</time>
      </trkpt>
      <trkpt lat="43.37538" lon="2.43479">
        <ele>845</ele>
        <time>2017-09-24T11:06:08.000Z</time>
      </trkpt>
      <trkpt lat="43.37537" lon="2.43477">
        <ele>845</ele>
        <time>2017-09-24T11:06:09.000Z</time>
      </trkpt>
      <trkpt lat="43.37537" lon="2.43476">
        <ele>845</ele>
        <time>2017-09-24T11:06:10.000Z</time>
      </trkpt>
      <trkpt lat="43.37537" lon="2.43475">
        <ele>845</ele>
        <time>2017-09-24T11:06:11.000Z</time>
      </trkpt>
      <trkpt lat="43.37537" lon="2.43473">
        <ele>845</ele>
        <time>2017-09-24T11:06:12.000Z</time>
      </trkpt>
      <trkpt lat="43.37537" lon="2.43472">
        <ele>845</ele>
        <time>2017-09-24T11:06:13.000Z</time>
      </trkpt>
      <trkpt lat="43.37536" lon="2.4347">
        <ele>845</ele>
        <time>2017-09-24T11:06:14.000Z</time>
      </trkpt>
      <trkpt lat="43.37536" lon="2.43469">
        <ele>845</ele>
        <time>2017-09-24T11:06:15.000Z</time>
      </trkpt>
      <trkpt lat="43.37536" lon="2.43468">
        <ele>845</ele>
        <time>2017-09-24T11:06:16.000Z</time>
      </trkpt>
      <trkpt lat="43.37535" lon="2.43466">
        <ele>845</ele>
        <time>2017-09-24T11:06:17.000Z</time>
      </trkpt>
      <trkpt lat="43.37535" lon="2.43465">
        <ele>845</ele>
        <time>2017-09-24T11:06:18.000Z</time>
      </trkpt>
      <trkpt lat="43.37535" lon="2.43464">
        <ele>845</ele>
        <time>2017-09-24T11:06:19.000Z</time>
      </trkpt>
      <trkpt lat="43.37534" lon="2.43462">
        <ele>845</ele>
        <time>2017-09-24T11:06:20.000Z</time>
      </trkpt>
      <trkpt lat="43.37534" lon="2.43461">
        <ele>845</ele>
        <time>2017-09-24T11:06:21.000Z</time>
      </trkpt>
      <trkpt lat="43.37533" lon="2.43459">
        <ele>845</ele>
        <time>2017-09-24T11:06:22.000Z</time>
      </trkpt>
      <trkpt lat="43.37531" lon="2.43457">
        <ele>845</ele>
        <time>2017-09-24T11:06:23.000Z</time>
      </trkpt>
      <trkpt lat="43.3753" lon="2.43456">
        <ele>845</ele>
        <time>2017-09-24T11:06:24.000Z</time>
      </trkpt>
      <trkpt lat="43.37529" lon="2.43454">
        <ele>845</ele>
        <time>2017-09-24T11:06:25.000Z</time>
      </trkpt>
      <trkpt lat="43.37529" lon="2.43453">
        <ele>845</ele>
        <time>2017-09-24T11:06:26.000Z</time>
      </trkpt>
      <trkpt lat="43.37528" lon="2.43452">
        <ele>845</ele>
        <time>2017-09-24T11:06:27.000Z</time>
      </trkpt>
      <trkpt lat="43.37528" lon="2.4345">
        <ele>846</ele>
        <time>2017-09-24T11:06:28.000Z</time>
      </trkpt>
      <trkpt lat="43.37528" lon="2.43449">
        <ele>846</ele>
        <time>2017-09-24T11:06:29.000Z</time>
      </trkpt>
      <trkpt lat="43.37528" lon="2.43447">
        <ele>846</ele>
        <time>2017-09-24T11:06:30.000Z</time>
      </trkpt>
      <trkpt lat="43.37527" lon="2.43446">
        <ele>846</ele>
        <time>2017-09-24T11:06:31.000Z</time>
      </trkpt>
      <trkpt lat="43.37527" lon="2.43445">
        <ele>846</ele>
        <time>2017-09-24T11:06:32.000Z</time>
      </trkpt>
      <trkpt lat="43.37527" lon="2.43443">
        <ele>846</ele>
        <time>2017-09-24T11:06:33.000Z</time>
      </trkpt>
      <trkpt lat="43.37527" lon="2.43442">
        <ele>846</ele>
        <time>2017-09-24T11:06:34.000Z</time>
      </trkpt>
      <trkpt lat="43.37526" lon="2.4344">
        <ele>846</ele>
        <time>2017-09-24T11:06:35.000Z</time>
      </trkpt>
      <trkpt lat="43.37526" lon="2.43439">
        <ele>846</ele>
        <time>2017-09-24T11:06:36.000Z</time>
      </trkpt>
      <trkpt lat="43.37525" lon="2.43437">
        <ele>846</ele>
        <time>2017-09-24T11:06:37.000Z</time>
      </trkpt>
      <trkpt lat="43.37525" lon="2.43436">
        <ele>846</ele>
        <time>2017-09-24T11:06:38.000Z</time>
      </trkpt>
      <trkpt lat="43.37525" lon="2.43434">
        <ele>846</ele>
        <time>2017-09-24T11:06:39.000Z</time>
      </trkpt>
      <trkpt lat="43.37525" lon="2.43433">
        <ele>846</ele>
        <time>2017-09-24T11:06:40.000Z</time>
      </trkpt>
      <trkpt lat="43.37525" lon="2.43432">
        <ele>846</ele>
        <time>2017-09-24T11:06:41.000Z</time>
      </trkpt>
      <trkpt lat="43.37525" lon="2.4343">
        <ele>845</ele>
        <time>2017-09-24T11:06:42.000Z</time>
      </trkpt>
      <trkpt lat="43.37524" lon="2.43429">
        <ele>846</ele>
        <time>2017-09-24T11:06:43.000Z</time>
      </trkpt>
      <trkpt lat="43.37524" lon="2.43427">
        <ele>846</ele>
        <time>2017-09-24T11:06:44.000Z</time>
      </trkpt>
      <trkpt lat="43.37524" lon="2.43426">
        <ele>846</ele>
        <time>2017-09-24T11:06:45.000Z</time>
      </trkpt>
      <trkpt lat="43.37524" lon="2.43425">
        <ele>845</ele>
        <time>2017-09-24T11:06:46.000Z</time>
      </trkpt>
      <trkpt lat="43.37523" lon="2.43424">
        <ele>845</ele>
        <time>2017-09-24T11:06:47.000Z</time>
      </trkpt>
      <trkpt lat="43.37523" lon="2.43423">
        <ele>845</ele>
        <time>2017-09-24T11:06:48.000Z</time>
      </trkpt>
      <trkpt lat="43.37523" lon="2.43421">
        <ele>845</ele>
        <time>2017-09-24T11:06:49.000Z</time>
      </trkpt>
      <trkpt lat="43.37523" lon="2.4342">
        <ele>845</ele>
        <time>2017-09-24T11:06:50.000Z</time>
      </trkpt>
      <trkpt lat="43.37523" lon="2.43418">
        <ele>845</ele>
        <time>2017-09-24T11:06:51.000Z</time>
      </trkpt>
      <trkpt lat="43.37522" lon="2.43417">
        <ele>845</ele>
        <time>2017-09-24T11:06:52.000Z</time>
      </trkpt>
      <trkpt lat="43.37522" lon="2.43415">
        <ele>845</ele>
        <time>2017-09-24T11:06:53.000Z</time>
      </trkpt>
      <trkpt lat="43.37522" lon="2.43414">
        <ele>845</ele>
        <time>2017-09-24T11:06:54.000Z</time>
      </trkpt>
      <trkpt lat="43.37522" lon="2.43412">
        <ele>845</ele>
        <time>2017-09-24T11:06:55.000Z</time>
      </trkpt>
      <trkpt lat="43.37522" lon="2.43411">
        <ele>845</ele>
        <time>2017-09-24T11:06:56.000Z</time>
      </trkpt>
      <trkpt lat="43.37523" lon="2.43409">
        <ele>845</ele>
        <time>2017-09-24T11:06:57.000Z</time>
      </trkpt>
      <trkpt lat="43.37522" lon="2.43408">
        <ele>845</ele>
        <time>2017-09-24T11:06:58.000Z</time>
      </trkpt>
      <trkpt lat="43.37522" lon="2.43406">
        <ele>845</ele>
        <time>2017-09-24T11:06:59.000Z</time>
      </trkpt>
      <trkpt lat="43.37522" lon="2.43405">
        <ele>845</ele>
        <time>2017-09-24T11:07:00.000Z</time>
      </trkpt>
      <trkpt lat="43.37522" lon="2.43403">
        <ele>845</ele>
        <time>2017-09-24T11:07:01.000Z</time>
      </trkpt>
      <trkpt lat="43.37521" lon="2.43402">
        <ele>845</ele>
        <time>2017-09-24T11:07:02.000Z</time>
      </trkpt>
      <trkpt lat="43.37521" lon="2.43401">
        <ele>845</ele>
        <time>2017-09-24T11:07:03.000Z</time>
      </trkpt>
      <trkpt lat="43.37521" lon="2.43399">
        <ele>845</ele>
        <time>2017-09-24T11:07:04.000Z</time>
      </trkpt>
      <trkpt lat="43.37521" lon="2.43398">
        <ele>845</ele>
        <time>2017-09-24T11:07:05.000Z</time>
      </trkpt>
      <trkpt lat="43.37521" lon="2.43396">
        <ele>845</ele>
        <time>2017-09-24T11:07:06.000Z</time>
      </trkpt>
      <trkpt lat="43.3752" lon="2.43395">
        <ele>845</ele>
        <time>2017-09-24T11:07:07.000Z</time>
      </trkpt>
      <trkpt lat="43.3752" lon="2.43393">
        <ele>845</ele>
        <time>2017-09-24T11:07:08.000Z</time>
      </trkpt>
      <trkpt lat="43.3752" lon="2.43392">
        <ele>845</ele>
        <time>2017-09-24T11:07:09.000Z</time>
      </trkpt>
      <trkpt lat="43.3752" lon="2.4339">
        <ele>845</ele>
        <time>2017-09-24T11:07:10.000Z</time>
      </trkpt>
      <trkpt lat="43.37519" lon="2.43389">
        <ele>845</ele>
        <time>2017-09-24T11:07:11.000Z</time>
      </trkpt>
      <trkpt lat="43.37519" lon="2.43387">
        <ele>846</ele>
        <time>2017-09-24T11:07:12.000Z</time>
      </trkpt>
      <trkpt lat="43.37519" lon="2.43386">
        <ele>845</ele>
        <time>2017-09-24T11:07:13.000Z</time>
      </trkpt>
      <trkpt lat="43.37518" lon="2.43385">
        <ele>846</ele>
        <time>2017-09-24T11:07:14.000Z</time>
      </trkpt>
      <trkpt lat="43.37518" lon="2.43384">
        <ele>846</ele>
        <time>2017-09-24T11:07:15.000Z</time>
      </trkpt>
      <trkpt lat="43.37518" lon="2.43382">
        <ele>846</ele>
        <time>2017-09-24T11:07:16.000Z</time>
      </trkpt>
      <trkpt lat="43.37517" lon="2.4338">
        <ele>846</ele>
        <time>2017-09-24T11:07:17.000Z</time>
      </trkpt>
      <trkpt lat="43.37517" lon="2.43379">
        <ele>846</ele>
        <time>2017-09-24T11:07:18.000Z</time>
      </trkpt>
      <trkpt lat="43.37517" lon="2.43378">
        <ele>846</ele>
        <time>2017-09-24T11:07:19.000Z</time>
      </trkpt>
      <trkpt lat="43.37517" lon="2.43376">
        <ele>846</ele>
        <time>2017-09-24T11:07:20.000Z</time>
      </trkpt>
      <trkpt lat="43.37517" lon="2.43375">
        <ele>846</ele>
        <time>2017-09-24T11:07:21.000Z</time>
      </trkpt>
      <trkpt lat="43.37517" lon="2.43374">
        <ele>846</ele>
        <time>2017-09-24T11:07:22.000Z</time>
      </trkpt>
      <trkpt lat="43.37517" lon="2.43372">
        <ele>846</ele>
        <time>2017-09-24T11:07:23.000Z</time>
      </trkpt>
      <trkpt lat="43.37517" lon="2.43371">
        <ele>846</ele>
        <time>2017-09-24T11:07:24.000Z</time>
      </trkpt>
      <trkpt lat="43.37517" lon="2.4337">
        <ele>846</ele>
        <time>2017-09-24T11:07:25.000Z</time>
      </trkpt>
      <trkpt lat="43.37517" lon="2.43369">
        <ele>846</ele>
        <time>2017-09-24T11:07:26.000Z</time>
      </trkpt>
      <trkpt lat="43.37517" lon="2.43367">
        <ele>846</ele>
        <time>2017-09-24T11:07:27.000Z</time>
      </trkpt>
      <trkpt lat="43.37517" lon="2.43366">
        <ele>846</ele>
        <time>2017-09-24T11:07:28.000Z</time>
      </trkpt>
      <trkpt lat="43.37517" lon="2.43364">
        <ele>846</ele>
        <time>2017-09-24T11:07:29.000Z</time>
      </trkpt>
      <trkpt lat="43.37516" lon="2.43363">
        <ele>846</ele>
        <time>2017-09-24T11:07:30.000Z</time>
      </trkpt>
      <trkpt lat="43.37516" lon="2.43362">
        <ele>846</ele>
        <time>2017-09-24T11:07:31.000Z</time>
      </trkpt>
      <trkpt lat="43.37516" lon="2.4336">
        <ele>846</ele>
        <time>2017-09-24T11:07:32.000Z</time>
      </trkpt>
      <trkpt lat="43.37516" lon="2.43359">
        <ele>846</ele>
        <time>2017-09-24T11:07:33.000Z</time>
      </trkpt>
      <trkpt lat="43.37515" lon="2.43357">
        <ele>846</ele>
        <time>2017-09-24T11:07:34.000Z</time>
      </trkpt>
      <trkpt lat="43.37516" lon="2.43356">
        <ele>846</ele>
        <time>2017-09-24T11:07:35.000Z</time>
      </trkpt>
      <trkpt lat="43.37516" lon="2.43354">
        <ele>846</ele>
        <time>2017-09-24T11:07:36.000Z</time>
      </trkpt>
      <trkpt lat="43.37516" lon="2.43352">
        <ele>846</ele>
        <time>2017-09-24T11:07:37.000Z</time>
      </trkpt>
      <trkpt lat="43.37516" lon="2.43351">
        <ele>846</ele>
        <time>2017-09-24T11:07:38.000Z</time>
      </trkpt>
      <trkpt lat="43.37516" lon="2.43349">
        <ele>846</ele>
        <time>2017-09-24T11:07:39.000Z</time>
      </trkpt>
      <trkpt lat="43.37516" lon="2.43348">
        <ele>846</ele>
        <time>2017-09-24T11:07:40.000Z</time>
      </trkpt>
      <trkpt lat="43.37516" lon="2.43347">
        <ele>846</ele>
        <time>2017-09-24T11:07:41.000Z</time>
      </trkpt>
      <trkpt lat="43.37515" lon="2.43345">
        <ele>846</ele>
        <time>2017-09-24T11:07:42.000Z</time>
      </trkpt>
      <trkpt lat="43.37515" lon="2.43343">
        <ele>846</ele>
        <time>2017-09-24T11:07:43.000Z</time>
      </trkpt>
      <trkpt lat="43.37515" lon="2.43342">
        <ele>846</ele>
        <time>2017-09-24T11:07:44.000Z</time>
      </trkpt>
      <trkpt lat="43.37515" lon="2.4334">
        <ele>846</ele>
        <time>2017-09-24T11:07:45.000Z</time>
      </trkpt>
      <trkpt lat="43.37514" lon="2.43339">
        <ele>846</ele>
        <time>2017-09-24T11:07:46.000Z</time>
      </trkpt>
      <trkpt lat="43.37514" lon="2.43337">
        <ele>846</ele>
        <time>2017-09-24T11:07:47.000Z</time>
      </trkpt>
      <trkpt lat="43.37514" lon="2.43336">
        <ele>846</ele>
        <time>2017-09-24T11:07:48.000Z</time>
      </trkpt>
      <trkpt lat="43.37514" lon="2.43335">
        <ele>846</ele>
        <time>2017-09-24T11:07:49.000Z</time>
      </trkpt>
      <trkpt lat="43.37514" lon="2.43333">
        <ele>846</ele>
        <time>2017-09-24T11:07:50.000Z</time>
      </trkpt>
      <trkpt lat="43.37513" lon="2.43331">
        <ele>846</ele>
        <time>2017-09-24T11:07:51.000Z</time>
      </trkpt>
      <trkpt lat="43.37513" lon="2.4333">
        <ele>846</ele>
        <time>2017-09-24T11:07:52.000Z</time>
      </trkpt>
      <trkpt lat="43.37513" lon="2.43329">
        <ele>846</ele>
        <time>2017-09-24T11:07:53.000Z</time>
      </trkpt>
      <trkpt lat="43.37513" lon="2.43327">
        <ele>845</ele>
        <time>2017-09-24T11:07:54.000Z</time>
      </trkpt>
      <trkpt lat="43.37513" lon="2.43325">
        <ele>845</ele>
        <time>2017-09-24T11:07:55.000Z</time>
      </trkpt>
      <trkpt lat="43.37512" lon="2.43324">
        <ele>845</ele>
        <time>2017-09-24T11:07:56.000Z</time>
      </trkpt>
      <trkpt lat="43.37512" lon="2.43322">
        <ele>845</ele>
        <time>2017-09-24T11:07:57.000Z</time>
      </trkpt>
      <trkpt lat="43.37511" lon="2.43321">
        <ele>845</ele>
        <time>2017-09-24T11:07:58.000Z</time>
      </trkpt>
      <trkpt lat="43.37511" lon="2.43319">
        <ele>845</ele>
        <time>2017-09-24T11:07:59.000Z</time>
      </trkpt>
      <trkpt lat="43.37511" lon="2.43318">
        <ele>845</ele>
        <time>2017-09-24T11:08:00.000Z</time>
      </trkpt>
      <trkpt lat="43.37511" lon="2.43316">
        <ele>844</ele>
        <time>2017-09-24T11:08:01.000Z</time>
      </trkpt>
      <trkpt lat="43.37511" lon="2.43315">
        <ele>844</ele>
        <time>2017-09-24T11:08:02.000Z</time>
      </trkpt>
      <trkpt lat="43.37511" lon="2.43313">
        <ele>844</ele>
        <time>2017-09-24T11:08:03.000Z</time>
      </trkpt>
      <trkpt lat="43.37511" lon="2.43312">
        <ele>844</ele>
        <time>2017-09-24T11:08:04.000Z</time>
      </trkpt>
      <trkpt lat="43.3751" lon="2.4331">
        <ele>844</ele>
        <time>2017-09-24T11:08:05.000Z</time>
      </trkpt>
      <trkpt lat="43.3751" lon="2.43309">
        <ele>844</ele>
        <time>2017-09-24T11:08:06.000Z</time>
      </trkpt>
      <trkpt lat="43.3751" lon="2.43307">
        <ele>844</ele>
        <time>2017-09-24T11:08:07.000Z</time>
      </trkpt>
      <trkpt lat="43.3751" lon="2.43306">
        <ele>843</ele>
        <time>2017-09-24T11:08:08.000Z</time>
      </trkpt>
      <trkpt lat="43.3751" lon="2.43304">
        <ele>843</ele>
        <time>2017-09-24T11:08:09.000Z</time>
      </trkpt>
      <trkpt lat="43.37509" lon="2.43303">
        <ele>843</ele>
        <time>2017-09-24T11:08:10.000Z</time>
      </trkpt>
      <trkpt lat="43.37509" lon="2.43301">
        <ele>843</ele>
        <time>2017-09-24T11:08:11.000Z</time>
      </trkpt>
      <trkpt lat="43.37509" lon="2.433">
        <ele>843</ele>
        <time>2017-09-24T11:08:12.000Z</time>
      </trkpt>
      <trkpt lat="43.37509" lon="2.43298">
        <ele>843</ele>
        <time>2017-09-24T11:08:13.000Z</time>
      </trkpt>
      <trkpt lat="43.37509" lon="2.43297">
        <ele>843</ele>
        <time>2017-09-24T11:08:14.000Z</time>
      </trkpt>
      <trkpt lat="43.37508" lon="2.43295">
        <ele>842</ele>
        <time>2017-09-24T11:08:15.000Z</time>
      </trkpt>
      <trkpt lat="43.37508" lon="2.43294">
        <ele>842</ele>
        <time>2017-09-24T11:08:16.000Z</time>
      </trkpt>
      <trkpt lat="43.37508" lon="2.43292">
        <ele>842</ele>
        <time>2017-09-24T11:08:17.000Z</time>
      </trkpt>
      <trkpt lat="43.37508" lon="2.43291">
        <ele>842</ele>
        <time>2017-09-24T11:08:18.000Z</time>
      </trkpt>
      <trkpt lat="43.37508" lon="2.43289">
        <ele>842</ele>
        <time>2017-09-24T11:08:19.000Z</time>
      </trkpt>
      <trkpt lat="43.37508" lon="2.43288">
        <ele>842</ele>
        <time>2017-09-24T11:08:20.000Z</time>
      </trkpt>
      <trkpt lat="43.37508" lon="2.43286">
        <ele>842</ele>
        <time>2017-09-24T11:08:21.000Z</time>
      </trkpt>
      <trkpt lat="43.37508" lon="2.43285">
        <ele>842</ele>
        <time>2017-09-24T11:08:22.000Z</time>
      </trkpt>
      <trkpt lat="43.37508" lon="2.43283">
        <ele>841</ele>
        <time>2017-09-24T11:08:23.000Z</time>
      </trkpt>
      <trkpt lat="43.37508" lon="2.43282">
        <ele>841</ele>
        <time>2017-09-24T11:08:24.000Z</time>
      </trkpt>
      <trkpt lat="43.37508" lon="2.43281">
        <ele>841</ele>
        <time>2017-09-24T11:08:25.000Z</time>
      </trkpt>
      <trkpt lat="43.37508" lon="2.43279">
        <ele>841</ele>
        <time>2017-09-24T11:08:26.000Z</time>
      </trkpt>
      <trkpt lat="43.37507" lon="2.43278">
        <ele>841</ele>
        <time>2017-09-24T11:08:27.000Z</time>
      </trkpt>
      <trkpt lat="43.37507" lon="2.43276">
        <ele>841</ele>
        <time>2017-09-24T11:08:28.000Z</time>
      </trkpt>
      <trkpt lat="43.37506" lon="2.43275">
        <ele>841</ele>
        <time>2017-09-24T11:08:29.000Z</time>
      </trkpt>
      <trkpt lat="43.37506" lon="2.43273">
        <ele>840</ele>
        <time>2017-09-24T11:08:30.000Z</time>
      </trkpt>
      <trkpt lat="43.37506" lon="2.43271">
        <ele>840</ele>
        <time>2017-09-24T11:08:31.000Z</time>
      </trkpt>
      <trkpt lat="43.37506" lon="2.4327">
        <ele>840</ele>
        <time>2017-09-24T11:08:32.000Z</time>
      </trkpt>
      <trkpt lat="43.37506" lon="2.43268">
        <ele>840</ele>
        <time>2017-09-24T11:08:33.000Z</time>
      </trkpt>
      <trkpt lat="43.37506" lon="2.43267">
        <ele>840</ele>
        <time>2017-09-24T11:08:34.000Z</time>
      </trkpt>
      <trkpt lat="43.37506" lon="2.43265">
        <ele>840</ele>
        <time>2017-09-24T11:08:35.000Z</time>
      </trkpt>
      <trkpt lat="43.37506" lon="2.43263">
        <ele>840</ele>
        <time>2017-09-24T11:08:36.000Z</time>
      </trkpt>
      <trkpt lat="43.37506" lon="2.43262">
        <ele>839</ele>
        <time>2017-09-24T11:08:37.000Z</time>
      </trkpt>
      <trkpt lat="43.37505" lon="2.4326">
        <ele>839</ele>
        <time>2017-09-24T11:08:38.000Z</time>
      </trkpt>
      <trkpt lat="43.37505" lon="2.43259">
        <ele>839</ele>
        <time>2017-09-24T11:08:39.000Z</time>
      </trkpt>
      <trkpt lat="43.37505" lon="2.43258">
        <ele>839</ele>
        <time>2017-09-24T11:08:40.000Z</time>
      </trkpt>
      <trkpt lat="43.37504" lon="2.43256">
        <ele>839</ele>
        <time>2017-09-24T11:08:41.000Z</time>
      </trkpt>
      <trkpt lat="43.37504" lon="2.43255">
        <ele>839</ele>
        <time>2017-09-24T11:08:42.000Z</time>
      </trkpt>
      <trkpt lat="43.37504" lon="2.43253">
        <ele>839</ele>
        <time>2017-09-24T11:08:43.000Z</time>
      </trkpt>
      <trkpt lat="43.37504" lon="2.43252">
        <ele>838</ele>
        <time>2017-09-24T11:08:44.000Z</time>
      </trkpt>
      <trkpt lat="43.37504" lon="2.4325">
        <ele>838</ele>
        <time>2017-09-24T11:08:45.000Z</time>
      </trkpt>
      <trkpt lat="43.37503" lon="2.43249">
        <ele>838</ele>
        <time>2017-09-24T11:08:46.000Z</time>
      </trkpt>
      <trkpt lat="43.37503" lon="2.43248">
        <ele>838</ele>
        <time>2017-09-24T11:08:47.000Z</time>
      </trkpt>
      <trkpt lat="43.37503" lon="2.43246">
        <ele>838</ele>
        <time>2017-09-24T11:08:48.000Z</time>
      </trkpt>
      <trkpt lat="43.37502" lon="2.43245">
        <ele>838</ele>
        <time>2017-09-24T11:08:49.000Z</time>
      </trkpt>
      <trkpt lat="43.37502" lon="2.43244">
        <ele>838</ele>
        <time>2017-09-24T11:08:50.000Z</time>
      </trkpt>
      <trkpt lat="43.37502" lon="2.43242">
        <ele>838</ele>
        <time>2017-09-24T11:08:51.000Z</time>
      </trkpt>
      <trkpt lat="43.37501" lon="2.43241">
        <ele>838</ele>
        <time>2017-09-24T11:08:52.000Z</time>
      </trkpt>
      <trkpt lat="43.37501" lon="2.4324">
        <ele>838</ele>
        <time>2017-09-24T11:08:53.000Z</time>
      </trkpt>
      <trkpt lat="43.37501" lon="2.43239">
        <ele>838</ele>
        <time>2017-09-24T11:08:54.000Z</time>
      </trkpt>
      <trkpt lat="43.375" lon="2.43237">
        <ele>838</ele>
        <time>2017-09-24T11:08:55.000Z</time>
      </trkpt>
      <trkpt lat="43.375" lon="2.43236">
        <ele>838</ele>
        <time>2017-09-24T11:08:56.000Z</time>
      </trkpt>
      <trkpt lat="43.37499" lon="2.43235">
        <ele>838</ele>
        <time>2017-09-24T11:08:57.000Z</time>
      </trkpt>
      <trkpt lat="43.37499" lon="2.43234">
        <ele>837</ele>
        <time>2017-09-24T11:08:58.000Z</time>
      </trkpt>
      <trkpt lat="43.37498" lon="2.43232">
        <ele>837</ele>
        <time>2017-09-24T11:08:59.000Z</time>
      </trkpt>
      <trkpt lat="43.37498" lon="2.43231">
        <ele>837</ele>
        <time>2017-09-24T11:09:00.000Z</time>
      </trkpt>
      <trkpt lat="43.37498" lon="2.4323">
        <ele>837</ele>
        <time>2017-09-24T11:09:01.000Z</time>
      </trkpt>
      <trkpt lat="43.37497" lon="2.43228">
        <ele>837</ele>
        <time>2017-09-24T11:09:02.000Z</time>
      </trkpt>
      <trkpt lat="43.37497" lon="2.43226">
        <ele>837</ele>
        <time>2017-09-24T11:09:03.000Z</time>
      </trkpt>
      <trkpt lat="43.37497" lon="2.43225">
        <ele>837</ele>
        <time>2017-09-24T11:09:04.000Z</time>
      </trkpt>
      <trkpt lat="43.37497" lon="2.43224">
        <ele>837</ele>
        <time>2017-09-24T11:09:05.000Z</time>
      </trkpt>
      <trkpt lat="43.37496" lon="2.43222">
        <ele>837</ele>
        <time>2017-09-24T11:09:06.000Z</time>
      </trkpt>
      <trkpt lat="43.37496" lon="2.4322">
        <ele>836</ele>
        <time>2017-09-24T11:09:07.000Z</time>
      </trkpt>
      <trkpt lat="43.37497" lon="2.43219">
        <ele>836</ele>
        <time>2017-09-24T11:09:08.000Z</time>
      </trkpt>
      <trkpt lat="43.37497" lon="2.43217">
        <ele>836</ele>
        <time>2017-09-24T11:09:09.000Z</time>
      </trkpt>
      <trkpt lat="43.37496" lon="2.43216">
        <ele>836</ele>
        <time>2017-09-24T11:09:10.000Z</time>
      </trkpt>
      <trkpt lat="43.37496" lon="2.43214">
        <ele>836</ele>
        <time>2017-09-24T11:09:11.000Z</time>
      </trkpt>
      <trkpt lat="43.37496" lon="2.43212">
        <ele>836</ele>
        <time>2017-09-24T11:09:12.000Z</time>
      </trkpt>
      <trkpt lat="43.37496" lon="2.43211">
        <ele>836</ele>
        <time>2017-09-24T11:09:13.000Z</time>
      </trkpt>
      <trkpt lat="43.37496" lon="2.43209">
        <ele>835</ele>
        <time>2017-09-24T11:09:14.000Z</time>
      </trkpt>
      <trkpt lat="43.37496" lon="2.43208">
        <ele>835</ele>
        <time>2017-09-24T11:09:15.000Z</time>
      </trkpt>
      <trkpt lat="43.37496" lon="2.43206">
        <ele>835</ele>
        <time>2017-09-24T11:09:16.000Z</time>
      </trkpt>
      <trkpt lat="43.37496" lon="2.43204">
        <ele>835</ele>
        <time>2017-09-24T11:09:17.000Z</time>
      </trkpt>
      <trkpt lat="43.37496" lon="2.43203">
        <ele>835</ele>
        <time>2017-09-24T11:09:18.000Z</time>
      </trkpt>
      <trkpt lat="43.37497" lon="2.43201">
        <ele>835</ele>
        <time>2017-09-24T11:09:19.000Z</time>
      </trkpt>
      <trkpt lat="43.37496" lon="2.43199">
        <ele>835</ele>
        <time>2017-09-24T11:09:20.000Z</time>
      </trkpt>
      <trkpt lat="43.37496" lon="2.43198">
        <ele>834</ele>
        <time>2017-09-24T11:09:21.000Z</time>
      </trkpt>
      <trkpt lat="43.37495" lon="2.43196">
        <ele>834</ele>
        <time>2017-09-24T11:09:22.000Z</time>
      </trkpt>
      <trkpt lat="43.37495" lon="2.43195">
        <ele>834</ele>
        <time>2017-09-24T11:09:23.000Z</time>
      </trkpt>
      <trkpt lat="43.37494" lon="2.43193">
        <ele>834</ele>
        <time>2017-09-24T11:09:24.000Z</time>
      </trkpt>
      <trkpt lat="43.37494" lon="2.43192">
        <ele>834</ele>
        <time>2017-09-24T11:09:25.000Z</time>
      </trkpt>
      <trkpt lat="43.37494" lon="2.43191">
        <ele>834</ele>
        <time>2017-09-24T11:09:26.000Z</time>
      </trkpt>
      <trkpt lat="43.37493" lon="2.43189">
        <ele>834</ele>
        <time>2017-09-24T11:09:27.000Z</time>
      </trkpt>
      <trkpt lat="43.37493" lon="2.43187">
        <ele>834</ele>
        <time>2017-09-24T11:09:28.000Z</time>
      </trkpt>
      <trkpt lat="43.37493" lon="2.43185">
        <ele>833</ele>
        <time>2017-09-24T11:09:29.000Z</time>
      </trkpt>
      <trkpt lat="43.37493" lon="2.43184">
        <ele>833</ele>
        <time>2017-09-24T11:09:30.000Z</time>
      </trkpt>
      <trkpt lat="43.37493" lon="2.43182">
        <ele>833</ele>
        <time>2017-09-24T11:09:31.000Z</time>
      </trkpt>
      <trkpt lat="43.37493" lon="2.43181">
        <ele>833</ele>
        <time>2017-09-24T11:09:32.000Z</time>
      </trkpt>
      <trkpt lat="43.37493" lon="2.43179">
        <ele>833</ele>
        <time>2017-09-24T11:09:33.000Z</time>
      </trkpt>
      <trkpt lat="43.37492" lon="2.43178">
        <ele>833</ele>
        <time>2017-09-24T11:09:34.000Z</time>
      </trkpt>
      <trkpt lat="43.37492" lon="2.43176">
        <ele>833</ele>
        <time>2017-09-24T11:09:35.000Z</time>
      </trkpt>
      <trkpt lat="43.37492" lon="2.43175">
        <ele>832</ele>
        <time>2017-09-24T11:09:36.000Z</time>
      </trkpt>
      <trkpt lat="43.37492" lon="2.43173">
        <ele>832</ele>
        <time>2017-09-24T11:09:37.000Z</time>
      </trkpt>
      <trkpt lat="43.37492" lon="2.43172">
        <ele>832</ele>
        <time>2017-09-24T11:09:38.000Z</time>
      </trkpt>
      <trkpt lat="43.37493" lon="2.4317">
        <ele>832</ele>
        <time>2017-09-24T11:09:39.000Z</time>
      </trkpt>
      <trkpt lat="43.37493" lon="2.43168">
        <ele>832</ele>
        <time>2017-09-24T11:09:40.000Z</time>
      </trkpt>
      <trkpt lat="43.37493" lon="2.43167">
        <ele>832</ele>
        <time>2017-09-24T11:09:41.000Z</time>
      </trkpt>
      <trkpt lat="43.37493" lon="2.43165">
        <ele>832</ele>
        <time>2017-09-24T11:09:42.000Z</time>
      </trkpt>
      <trkpt lat="43.37492" lon="2.43164">
        <ele>832</ele>
        <time>2017-09-24T11:09:43.000Z</time>
      </trkpt>
      <trkpt lat="43.37491" lon="2.43162">
        <ele>832</ele>
        <time>2017-09-24T11:09:44.000Z</time>
      </trkpt>
      <trkpt lat="43.37491" lon="2.43161">
        <ele>832</ele>
        <time>2017-09-24T11:09:45.000Z</time>
      </trkpt>
      <trkpt lat="43.37491" lon="2.43159">
        <ele>831</ele>
        <time>2017-09-24T11:09:46.000Z</time>
      </trkpt>
      <trkpt lat="43.3749" lon="2.43157">
        <ele>831</ele>
        <time>2017-09-24T11:09:47.000Z</time>
      </trkpt>
      <trkpt lat="43.3749" lon="2.43156">
        <ele>831</ele>
        <time>2017-09-24T11:09:48.000Z</time>
      </trkpt>
      <trkpt lat="43.3749" lon="2.43154">
        <ele>831</ele>
        <time>2017-09-24T11:09:49.000Z</time>
      </trkpt>
      <trkpt lat="43.3749" lon="2.43153">
        <ele>831</ele>
        <time>2017-09-24T11:09:50.000Z</time>
      </trkpt>
      <trkpt lat="43.3749" lon="2.43151">
        <ele>831</ele>
        <time>2017-09-24T11:09:51.000Z</time>
      </trkpt>
      <trkpt lat="43.3749" lon="2.4315">
        <ele>831</ele>
        <time>2017-09-24T11:09:52.000Z</time>
      </trkpt>
      <trkpt lat="43.3749" lon="2.43148">
        <ele>831</ele>
        <time>2017-09-24T11:09:53.000Z</time>
      </trkpt>
      <trkpt lat="43.37489" lon="2.43147">
        <ele>831</ele>
        <time>2017-09-24T11:09:54.000Z</time>
      </trkpt>
      <trkpt lat="43.37489" lon="2.43145">
        <ele>831</ele>
        <time>2017-09-24T11:09:55.000Z</time>
      </trkpt>
      <trkpt lat="43.37489" lon="2.43144">
        <ele>831</ele>
        <time>2017-09-24T11:09:56.000Z</time>
      </trkpt>
      <trkpt lat="43.37488" lon="2.43143">
        <ele>831</ele>
        <time>2017-09-24T11:09:57.000Z</time>
      </trkpt>
      <trkpt lat="43.37488" lon="2.43141">
        <ele>831</ele>
        <time>2017-09-24T11:09:58.000Z</time>
      </trkpt>
      <trkpt lat="43.37487" lon="2.43139">
        <ele>831</ele>
        <time>2017-09-24T11:09:59.000Z</time>
      </trkpt>
      <trkpt lat="43.37487" lon="2.43137">
        <ele>831</ele>
        <time>2017-09-24T11:10:00.000Z</time>
      </trkpt>
      <trkpt lat="43.37487" lon="2.43136">
        <ele>831</ele>
        <time>2017-09-24T11:10:01.000Z</time>
      </trkpt>
      <trkpt lat="43.37487" lon="2.43135">
        <ele>831</ele>
        <time>2017-09-24T11:10:02.000Z</time>
      </trkpt>
      <trkpt lat="43.37487" lon="2.43133">
        <ele>830</ele>
        <time>2017-09-24T11:10:03.000Z</time>
      </trkpt>
      <trkpt lat="43.37487" lon="2.43131">
        <ele>830</ele>
        <time>2017-09-24T11:10:04.000Z</time>
      </trkpt>
      <trkpt lat="43.37487" lon="2.4313">
        <ele>830</ele>
        <time>2017-09-24T11:10:05.000Z</time>
      </trkpt>
      <trkpt lat="43.37487" lon="2.43129">
        <ele>830</ele>
        <time>2017-09-24T11:10:06.000Z</time>
      </trkpt>
      <trkpt lat="43.37487" lon="2.43127">
        <ele>830</ele>
        <time>2017-09-24T11:10:07.000Z</time>
      </trkpt>
      <trkpt lat="43.37487" lon="2.43126">
        <ele>830</ele>
        <time>2017-09-24T11:10:08.000Z</time>
      </trkpt>
      <trkpt lat="43.37487" lon="2.43124">
        <ele>830</ele>
        <time>2017-09-24T11:10:09.000Z</time>
      </trkpt>
      <trkpt lat="43.37487" lon="2.43123">
        <ele>830</ele>
        <time>2017-09-24T11:10:10.000Z</time>
      </trkpt>
      <trkpt lat="43.37487" lon="2.43121">
        <ele>830</ele>
        <time>2017-09-24T11:10:11.000Z</time>
      </trkpt>
      <trkpt lat="43.37486" lon="2.4312">
        <ele>830</ele>
        <time>2017-09-24T11:10:12.000Z</time>
      </trkpt>
      <trkpt lat="43.37486" lon="2.43118">
        <ele>830</ele>
        <time>2017-09-24T11:10:13.000Z</time>
      </trkpt>
      <trkpt lat="43.37486" lon="2.43117">
        <ele>830</ele>
        <time>2017-09-24T11:10:14.000Z</time>
      </trkpt>
      <trkpt lat="43.37486" lon="2.43115">
        <ele>830</ele>
        <time>2017-09-24T11:10:15.000Z</time>
      </trkpt>
      <trkpt lat="43.37486" lon="2.43114">
        <ele>830</ele>
        <time>2017-09-24T11:10:16.000Z</time>
      </trkpt>
      <trkpt lat="43.37486" lon="2.43112">
        <ele>829</ele>
        <time>2017-09-24T11:10:17.000Z</time>
      </trkpt>
      <trkpt lat="43.37485" lon="2.43111">
        <ele>829</ele>
        <time>2017-09-24T11:10:18.000Z</time>
      </trkpt>
      <trkpt lat="43.37485" lon="2.4311">
        <ele>829</ele>
        <time>2017-09-24T11:10:19.000Z</time>
      </trkpt>
      <trkpt lat="43.37485" lon="2.43108">
        <ele>829</ele>
        <time>2017-09-24T11:10:20.000Z</time>
      </trkpt>
      <trkpt lat="43.37485" lon="2.43106">
        <ele>829</ele>
        <time>2017-09-24T11:10:21.000Z</time>
      </trkpt>
      <trkpt lat="43.37485" lon="2.43105">
        <ele>829</ele>
        <time>2017-09-24T11:10:22.000Z</time>
      </trkpt>
      <trkpt lat="43.37485" lon="2.43104">
        <ele>829</ele>
        <time>2017-09-24T11:10:23.000Z</time>
      </trkpt>
      <trkpt lat="43.37485" lon="2.43102">
        <ele>829</ele>
        <time>2017-09-24T11:10:24.000Z</time>
      </trkpt>
      <trkpt lat="43.37485" lon="2.43101">
        <ele>829</ele>
        <time>2017-09-24T11:10:25.000Z</time>
      </trkpt>
      <trkpt lat="43.37485" lon="2.431">
        <ele>829</ele>
        <time>2017-09-24T11:10:26.000Z</time>
      </trkpt>
      <trkpt lat="43.37485" lon="2.43099">
        <ele>829</ele>
        <time>2017-09-24T11:10:27.000Z</time>
      </trkpt>
      <trkpt lat="43.37485" lon="2.43098">
        <ele>829</ele>
        <time>2017-09-24T11:10:28.000Z</time>
      </trkpt>
      <trkpt lat="43.37485" lon="2.43096">
        <ele>829</ele>
        <time>2017-09-24T11:10:29.000Z</time>
      </trkpt>
      <trkpt lat="43.37484" lon="2.43095">
        <ele>829</ele>
        <time>2017-09-24T11:10:30.000Z</time>
      </trkpt>
      <trkpt lat="43.37484" lon="2.43094">
        <ele>829</ele>
        <time>2017-09-24T11:10:31.000Z</time>
      </trkpt>
      <trkpt lat="43.37484" lon="2.43093">
        <ele>829</ele>
        <time>2017-09-24T11:10:32.000Z</time>
      </trkpt>
      <trkpt lat="43.37484" lon="2.43092">
        <ele>828</ele>
        <time>2017-09-24T11:10:33.000Z</time>
      </trkpt>
      <trkpt lat="43.37484" lon="2.43091">
        <ele>828</ele>
        <time>2017-09-24T11:10:34.000Z</time>
      </trkpt>
      <trkpt lat="43.37483" lon="2.4309">
        <ele>828</ele>
        <time>2017-09-24T11:10:35.000Z</time>
      </trkpt>
      <trkpt lat="43.37483" lon="2.43088">
        <ele>828</ele>
        <time>2017-09-24T11:10:36.000Z</time>
      </trkpt>
      <trkpt lat="43.37483" lon="2.43087">
        <ele>828</ele>
        <time>2017-09-24T11:10:37.000Z</time>
      </trkpt>
      <trkpt lat="43.37483" lon="2.43086">
        <ele>828</ele>
        <time>2017-09-24T11:10:38.000Z</time>
      </trkpt>
      <trkpt lat="43.37482" lon="2.43084">
        <ele>828</ele>
        <time>2017-09-24T11:10:39.000Z</time>
      </trkpt>
      <trkpt lat="43.37482" lon="2.43083">
        <ele>828</ele>
        <time>2017-09-24T11:10:40.000Z</time>
      </trkpt>
      <trkpt lat="43.37482" lon="2.43082">
        <ele>828</ele>
        <time>2017-09-24T11:10:41.000Z</time>
      </trkpt>
      <trkpt lat="43.37481" lon="2.43081">
        <ele>828</ele>
        <time>2017-09-24T11:10:42.000Z</time>
      </trkpt>
      <trkpt lat="43.3748" lon="2.4308">
        <ele>828</ele>
        <time>2017-09-24T11:10:43.000Z</time>
      </trkpt>
      <trkpt lat="43.3748" lon="2.43078">
        <ele>828</ele>
        <time>2017-09-24T11:10:44.000Z</time>
      </trkpt>
      <trkpt lat="43.37479" lon="2.43077">
        <ele>828</ele>
        <time>2017-09-24T11:10:45.000Z</time>
      </trkpt>
      <trkpt lat="43.37479" lon="2.43076">
        <ele>828</ele>
        <time>2017-09-24T11:10:46.000Z</time>
      </trkpt>
      <trkpt lat="43.37478" lon="2.43075">
        <ele>828</ele>
        <time>2017-09-24T11:10:47.000Z</time>
      </trkpt>
      <trkpt lat="43.37478" lon="2.43074">
        <ele>828</ele>
        <time>2017-09-24T11:10:48.000Z</time>
      </trkpt>
      <trkpt lat="43.37477" lon="2.43073">
        <ele>828</ele>
        <time>2017-09-24T11:10:49.000Z</time>
      </trkpt>
      <trkpt lat="43.37477" lon="2.43072">
        <ele>828</ele>
        <time>2017-09-24T11:10:50.000Z</time>
      </trkpt>
      <trkpt lat="43.37476" lon="2.43071">
        <ele>828</ele>
        <time>2017-09-24T11:10:51.000Z</time>
      </trkpt>
      <trkpt lat="43.37476" lon="2.4307">
        <ele>828</ele>
        <time>2017-09-24T11:10:52.000Z</time>
      </trkpt>
      <trkpt lat="43.37476" lon="2.43069">
        <ele>828</ele>
        <time>2017-09-24T11:10:53.000Z</time>
      </trkpt>
      <trkpt lat="43.37475" lon="2.43068">
        <ele>828</ele>
        <time>2017-09-24T11:10:54.000Z</time>
      </trkpt>
      <trkpt lat="43.37475" lon="2.43067">
        <ele>828</ele>
        <time>2017-09-24T11:10:55.000Z</time>
      </trkpt>
      <trkpt lat="43.37474" lon="2.43066">
        <ele>828</ele>
        <time>2017-09-24T11:10:56.000Z</time>
      </trkpt>
      <trkpt lat="43.37474" lon="2.43065">
        <ele>828</ele>
        <time>2017-09-24T11:10:57.000Z</time>
      </trkpt>
      <trkpt lat="43.37474" lon="2.43063">
        <ele>828</ele>
        <time>2017-09-24T11:10:58.000Z</time>
      </trkpt>
      <trkpt lat="43.37474" lon="2.43063">
        <ele>828</ele>
        <time>2017-09-24T11:10:59.000Z</time>
      </trkpt>
      <trkpt lat="43.37474" lon="2.43062">
        <ele>828</ele>
        <time>2017-09-24T11:11:00.000Z</time>
      </trkpt>
      <trkpt lat="43.37474" lon="2.43062">
        <ele>828</ele>
        <time>2017-09-24T11:11:01.000Z</time>
      </trkpt>
      <trkpt lat="43.37475" lon="2.43061">
        <ele>829</ele>
        <time>2017-09-24T11:11:02.000Z</time>
      </trkpt>
      <trkpt lat="43.37475" lon="2.43061">
        <ele>829</ele>
        <time>2017-09-24T11:11:03.000Z</time>
      </trkpt>
      <trkpt lat="43.37476" lon="2.4306">
        <ele>829</ele>
        <time>2017-09-24T11:11:04.000Z</time>
      </trkpt>
      <trkpt lat="43.37476" lon="2.4306">
        <ele>829</ele>
        <time>2017-09-24T11:11:05.000Z</time>
      </trkpt>
      <trkpt lat="43.37476" lon="2.43059">
        <ele>829</ele>
        <time>2017-09-24T11:11:06.000Z</time>
      </trkpt>
      <trkpt lat="43.37477" lon="2.43058">
        <ele>829</ele>
        <time>2017-09-24T11:11:07.000Z</time>
      </trkpt>
      <trkpt lat="43.37477" lon="2.43058">
        <ele>829</ele>
        <time>2017-09-24T11:11:08.000Z</time>
      </trkpt>
      <trkpt lat="43.37478" lon="2.43057">
        <ele>829</ele>
        <time>2017-09-24T11:11:09.000Z</time>
      </trkpt>
      <trkpt lat="43.37478" lon="2.43056">
        <ele>829</ele>
        <time>2017-09-24T11:11:10.000Z</time>
      </trkpt>
      <trkpt lat="43.37478" lon="2.43056">
        <ele>829</ele>
        <time>2017-09-24T11:11:11.000Z</time>
      </trkpt>
      <trkpt lat="43.37479" lon="2.43055">
        <ele>829</ele>
        <time>2017-09-24T11:11:12.000Z</time>
      </trkpt>
      <trkpt lat="43.37479" lon="2.43055">
        <ele>829</ele>
        <time>2017-09-24T11:11:13.000Z</time>
      </trkpt>
      <trkpt lat="43.3748" lon="2.43054">
        <ele>829</ele>
        <time>2017-09-24T11:11:14.000Z</time>
      </trkpt>
      <trkpt lat="43.3748" lon="2.43054">
        <ele>829</ele>
        <time>2017-09-24T11:11:15.000Z</time>
      </trkpt>
      <trkpt lat="43.37475" lon="2.4305">
        <ele>829</ele>
        <time>2017-09-24T11:12:22.000Z</time>
      </trkpt>
      <trkpt lat="43.37474" lon="2.43049">
        <ele>829</ele>
        <time>2017-09-24T11:12:23.000Z</time>
      </trkpt>
      <trkpt lat="43.37474" lon="2.43048">
        <ele>829</ele>
        <time>2017-09-24T11:12:24.000Z</time>
      </trkpt>
      <trkpt lat="43.37473" lon="2.43047">
        <ele>829</ele>
        <time>2017-09-24T11:12:25.000Z</time>
      </trkpt>
      <trkpt lat="43.37472" lon="2.43046">
        <ele>829</ele>
        <time>2017-09-24T11:12:26.000Z</time>
      </trkpt>
      <trkpt lat="43.37472" lon="2.43045">
        <ele>829</ele>
        <time>2017-09-24T11:12:27.000Z</time>
      </trkpt>
      <trkpt lat="43.37472" lon="2.43045">
        <ele>829</ele>
        <time>2017-09-24T11:12:28.000Z</time>
      </trkpt>
      <trkpt lat="43.37472" lon="2.43044">
        <ele>829</ele>
        <time>2017-09-24T11:12:29.000Z</time>
      </trkpt>
      <trkpt lat="43.37471" lon="2.43044">
        <ele>829</ele>
        <time>2017-09-24T11:12:30.000Z</time>
      </trkpt>
      <trkpt lat="43.3747" lon="2.43043">
        <ele>829</ele>
        <time>2017-09-24T11:12:31.000Z</time>
      </trkpt>
      <trkpt lat="43.3747" lon="2.43042">
        <ele>829</ele>
        <time>2017-09-24T11:12:32.000Z</time>
      </trkpt>
      <trkpt lat="43.3747" lon="2.43042">
        <ele>829</ele>
        <time>2017-09-24T11:12:33.000Z</time>
      </trkpt>
      <trkpt lat="43.3747" lon="2.43041">
        <ele>829</ele>
        <time>2017-09-24T11:12:34.000Z</time>
      </trkpt>
      <trkpt lat="43.37461" lon="2.43031">
        <ele>829</ele>
        <time>2017-09-24T11:14:21.000Z</time>
      </trkpt>
      <trkpt lat="43.3746" lon="2.4303">
        <ele>829</ele>
        <time>2017-09-24T11:14:22.000Z</time>
      </trkpt>
      <trkpt lat="43.3746" lon="2.43028">
        <ele>829</ele>
        <time>2017-09-24T11:14:23.000Z</time>
      </trkpt>
      <trkpt lat="43.37459" lon="2.43027">
        <ele>829</ele>
        <time>2017-09-24T11:14:24.000Z</time>
      </trkpt>
      <trkpt lat="43.37459" lon="2.43026">
        <ele>829</ele>
        <time>2017-09-24T11:14:25.000Z</time>
      </trkpt>
      <trkpt lat="43.37458" lon="2.43026">
        <ele>829</ele>
        <time>2017-09-24T11:14:26.000Z</time>
      </trkpt>
      <trkpt lat="43.37458" lon="2.43025">
        <ele>829</ele>
        <time>2017-09-24T11:14:27.000Z</time>
      </trkpt>
      <trkpt lat="43.37457" lon="2.43024">
        <ele>829</ele>
        <time>2017-09-24T11:14:28.000Z</time>
      </trkpt>
      <trkpt lat="43.37457" lon="2.43022">
        <ele>829</ele>
        <time>2017-09-24T11:14:29.000Z</time>
      </trkpt>
      <trkpt lat="43.37456" lon="2.43021">
        <ele>829</ele>
        <time>2017-09-24T11:14:30.000Z</time>
      </trkpt>
      <trkpt lat="43.37456" lon="2.4302">
        <ele>829</ele>
        <time>2017-09-24T11:14:31.000Z</time>
      </trkpt>
      <trkpt lat="43.37455" lon="2.43019">
        <ele>829</ele>
        <time>2017-09-24T11:14:32.000Z</time>
      </trkpt>
      <trkpt lat="43.37455" lon="2.43018">
        <ele>829</ele>
        <time>2017-09-24T11:14:33.000Z</time>
      </trkpt>
      <trkpt lat="43.37455" lon="2.43017">
        <ele>829</ele>
        <time>2017-09-24T11:14:34.000Z</time>
      </trkpt>
      <trkpt lat="43.37454" lon="2.43016">
        <ele>829</ele>
        <time>2017-09-24T11:14:35.000Z</time>
      </trkpt>
      <trkpt lat="43.37454" lon="2.43015">
        <ele>829</ele>
        <time>2017-09-24T11:14:36.000Z</time>
      </trkpt>
      <trkpt lat="43.37453" lon="2.43014">
        <ele>829</ele>
        <time>2017-09-24T11:14:37.000Z</time>
      </trkpt>
      <trkpt lat="43.37453" lon="2.43013">
        <ele>829</ele>
        <time>2017-09-24T11:14:38.000Z</time>
      </trkpt>
      <trkpt lat="43.37452" lon="2.43012">
        <ele>829</ele>
        <time>2017-09-24T11:14:39.000Z</time>
      </trkpt>
      <trkpt lat="43.37452" lon="2.43011">
        <ele>828</ele>
        <time>2017-09-24T11:14:40.000Z</time>
      </trkpt>
      <trkpt lat="43.37451" lon="2.4301">
        <ele>828</ele>
        <time>2017-09-24T11:14:41.000Z</time>
      </trkpt>
      <trkpt lat="43.37451" lon="2.43009">
        <ele>828</ele>
        <time>2017-09-24T11:14:42.000Z</time>
      </trkpt>
      <trkpt lat="43.3745" lon="2.43008">
        <ele>828</ele>
        <time>2017-09-24T11:14:43.000Z</time>
      </trkpt>
      <trkpt lat="43.3745" lon="2.43007">
        <ele>828</ele>
        <time>2017-09-24T11:14:44.000Z</time>
      </trkpt>
      <trkpt lat="43.3745" lon="2.43006">
        <ele>828</ele>
        <time>2017-09-24T11:14:45.000Z</time>
      </trkpt>
      <trkpt lat="43.37449" lon="2.43005">
        <ele>828</ele>
        <time>2017-09-24T11:14:46.000Z</time>
      </trkpt>
      <trkpt lat="43.37448" lon="2.43004">
        <ele>828</ele>
        <time>2017-09-24T11:14:47.000Z</time>
      </trkpt>
      <trkpt lat="43.37448" lon="2.43003">
        <ele>828</ele>
        <time>2017-09-24T11:14:48.000Z</time>
      </trkpt>
      <trkpt lat="43.37447" lon="2.43002">
        <ele>828</ele>
        <time>2017-09-24T11:14:49.000Z</time>
      </trkpt>
      <trkpt lat="43.37447" lon="2.43001">
        <ele>828</ele>
        <time>2017-09-24T11:14:50.000Z</time>
      </trkpt>
      <trkpt lat="43.37446" lon="2.43">
        <ele>828</ele>
        <time>2017-09-24T11:14:51.000Z</time>
      </trkpt>
      <trkpt lat="43.37446" lon="2.42998">
        <ele>828</ele>
        <time>2017-09-24T11:14:52.000Z</time>
      </trkpt>
      <trkpt lat="43.37446" lon="2.42997">
        <ele>828</ele>
        <time>2017-09-24T11:14:53.000Z</time>
      </trkpt>
      <trkpt lat="43.37445" lon="2.42996">
        <ele>828</ele>
        <time>2017-09-24T11:14:54.000Z</time>
      </trkpt>
      <trkpt lat="43.37445" lon="2.42995">
        <ele>828</ele>
        <time>2017-09-24T11:14:55.000Z</time>
      </trkpt>
      <trkpt lat="43.37444" lon="2.42994">
        <ele>828</ele>
        <time>2017-09-24T11:14:56.000Z</time>
      </trkpt>
      <trkpt lat="43.37444" lon="2.42993">
        <ele>828</ele>
        <time>2017-09-24T11:14:57.000Z</time>
      </trkpt>
      <trkpt lat="43.37444" lon="2.42992">
        <ele>828</ele>
        <time>2017-09-24T11:14:58.000Z</time>
      </trkpt>
      <trkpt lat="43.37443" lon="2.42991">
        <ele>828</ele>
        <time>2017-09-24T11:14:59.000Z</time>
      </trkpt>
      <trkpt lat="43.37443" lon="2.4299">
        <ele>828</ele>
        <time>2017-09-24T11:15:00.000Z</time>
      </trkpt>
      <trkpt lat="43.37443" lon="2.42989">
        <ele>828</ele>
        <time>2017-09-24T11:15:01.000Z</time>
      </trkpt>
      <trkpt lat="43.37442" lon="2.42988">
        <ele>828</ele>
        <time>2017-09-24T11:15:02.000Z</time>
      </trkpt>
      <trkpt lat="43.37442" lon="2.42987">
        <ele>828</ele>
        <time>2017-09-24T11:15:03.000Z</time>
      </trkpt>
      <trkpt lat="43.37442" lon="2.42985">
        <ele>828</ele>
        <time>2017-09-24T11:15:04.000Z</time>
      </trkpt>
      <trkpt lat="43.37441" lon="2.42984">
        <ele>828</ele>
        <time>2017-09-24T11:15:05.000Z</time>
      </trkpt>
      <trkpt lat="43.37441" lon="2.42983">
        <ele>828</ele>
        <time>2017-09-24T11:15:06.000Z</time>
      </trkpt>
      <trkpt lat="43.37441" lon="2.42982">
        <ele>828</ele>
        <time>2017-09-24T11:15:07.000Z</time>
      </trkpt>
      <trkpt lat="43.37441" lon="2.42981">
        <ele>828</ele>
        <time>2017-09-24T11:15:08.000Z</time>
      </trkpt>
      <trkpt lat="43.3744" lon="2.4298">
        <ele>828</ele>
        <time>2017-09-24T11:15:09.000Z</time>
      </trkpt>
      <trkpt lat="43.3744" lon="2.42979">
        <ele>828</ele>
        <time>2017-09-24T11:15:10.000Z</time>
      </trkpt>
      <trkpt lat="43.3744" lon="2.42977">
        <ele>828</ele>
        <time>2017-09-24T11:15:11.000Z</time>
      </trkpt>
      <trkpt lat="43.37439" lon="2.42976">
        <ele>828</ele>
        <time>2017-09-24T11:15:12.000Z</time>
      </trkpt>
      <trkpt lat="43.37439" lon="2.42975">
        <ele>828</ele>
        <time>2017-09-24T11:15:13.000Z</time>
      </trkpt>
      <trkpt lat="43.37439" lon="2.42974">
        <ele>828</ele>
        <time>2017-09-24T11:15:14.000Z</time>
      </trkpt>
      <trkpt lat="43.37438" lon="2.42973">
        <ele>828</ele>
        <time>2017-09-24T11:15:15.000Z</time>
      </trkpt>
      <trkpt lat="43.37438" lon="2.42972">
        <ele>828</ele>
        <time>2017-09-24T11:15:16.000Z</time>
      </trkpt>
      <trkpt lat="43.37438" lon="2.42971">
        <ele>828</ele>
        <time>2017-09-24T11:15:17.000Z</time>
      </trkpt>
      <trkpt lat="43.37438" lon="2.4297">
        <ele>828</ele>
        <time>2017-09-24T11:15:18.000Z</time>
      </trkpt>
      <trkpt lat="43.37437" lon="2.42968">
        <ele>828</ele>
        <time>2017-09-24T11:15:19.000Z</time>
      </trkpt>
      <trkpt lat="43.37437" lon="2.42967">
        <ele>828</ele>
        <time>2017-09-24T11:15:20.000Z</time>
      </trkpt>
      <trkpt lat="43.37437" lon="2.42966">
        <ele>828</ele>
        <time>2017-09-24T11:15:21.000Z</time>
      </trkpt>
      <trkpt lat="43.37437" lon="2.42965">
        <ele>828</ele>
        <time>2017-09-24T11:15:22.000Z</time>
      </trkpt>
      <trkpt lat="43.37436" lon="2.42964">
        <ele>828</ele>
        <time>2017-09-24T11:15:23.000Z</time>
      </trkpt>
      <trkpt lat="43.37436" lon="2.42963">
        <ele>828</ele>
        <time>2017-09-24T11:15:24.000Z</time>
      </trkpt>
      <trkpt lat="43.37435" lon="2.42962">
        <ele>829</ele>
        <time>2017-09-24T11:15:25.000Z</time>
      </trkpt>
      <trkpt lat="43.37435" lon="2.4296">
        <ele>829</ele>
        <time>2017-09-24T11:15:26.000Z</time>
      </trkpt>
      <trkpt lat="43.37435" lon="2.42959">
        <ele>829</ele>
        <time>2017-09-24T11:15:27.000Z</time>
      </trkpt>
      <trkpt lat="43.37434" lon="2.42958">
        <ele>829</ele>
        <time>2017-09-24T11:15:28.000Z</time>
      </trkpt>
      <trkpt lat="43.37434" lon="2.42957">
        <ele>829</ele>
        <time>2017-09-24T11:15:29.000Z</time>
      </trkpt>
      <trkpt lat="43.37434" lon="2.42956">
        <ele>829</ele>
        <time>2017-09-24T11:15:30.000Z</time>
      </trkpt>
      <trkpt lat="43.37433" lon="2.42954">
        <ele>829</ele>
        <time>2017-09-24T11:15:31.000Z</time>
      </trkpt>
      <trkpt lat="43.37433" lon="2.42953">
        <ele>829</ele>
        <time>2017-09-24T11:15:32.000Z</time>
      </trkpt>
      <trkpt lat="43.37433" lon="2.42952">
        <ele>829</ele>
        <time>2017-09-24T11:15:33.000Z</time>
      </trkpt>
      <trkpt lat="43.37433" lon="2.42951">
        <ele>829</ele>
        <time>2017-09-24T11:15:34.000Z</time>
      </trkpt>
      <trkpt lat="43.37433" lon="2.4295">
        <ele>829</ele>
        <time>2017-09-24T11:15:35.000Z</time>
      </trkpt>
      <trkpt lat="43.37432" lon="2.42948">
        <ele>829</ele>
        <time>2017-09-24T11:15:36.000Z</time>
      </trkpt>
      <trkpt lat="43.37432" lon="2.42946">
        <ele>829</ele>
        <time>2017-09-24T11:15:37.000Z</time>
      </trkpt>
      <trkpt lat="43.37432" lon="2.42945">
        <ele>829</ele>
        <time>2017-09-24T11:15:38.000Z</time>
      </trkpt>
      <trkpt lat="43.37432" lon="2.42944">
        <ele>829</ele>
        <time>2017-09-24T11:15:39.000Z</time>
      </trkpt>
      <trkpt lat="43.37432" lon="2.42942">
        <ele>829</ele>
        <time>2017-09-24T11:15:40.000Z</time>
      </trkpt>
      <trkpt lat="43.37431" lon="2.42941">
        <ele>829</ele>
        <time>2017-09-24T11:15:41.000Z</time>
      </trkpt>
      <trkpt lat="43.37431" lon="2.4294">
        <ele>829</ele>
        <time>2017-09-24T11:15:42.000Z</time>
      </trkpt>
      <trkpt lat="43.37431" lon="2.42938">
        <ele>828</ele>
        <time>2017-09-24T11:15:43.000Z</time>
      </trkpt>
      <trkpt lat="43.37431" lon="2.42937">
        <ele>828</ele>
        <time>2017-09-24T11:15:44.000Z</time>
      </trkpt>
      <trkpt lat="43.3743" lon="2.42936">
        <ele>828</ele>
        <time>2017-09-24T11:15:45.000Z</time>
      </trkpt>
      <trkpt lat="43.3743" lon="2.42934">
        <ele>828</ele>
        <time>2017-09-24T11:15:46.000Z</time>
      </trkpt>
      <trkpt lat="43.3743" lon="2.42933">
        <ele>828</ele>
        <time>2017-09-24T11:15:47.000Z</time>
      </trkpt>
      <trkpt lat="43.3743" lon="2.42931">
        <ele>828</ele>
        <time>2017-09-24T11:15:48.000Z</time>
      </trkpt>
      <trkpt lat="43.3743" lon="2.4293">
        <ele>828</ele>
        <time>2017-09-24T11:15:49.000Z</time>
      </trkpt>
      <trkpt lat="43.3743" lon="2.42929">
        <ele>828</ele>
        <time>2017-09-24T11:15:50.000Z</time>
      </trkpt>
      <trkpt lat="43.3743" lon="2.42927">
        <ele>828</ele>
        <time>2017-09-24T11:15:51.000Z</time>
      </trkpt>
      <trkpt lat="43.37429" lon="2.42926">
        <ele>828</ele>
        <time>2017-09-24T11:15:52.000Z</time>
      </trkpt>
      <trkpt lat="43.37429" lon="2.42925">
        <ele>828</ele>
        <time>2017-09-24T11:15:53.000Z</time>
      </trkpt>
      <trkpt lat="43.37429" lon="2.42923">
        <ele>828</ele>
        <time>2017-09-24T11:15:54.000Z</time>
      </trkpt>
      <trkpt lat="43.37429" lon="2.42922">
        <ele>828</ele>
        <time>2017-09-24T11:15:55.000Z</time>
      </trkpt>
      <trkpt lat="43.37429" lon="2.4292">
        <ele>827</ele>
        <time>2017-09-24T11:15:56.000Z</time>
      </trkpt>
      <trkpt lat="43.37429" lon="2.42919">
        <ele>827</ele>
        <time>2017-09-24T11:15:57.000Z</time>
      </trkpt>
      <trkpt lat="43.37428" lon="2.42917">
        <ele>827</ele>
        <time>2017-09-24T11:15:58.000Z</time>
      </trkpt>
      <trkpt lat="43.37428" lon="2.42916">
        <ele>827</ele>
        <time>2017-09-24T11:15:59.000Z</time>
      </trkpt>
      <trkpt lat="43.37428" lon="2.42915">
        <ele>827</ele>
        <time>2017-09-24T11:16:00.000Z</time>
      </trkpt>
      <trkpt lat="43.37428" lon="2.42913">
        <ele>827</ele>
        <time>2017-09-24T11:16:01.000Z</time>
      </trkpt>
      <trkpt lat="43.37428" lon="2.42912">
        <ele>827</ele>
        <time>2017-09-24T11:16:02.000Z</time>
      </trkpt>
      <trkpt lat="43.37428" lon="2.42911">
        <ele>827</ele>
        <time>2017-09-24T11:16:03.000Z</time>
      </trkpt>
      <trkpt lat="43.37428" lon="2.4291">
        <ele>827</ele>
        <time>2017-09-24T11:16:04.000Z</time>
      </trkpt>
      <trkpt lat="43.37428" lon="2.42908">
        <ele>827</ele>
        <time>2017-09-24T11:16:05.000Z</time>
      </trkpt>
      <trkpt lat="43.37428" lon="2.42907">
        <ele>827</ele>
        <time>2017-09-24T11:16:06.000Z</time>
      </trkpt>
      <trkpt lat="43.37428" lon="2.42905">
        <ele>827</ele>
        <time>2017-09-24T11:16:07.000Z</time>
      </trkpt>
      <trkpt lat="43.37428" lon="2.42904">
        <ele>827</ele>
        <time>2017-09-24T11:16:08.000Z</time>
      </trkpt>
      <trkpt lat="43.37428" lon="2.42903">
        <ele>827</ele>
        <time>2017-09-24T11:16:09.000Z</time>
      </trkpt>
      <trkpt lat="43.37428" lon="2.42901">
        <ele>826</ele>
        <time>2017-09-24T11:16:10.000Z</time>
      </trkpt>
      <trkpt lat="43.37427" lon="2.429">
        <ele>826</ele>
        <time>2017-09-24T11:16:11.000Z</time>
      </trkpt>
      <trkpt lat="43.37427" lon="2.42898">
        <ele>826</ele>
        <time>2017-09-24T11:16:12.000Z</time>
      </trkpt>
      <trkpt lat="43.37427" lon="2.42897">
        <ele>826</ele>
        <time>2017-09-24T11:16:13.000Z</time>
      </trkpt>
      <trkpt lat="43.37427" lon="2.42896">
        <ele>826</ele>
        <time>2017-09-24T11:16:14.000Z</time>
      </trkpt>
      <trkpt lat="43.37427" lon="2.42896">
        <ele>826</ele>
        <time>2017-09-24T11:16:15.000Z</time>
      </trkpt>
      <trkpt lat="43.37427" lon="2.42895">
        <ele>826</ele>
        <time>2017-09-24T11:16:16.000Z</time>
      </trkpt>
      <trkpt lat="43.37427" lon="2.42894">
        <ele>826</ele>
        <time>2017-09-24T11:16:17.000Z</time>
      </trkpt>
      <trkpt lat="43.37427" lon="2.42893">
        <ele>826</ele>
        <time>2017-09-24T11:16:18.000Z</time>
      </trkpt>
      <trkpt lat="43.37427" lon="2.42893">
        <ele>826</ele>
        <time>2017-09-24T11:16:19.000Z</time>
      </trkpt>
      <trkpt lat="43.37427" lon="2.42892">
        <ele>826</ele>
        <time>2017-09-24T11:16:20.000Z</time>
      </trkpt>
      <trkpt lat="43.37427" lon="2.42892">
        <ele>826</ele>
        <time>2017-09-24T11:16:21.000Z</time>
      </trkpt>
      <trkpt lat="43.37425" lon="2.42886">
        <ele>825</ele>
        <time>2017-09-24T11:16:27.000Z</time>
      </trkpt>
      <trkpt lat="43.37425" lon="2.42885">
        <ele>825</ele>
        <time>2017-09-24T11:16:28.000Z</time>
      </trkpt>
      <trkpt lat="43.37424" lon="2.42883">
        <ele>825</ele>
        <time>2017-09-24T11:16:29.000Z</time>
      </trkpt>
      <trkpt lat="43.37424" lon="2.42882">
        <ele>824</ele>
        <time>2017-09-24T11:16:30.000Z</time>
      </trkpt>
      <trkpt lat="43.37424" lon="2.4288">
        <ele>824</ele>
        <time>2017-09-24T11:16:31.000Z</time>
      </trkpt>
      <trkpt lat="43.37424" lon="2.42879">
        <ele>824</ele>
        <time>2017-09-24T11:16:32.000Z</time>
      </trkpt>
      <trkpt lat="43.37423" lon="2.42877">
        <ele>824</ele>
        <time>2017-09-24T11:16:33.000Z</time>
      </trkpt>
      <trkpt lat="43.37423" lon="2.42876">
        <ele>824</ele>
        <time>2017-09-24T11:16:34.000Z</time>
      </trkpt>
      <trkpt lat="43.37423" lon="2.42875">
        <ele>824</ele>
        <time>2017-09-24T11:16:35.000Z</time>
      </trkpt>
      <trkpt lat="43.37423" lon="2.42873">
        <ele>824</ele>
        <time>2017-09-24T11:16:36.000Z</time>
      </trkpt>
      <trkpt lat="43.37423" lon="2.42872">
        <ele>823</ele>
        <time>2017-09-24T11:16:37.000Z</time>
      </trkpt>
      <trkpt lat="43.37423" lon="2.42871">
        <ele>823</ele>
        <time>2017-09-24T11:16:38.000Z</time>
      </trkpt>
      <trkpt lat="43.37423" lon="2.42869">
        <ele>823</ele>
        <time>2017-09-24T11:16:39.000Z</time>
      </trkpt>
      <trkpt lat="43.37422" lon="2.42868">
        <ele>823</ele>
        <time>2017-09-24T11:16:40.000Z</time>
      </trkpt>
      <trkpt lat="43.37422" lon="2.42866">
        <ele>823</ele>
        <time>2017-09-24T11:16:41.000Z</time>
      </trkpt>
      <trkpt lat="43.37421" lon="2.42865">
        <ele>823</ele>
        <time>2017-09-24T11:16:42.000Z</time>
      </trkpt>
      <trkpt lat="43.37421" lon="2.42864">
        <ele>823</ele>
        <time>2017-09-24T11:16:43.000Z</time>
      </trkpt>
      <trkpt lat="43.37421" lon="2.42862">
        <ele>822</ele>
        <time>2017-09-24T11:16:44.000Z</time>
      </trkpt>
      <trkpt lat="43.3742" lon="2.42861">
        <ele>822</ele>
        <time>2017-09-24T11:16:45.000Z</time>
      </trkpt>
      <trkpt lat="43.3742" lon="2.42859">
        <ele>822</ele>
        <time>2017-09-24T11:16:46.000Z</time>
      </trkpt>
      <trkpt lat="43.3742" lon="2.42858">
        <ele>822</ele>
        <time>2017-09-24T11:16:47.000Z</time>
      </trkpt>
      <trkpt lat="43.37419" lon="2.42856">
        <ele>822</ele>
        <time>2017-09-24T11:16:48.000Z</time>
      </trkpt>
      <trkpt lat="43.37419" lon="2.42855">
        <ele>822</ele>
        <time>2017-09-24T11:16:49.000Z</time>
      </trkpt>
      <trkpt lat="43.37419" lon="2.42854">
        <ele>821</ele>
        <time>2017-09-24T11:16:50.000Z</time>
      </trkpt>
      <trkpt lat="43.37419" lon="2.42853">
        <ele>821</ele>
        <time>2017-09-24T11:16:51.000Z</time>
      </trkpt>
      <trkpt lat="43.37418" lon="2.42851">
        <ele>821</ele>
        <time>2017-09-24T11:16:52.000Z</time>
      </trkpt>
      <trkpt lat="43.37418" lon="2.4285">
        <ele>821</ele>
        <time>2017-09-24T11:16:53.000Z</time>
      </trkpt>
      <trkpt lat="43.37417" lon="2.42849">
        <ele>821</ele>
        <time>2017-09-24T11:16:54.000Z</time>
      </trkpt>
      <trkpt lat="43.37417" lon="2.42847">
        <ele>821</ele>
        <time>2017-09-24T11:16:55.000Z</time>
      </trkpt>
      <trkpt lat="43.37417" lon="2.42846">
        <ele>821</ele>
        <time>2017-09-24T11:16:56.000Z</time>
      </trkpt>
      <trkpt lat="43.37417" lon="2.42844">
        <ele>820</ele>
        <time>2017-09-24T11:16:57.000Z</time>
      </trkpt>
      <trkpt lat="43.37416" lon="2.42843">
        <ele>820</ele>
        <time>2017-09-24T11:16:58.000Z</time>
      </trkpt>
      <trkpt lat="43.37416" lon="2.42841">
        <ele>820</ele>
        <time>2017-09-24T11:16:59.000Z</time>
      </trkpt>
      <trkpt lat="43.37416" lon="2.4284">
        <ele>820</ele>
        <time>2017-09-24T11:17:00.000Z</time>
      </trkpt>
      <trkpt lat="43.37415" lon="2.42838">
        <ele>820</ele>
        <time>2017-09-24T11:17:01.000Z</time>
      </trkpt>
      <trkpt lat="43.37415" lon="2.42837">
        <ele>820</ele>
        <time>2017-09-24T11:17:02.000Z</time>
      </trkpt>
      <trkpt lat="43.37414" lon="2.42835">
        <ele>819</ele>
        <time>2017-09-24T11:17:03.000Z</time>
      </trkpt>
      <trkpt lat="43.37414" lon="2.42834">
        <ele>819</ele>
        <time>2017-09-24T11:17:04.000Z</time>
      </trkpt>
      <trkpt lat="43.37414" lon="2.42833">
        <ele>819</ele>
        <time>2017-09-24T11:17:05.000Z</time>
      </trkpt>
      <trkpt lat="43.37413" lon="2.42831">
        <ele>819</ele>
        <time>2017-09-24T11:17:06.000Z</time>
      </trkpt>
      <trkpt lat="43.37413" lon="2.42829">
        <ele>819</ele>
        <time>2017-09-24T11:17:07.000Z</time>
      </trkpt>
      <trkpt lat="43.37413" lon="2.42828">
        <ele>819</ele>
        <time>2017-09-24T11:17:08.000Z</time>
      </trkpt>
      <trkpt lat="43.37412" lon="2.42826">
        <ele>819</ele>
        <time>2017-09-24T11:17:09.000Z</time>
      </trkpt>
      <trkpt lat="43.37412" lon="2.42825">
        <ele>818</ele>
        <time>2017-09-24T11:17:10.000Z</time>
      </trkpt>
      <trkpt lat="43.37412" lon="2.42824">
        <ele>818</ele>
        <time>2017-09-24T11:17:11.000Z</time>
      </trkpt>
      <trkpt lat="43.37411" lon="2.42823">
        <ele>818</ele>
        <time>2017-09-24T11:17:12.000Z</time>
      </trkpt>
      <trkpt lat="43.37411" lon="2.42821">
        <ele>818</ele>
        <time>2017-09-24T11:17:13.000Z</time>
      </trkpt>
      <trkpt lat="43.37411" lon="2.4282">
        <ele>818</ele>
        <time>2017-09-24T11:17:14.000Z</time>
      </trkpt>
      <trkpt lat="43.3741" lon="2.42819">
        <ele>818</ele>
        <time>2017-09-24T11:17:15.000Z</time>
      </trkpt>
      <trkpt lat="43.3741" lon="2.42817">
        <ele>818</ele>
        <time>2017-09-24T11:17:16.000Z</time>
      </trkpt>
      <trkpt lat="43.3741" lon="2.42815">
        <ele>818</ele>
        <time>2017-09-24T11:17:17.000Z</time>
      </trkpt>
      <trkpt lat="43.3741" lon="2.42814">
        <ele>818</ele>
        <time>2017-09-24T11:17:18.000Z</time>
      </trkpt>
      <trkpt lat="43.3741" lon="2.42813">
        <ele>818</ele>
        <time>2017-09-24T11:17:19.000Z</time>
      </trkpt>
      <trkpt lat="43.3741" lon="2.42812">
        <ele>817</ele>
        <time>2017-09-24T11:17:20.000Z</time>
      </trkpt>
      <trkpt lat="43.37409" lon="2.4281">
        <ele>817</ele>
        <time>2017-09-24T11:17:21.000Z</time>
      </trkpt>
      <trkpt lat="43.37409" lon="2.42809">
        <ele>817</ele>
        <time>2017-09-24T11:17:22.000Z</time>
      </trkpt>
      <trkpt lat="43.37408" lon="2.42808">
        <ele>817</ele>
        <time>2017-09-24T11:17:23.000Z</time>
      </trkpt>
      <trkpt lat="43.37408" lon="2.42807">
        <ele>817</ele>
        <time>2017-09-24T11:17:24.000Z</time>
      </trkpt>
      <trkpt lat="43.37408" lon="2.42805">
        <ele>817</ele>
        <time>2017-09-24T11:17:25.000Z</time>
      </trkpt>
      <trkpt lat="43.37407" lon="2.42804">
        <ele>817</ele>
        <time>2017-09-24T11:17:26.000Z</time>
      </trkpt>
      <trkpt lat="43.37407" lon="2.42803">
        <ele>816</ele>
        <time>2017-09-24T11:17:27.000Z</time>
      </trkpt>
      <trkpt lat="43.37407" lon="2.42801">
        <ele>816</ele>
        <time>2017-09-24T11:17:28.000Z</time>
      </trkpt>
      <trkpt lat="43.37406" lon="2.428">
        <ele>816</ele>
        <time>2017-09-24T11:17:29.000Z</time>
      </trkpt>
      <trkpt lat="43.37406" lon="2.42799">
        <ele>816</ele>
        <time>2017-09-24T11:17:30.000Z</time>
      </trkpt>
      <trkpt lat="43.37405" lon="2.42798">
        <ele>816</ele>
        <time>2017-09-24T11:17:31.000Z</time>
      </trkpt>
      <trkpt lat="43.37405" lon="2.42797">
        <ele>816</ele>
        <time>2017-09-24T11:17:32.000Z</time>
      </trkpt>
      <trkpt lat="43.37404" lon="2.42796">
        <ele>816</ele>
        <time>2017-09-24T11:17:33.000Z</time>
      </trkpt>
      <trkpt lat="43.37404" lon="2.42795">
        <ele>815</ele>
        <time>2017-09-24T11:17:34.000Z</time>
      </trkpt>
      <trkpt lat="43.37404" lon="2.42794">
        <ele>815</ele>
        <time>2017-09-24T11:17:35.000Z</time>
      </trkpt>
      <trkpt lat="43.37403" lon="2.42794">
        <ele>815</ele>
        <time>2017-09-24T11:17:36.000Z</time>
      </trkpt>
      <trkpt lat="43.37403" lon="2.42793">
        <ele>815</ele>
        <time>2017-09-24T11:17:37.000Z</time>
      </trkpt>
      <trkpt lat="43.37403" lon="2.42791">
        <ele>815</ele>
        <time>2017-09-24T11:17:38.000Z</time>
      </trkpt>
      <trkpt lat="43.37402" lon="2.4279">
        <ele>815</ele>
        <time>2017-09-24T11:17:39.000Z</time>
      </trkpt>
      <trkpt lat="43.37402" lon="2.42789">
        <ele>815</ele>
        <time>2017-09-24T11:17:40.000Z</time>
      </trkpt>
      <trkpt lat="43.37402" lon="2.42787">
        <ele>814</ele>
        <time>2017-09-24T11:17:41.000Z</time>
      </trkpt>
      <trkpt lat="43.37401" lon="2.42786">
        <ele>814</ele>
        <time>2017-09-24T11:17:42.000Z</time>
      </trkpt>
      <trkpt lat="43.37401" lon="2.42786">
        <ele>814</ele>
        <time>2017-09-24T11:17:43.000Z</time>
      </trkpt>
      <trkpt lat="43.37401" lon="2.42785">
        <ele>814</ele>
        <time>2017-09-24T11:17:44.000Z</time>
      </trkpt>
      <trkpt lat="43.374" lon="2.42783">
        <ele>814</ele>
        <time>2017-09-24T11:17:45.000Z</time>
      </trkpt>
      <trkpt lat="43.374" lon="2.42783">
        <ele>814</ele>
        <time>2017-09-24T11:17:46.000Z</time>
      </trkpt>
      <trkpt lat="43.37399" lon="2.42782">
        <ele>814</ele>
        <time>2017-09-24T11:17:47.000Z</time>
      </trkpt>
      <trkpt lat="43.37399" lon="2.42781">
        <ele>813</ele>
        <time>2017-09-24T11:17:48.000Z</time>
      </trkpt>
      <trkpt lat="43.37399" lon="2.4278">
        <ele>813</ele>
        <time>2017-09-24T11:17:49.000Z</time>
      </trkpt>
      <trkpt lat="43.37399" lon="2.42778">
        <ele>813</ele>
        <time>2017-09-24T11:17:50.000Z</time>
      </trkpt>
      <trkpt lat="43.37398" lon="2.42777">
        <ele>813</ele>
        <time>2017-09-24T11:17:51.000Z</time>
      </trkpt>
      <trkpt lat="43.37398" lon="2.42776">
        <ele>813</ele>
        <time>2017-09-24T11:17:52.000Z</time>
      </trkpt>
      <trkpt lat="43.37397" lon="2.42775">
        <ele>813</ele>
        <time>2017-09-24T11:17:53.000Z</time>
      </trkpt>
      <trkpt lat="43.37397" lon="2.42773">
        <ele>813</ele>
        <time>2017-09-24T11:17:54.000Z</time>
      </trkpt>
      <trkpt lat="43.37396" lon="2.42772">
        <ele>812</ele>
        <time>2017-09-24T11:17:55.000Z</time>
      </trkpt>
      <trkpt lat="43.37396" lon="2.42771">
        <ele>812</ele>
        <time>2017-09-24T11:17:56.000Z</time>
      </trkpt>
      <trkpt lat="43.37396" lon="2.42769">
        <ele>812</ele>
        <time>2017-09-24T11:17:57.000Z</time>
      </trkpt>
      <trkpt lat="43.37395" lon="2.42768">
        <ele>812</ele>
        <time>2017-09-24T11:17:58.000Z</time>
      </trkpt>
      <trkpt lat="43.37395" lon="2.42767">
        <ele>812</ele>
        <time>2017-09-24T11:17:59.000Z</time>
      </trkpt>
      <trkpt lat="43.37394" lon="2.42765">
        <ele>812</ele>
        <time>2017-09-24T11:18:00.000Z</time>
      </trkpt>
      <trkpt lat="43.37394" lon="2.42764">
        <ele>811</ele>
        <time>2017-09-24T11:18:01.000Z</time>
      </trkpt>
      <trkpt lat="43.37394" lon="2.42763">
        <ele>811</ele>
        <time>2017-09-24T11:18:02.000Z</time>
      </trkpt>
      <trkpt lat="43.37394" lon="2.42761">
        <ele>811</ele>
        <time>2017-09-24T11:18:03.000Z</time>
      </trkpt>
      <trkpt lat="43.37393" lon="2.4276">
        <ele>811</ele>
        <time>2017-09-24T11:18:04.000Z</time>
      </trkpt>
      <trkpt lat="43.37393" lon="2.42759">
        <ele>811</ele>
        <time>2017-09-24T11:18:05.000Z</time>
      </trkpt>
      <trkpt lat="43.37393" lon="2.42758">
        <ele>811</ele>
        <time>2017-09-24T11:18:06.000Z</time>
      </trkpt>
      <trkpt lat="43.37392" lon="2.42756">
        <ele>810</ele>
        <time>2017-09-24T11:18:07.000Z</time>
      </trkpt>
      <trkpt lat="43.37392" lon="2.42755">
        <ele>810</ele>
        <time>2017-09-24T11:18:08.000Z</time>
      </trkpt>
      <trkpt lat="43.37392" lon="2.42754">
        <ele>810</ele>
        <time>2017-09-24T11:18:09.000Z</time>
      </trkpt>
      <trkpt lat="43.37392" lon="2.42752">
        <ele>810</ele>
        <time>2017-09-24T11:18:10.000Z</time>
      </trkpt>
      <trkpt lat="43.37392" lon="2.42751">
        <ele>810</ele>
        <time>2017-09-24T11:18:11.000Z</time>
      </trkpt>
      <trkpt lat="43.37391" lon="2.42749">
        <ele>810</ele>
        <time>2017-09-24T11:18:12.000Z</time>
      </trkpt>
      <trkpt lat="43.37391" lon="2.42748">
        <ele>809</ele>
        <time>2017-09-24T11:18:13.000Z</time>
      </trkpt>
      <trkpt lat="43.37391" lon="2.42746">
        <ele>809</ele>
        <time>2017-09-24T11:18:14.000Z</time>
      </trkpt>
      <trkpt lat="43.37391" lon="2.42745">
        <ele>809</ele>
        <time>2017-09-24T11:18:15.000Z</time>
      </trkpt>
      <trkpt lat="43.3739" lon="2.42744">
        <ele>808</ele>
        <time>2017-09-24T11:18:16.000Z</time>
      </trkpt>
      <trkpt lat="43.3739" lon="2.42743">
        <ele>808</ele>
        <time>2017-09-24T11:18:17.000Z</time>
      </trkpt>
      <trkpt lat="43.3739" lon="2.42742">
        <ele>808</ele>
        <time>2017-09-24T11:18:18.000Z</time>
      </trkpt>
      <trkpt lat="43.37389" lon="2.42741">
        <ele>808</ele>
        <time>2017-09-24T11:18:19.000Z</time>
      </trkpt>
      <trkpt lat="43.37389" lon="2.42739">
        <ele>807</ele>
        <time>2017-09-24T11:18:20.000Z</time>
      </trkpt>
      <trkpt lat="43.37389" lon="2.42738">
        <ele>807</ele>
        <time>2017-09-24T11:18:21.000Z</time>
      </trkpt>
      <trkpt lat="43.37388" lon="2.42737">
        <ele>807</ele>
        <time>2017-09-24T11:18:22.000Z</time>
      </trkpt>
      <trkpt lat="43.37388" lon="2.42736">
        <ele>807</ele>
        <time>2017-09-24T11:18:23.000Z</time>
      </trkpt>
      <trkpt lat="43.37388" lon="2.42734">
        <ele>806</ele>
        <time>2017-09-24T11:18:24.000Z</time>
      </trkpt>
      <trkpt lat="43.37388" lon="2.42733">
        <ele>806</ele>
        <time>2017-09-24T11:18:25.000Z</time>
      </trkpt>
      <trkpt lat="43.37387" lon="2.42732">
        <ele>806</ele>
        <time>2017-09-24T11:18:26.000Z</time>
      </trkpt>
      <trkpt lat="43.37387" lon="2.42731">
        <ele>806</ele>
        <time>2017-09-24T11:18:27.000Z</time>
      </trkpt>
      <trkpt lat="43.37387" lon="2.4273">
        <ele>805</ele>
        <time>2017-09-24T11:18:28.000Z</time>
      </trkpt>
      <trkpt lat="43.37386" lon="2.42729">
        <ele>805</ele>
        <time>2017-09-24T11:18:29.000Z</time>
      </trkpt>
      <trkpt lat="43.37386" lon="2.42728">
        <ele>805</ele>
        <time>2017-09-24T11:18:30.000Z</time>
      </trkpt>
      <trkpt lat="43.37386" lon="2.42727">
        <ele>805</ele>
        <time>2017-09-24T11:18:31.000Z</time>
      </trkpt>
      <trkpt lat="43.37385" lon="2.42726">
        <ele>804</ele>
        <time>2017-09-24T11:18:32.000Z</time>
      </trkpt>
      <trkpt lat="43.37385" lon="2.42725">
        <ele>804</ele>
        <time>2017-09-24T11:18:33.000Z</time>
      </trkpt>
      <trkpt lat="43.37384" lon="2.42724">
        <ele>804</ele>
        <time>2017-09-24T11:18:34.000Z</time>
      </trkpt>
      <trkpt lat="43.37384" lon="2.42723">
        <ele>804</ele>
        <time>2017-09-24T11:18:35.000Z</time>
      </trkpt>
      <trkpt lat="43.37384" lon="2.42722">
        <ele>803</ele>
        <time>2017-09-24T11:18:36.000Z</time>
      </trkpt>
      <trkpt lat="43.37383" lon="2.42721">
        <ele>803</ele>
        <time>2017-09-24T11:18:37.000Z</time>
      </trkpt>
      <trkpt lat="43.37383" lon="2.4272">
        <ele>803</ele>
        <time>2017-09-24T11:18:38.000Z</time>
      </trkpt>
      <trkpt lat="43.37382" lon="2.4272">
        <ele>803</ele>
        <time>2017-09-24T11:18:39.000Z</time>
      </trkpt>
      <trkpt lat="43.37382" lon="2.42719">
        <ele>803</ele>
        <time>2017-09-24T11:18:40.000Z</time>
      </trkpt>
      <trkpt lat="43.37381" lon="2.42718">
        <ele>802</ele>
        <time>2017-09-24T11:18:41.000Z</time>
      </trkpt>
      <trkpt lat="43.37381" lon="2.42717">
        <ele>802</ele>
        <time>2017-09-24T11:18:42.000Z</time>
      </trkpt>
      <trkpt lat="43.37381" lon="2.42717">
        <ele>802</ele>
        <time>2017-09-24T11:18:43.000Z</time>
      </trkpt>
      <trkpt lat="43.37381" lon="2.42716">
        <ele>802</ele>
        <time>2017-09-24T11:18:44.000Z</time>
      </trkpt>
      <trkpt lat="43.3738" lon="2.42714">
        <ele>801</ele>
        <time>2017-09-24T11:18:45.000Z</time>
      </trkpt>
      <trkpt lat="43.3738" lon="2.42713">
        <ele>801</ele>
        <time>2017-09-24T11:18:46.000Z</time>
      </trkpt>
      <trkpt lat="43.3738" lon="2.42712">
        <ele>801</ele>
        <time>2017-09-24T11:18:47.000Z</time>
      </trkpt>
      <trkpt lat="43.3738" lon="2.4271">
        <ele>801</ele>
        <time>2017-09-24T11:18:48.000Z</time>
      </trkpt>
      <trkpt lat="43.3738" lon="2.42709">
        <ele>800</ele>
        <time>2017-09-24T11:18:49.000Z</time>
      </trkpt>
      <trkpt lat="43.3738" lon="2.42708">
        <ele>800</ele>
        <time>2017-09-24T11:18:50.000Z</time>
      </trkpt>
      <trkpt lat="43.3738" lon="2.42707">
        <ele>800</ele>
        <time>2017-09-24T11:18:51.000Z</time>
      </trkpt>
      <trkpt lat="43.3738" lon="2.42705">
        <ele>800</ele>
        <time>2017-09-24T11:18:52.000Z</time>
      </trkpt>
      <trkpt lat="43.3738" lon="2.42705">
        <ele>799</ele>
        <time>2017-09-24T11:18:53.000Z</time>
      </trkpt>
      <trkpt lat="43.3738" lon="2.42704">
        <ele>799</ele>
        <time>2017-09-24T11:18:54.000Z</time>
      </trkpt>
      <trkpt lat="43.37379" lon="2.42703">
        <ele>799</ele>
        <time>2017-09-24T11:18:55.000Z</time>
      </trkpt>
      <trkpt lat="43.37379" lon="2.42701">
        <ele>799</ele>
        <time>2017-09-24T11:18:56.000Z</time>
      </trkpt>
      <trkpt lat="43.37379" lon="2.427">
        <ele>798</ele>
        <time>2017-09-24T11:18:57.000Z</time>
      </trkpt>
      <trkpt lat="43.37379" lon="2.42699">
        <ele>798</ele>
        <time>2017-09-24T11:18:58.000Z</time>
      </trkpt>
      <trkpt lat="43.37379" lon="2.42698">
        <ele>798</ele>
        <time>2017-09-24T11:18:59.000Z</time>
      </trkpt>
      <trkpt lat="43.37379" lon="2.42697">
        <ele>798</ele>
        <time>2017-09-24T11:19:00.000Z</time>
      </trkpt>
      <trkpt lat="43.3738" lon="2.42696">
        <ele>797</ele>
        <time>2017-09-24T11:19:01.000Z</time>
      </trkpt>
      <trkpt lat="43.3738" lon="2.42695">
        <ele>797</ele>
        <time>2017-09-24T11:19:02.000Z</time>
      </trkpt>
      <trkpt lat="43.3738" lon="2.42694">
        <ele>797</ele>
        <time>2017-09-24T11:19:03.000Z</time>
      </trkpt>
      <trkpt lat="43.3738" lon="2.42693">
        <ele>797</ele>
        <time>2017-09-24T11:19:04.000Z</time>
      </trkpt>
      <trkpt lat="43.3738" lon="2.42692">
        <ele>797</ele>
        <time>2017-09-24T11:19:05.000Z</time>
      </trkpt>
      <trkpt lat="43.3738" lon="2.42691">
        <ele>796</ele>
        <time>2017-09-24T11:19:06.000Z</time>
      </trkpt>
      <trkpt lat="43.3738" lon="2.42689">
        <ele>796</ele>
        <time>2017-09-24T11:19:07.000Z</time>
      </trkpt>
      <trkpt lat="43.3738" lon="2.42688">
        <ele>796</ele>
        <time>2017-09-24T11:19:08.000Z</time>
      </trkpt>
      <trkpt lat="43.37381" lon="2.42687">
        <ele>795</ele>
        <time>2017-09-24T11:19:09.000Z</time>
      </trkpt>
      <trkpt lat="43.37381" lon="2.42686">
        <ele>795</ele>
        <time>2017-09-24T11:19:10.000Z</time>
      </trkpt>
      <trkpt lat="43.37381" lon="2.42685">
        <ele>795</ele>
        <time>2017-09-24T11:19:11.000Z</time>
      </trkpt>
      <trkpt lat="43.37381" lon="2.42684">
        <ele>795</ele>
        <time>2017-09-24T11:19:12.000Z</time>
      </trkpt>
      <trkpt lat="43.37381" lon="2.42683">
        <ele>794</ele>
        <time>2017-09-24T11:19:13.000Z</time>
      </trkpt>
      <trkpt lat="43.37382" lon="2.42682">
        <ele>794</ele>
        <time>2017-09-24T11:19:14.000Z</time>
      </trkpt>
      <trkpt lat="43.37382" lon="2.42681">
        <ele>794</ele>
        <time>2017-09-24T11:19:15.000Z</time>
      </trkpt>
      <trkpt lat="43.37382" lon="2.4268">
        <ele>794</ele>
        <time>2017-09-24T11:19:16.000Z</time>
      </trkpt>
      <trkpt lat="43.37382" lon="2.42679">
        <ele>793</ele>
        <time>2017-09-24T11:19:17.000Z</time>
      </trkpt>
      <trkpt lat="43.37381" lon="2.42678">
        <ele>793</ele>
        <time>2017-09-24T11:19:18.000Z</time>
      </trkpt>
      <trkpt lat="43.37382" lon="2.42676">
        <ele>793</ele>
        <time>2017-09-24T11:19:19.000Z</time>
      </trkpt>
      <trkpt lat="43.37382" lon="2.42676">
        <ele>793</ele>
        <time>2017-09-24T11:19:20.000Z</time>
      </trkpt>
      <trkpt lat="43.37382" lon="2.42674">
        <ele>792</ele>
        <time>2017-09-24T11:19:21.000Z</time>
      </trkpt>
      <trkpt lat="43.37382" lon="2.42673">
        <ele>792</ele>
        <time>2017-09-24T11:19:22.000Z</time>
      </trkpt>
      <trkpt lat="43.37382" lon="2.42672">
        <ele>792</ele>
        <time>2017-09-24T11:19:23.000Z</time>
      </trkpt>
      <trkpt lat="43.37383" lon="2.42671">
        <ele>792</ele>
        <time>2017-09-24T11:19:24.000Z</time>
      </trkpt>
      <trkpt lat="43.37383" lon="2.4267">
        <ele>791</ele>
        <time>2017-09-24T11:19:25.000Z</time>
      </trkpt>
      <trkpt lat="43.37383" lon="2.42669">
        <ele>791</ele>
        <time>2017-09-24T11:19:26.000Z</time>
      </trkpt>
      <trkpt lat="43.37383" lon="2.42668">
        <ele>791</ele>
        <time>2017-09-24T11:19:27.000Z</time>
      </trkpt>
      <trkpt lat="43.37383" lon="2.42667">
        <ele>791</ele>
        <time>2017-09-24T11:19:28.000Z</time>
      </trkpt>
      <trkpt lat="43.37384" lon="2.42666">
        <ele>791</ele>
        <time>2017-09-24T11:19:29.000Z</time>
      </trkpt>
      <trkpt lat="43.37385" lon="2.42666">
        <ele>790</ele>
        <time>2017-09-24T11:19:30.000Z</time>
      </trkpt>
      <trkpt lat="43.37385" lon="2.42665">
        <ele>790</ele>
        <time>2017-09-24T11:19:31.000Z</time>
      </trkpt>
      <trkpt lat="43.37385" lon="2.42664">
        <ele>790</ele>
        <time>2017-09-24T11:19:32.000Z</time>
      </trkpt>
      <trkpt lat="43.37386" lon="2.42663">
        <ele>790</ele>
        <time>2017-09-24T11:19:33.000Z</time>
      </trkpt>
      <trkpt lat="43.37386" lon="2.42662">
        <ele>790</ele>
        <time>2017-09-24T11:19:34.000Z</time>
      </trkpt>
      <trkpt lat="43.37386" lon="2.42661">
        <ele>789</ele>
        <time>2017-09-24T11:19:35.000Z</time>
      </trkpt>
      <trkpt lat="43.37387" lon="2.42661">
        <ele>789</ele>
        <time>2017-09-24T11:19:36.000Z</time>
      </trkpt>
      <trkpt lat="43.37387" lon="2.4266">
        <ele>789</ele>
        <time>2017-09-24T11:19:37.000Z</time>
      </trkpt>
      <trkpt lat="43.37386" lon="2.42659">
        <ele>789</ele>
        <time>2017-09-24T11:19:38.000Z</time>
      </trkpt>
      <trkpt lat="43.37386" lon="2.42658">
        <ele>789</ele>
        <time>2017-09-24T11:19:39.000Z</time>
      </trkpt>
      <trkpt lat="43.37386" lon="2.42657">
        <ele>788</ele>
        <time>2017-09-24T11:19:40.000Z</time>
      </trkpt>
      <trkpt lat="43.37386" lon="2.42656">
        <ele>788</ele>
        <time>2017-09-24T11:19:41.000Z</time>
      </trkpt>
      <trkpt lat="43.37385" lon="2.42655">
        <ele>788</ele>
        <time>2017-09-24T11:19:42.000Z</time>
      </trkpt>
      <trkpt lat="43.37385" lon="2.42653">
        <ele>787</ele>
        <time>2017-09-24T11:19:43.000Z</time>
      </trkpt>
      <trkpt lat="43.37385" lon="2.42652">
        <ele>787</ele>
        <time>2017-09-24T11:19:44.000Z</time>
      </trkpt>
      <trkpt lat="43.37385" lon="2.42651">
        <ele>787</ele>
        <time>2017-09-24T11:19:45.000Z</time>
      </trkpt>
      <trkpt lat="43.37384" lon="2.4265">
        <ele>787</ele>
        <time>2017-09-24T11:19:46.000Z</time>
      </trkpt>
      <trkpt lat="43.37384" lon="2.42649">
        <ele>786</ele>
        <time>2017-09-24T11:19:47.000Z</time>
      </trkpt>
      <trkpt lat="43.37384" lon="2.42648">
        <ele>786</ele>
        <time>2017-09-24T11:19:48.000Z</time>
      </trkpt>
      <trkpt lat="43.37384" lon="2.42647">
        <ele>786</ele>
        <time>2017-09-24T11:19:49.000Z</time>
      </trkpt>
      <trkpt lat="43.37384" lon="2.42646">
        <ele>786</ele>
        <time>2017-09-24T11:19:50.000Z</time>
      </trkpt>
      <trkpt lat="43.37383" lon="2.42645">
        <ele>785</ele>
        <time>2017-09-24T11:19:51.000Z</time>
      </trkpt>
      <trkpt lat="43.37383" lon="2.42644">
        <ele>785</ele>
        <time>2017-09-24T11:19:52.000Z</time>
      </trkpt>
      <trkpt lat="43.37383" lon="2.42643">
        <ele>785</ele>
        <time>2017-09-24T11:19:53.000Z</time>
      </trkpt>
      <trkpt lat="43.37383" lon="2.42642">
        <ele>785</ele>
        <time>2017-09-24T11:19:54.000Z</time>
      </trkpt>
      <trkpt lat="43.37383" lon="2.42641">
        <ele>784</ele>
        <time>2017-09-24T11:19:55.000Z</time>
      </trkpt>
      <trkpt lat="43.37383" lon="2.4264">
        <ele>784</ele>
        <time>2017-09-24T11:19:56.000Z</time>
      </trkpt>
      <trkpt lat="43.37383" lon="2.42639">
        <ele>784</ele>
        <time>2017-09-24T11:19:57.000Z</time>
      </trkpt>
      <trkpt lat="43.37383" lon="2.42638">
        <ele>784</ele>
        <time>2017-09-24T11:19:58.000Z</time>
      </trkpt>
      <trkpt lat="43.37383" lon="2.42638">
        <ele>784</ele>
        <time>2017-09-24T11:19:59.000Z</time>
      </trkpt>
      <trkpt lat="43.37384" lon="2.42637">
        <ele>783</ele>
        <time>2017-09-24T11:20:00.000Z</time>
      </trkpt>
      <trkpt lat="43.37384" lon="2.42636">
        <ele>783</ele>
        <time>2017-09-24T11:20:01.000Z</time>
      </trkpt>
      <trkpt lat="43.37384" lon="2.42635">
        <ele>783</ele>
        <time>2017-09-24T11:20:02.000Z</time>
      </trkpt>
      <trkpt lat="43.37385" lon="2.42635">
        <ele>783</ele>
        <time>2017-09-24T11:20:03.000Z</time>
      </trkpt>
      <trkpt lat="43.37386" lon="2.42634">
        <ele>783</ele>
        <time>2017-09-24T11:20:04.000Z</time>
      </trkpt>
      <trkpt lat="43.37386" lon="2.42633">
        <ele>783</ele>
        <time>2017-09-24T11:20:05.000Z</time>
      </trkpt>
      <trkpt lat="43.37386" lon="2.42633">
        <ele>782</ele>
        <time>2017-09-24T11:20:06.000Z</time>
      </trkpt>
      <trkpt lat="43.37386" lon="2.42632">
        <ele>782</ele>
        <time>2017-09-24T11:20:07.000Z</time>
      </trkpt>
      <trkpt lat="43.37386" lon="2.42631">
        <ele>782</ele>
        <time>2017-09-24T11:20:08.000Z</time>
      </trkpt>
      <trkpt lat="43.37387" lon="2.4263">
        <ele>782</ele>
        <time>2017-09-24T11:20:09.000Z</time>
      </trkpt>
      <trkpt lat="43.37387" lon="2.42629">
        <ele>782</ele>
        <time>2017-09-24T11:20:10.000Z</time>
      </trkpt>
      <trkpt lat="43.37387" lon="2.42628">
        <ele>781</ele>
        <time>2017-09-24T11:20:11.000Z</time>
      </trkpt>
      <trkpt lat="43.37387" lon="2.42628">
        <ele>781</ele>
        <time>2017-09-24T11:20:12.000Z</time>
      </trkpt>
      <trkpt lat="43.37388" lon="2.42627">
        <ele>781</ele>
        <time>2017-09-24T11:20:13.000Z</time>
      </trkpt>
      <trkpt lat="43.37387" lon="2.42626">
        <ele>781</ele>
        <time>2017-09-24T11:20:14.000Z</time>
      </trkpt>
      <trkpt lat="43.37388" lon="2.42625">
        <ele>781</ele>
        <time>2017-09-24T11:20:15.000Z</time>
      </trkpt>
      <trkpt lat="43.37388" lon="2.42624">
        <ele>781</ele>
        <time>2017-09-24T11:20:16.000Z</time>
      </trkpt>
      <trkpt lat="43.37388" lon="2.42623">
        <ele>780</ele>
        <time>2017-09-24T11:20:17.000Z</time>
      </trkpt>
      <trkpt lat="43.37388" lon="2.42623">
        <ele>780</ele>
        <time>2017-09-24T11:20:18.000Z</time>
      </trkpt>
      <trkpt lat="43.37388" lon="2.42622">
        <ele>780</ele>
        <time>2017-09-24T11:20:19.000Z</time>
      </trkpt>
      <trkpt lat="43.37389" lon="2.42621">
        <ele>780</ele>
        <time>2017-09-24T11:20:20.000Z</time>
      </trkpt>
      <trkpt lat="43.37389" lon="2.4262">
        <ele>780</ele>
        <time>2017-09-24T11:20:21.000Z</time>
      </trkpt>
      <trkpt lat="43.37389" lon="2.42619">
        <ele>779</ele>
        <time>2017-09-24T11:20:22.000Z</time>
      </trkpt>
      <trkpt lat="43.37389" lon="2.42618">
        <ele>779</ele>
        <time>2017-09-24T11:20:23.000Z</time>
      </trkpt>
      <trkpt lat="43.37389" lon="2.42617">
        <ele>779</ele>
        <time>2017-09-24T11:20:24.000Z</time>
      </trkpt>
      <trkpt lat="43.37389" lon="2.42616">
        <ele>778</ele>
        <time>2017-09-24T11:20:25.000Z</time>
      </trkpt>
      <trkpt lat="43.37389" lon="2.42616">
        <ele>778</ele>
        <time>2017-09-24T11:20:26.000Z</time>
      </trkpt>
      <trkpt lat="43.37389" lon="2.42615">
        <ele>778</ele>
        <time>2017-09-24T11:20:27.000Z</time>
      </trkpt>
      <trkpt lat="43.37389" lon="2.42614">
        <ele>778</ele>
        <time>2017-09-24T11:20:28.000Z</time>
      </trkpt>
      <trkpt lat="43.3739" lon="2.42613">
        <ele>777</ele>
        <time>2017-09-24T11:20:29.000Z</time>
      </trkpt>
      <trkpt lat="43.3739" lon="2.42612">
        <ele>777</ele>
        <time>2017-09-24T11:20:30.000Z</time>
      </trkpt>
      <trkpt lat="43.3739" lon="2.42611">
        <ele>777</ele>
        <time>2017-09-24T11:20:31.000Z</time>
      </trkpt>
      <trkpt lat="43.3739" lon="2.4261">
        <ele>777</ele>
        <time>2017-09-24T11:20:32.000Z</time>
      </trkpt>
      <trkpt lat="43.37391" lon="2.42609">
        <ele>776</ele>
        <time>2017-09-24T11:20:33.000Z</time>
      </trkpt>
      <trkpt lat="43.37391" lon="2.42608">
        <ele>776</ele>
        <time>2017-09-24T11:20:34.000Z</time>
      </trkpt>
      <trkpt lat="43.37392" lon="2.42608">
        <ele>776</ele>
        <time>2017-09-24T11:20:35.000Z</time>
      </trkpt>
      <trkpt lat="43.37392" lon="2.42607">
        <ele>776</ele>
        <time>2017-09-24T11:20:36.000Z</time>
      </trkpt>
      <trkpt lat="43.37393" lon="2.42606">
        <ele>776</ele>
        <time>2017-09-24T11:20:37.000Z</time>
      </trkpt>
      <trkpt lat="43.37393" lon="2.42605">
        <ele>775</ele>
        <time>2017-09-24T11:20:38.000Z</time>
      </trkpt>
      <trkpt lat="43.37393" lon="2.42605">
        <ele>775</ele>
        <time>2017-09-24T11:20:39.000Z</time>
      </trkpt>
      <trkpt lat="43.37393" lon="2.42604">
        <ele>775</ele>
        <time>2017-09-24T11:20:40.000Z</time>
      </trkpt>
      <trkpt lat="43.37393" lon="2.42604">
        <ele>775</ele>
        <time>2017-09-24T11:20:41.000Z</time>
      </trkpt>
      <trkpt lat="43.37394" lon="2.42603">
        <ele>775</ele>
        <time>2017-09-24T11:20:42.000Z</time>
      </trkpt>
      <trkpt lat="43.37394" lon="2.42602">
        <ele>774</ele>
        <time>2017-09-24T11:20:43.000Z</time>
      </trkpt>
      <trkpt lat="43.37394" lon="2.42601">
        <ele>774</ele>
        <time>2017-09-24T11:20:44.000Z</time>
      </trkpt>
      <trkpt lat="43.37394" lon="2.426">
        <ele>774</ele>
        <time>2017-09-24T11:20:45.000Z</time>
      </trkpt>
      <trkpt lat="43.37394" lon="2.42599">
        <ele>774</ele>
        <time>2017-09-24T11:20:46.000Z</time>
      </trkpt>
      <trkpt lat="43.37394" lon="2.42598">
        <ele>773</ele>
        <time>2017-09-24T11:20:47.000Z</time>
      </trkpt>
      <trkpt lat="43.37393" lon="2.42597">
        <ele>773</ele>
        <time>2017-09-24T11:20:48.000Z</time>
      </trkpt>
      <trkpt lat="43.37393" lon="2.42596">
        <ele>773</ele>
        <time>2017-09-24T11:20:49.000Z</time>
      </trkpt>
      <trkpt lat="43.37392" lon="2.42595">
        <ele>772</ele>
        <time>2017-09-24T11:20:50.000Z</time>
      </trkpt>
      <trkpt lat="43.37392" lon="2.42594">
        <ele>772</ele>
        <time>2017-09-24T11:20:51.000Z</time>
      </trkpt>
      <trkpt lat="43.37392" lon="2.42592">
        <ele>772</ele>
        <time>2017-09-24T11:20:52.000Z</time>
      </trkpt>
      <trkpt lat="43.37391" lon="2.42591">
        <ele>771</ele>
        <time>2017-09-24T11:20:53.000Z</time>
      </trkpt>
      <trkpt lat="43.37391" lon="2.42591">
        <ele>771</ele>
        <time>2017-09-24T11:20:54.000Z</time>
      </trkpt>
      <trkpt lat="43.37391" lon="2.42589">
        <ele>771</ele>
        <time>2017-09-24T11:20:55.000Z</time>
      </trkpt>
      <trkpt lat="43.37391" lon="2.42589">
        <ele>771</ele>
        <time>2017-09-24T11:20:56.000Z</time>
      </trkpt>
      <trkpt lat="43.37391" lon="2.42588">
        <ele>770</ele>
        <time>2017-09-24T11:20:57.000Z</time>
      </trkpt>
      <trkpt lat="43.37391" lon="2.42587">
        <ele>770</ele>
        <time>2017-09-24T11:20:58.000Z</time>
      </trkpt>
      <trkpt lat="43.3739" lon="2.42586">
        <ele>770</ele>
        <time>2017-09-24T11:20:59.000Z</time>
      </trkpt>
      <trkpt lat="43.3739" lon="2.42585">
        <ele>770</ele>
        <time>2017-09-24T11:21:00.000Z</time>
      </trkpt>
      <trkpt lat="43.3739" lon="2.42584">
        <ele>769</ele>
        <time>2017-09-24T11:21:01.000Z</time>
      </trkpt>
      <trkpt lat="43.37389" lon="2.42582">
        <ele>769</ele>
        <time>2017-09-24T11:21:02.000Z</time>
      </trkpt>
      <trkpt lat="43.37389" lon="2.42581">
        <ele>769</ele>
        <time>2017-09-24T11:21:03.000Z</time>
      </trkpt>
      <trkpt lat="43.37389" lon="2.4258">
        <ele>768</ele>
        <time>2017-09-24T11:21:04.000Z</time>
      </trkpt>
      <trkpt lat="43.37389" lon="2.4258">
        <ele>768</ele>
        <time>2017-09-24T11:21:05.000Z</time>
      </trkpt>
      <trkpt lat="43.37389" lon="2.42578">
        <ele>768</ele>
        <time>2017-09-24T11:21:06.000Z</time>
      </trkpt>
      <trkpt lat="43.37389" lon="2.42577">
        <ele>768</ele>
        <time>2017-09-24T11:21:07.000Z</time>
      </trkpt>
      <trkpt lat="43.37389" lon="2.42576">
        <ele>767</ele>
        <time>2017-09-24T11:21:08.000Z</time>
      </trkpt>
      <trkpt lat="43.37389" lon="2.42575">
        <ele>767</ele>
        <time>2017-09-24T11:21:09.000Z</time>
      </trkpt>
      <trkpt lat="43.37389" lon="2.42574">
        <ele>766</ele>
        <time>2017-09-24T11:21:10.000Z</time>
      </trkpt>
      <trkpt lat="43.3739" lon="2.42572">
        <ele>766</ele>
        <time>2017-09-24T11:21:11.000Z</time>
      </trkpt>
      <trkpt lat="43.3739" lon="2.42571">
        <ele>766</ele>
        <time>2017-09-24T11:21:12.000Z</time>
      </trkpt>
      <trkpt lat="43.3739" lon="2.4257">
        <ele>765</ele>
        <time>2017-09-24T11:21:13.000Z</time>
      </trkpt>
      <trkpt lat="43.37392" lon="2.4257">
        <ele>765</ele>
        <time>2017-09-24T11:21:14.000Z</time>
      </trkpt>
      <trkpt lat="43.37392" lon="2.42569">
        <ele>765</ele>
        <time>2017-09-24T11:21:15.000Z</time>
      </trkpt>
      <trkpt lat="43.37393" lon="2.42569">
        <ele>765</ele>
        <time>2017-09-24T11:21:16.000Z</time>
      </trkpt>
      <trkpt lat="43.37394" lon="2.42569">
        <ele>765</ele>
        <time>2017-09-24T11:21:17.000Z</time>
      </trkpt>
      <trkpt lat="43.37395" lon="2.42569">
        <ele>765</ele>
        <time>2017-09-24T11:21:18.000Z</time>
      </trkpt>
      <trkpt lat="43.37395" lon="2.42569">
        <ele>765</ele>
        <time>2017-09-24T11:21:19.000Z</time>
      </trkpt>
      <trkpt lat="43.37398" lon="2.42574">
        <ele>766</ele>
        <time>2017-09-24T11:26:05.000Z</time>
      </trkpt>
      <trkpt lat="43.37397" lon="2.42573">
        <ele>766</ele>
        <time>2017-09-24T11:26:06.000Z</time>
      </trkpt>
      <trkpt lat="43.37396" lon="2.42573">
        <ele>766</ele>
        <time>2017-09-24T11:26:07.000Z</time>
      </trkpt>
      <trkpt lat="43.37396" lon="2.42573">
        <ele>766</ele>
        <time>2017-09-24T11:26:08.000Z</time>
      </trkpt>
      <trkpt lat="43.37395" lon="2.42573">
        <ele>766</ele>
        <time>2017-09-24T11:26:09.000Z</time>
      </trkpt>
      <trkpt lat="43.37394" lon="2.42572">
        <ele>766</ele>
        <time>2017-09-24T11:26:10.000Z</time>
      </trkpt>
      <trkpt lat="43.37393" lon="2.42573">
        <ele>766</ele>
        <time>2017-09-24T11:26:11.000Z</time>
      </trkpt>
      <trkpt lat="43.37392" lon="2.42572">
        <ele>766</ele>
        <time>2017-09-24T11:26:12.000Z</time>
      </trkpt>
      <trkpt lat="43.37392" lon="2.42572">
        <ele>766</ele>
        <time>2017-09-24T11:26:13.000Z</time>
      </trkpt>
      <trkpt lat="43.37391" lon="2.42572">
        <ele>766</ele>
        <time>2017-09-24T11:26:14.000Z</time>
      </trkpt>
      <trkpt lat="43.3739" lon="2.42572">
        <ele>766</ele>
        <time>2017-09-24T11:26:15.000Z</time>
      </trkpt>
      <trkpt lat="43.3739" lon="2.42571">
        <ele>766</ele>
        <time>2017-09-24T11:26:16.000Z</time>
      </trkpt>
      <trkpt lat="43.37389" lon="2.42571">
        <ele>766</ele>
        <time>2017-09-24T11:26:17.000Z</time>
      </trkpt>
      <trkpt lat="43.3739" lon="2.42571">
        <ele>766</ele>
        <time>2017-09-24T11:26:18.000Z</time>
      </trkpt>
      <trkpt lat="43.3739" lon="2.42571">
        <ele>766</ele>
        <time>2017-09-24T11:26:19.000Z</time>
      </trkpt>
      <trkpt lat="43.37391" lon="2.42571">
        <ele>766</ele>
        <time>2017-09-24T11:26:20.000Z</time>
      </trkpt>
      <trkpt lat="43.37392" lon="2.42571">
        <ele>766</ele>
        <time>2017-09-24T11:26:21.000Z</time>
      </trkpt>
      <trkpt lat="43.37393" lon="2.42571">
        <ele>766</ele>
        <time>2017-09-24T11:26:22.000Z</time>
      </trkpt>
      <trkpt lat="43.37394" lon="2.42571">
        <ele>766</ele>
        <time>2017-09-24T11:26:23.000Z</time>
      </trkpt>
      <trkpt lat="43.37395" lon="2.42571">
        <ele>766</ele>
        <time>2017-09-24T11:26:24.000Z</time>
      </trkpt>
      <trkpt lat="43.37395" lon="2.42572">
        <ele>766</ele>
        <time>2017-09-24T11:26:25.000Z</time>
      </trkpt>
      <trkpt lat="43.37396" lon="2.42572">
        <ele>766</ele>
        <time>2017-09-24T11:26:26.000Z</time>
      </trkpt>
      <trkpt lat="43.37397" lon="2.42572">
        <ele>766</ele>
        <time>2017-09-24T11:26:27.000Z</time>
      </trkpt>
      <trkpt lat="43.37398" lon="2.42572">
        <ele>766</ele>
        <time>2017-09-24T11:26:28.000Z</time>
      </trkpt>
      <trkpt lat="43.37398" lon="2.42572">
        <ele>766</ele>
        <time>2017-09-24T11:26:29.000Z</time>
      </trkpt>
      <trkpt lat="43.37399" lon="2.42572">
        <ele>766</ele>
        <time>2017-09-24T11:26:30.000Z</time>
      </trkpt>
      <trkpt lat="43.374" lon="2.42572">
        <ele>766</ele>
        <time>2017-09-24T11:26:31.000Z</time>
      </trkpt>
      <trkpt lat="43.37401" lon="2.42572">
        <ele>766</ele>
        <time>2017-09-24T11:26:32.000Z</time>
      </trkpt>
      <trkpt lat="43.37401" lon="2.42572">
        <ele>766</ele>
        <time>2017-09-24T11:26:33.000Z</time>
      </trkpt>
      <trkpt lat="43.37402" lon="2.42572">
        <ele>766</ele>
        <time>2017-09-24T11:26:34.000Z</time>
      </trkpt>
      <trkpt lat="43.37402" lon="2.42572">
        <ele>766</ele>
        <time>2017-09-24T11:26:35.000Z</time>
      </trkpt>
      <trkpt lat="43.37403" lon="2.42572">
        <ele>766</ele>
        <time>2017-09-24T11:26:36.000Z</time>
      </trkpt>
      <trkpt lat="43.37404" lon="2.42571">
        <ele>766</ele>
        <time>2017-09-24T11:26:37.000Z</time>
      </trkpt>
      <trkpt lat="43.37404" lon="2.42571">
        <ele>766</ele>
        <time>2017-09-24T11:26:38.000Z</time>
      </trkpt>
      <trkpt lat="43.37405" lon="2.4257">
        <ele>765</ele>
        <time>2017-09-24T11:26:39.000Z</time>
      </trkpt>
      <trkpt lat="43.37406" lon="2.42569">
        <ele>765</ele>
        <time>2017-09-24T11:26:40.000Z</time>
      </trkpt>
      <trkpt lat="43.37406" lon="2.42569">
        <ele>765</ele>
        <time>2017-09-24T11:26:41.000Z</time>
      </trkpt>
      <trkpt lat="43.37406" lon="2.42568">
        <ele>765</ele>
        <time>2017-09-24T11:26:42.000Z</time>
      </trkpt>
      <trkpt lat="43.37407" lon="2.42568">
        <ele>765</ele>
        <time>2017-09-24T11:26:43.000Z</time>
      </trkpt>
      <trkpt lat="43.37407" lon="2.42568">
        <ele>765</ele>
        <time>2017-09-24T11:26:44.000Z</time>
      </trkpt>
      <trkpt lat="43.37404" lon="2.42571">
        <ele>766</ele>
        <time>2017-09-24T11:27:16.000Z</time>
      </trkpt>
      <trkpt lat="43.37403" lon="2.42571">
        <ele>766</ele>
        <time>2017-09-24T11:27:17.000Z</time>
      </trkpt>
      <trkpt lat="43.37402" lon="2.42572">
        <ele>766</ele>
        <time>2017-09-24T11:27:18.000Z</time>
      </trkpt>
      <trkpt lat="43.37401" lon="2.42572">
        <ele>766</ele>
        <time>2017-09-24T11:27:19.000Z</time>
      </trkpt>
      <trkpt lat="43.374" lon="2.42572">
        <ele>766</ele>
        <time>2017-09-24T11:27:20.000Z</time>
      </trkpt>
      <trkpt lat="43.37399" lon="2.42573">
        <ele>766</ele>
        <time>2017-09-24T11:27:21.000Z</time>
      </trkpt>
      <trkpt lat="43.37398" lon="2.42573">
        <ele>766</ele>
        <time>2017-09-24T11:27:22.000Z</time>
      </trkpt>
      <trkpt lat="43.37397" lon="2.42574">
        <ele>766</ele>
        <time>2017-09-24T11:27:23.000Z</time>
      </trkpt>
      <trkpt lat="43.37396" lon="2.42574">
        <ele>767</ele>
        <time>2017-09-24T11:27:24.000Z</time>
      </trkpt>
      <trkpt lat="43.37395" lon="2.42574">
        <ele>767</ele>
        <time>2017-09-24T11:27:25.000Z</time>
      </trkpt>
      <trkpt lat="43.37394" lon="2.42575">
        <ele>767</ele>
        <time>2017-09-24T11:27:26.000Z</time>
      </trkpt>
      <trkpt lat="43.37393" lon="2.42575">
        <ele>767</ele>
        <time>2017-09-24T11:27:27.000Z</time>
      </trkpt>
      <trkpt lat="43.37392" lon="2.42576">
        <ele>767</ele>
        <time>2017-09-24T11:27:28.000Z</time>
      </trkpt>
      <trkpt lat="43.37391" lon="2.42577">
        <ele>767</ele>
        <time>2017-09-24T11:27:29.000Z</time>
      </trkpt>
      <trkpt lat="43.3739" lon="2.42577">
        <ele>767</ele>
        <time>2017-09-24T11:27:30.000Z</time>
      </trkpt>
      <trkpt lat="43.37389" lon="2.42577">
        <ele>767</ele>
        <time>2017-09-24T11:27:31.000Z</time>
      </trkpt>
      <trkpt lat="43.37388" lon="2.42578">
        <ele>768</ele>
        <time>2017-09-24T11:27:32.000Z</time>
      </trkpt>
      <trkpt lat="43.37388" lon="2.42578">
        <ele>768</ele>
        <time>2017-09-24T11:27:33.000Z</time>
      </trkpt>
      <trkpt lat="43.37387" lon="2.42578">
        <ele>768</ele>
        <time>2017-09-24T11:27:34.000Z</time>
      </trkpt>
      <trkpt lat="43.37387" lon="2.42578">
        <ele>768</ele>
        <time>2017-09-24T11:27:35.000Z</time>
      </trkpt>
      <trkpt lat="43.37387" lon="2.42578">
        <ele>768</ele>
        <time>2017-09-24T11:27:36.000Z</time>
      </trkpt>
      <trkpt lat="43.3738" lon="2.42579">
        <ele>768</ele>
        <time>2017-09-24T11:27:48.000Z</time>
      </trkpt>
      <trkpt lat="43.37379" lon="2.4258">
        <ele>768</ele>
        <time>2017-09-24T11:27:49.000Z</time>
      </trkpt>
      <trkpt lat="43.37379" lon="2.4258">
        <ele>768</ele>
        <time>2017-09-24T11:27:50.000Z</time>
      </trkpt>
      <trkpt lat="43.37378" lon="2.4258">
        <ele>768</ele>
        <time>2017-09-24T11:27:51.000Z</time>
      </trkpt>
      <trkpt lat="43.37378" lon="2.42581">
        <ele>769</ele>
        <time>2017-09-24T11:27:52.000Z</time>
      </trkpt>
      <trkpt lat="43.37377" lon="2.42581">
        <ele>769</ele>
        <time>2017-09-24T11:27:53.000Z</time>
      </trkpt>
      <trkpt lat="43.37376" lon="2.42581">
        <ele>769</ele>
        <time>2017-09-24T11:27:54.000Z</time>
      </trkpt>
      <trkpt lat="43.37375" lon="2.42582">
        <ele>769</ele>
        <time>2017-09-24T11:27:55.000Z</time>
      </trkpt>
      <trkpt lat="43.37374" lon="2.42582">
        <ele>769</ele>
        <time>2017-09-24T11:27:56.000Z</time>
      </trkpt>
      <trkpt lat="43.37373" lon="2.42583">
        <ele>769</ele>
        <time>2017-09-24T11:27:57.000Z</time>
      </trkpt>
      <trkpt lat="43.37372" lon="2.42583">
        <ele>769</ele>
        <time>2017-09-24T11:27:58.000Z</time>
      </trkpt>
      <trkpt lat="43.37371" lon="2.42583">
        <ele>769</ele>
        <time>2017-09-24T11:27:59.000Z</time>
      </trkpt>
      <trkpt lat="43.3737" lon="2.42583">
        <ele>769</ele>
        <time>2017-09-24T11:28:00.000Z</time>
      </trkpt>
      <trkpt lat="43.3737" lon="2.42583">
        <ele>769</ele>
        <time>2017-09-24T11:28:01.000Z</time>
      </trkpt>
      <trkpt lat="43.37369" lon="2.42584">
        <ele>769</ele>
        <time>2017-09-24T11:28:02.000Z</time>
      </trkpt>
      <trkpt lat="43.37368" lon="2.42584">
        <ele>770</ele>
        <time>2017-09-24T11:28:03.000Z</time>
      </trkpt>
      <trkpt lat="43.37367" lon="2.42585">
        <ele>770</ele>
        <time>2017-09-24T11:28:04.000Z</time>
      </trkpt>
      <trkpt lat="43.37367" lon="2.42585">
        <ele>770</ele>
        <time>2017-09-24T11:28:05.000Z</time>
      </trkpt>
      <trkpt lat="43.37366" lon="2.42585">
        <ele>770</ele>
        <time>2017-09-24T11:28:06.000Z</time>
      </trkpt>
      <trkpt lat="43.37365" lon="2.42586">
        <ele>770</ele>
        <time>2017-09-24T11:28:07.000Z</time>
      </trkpt>
      <trkpt lat="43.37364" lon="2.42586">
        <ele>770</ele>
        <time>2017-09-24T11:28:08.000Z</time>
      </trkpt>
      <trkpt lat="43.37363" lon="2.42586">
        <ele>770</ele>
        <time>2017-09-24T11:28:09.000Z</time>
      </trkpt>
      <trkpt lat="43.37362" lon="2.42586">
        <ele>770</ele>
        <time>2017-09-24T11:28:10.000Z</time>
      </trkpt>
      <trkpt lat="43.37361" lon="2.42587">
        <ele>770</ele>
        <time>2017-09-24T11:28:11.000Z</time>
      </trkpt>
      <trkpt lat="43.3736" lon="2.42587">
        <ele>770</ele>
        <time>2017-09-24T11:28:12.000Z</time>
      </trkpt>
      <trkpt lat="43.37359" lon="2.42588">
        <ele>770</ele>
        <time>2017-09-24T11:28:13.000Z</time>
      </trkpt>
      <trkpt lat="43.37358" lon="2.42588">
        <ele>770</ele>
        <time>2017-09-24T11:28:14.000Z</time>
      </trkpt>
      <trkpt lat="43.37357" lon="2.42588">
        <ele>771</ele>
        <time>2017-09-24T11:28:15.000Z</time>
      </trkpt>
      <trkpt lat="43.37356" lon="2.42588">
        <ele>771</ele>
        <time>2017-09-24T11:28:16.000Z</time>
      </trkpt>
      <trkpt lat="43.37355" lon="2.42589">
        <ele>771</ele>
        <time>2017-09-24T11:28:17.000Z</time>
      </trkpt>
      <trkpt lat="43.37354" lon="2.42589">
        <ele>771</ele>
        <time>2017-09-24T11:28:18.000Z</time>
      </trkpt>
      <trkpt lat="43.37353" lon="2.42589">
        <ele>771</ele>
        <time>2017-09-24T11:28:19.000Z</time>
      </trkpt>
      <trkpt lat="43.37352" lon="2.42589">
        <ele>771</ele>
        <time>2017-09-24T11:28:20.000Z</time>
      </trkpt>
      <trkpt lat="43.37351" lon="2.4259">
        <ele>771</ele>
        <time>2017-09-24T11:28:21.000Z</time>
      </trkpt>
      <trkpt lat="43.3735" lon="2.4259">
        <ele>771</ele>
        <time>2017-09-24T11:28:22.000Z</time>
      </trkpt>
      <trkpt lat="43.37349" lon="2.4259">
        <ele>771</ele>
        <time>2017-09-24T11:28:23.000Z</time>
      </trkpt>
      <trkpt lat="43.37348" lon="2.4259">
        <ele>771</ele>
        <time>2017-09-24T11:28:24.000Z</time>
      </trkpt>
      <trkpt lat="43.37346" lon="2.4259">
        <ele>770</ele>
        <time>2017-09-24T11:28:25.000Z</time>
      </trkpt>
      <trkpt lat="43.37345" lon="2.4259">
        <ele>770</ele>
        <time>2017-09-24T11:28:26.000Z</time>
      </trkpt>
      <trkpt lat="43.37344" lon="2.4259">
        <ele>770</ele>
        <time>2017-09-24T11:28:27.000Z</time>
      </trkpt>
      <trkpt lat="43.37343" lon="2.4259">
        <ele>770</ele>
        <time>2017-09-24T11:28:28.000Z</time>
      </trkpt>
      <trkpt lat="43.37342" lon="2.42591">
        <ele>770</ele>
        <time>2017-09-24T11:28:29.000Z</time>
      </trkpt>
      <trkpt lat="43.37341" lon="2.42591">
        <ele>769</ele>
        <time>2017-09-24T11:28:30.000Z</time>
      </trkpt>
      <trkpt lat="43.37339" lon="2.42591">
        <ele>769</ele>
        <time>2017-09-24T11:28:31.000Z</time>
      </trkpt>
      <trkpt lat="43.37338" lon="2.42592">
        <ele>769</ele>
        <time>2017-09-24T11:28:32.000Z</time>
      </trkpt>
      <trkpt lat="43.37338" lon="2.42592">
        <ele>769</ele>
        <time>2017-09-24T11:28:33.000Z</time>
      </trkpt>
      <trkpt lat="43.37337" lon="2.42592">
        <ele>769</ele>
        <time>2017-09-24T11:28:34.000Z</time>
      </trkpt>
      <trkpt lat="43.37336" lon="2.42593">
        <ele>769</ele>
        <time>2017-09-24T11:28:35.000Z</time>
      </trkpt>
      <trkpt lat="43.37334" lon="2.42593">
        <ele>769</ele>
        <time>2017-09-24T11:28:36.000Z</time>
      </trkpt>
      <trkpt lat="43.37333" lon="2.42593">
        <ele>768</ele>
        <time>2017-09-24T11:28:37.000Z</time>
      </trkpt>
      <trkpt lat="43.37332" lon="2.42593">
        <ele>768</ele>
        <time>2017-09-24T11:28:38.000Z</time>
      </trkpt>
      <trkpt lat="43.37331" lon="2.42593">
        <ele>768</ele>
        <time>2017-09-24T11:28:39.000Z</time>
      </trkpt>
      <trkpt lat="43.3733" lon="2.42594">
        <ele>768</ele>
        <time>2017-09-24T11:28:40.000Z</time>
      </trkpt>
      <trkpt lat="43.37328" lon="2.42594">
        <ele>767</ele>
        <time>2017-09-24T11:28:41.000Z</time>
      </trkpt>
      <trkpt lat="43.37327" lon="2.42594">
        <ele>767</ele>
        <time>2017-09-24T11:28:42.000Z</time>
      </trkpt>
      <trkpt lat="43.37326" lon="2.42594">
        <ele>767</ele>
        <time>2017-09-24T11:28:43.000Z</time>
      </trkpt>
      <trkpt lat="43.37325" lon="2.42594">
        <ele>767</ele>
        <time>2017-09-24T11:28:44.000Z</time>
      </trkpt>
      <trkpt lat="43.37325" lon="2.42594">
        <ele>767</ele>
        <time>2017-09-24T11:28:45.000Z</time>
      </trkpt>
      <trkpt lat="43.37324" lon="2.42595">
        <ele>767</ele>
        <time>2017-09-24T11:28:46.000Z</time>
      </trkpt>
      <trkpt lat="43.37323" lon="2.42595">
        <ele>767</ele>
        <time>2017-09-24T11:28:47.000Z</time>
      </trkpt>
      <trkpt lat="43.37322" lon="2.42596">
        <ele>766</ele>
        <time>2017-09-24T11:28:48.000Z</time>
      </trkpt>
      <trkpt lat="43.37321" lon="2.42596">
        <ele>766</ele>
        <time>2017-09-24T11:28:49.000Z</time>
      </trkpt>
      <trkpt lat="43.37321" lon="2.42596">
        <ele>766</ele>
        <time>2017-09-24T11:28:50.000Z</time>
      </trkpt>
      <trkpt lat="43.3732" lon="2.42596">
        <ele>766</ele>
        <time>2017-09-24T11:28:51.000Z</time>
      </trkpt>
      <trkpt lat="43.37319" lon="2.42597">
        <ele>766</ele>
        <time>2017-09-24T11:28:52.000Z</time>
      </trkpt>
      <trkpt lat="43.37318" lon="2.42597">
        <ele>766</ele>
        <time>2017-09-24T11:28:53.000Z</time>
      </trkpt>
      <trkpt lat="43.37317" lon="2.42597">
        <ele>766</ele>
        <time>2017-09-24T11:28:54.000Z</time>
      </trkpt>
      <trkpt lat="43.37316" lon="2.42597">
        <ele>765</ele>
        <time>2017-09-24T11:28:55.000Z</time>
      </trkpt>
      <trkpt lat="43.37315" lon="2.42598">
        <ele>765</ele>
        <time>2017-09-24T11:28:56.000Z</time>
      </trkpt>
      <trkpt lat="43.37314" lon="2.42598">
        <ele>765</ele>
        <time>2017-09-24T11:28:57.000Z</time>
      </trkpt>
      <trkpt lat="43.37313" lon="2.42598">
        <ele>765</ele>
        <time>2017-09-24T11:28:58.000Z</time>
      </trkpt>
      <trkpt lat="43.37312" lon="2.42598">
        <ele>765</ele>
        <time>2017-09-24T11:28:59.000Z</time>
      </trkpt>
      <trkpt lat="43.37311" lon="2.42598">
        <ele>764</ele>
        <time>2017-09-24T11:29:00.000Z</time>
      </trkpt>
      <trkpt lat="43.3731" lon="2.42599">
        <ele>764</ele>
        <time>2017-09-24T11:29:01.000Z</time>
      </trkpt>
      <trkpt lat="43.37308" lon="2.42599">
        <ele>764</ele>
        <time>2017-09-24T11:29:02.000Z</time>
      </trkpt>
      <trkpt lat="43.37308" lon="2.42599">
        <ele>764</ele>
        <time>2017-09-24T11:29:03.000Z</time>
      </trkpt>
      <trkpt lat="43.37307" lon="2.42599">
        <ele>764</ele>
        <time>2017-09-24T11:29:04.000Z</time>
      </trkpt>
      <trkpt lat="43.37306" lon="2.42598">
        <ele>763</ele>
        <time>2017-09-24T11:29:05.000Z</time>
      </trkpt>
      <trkpt lat="43.37304" lon="2.42598">
        <ele>763</ele>
        <time>2017-09-24T11:29:06.000Z</time>
      </trkpt>
      <trkpt lat="43.37303" lon="2.42598">
        <ele>763</ele>
        <time>2017-09-24T11:29:07.000Z</time>
      </trkpt>
      <trkpt lat="43.37302" lon="2.42597">
        <ele>762</ele>
        <time>2017-09-24T11:29:08.000Z</time>
      </trkpt>
      <trkpt lat="43.373" lon="2.42597">
        <ele>762</ele>
        <time>2017-09-24T11:29:09.000Z</time>
      </trkpt>
      <trkpt lat="43.37299" lon="2.42597">
        <ele>761</ele>
        <time>2017-09-24T11:29:10.000Z</time>
      </trkpt>
      <trkpt lat="43.37298" lon="2.42597">
        <ele>761</ele>
        <time>2017-09-24T11:29:11.000Z</time>
      </trkpt>
      <trkpt lat="43.37297" lon="2.42597">
        <ele>761</ele>
        <time>2017-09-24T11:29:12.000Z</time>
      </trkpt>
      <trkpt lat="43.37296" lon="2.42597">
        <ele>761</ele>
        <time>2017-09-24T11:29:13.000Z</time>
      </trkpt>
      <trkpt lat="43.37294" lon="2.42596">
        <ele>760</ele>
        <time>2017-09-24T11:29:14.000Z</time>
      </trkpt>
      <trkpt lat="43.37293" lon="2.42597">
        <ele>760</ele>
        <time>2017-09-24T11:29:15.000Z</time>
      </trkpt>
      <trkpt lat="43.37292" lon="2.42597">
        <ele>760</ele>
        <time>2017-09-24T11:29:16.000Z</time>
      </trkpt>
      <trkpt lat="43.37291" lon="2.42597">
        <ele>759</ele>
        <time>2017-09-24T11:29:17.000Z</time>
      </trkpt>
      <trkpt lat="43.3729" lon="2.42597">
        <ele>759</ele>
        <time>2017-09-24T11:29:18.000Z</time>
      </trkpt>
      <trkpt lat="43.37289" lon="2.42597">
        <ele>759</ele>
        <time>2017-09-24T11:29:19.000Z</time>
      </trkpt>
      <trkpt lat="43.37288" lon="2.42597">
        <ele>759</ele>
        <time>2017-09-24T11:29:20.000Z</time>
      </trkpt>
      <trkpt lat="43.37287" lon="2.42598">
        <ele>759</ele>
        <time>2017-09-24T11:29:21.000Z</time>
      </trkpt>
      <trkpt lat="43.37286" lon="2.42598">
        <ele>759</ele>
        <time>2017-09-24T11:29:22.000Z</time>
      </trkpt>
      <trkpt lat="43.37285" lon="2.42598">
        <ele>759</ele>
        <time>2017-09-24T11:29:23.000Z</time>
      </trkpt>
      <trkpt lat="43.37284" lon="2.42599">
        <ele>758</ele>
        <time>2017-09-24T11:29:24.000Z</time>
      </trkpt>
      <trkpt lat="43.37283" lon="2.42599">
        <ele>758</ele>
        <time>2017-09-24T11:29:25.000Z</time>
      </trkpt>
      <trkpt lat="43.37282" lon="2.42599">
        <ele>758</ele>
        <time>2017-09-24T11:29:26.000Z</time>
      </trkpt>
      <trkpt lat="43.37281" lon="2.42599">
        <ele>758</ele>
        <time>2017-09-24T11:29:27.000Z</time>
      </trkpt>
      <trkpt lat="43.3728" lon="2.42599">
        <ele>758</ele>
        <time>2017-09-24T11:29:28.000Z</time>
      </trkpt>
      <trkpt lat="43.3728" lon="2.42599">
        <ele>757</ele>
        <time>2017-09-24T11:29:29.000Z</time>
      </trkpt>
      <trkpt lat="43.37279" lon="2.42599">
        <ele>757</ele>
        <time>2017-09-24T11:29:30.000Z</time>
      </trkpt>
      <trkpt lat="43.37278" lon="2.426">
        <ele>757</ele>
        <time>2017-09-24T11:29:31.000Z</time>
      </trkpt>
      <trkpt lat="43.37277" lon="2.426">
        <ele>757</ele>
        <time>2017-09-24T11:29:32.000Z</time>
      </trkpt>
      <trkpt lat="43.37276" lon="2.426">
        <ele>756</ele>
        <time>2017-09-24T11:29:33.000Z</time>
      </trkpt>
      <trkpt lat="43.37275" lon="2.426">
        <ele>756</ele>
        <time>2017-09-24T11:29:34.000Z</time>
      </trkpt>
      <trkpt lat="43.37273" lon="2.426">
        <ele>756</ele>
        <time>2017-09-24T11:29:35.000Z</time>
      </trkpt>
      <trkpt lat="43.37272" lon="2.426">
        <ele>755</ele>
        <time>2017-09-24T11:29:36.000Z</time>
      </trkpt>
      <trkpt lat="43.37271" lon="2.42601">
        <ele>755</ele>
        <time>2017-09-24T11:29:37.000Z</time>
      </trkpt>
      <trkpt lat="43.3727" lon="2.42601">
        <ele>755</ele>
        <time>2017-09-24T11:29:38.000Z</time>
      </trkpt>
      <trkpt lat="43.37269" lon="2.42602">
        <ele>755</ele>
        <time>2017-09-24T11:29:39.000Z</time>
      </trkpt>
      <trkpt lat="43.37268" lon="2.42602">
        <ele>755</ele>
        <time>2017-09-24T11:29:40.000Z</time>
      </trkpt>
      <trkpt lat="43.37267" lon="2.42602">
        <ele>754</ele>
        <time>2017-09-24T11:29:41.000Z</time>
      </trkpt>
      <trkpt lat="43.37267" lon="2.42602">
        <ele>754</ele>
        <time>2017-09-24T11:29:42.000Z</time>
      </trkpt>
      <trkpt lat="43.37266" lon="2.42603">
        <ele>754</ele>
        <time>2017-09-24T11:29:43.000Z</time>
      </trkpt>
      <trkpt lat="43.37265" lon="2.42604">
        <ele>754</ele>
        <time>2017-09-24T11:29:44.000Z</time>
      </trkpt>
      <trkpt lat="43.37264" lon="2.42604">
        <ele>754</ele>
        <time>2017-09-24T11:29:45.000Z</time>
      </trkpt>
      <trkpt lat="43.37263" lon="2.42605">
        <ele>753</ele>
        <time>2017-09-24T11:29:46.000Z</time>
      </trkpt>
      <trkpt lat="43.37262" lon="2.42605">
        <ele>753</ele>
        <time>2017-09-24T11:29:47.000Z</time>
      </trkpt>
      <trkpt lat="43.37261" lon="2.42606">
        <ele>753</ele>
        <time>2017-09-24T11:29:48.000Z</time>
      </trkpt>
      <trkpt lat="43.3726" lon="2.42606">
        <ele>752</ele>
        <time>2017-09-24T11:29:49.000Z</time>
      </trkpt>
      <trkpt lat="43.37259" lon="2.42607">
        <ele>752</ele>
        <time>2017-09-24T11:29:50.000Z</time>
      </trkpt>
      <trkpt lat="43.37258" lon="2.42608">
        <ele>752</ele>
        <time>2017-09-24T11:29:51.000Z</time>
      </trkpt>
      <trkpt lat="43.37257" lon="2.42609">
        <ele>752</ele>
        <time>2017-09-24T11:29:52.000Z</time>
      </trkpt>
      <trkpt lat="43.37257" lon="2.4261">
        <ele>752</ele>
        <time>2017-09-24T11:29:53.000Z</time>
      </trkpt>
      <trkpt lat="43.37256" lon="2.4261">
        <ele>751</ele>
        <time>2017-09-24T11:29:54.000Z</time>
      </trkpt>
      <trkpt lat="43.37255" lon="2.42611">
        <ele>751</ele>
        <time>2017-09-24T11:29:55.000Z</time>
      </trkpt>
      <trkpt lat="43.37254" lon="2.42611">
        <ele>751</ele>
        <time>2017-09-24T11:29:56.000Z</time>
      </trkpt>
      <trkpt lat="43.37253" lon="2.42612">
        <ele>751</ele>
        <time>2017-09-24T11:29:57.000Z</time>
      </trkpt>
      <trkpt lat="43.37252" lon="2.42613">
        <ele>751</ele>
        <time>2017-09-24T11:29:58.000Z</time>
      </trkpt>
      <trkpt lat="43.37251" lon="2.42613">
        <ele>750</ele>
        <time>2017-09-24T11:29:59.000Z</time>
      </trkpt>
      <trkpt lat="43.37251" lon="2.42614">
        <ele>750</ele>
        <time>2017-09-24T11:30:00.000Z</time>
      </trkpt>
      <trkpt lat="43.3725" lon="2.42614">
        <ele>750</ele>
        <time>2017-09-24T11:30:01.000Z</time>
      </trkpt>
      <trkpt lat="43.3725" lon="2.42615">
        <ele>750</ele>
        <time>2017-09-24T11:30:02.000Z</time>
      </trkpt>
      <trkpt lat="43.37249" lon="2.42616">
        <ele>750</ele>
        <time>2017-09-24T11:30:03.000Z</time>
      </trkpt>
      <trkpt lat="43.37248" lon="2.42616">
        <ele>749</ele>
        <time>2017-09-24T11:30:04.000Z</time>
      </trkpt>
      <trkpt lat="43.37248" lon="2.42617">
        <ele>749</ele>
        <time>2017-09-24T11:30:05.000Z</time>
      </trkpt>
      <trkpt lat="43.37247" lon="2.42618">
        <ele>749</ele>
        <time>2017-09-24T11:30:06.000Z</time>
      </trkpt>
      <trkpt lat="43.37246" lon="2.42618">
        <ele>749</ele>
        <time>2017-09-24T11:30:07.000Z</time>
      </trkpt>
      <trkpt lat="43.37246" lon="2.42619">
        <ele>749</ele>
        <time>2017-09-24T11:30:08.000Z</time>
      </trkpt>
      <trkpt lat="43.37245" lon="2.42619">
        <ele>749</ele>
        <time>2017-09-24T11:30:09.000Z</time>
      </trkpt>
      <trkpt lat="43.37244" lon="2.4262">
        <ele>748</ele>
        <time>2017-09-24T11:30:10.000Z</time>
      </trkpt>
      <trkpt lat="43.37243" lon="2.42621">
        <ele>748</ele>
        <time>2017-09-24T11:30:11.000Z</time>
      </trkpt>
      <trkpt lat="43.37243" lon="2.42622">
        <ele>748</ele>
        <time>2017-09-24T11:30:12.000Z</time>
      </trkpt>
      <trkpt lat="43.37242" lon="2.42623">
        <ele>748</ele>
        <time>2017-09-24T11:30:13.000Z</time>
      </trkpt>
      <trkpt lat="43.37242" lon="2.42624">
        <ele>748</ele>
        <time>2017-09-24T11:30:14.000Z</time>
      </trkpt>
      <trkpt lat="43.37241" lon="2.42625">
        <ele>748</ele>
        <time>2017-09-24T11:30:15.000Z</time>
      </trkpt>
      <trkpt lat="43.3724" lon="2.42626">
        <ele>748</ele>
        <time>2017-09-24T11:30:16.000Z</time>
      </trkpt>
      <trkpt lat="43.3724" lon="2.42627">
        <ele>748</ele>
        <time>2017-09-24T11:30:17.000Z</time>
      </trkpt>
      <trkpt lat="43.37239" lon="2.42627">
        <ele>748</ele>
        <time>2017-09-24T11:30:18.000Z</time>
      </trkpt>
      <trkpt lat="43.37238" lon="2.42628">
        <ele>748</ele>
        <time>2017-09-24T11:30:19.000Z</time>
      </trkpt>
      <trkpt lat="43.37238" lon="2.4263">
        <ele>748</ele>
        <time>2017-09-24T11:30:20.000Z</time>
      </trkpt>
      <trkpt lat="43.37238" lon="2.42631">
        <ele>748</ele>
        <time>2017-09-24T11:30:21.000Z</time>
      </trkpt>
      <trkpt lat="43.37237" lon="2.42632">
        <ele>748</ele>
        <time>2017-09-24T11:30:22.000Z</time>
      </trkpt>
      <trkpt lat="43.37237" lon="2.42633">
        <ele>748</ele>
        <time>2017-09-24T11:30:23.000Z</time>
      </trkpt>
      <trkpt lat="43.37236" lon="2.42634">
        <ele>748</ele>
        <time>2017-09-24T11:30:24.000Z</time>
      </trkpt>
      <trkpt lat="43.37236" lon="2.42635">
        <ele>748</ele>
        <time>2017-09-24T11:30:25.000Z</time>
      </trkpt>
      <trkpt lat="43.37235" lon="2.42636">
        <ele>748</ele>
        <time>2017-09-24T11:30:26.000Z</time>
      </trkpt>
      <trkpt lat="43.37234" lon="2.42637">
        <ele>748</ele>
        <time>2017-09-24T11:30:27.000Z</time>
      </trkpt>
      <trkpt lat="43.37234" lon="2.42638">
        <ele>747</ele>
        <time>2017-09-24T11:30:28.000Z</time>
      </trkpt>
      <trkpt lat="43.37233" lon="2.42639">
        <ele>747</ele>
        <time>2017-09-24T11:30:29.000Z</time>
      </trkpt>
      <trkpt lat="43.37232" lon="2.4264">
        <ele>747</ele>
        <time>2017-09-24T11:30:30.000Z</time>
      </trkpt>
      <trkpt lat="43.37232" lon="2.42641">
        <ele>747</ele>
        <time>2017-09-24T11:30:31.000Z</time>
      </trkpt>
      <trkpt lat="43.37231" lon="2.42642">
        <ele>747</ele>
        <time>2017-09-24T11:30:32.000Z</time>
      </trkpt>
      <trkpt lat="43.3723" lon="2.42643">
        <ele>746</ele>
        <time>2017-09-24T11:30:33.000Z</time>
      </trkpt>
      <trkpt lat="43.3723" lon="2.42643">
        <ele>746</ele>
        <time>2017-09-24T11:30:34.000Z</time>
      </trkpt>
      <trkpt lat="43.37229" lon="2.42645">
        <ele>746</ele>
        <time>2017-09-24T11:30:35.000Z</time>
      </trkpt>
      <trkpt lat="43.37229" lon="2.42646">
        <ele>746</ele>
        <time>2017-09-24T11:30:36.000Z</time>
      </trkpt>
      <trkpt lat="43.37228" lon="2.42647">
        <ele>746</ele>
        <time>2017-09-24T11:30:37.000Z</time>
      </trkpt>
      <trkpt lat="43.37228" lon="2.42648">
        <ele>746</ele>
        <time>2017-09-24T11:30:38.000Z</time>
      </trkpt>
      <trkpt lat="43.37228" lon="2.4265">
        <ele>746</ele>
        <time>2017-09-24T11:30:39.000Z</time>
      </trkpt>
      <trkpt lat="43.37227" lon="2.42651">
        <ele>746</ele>
        <time>2017-09-24T11:30:40.000Z</time>
      </trkpt>
      <trkpt lat="43.37226" lon="2.42652">
        <ele>746</ele>
        <time>2017-09-24T11:30:41.000Z</time>
      </trkpt>
      <trkpt lat="43.37226" lon="2.42654">
        <ele>746</ele>
        <time>2017-09-24T11:30:42.000Z</time>
      </trkpt>
      <trkpt lat="43.37225" lon="2.42655">
        <ele>746</ele>
        <time>2017-09-24T11:30:43.000Z</time>
      </trkpt>
      <trkpt lat="43.37224" lon="2.42657">
        <ele>746</ele>
        <time>2017-09-24T11:30:44.000Z</time>
      </trkpt>
      <trkpt lat="43.37224" lon="2.42658">
        <ele>746</ele>
        <time>2017-09-24T11:30:45.000Z</time>
      </trkpt>
      <trkpt lat="43.37223" lon="2.42659">
        <ele>746</ele>
        <time>2017-09-24T11:30:46.000Z</time>
      </trkpt>
      <trkpt lat="43.37223" lon="2.4266">
        <ele>746</ele>
        <time>2017-09-24T11:30:47.000Z</time>
      </trkpt>
      <trkpt lat="43.37222" lon="2.42662">
        <ele>746</ele>
        <time>2017-09-24T11:30:48.000Z</time>
      </trkpt>
      <trkpt lat="43.37221" lon="2.42663">
        <ele>745</ele>
        <time>2017-09-24T11:30:49.000Z</time>
      </trkpt>
      <trkpt lat="43.37221" lon="2.42664">
        <ele>745</ele>
        <time>2017-09-24T11:30:50.000Z</time>
      </trkpt>
      <trkpt lat="43.37221" lon="2.42665">
        <ele>745</ele>
        <time>2017-09-24T11:30:51.000Z</time>
      </trkpt>
      <trkpt lat="43.3722" lon="2.42667">
        <ele>746</ele>
        <time>2017-09-24T11:30:52.000Z</time>
      </trkpt>
      <trkpt lat="43.3722" lon="2.42668">
        <ele>745</ele>
        <time>2017-09-24T11:30:53.000Z</time>
      </trkpt>
      <trkpt lat="43.37219" lon="2.42669">
        <ele>745</ele>
        <time>2017-09-24T11:30:54.000Z</time>
      </trkpt>
      <trkpt lat="43.37218" lon="2.4267">
        <ele>745</ele>
        <time>2017-09-24T11:30:55.000Z</time>
      </trkpt>
      <trkpt lat="43.37218" lon="2.42672">
        <ele>745</ele>
        <time>2017-09-24T11:30:56.000Z</time>
      </trkpt>
      <trkpt lat="43.37217" lon="2.42673">
        <ele>745</ele>
        <time>2017-09-24T11:30:57.000Z</time>
      </trkpt>
      <trkpt lat="43.37217" lon="2.42675">
        <ele>745</ele>
        <time>2017-09-24T11:30:58.000Z</time>
      </trkpt>
      <trkpt lat="43.37216" lon="2.42676">
        <ele>745</ele>
        <time>2017-09-24T11:30:59.000Z</time>
      </trkpt>
      <trkpt lat="43.37216" lon="2.42677">
        <ele>745</ele>
        <time>2017-09-24T11:31:00.000Z</time>
      </trkpt>
      <trkpt lat="43.37216" lon="2.42678">
        <ele>745</ele>
        <time>2017-09-24T11:31:01.000Z</time>
      </trkpt>
      <trkpt lat="43.37215" lon="2.4268">
        <ele>745</ele>
        <time>2017-09-24T11:31:02.000Z</time>
      </trkpt>
      <trkpt lat="43.37215" lon="2.42681">
        <ele>745</ele>
        <time>2017-09-24T11:31:03.000Z</time>
      </trkpt>
      <trkpt lat="43.37214" lon="2.42682">
        <ele>745</ele>
        <time>2017-09-24T11:31:04.000Z</time>
      </trkpt>
      <trkpt lat="43.37214" lon="2.42683">
        <ele>745</ele>
        <time>2017-09-24T11:31:05.000Z</time>
      </trkpt>
      <trkpt lat="43.37213" lon="2.42685">
        <ele>745</ele>
        <time>2017-09-24T11:31:06.000Z</time>
      </trkpt>
      <trkpt lat="43.37213" lon="2.42686">
        <ele>745</ele>
        <time>2017-09-24T11:31:07.000Z</time>
      </trkpt>
      <trkpt lat="43.37212" lon="2.42687">
        <ele>745</ele>
        <time>2017-09-24T11:31:08.000Z</time>
      </trkpt>
      <trkpt lat="43.37212" lon="2.42689">
        <ele>746</ele>
        <time>2017-09-24T11:31:09.000Z</time>
      </trkpt>
      <trkpt lat="43.37212" lon="2.4269">
        <ele>746</ele>
        <time>2017-09-24T11:31:10.000Z</time>
      </trkpt>
      <trkpt lat="43.37211" lon="2.42691">
        <ele>746</ele>
        <time>2017-09-24T11:31:11.000Z</time>
      </trkpt>
      <trkpt lat="43.37211" lon="2.42692">
        <ele>746</ele>
        <time>2017-09-24T11:31:12.000Z</time>
      </trkpt>
      <trkpt lat="43.37211" lon="2.42693">
        <ele>746</ele>
        <time>2017-09-24T11:31:13.000Z</time>
      </trkpt>
      <trkpt lat="43.3721" lon="2.42695">
        <ele>746</ele>
        <time>2017-09-24T11:31:14.000Z</time>
      </trkpt>
      <trkpt lat="43.3721" lon="2.42696">
        <ele>746</ele>
        <time>2017-09-24T11:31:15.000Z</time>
      </trkpt>
      <trkpt lat="43.37209" lon="2.42698">
        <ele>746</ele>
        <time>2017-09-24T11:31:16.000Z</time>
      </trkpt>
      <trkpt lat="43.37209" lon="2.42699">
        <ele>745</ele>
        <time>2017-09-24T11:31:17.000Z</time>
      </trkpt>
      <trkpt lat="43.37208" lon="2.427">
        <ele>745</ele>
        <time>2017-09-24T11:31:18.000Z</time>
      </trkpt>
      <trkpt lat="43.37208" lon="2.42702">
        <ele>745</ele>
        <time>2017-09-24T11:31:19.000Z</time>
      </trkpt>
      <trkpt lat="43.37207" lon="2.42704">
        <ele>745</ele>
        <time>2017-09-24T11:31:20.000Z</time>
      </trkpt>
      <trkpt lat="43.37207" lon="2.42705">
        <ele>745</ele>
        <time>2017-09-24T11:31:21.000Z</time>
      </trkpt>
      <trkpt lat="43.37207" lon="2.42706">
        <ele>745</ele>
        <time>2017-09-24T11:31:22.000Z</time>
      </trkpt>
      <trkpt lat="43.37207" lon="2.42707">
        <ele>745</ele>
        <time>2017-09-24T11:31:23.000Z</time>
      </trkpt>
      <trkpt lat="43.37206" lon="2.42708">
        <ele>745</ele>
        <time>2017-09-24T11:31:24.000Z</time>
      </trkpt>
      <trkpt lat="43.37206" lon="2.42709">
        <ele>745</ele>
        <time>2017-09-24T11:31:25.000Z</time>
      </trkpt>
      <trkpt lat="43.37206" lon="2.42711">
        <ele>745</ele>
        <time>2017-09-24T11:31:26.000Z</time>
      </trkpt>
      <trkpt lat="43.37205" lon="2.42712">
        <ele>745</ele>
        <time>2017-09-24T11:31:27.000Z</time>
      </trkpt>
      <trkpt lat="43.37205" lon="2.42713">
        <ele>745</ele>
        <time>2017-09-24T11:31:28.000Z</time>
      </trkpt>
      <trkpt lat="43.37204" lon="2.42715">
        <ele>744</ele>
        <time>2017-09-24T11:31:29.000Z</time>
      </trkpt>
      <trkpt lat="43.37204" lon="2.42716">
        <ele>744</ele>
        <time>2017-09-24T11:31:30.000Z</time>
      </trkpt>
      <trkpt lat="43.37204" lon="2.42717">
        <ele>744</ele>
        <time>2017-09-24T11:31:31.000Z</time>
      </trkpt>
      <trkpt lat="43.37203" lon="2.42718">
        <ele>744</ele>
        <time>2017-09-24T11:31:32.000Z</time>
      </trkpt>
      <trkpt lat="43.37203" lon="2.4272">
        <ele>744</ele>
        <time>2017-09-24T11:31:33.000Z</time>
      </trkpt>
      <trkpt lat="43.37202" lon="2.42721">
        <ele>744</ele>
        <time>2017-09-24T11:31:34.000Z</time>
      </trkpt>
      <trkpt lat="43.37202" lon="2.42723">
        <ele>744</ele>
        <time>2017-09-24T11:31:35.000Z</time>
      </trkpt>
      <trkpt lat="43.37202" lon="2.42724">
        <ele>744</ele>
        <time>2017-09-24T11:31:36.000Z</time>
      </trkpt>
      <trkpt lat="43.37202" lon="2.42725">
        <ele>744</ele>
        <time>2017-09-24T11:31:37.000Z</time>
      </trkpt>
      <trkpt lat="43.37201" lon="2.42727">
        <ele>744</ele>
        <time>2017-09-24T11:31:38.000Z</time>
      </trkpt>
      <trkpt lat="43.37201" lon="2.42728">
        <ele>744</ele>
        <time>2017-09-24T11:31:39.000Z</time>
      </trkpt>
      <trkpt lat="43.37201" lon="2.42729">
        <ele>744</ele>
        <time>2017-09-24T11:31:40.000Z</time>
      </trkpt>
      <trkpt lat="43.372" lon="2.42731">
        <ele>744</ele>
        <time>2017-09-24T11:31:41.000Z</time>
      </trkpt>
      <trkpt lat="43.372" lon="2.42732">
        <ele>743</ele>
        <time>2017-09-24T11:31:42.000Z</time>
      </trkpt>
      <trkpt lat="43.372" lon="2.42734">
        <ele>743</ele>
        <time>2017-09-24T11:31:43.000Z</time>
      </trkpt>
      <trkpt lat="43.37199" lon="2.42735">
        <ele>743</ele>
        <time>2017-09-24T11:31:44.000Z</time>
      </trkpt>
      <trkpt lat="43.37199" lon="2.42736">
        <ele>743</ele>
        <time>2017-09-24T11:31:45.000Z</time>
      </trkpt>
      <trkpt lat="43.37199" lon="2.42738">
        <ele>743</ele>
        <time>2017-09-24T11:31:46.000Z</time>
      </trkpt>
      <trkpt lat="43.37198" lon="2.42739">
        <ele>743</ele>
        <time>2017-09-24T11:31:47.000Z</time>
      </trkpt>
      <trkpt lat="43.37198" lon="2.4274">
        <ele>743</ele>
        <time>2017-09-24T11:31:48.000Z</time>
      </trkpt>
      <trkpt lat="43.37197" lon="2.42742">
        <ele>743</ele>
        <time>2017-09-24T11:31:49.000Z</time>
      </trkpt>
      <trkpt lat="43.37197" lon="2.42743">
        <ele>743</ele>
        <time>2017-09-24T11:31:50.000Z</time>
      </trkpt>
      <trkpt lat="43.37197" lon="2.42744">
        <ele>743</ele>
        <time>2017-09-24T11:31:51.000Z</time>
      </trkpt>
      <trkpt lat="43.37196" lon="2.42745">
        <ele>743</ele>
        <time>2017-09-24T11:31:52.000Z</time>
      </trkpt>
      <trkpt lat="43.37196" lon="2.42746">
        <ele>743</ele>
        <time>2017-09-24T11:31:53.000Z</time>
      </trkpt>
      <trkpt lat="43.37195" lon="2.42747">
        <ele>742</ele>
        <time>2017-09-24T11:31:54.000Z</time>
      </trkpt>
      <trkpt lat="43.37195" lon="2.42748">
        <ele>742</ele>
        <time>2017-09-24T11:31:55.000Z</time>
      </trkpt>
      <trkpt lat="43.37195" lon="2.4275">
        <ele>742</ele>
        <time>2017-09-24T11:31:56.000Z</time>
      </trkpt>
      <trkpt lat="43.37195" lon="2.42751">
        <ele>742</ele>
        <time>2017-09-24T11:31:57.000Z</time>
      </trkpt>
      <trkpt lat="43.37195" lon="2.42753">
        <ele>742</ele>
        <time>2017-09-24T11:31:58.000Z</time>
      </trkpt>
      <trkpt lat="43.37195" lon="2.42754">
        <ele>742</ele>
        <time>2017-09-24T11:31:59.000Z</time>
      </trkpt>
      <trkpt lat="43.37195" lon="2.42756">
        <ele>742</ele>
        <time>2017-09-24T11:32:00.000Z</time>
      </trkpt>
      <trkpt lat="43.37195" lon="2.42757">
        <ele>742</ele>
        <time>2017-09-24T11:32:01.000Z</time>
      </trkpt>
      <trkpt lat="43.37194" lon="2.42759">
        <ele>742</ele>
        <time>2017-09-24T11:32:02.000Z</time>
      </trkpt>
      <trkpt lat="43.37195" lon="2.4276">
        <ele>742</ele>
        <time>2017-09-24T11:32:03.000Z</time>
      </trkpt>
      <trkpt lat="43.37195" lon="2.42761">
        <ele>742</ele>
        <time>2017-09-24T11:32:04.000Z</time>
      </trkpt>
      <trkpt lat="43.37195" lon="2.42763">
        <ele>742</ele>
        <time>2017-09-24T11:32:05.000Z</time>
      </trkpt>
      <trkpt lat="43.37195" lon="2.42764">
        <ele>742</ele>
        <time>2017-09-24T11:32:06.000Z</time>
      </trkpt>
      <trkpt lat="43.37194" lon="2.42765">
        <ele>741</ele>
        <time>2017-09-24T11:32:07.000Z</time>
      </trkpt>
      <trkpt lat="43.37194" lon="2.42766">
        <ele>741</ele>
        <time>2017-09-24T11:32:08.000Z</time>
      </trkpt>
      <trkpt lat="43.37194" lon="2.42767">
        <ele>741</ele>
        <time>2017-09-24T11:32:09.000Z</time>
      </trkpt>
      <trkpt lat="43.37193" lon="2.42769">
        <ele>741</ele>
        <time>2017-09-24T11:32:10.000Z</time>
      </trkpt>
      <trkpt lat="43.37193" lon="2.4277">
        <ele>741</ele>
        <time>2017-09-24T11:32:11.000Z</time>
      </trkpt>
      <trkpt lat="43.37193" lon="2.42771">
        <ele>741</ele>
        <time>2017-09-24T11:32:12.000Z</time>
      </trkpt>
      <trkpt lat="43.37193" lon="2.42772">
        <ele>741</ele>
        <time>2017-09-24T11:32:13.000Z</time>
      </trkpt>
      <trkpt lat="43.37193" lon="2.42774">
        <ele>741</ele>
        <time>2017-09-24T11:32:14.000Z</time>
      </trkpt>
      <trkpt lat="43.37194" lon="2.42775">
        <ele>741</ele>
        <time>2017-09-24T11:32:15.000Z</time>
      </trkpt>
      <trkpt lat="43.37194" lon="2.42777">
        <ele>741</ele>
        <time>2017-09-24T11:32:16.000Z</time>
      </trkpt>
      <trkpt lat="43.37194" lon="2.42778">
        <ele>741</ele>
        <time>2017-09-24T11:32:17.000Z</time>
      </trkpt>
      <trkpt lat="43.37194" lon="2.4278">
        <ele>741</ele>
        <time>2017-09-24T11:32:18.000Z</time>
      </trkpt>
      <trkpt lat="43.37194" lon="2.42782">
        <ele>741</ele>
        <time>2017-09-24T11:32:19.000Z</time>
      </trkpt>
      <trkpt lat="43.37194" lon="2.42783">
        <ele>741</ele>
        <time>2017-09-24T11:32:20.000Z</time>
      </trkpt>
      <trkpt lat="43.37194" lon="2.42785">
        <ele>741</ele>
        <time>2017-09-24T11:32:21.000Z</time>
      </trkpt>
      <trkpt lat="43.37195" lon="2.42786">
        <ele>741</ele>
        <time>2017-09-24T11:32:22.000Z</time>
      </trkpt>
      <trkpt lat="43.37195" lon="2.42788">
        <ele>741</ele>
        <time>2017-09-24T11:32:23.000Z</time>
      </trkpt>
      <trkpt lat="43.37195" lon="2.42789">
        <ele>741</ele>
        <time>2017-09-24T11:32:24.000Z</time>
      </trkpt>
      <trkpt lat="43.37195" lon="2.4279">
        <ele>741</ele>
        <time>2017-09-24T11:32:25.000Z</time>
      </trkpt>
      <trkpt lat="43.37195" lon="2.42792">
        <ele>741</ele>
        <time>2017-09-24T11:32:26.000Z</time>
      </trkpt>
      <trkpt lat="43.37195" lon="2.42793">
        <ele>741</ele>
        <time>2017-09-24T11:32:27.000Z</time>
      </trkpt>
      <trkpt lat="43.37195" lon="2.42794">
        <ele>741</ele>
        <time>2017-09-24T11:32:28.000Z</time>
      </trkpt>
      <trkpt lat="43.37195" lon="2.42796">
        <ele>741</ele>
        <time>2017-09-24T11:32:29.000Z</time>
      </trkpt>
      <trkpt lat="43.37195" lon="2.42797">
        <ele>741</ele>
        <time>2017-09-24T11:32:30.000Z</time>
      </trkpt>
      <trkpt lat="43.37195" lon="2.42799">
        <ele>741</ele>
        <time>2017-09-24T11:32:31.000Z</time>
      </trkpt>
      <trkpt lat="43.37195" lon="2.428">
        <ele>741</ele>
        <time>2017-09-24T11:32:32.000Z</time>
      </trkpt>
      <trkpt lat="43.37195" lon="2.42802">
        <ele>741</ele>
        <time>2017-09-24T11:32:33.000Z</time>
      </trkpt>
      <trkpt lat="43.37195" lon="2.42803">
        <ele>741</ele>
        <time>2017-09-24T11:32:34.000Z</time>
      </trkpt>
      <trkpt lat="43.37196" lon="2.42805">
        <ele>741</ele>
        <time>2017-09-24T11:32:35.000Z</time>
      </trkpt>
      <trkpt lat="43.37196" lon="2.42806">
        <ele>741</ele>
        <time>2017-09-24T11:32:36.000Z</time>
      </trkpt>
      <trkpt lat="43.37195" lon="2.42808">
        <ele>741</ele>
        <time>2017-09-24T11:32:37.000Z</time>
      </trkpt>
      <trkpt lat="43.37196" lon="2.42809">
        <ele>741</ele>
        <time>2017-09-24T11:32:38.000Z</time>
      </trkpt>
      <trkpt lat="43.37195" lon="2.4281">
        <ele>741</ele>
        <time>2017-09-24T11:32:39.000Z</time>
      </trkpt>
      <trkpt lat="43.37196" lon="2.42812">
        <ele>741</ele>
        <time>2017-09-24T11:32:40.000Z</time>
      </trkpt>
      <trkpt lat="43.37196" lon="2.42814">
        <ele>741</ele>
        <time>2017-09-24T11:32:41.000Z</time>
      </trkpt>
      <trkpt lat="43.37195" lon="2.42815">
        <ele>741</ele>
        <time>2017-09-24T11:32:42.000Z</time>
      </trkpt>
      <trkpt lat="43.37195" lon="2.42816">
        <ele>741</ele>
        <time>2017-09-24T11:32:43.000Z</time>
      </trkpt>
      <trkpt lat="43.37194" lon="2.42817">
        <ele>740</ele>
        <time>2017-09-24T11:32:44.000Z</time>
      </trkpt>
      <trkpt lat="43.37195" lon="2.42819">
        <ele>740</ele>
        <time>2017-09-24T11:32:45.000Z</time>
      </trkpt>
      <trkpt lat="43.37195" lon="2.4282">
        <ele>740</ele>
        <time>2017-09-24T11:32:46.000Z</time>
      </trkpt>
      <trkpt lat="43.37195" lon="2.42822">
        <ele>740</ele>
        <time>2017-09-24T11:32:47.000Z</time>
      </trkpt>
      <trkpt lat="43.37194" lon="2.42823">
        <ele>740</ele>
        <time>2017-09-24T11:32:48.000Z</time>
      </trkpt>
      <trkpt lat="43.37194" lon="2.42824">
        <ele>740</ele>
        <time>2017-09-24T11:32:49.000Z</time>
      </trkpt>
      <trkpt lat="43.37194" lon="2.42826">
        <ele>740</ele>
        <time>2017-09-24T11:32:50.000Z</time>
      </trkpt>
      <trkpt lat="43.37194" lon="2.42828">
        <ele>740</ele>
        <time>2017-09-24T11:32:51.000Z</time>
      </trkpt>
      <trkpt lat="43.37194" lon="2.42829">
        <ele>740</ele>
        <time>2017-09-24T11:32:52.000Z</time>
      </trkpt>
      <trkpt lat="43.37195" lon="2.42831">
        <ele>740</ele>
        <time>2017-09-24T11:32:53.000Z</time>
      </trkpt>
      <trkpt lat="43.37195" lon="2.42832">
        <ele>740</ele>
        <time>2017-09-24T11:32:54.000Z</time>
      </trkpt>
      <trkpt lat="43.37195" lon="2.42834">
        <ele>740</ele>
        <time>2017-09-24T11:32:55.000Z</time>
      </trkpt>
      <trkpt lat="43.37195" lon="2.42835">
        <ele>740</ele>
        <time>2017-09-24T11:32:56.000Z</time>
      </trkpt>
      <trkpt lat="43.37195" lon="2.42837">
        <ele>740</ele>
        <time>2017-09-24T11:32:57.000Z</time>
      </trkpt>
      <trkpt lat="43.37195" lon="2.42838">
        <ele>740</ele>
        <time>2017-09-24T11:32:58.000Z</time>
      </trkpt>
      <trkpt lat="43.37195" lon="2.42839">
        <ele>740</ele>
        <time>2017-09-24T11:32:59.000Z</time>
      </trkpt>
      <trkpt lat="43.37195" lon="2.4284">
        <ele>740</ele>
        <time>2017-09-24T11:33:00.000Z</time>
      </trkpt>
      <trkpt lat="43.37195" lon="2.42842">
        <ele>740</ele>
        <time>2017-09-24T11:33:01.000Z</time>
      </trkpt>
      <trkpt lat="43.37195" lon="2.42843">
        <ele>739</ele>
        <time>2017-09-24T11:33:02.000Z</time>
      </trkpt>
      <trkpt lat="43.37195" lon="2.42844">
        <ele>739</ele>
        <time>2017-09-24T11:33:03.000Z</time>
      </trkpt>
      <trkpt lat="43.37195" lon="2.42846">
        <ele>739</ele>
        <time>2017-09-24T11:33:04.000Z</time>
      </trkpt>
      <trkpt lat="43.37195" lon="2.42847">
        <ele>739</ele>
        <time>2017-09-24T11:33:05.000Z</time>
      </trkpt>
      <trkpt lat="43.37195" lon="2.42849">
        <ele>739</ele>
        <time>2017-09-24T11:33:06.000Z</time>
      </trkpt>
      <trkpt lat="43.37196" lon="2.4285">
        <ele>739</ele>
        <time>2017-09-24T11:33:07.000Z</time>
      </trkpt>
      <trkpt lat="43.37196" lon="2.42851">
        <ele>739</ele>
        <time>2017-09-24T11:33:08.000Z</time>
      </trkpt>
      <trkpt lat="43.37196" lon="2.42853">
        <ele>739</ele>
        <time>2017-09-24T11:33:09.000Z</time>
      </trkpt>
      <trkpt lat="43.37197" lon="2.42855">
        <ele>740</ele>
        <time>2017-09-24T11:33:10.000Z</time>
      </trkpt>
      <trkpt lat="43.37197" lon="2.42856">
        <ele>740</ele>
        <time>2017-09-24T11:33:11.000Z</time>
      </trkpt>
      <trkpt lat="43.37197" lon="2.42858">
        <ele>740</ele>
        <time>2017-09-24T11:33:12.000Z</time>
      </trkpt>
      <trkpt lat="43.37198" lon="2.42859">
        <ele>740</ele>
        <time>2017-09-24T11:33:13.000Z</time>
      </trkpt>
      <trkpt lat="43.37198" lon="2.42861">
        <ele>740</ele>
        <time>2017-09-24T11:33:14.000Z</time>
      </trkpt>
      <trkpt lat="43.37198" lon="2.42862">
        <ele>740</ele>
        <time>2017-09-24T11:33:15.000Z</time>
      </trkpt>
      <trkpt lat="43.37198" lon="2.42864">
        <ele>740</ele>
        <time>2017-09-24T11:33:16.000Z</time>
      </trkpt>
      <trkpt lat="43.37198" lon="2.42865">
        <ele>739</ele>
        <time>2017-09-24T11:33:17.000Z</time>
      </trkpt>
      <trkpt lat="43.37198" lon="2.42866">
        <ele>740</ele>
        <time>2017-09-24T11:33:18.000Z</time>
      </trkpt>
      <trkpt lat="43.37199" lon="2.42868">
        <ele>740</ele>
        <time>2017-09-24T11:33:19.000Z</time>
      </trkpt>
      <trkpt lat="43.372" lon="2.42869">
        <ele>740</ele>
        <time>2017-09-24T11:33:20.000Z</time>
      </trkpt>
      <trkpt lat="43.372" lon="2.42871">
        <ele>740</ele>
        <time>2017-09-24T11:33:21.000Z</time>
      </trkpt>
      <trkpt lat="43.372" lon="2.42872">
        <ele>740</ele>
        <time>2017-09-24T11:33:22.000Z</time>
      </trkpt>
      <trkpt lat="43.372" lon="2.42873">
        <ele>740</ele>
        <time>2017-09-24T11:33:23.000Z</time>
      </trkpt>
      <trkpt lat="43.37201" lon="2.42875">
        <ele>740</ele>
        <time>2017-09-24T11:33:24.000Z</time>
      </trkpt>
      <trkpt lat="43.37201" lon="2.42876">
        <ele>740</ele>
        <time>2017-09-24T11:33:25.000Z</time>
      </trkpt>
      <trkpt lat="43.37201" lon="2.42877">
        <ele>740</ele>
        <time>2017-09-24T11:33:26.000Z</time>
      </trkpt>
      <trkpt lat="43.37201" lon="2.42879">
        <ele>740</ele>
        <time>2017-09-24T11:33:27.000Z</time>
      </trkpt>
      <trkpt lat="43.37201" lon="2.4288">
        <ele>740</ele>
        <time>2017-09-24T11:33:28.000Z</time>
      </trkpt>
      <trkpt lat="43.37201" lon="2.42881">
        <ele>740</ele>
        <time>2017-09-24T11:33:29.000Z</time>
      </trkpt>
      <trkpt lat="43.37202" lon="2.42882">
        <ele>740</ele>
        <time>2017-09-24T11:33:30.000Z</time>
      </trkpt>
      <trkpt lat="43.37202" lon="2.42884">
        <ele>740</ele>
        <time>2017-09-24T11:33:31.000Z</time>
      </trkpt>
      <trkpt lat="43.37202" lon="2.42885">
        <ele>740</ele>
        <time>2017-09-24T11:33:32.000Z</time>
      </trkpt>
      <trkpt lat="43.37202" lon="2.42885">
        <ele>740</ele>
        <time>2017-09-24T11:33:33.000Z</time>
      </trkpt>
      <trkpt lat="43.37202" lon="2.42886">
        <ele>740</ele>
        <time>2017-09-24T11:33:34.000Z</time>
      </trkpt>
      <trkpt lat="43.37202" lon="2.42886">
        <ele>740</ele>
        <time>2017-09-24T11:33:35.000Z</time>
      </trkpt>
      <trkpt lat="43.37202" lon="2.42887">
        <ele>740</ele>
        <time>2017-09-24T11:33:36.000Z</time>
      </trkpt>
      <trkpt lat="43.37201" lon="2.42908">
        <ele>739</ele>
        <time>2017-09-24T11:35:10.000Z</time>
      </trkpt>
      <trkpt lat="43.37201" lon="2.42909">
        <ele>738</ele>
        <time>2017-09-24T11:35:11.000Z</time>
      </trkpt>
      <trkpt lat="43.37201" lon="2.4291">
        <ele>738</ele>
        <time>2017-09-24T11:35:12.000Z</time>
      </trkpt>
      <trkpt lat="43.37202" lon="2.42912">
        <ele>738</ele>
        <time>2017-09-24T11:35:13.000Z</time>
      </trkpt>
      <trkpt lat="43.37202" lon="2.42913">
        <ele>738</ele>
        <time>2017-09-24T11:35:14.000Z</time>
      </trkpt>
      <trkpt lat="43.37202" lon="2.42914">
        <ele>738</ele>
        <time>2017-09-24T11:35:15.000Z</time>
      </trkpt>
      <trkpt lat="43.37202" lon="2.42915">
        <ele>738</ele>
        <time>2017-09-24T11:35:16.000Z</time>
      </trkpt>
      <trkpt lat="43.37201" lon="2.42916">
        <ele>738</ele>
        <time>2017-09-24T11:35:17.000Z</time>
      </trkpt>
      <trkpt lat="43.37201" lon="2.42918">
        <ele>738</ele>
        <time>2017-09-24T11:35:18.000Z</time>
      </trkpt>
      <trkpt lat="43.37202" lon="2.42919">
        <ele>738</ele>
        <time>2017-09-24T11:35:19.000Z</time>
      </trkpt>
      <trkpt lat="43.37202" lon="2.42921">
        <ele>738</ele>
        <time>2017-09-24T11:35:20.000Z</time>
      </trkpt>
      <trkpt lat="43.37202" lon="2.42922">
        <ele>738</ele>
        <time>2017-09-24T11:35:21.000Z</time>
      </trkpt>
      <trkpt lat="43.37202" lon="2.42923">
        <ele>738</ele>
        <time>2017-09-24T11:35:22.000Z</time>
      </trkpt>
      <trkpt lat="43.37202" lon="2.42925">
        <ele>738</ele>
        <time>2017-09-24T11:35:23.000Z</time>
      </trkpt>
      <trkpt lat="43.37202" lon="2.42926">
        <ele>738</ele>
        <time>2017-09-24T11:35:24.000Z</time>
      </trkpt>
      <trkpt lat="43.37201" lon="2.42927">
        <ele>738</ele>
        <time>2017-09-24T11:35:25.000Z</time>
      </trkpt>
      <trkpt lat="43.37202" lon="2.42929">
        <ele>738</ele>
        <time>2017-09-24T11:35:26.000Z</time>
      </trkpt>
      <trkpt lat="43.37201" lon="2.4293">
        <ele>738</ele>
        <time>2017-09-24T11:35:27.000Z</time>
      </trkpt>
      <trkpt lat="43.37201" lon="2.42932">
        <ele>738</ele>
        <time>2017-09-24T11:35:28.000Z</time>
      </trkpt>
      <trkpt lat="43.37202" lon="2.42934">
        <ele>738</ele>
        <time>2017-09-24T11:35:29.000Z</time>
      </trkpt>
      <trkpt lat="43.37202" lon="2.42935">
        <ele>738</ele>
        <time>2017-09-24T11:35:30.000Z</time>
      </trkpt>
      <trkpt lat="43.37201" lon="2.42937">
        <ele>737</ele>
        <time>2017-09-24T11:35:31.000Z</time>
      </trkpt>
      <trkpt lat="43.37201" lon="2.42938">
        <ele>737</ele>
        <time>2017-09-24T11:35:32.000Z</time>
      </trkpt>
      <trkpt lat="43.37201" lon="2.4294">
        <ele>737</ele>
        <time>2017-09-24T11:35:33.000Z</time>
      </trkpt>
      <trkpt lat="43.37202" lon="2.42941">
        <ele>737</ele>
        <time>2017-09-24T11:35:34.000Z</time>
      </trkpt>
      <trkpt lat="43.37202" lon="2.42943">
        <ele>738</ele>
        <time>2017-09-24T11:35:35.000Z</time>
      </trkpt>
      <trkpt lat="43.37202" lon="2.42944">
        <ele>738</ele>
        <time>2017-09-24T11:35:36.000Z</time>
      </trkpt>
      <trkpt lat="43.37203" lon="2.42945">
        <ele>738</ele>
        <time>2017-09-24T11:35:37.000Z</time>
      </trkpt>
      <trkpt lat="43.37203" lon="2.42947">
        <ele>738</ele>
        <time>2017-09-24T11:35:38.000Z</time>
      </trkpt>
      <trkpt lat="43.37204" lon="2.42949">
        <ele>738</ele>
        <time>2017-09-24T11:35:39.000Z</time>
      </trkpt>
      <trkpt lat="43.37204" lon="2.4295">
        <ele>738</ele>
        <time>2017-09-24T11:35:40.000Z</time>
      </trkpt>
      <trkpt lat="43.37204" lon="2.42951">
        <ele>738</ele>
        <time>2017-09-24T11:35:41.000Z</time>
      </trkpt>
      <trkpt lat="43.37205" lon="2.42953">
        <ele>739</ele>
        <time>2017-09-24T11:35:42.000Z</time>
      </trkpt>
      <trkpt lat="43.37206" lon="2.42955">
        <ele>739</ele>
        <time>2017-09-24T11:35:43.000Z</time>
      </trkpt>
      <trkpt lat="43.37205" lon="2.42956">
        <ele>739</ele>
        <time>2017-09-24T11:35:44.000Z</time>
      </trkpt>
      <trkpt lat="43.37206" lon="2.42957">
        <ele>739</ele>
        <time>2017-09-24T11:35:45.000Z</time>
      </trkpt>
      <trkpt lat="43.37206" lon="2.42959">
        <ele>739</ele>
        <time>2017-09-24T11:35:46.000Z</time>
      </trkpt>
      <trkpt lat="43.37206" lon="2.4296">
        <ele>739</ele>
        <time>2017-09-24T11:35:47.000Z</time>
      </trkpt>
      <trkpt lat="43.37206" lon="2.42961">
        <ele>739</ele>
        <time>2017-09-24T11:35:48.000Z</time>
      </trkpt>
      <trkpt lat="43.37205" lon="2.42962">
        <ele>739</ele>
        <time>2017-09-24T11:35:49.000Z</time>
      </trkpt>
      <trkpt lat="43.37204" lon="2.42964">
        <ele>738</ele>
        <time>2017-09-24T11:35:50.000Z</time>
      </trkpt>
      <trkpt lat="43.37204" lon="2.42965">
        <ele>738</ele>
        <time>2017-09-24T11:35:51.000Z</time>
      </trkpt>
      <trkpt lat="43.37203" lon="2.42967">
        <ele>738</ele>
        <time>2017-09-24T11:35:52.000Z</time>
      </trkpt>
      <trkpt lat="43.37204" lon="2.42969">
        <ele>738</ele>
        <time>2017-09-24T11:35:53.000Z</time>
      </trkpt>
      <trkpt lat="43.37203" lon="2.4297">
        <ele>738</ele>
        <time>2017-09-24T11:35:54.000Z</time>
      </trkpt>
      <trkpt lat="43.37203" lon="2.42971">
        <ele>737</ele>
        <time>2017-09-24T11:35:55.000Z</time>
      </trkpt>
      <trkpt lat="43.37203" lon="2.42973">
        <ele>737</ele>
        <time>2017-09-24T11:35:56.000Z</time>
      </trkpt>
      <trkpt lat="43.37202" lon="2.42974">
        <ele>737</ele>
        <time>2017-09-24T11:35:57.000Z</time>
      </trkpt>
      <trkpt lat="43.37202" lon="2.42976">
        <ele>737</ele>
        <time>2017-09-24T11:35:58.000Z</time>
      </trkpt>
      <trkpt lat="43.37202" lon="2.42977">
        <ele>737</ele>
        <time>2017-09-24T11:35:59.000Z</time>
      </trkpt>
      <trkpt lat="43.37202" lon="2.42978">
        <ele>736</ele>
        <time>2017-09-24T11:36:00.000Z</time>
      </trkpt>
      <trkpt lat="43.37202" lon="2.42979">
        <ele>737</ele>
        <time>2017-09-24T11:36:01.000Z</time>
      </trkpt>
      <trkpt lat="43.37202" lon="2.42981">
        <ele>736</ele>
        <time>2017-09-24T11:36:02.000Z</time>
      </trkpt>
      <trkpt lat="43.37202" lon="2.42983">
        <ele>737</ele>
        <time>2017-09-24T11:36:03.000Z</time>
      </trkpt>
      <trkpt lat="43.37202" lon="2.42984">
        <ele>736</ele>
        <time>2017-09-24T11:36:04.000Z</time>
      </trkpt>
      <trkpt lat="43.37202" lon="2.42986">
        <ele>736</ele>
        <time>2017-09-24T11:36:05.000Z</time>
      </trkpt>
      <trkpt lat="43.37202" lon="2.42987">
        <ele>737</ele>
        <time>2017-09-24T11:36:06.000Z</time>
      </trkpt>
      <trkpt lat="43.37202" lon="2.42988">
        <ele>736</ele>
        <time>2017-09-24T11:36:07.000Z</time>
      </trkpt>
      <trkpt lat="43.37202" lon="2.4299">
        <ele>737</ele>
        <time>2017-09-24T11:36:08.000Z</time>
      </trkpt>
      <trkpt lat="43.37202" lon="2.42992">
        <ele>736</ele>
        <time>2017-09-24T11:36:09.000Z</time>
      </trkpt>
      <trkpt lat="43.37202" lon="2.42993">
        <ele>736</ele>
        <time>2017-09-24T11:36:10.000Z</time>
      </trkpt>
      <trkpt lat="43.37202" lon="2.42995">
        <ele>736</ele>
        <time>2017-09-24T11:36:11.000Z</time>
      </trkpt>
      <trkpt lat="43.37202" lon="2.42996">
        <ele>736</ele>
        <time>2017-09-24T11:36:12.000Z</time>
      </trkpt>
      <trkpt lat="43.37202" lon="2.42998">
        <ele>736</ele>
        <time>2017-09-24T11:36:13.000Z</time>
      </trkpt>
      <trkpt lat="43.37202" lon="2.42999">
        <ele>736</ele>
        <time>2017-09-24T11:36:14.000Z</time>
      </trkpt>
      <trkpt lat="43.37202" lon="2.43001">
        <ele>736</ele>
        <time>2017-09-24T11:36:15.000Z</time>
      </trkpt>
      <trkpt lat="43.37202" lon="2.43002">
        <ele>736</ele>
        <time>2017-09-24T11:36:16.000Z</time>
      </trkpt>
      <trkpt lat="43.37202" lon="2.43004">
        <ele>736</ele>
        <time>2017-09-24T11:36:17.000Z</time>
      </trkpt>
      <trkpt lat="43.37202" lon="2.43005">
        <ele>736</ele>
        <time>2017-09-24T11:36:18.000Z</time>
      </trkpt>
      <trkpt lat="43.37201" lon="2.43006">
        <ele>736</ele>
        <time>2017-09-24T11:36:19.000Z</time>
      </trkpt>
      <trkpt lat="43.37202" lon="2.43008">
        <ele>736</ele>
        <time>2017-09-24T11:36:20.000Z</time>
      </trkpt>
      <trkpt lat="43.37202" lon="2.4301">
        <ele>736</ele>
        <time>2017-09-24T11:36:21.000Z</time>
      </trkpt>
      <trkpt lat="43.37202" lon="2.43012">
        <ele>736</ele>
        <time>2017-09-24T11:36:22.000Z</time>
      </trkpt>
      <trkpt lat="43.37202" lon="2.43014">
        <ele>736</ele>
        <time>2017-09-24T11:36:23.000Z</time>
      </trkpt>
      <trkpt lat="43.37203" lon="2.43015">
        <ele>736</ele>
        <time>2017-09-24T11:36:24.000Z</time>
      </trkpt>
      <trkpt lat="43.37203" lon="2.43017">
        <ele>736</ele>
        <time>2017-09-24T11:36:25.000Z</time>
      </trkpt>
      <trkpt lat="43.37203" lon="2.43018">
        <ele>736</ele>
        <time>2017-09-24T11:36:26.000Z</time>
      </trkpt>
      <trkpt lat="43.37203" lon="2.4302">
        <ele>736</ele>
        <time>2017-09-24T11:36:27.000Z</time>
      </trkpt>
      <trkpt lat="43.37203" lon="2.43021">
        <ele>736</ele>
        <time>2017-09-24T11:36:28.000Z</time>
      </trkpt>
      <trkpt lat="43.37204" lon="2.43023">
        <ele>737</ele>
        <time>2017-09-24T11:36:29.000Z</time>
      </trkpt>
      <trkpt lat="43.37204" lon="2.43024">
        <ele>737</ele>
        <time>2017-09-24T11:36:30.000Z</time>
      </trkpt>
      <trkpt lat="43.37203" lon="2.43026">
        <ele>736</ele>
        <time>2017-09-24T11:36:31.000Z</time>
      </trkpt>
      <trkpt lat="43.37202" lon="2.43027">
        <ele>736</ele>
        <time>2017-09-24T11:36:32.000Z</time>
      </trkpt>
      <trkpt lat="43.37202" lon="2.43028">
        <ele>736</ele>
        <time>2017-09-24T11:36:33.000Z</time>
      </trkpt>
      <trkpt lat="43.37202" lon="2.43029">
        <ele>736</ele>
        <time>2017-09-24T11:36:34.000Z</time>
      </trkpt>
      <trkpt lat="43.37201" lon="2.43031">
        <ele>736</ele>
        <time>2017-09-24T11:36:35.000Z</time>
      </trkpt>
      <trkpt lat="43.37201" lon="2.43032">
        <ele>735</ele>
        <time>2017-09-24T11:36:36.000Z</time>
      </trkpt>
      <trkpt lat="43.37201" lon="2.43034">
        <ele>735</ele>
        <time>2017-09-24T11:36:37.000Z</time>
      </trkpt>
      <trkpt lat="43.37201" lon="2.43036">
        <ele>735</ele>
        <time>2017-09-24T11:36:38.000Z</time>
      </trkpt>
      <trkpt lat="43.37201" lon="2.43037">
        <ele>735</ele>
        <time>2017-09-24T11:36:39.000Z</time>
      </trkpt>
      <trkpt lat="43.372" lon="2.43039">
        <ele>735</ele>
        <time>2017-09-24T11:36:40.000Z</time>
      </trkpt>
      <trkpt lat="43.372" lon="2.4304">
        <ele>735</ele>
        <time>2017-09-24T11:36:41.000Z</time>
      </trkpt>
      <trkpt lat="43.37199" lon="2.43042">
        <ele>735</ele>
        <time>2017-09-24T11:36:42.000Z</time>
      </trkpt>
      <trkpt lat="43.37199" lon="2.43043">
        <ele>735</ele>
        <time>2017-09-24T11:36:43.000Z</time>
      </trkpt>
      <trkpt lat="43.37199" lon="2.43044">
        <ele>735</ele>
        <time>2017-09-24T11:36:44.000Z</time>
      </trkpt>
      <trkpt lat="43.37199" lon="2.43046">
        <ele>735</ele>
        <time>2017-09-24T11:36:45.000Z</time>
      </trkpt>
      <trkpt lat="43.37199" lon="2.43048">
        <ele>735</ele>
        <time>2017-09-24T11:36:46.000Z</time>
      </trkpt>
      <trkpt lat="43.37198" lon="2.43049">
        <ele>734</ele>
        <time>2017-09-24T11:36:47.000Z</time>
      </trkpt>
      <trkpt lat="43.37198" lon="2.43051">
        <ele>734</ele>
        <time>2017-09-24T11:36:48.000Z</time>
      </trkpt>
      <trkpt lat="43.37198" lon="2.43052">
        <ele>734</ele>
        <time>2017-09-24T11:36:49.000Z</time>
      </trkpt>
      <trkpt lat="43.37198" lon="2.43054">
        <ele>734</ele>
        <time>2017-09-24T11:36:50.000Z</time>
      </trkpt>
      <trkpt lat="43.37198" lon="2.43055">
        <ele>734</ele>
        <time>2017-09-24T11:36:51.000Z</time>
      </trkpt>
      <trkpt lat="43.37197" lon="2.43056">
        <ele>734</ele>
        <time>2017-09-24T11:36:52.000Z</time>
      </trkpt>
      <trkpt lat="43.37197" lon="2.43058">
        <ele>734</ele>
        <time>2017-09-24T11:36:53.000Z</time>
      </trkpt>
      <trkpt lat="43.37197" lon="2.4306">
        <ele>734</ele>
        <time>2017-09-24T11:36:54.000Z</time>
      </trkpt>
      <trkpt lat="43.37197" lon="2.43061">
        <ele>734</ele>
        <time>2017-09-24T11:36:55.000Z</time>
      </trkpt>
      <trkpt lat="43.37196" lon="2.43063">
        <ele>734</ele>
        <time>2017-09-24T11:36:56.000Z</time>
      </trkpt>
      <trkpt lat="43.37196" lon="2.43064">
        <ele>733</ele>
        <time>2017-09-24T11:36:57.000Z</time>
      </trkpt>
      <trkpt lat="43.37196" lon="2.43066">
        <ele>733</ele>
        <time>2017-09-24T11:36:58.000Z</time>
      </trkpt>
      <trkpt lat="43.37195" lon="2.43067">
        <ele>733</ele>
        <time>2017-09-24T11:36:59.000Z</time>
      </trkpt>
      <trkpt lat="43.37195" lon="2.43068">
        <ele>733</ele>
        <time>2017-09-24T11:37:00.000Z</time>
      </trkpt>
      <trkpt lat="43.37194" lon="2.4307">
        <ele>733</ele>
        <time>2017-09-24T11:37:01.000Z</time>
      </trkpt>
      <trkpt lat="43.37194" lon="2.43072">
        <ele>733</ele>
        <time>2017-09-24T11:37:02.000Z</time>
      </trkpt>
      <trkpt lat="43.37194" lon="2.43074">
        <ele>733</ele>
        <time>2017-09-24T11:37:03.000Z</time>
      </trkpt>
      <trkpt lat="43.37193" lon="2.43075">
        <ele>732</ele>
        <time>2017-09-24T11:37:04.000Z</time>
      </trkpt>
      <trkpt lat="43.37193" lon="2.43077">
        <ele>732</ele>
        <time>2017-09-24T11:37:05.000Z</time>
      </trkpt>
      <trkpt lat="43.37193" lon="2.43078">
        <ele>732</ele>
        <time>2017-09-24T11:37:06.000Z</time>
      </trkpt>
      <trkpt lat="43.37192" lon="2.4308">
        <ele>732</ele>
        <time>2017-09-24T11:37:07.000Z</time>
      </trkpt>
      <trkpt lat="43.37192" lon="2.43082">
        <ele>732</ele>
        <time>2017-09-24T11:37:08.000Z</time>
      </trkpt>
      <trkpt lat="43.37191" lon="2.43083">
        <ele>732</ele>
        <time>2017-09-24T11:37:09.000Z</time>
      </trkpt>
      <trkpt lat="43.37191" lon="2.43085">
        <ele>731</ele>
        <time>2017-09-24T11:37:10.000Z</time>
      </trkpt>
      <trkpt lat="43.37191" lon="2.43087">
        <ele>731</ele>
        <time>2017-09-24T11:37:11.000Z</time>
      </trkpt>
      <trkpt lat="43.37191" lon="2.43089">
        <ele>731</ele>
        <time>2017-09-24T11:37:12.000Z</time>
      </trkpt>
      <trkpt lat="43.37191" lon="2.43091">
        <ele>731</ele>
        <time>2017-09-24T11:37:13.000Z</time>
      </trkpt>
      <trkpt lat="43.37191" lon="2.43093">
        <ele>731</ele>
        <time>2017-09-24T11:37:14.000Z</time>
      </trkpt>
      <trkpt lat="43.37191" lon="2.43094">
        <ele>731</ele>
        <time>2017-09-24T11:37:15.000Z</time>
      </trkpt>
      <trkpt lat="43.3719" lon="2.43096">
        <ele>731</ele>
        <time>2017-09-24T11:37:16.000Z</time>
      </trkpt>
      <trkpt lat="43.37191" lon="2.43098">
        <ele>731</ele>
        <time>2017-09-24T11:37:17.000Z</time>
      </trkpt>
      <trkpt lat="43.37191" lon="2.431">
        <ele>731</ele>
        <time>2017-09-24T11:37:18.000Z</time>
      </trkpt>
      <trkpt lat="43.37191" lon="2.43101">
        <ele>731</ele>
        <time>2017-09-24T11:37:19.000Z</time>
      </trkpt>
      <trkpt lat="43.3719" lon="2.43103">
        <ele>731</ele>
        <time>2017-09-24T11:37:20.000Z</time>
      </trkpt>
      <trkpt lat="43.3719" lon="2.43105">
        <ele>731</ele>
        <time>2017-09-24T11:37:21.000Z</time>
      </trkpt>
      <trkpt lat="43.3719" lon="2.43106">
        <ele>730</ele>
        <time>2017-09-24T11:37:22.000Z</time>
      </trkpt>
      <trkpt lat="43.3719" lon="2.43108">
        <ele>730</ele>
        <time>2017-09-24T11:37:23.000Z</time>
      </trkpt>
      <trkpt lat="43.3719" lon="2.4311">
        <ele>730</ele>
        <time>2017-09-24T11:37:24.000Z</time>
      </trkpt>
      <trkpt lat="43.37189" lon="2.43111">
        <ele>730</ele>
        <time>2017-09-24T11:37:25.000Z</time>
      </trkpt>
      <trkpt lat="43.37189" lon="2.43113">
        <ele>730</ele>
        <time>2017-09-24T11:37:26.000Z</time>
      </trkpt>
      <trkpt lat="43.37189" lon="2.43115">
        <ele>730</ele>
        <time>2017-09-24T11:37:27.000Z</time>
      </trkpt>
      <trkpt lat="43.37188" lon="2.43117">
        <ele>730</ele>
        <time>2017-09-24T11:37:28.000Z</time>
      </trkpt>
      <trkpt lat="43.37188" lon="2.43119">
        <ele>729</ele>
        <time>2017-09-24T11:37:29.000Z</time>
      </trkpt>
      <trkpt lat="43.37187" lon="2.4312">
        <ele>729</ele>
        <time>2017-09-24T11:37:30.000Z</time>
      </trkpt>
      <trkpt lat="43.37187" lon="2.43122">
        <ele>729</ele>
        <time>2017-09-24T11:37:31.000Z</time>
      </trkpt>
      <trkpt lat="43.37186" lon="2.43124">
        <ele>728</ele>
        <time>2017-09-24T11:37:32.000Z</time>
      </trkpt>
      <trkpt lat="43.37185" lon="2.43125">
        <ele>728</ele>
        <time>2017-09-24T11:37:33.000Z</time>
      </trkpt>
      <trkpt lat="43.37185" lon="2.43127">
        <ele>728</ele>
        <time>2017-09-24T11:37:34.000Z</time>
      </trkpt>
      <trkpt lat="43.37185" lon="2.43128">
        <ele>728</ele>
        <time>2017-09-24T11:37:35.000Z</time>
      </trkpt>
      <trkpt lat="43.37184" lon="2.4313">
        <ele>727</ele>
        <time>2017-09-24T11:37:36.000Z</time>
      </trkpt>
      <trkpt lat="43.37184" lon="2.43131">
        <ele>727</ele>
        <time>2017-09-24T11:37:37.000Z</time>
      </trkpt>
      <trkpt lat="43.37184" lon="2.43133">
        <ele>727</ele>
        <time>2017-09-24T11:37:38.000Z</time>
      </trkpt>
      <trkpt lat="43.37184" lon="2.43135">
        <ele>727</ele>
        <time>2017-09-24T11:37:39.000Z</time>
      </trkpt>
      <trkpt lat="43.37184" lon="2.43137">
        <ele>727</ele>
        <time>2017-09-24T11:37:40.000Z</time>
      </trkpt>
      <trkpt lat="43.37184" lon="2.43138">
        <ele>727</ele>
        <time>2017-09-24T11:37:41.000Z</time>
      </trkpt>
      <trkpt lat="43.37184" lon="2.4314">
        <ele>727</ele>
        <time>2017-09-24T11:37:42.000Z</time>
      </trkpt>
      <trkpt lat="43.37184" lon="2.43141">
        <ele>727</ele>
        <time>2017-09-24T11:37:43.000Z</time>
      </trkpt>
      <trkpt lat="43.37184" lon="2.43143">
        <ele>727</ele>
        <time>2017-09-24T11:37:44.000Z</time>
      </trkpt>
      <trkpt lat="43.37183" lon="2.43145">
        <ele>727</ele>
        <time>2017-09-24T11:37:45.000Z</time>
      </trkpt>
      <trkpt lat="43.37184" lon="2.43147">
        <ele>727</ele>
        <time>2017-09-24T11:37:46.000Z</time>
      </trkpt>
      <trkpt lat="43.37184" lon="2.43148">
        <ele>727</ele>
        <time>2017-09-24T11:37:47.000Z</time>
      </trkpt>
      <trkpt lat="43.37184" lon="2.4315">
        <ele>727</ele>
        <time>2017-09-24T11:37:48.000Z</time>
      </trkpt>
      <trkpt lat="43.37184" lon="2.43151">
        <ele>726</ele>
        <time>2017-09-24T11:37:49.000Z</time>
      </trkpt>
      <trkpt lat="43.37183" lon="2.43153">
        <ele>726</ele>
        <time>2017-09-24T11:37:50.000Z</time>
      </trkpt>
      <trkpt lat="43.37183" lon="2.43155">
        <ele>726</ele>
        <time>2017-09-24T11:37:51.000Z</time>
      </trkpt>
      <trkpt lat="43.37183" lon="2.43157">
        <ele>726</ele>
        <time>2017-09-24T11:37:52.000Z</time>
      </trkpt>
      <trkpt lat="43.37182" lon="2.43158">
        <ele>726</ele>
        <time>2017-09-24T11:37:53.000Z</time>
      </trkpt>
      <trkpt lat="43.37182" lon="2.43159">
        <ele>725</ele>
        <time>2017-09-24T11:37:54.000Z</time>
      </trkpt>
      <trkpt lat="43.37182" lon="2.43161">
        <ele>725</ele>
        <time>2017-09-24T11:37:55.000Z</time>
      </trkpt>
      <trkpt lat="43.37181" lon="2.43163">
        <ele>725</ele>
        <time>2017-09-24T11:37:56.000Z</time>
      </trkpt>
      <trkpt lat="43.3718" lon="2.43164">
        <ele>725</ele>
        <time>2017-09-24T11:37:57.000Z</time>
      </trkpt>
      <trkpt lat="43.3718" lon="2.43165">
        <ele>724</ele>
        <time>2017-09-24T11:37:58.000Z</time>
      </trkpt>
      <trkpt lat="43.37179" lon="2.43167">
        <ele>724</ele>
        <time>2017-09-24T11:37:59.000Z</time>
      </trkpt>
      <trkpt lat="43.37179" lon="2.43168">
        <ele>724</ele>
        <time>2017-09-24T11:38:00.000Z</time>
      </trkpt>
      <trkpt lat="43.37178" lon="2.4317">
        <ele>724</ele>
        <time>2017-09-24T11:38:01.000Z</time>
      </trkpt>
      <trkpt lat="43.37178" lon="2.43171">
        <ele>724</ele>
        <time>2017-09-24T11:38:02.000Z</time>
      </trkpt>
      <trkpt lat="43.37178" lon="2.43173">
        <ele>723</ele>
        <time>2017-09-24T11:38:03.000Z</time>
      </trkpt>
      <trkpt lat="43.37178" lon="2.43175">
        <ele>723</ele>
        <time>2017-09-24T11:38:04.000Z</time>
      </trkpt>
      <trkpt lat="43.37178" lon="2.43176">
        <ele>723</ele>
        <time>2017-09-24T11:38:05.000Z</time>
      </trkpt>
      <trkpt lat="43.37178" lon="2.43177">
        <ele>723</ele>
        <time>2017-09-24T11:38:06.000Z</time>
      </trkpt>
      <trkpt lat="43.37177" lon="2.43179">
        <ele>723</ele>
        <time>2017-09-24T11:38:07.000Z</time>
      </trkpt>
      <trkpt lat="43.37177" lon="2.4318">
        <ele>723</ele>
        <time>2017-09-24T11:38:08.000Z</time>
      </trkpt>
      <trkpt lat="43.37177" lon="2.43182">
        <ele>723</ele>
        <time>2017-09-24T11:38:09.000Z</time>
      </trkpt>
      <trkpt lat="43.37177" lon="2.43183">
        <ele>723</ele>
        <time>2017-09-24T11:38:10.000Z</time>
      </trkpt>
      <trkpt lat="43.37176" lon="2.43184">
        <ele>722</ele>
        <time>2017-09-24T11:38:11.000Z</time>
      </trkpt>
      <trkpt lat="43.37176" lon="2.43185">
        <ele>722</ele>
        <time>2017-09-24T11:38:12.000Z</time>
      </trkpt>
      <trkpt lat="43.37176" lon="2.43187">
        <ele>722</ele>
        <time>2017-09-24T11:38:13.000Z</time>
      </trkpt>
      <trkpt lat="43.37175" lon="2.43189">
        <ele>722</ele>
        <time>2017-09-24T11:38:14.000Z</time>
      </trkpt>
      <trkpt lat="43.37175" lon="2.43191">
        <ele>722</ele>
        <time>2017-09-24T11:38:15.000Z</time>
      </trkpt>
      <trkpt lat="43.37175" lon="2.43192">
        <ele>722</ele>
        <time>2017-09-24T11:38:16.000Z</time>
      </trkpt>
      <trkpt lat="43.37175" lon="2.43193">
        <ele>722</ele>
        <time>2017-09-24T11:38:17.000Z</time>
      </trkpt>
      <trkpt lat="43.37174" lon="2.43195">
        <ele>721</ele>
        <time>2017-09-24T11:38:18.000Z</time>
      </trkpt>
      <trkpt lat="43.37174" lon="2.43197">
        <ele>721</ele>
        <time>2017-09-24T11:38:19.000Z</time>
      </trkpt>
      <trkpt lat="43.37174" lon="2.43199">
        <ele>721</ele>
        <time>2017-09-24T11:38:20.000Z</time>
      </trkpt>
      <trkpt lat="43.37174" lon="2.432">
        <ele>721</ele>
        <time>2017-09-24T11:38:21.000Z</time>
      </trkpt>
      <trkpt lat="43.37174" lon="2.43202">
        <ele>721</ele>
        <time>2017-09-24T11:38:22.000Z</time>
      </trkpt>
      <trkpt lat="43.37173" lon="2.43203">
        <ele>721</ele>
        <time>2017-09-24T11:38:23.000Z</time>
      </trkpt>
      <trkpt lat="43.37173" lon="2.43205">
        <ele>721</ele>
        <time>2017-09-24T11:38:24.000Z</time>
      </trkpt>
      <trkpt lat="43.37173" lon="2.43206">
        <ele>721</ele>
        <time>2017-09-24T11:38:25.000Z</time>
      </trkpt>
      <trkpt lat="43.37173" lon="2.43208">
        <ele>721</ele>
        <time>2017-09-24T11:38:26.000Z</time>
      </trkpt>
      <trkpt lat="43.37173" lon="2.4321">
        <ele>721</ele>
        <time>2017-09-24T11:38:27.000Z</time>
      </trkpt>
      <trkpt lat="43.37173" lon="2.43211">
        <ele>720</ele>
        <time>2017-09-24T11:38:28.000Z</time>
      </trkpt>
      <trkpt lat="43.37172" lon="2.43213">
        <ele>720</ele>
        <time>2017-09-24T11:38:29.000Z</time>
      </trkpt>
      <trkpt lat="43.37172" lon="2.43214">
        <ele>720</ele>
        <time>2017-09-24T11:38:30.000Z</time>
      </trkpt>
      <trkpt lat="43.37172" lon="2.43216">
        <ele>720</ele>
        <time>2017-09-24T11:38:31.000Z</time>
      </trkpt>
      <trkpt lat="43.37172" lon="2.43218">
        <ele>720</ele>
        <time>2017-09-24T11:38:32.000Z</time>
      </trkpt>
      <trkpt lat="43.37172" lon="2.43219">
        <ele>720</ele>
        <time>2017-09-24T11:38:33.000Z</time>
      </trkpt>
      <trkpt lat="43.37172" lon="2.43221">
        <ele>720</ele>
        <time>2017-09-24T11:38:34.000Z</time>
      </trkpt>
      <trkpt lat="43.37172" lon="2.43223">
        <ele>720</ele>
        <time>2017-09-24T11:38:35.000Z</time>
      </trkpt>
      <trkpt lat="43.37173" lon="2.43224">
        <ele>720</ele>
        <time>2017-09-24T11:38:36.000Z</time>
      </trkpt>
      <trkpt lat="43.37173" lon="2.43226">
        <ele>720</ele>
        <time>2017-09-24T11:38:37.000Z</time>
      </trkpt>
      <trkpt lat="43.37173" lon="2.43227">
        <ele>720</ele>
        <time>2017-09-24T11:38:38.000Z</time>
      </trkpt>
      <trkpt lat="43.37172" lon="2.43229">
        <ele>720</ele>
        <time>2017-09-24T11:38:39.000Z</time>
      </trkpt>
      <trkpt lat="43.37172" lon="2.4323">
        <ele>720</ele>
        <time>2017-09-24T11:38:40.000Z</time>
      </trkpt>
      <trkpt lat="43.37172" lon="2.43231">
        <ele>720</ele>
        <time>2017-09-24T11:38:41.000Z</time>
      </trkpt>
      <trkpt lat="43.37172" lon="2.43233">
        <ele>720</ele>
        <time>2017-09-24T11:38:42.000Z</time>
      </trkpt>
      <trkpt lat="43.37171" lon="2.43234">
        <ele>720</ele>
        <time>2017-09-24T11:38:43.000Z</time>
      </trkpt>
      <trkpt lat="43.37171" lon="2.43236">
        <ele>720</ele>
        <time>2017-09-24T11:38:44.000Z</time>
      </trkpt>
      <trkpt lat="43.37171" lon="2.43237">
        <ele>719</ele>
        <time>2017-09-24T11:38:45.000Z</time>
      </trkpt>
      <trkpt lat="43.37171" lon="2.43239">
        <ele>719</ele>
        <time>2017-09-24T11:38:46.000Z</time>
      </trkpt>
      <trkpt lat="43.37171" lon="2.43241">
        <ele>719</ele>
        <time>2017-09-24T11:38:47.000Z</time>
      </trkpt>
      <trkpt lat="43.37171" lon="2.43243">
        <ele>719</ele>
        <time>2017-09-24T11:38:48.000Z</time>
      </trkpt>
      <trkpt lat="43.3717" lon="2.43244">
        <ele>719</ele>
        <time>2017-09-24T11:38:49.000Z</time>
      </trkpt>
      <trkpt lat="43.3717" lon="2.43246">
        <ele>718</ele>
        <time>2017-09-24T11:38:50.000Z</time>
      </trkpt>
      <trkpt lat="43.3717" lon="2.43248">
        <ele>718</ele>
        <time>2017-09-24T11:38:51.000Z</time>
      </trkpt>
      <trkpt lat="43.37169" lon="2.43249">
        <ele>718</ele>
        <time>2017-09-24T11:38:52.000Z</time>
      </trkpt>
      <trkpt lat="43.37169" lon="2.43251">
        <ele>718</ele>
        <time>2017-09-24T11:38:53.000Z</time>
      </trkpt>
      <trkpt lat="43.37169" lon="2.43253">
        <ele>718</ele>
        <time>2017-09-24T11:38:54.000Z</time>
      </trkpt>
      <trkpt lat="43.37168" lon="2.43254">
        <ele>718</ele>
        <time>2017-09-24T11:38:55.000Z</time>
      </trkpt>
      <trkpt lat="43.37169" lon="2.43256">
        <ele>718</ele>
        <time>2017-09-24T11:38:56.000Z</time>
      </trkpt>
      <trkpt lat="43.37169" lon="2.43257">
        <ele>718</ele>
        <time>2017-09-24T11:38:57.000Z</time>
      </trkpt>
      <trkpt lat="43.37168" lon="2.43259">
        <ele>717</ele>
        <time>2017-09-24T11:38:58.000Z</time>
      </trkpt>
      <trkpt lat="43.37168" lon="2.43261">
        <ele>717</ele>
        <time>2017-09-24T11:38:59.000Z</time>
      </trkpt>
      <trkpt lat="43.37168" lon="2.43263">
        <ele>717</ele>
        <time>2017-09-24T11:39:00.000Z</time>
      </trkpt>
      <trkpt lat="43.37168" lon="2.43264">
        <ele>717</ele>
        <time>2017-09-24T11:39:01.000Z</time>
      </trkpt>
      <trkpt lat="43.37168" lon="2.43266">
        <ele>717</ele>
        <time>2017-09-24T11:39:02.000Z</time>
      </trkpt>
      <trkpt lat="43.37168" lon="2.43267">
        <ele>717</ele>
        <time>2017-09-24T11:39:03.000Z</time>
      </trkpt>
      <trkpt lat="43.37168" lon="2.43269">
        <ele>717</ele>
        <time>2017-09-24T11:39:04.000Z</time>
      </trkpt>
      <trkpt lat="43.37168" lon="2.43271">
        <ele>717</ele>
        <time>2017-09-24T11:39:05.000Z</time>
      </trkpt>
      <trkpt lat="43.37167" lon="2.43272">
        <ele>717</ele>
        <time>2017-09-24T11:39:06.000Z</time>
      </trkpt>
      <trkpt lat="43.37167" lon="2.43276">
        <ele>717</ele>
        <time>2017-09-24T11:39:08.000Z</time>
      </trkpt>
      <trkpt lat="43.37167" lon="2.43277">
        <ele>717</ele>
        <time>2017-09-24T11:39:09.000Z</time>
      </trkpt>
      <trkpt lat="43.37167" lon="2.43279">
        <ele>717</ele>
        <time>2017-09-24T11:39:10.000Z</time>
      </trkpt>
      <trkpt lat="43.37167" lon="2.43281">
        <ele>717</ele>
        <time>2017-09-24T11:39:11.000Z</time>
      </trkpt>
      <trkpt lat="43.37167" lon="2.43282">
        <ele>717</ele>
        <time>2017-09-24T11:39:12.000Z</time>
      </trkpt>
      <trkpt lat="43.37167" lon="2.43284">
        <ele>717</ele>
        <time>2017-09-24T11:39:13.000Z</time>
      </trkpt>
      <trkpt lat="43.37167" lon="2.43286">
        <ele>717</ele>
        <time>2017-09-24T11:39:14.000Z</time>
      </trkpt>
      <trkpt lat="43.37167" lon="2.43287">
        <ele>717</ele>
        <time>2017-09-24T11:39:15.000Z</time>
      </trkpt>
      <trkpt lat="43.37167" lon="2.43289">
        <ele>717</ele>
        <time>2017-09-24T11:39:16.000Z</time>
      </trkpt>
      <trkpt lat="43.37167" lon="2.43291">
        <ele>717</ele>
        <time>2017-09-24T11:39:17.000Z</time>
      </trkpt>
      <trkpt lat="43.37167" lon="2.43293">
        <ele>717</ele>
        <time>2017-09-24T11:39:18.000Z</time>
      </trkpt>
      <trkpt lat="43.37167" lon="2.43294">
        <ele>717</ele>
        <time>2017-09-24T11:39:19.000Z</time>
      </trkpt>
      <trkpt lat="43.37167" lon="2.43296">
        <ele>717</ele>
        <time>2017-09-24T11:39:20.000Z</time>
      </trkpt>
      <trkpt lat="43.37167" lon="2.43297">
        <ele>717</ele>
        <time>2017-09-24T11:39:21.000Z</time>
      </trkpt>
      <trkpt lat="43.37167" lon="2.43299">
        <ele>717</ele>
        <time>2017-09-24T11:39:22.000Z</time>
      </trkpt>
      <trkpt lat="43.37167" lon="2.433">
        <ele>717</ele>
        <time>2017-09-24T11:39:23.000Z</time>
      </trkpt>
      <trkpt lat="43.37167" lon="2.43302">
        <ele>717</ele>
        <time>2017-09-24T11:39:24.000Z</time>
      </trkpt>
      <trkpt lat="43.37166" lon="2.43304">
        <ele>717</ele>
        <time>2017-09-24T11:39:25.000Z</time>
      </trkpt>
      <trkpt lat="43.37166" lon="2.43305">
        <ele>716</ele>
        <time>2017-09-24T11:39:26.000Z</time>
      </trkpt>
      <trkpt lat="43.37166" lon="2.43307">
        <ele>716</ele>
        <time>2017-09-24T11:39:27.000Z</time>
      </trkpt>
      <trkpt lat="43.37166" lon="2.43309">
        <ele>716</ele>
        <time>2017-09-24T11:39:28.000Z</time>
      </trkpt>
      <trkpt lat="43.37166" lon="2.4331">
        <ele>716</ele>
        <time>2017-09-24T11:39:29.000Z</time>
      </trkpt>
      <trkpt lat="43.37166" lon="2.43312">
        <ele>717</ele>
        <time>2017-09-24T11:39:30.000Z</time>
      </trkpt>
      <trkpt lat="43.37166" lon="2.43314">
        <ele>716</ele>
        <time>2017-09-24T11:39:31.000Z</time>
      </trkpt>
      <trkpt lat="43.37166" lon="2.43315">
        <ele>716</ele>
        <time>2017-09-24T11:39:32.000Z</time>
      </trkpt>
      <trkpt lat="43.37166" lon="2.43317">
        <ele>716</ele>
        <time>2017-09-24T11:39:33.000Z</time>
      </trkpt>
      <trkpt lat="43.37166" lon="2.43318">
        <ele>716</ele>
        <time>2017-09-24T11:39:34.000Z</time>
      </trkpt>
      <trkpt lat="43.37166" lon="2.4332">
        <ele>716</ele>
        <time>2017-09-24T11:39:35.000Z</time>
      </trkpt>
      <trkpt lat="43.37166" lon="2.43322">
        <ele>716</ele>
        <time>2017-09-24T11:39:36.000Z</time>
      </trkpt>
      <trkpt lat="43.37165" lon="2.43323">
        <ele>716</ele>
        <time>2017-09-24T11:39:37.000Z</time>
      </trkpt>
      <trkpt lat="43.37165" lon="2.43324">
        <ele>716</ele>
        <time>2017-09-24T11:39:38.000Z</time>
      </trkpt>
      <trkpt lat="43.37164" lon="2.43326">
        <ele>716</ele>
        <time>2017-09-24T11:39:39.000Z</time>
      </trkpt>
      <trkpt lat="43.37164" lon="2.43327">
        <ele>716</ele>
        <time>2017-09-24T11:39:40.000Z</time>
      </trkpt>
      <trkpt lat="43.37163" lon="2.43329">
        <ele>715</ele>
        <time>2017-09-24T11:39:41.000Z</time>
      </trkpt>
      <trkpt lat="43.37163" lon="2.4333">
        <ele>715</ele>
        <time>2017-09-24T11:39:42.000Z</time>
      </trkpt>
      <trkpt lat="43.37163" lon="2.43332">
        <ele>715</ele>
        <time>2017-09-24T11:39:43.000Z</time>
      </trkpt>
      <trkpt lat="43.37162" lon="2.43333">
        <ele>715</ele>
        <time>2017-09-24T11:39:44.000Z</time>
      </trkpt>
      <trkpt lat="43.37162" lon="2.43335">
        <ele>715</ele>
        <time>2017-09-24T11:39:45.000Z</time>
      </trkpt>
      <trkpt lat="43.37162" lon="2.43337">
        <ele>715</ele>
        <time>2017-09-24T11:39:46.000Z</time>
      </trkpt>
      <trkpt lat="43.37162" lon="2.43339">
        <ele>715</ele>
        <time>2017-09-24T11:39:47.000Z</time>
      </trkpt>
      <trkpt lat="43.37162" lon="2.4334">
        <ele>715</ele>
        <time>2017-09-24T11:39:48.000Z</time>
      </trkpt>
      <trkpt lat="43.37162" lon="2.43341">
        <ele>715</ele>
        <time>2017-09-24T11:39:49.000Z</time>
      </trkpt>
      <trkpt lat="43.37161" lon="2.43343">
        <ele>714</ele>
        <time>2017-09-24T11:39:50.000Z</time>
      </trkpt>
      <trkpt lat="43.37161" lon="2.43344">
        <ele>714</ele>
        <time>2017-09-24T11:39:51.000Z</time>
      </trkpt>
      <trkpt lat="43.37161" lon="2.43346">
        <ele>714</ele>
        <time>2017-09-24T11:39:52.000Z</time>
      </trkpt>
      <trkpt lat="43.3716" lon="2.43347">
        <ele>714</ele>
        <time>2017-09-24T11:39:53.000Z</time>
      </trkpt>
      <trkpt lat="43.3716" lon="2.43349">
        <ele>714</ele>
        <time>2017-09-24T11:39:54.000Z</time>
      </trkpt>
      <trkpt lat="43.37159" lon="2.4335">
        <ele>713</ele>
        <time>2017-09-24T11:39:55.000Z</time>
      </trkpt>
      <trkpt lat="43.37159" lon="2.43351">
        <ele>713</ele>
        <time>2017-09-24T11:39:56.000Z</time>
      </trkpt>
      <trkpt lat="43.37158" lon="2.43353">
        <ele>713</ele>
        <time>2017-09-24T11:39:57.000Z</time>
      </trkpt>
      <trkpt lat="43.37158" lon="2.43354">
        <ele>712</ele>
        <time>2017-09-24T11:39:58.000Z</time>
      </trkpt>
      <trkpt lat="43.37158" lon="2.43356">
        <ele>712</ele>
        <time>2017-09-24T11:39:59.000Z</time>
      </trkpt>
      <trkpt lat="43.37158" lon="2.43357">
        <ele>712</ele>
        <time>2017-09-24T11:40:00.000Z</time>
      </trkpt>
      <trkpt lat="43.37158" lon="2.43358">
        <ele>712</ele>
        <time>2017-09-24T11:40:01.000Z</time>
      </trkpt>
      <trkpt lat="43.37158" lon="2.4336">
        <ele>712</ele>
        <time>2017-09-24T11:40:02.000Z</time>
      </trkpt>
      <trkpt lat="43.37158" lon="2.43362">
        <ele>713</ele>
        <time>2017-09-24T11:40:03.000Z</time>
      </trkpt>
      <trkpt lat="43.37158" lon="2.43363">
        <ele>713</ele>
        <time>2017-09-24T11:40:04.000Z</time>
      </trkpt>
      <trkpt lat="43.37159" lon="2.43365">
        <ele>713</ele>
        <time>2017-09-24T11:40:05.000Z</time>
      </trkpt>
      <trkpt lat="43.37159" lon="2.43366">
        <ele>713</ele>
        <time>2017-09-24T11:40:06.000Z</time>
      </trkpt>
      <trkpt lat="43.37158" lon="2.43368">
        <ele>713</ele>
        <time>2017-09-24T11:40:07.000Z</time>
      </trkpt>
      <trkpt lat="43.37158" lon="2.4337">
        <ele>712</ele>
        <time>2017-09-24T11:40:08.000Z</time>
      </trkpt>
      <trkpt lat="43.37158" lon="2.43371">
        <ele>712</ele>
        <time>2017-09-24T11:40:09.000Z</time>
      </trkpt>
      <trkpt lat="43.37158" lon="2.43372">
        <ele>712</ele>
        <time>2017-09-24T11:40:10.000Z</time>
      </trkpt>
      <trkpt lat="43.37158" lon="2.43374">
        <ele>712</ele>
        <time>2017-09-24T11:40:11.000Z</time>
      </trkpt>
      <trkpt lat="43.37158" lon="2.43375">
        <ele>712</ele>
        <time>2017-09-24T11:40:12.000Z</time>
      </trkpt>
      <trkpt lat="43.37158" lon="2.43377">
        <ele>712</ele>
        <time>2017-09-24T11:40:13.000Z</time>
      </trkpt>
      <trkpt lat="43.37158" lon="2.43378">
        <ele>712</ele>
        <time>2017-09-24T11:40:14.000Z</time>
      </trkpt>
      <trkpt lat="43.37158" lon="2.4338">
        <ele>712</ele>
        <time>2017-09-24T11:40:15.000Z</time>
      </trkpt>
      <trkpt lat="43.37158" lon="2.43381">
        <ele>712</ele>
        <time>2017-09-24T11:40:16.000Z</time>
      </trkpt>
      <trkpt lat="43.37158" lon="2.43383">
        <ele>712</ele>
        <time>2017-09-24T11:40:17.000Z</time>
      </trkpt>
      <trkpt lat="43.37158" lon="2.43384">
        <ele>712</ele>
        <time>2017-09-24T11:40:18.000Z</time>
      </trkpt>
      <trkpt lat="43.37159" lon="2.43386">
        <ele>713</ele>
        <time>2017-09-24T11:40:19.000Z</time>
      </trkpt>
      <trkpt lat="43.37159" lon="2.43388">
        <ele>713</ele>
        <time>2017-09-24T11:40:20.000Z</time>
      </trkpt>
      <trkpt lat="43.37159" lon="2.43389">
        <ele>713</ele>
        <time>2017-09-24T11:40:21.000Z</time>
      </trkpt>
      <trkpt lat="43.37159" lon="2.43391">
        <ele>713</ele>
        <time>2017-09-24T11:40:22.000Z</time>
      </trkpt>
      <trkpt lat="43.3716" lon="2.43392">
        <ele>713</ele>
        <time>2017-09-24T11:40:23.000Z</time>
      </trkpt>
      <trkpt lat="43.3716" lon="2.43394">
        <ele>713</ele>
        <time>2017-09-24T11:40:24.000Z</time>
      </trkpt>
      <trkpt lat="43.3716" lon="2.43396">
        <ele>713</ele>
        <time>2017-09-24T11:40:25.000Z</time>
      </trkpt>
      <trkpt lat="43.37161" lon="2.43397">
        <ele>713</ele>
        <time>2017-09-24T11:40:26.000Z</time>
      </trkpt>
      <trkpt lat="43.37161" lon="2.43399">
        <ele>713</ele>
        <time>2017-09-24T11:40:27.000Z</time>
      </trkpt>
      <trkpt lat="43.37161" lon="2.43401">
        <ele>714</ele>
        <time>2017-09-24T11:40:28.000Z</time>
      </trkpt>
      <trkpt lat="43.37161" lon="2.43403">
        <ele>714</ele>
        <time>2017-09-24T11:40:29.000Z</time>
      </trkpt>
      <trkpt lat="43.37161" lon="2.43405">
        <ele>714</ele>
        <time>2017-09-24T11:40:30.000Z</time>
      </trkpt>
      <trkpt lat="43.37162" lon="2.43407">
        <ele>714</ele>
        <time>2017-09-24T11:40:31.000Z</time>
      </trkpt>
      <trkpt lat="43.37162" lon="2.43409">
        <ele>714</ele>
        <time>2017-09-24T11:40:32.000Z</time>
      </trkpt>
      <trkpt lat="43.37163" lon="2.43411">
        <ele>715</ele>
        <time>2017-09-24T11:40:33.000Z</time>
      </trkpt>
      <trkpt lat="43.37163" lon="2.43412">
        <ele>715</ele>
        <time>2017-09-24T11:40:34.000Z</time>
      </trkpt>
      <trkpt lat="43.37163" lon="2.43414">
        <ele>715</ele>
        <time>2017-09-24T11:40:35.000Z</time>
      </trkpt>
      <trkpt lat="43.37163" lon="2.43416">
        <ele>715</ele>
        <time>2017-09-24T11:40:36.000Z</time>
      </trkpt>
      <trkpt lat="43.37163" lon="2.43418">
        <ele>715</ele>
        <time>2017-09-24T11:40:37.000Z</time>
      </trkpt>
      <trkpt lat="43.37163" lon="2.43419">
        <ele>715</ele>
        <time>2017-09-24T11:40:38.000Z</time>
      </trkpt>
      <trkpt lat="43.37163" lon="2.43421">
        <ele>716</ele>
        <time>2017-09-24T11:40:39.000Z</time>
      </trkpt>
      <trkpt lat="43.37163" lon="2.43423">
        <ele>716</ele>
        <time>2017-09-24T11:40:40.000Z</time>
      </trkpt>
      <trkpt lat="43.37163" lon="2.43424">
        <ele>716</ele>
        <time>2017-09-24T11:40:41.000Z</time>
      </trkpt>
      <trkpt lat="43.37163" lon="2.43426">
        <ele>716</ele>
        <time>2017-09-24T11:40:42.000Z</time>
      </trkpt>
      <trkpt lat="43.37163" lon="2.43428">
        <ele>716</ele>
        <time>2017-09-24T11:40:43.000Z</time>
      </trkpt>
      <trkpt lat="43.37163" lon="2.43429">
        <ele>716</ele>
        <time>2017-09-24T11:40:44.000Z</time>
      </trkpt>
      <trkpt lat="43.37163" lon="2.43431">
        <ele>717</ele>
        <time>2017-09-24T11:40:45.000Z</time>
      </trkpt>
      <trkpt lat="43.37163" lon="2.43432">
        <ele>717</ele>
        <time>2017-09-24T11:40:46.000Z</time>
      </trkpt>
      <trkpt lat="43.37163" lon="2.43434">
        <ele>717</ele>
        <time>2017-09-24T11:40:47.000Z</time>
      </trkpt>
      <trkpt lat="43.37163" lon="2.43436">
        <ele>717</ele>
        <time>2017-09-24T11:40:48.000Z</time>
      </trkpt>
      <trkpt lat="43.37164" lon="2.43437">
        <ele>718</ele>
        <time>2017-09-24T11:40:49.000Z</time>
      </trkpt>
      <trkpt lat="43.37164" lon="2.43439">
        <ele>718</ele>
        <time>2017-09-24T11:40:50.000Z</time>
      </trkpt>
      <trkpt lat="43.37165" lon="2.43441">
        <ele>718</ele>
        <time>2017-09-24T11:40:51.000Z</time>
      </trkpt>
      <trkpt lat="43.37165" lon="2.43442">
        <ele>718</ele>
        <time>2017-09-24T11:40:52.000Z</time>
      </trkpt>
      <trkpt lat="43.37164" lon="2.43444">
        <ele>719</ele>
        <time>2017-09-24T11:40:53.000Z</time>
      </trkpt>
      <trkpt lat="43.37165" lon="2.43446">
        <ele>719</ele>
        <time>2017-09-24T11:40:54.000Z</time>
      </trkpt>
      <trkpt lat="43.37165" lon="2.43448">
        <ele>719</ele>
        <time>2017-09-24T11:40:55.000Z</time>
      </trkpt>
      <trkpt lat="43.37165" lon="2.43449">
        <ele>719</ele>
        <time>2017-09-24T11:40:56.000Z</time>
      </trkpt>
      <trkpt lat="43.37165" lon="2.43451">
        <ele>719</ele>
        <time>2017-09-24T11:40:57.000Z</time>
      </trkpt>
      <trkpt lat="43.37164" lon="2.43452">
        <ele>719</ele>
        <time>2017-09-24T11:40:58.000Z</time>
      </trkpt>
      <trkpt lat="43.37164" lon="2.43454">
        <ele>719</ele>
        <time>2017-09-24T11:40:59.000Z</time>
      </trkpt>
      <trkpt lat="43.37164" lon="2.43455">
        <ele>720</ele>
        <time>2017-09-24T11:41:00.000Z</time>
      </trkpt>
      <trkpt lat="43.37164" lon="2.43457">
        <ele>720</ele>
        <time>2017-09-24T11:41:01.000Z</time>
      </trkpt>
      <trkpt lat="43.37164" lon="2.43459">
        <ele>720</ele>
        <time>2017-09-24T11:41:02.000Z</time>
      </trkpt>
      <trkpt lat="43.37164" lon="2.4346">
        <ele>720</ele>
        <time>2017-09-24T11:41:03.000Z</time>
      </trkpt>
      <trkpt lat="43.37164" lon="2.43462">
        <ele>720</ele>
        <time>2017-09-24T11:41:04.000Z</time>
      </trkpt>
      <trkpt lat="43.37164" lon="2.43464">
        <ele>720</ele>
        <time>2017-09-24T11:41:05.000Z</time>
      </trkpt>
      <trkpt lat="43.37163" lon="2.43465">
        <ele>720</ele>
        <time>2017-09-24T11:41:06.000Z</time>
      </trkpt>
      <trkpt lat="43.37163" lon="2.43467">
        <ele>721</ele>
        <time>2017-09-24T11:41:07.000Z</time>
      </trkpt>
      <trkpt lat="43.37163" lon="2.43468">
        <ele>721</ele>
        <time>2017-09-24T11:41:08.000Z</time>
      </trkpt>
      <trkpt lat="43.37162" lon="2.4347">
        <ele>720</ele>
        <time>2017-09-24T11:41:09.000Z</time>
      </trkpt>
      <trkpt lat="43.37162" lon="2.43471">
        <ele>720</ele>
        <time>2017-09-24T11:41:10.000Z</time>
      </trkpt>
      <trkpt lat="43.37162" lon="2.43472">
        <ele>721</ele>
        <time>2017-09-24T11:41:11.000Z</time>
      </trkpt>
      <trkpt lat="43.37161" lon="2.43474">
        <ele>720</ele>
        <time>2017-09-24T11:41:12.000Z</time>
      </trkpt>
      <trkpt lat="43.37161" lon="2.43475">
        <ele>720</ele>
        <time>2017-09-24T11:41:13.000Z</time>
      </trkpt>
      <trkpt lat="43.3716" lon="2.43477">
        <ele>720</ele>
        <time>2017-09-24T11:41:14.000Z</time>
      </trkpt>
      <trkpt lat="43.37159" lon="2.43478">
        <ele>720</ele>
        <time>2017-09-24T11:41:15.000Z</time>
      </trkpt>
      <trkpt lat="43.37159" lon="2.43479">
        <ele>720</ele>
        <time>2017-09-24T11:41:16.000Z</time>
      </trkpt>
      <trkpt lat="43.37158" lon="2.4348">
        <ele>720</ele>
        <time>2017-09-24T11:41:17.000Z</time>
      </trkpt>
      <trkpt lat="43.37157" lon="2.43481">
        <ele>721</ele>
        <time>2017-09-24T11:41:18.000Z</time>
      </trkpt>
      <trkpt lat="43.37156" lon="2.43482">
        <ele>721</ele>
        <time>2017-09-24T11:41:19.000Z</time>
      </trkpt>
      <trkpt lat="43.37155" lon="2.43483">
        <ele>721</ele>
        <time>2017-09-24T11:41:20.000Z</time>
      </trkpt>
      <trkpt lat="43.37154" lon="2.43484">
        <ele>721</ele>
        <time>2017-09-24T11:41:21.000Z</time>
      </trkpt>
      <trkpt lat="43.37153" lon="2.43484">
        <ele>720</ele>
        <time>2017-09-24T11:41:22.000Z</time>
      </trkpt>
      <trkpt lat="43.37152" lon="2.43485">
        <ele>720</ele>
        <time>2017-09-24T11:41:23.000Z</time>
      </trkpt>
      <trkpt lat="43.3715" lon="2.43485">
        <ele>720</ele>
        <time>2017-09-24T11:41:24.000Z</time>
      </trkpt>
      <trkpt lat="43.37149" lon="2.43485">
        <ele>720</ele>
        <time>2017-09-24T11:41:25.000Z</time>
      </trkpt>
      <trkpt lat="43.37148" lon="2.43485">
        <ele>719</ele>
        <time>2017-09-24T11:41:26.000Z</time>
      </trkpt>
      <trkpt lat="43.37146" lon="2.43486">
        <ele>719</ele>
        <time>2017-09-24T11:41:27.000Z</time>
      </trkpt>
      <trkpt lat="43.37145" lon="2.43485">
        <ele>719</ele>
        <time>2017-09-24T11:41:28.000Z</time>
      </trkpt>
      <trkpt lat="43.37143" lon="2.43485">
        <ele>718</ele>
        <time>2017-09-24T11:41:29.000Z</time>
      </trkpt>
      <trkpt lat="43.37142" lon="2.43485">
        <ele>718</ele>
        <time>2017-09-24T11:41:30.000Z</time>
      </trkpt>
      <trkpt lat="43.3714" lon="2.43485">
        <ele>718</ele>
        <time>2017-09-24T11:41:31.000Z</time>
      </trkpt>
      <trkpt lat="43.37139" lon="2.43485">
        <ele>717</ele>
        <time>2017-09-24T11:41:32.000Z</time>
      </trkpt>
      <trkpt lat="43.37138" lon="2.43484">
        <ele>717</ele>
        <time>2017-09-24T11:41:33.000Z</time>
      </trkpt>
      <trkpt lat="43.37137" lon="2.43484">
        <ele>716</ele>
        <time>2017-09-24T11:41:34.000Z</time>
      </trkpt>
      <trkpt lat="43.37136" lon="2.43483">
        <ele>716</ele>
        <time>2017-09-24T11:41:35.000Z</time>
      </trkpt>
      <trkpt lat="43.37135" lon="2.43483">
        <ele>716</ele>
        <time>2017-09-24T11:41:36.000Z</time>
      </trkpt>
      <trkpt lat="43.37134" lon="2.43483">
        <ele>715</ele>
        <time>2017-09-24T11:41:37.000Z</time>
      </trkpt>
      <trkpt lat="43.37133" lon="2.43483">
        <ele>715</ele>
        <time>2017-09-24T11:41:38.000Z</time>
      </trkpt>
      <trkpt lat="43.37132" lon="2.43482">
        <ele>715</ele>
        <time>2017-09-24T11:41:39.000Z</time>
      </trkpt>
      <trkpt lat="43.37131" lon="2.43482">
        <ele>714</ele>
        <time>2017-09-24T11:41:40.000Z</time>
      </trkpt>
      <trkpt lat="43.37129" lon="2.43482">
        <ele>714</ele>
        <time>2017-09-24T11:41:41.000Z</time>
      </trkpt>
      <trkpt lat="43.37128" lon="2.43482">
        <ele>713</ele>
        <time>2017-09-24T11:41:42.000Z</time>
      </trkpt>
      <trkpt lat="43.37127" lon="2.43482">
        <ele>713</ele>
        <time>2017-09-24T11:41:43.000Z</time>
      </trkpt>
      <trkpt lat="43.37126" lon="2.43481">
        <ele>713</ele>
        <time>2017-09-24T11:41:44.000Z</time>
      </trkpt>
      <trkpt lat="43.37125" lon="2.43481">
        <ele>712</ele>
        <time>2017-09-24T11:41:45.000Z</time>
      </trkpt>
      <trkpt lat="43.37123" lon="2.43481">
        <ele>712</ele>
        <time>2017-09-24T11:41:46.000Z</time>
      </trkpt>
      <trkpt lat="43.37122" lon="2.43481">
        <ele>712</ele>
        <time>2017-09-24T11:41:47.000Z</time>
      </trkpt>
      <trkpt lat="43.37121" lon="2.4348">
        <ele>711</ele>
        <time>2017-09-24T11:41:48.000Z</time>
      </trkpt>
      <trkpt lat="43.3712" lon="2.4348">
        <ele>711</ele>
        <time>2017-09-24T11:41:49.000Z</time>
      </trkpt>
      <trkpt lat="43.37119" lon="2.4348">
        <ele>711</ele>
        <time>2017-09-24T11:41:50.000Z</time>
      </trkpt>
      <trkpt lat="43.37117" lon="2.4348">
        <ele>710</ele>
        <time>2017-09-24T11:41:51.000Z</time>
      </trkpt>
      <trkpt lat="43.37116" lon="2.4348">
        <ele>710</ele>
        <time>2017-09-24T11:41:52.000Z</time>
      </trkpt>
      <trkpt lat="43.37114" lon="2.4348">
        <ele>709</ele>
        <time>2017-09-24T11:41:53.000Z</time>
      </trkpt>
      <trkpt lat="43.37113" lon="2.43479">
        <ele>709</ele>
        <time>2017-09-24T11:41:54.000Z</time>
      </trkpt>
      <trkpt lat="43.37112" lon="2.43479">
        <ele>709</ele>
        <time>2017-09-24T11:41:55.000Z</time>
      </trkpt>
      <trkpt lat="43.37111" lon="2.43479">
        <ele>708</ele>
        <time>2017-09-24T11:41:56.000Z</time>
      </trkpt>
      <trkpt lat="43.3711" lon="2.43479">
        <ele>708</ele>
        <time>2017-09-24T11:41:57.000Z</time>
      </trkpt>
      <trkpt lat="43.37109" lon="2.4348">
        <ele>708</ele>
        <time>2017-09-24T11:41:58.000Z</time>
      </trkpt>
      <trkpt lat="43.37107" lon="2.4348">
        <ele>708</ele>
        <time>2017-09-24T11:41:59.000Z</time>
      </trkpt>
      <trkpt lat="43.37106" lon="2.4348">
        <ele>707</ele>
        <time>2017-09-24T11:42:00.000Z</time>
      </trkpt>
      <trkpt lat="43.37105" lon="2.4348">
        <ele>707</ele>
        <time>2017-09-24T11:42:01.000Z</time>
      </trkpt>
      <trkpt lat="43.37104" lon="2.4348">
        <ele>707</ele>
        <time>2017-09-24T11:42:02.000Z</time>
      </trkpt>
      <trkpt lat="43.37102" lon="2.4348">
        <ele>706</ele>
        <time>2017-09-24T11:42:03.000Z</time>
      </trkpt>
      <trkpt lat="43.37101" lon="2.4348">
        <ele>706</ele>
        <time>2017-09-24T11:42:04.000Z</time>
      </trkpt>
      <trkpt lat="43.37099" lon="2.4348">
        <ele>706</ele>
        <time>2017-09-24T11:42:05.000Z</time>
      </trkpt>
      <trkpt lat="43.37098" lon="2.43481">
        <ele>706</ele>
        <time>2017-09-24T11:42:06.000Z</time>
      </trkpt>
      <trkpt lat="43.37097" lon="2.43481">
        <ele>705</ele>
        <time>2017-09-24T11:42:07.000Z</time>
      </trkpt>
      <trkpt lat="43.37096" lon="2.43481">
        <ele>705</ele>
        <time>2017-09-24T11:42:08.000Z</time>
      </trkpt>
      <trkpt lat="43.37094" lon="2.43482">
        <ele>705</ele>
        <time>2017-09-24T11:42:09.000Z</time>
      </trkpt>
      <trkpt lat="43.37093" lon="2.43482">
        <ele>704</ele>
        <time>2017-09-24T11:42:10.000Z</time>
      </trkpt>
      <trkpt lat="43.37092" lon="2.43483">
        <ele>704</ele>
        <time>2017-09-24T11:42:11.000Z</time>
      </trkpt>
      <trkpt lat="43.37091" lon="2.43484">
        <ele>704</ele>
        <time>2017-09-24T11:42:12.000Z</time>
      </trkpt>
      <trkpt lat="43.3709" lon="2.43484">
        <ele>704</ele>
        <time>2017-09-24T11:42:13.000Z</time>
      </trkpt>
      <trkpt lat="43.37089" lon="2.43485">
        <ele>704</ele>
        <time>2017-09-24T11:42:14.000Z</time>
      </trkpt>
      <trkpt lat="43.37087" lon="2.43485">
        <ele>703</ele>
        <time>2017-09-24T11:42:15.000Z</time>
      </trkpt>
      <trkpt lat="43.37086" lon="2.43486">
        <ele>703</ele>
        <time>2017-09-24T11:42:16.000Z</time>
      </trkpt>
      <trkpt lat="43.37085" lon="2.43486">
        <ele>703</ele>
        <time>2017-09-24T11:42:17.000Z</time>
      </trkpt>
      <trkpt lat="43.37084" lon="2.43487">
        <ele>703</ele>
        <time>2017-09-24T11:42:18.000Z</time>
      </trkpt>
      <trkpt lat="43.37083" lon="2.43487">
        <ele>702</ele>
        <time>2017-09-24T11:42:19.000Z</time>
      </trkpt>
      <trkpt lat="43.37081" lon="2.43488">
        <ele>702</ele>
        <time>2017-09-24T11:42:20.000Z</time>
      </trkpt>
      <trkpt lat="43.3708" lon="2.43489">
        <ele>702</ele>
        <time>2017-09-24T11:42:21.000Z</time>
      </trkpt>
      <trkpt lat="43.37079" lon="2.43489">
        <ele>702</ele>
        <time>2017-09-24T11:42:22.000Z</time>
      </trkpt>
      <trkpt lat="43.37078" lon="2.4349">
        <ele>702</ele>
        <time>2017-09-24T11:42:23.000Z</time>
      </trkpt>
      <trkpt lat="43.37077" lon="2.43491">
        <ele>702</ele>
        <time>2017-09-24T11:42:24.000Z</time>
      </trkpt>
      <trkpt lat="43.37076" lon="2.43492">
        <ele>702</ele>
        <time>2017-09-24T11:42:25.000Z</time>
      </trkpt>
      <trkpt lat="43.37075" lon="2.43493">
        <ele>702</ele>
        <time>2017-09-24T11:42:26.000Z</time>
      </trkpt>
      <trkpt lat="43.37074" lon="2.43493">
        <ele>701</ele>
        <time>2017-09-24T11:42:27.000Z</time>
      </trkpt>
      <trkpt lat="43.37072" lon="2.43494">
        <ele>701</ele>
        <time>2017-09-24T11:42:28.000Z</time>
      </trkpt>
      <trkpt lat="43.37071" lon="2.43495">
        <ele>701</ele>
        <time>2017-09-24T11:42:29.000Z</time>
      </trkpt>
      <trkpt lat="43.3707" lon="2.43496">
        <ele>701</ele>
        <time>2017-09-24T11:42:30.000Z</time>
      </trkpt>
      <trkpt lat="43.37069" lon="2.43497">
        <ele>701</ele>
        <time>2017-09-24T11:42:31.000Z</time>
      </trkpt>
      <trkpt lat="43.37068" lon="2.43498">
        <ele>701</ele>
        <time>2017-09-24T11:42:32.000Z</time>
      </trkpt>
      <trkpt lat="43.37067" lon="2.43499">
        <ele>701</ele>
        <time>2017-09-24T11:42:33.000Z</time>
      </trkpt>
      <trkpt lat="43.37066" lon="2.435">
        <ele>701</ele>
        <time>2017-09-24T11:42:34.000Z</time>
      </trkpt>
      <trkpt lat="43.37065" lon="2.435">
        <ele>701</ele>
        <time>2017-09-24T11:42:35.000Z</time>
      </trkpt>
      <trkpt lat="43.37064" lon="2.43501">
        <ele>701</ele>
        <time>2017-09-24T11:42:36.000Z</time>
      </trkpt>
      <trkpt lat="43.37063" lon="2.43502">
        <ele>701</ele>
        <time>2017-09-24T11:42:37.000Z</time>
      </trkpt>
      <trkpt lat="43.37062" lon="2.43503">
        <ele>700</ele>
        <time>2017-09-24T11:42:38.000Z</time>
      </trkpt>
      <trkpt lat="43.37061" lon="2.43504">
        <ele>700</ele>
        <time>2017-09-24T11:42:39.000Z</time>
      </trkpt>
      <trkpt lat="43.3706" lon="2.43504">
        <ele>700</ele>
        <time>2017-09-24T11:42:40.000Z</time>
      </trkpt>
      <trkpt lat="43.37059" lon="2.43505">
        <ele>700</ele>
        <time>2017-09-24T11:42:41.000Z</time>
      </trkpt>
      <trkpt lat="43.37058" lon="2.43506">
        <ele>700</ele>
        <time>2017-09-24T11:42:42.000Z</time>
      </trkpt>
      <trkpt lat="43.37057" lon="2.43507">
        <ele>700</ele>
        <time>2017-09-24T11:42:43.000Z</time>
      </trkpt>
      <trkpt lat="43.37056" lon="2.43508">
        <ele>700</ele>
        <time>2017-09-24T11:42:44.000Z</time>
      </trkpt>
      <trkpt lat="43.37055" lon="2.43509">
        <ele>700</ele>
        <time>2017-09-24T11:42:45.000Z</time>
      </trkpt>
      <trkpt lat="43.37054" lon="2.43509">
        <ele>700</ele>
        <time>2017-09-24T11:42:46.000Z</time>
      </trkpt>
      <trkpt lat="43.37053" lon="2.4351">
        <ele>700</ele>
        <time>2017-09-24T11:42:47.000Z</time>
      </trkpt>
      <trkpt lat="43.37052" lon="2.43511">
        <ele>700</ele>
        <time>2017-09-24T11:42:48.000Z</time>
      </trkpt>
      <trkpt lat="43.37051" lon="2.43513">
        <ele>700</ele>
        <time>2017-09-24T11:42:49.000Z</time>
      </trkpt>
      <trkpt lat="43.3705" lon="2.43514">
        <ele>700</ele>
        <time>2017-09-24T11:42:50.000Z</time>
      </trkpt>
      <trkpt lat="43.3705" lon="2.43515">
        <ele>700</ele>
        <time>2017-09-24T11:42:51.000Z</time>
      </trkpt>
      <trkpt lat="43.37049" lon="2.43516">
        <ele>700</ele>
        <time>2017-09-24T11:42:52.000Z</time>
      </trkpt>
      <trkpt lat="43.37048" lon="2.43517">
        <ele>700</ele>
        <time>2017-09-24T11:42:53.000Z</time>
      </trkpt>
      <trkpt lat="43.37047" lon="2.43519">
        <ele>700</ele>
        <time>2017-09-24T11:42:54.000Z</time>
      </trkpt>
      <trkpt lat="43.37046" lon="2.4352">
        <ele>700</ele>
        <time>2017-09-24T11:42:55.000Z</time>
      </trkpt>
      <trkpt lat="43.37046" lon="2.43521">
        <ele>700</ele>
        <time>2017-09-24T11:42:56.000Z</time>
      </trkpt>
      <trkpt lat="43.37045" lon="2.43522">
        <ele>700</ele>
        <time>2017-09-24T11:42:57.000Z</time>
      </trkpt>
      <trkpt lat="43.37044" lon="2.43524">
        <ele>700</ele>
        <time>2017-09-24T11:42:58.000Z</time>
      </trkpt>
      <trkpt lat="43.37043" lon="2.43525">
        <ele>700</ele>
        <time>2017-09-24T11:42:59.000Z</time>
      </trkpt>
      <trkpt lat="43.37043" lon="2.43526">
        <ele>701</ele>
        <time>2017-09-24T11:43:00.000Z</time>
      </trkpt>
      <trkpt lat="43.37042" lon="2.43527">
        <ele>701</ele>
        <time>2017-09-24T11:43:01.000Z</time>
      </trkpt>
      <trkpt lat="43.37041" lon="2.43529">
        <ele>701</ele>
        <time>2017-09-24T11:43:02.000Z</time>
      </trkpt>
      <trkpt lat="43.3704" lon="2.4353">
        <ele>701</ele>
        <time>2017-09-24T11:43:03.000Z</time>
      </trkpt>
      <trkpt lat="43.37039" lon="2.43531">
        <ele>701</ele>
        <time>2017-09-24T11:43:04.000Z</time>
      </trkpt>
      <trkpt lat="43.37038" lon="2.43532">
        <ele>701</ele>
        <time>2017-09-24T11:43:05.000Z</time>
      </trkpt>
      <trkpt lat="43.37037" lon="2.43533">
        <ele>701</ele>
        <time>2017-09-24T11:43:06.000Z</time>
      </trkpt>
      <trkpt lat="43.37036" lon="2.43534">
        <ele>701</ele>
        <time>2017-09-24T11:43:07.000Z</time>
      </trkpt>
      <trkpt lat="43.37035" lon="2.43536">
        <ele>701</ele>
        <time>2017-09-24T11:43:08.000Z</time>
      </trkpt>
      <trkpt lat="43.37034" lon="2.43537">
        <ele>701</ele>
        <time>2017-09-24T11:43:09.000Z</time>
      </trkpt>
      <trkpt lat="43.37034" lon="2.43538">
        <ele>701</ele>
        <time>2017-09-24T11:43:10.000Z</time>
      </trkpt>
      <trkpt lat="43.37033" lon="2.43539">
        <ele>701</ele>
        <time>2017-09-24T11:43:11.000Z</time>
      </trkpt>
      <trkpt lat="43.37032" lon="2.4354">
        <ele>701</ele>
        <time>2017-09-24T11:43:12.000Z</time>
      </trkpt>
      <trkpt lat="43.37031" lon="2.43541">
        <ele>701</ele>
        <time>2017-09-24T11:43:13.000Z</time>
      </trkpt>
      <trkpt lat="43.3703" lon="2.43543">
        <ele>701</ele>
        <time>2017-09-24T11:43:14.000Z</time>
      </trkpt>
      <trkpt lat="43.3703" lon="2.43544">
        <ele>702</ele>
        <time>2017-09-24T11:43:15.000Z</time>
      </trkpt>
      <trkpt lat="43.37029" lon="2.43545">
        <ele>702</ele>
        <time>2017-09-24T11:43:16.000Z</time>
      </trkpt>
      <trkpt lat="43.37028" lon="2.43546">
        <ele>702</ele>
        <time>2017-09-24T11:43:17.000Z</time>
      </trkpt>
      <trkpt lat="43.37028" lon="2.43547">
        <ele>702</ele>
        <time>2017-09-24T11:43:18.000Z</time>
      </trkpt>
      <trkpt lat="43.37027" lon="2.43548">
        <ele>702</ele>
        <time>2017-09-24T11:43:19.000Z</time>
      </trkpt>
      <trkpt lat="43.37026" lon="2.43549">
        <ele>702</ele>
        <time>2017-09-24T11:43:20.000Z</time>
      </trkpt>
      <trkpt lat="43.37026" lon="2.4355">
        <ele>702</ele>
        <time>2017-09-24T11:43:21.000Z</time>
      </trkpt>
      <trkpt lat="43.37025" lon="2.43552">
        <ele>702</ele>
        <time>2017-09-24T11:43:22.000Z</time>
      </trkpt>
      <trkpt lat="43.37024" lon="2.43553">
        <ele>702</ele>
        <time>2017-09-24T11:43:23.000Z</time>
      </trkpt>
      <trkpt lat="43.37023" lon="2.43554">
        <ele>702</ele>
        <time>2017-09-24T11:43:24.000Z</time>
      </trkpt>
      <trkpt lat="43.37022" lon="2.43555">
        <ele>702</ele>
        <time>2017-09-24T11:43:25.000Z</time>
      </trkpt>
      <trkpt lat="43.37021" lon="2.43556">
        <ele>702</ele>
        <time>2017-09-24T11:43:26.000Z</time>
      </trkpt>
      <trkpt lat="43.3702" lon="2.43557">
        <ele>703</ele>
        <time>2017-09-24T11:43:27.000Z</time>
      </trkpt>
      <trkpt lat="43.37019" lon="2.43558">
        <ele>703</ele>
        <time>2017-09-24T11:43:28.000Z</time>
      </trkpt>
      <trkpt lat="43.37018" lon="2.4356">
        <ele>703</ele>
        <time>2017-09-24T11:43:29.000Z</time>
      </trkpt>
      <trkpt lat="43.37017" lon="2.43561">
        <ele>703</ele>
        <time>2017-09-24T11:43:30.000Z</time>
      </trkpt>
      <trkpt lat="43.37016" lon="2.43562">
        <ele>703</ele>
        <time>2017-09-24T11:43:31.000Z</time>
      </trkpt>
      <trkpt lat="43.37016" lon="2.43563">
        <ele>703</ele>
        <time>2017-09-24T11:43:32.000Z</time>
      </trkpt>
      <trkpt lat="43.37015" lon="2.43564">
        <ele>703</ele>
        <time>2017-09-24T11:43:33.000Z</time>
      </trkpt>
      <trkpt lat="43.37014" lon="2.43565">
        <ele>703</ele>
        <time>2017-09-24T11:43:34.000Z</time>
      </trkpt>
      <trkpt lat="43.37013" lon="2.43567">
        <ele>703</ele>
        <time>2017-09-24T11:43:35.000Z</time>
      </trkpt>
      <trkpt lat="43.37012" lon="2.43568">
        <ele>703</ele>
        <time>2017-09-24T11:43:36.000Z</time>
      </trkpt>
      <trkpt lat="43.37012" lon="2.43569">
        <ele>703</ele>
        <time>2017-09-24T11:43:37.000Z</time>
      </trkpt>
      <trkpt lat="43.37011" lon="2.4357">
        <ele>703</ele>
        <time>2017-09-24T11:43:38.000Z</time>
      </trkpt>
      <trkpt lat="43.3701" lon="2.43572">
        <ele>703</ele>
        <time>2017-09-24T11:43:39.000Z</time>
      </trkpt>
      <trkpt lat="43.3701" lon="2.43573">
        <ele>703</ele>
        <time>2017-09-24T11:43:40.000Z</time>
      </trkpt>
      <trkpt lat="43.37009" lon="2.43574">
        <ele>703</ele>
        <time>2017-09-24T11:43:41.000Z</time>
      </trkpt>
      <trkpt lat="43.37008" lon="2.43575">
        <ele>704</ele>
        <time>2017-09-24T11:43:42.000Z</time>
      </trkpt>
      <trkpt lat="43.37007" lon="2.43576">
        <ele>704</ele>
        <time>2017-09-24T11:43:43.000Z</time>
      </trkpt>
      <trkpt lat="43.37007" lon="2.43577">
        <ele>704</ele>
        <time>2017-09-24T11:43:44.000Z</time>
      </trkpt>
      <trkpt lat="43.37006" lon="2.43579">
        <ele>704</ele>
        <time>2017-09-24T11:43:45.000Z</time>
      </trkpt>
      <trkpt lat="43.37005" lon="2.4358">
        <ele>704</ele>
        <time>2017-09-24T11:43:46.000Z</time>
      </trkpt>
      <trkpt lat="43.37005" lon="2.43581">
        <ele>704</ele>
        <time>2017-09-24T11:43:47.000Z</time>
      </trkpt>
      <trkpt lat="43.37004" lon="2.43582">
        <ele>704</ele>
        <time>2017-09-24T11:43:48.000Z</time>
      </trkpt>
      <trkpt lat="43.37003" lon="2.43583">
        <ele>704</ele>
        <time>2017-09-24T11:43:49.000Z</time>
      </trkpt>
      <trkpt lat="43.37003" lon="2.43585">
        <ele>704</ele>
        <time>2017-09-24T11:43:50.000Z</time>
      </trkpt>
      <trkpt lat="43.37002" lon="2.43586">
        <ele>704</ele>
        <time>2017-09-24T11:43:51.000Z</time>
      </trkpt>
      <trkpt lat="43.37001" lon="2.43587">
        <ele>704</ele>
        <time>2017-09-24T11:43:52.000Z</time>
      </trkpt>
      <trkpt lat="43.37001" lon="2.43588">
        <ele>704</ele>
        <time>2017-09-24T11:43:53.000Z</time>
      </trkpt>
      <trkpt lat="43.37" lon="2.4359">
        <ele>704</ele>
        <time>2017-09-24T11:43:54.000Z</time>
      </trkpt>
      <trkpt lat="43.36999" lon="2.43592">
        <ele>704</ele>
        <time>2017-09-24T11:43:55.000Z</time>
      </trkpt>
      <trkpt lat="43.36999" lon="2.43593">
        <ele>704</ele>
        <time>2017-09-24T11:43:56.000Z</time>
      </trkpt>
      <trkpt lat="43.36998" lon="2.43594">
        <ele>704</ele>
        <time>2017-09-24T11:43:57.000Z</time>
      </trkpt>
      <trkpt lat="43.36998" lon="2.43595">
        <ele>704</ele>
        <time>2017-09-24T11:43:58.000Z</time>
      </trkpt>
      <trkpt lat="43.36997" lon="2.43597">
        <ele>704</ele>
        <time>2017-09-24T11:43:59.000Z</time>
      </trkpt>
      <trkpt lat="43.36996" lon="2.43598">
        <ele>704</ele>
        <time>2017-09-24T11:44:00.000Z</time>
      </trkpt>
      <trkpt lat="43.36995" lon="2.436">
        <ele>704</ele>
        <time>2017-09-24T11:44:01.000Z</time>
      </trkpt>
      <trkpt lat="43.36995" lon="2.43601">
        <ele>704</ele>
        <time>2017-09-24T11:44:02.000Z</time>
      </trkpt>
      <trkpt lat="43.36994" lon="2.43602">
        <ele>704</ele>
        <time>2017-09-24T11:44:03.000Z</time>
      </trkpt>
      <trkpt lat="43.36994" lon="2.43604">
        <ele>704</ele>
        <time>2017-09-24T11:44:04.000Z</time>
      </trkpt>
      <trkpt lat="43.36993" lon="2.43605">
        <ele>704</ele>
        <time>2017-09-24T11:44:05.000Z</time>
      </trkpt>
      <trkpt lat="43.36992" lon="2.43607">
        <ele>704</ele>
        <time>2017-09-24T11:44:06.000Z</time>
      </trkpt>
      <trkpt lat="43.36992" lon="2.43608">
        <ele>704</ele>
        <time>2017-09-24T11:44:07.000Z</time>
      </trkpt>
      <trkpt lat="43.36991" lon="2.43609">
        <ele>704</ele>
        <time>2017-09-24T11:44:08.000Z</time>
      </trkpt>
      <trkpt lat="43.3699" lon="2.43611">
        <ele>704</ele>
        <time>2017-09-24T11:44:09.000Z</time>
      </trkpt>
      <trkpt lat="43.3699" lon="2.43612">
        <ele>704</ele>
        <time>2017-09-24T11:44:10.000Z</time>
      </trkpt>
      <trkpt lat="43.36989" lon="2.43613">
        <ele>704</ele>
        <time>2017-09-24T11:44:11.000Z</time>
      </trkpt>
      <trkpt lat="43.36988" lon="2.43615">
        <ele>704</ele>
        <time>2017-09-24T11:44:12.000Z</time>
      </trkpt>
      <trkpt lat="43.36988" lon="2.43616">
        <ele>704</ele>
        <time>2017-09-24T11:44:13.000Z</time>
      </trkpt>
      <trkpt lat="43.36987" lon="2.43617">
        <ele>704</ele>
        <time>2017-09-24T11:44:14.000Z</time>
      </trkpt>
      <trkpt lat="43.36986" lon="2.43618">
        <ele>703</ele>
        <time>2017-09-24T11:44:15.000Z</time>
      </trkpt>
      <trkpt lat="43.36985" lon="2.4362">
        <ele>703</ele>
        <time>2017-09-24T11:44:16.000Z</time>
      </trkpt>
      <trkpt lat="43.36985" lon="2.43621">
        <ele>703</ele>
        <time>2017-09-24T11:44:17.000Z</time>
      </trkpt>
      <trkpt lat="43.36984" lon="2.43622">
        <ele>703</ele>
        <time>2017-09-24T11:44:18.000Z</time>
      </trkpt>
      <trkpt lat="43.36983" lon="2.43623">
        <ele>703</ele>
        <time>2017-09-24T11:44:19.000Z</time>
      </trkpt>
      <trkpt lat="43.36982" lon="2.43625">
        <ele>703</ele>
        <time>2017-09-24T11:44:20.000Z</time>
      </trkpt>
      <trkpt lat="43.36981" lon="2.43626">
        <ele>703</ele>
        <time>2017-09-24T11:44:21.000Z</time>
      </trkpt>
      <trkpt lat="43.36981" lon="2.43627">
        <ele>703</ele>
        <time>2017-09-24T11:44:22.000Z</time>
      </trkpt>
      <trkpt lat="43.3698" lon="2.43628">
        <ele>703</ele>
        <time>2017-09-24T11:44:23.000Z</time>
      </trkpt>
      <trkpt lat="43.36979" lon="2.43629">
        <ele>703</ele>
        <time>2017-09-24T11:44:24.000Z</time>
      </trkpt>
      <trkpt lat="43.36978" lon="2.43631">
        <ele>703</ele>
        <time>2017-09-24T11:44:25.000Z</time>
      </trkpt>
      <trkpt lat="43.36977" lon="2.43632">
        <ele>702</ele>
        <time>2017-09-24T11:44:26.000Z</time>
      </trkpt>
      <trkpt lat="43.36977" lon="2.43633">
        <ele>702</ele>
        <time>2017-09-24T11:44:27.000Z</time>
      </trkpt>
      <trkpt lat="43.36976" lon="2.43634">
        <ele>702</ele>
        <time>2017-09-24T11:44:28.000Z</time>
      </trkpt>
      <trkpt lat="43.36975" lon="2.43636">
        <ele>702</ele>
        <time>2017-09-24T11:44:29.000Z</time>
      </trkpt>
      <trkpt lat="43.36974" lon="2.43637">
        <ele>702</ele>
        <time>2017-09-24T11:44:30.000Z</time>
      </trkpt>
      <trkpt lat="43.36973" lon="2.43639">
        <ele>702</ele>
        <time>2017-09-24T11:44:31.000Z</time>
      </trkpt>
      <trkpt lat="43.36972" lon="2.4364">
        <ele>702</ele>
        <time>2017-09-24T11:44:32.000Z</time>
      </trkpt>
      <trkpt lat="43.36972" lon="2.43641">
        <ele>702</ele>
        <time>2017-09-24T11:44:33.000Z</time>
      </trkpt>
      <trkpt lat="43.36971" lon="2.43643">
        <ele>702</ele>
        <time>2017-09-24T11:44:34.000Z</time>
      </trkpt>
      <trkpt lat="43.3697" lon="2.43645">
        <ele>702</ele>
        <time>2017-09-24T11:44:35.000Z</time>
      </trkpt>
      <trkpt lat="43.36969" lon="2.43646">
        <ele>702</ele>
        <time>2017-09-24T11:44:36.000Z</time>
      </trkpt>
      <trkpt lat="43.36969" lon="2.43647">
        <ele>702</ele>
        <time>2017-09-24T11:44:37.000Z</time>
      </trkpt>
      <trkpt lat="43.36968" lon="2.43649">
        <ele>701</ele>
        <time>2017-09-24T11:44:38.000Z</time>
      </trkpt>
      <trkpt lat="43.36967" lon="2.4365">
        <ele>701</ele>
        <time>2017-09-24T11:44:39.000Z</time>
      </trkpt>
      <trkpt lat="43.36967" lon="2.43652">
        <ele>701</ele>
        <time>2017-09-24T11:44:40.000Z</time>
      </trkpt>
      <trkpt lat="43.36966" lon="2.43653">
        <ele>701</ele>
        <time>2017-09-24T11:44:41.000Z</time>
      </trkpt>
      <trkpt lat="43.36965" lon="2.43655">
        <ele>701</ele>
        <time>2017-09-24T11:44:42.000Z</time>
      </trkpt>
      <trkpt lat="43.36965" lon="2.43656">
        <ele>701</ele>
        <time>2017-09-24T11:44:43.000Z</time>
      </trkpt>
      <trkpt lat="43.36964" lon="2.43657">
        <ele>701</ele>
        <time>2017-09-24T11:44:44.000Z</time>
      </trkpt>
      <trkpt lat="43.36964" lon="2.43659">
        <ele>701</ele>
        <time>2017-09-24T11:44:45.000Z</time>
      </trkpt>
      <trkpt lat="43.36963" lon="2.43661">
        <ele>701</ele>
        <time>2017-09-24T11:44:46.000Z</time>
      </trkpt>
      <trkpt lat="43.36963" lon="2.43662">
        <ele>702</ele>
        <time>2017-09-24T11:44:47.000Z</time>
      </trkpt>
      <trkpt lat="43.36962" lon="2.43663">
        <ele>702</ele>
        <time>2017-09-24T11:44:48.000Z</time>
      </trkpt>
      <trkpt lat="43.36962" lon="2.43665">
        <ele>702</ele>
        <time>2017-09-24T11:44:49.000Z</time>
      </trkpt>
      <trkpt lat="43.36961" lon="2.43667">
        <ele>702</ele>
        <time>2017-09-24T11:44:50.000Z</time>
      </trkpt>
      <trkpt lat="43.36961" lon="2.43668">
        <ele>702</ele>
        <time>2017-09-24T11:44:51.000Z</time>
      </trkpt>
      <trkpt lat="43.3696" lon="2.4367">
        <ele>702</ele>
        <time>2017-09-24T11:44:52.000Z</time>
      </trkpt>
      <trkpt lat="43.3696" lon="2.43671">
        <ele>702</ele>
        <time>2017-09-24T11:44:53.000Z</time>
      </trkpt>
      <trkpt lat="43.36959" lon="2.43673">
        <ele>701</ele>
        <time>2017-09-24T11:44:54.000Z</time>
      </trkpt>
      <trkpt lat="43.36959" lon="2.43674">
        <ele>701</ele>
        <time>2017-09-24T11:44:55.000Z</time>
      </trkpt>
      <trkpt lat="43.36958" lon="2.43676">
        <ele>701</ele>
        <time>2017-09-24T11:44:56.000Z</time>
      </trkpt>
      <trkpt lat="43.36958" lon="2.43677">
        <ele>701</ele>
        <time>2017-09-24T11:44:57.000Z</time>
      </trkpt>
      <trkpt lat="43.36957" lon="2.43679">
        <ele>701</ele>
        <time>2017-09-24T11:44:58.000Z</time>
      </trkpt>
      <trkpt lat="43.36957" lon="2.4368">
        <ele>701</ele>
        <time>2017-09-24T11:44:59.000Z</time>
      </trkpt>
      <trkpt lat="43.36956" lon="2.43682">
        <ele>701</ele>
        <time>2017-09-24T11:45:00.000Z</time>
      </trkpt>
      <trkpt lat="43.36956" lon="2.43684">
        <ele>701</ele>
        <time>2017-09-24T11:45:01.000Z</time>
      </trkpt>
      <trkpt lat="43.36955" lon="2.43685">
        <ele>701</ele>
        <time>2017-09-24T11:45:02.000Z</time>
      </trkpt>
      <trkpt lat="43.36955" lon="2.43686">
        <ele>701</ele>
        <time>2017-09-24T11:45:03.000Z</time>
      </trkpt>
      <trkpt lat="43.36955" lon="2.43688">
        <ele>701</ele>
        <time>2017-09-24T11:45:04.000Z</time>
      </trkpt>
      <trkpt lat="43.36954" lon="2.4369">
        <ele>701</ele>
        <time>2017-09-24T11:45:05.000Z</time>
      </trkpt>
      <trkpt lat="43.36954" lon="2.43691">
        <ele>702</ele>
        <time>2017-09-24T11:45:06.000Z</time>
      </trkpt>
      <trkpt lat="43.36954" lon="2.43693">
        <ele>702</ele>
        <time>2017-09-24T11:45:07.000Z</time>
      </trkpt>
      <trkpt lat="43.36953" lon="2.43694">
        <ele>701</ele>
        <time>2017-09-24T11:45:08.000Z</time>
      </trkpt>
      <trkpt lat="43.36952" lon="2.43696">
        <ele>701</ele>
        <time>2017-09-24T11:45:09.000Z</time>
      </trkpt>
      <trkpt lat="43.36952" lon="2.43697">
        <ele>701</ele>
        <time>2017-09-24T11:45:10.000Z</time>
      </trkpt>
      <trkpt lat="43.36951" lon="2.43698">
        <ele>701</ele>
        <time>2017-09-24T11:45:11.000Z</time>
      </trkpt>
      <trkpt lat="43.3695" lon="2.437">
        <ele>701</ele>
        <time>2017-09-24T11:45:12.000Z</time>
      </trkpt>
      <trkpt lat="43.3695" lon="2.43702">
        <ele>701</ele>
        <time>2017-09-24T11:45:13.000Z</time>
      </trkpt>
      <trkpt lat="43.3695" lon="2.43704">
        <ele>702</ele>
        <time>2017-09-24T11:45:14.000Z</time>
      </trkpt>
      <trkpt lat="43.3695" lon="2.43705">
        <ele>702</ele>
        <time>2017-09-24T11:45:15.000Z</time>
      </trkpt>
      <trkpt lat="43.3695" lon="2.43706">
        <ele>702</ele>
        <time>2017-09-24T11:45:16.000Z</time>
      </trkpt>
      <trkpt lat="43.3695" lon="2.43708">
        <ele>702</ele>
        <time>2017-09-24T11:45:17.000Z</time>
      </trkpt>
      <trkpt lat="43.3695" lon="2.4371">
        <ele>702</ele>
        <time>2017-09-24T11:45:18.000Z</time>
      </trkpt>
      <trkpt lat="43.3695" lon="2.43711">
        <ele>702</ele>
        <time>2017-09-24T11:45:19.000Z</time>
      </trkpt>
      <trkpt lat="43.3695" lon="2.43713">
        <ele>703</ele>
        <time>2017-09-24T11:45:20.000Z</time>
      </trkpt>
      <trkpt lat="43.3695" lon="2.43715">
        <ele>703</ele>
        <time>2017-09-24T11:45:21.000Z</time>
      </trkpt>
      <trkpt lat="43.36949" lon="2.43716">
        <ele>703</ele>
        <time>2017-09-24T11:45:22.000Z</time>
      </trkpt>
      <trkpt lat="43.36949" lon="2.43718">
        <ele>703</ele>
        <time>2017-09-24T11:45:23.000Z</time>
      </trkpt>
      <trkpt lat="43.36948" lon="2.43719">
        <ele>703</ele>
        <time>2017-09-24T11:45:24.000Z</time>
      </trkpt>
      <trkpt lat="43.36948" lon="2.43721">
        <ele>703</ele>
        <time>2017-09-24T11:45:25.000Z</time>
      </trkpt>
      <trkpt lat="43.36947" lon="2.43722">
        <ele>703</ele>
        <time>2017-09-24T11:45:26.000Z</time>
      </trkpt>
      <trkpt lat="43.36947" lon="2.43723">
        <ele>703</ele>
        <time>2017-09-24T11:45:27.000Z</time>
      </trkpt>
      <trkpt lat="43.36946" lon="2.43725">
        <ele>703</ele>
        <time>2017-09-24T11:45:28.000Z</time>
      </trkpt>
      <trkpt lat="43.36946" lon="2.43727">
        <ele>703</ele>
        <time>2017-09-24T11:45:29.000Z</time>
      </trkpt>
      <trkpt lat="43.36945" lon="2.43728">
        <ele>703</ele>
        <time>2017-09-24T11:45:30.000Z</time>
      </trkpt>
      <trkpt lat="43.36945" lon="2.4373">
        <ele>703</ele>
        <time>2017-09-24T11:45:31.000Z</time>
      </trkpt>
      <trkpt lat="43.36945" lon="2.43732">
        <ele>703</ele>
        <time>2017-09-24T11:45:32.000Z</time>
      </trkpt>
      <trkpt lat="43.36944" lon="2.43734">
        <ele>703</ele>
        <time>2017-09-24T11:45:33.000Z</time>
      </trkpt>
      <trkpt lat="43.36944" lon="2.43735">
        <ele>703</ele>
        <time>2017-09-24T11:45:34.000Z</time>
      </trkpt>
      <trkpt lat="43.36943" lon="2.43737">
        <ele>703</ele>
        <time>2017-09-24T11:45:35.000Z</time>
      </trkpt>
      <trkpt lat="43.36943" lon="2.43739">
        <ele>703</ele>
        <time>2017-09-24T11:45:36.000Z</time>
      </trkpt>
      <trkpt lat="43.36942" lon="2.43741">
        <ele>703</ele>
        <time>2017-09-24T11:45:37.000Z</time>
      </trkpt>
      <trkpt lat="43.36942" lon="2.43743">
        <ele>703</ele>
        <time>2017-09-24T11:45:38.000Z</time>
      </trkpt>
      <trkpt lat="43.36942" lon="2.43745">
        <ele>703</ele>
        <time>2017-09-24T11:45:39.000Z</time>
      </trkpt>
      <trkpt lat="43.36942" lon="2.43747">
        <ele>704</ele>
        <time>2017-09-24T11:45:40.000Z</time>
      </trkpt>
      <trkpt lat="43.36941" lon="2.43749">
        <ele>704</ele>
        <time>2017-09-24T11:45:41.000Z</time>
      </trkpt>
      <trkpt lat="43.36941" lon="2.43751">
        <ele>704</ele>
        <time>2017-09-24T11:45:42.000Z</time>
      </trkpt>
      <trkpt lat="43.36941" lon="2.43753">
        <ele>704</ele>
        <time>2017-09-24T11:45:43.000Z</time>
      </trkpt>
      <trkpt lat="43.36941" lon="2.43755">
        <ele>704</ele>
        <time>2017-09-24T11:45:44.000Z</time>
      </trkpt>
      <trkpt lat="43.36942" lon="2.43757">
        <ele>704</ele>
        <time>2017-09-24T11:45:45.000Z</time>
      </trkpt>
      <trkpt lat="43.36942" lon="2.43759">
        <ele>704</ele>
        <time>2017-09-24T11:45:46.000Z</time>
      </trkpt>
      <trkpt lat="43.36942" lon="2.43761">
        <ele>704</ele>
        <time>2017-09-24T11:45:47.000Z</time>
      </trkpt>
      <trkpt lat="43.36942" lon="2.43763">
        <ele>704</ele>
        <time>2017-09-24T11:45:48.000Z</time>
      </trkpt>
      <trkpt lat="43.36941" lon="2.43764">
        <ele>704</ele>
        <time>2017-09-24T11:45:49.000Z</time>
      </trkpt>
      <trkpt lat="43.36941" lon="2.43766">
        <ele>704</ele>
        <time>2017-09-24T11:45:50.000Z</time>
      </trkpt>
      <trkpt lat="43.3694" lon="2.43768">
        <ele>704</ele>
        <time>2017-09-24T11:45:51.000Z</time>
      </trkpt>
      <trkpt lat="43.3694" lon="2.4377">
        <ele>704</ele>
        <time>2017-09-24T11:45:52.000Z</time>
      </trkpt>
      <trkpt lat="43.3694" lon="2.43772">
        <ele>704</ele>
        <time>2017-09-24T11:45:53.000Z</time>
      </trkpt>
      <trkpt lat="43.36939" lon="2.43773">
        <ele>704</ele>
        <time>2017-09-24T11:45:54.000Z</time>
      </trkpt>
      <trkpt lat="43.36939" lon="2.43775">
        <ele>704</ele>
        <time>2017-09-24T11:45:55.000Z</time>
      </trkpt>
      <trkpt lat="43.36939" lon="2.43777">
        <ele>704</ele>
        <time>2017-09-24T11:45:56.000Z</time>
      </trkpt>
      <trkpt lat="43.36938" lon="2.43779">
        <ele>704</ele>
        <time>2017-09-24T11:45:57.000Z</time>
      </trkpt>
      <trkpt lat="43.36938" lon="2.43781">
        <ele>704</ele>
        <time>2017-09-24T11:45:58.000Z</time>
      </trkpt>
      <trkpt lat="43.36938" lon="2.43783">
        <ele>704</ele>
        <time>2017-09-24T11:45:59.000Z</time>
      </trkpt>
      <trkpt lat="43.36938" lon="2.43785">
        <ele>704</ele>
        <time>2017-09-24T11:46:00.000Z</time>
      </trkpt>
      <trkpt lat="43.36938" lon="2.43786">
        <ele>704</ele>
        <time>2017-09-24T11:46:01.000Z</time>
      </trkpt>
      <trkpt lat="43.36938" lon="2.43787">
        <ele>704</ele>
        <time>2017-09-24T11:46:02.000Z</time>
      </trkpt>
      <trkpt lat="43.36938" lon="2.43789">
        <ele>704</ele>
        <time>2017-09-24T11:46:03.000Z</time>
      </trkpt>
      <trkpt lat="43.36938" lon="2.43791">
        <ele>704</ele>
        <time>2017-09-24T11:46:04.000Z</time>
      </trkpt>
      <trkpt lat="43.36938" lon="2.43793">
        <ele>705</ele>
        <time>2017-09-24T11:46:05.000Z</time>
      </trkpt>
      <trkpt lat="43.36939" lon="2.43795">
        <ele>705</ele>
        <time>2017-09-24T11:46:06.000Z</time>
      </trkpt>
      <trkpt lat="43.36939" lon="2.43796">
        <ele>705</ele>
        <time>2017-09-24T11:46:07.000Z</time>
      </trkpt>
      <trkpt lat="43.36939" lon="2.43798">
        <ele>705</ele>
        <time>2017-09-24T11:46:08.000Z</time>
      </trkpt>
      <trkpt lat="43.36939" lon="2.438">
        <ele>705</ele>
        <time>2017-09-24T11:46:09.000Z</time>
      </trkpt>
      <trkpt lat="43.36939" lon="2.43802">
        <ele>705</ele>
        <time>2017-09-24T11:46:10.000Z</time>
      </trkpt>
      <trkpt lat="43.36939" lon="2.43803">
        <ele>705</ele>
        <time>2017-09-24T11:46:11.000Z</time>
      </trkpt>
      <trkpt lat="43.36939" lon="2.43805">
        <ele>706</ele>
        <time>2017-09-24T11:46:12.000Z</time>
      </trkpt>
      <trkpt lat="43.36939" lon="2.43806">
        <ele>706</ele>
        <time>2017-09-24T11:46:13.000Z</time>
      </trkpt>
      <trkpt lat="43.36939" lon="2.43808">
        <ele>706</ele>
        <time>2017-09-24T11:46:14.000Z</time>
      </trkpt>
      <trkpt lat="43.36939" lon="2.4381">
        <ele>706</ele>
        <time>2017-09-24T11:46:15.000Z</time>
      </trkpt>
      <trkpt lat="43.3694" lon="2.43812">
        <ele>706</ele>
        <time>2017-09-24T11:46:16.000Z</time>
      </trkpt>
      <trkpt lat="43.3694" lon="2.43813">
        <ele>706</ele>
        <time>2017-09-24T11:46:17.000Z</time>
      </trkpt>
      <trkpt lat="43.3694" lon="2.43815">
        <ele>706</ele>
        <time>2017-09-24T11:46:18.000Z</time>
      </trkpt>
      <trkpt lat="43.3694" lon="2.43816">
        <ele>706</ele>
        <time>2017-09-24T11:46:19.000Z</time>
      </trkpt>
      <trkpt lat="43.3694" lon="2.43818">
        <ele>706</ele>
        <time>2017-09-24T11:46:20.000Z</time>
      </trkpt>
      <trkpt lat="43.3694" lon="2.43819">
        <ele>707</ele>
        <time>2017-09-24T11:46:21.000Z</time>
      </trkpt>
      <trkpt lat="43.3694" lon="2.43821">
        <ele>707</ele>
        <time>2017-09-24T11:46:22.000Z</time>
      </trkpt>
      <trkpt lat="43.3694" lon="2.43823">
        <ele>707</ele>
        <time>2017-09-24T11:46:23.000Z</time>
      </trkpt>
      <trkpt lat="43.3694" lon="2.43824">
        <ele>707</ele>
        <time>2017-09-24T11:46:24.000Z</time>
      </trkpt>
      <trkpt lat="43.3694" lon="2.43825">
        <ele>707</ele>
        <time>2017-09-24T11:46:25.000Z</time>
      </trkpt>
      <trkpt lat="43.3694" lon="2.43827">
        <ele>707</ele>
        <time>2017-09-24T11:46:26.000Z</time>
      </trkpt>
      <trkpt lat="43.36941" lon="2.43829">
        <ele>707</ele>
        <time>2017-09-24T11:46:27.000Z</time>
      </trkpt>
      <trkpt lat="43.36941" lon="2.4383">
        <ele>708</ele>
        <time>2017-09-24T11:46:28.000Z</time>
      </trkpt>
      <trkpt lat="43.36941" lon="2.43832">
        <ele>708</ele>
        <time>2017-09-24T11:46:29.000Z</time>
      </trkpt>
      <trkpt lat="43.36941" lon="2.43833">
        <ele>708</ele>
        <time>2017-09-24T11:46:30.000Z</time>
      </trkpt>
      <trkpt lat="43.36942" lon="2.43835">
        <ele>708</ele>
        <time>2017-09-24T11:46:31.000Z</time>
      </trkpt>
      <trkpt lat="43.36942" lon="2.43837">
        <ele>708</ele>
        <time>2017-09-24T11:46:32.000Z</time>
      </trkpt>
      <trkpt lat="43.36942" lon="2.43838">
        <ele>708</ele>
        <time>2017-09-24T11:46:33.000Z</time>
      </trkpt>
      <trkpt lat="43.36943" lon="2.4384">
        <ele>708</ele>
        <time>2017-09-24T11:46:34.000Z</time>
      </trkpt>
      <trkpt lat="43.36943" lon="2.43841">
        <ele>708</ele>
        <time>2017-09-24T11:46:35.000Z</time>
      </trkpt>
      <trkpt lat="43.36943" lon="2.43843">
        <ele>708</ele>
        <time>2017-09-24T11:46:36.000Z</time>
      </trkpt>
      <trkpt lat="43.36944" lon="2.43844">
        <ele>708</ele>
        <time>2017-09-24T11:46:37.000Z</time>
      </trkpt>
      <trkpt lat="43.36944" lon="2.43845">
        <ele>708</ele>
        <time>2017-09-24T11:46:38.000Z</time>
      </trkpt>
      <trkpt lat="43.36945" lon="2.43847">
        <ele>708</ele>
        <time>2017-09-24T11:46:39.000Z</time>
      </trkpt>
      <trkpt lat="43.36945" lon="2.43848">
        <ele>708</ele>
        <time>2017-09-24T11:46:40.000Z</time>
      </trkpt>
      <trkpt lat="43.36946" lon="2.43849">
        <ele>709</ele>
        <time>2017-09-24T11:46:41.000Z</time>
      </trkpt>
      <trkpt lat="43.36947" lon="2.43851">
        <ele>709</ele>
        <time>2017-09-24T11:46:42.000Z</time>
      </trkpt>
      <trkpt lat="43.36947" lon="2.43851">
        <ele>709</ele>
        <time>2017-09-24T11:46:43.000Z</time>
      </trkpt>
      <trkpt lat="43.36948" lon="2.43852">
        <ele>709</ele>
        <time>2017-09-24T11:46:44.000Z</time>
      </trkpt>
      <trkpt lat="43.36948" lon="2.43853">
        <ele>709</ele>
        <time>2017-09-24T11:46:45.000Z</time>
      </trkpt>
      <trkpt lat="43.36949" lon="2.43854">
        <ele>709</ele>
        <time>2017-09-24T11:46:46.000Z</time>
      </trkpt>
      <trkpt lat="43.3695" lon="2.43856">
        <ele>710</ele>
        <time>2017-09-24T11:46:47.000Z</time>
      </trkpt>
      <trkpt lat="43.3695" lon="2.43857">
        <ele>710</ele>
        <time>2017-09-24T11:46:48.000Z</time>
      </trkpt>
      <trkpt lat="43.36951" lon="2.43858">
        <ele>710</ele>
        <time>2017-09-24T11:46:49.000Z</time>
      </trkpt>
      <trkpt lat="43.36952" lon="2.43859">
        <ele>710</ele>
        <time>2017-09-24T11:46:50.000Z</time>
      </trkpt>
      <trkpt lat="43.36952" lon="2.4386">
        <ele>710</ele>
        <time>2017-09-24T11:46:51.000Z</time>
      </trkpt>
      <trkpt lat="43.36953" lon="2.4386">
        <ele>711</ele>
        <time>2017-09-24T11:46:52.000Z</time>
      </trkpt>
      <trkpt lat="43.36954" lon="2.43861">
        <ele>711</ele>
        <time>2017-09-24T11:46:53.000Z</time>
      </trkpt>
      <trkpt lat="43.36955" lon="2.43862">
        <ele>711</ele>
        <time>2017-09-24T11:46:54.000Z</time>
      </trkpt>
      <trkpt lat="43.36956" lon="2.43863">
        <ele>711</ele>
        <time>2017-09-24T11:46:55.000Z</time>
      </trkpt>
      <trkpt lat="43.36957" lon="2.43864">
        <ele>711</ele>
        <time>2017-09-24T11:46:56.000Z</time>
      </trkpt>
      <trkpt lat="43.36958" lon="2.43865">
        <ele>712</ele>
        <time>2017-09-24T11:46:57.000Z</time>
      </trkpt>
      <trkpt lat="43.36959" lon="2.43866">
        <ele>712</ele>
        <time>2017-09-24T11:46:58.000Z</time>
      </trkpt>
      <trkpt lat="43.36959" lon="2.43867">
        <ele>712</ele>
        <time>2017-09-24T11:46:59.000Z</time>
      </trkpt>
      <trkpt lat="43.3696" lon="2.43867">
        <ele>712</ele>
        <time>2017-09-24T11:47:00.000Z</time>
      </trkpt>
      <trkpt lat="43.36961" lon="2.43868">
        <ele>712</ele>
        <time>2017-09-24T11:47:01.000Z</time>
      </trkpt>
      <trkpt lat="43.36962" lon="2.43869">
        <ele>713</ele>
        <time>2017-09-24T11:47:02.000Z</time>
      </trkpt>
      <trkpt lat="43.36963" lon="2.4387">
        <ele>713</ele>
        <time>2017-09-24T11:47:03.000Z</time>
      </trkpt>
      <trkpt lat="43.36963" lon="2.43871">
        <ele>713</ele>
        <time>2017-09-24T11:47:04.000Z</time>
      </trkpt>
      <trkpt lat="43.36964" lon="2.43872">
        <ele>713</ele>
        <time>2017-09-24T11:47:05.000Z</time>
      </trkpt>
      <trkpt lat="43.36965" lon="2.43872">
        <ele>713</ele>
        <time>2017-09-24T11:47:06.000Z</time>
      </trkpt>
      <trkpt lat="43.36966" lon="2.43873">
        <ele>713</ele>
        <time>2017-09-24T11:47:07.000Z</time>
      </trkpt>
      <trkpt lat="43.36967" lon="2.43874">
        <ele>714</ele>
        <time>2017-09-24T11:47:08.000Z</time>
      </trkpt>
      <trkpt lat="43.36968" lon="2.43875">
        <ele>714</ele>
        <time>2017-09-24T11:47:09.000Z</time>
      </trkpt>
      <trkpt lat="43.36968" lon="2.43876">
        <ele>714</ele>
        <time>2017-09-24T11:47:10.000Z</time>
      </trkpt>
      <trkpt lat="43.36969" lon="2.43877">
        <ele>714</ele>
        <time>2017-09-24T11:47:11.000Z</time>
      </trkpt>
      <trkpt lat="43.3697" lon="2.43879">
        <ele>715</ele>
        <time>2017-09-24T11:47:12.000Z</time>
      </trkpt>
      <trkpt lat="43.36971" lon="2.4388">
        <ele>715</ele>
        <time>2017-09-24T11:47:13.000Z</time>
      </trkpt>
      <trkpt lat="43.36972" lon="2.43882">
        <ele>715</ele>
        <time>2017-09-24T11:47:14.000Z</time>
      </trkpt>
      <trkpt lat="43.36972" lon="2.43884">
        <ele>715</ele>
        <time>2017-09-24T11:47:15.000Z</time>
      </trkpt>
      <trkpt lat="43.36973" lon="2.43885">
        <ele>716</ele>
        <time>2017-09-24T11:47:16.000Z</time>
      </trkpt>
      <trkpt lat="43.36973" lon="2.43887">
        <ele>716</ele>
        <time>2017-09-24T11:47:17.000Z</time>
      </trkpt>
      <trkpt lat="43.36973" lon="2.43889">
        <ele>716</ele>
        <time>2017-09-24T11:47:18.000Z</time>
      </trkpt>
      <trkpt lat="43.36973" lon="2.43891">
        <ele>716</ele>
        <time>2017-09-24T11:47:19.000Z</time>
      </trkpt>
      <trkpt lat="43.36973" lon="2.43893">
        <ele>716</ele>
        <time>2017-09-24T11:47:20.000Z</time>
      </trkpt>
      <trkpt lat="43.36974" lon="2.43894">
        <ele>717</ele>
        <time>2017-09-24T11:47:21.000Z</time>
      </trkpt>
      <trkpt lat="43.36974" lon="2.43896">
        <ele>717</ele>
        <time>2017-09-24T11:47:22.000Z</time>
      </trkpt>
      <trkpt lat="43.36974" lon="2.43898">
        <ele>717</ele>
        <time>2017-09-24T11:47:23.000Z</time>
      </trkpt>
      <trkpt lat="43.36973" lon="2.439">
        <ele>717</ele>
        <time>2017-09-24T11:47:24.000Z</time>
      </trkpt>
      <trkpt lat="43.36973" lon="2.43901">
        <ele>717</ele>
        <time>2017-09-24T11:47:25.000Z</time>
      </trkpt>
      <trkpt lat="43.36972" lon="2.43902">
        <ele>717</ele>
        <time>2017-09-24T11:47:26.000Z</time>
      </trkpt>
      <trkpt lat="43.36972" lon="2.43904">
        <ele>717</ele>
        <time>2017-09-24T11:47:27.000Z</time>
      </trkpt>
      <trkpt lat="43.36971" lon="2.43906">
        <ele>717</ele>
        <time>2017-09-24T11:47:28.000Z</time>
      </trkpt>
      <trkpt lat="43.3697" lon="2.43907">
        <ele>717</ele>
        <time>2017-09-24T11:47:29.000Z</time>
      </trkpt>
      <trkpt lat="43.3697" lon="2.43909">
        <ele>717</ele>
        <time>2017-09-24T11:47:30.000Z</time>
      </trkpt>
      <trkpt lat="43.36969" lon="2.4391">
        <ele>717</ele>
        <time>2017-09-24T11:47:31.000Z</time>
      </trkpt>
      <trkpt lat="43.36968" lon="2.43912">
        <ele>717</ele>
        <time>2017-09-24T11:47:32.000Z</time>
      </trkpt>
      <trkpt lat="43.36967" lon="2.43913">
        <ele>717</ele>
        <time>2017-09-24T11:47:33.000Z</time>
      </trkpt>
      <trkpt lat="43.36966" lon="2.43914">
        <ele>717</ele>
        <time>2017-09-24T11:47:34.000Z</time>
      </trkpt>
      <trkpt lat="43.36966" lon="2.43915">
        <ele>717</ele>
        <time>2017-09-24T11:47:35.000Z</time>
      </trkpt>
      <trkpt lat="43.36965" lon="2.43916">
        <ele>718</ele>
        <time>2017-09-24T11:47:36.000Z</time>
      </trkpt>
      <trkpt lat="43.36964" lon="2.43918">
        <ele>718</ele>
        <time>2017-09-24T11:47:37.000Z</time>
      </trkpt>
      <trkpt lat="43.36963" lon="2.43919">
        <ele>718</ele>
        <time>2017-09-24T11:47:38.000Z</time>
      </trkpt>
      <trkpt lat="43.36963" lon="2.4392">
        <ele>718</ele>
        <time>2017-09-24T11:47:39.000Z</time>
      </trkpt>
      <trkpt lat="43.36962" lon="2.43921">
        <ele>718</ele>
        <time>2017-09-24T11:47:40.000Z</time>
      </trkpt>
      <trkpt lat="43.36961" lon="2.43923">
        <ele>718</ele>
        <time>2017-09-24T11:47:41.000Z</time>
      </trkpt>
      <trkpt lat="43.3696" lon="2.43924">
        <ele>718</ele>
        <time>2017-09-24T11:47:42.000Z</time>
      </trkpt>
      <trkpt lat="43.36959" lon="2.43925">
        <ele>718</ele>
        <time>2017-09-24T11:47:43.000Z</time>
      </trkpt>
      <trkpt lat="43.36959" lon="2.43927">
        <ele>718</ele>
        <time>2017-09-24T11:47:44.000Z</time>
      </trkpt>
      <trkpt lat="43.36958" lon="2.43928">
        <ele>719</ele>
        <time>2017-09-24T11:47:45.000Z</time>
      </trkpt>
      <trkpt lat="43.36957" lon="2.43929">
        <ele>719</ele>
        <time>2017-09-24T11:47:46.000Z</time>
      </trkpt>
      <trkpt lat="43.36956" lon="2.43931">
        <ele>719</ele>
        <time>2017-09-24T11:47:47.000Z</time>
      </trkpt>
      <trkpt lat="43.36955" lon="2.43932">
        <ele>719</ele>
        <time>2017-09-24T11:47:48.000Z</time>
      </trkpt>
      <trkpt lat="43.36955" lon="2.43932">
        <ele>719</ele>
        <time>2017-09-24T11:47:49.000Z</time>
      </trkpt>
      <trkpt lat="43.36954" lon="2.43933">
        <ele>719</ele>
        <time>2017-09-24T11:47:50.000Z</time>
      </trkpt>
      <trkpt lat="43.36953" lon="2.43934">
        <ele>719</ele>
        <time>2017-09-24T11:47:51.000Z</time>
      </trkpt>
      <trkpt lat="43.36953" lon="2.43934">
        <ele>719</ele>
        <time>2017-09-24T11:47:52.000Z</time>
      </trkpt>
      <trkpt lat="43.36952" lon="2.43935">
        <ele>719</ele>
        <time>2017-09-24T11:47:53.000Z</time>
      </trkpt>
      <trkpt lat="43.36951" lon="2.43936">
        <ele>719</ele>
        <time>2017-09-24T11:47:54.000Z</time>
      </trkpt>
      <trkpt lat="43.36949" lon="2.43937">
        <ele>719</ele>
        <time>2017-09-24T11:47:55.000Z</time>
      </trkpt>
      <trkpt lat="43.36948" lon="2.43938">
        <ele>719</ele>
        <time>2017-09-24T11:47:56.000Z</time>
      </trkpt>
      <trkpt lat="43.36948" lon="2.43938">
        <ele>720</ele>
        <time>2017-09-24T11:47:57.000Z</time>
      </trkpt>
      <trkpt lat="43.36947" lon="2.43939">
        <ele>720</ele>
        <time>2017-09-24T11:47:58.000Z</time>
      </trkpt>
      <trkpt lat="43.36946" lon="2.4394">
        <ele>720</ele>
        <time>2017-09-24T11:47:59.000Z</time>
      </trkpt>
      <trkpt lat="43.36945" lon="2.4394">
        <ele>720</ele>
        <time>2017-09-24T11:48:00.000Z</time>
      </trkpt>
      <trkpt lat="43.36944" lon="2.43941">
        <ele>720</ele>
        <time>2017-09-24T11:48:01.000Z</time>
      </trkpt>
      <trkpt lat="43.36943" lon="2.43941">
        <ele>720</ele>
        <time>2017-09-24T11:48:02.000Z</time>
      </trkpt>
      <trkpt lat="43.36942" lon="2.43941">
        <ele>720</ele>
        <time>2017-09-24T11:48:03.000Z</time>
      </trkpt>
      <trkpt lat="43.36941" lon="2.43941">
        <ele>720</ele>
        <time>2017-09-24T11:48:04.000Z</time>
      </trkpt>
      <trkpt lat="43.36939" lon="2.43941">
        <ele>720</ele>
        <time>2017-09-24T11:48:05.000Z</time>
      </trkpt>
      <trkpt lat="43.36938" lon="2.43941">
        <ele>720</ele>
        <time>2017-09-24T11:48:06.000Z</time>
      </trkpt>
      <trkpt lat="43.36937" lon="2.43941">
        <ele>720</ele>
        <time>2017-09-24T11:48:07.000Z</time>
      </trkpt>
      <trkpt lat="43.36936" lon="2.43942">
        <ele>720</ele>
        <time>2017-09-24T11:48:08.000Z</time>
      </trkpt>
      <trkpt lat="43.36935" lon="2.43942">
        <ele>720</ele>
        <time>2017-09-24T11:48:09.000Z</time>
      </trkpt>
      <trkpt lat="43.36934" lon="2.43942">
        <ele>720</ele>
        <time>2017-09-24T11:48:10.000Z</time>
      </trkpt>
      <trkpt lat="43.36932" lon="2.43942">
        <ele>720</ele>
        <time>2017-09-24T11:48:11.000Z</time>
      </trkpt>
      <trkpt lat="43.36931" lon="2.43942">
        <ele>720</ele>
        <time>2017-09-24T11:48:12.000Z</time>
      </trkpt>
      <trkpt lat="43.3693" lon="2.43943">
        <ele>720</ele>
        <time>2017-09-24T11:48:13.000Z</time>
      </trkpt>
      <trkpt lat="43.36929" lon="2.43943">
        <ele>720</ele>
        <time>2017-09-24T11:48:14.000Z</time>
      </trkpt>
      <trkpt lat="43.36928" lon="2.43943">
        <ele>720</ele>
        <time>2017-09-24T11:48:15.000Z</time>
      </trkpt>
      <trkpt lat="43.36927" lon="2.43943">
        <ele>720</ele>
        <time>2017-09-24T11:48:16.000Z</time>
      </trkpt>
      <trkpt lat="43.36925" lon="2.43943">
        <ele>720</ele>
        <time>2017-09-24T11:48:17.000Z</time>
      </trkpt>
      <trkpt lat="43.36925" lon="2.43943">
        <ele>720</ele>
        <time>2017-09-24T11:48:18.000Z</time>
      </trkpt>
      <trkpt lat="43.36924" lon="2.43943">
        <ele>720</ele>
        <time>2017-09-24T11:48:19.000Z</time>
      </trkpt>
      <trkpt lat="43.36923" lon="2.43943">
        <ele>720</ele>
        <time>2017-09-24T11:48:20.000Z</time>
      </trkpt>
      <trkpt lat="43.36922" lon="2.43943">
        <ele>720</ele>
        <time>2017-09-24T11:48:21.000Z</time>
      </trkpt>
      <trkpt lat="43.3692" lon="2.43943">
        <ele>720</ele>
        <time>2017-09-24T11:48:22.000Z</time>
      </trkpt>
      <trkpt lat="43.36919" lon="2.43942">
        <ele>720</ele>
        <time>2017-09-24T11:48:23.000Z</time>
      </trkpt>
      <trkpt lat="43.36918" lon="2.43942">
        <ele>720</ele>
        <time>2017-09-24T11:48:24.000Z</time>
      </trkpt>
      <trkpt lat="43.36916" lon="2.43942">
        <ele>720</ele>
        <time>2017-09-24T11:48:25.000Z</time>
      </trkpt>
      <trkpt lat="43.36915" lon="2.43942">
        <ele>720</ele>
        <time>2017-09-24T11:48:26.000Z</time>
      </trkpt>
      <trkpt lat="43.36914" lon="2.43943">
        <ele>721</ele>
        <time>2017-09-24T11:48:27.000Z</time>
      </trkpt>
      <trkpt lat="43.36913" lon="2.43942">
        <ele>721</ele>
        <time>2017-09-24T11:48:28.000Z</time>
      </trkpt>
      <trkpt lat="43.36911" lon="2.43942">
        <ele>720</ele>
        <time>2017-09-24T11:48:29.000Z</time>
      </trkpt>
      <trkpt lat="43.3691" lon="2.43942">
        <ele>720</ele>
        <time>2017-09-24T11:48:30.000Z</time>
      </trkpt>
      <trkpt lat="43.36909" lon="2.43942">
        <ele>721</ele>
        <time>2017-09-24T11:48:31.000Z</time>
      </trkpt>
      <trkpt lat="43.36908" lon="2.43942">
        <ele>721</ele>
        <time>2017-09-24T11:48:32.000Z</time>
      </trkpt>
      <trkpt lat="43.36907" lon="2.43942">
        <ele>720</ele>
        <time>2017-09-24T11:48:33.000Z</time>
      </trkpt>
      <trkpt lat="43.36905" lon="2.43941">
        <ele>720</ele>
        <time>2017-09-24T11:48:34.000Z</time>
      </trkpt>
      <trkpt lat="43.36904" lon="2.43941">
        <ele>720</ele>
        <time>2017-09-24T11:48:35.000Z</time>
      </trkpt>
      <trkpt lat="43.36902" lon="2.4394">
        <ele>720</ele>
        <time>2017-09-24T11:48:36.000Z</time>
      </trkpt>
      <trkpt lat="43.369" lon="2.43939">
        <ele>720</ele>
        <time>2017-09-24T11:48:37.000Z</time>
      </trkpt>
      <trkpt lat="43.36898" lon="2.4394">
        <ele>720</ele>
        <time>2017-09-24T11:48:38.000Z</time>
      </trkpt>
      <trkpt lat="43.36897" lon="2.4394">
        <ele>720</ele>
        <time>2017-09-24T11:48:39.000Z</time>
      </trkpt>
      <trkpt lat="43.36896" lon="2.4394">
        <ele>720</ele>
        <time>2017-09-24T11:48:40.000Z</time>
      </trkpt>
      <trkpt lat="43.36894" lon="2.43939">
        <ele>720</ele>
        <time>2017-09-24T11:48:41.000Z</time>
      </trkpt>
      <trkpt lat="43.36893" lon="2.43939">
        <ele>720</ele>
        <time>2017-09-24T11:48:42.000Z</time>
      </trkpt>
      <trkpt lat="43.36891" lon="2.43939">
        <ele>720</ele>
        <time>2017-09-24T11:48:43.000Z</time>
      </trkpt>
      <trkpt lat="43.36889" lon="2.43939">
        <ele>720</ele>
        <time>2017-09-24T11:48:44.000Z</time>
      </trkpt>
      <trkpt lat="43.36888" lon="2.4394">
        <ele>720</ele>
        <time>2017-09-24T11:48:45.000Z</time>
      </trkpt>
      <trkpt lat="43.36886" lon="2.4394">
        <ele>721</ele>
        <time>2017-09-24T11:48:46.000Z</time>
      </trkpt>
      <trkpt lat="43.36885" lon="2.4394">
        <ele>721</ele>
        <time>2017-09-24T11:48:47.000Z</time>
      </trkpt>
      <trkpt lat="43.36884" lon="2.4394">
        <ele>721</ele>
        <time>2017-09-24T11:48:48.000Z</time>
      </trkpt>
      <trkpt lat="43.36882" lon="2.4394">
        <ele>721</ele>
        <time>2017-09-24T11:48:49.000Z</time>
      </trkpt>
      <trkpt lat="43.36881" lon="2.4394">
        <ele>721</ele>
        <time>2017-09-24T11:48:50.000Z</time>
      </trkpt>
      <trkpt lat="43.36879" lon="2.43939">
        <ele>720</ele>
        <time>2017-09-24T11:48:51.000Z</time>
      </trkpt>
      <trkpt lat="43.36878" lon="2.43939">
        <ele>720</ele>
        <time>2017-09-24T11:48:52.000Z</time>
      </trkpt>
      <trkpt lat="43.36877" lon="2.43939">
        <ele>720</ele>
        <time>2017-09-24T11:48:53.000Z</time>
      </trkpt>
      <trkpt lat="43.36876" lon="2.43939">
        <ele>720</ele>
        <time>2017-09-24T11:48:54.000Z</time>
      </trkpt>
      <trkpt lat="43.36875" lon="2.43938">
        <ele>720</ele>
        <time>2017-09-24T11:48:55.000Z</time>
      </trkpt>
      <trkpt lat="43.36873" lon="2.43938">
        <ele>720</ele>
        <time>2017-09-24T11:48:56.000Z</time>
      </trkpt>
      <trkpt lat="43.36872" lon="2.43938">
        <ele>720</ele>
        <time>2017-09-24T11:48:57.000Z</time>
      </trkpt>
      <trkpt lat="43.36871" lon="2.43938">
        <ele>720</ele>
        <time>2017-09-24T11:48:58.000Z</time>
      </trkpt>
      <trkpt lat="43.36869" lon="2.43938">
        <ele>720</ele>
        <time>2017-09-24T11:48:59.000Z</time>
      </trkpt>
      <trkpt lat="43.36867" lon="2.43937">
        <ele>720</ele>
        <time>2017-09-24T11:49:00.000Z</time>
      </trkpt>
      <trkpt lat="43.36865" lon="2.43937">
        <ele>720</ele>
        <time>2017-09-24T11:49:01.000Z</time>
      </trkpt>
      <trkpt lat="43.36864" lon="2.43937">
        <ele>721</ele>
        <time>2017-09-24T11:49:02.000Z</time>
      </trkpt>
      <trkpt lat="43.36863" lon="2.43938">
        <ele>721</ele>
        <time>2017-09-24T11:49:03.000Z</time>
      </trkpt>
      <trkpt lat="43.36862" lon="2.43938">
        <ele>721</ele>
        <time>2017-09-24T11:49:04.000Z</time>
      </trkpt>
      <trkpt lat="43.36861" lon="2.43938">
        <ele>721</ele>
        <time>2017-09-24T11:49:05.000Z</time>
      </trkpt>
      <trkpt lat="43.36859" lon="2.43937">
        <ele>721</ele>
        <time>2017-09-24T11:49:06.000Z</time>
      </trkpt>
      <trkpt lat="43.36859" lon="2.43937">
        <ele>721</ele>
        <time>2017-09-24T11:49:07.000Z</time>
      </trkpt>
      <trkpt lat="43.36858" lon="2.43937">
        <ele>721</ele>
        <time>2017-09-24T11:49:08.000Z</time>
      </trkpt>
      <trkpt lat="43.36856" lon="2.43937">
        <ele>721</ele>
        <time>2017-09-24T11:49:09.000Z</time>
      </trkpt>
      <trkpt lat="43.36855" lon="2.43937">
        <ele>721</ele>
        <time>2017-09-24T11:49:10.000Z</time>
      </trkpt>
      <trkpt lat="43.36853" lon="2.43937">
        <ele>721</ele>
        <time>2017-09-24T11:49:11.000Z</time>
      </trkpt>
      <trkpt lat="43.36852" lon="2.43937">
        <ele>721</ele>
        <time>2017-09-24T11:49:12.000Z</time>
      </trkpt>
      <trkpt lat="43.36851" lon="2.43937">
        <ele>721</ele>
        <time>2017-09-24T11:49:13.000Z</time>
      </trkpt>
      <trkpt lat="43.3685" lon="2.43936">
        <ele>721</ele>
        <time>2017-09-24T11:49:14.000Z</time>
      </trkpt>
      <trkpt lat="43.36849" lon="2.43936">
        <ele>721</ele>
        <time>2017-09-24T11:49:15.000Z</time>
      </trkpt>
      <trkpt lat="43.36847" lon="2.43936">
        <ele>721</ele>
        <time>2017-09-24T11:49:16.000Z</time>
      </trkpt>
      <trkpt lat="43.36845" lon="2.43935">
        <ele>721</ele>
        <time>2017-09-24T11:49:17.000Z</time>
      </trkpt>
      <trkpt lat="43.36844" lon="2.43936">
        <ele>721</ele>
        <time>2017-09-24T11:49:18.000Z</time>
      </trkpt>
      <trkpt lat="43.36843" lon="2.43936">
        <ele>721</ele>
        <time>2017-09-24T11:49:19.000Z</time>
      </trkpt>
      <trkpt lat="43.36841" lon="2.43936">
        <ele>721</ele>
        <time>2017-09-24T11:49:20.000Z</time>
      </trkpt>
      <trkpt lat="43.3684" lon="2.43936">
        <ele>721</ele>
        <time>2017-09-24T11:49:21.000Z</time>
      </trkpt>
      <trkpt lat="43.36839" lon="2.43936">
        <ele>722</ele>
        <time>2017-09-24T11:49:22.000Z</time>
      </trkpt>
      <trkpt lat="43.36838" lon="2.43935">
        <ele>721</ele>
        <time>2017-09-24T11:49:23.000Z</time>
      </trkpt>
      <trkpt lat="43.36836" lon="2.43934">
        <ele>721</ele>
        <time>2017-09-24T11:49:24.000Z</time>
      </trkpt>
      <trkpt lat="43.36835" lon="2.43934">
        <ele>721</ele>
        <time>2017-09-24T11:49:25.000Z</time>
      </trkpt>
      <trkpt lat="43.36833" lon="2.43934">
        <ele>721</ele>
        <time>2017-09-24T11:49:26.000Z</time>
      </trkpt>
      <trkpt lat="43.36832" lon="2.43934">
        <ele>721</ele>
        <time>2017-09-24T11:49:27.000Z</time>
      </trkpt>
      <trkpt lat="43.3683" lon="2.43933">
        <ele>721</ele>
        <time>2017-09-24T11:49:28.000Z</time>
      </trkpt>
      <trkpt lat="43.36829" lon="2.43933">
        <ele>721</ele>
        <time>2017-09-24T11:49:29.000Z</time>
      </trkpt>
      <trkpt lat="43.36828" lon="2.43933">
        <ele>721</ele>
        <time>2017-09-24T11:49:30.000Z</time>
      </trkpt>
      <trkpt lat="43.36827" lon="2.43933">
        <ele>721</ele>
        <time>2017-09-24T11:49:31.000Z</time>
      </trkpt>
      <trkpt lat="43.36826" lon="2.43933">
        <ele>721</ele>
        <time>2017-09-24T11:49:32.000Z</time>
      </trkpt>
      <trkpt lat="43.36824" lon="2.43933">
        <ele>721</ele>
        <time>2017-09-24T11:49:33.000Z</time>
      </trkpt>
      <trkpt lat="43.36823" lon="2.43933">
        <ele>722</ele>
        <time>2017-09-24T11:49:34.000Z</time>
      </trkpt>
      <trkpt lat="43.36822" lon="2.43933">
        <ele>722</ele>
        <time>2017-09-24T11:49:35.000Z</time>
      </trkpt>
      <trkpt lat="43.36821" lon="2.43932">
        <ele>722</ele>
        <time>2017-09-24T11:49:36.000Z</time>
      </trkpt>
      <trkpt lat="43.36819" lon="2.43932">
        <ele>722</ele>
        <time>2017-09-24T11:49:37.000Z</time>
      </trkpt>
      <trkpt lat="43.36818" lon="2.43932">
        <ele>722</ele>
        <time>2017-09-24T11:49:38.000Z</time>
      </trkpt>
      <trkpt lat="43.36817" lon="2.43932">
        <ele>722</ele>
        <time>2017-09-24T11:49:39.000Z</time>
      </trkpt>
      <trkpt lat="43.36815" lon="2.43932">
        <ele>722</ele>
        <time>2017-09-24T11:49:40.000Z</time>
      </trkpt>
      <trkpt lat="43.36814" lon="2.43932">
        <ele>722</ele>
        <time>2017-09-24T11:49:41.000Z</time>
      </trkpt>
      <trkpt lat="43.36813" lon="2.43932">
        <ele>722</ele>
        <time>2017-09-24T11:49:42.000Z</time>
      </trkpt>
      <trkpt lat="43.36812" lon="2.43931">
        <ele>722</ele>
        <time>2017-09-24T11:49:43.000Z</time>
      </trkpt>
      <trkpt lat="43.3681" lon="2.43931">
        <ele>722</ele>
        <time>2017-09-24T11:49:44.000Z</time>
      </trkpt>
      <trkpt lat="43.36809" lon="2.43931">
        <ele>722</ele>
        <time>2017-09-24T11:49:45.000Z</time>
      </trkpt>
      <trkpt lat="43.36808" lon="2.43931">
        <ele>722</ele>
        <time>2017-09-24T11:49:46.000Z</time>
      </trkpt>
      <trkpt lat="43.36806" lon="2.43931">
        <ele>722</ele>
        <time>2017-09-24T11:49:47.000Z</time>
      </trkpt>
      <trkpt lat="43.36805" lon="2.4393">
        <ele>722</ele>
        <time>2017-09-24T11:49:48.000Z</time>
      </trkpt>
      <trkpt lat="43.36805" lon="2.43929">
        <ele>722</ele>
        <time>2017-09-24T11:49:49.000Z</time>
      </trkpt>
      <trkpt lat="43.36803" lon="2.43928">
        <ele>722</ele>
        <time>2017-09-24T11:49:50.000Z</time>
      </trkpt>
      <trkpt lat="43.36802" lon="2.43928">
        <ele>721</ele>
        <time>2017-09-24T11:49:51.000Z</time>
      </trkpt>
      <trkpt lat="43.36801" lon="2.43928">
        <ele>721</ele>
        <time>2017-09-24T11:49:52.000Z</time>
      </trkpt>
      <trkpt lat="43.36801" lon="2.43927">
        <ele>721</ele>
        <time>2017-09-24T11:49:53.000Z</time>
      </trkpt>
      <trkpt lat="43.368" lon="2.43927">
        <ele>721</ele>
        <time>2017-09-24T11:49:54.000Z</time>
      </trkpt>
      <trkpt lat="43.36799" lon="2.43926">
        <ele>721</ele>
        <time>2017-09-24T11:49:55.000Z</time>
      </trkpt>
      <trkpt lat="43.36797" lon="2.43926">
        <ele>721</ele>
        <time>2017-09-24T11:49:56.000Z</time>
      </trkpt>
      <trkpt lat="43.36796" lon="2.43926">
        <ele>721</ele>
        <time>2017-09-24T11:49:57.000Z</time>
      </trkpt>
      <trkpt lat="43.36795" lon="2.43926">
        <ele>721</ele>
        <time>2017-09-24T11:49:58.000Z</time>
      </trkpt>
      <trkpt lat="43.36794" lon="2.43925">
        <ele>721</ele>
        <time>2017-09-24T11:49:59.000Z</time>
      </trkpt>
      <trkpt lat="43.36793" lon="2.43925">
        <ele>721</ele>
        <time>2017-09-24T11:50:00.000Z</time>
      </trkpt>
      <trkpt lat="43.36792" lon="2.43923">
        <ele>721</ele>
        <time>2017-09-24T11:50:01.000Z</time>
      </trkpt>
      <trkpt lat="43.3679" lon="2.43923">
        <ele>721</ele>
        <time>2017-09-24T11:50:02.000Z</time>
      </trkpt>
      <trkpt lat="43.36789" lon="2.43922">
        <ele>720</ele>
        <time>2017-09-24T11:50:03.000Z</time>
      </trkpt>
      <trkpt lat="43.36788" lon="2.43922">
        <ele>721</ele>
        <time>2017-09-24T11:50:04.000Z</time>
      </trkpt>
      <trkpt lat="43.36787" lon="2.43922">
        <ele>721</ele>
        <time>2017-09-24T11:50:05.000Z</time>
      </trkpt>
      <trkpt lat="43.36785" lon="2.43922">
        <ele>721</ele>
        <time>2017-09-24T11:50:06.000Z</time>
      </trkpt>
      <trkpt lat="43.36784" lon="2.43922">
        <ele>721</ele>
        <time>2017-09-24T11:50:07.000Z</time>
      </trkpt>
      <trkpt lat="43.36783" lon="2.43922">
        <ele>721</ele>
        <time>2017-09-24T11:50:08.000Z</time>
      </trkpt>
      <trkpt lat="43.36782" lon="2.43922">
        <ele>721</ele>
        <time>2017-09-24T11:50:09.000Z</time>
      </trkpt>
      <trkpt lat="43.3678" lon="2.43922">
        <ele>721</ele>
        <time>2017-09-24T11:50:10.000Z</time>
      </trkpt>
      <trkpt lat="43.36779" lon="2.43922">
        <ele>721</ele>
        <time>2017-09-24T11:50:11.000Z</time>
      </trkpt>
      <trkpt lat="43.36778" lon="2.43922">
        <ele>721</ele>
        <time>2017-09-24T11:50:12.000Z</time>
      </trkpt>
      <trkpt lat="43.36776" lon="2.43922">
        <ele>721</ele>
        <time>2017-09-24T11:50:13.000Z</time>
      </trkpt>
      <trkpt lat="43.36775" lon="2.43922">
        <ele>721</ele>
        <time>2017-09-24T11:50:14.000Z</time>
      </trkpt>
      <trkpt lat="43.36774" lon="2.43921">
        <ele>721</ele>
        <time>2017-09-24T11:50:15.000Z</time>
      </trkpt>
      <trkpt lat="43.36773" lon="2.43921">
        <ele>721</ele>
        <time>2017-09-24T11:50:16.000Z</time>
      </trkpt>
      <trkpt lat="43.36772" lon="2.4392">
        <ele>721</ele>
        <time>2017-09-24T11:50:17.000Z</time>
      </trkpt>
      <trkpt lat="43.36771" lon="2.4392">
        <ele>721</ele>
        <time>2017-09-24T11:50:18.000Z</time>
      </trkpt>
      <trkpt lat="43.3677" lon="2.4392">
        <ele>721</ele>
        <time>2017-09-24T11:50:19.000Z</time>
      </trkpt>
      <trkpt lat="43.36768" lon="2.4392">
        <ele>721</ele>
        <time>2017-09-24T11:50:20.000Z</time>
      </trkpt>
      <trkpt lat="43.36767" lon="2.43919">
        <ele>721</ele>
        <time>2017-09-24T11:50:21.000Z</time>
      </trkpt>
      <trkpt lat="43.36766" lon="2.43919">
        <ele>721</ele>
        <time>2017-09-24T11:50:22.000Z</time>
      </trkpt>
      <trkpt lat="43.36765" lon="2.43919">
        <ele>721</ele>
        <time>2017-09-24T11:50:23.000Z</time>
      </trkpt>
      <trkpt lat="43.36764" lon="2.43919">
        <ele>721</ele>
        <time>2017-09-24T11:50:24.000Z</time>
      </trkpt>
      <trkpt lat="43.36763" lon="2.43919">
        <ele>721</ele>
        <time>2017-09-24T11:50:25.000Z</time>
      </trkpt>
      <trkpt lat="43.36762" lon="2.43918">
        <ele>721</ele>
        <time>2017-09-24T11:50:26.000Z</time>
      </trkpt>
      <trkpt lat="43.36761" lon="2.43918">
        <ele>721</ele>
        <time>2017-09-24T11:50:27.000Z</time>
      </trkpt>
      <trkpt lat="43.3676" lon="2.43918">
        <ele>721</ele>
        <time>2017-09-24T11:50:28.000Z</time>
      </trkpt>
      <trkpt lat="43.36758" lon="2.43919">
        <ele>722</ele>
        <time>2017-09-24T11:50:29.000Z</time>
      </trkpt>
      <trkpt lat="43.36757" lon="2.43919">
        <ele>722</ele>
        <time>2017-09-24T11:50:30.000Z</time>
      </trkpt>
      <trkpt lat="43.36756" lon="2.43919">
        <ele>722</ele>
        <time>2017-09-24T11:50:31.000Z</time>
      </trkpt>
      <trkpt lat="43.36755" lon="2.43919">
        <ele>722</ele>
        <time>2017-09-24T11:50:32.000Z</time>
      </trkpt>
      <trkpt lat="43.36754" lon="2.43919">
        <ele>723</ele>
        <time>2017-09-24T11:50:33.000Z</time>
      </trkpt>
      <trkpt lat="43.36753" lon="2.43919">
        <ele>723</ele>
        <time>2017-09-24T11:50:34.000Z</time>
      </trkpt>
      <trkpt lat="43.36752" lon="2.4392">
        <ele>723</ele>
        <time>2017-09-24T11:50:35.000Z</time>
      </trkpt>
      <trkpt lat="43.36751" lon="2.4392">
        <ele>723</ele>
        <time>2017-09-24T11:50:36.000Z</time>
      </trkpt>
      <trkpt lat="43.3675" lon="2.43921">
        <ele>724</ele>
        <time>2017-09-24T11:50:37.000Z</time>
      </trkpt>
      <trkpt lat="43.36748" lon="2.43921">
        <ele>724</ele>
        <time>2017-09-24T11:50:38.000Z</time>
      </trkpt>
      <trkpt lat="43.36747" lon="2.43921">
        <ele>724</ele>
        <time>2017-09-24T11:50:39.000Z</time>
      </trkpt>
      <trkpt lat="43.36746" lon="2.43922">
        <ele>725</ele>
        <time>2017-09-24T11:50:40.000Z</time>
      </trkpt>
      <trkpt lat="43.36745" lon="2.43922">
        <ele>725</ele>
        <time>2017-09-24T11:50:41.000Z</time>
      </trkpt>
      <trkpt lat="43.36743" lon="2.43922">
        <ele>725</ele>
        <time>2017-09-24T11:50:42.000Z</time>
      </trkpt>
      <trkpt lat="43.36742" lon="2.43923">
        <ele>726</ele>
        <time>2017-09-24T11:50:43.000Z</time>
      </trkpt>
      <trkpt lat="43.36741" lon="2.43923">
        <ele>726</ele>
        <time>2017-09-24T11:50:44.000Z</time>
      </trkpt>
      <trkpt lat="43.3674" lon="2.43924">
        <ele>726</ele>
        <time>2017-09-24T11:50:45.000Z</time>
      </trkpt>
      <trkpt lat="43.36739" lon="2.43925">
        <ele>727</ele>
        <time>2017-09-24T11:50:46.000Z</time>
      </trkpt>
      <trkpt lat="43.36738" lon="2.43925">
        <ele>727</ele>
        <time>2017-09-24T11:50:47.000Z</time>
      </trkpt>
      <trkpt lat="43.36737" lon="2.43925">
        <ele>727</ele>
        <time>2017-09-24T11:50:48.000Z</time>
      </trkpt>
      <trkpt lat="43.36736" lon="2.43926">
        <ele>727</ele>
        <time>2017-09-24T11:50:49.000Z</time>
      </trkpt>
      <trkpt lat="43.36735" lon="2.43927">
        <ele>728</ele>
        <time>2017-09-24T11:50:50.000Z</time>
      </trkpt>
      <trkpt lat="43.36734" lon="2.43928">
        <ele>728</ele>
        <time>2017-09-24T11:50:51.000Z</time>
      </trkpt>
      <trkpt lat="43.36733" lon="2.43928">
        <ele>728</ele>
        <time>2017-09-24T11:50:52.000Z</time>
      </trkpt>
      <trkpt lat="43.36732" lon="2.43929">
        <ele>729</ele>
        <time>2017-09-24T11:50:53.000Z</time>
      </trkpt>
      <trkpt lat="43.36731" lon="2.4393">
        <ele>729</ele>
        <time>2017-09-24T11:50:54.000Z</time>
      </trkpt>
      <trkpt lat="43.3673" lon="2.43931">
        <ele>729</ele>
        <time>2017-09-24T11:50:55.000Z</time>
      </trkpt>
      <trkpt lat="43.3673" lon="2.43932">
        <ele>730</ele>
        <time>2017-09-24T11:50:56.000Z</time>
      </trkpt>
      <trkpt lat="43.36729" lon="2.43933">
        <ele>730</ele>
        <time>2017-09-24T11:50:57.000Z</time>
      </trkpt>
      <trkpt lat="43.36728" lon="2.43934">
        <ele>730</ele>
        <time>2017-09-24T11:50:58.000Z</time>
      </trkpt>
      <trkpt lat="43.36727" lon="2.43935">
        <ele>731</ele>
        <time>2017-09-24T11:50:59.000Z</time>
      </trkpt>
      <trkpt lat="43.36726" lon="2.43936">
        <ele>731</ele>
        <time>2017-09-24T11:51:00.000Z</time>
      </trkpt>
      <trkpt lat="43.36725" lon="2.43936">
        <ele>731</ele>
        <time>2017-09-24T11:51:01.000Z</time>
      </trkpt>
      <trkpt lat="43.36724" lon="2.43938">
        <ele>732</ele>
        <time>2017-09-24T11:51:02.000Z</time>
      </trkpt>
      <trkpt lat="43.36723" lon="2.43939">
        <ele>732</ele>
        <time>2017-09-24T11:51:03.000Z</time>
      </trkpt>
      <trkpt lat="43.36722" lon="2.4394">
        <ele>732</ele>
        <time>2017-09-24T11:51:04.000Z</time>
      </trkpt>
      <trkpt lat="43.36722" lon="2.43941">
        <ele>733</ele>
        <time>2017-09-24T11:51:05.000Z</time>
      </trkpt>
      <trkpt lat="43.36721" lon="2.43942">
        <ele>733</ele>
        <time>2017-09-24T11:51:06.000Z</time>
      </trkpt>
      <trkpt lat="43.3672" lon="2.43943">
        <ele>733</ele>
        <time>2017-09-24T11:51:07.000Z</time>
      </trkpt>
      <trkpt lat="43.3672" lon="2.43945">
        <ele>734</ele>
        <time>2017-09-24T11:51:08.000Z</time>
      </trkpt>
      <trkpt lat="43.36719" lon="2.43946">
        <ele>734</ele>
        <time>2017-09-24T11:51:09.000Z</time>
      </trkpt>
      <trkpt lat="43.36719" lon="2.43947">
        <ele>734</ele>
        <time>2017-09-24T11:51:10.000Z</time>
      </trkpt>
      <trkpt lat="43.36718" lon="2.43948">
        <ele>735</ele>
        <time>2017-09-24T11:51:11.000Z</time>
      </trkpt>
      <trkpt lat="43.36717" lon="2.4395">
        <ele>735</ele>
        <time>2017-09-24T11:51:12.000Z</time>
      </trkpt>
      <trkpt lat="43.36716" lon="2.43951">
        <ele>736</ele>
        <time>2017-09-24T11:51:13.000Z</time>
      </trkpt>
      <trkpt lat="43.36716" lon="2.43952">
        <ele>736</ele>
        <time>2017-09-24T11:51:14.000Z</time>
      </trkpt>
      <trkpt lat="43.36715" lon="2.43953">
        <ele>736</ele>
        <time>2017-09-24T11:51:15.000Z</time>
      </trkpt>
      <trkpt lat="43.36714" lon="2.43954">
        <ele>736</ele>
        <time>2017-09-24T11:51:16.000Z</time>
      </trkpt>
      <trkpt lat="43.36713" lon="2.43955">
        <ele>736</ele>
        <time>2017-09-24T11:51:17.000Z</time>
      </trkpt>
      <trkpt lat="43.36712" lon="2.43957">
        <ele>736</ele>
        <time>2017-09-24T11:51:18.000Z</time>
      </trkpt>
      <trkpt lat="43.36711" lon="2.43958">
        <ele>736</ele>
        <time>2017-09-24T11:51:19.000Z</time>
      </trkpt>
      <trkpt lat="43.3671" lon="2.43959">
        <ele>736</ele>
        <time>2017-09-24T11:51:20.000Z</time>
      </trkpt>
      <trkpt lat="43.36709" lon="2.4396">
        <ele>736</ele>
        <time>2017-09-24T11:51:21.000Z</time>
      </trkpt>
      <trkpt lat="43.36708" lon="2.43961">
        <ele>736</ele>
        <time>2017-09-24T11:51:22.000Z</time>
      </trkpt>
      <trkpt lat="43.36707" lon="2.43961">
        <ele>736</ele>
        <time>2017-09-24T11:51:23.000Z</time>
      </trkpt>
      <trkpt lat="43.36706" lon="2.43961">
        <ele>736</ele>
        <time>2017-09-24T11:51:24.000Z</time>
      </trkpt>
      <trkpt lat="43.36705" lon="2.43961">
        <ele>736</ele>
        <time>2017-09-24T11:51:25.000Z</time>
      </trkpt>
      <trkpt lat="43.36704" lon="2.4396">
        <ele>736</ele>
        <time>2017-09-24T11:51:26.000Z</time>
      </trkpt>
      <trkpt lat="43.36703" lon="2.4396">
        <ele>736</ele>
        <time>2017-09-24T11:51:27.000Z</time>
      </trkpt>
      <trkpt lat="43.36702" lon="2.4396">
        <ele>736</ele>
        <time>2017-09-24T11:51:28.000Z</time>
      </trkpt>
      <trkpt lat="43.367" lon="2.43959">
        <ele>736</ele>
        <time>2017-09-24T11:51:29.000Z</time>
      </trkpt>
      <trkpt lat="43.36699" lon="2.43959">
        <ele>736</ele>
        <time>2017-09-24T11:51:30.000Z</time>
      </trkpt>
      <trkpt lat="43.36698" lon="2.43958">
        <ele>736</ele>
        <time>2017-09-24T11:51:31.000Z</time>
      </trkpt>
      <trkpt lat="43.36697" lon="2.43958">
        <ele>736</ele>
        <time>2017-09-24T11:51:32.000Z</time>
      </trkpt>
      <trkpt lat="43.36696" lon="2.43957">
        <ele>736</ele>
        <time>2017-09-24T11:51:33.000Z</time>
      </trkpt>
      <trkpt lat="43.36696" lon="2.43957">
        <ele>736</ele>
        <time>2017-09-24T11:51:34.000Z</time>
      </trkpt>
      <trkpt lat="43.36696" lon="2.43956">
        <ele>736</ele>
        <time>2017-09-24T11:51:35.000Z</time>
      </trkpt>
      <trkpt lat="43.36696" lon="2.43957">
        <ele>736</ele>
        <time>2017-09-24T11:51:36.000Z</time>
      </trkpt>
      <trkpt lat="43.36696" lon="2.43957">
        <ele>736</ele>
        <time>2017-09-24T11:51:37.000Z</time>
      </trkpt>
      <trkpt lat="43.36692" lon="2.43953">
        <ele>736</ele>
        <time>2017-09-24T11:56:28.000Z</time>
      </trkpt>
      <trkpt lat="43.36691" lon="2.43952">
        <ele>736</ele>
        <time>2017-09-24T11:56:29.000Z</time>
      </trkpt>
      <trkpt lat="43.36691" lon="2.4395">
        <ele>736</ele>
        <time>2017-09-24T11:56:30.000Z</time>
      </trkpt>
      <trkpt lat="43.3669" lon="2.43949">
        <ele>736</ele>
        <time>2017-09-24T11:56:31.000Z</time>
      </trkpt>
      <trkpt lat="43.3669" lon="2.43948">
        <ele>736</ele>
        <time>2017-09-24T11:56:32.000Z</time>
      </trkpt>
      <trkpt lat="43.36689" lon="2.43947">
        <ele>736</ele>
        <time>2017-09-24T11:56:33.000Z</time>
      </trkpt>
      <trkpt lat="43.36688" lon="2.43945">
        <ele>736</ele>
        <time>2017-09-24T11:56:34.000Z</time>
      </trkpt>
      <trkpt lat="43.36688" lon="2.43944">
        <ele>736</ele>
        <time>2017-09-24T11:56:35.000Z</time>
      </trkpt>
      <trkpt lat="43.36688" lon="2.43943">
        <ele>736</ele>
        <time>2017-09-24T11:56:36.000Z</time>
      </trkpt>
      <trkpt lat="43.36687" lon="2.43942">
        <ele>736</ele>
        <time>2017-09-24T11:56:37.000Z</time>
      </trkpt>
      <trkpt lat="43.36687" lon="2.4394">
        <ele>736</ele>
        <time>2017-09-24T11:56:38.000Z</time>
      </trkpt>
      <trkpt lat="43.36686" lon="2.43939">
        <ele>736</ele>
        <time>2017-09-24T11:56:39.000Z</time>
      </trkpt>
      <trkpt lat="43.36686" lon="2.43938">
        <ele>736</ele>
        <time>2017-09-24T11:56:40.000Z</time>
      </trkpt>
      <trkpt lat="43.36686" lon="2.43937">
        <ele>736</ele>
        <time>2017-09-24T11:56:41.000Z</time>
      </trkpt>
      <trkpt lat="43.36685" lon="2.43935">
        <ele>736</ele>
        <time>2017-09-24T11:56:42.000Z</time>
      </trkpt>
      <trkpt lat="43.36685" lon="2.43933">
        <ele>736</ele>
        <time>2017-09-24T11:56:43.000Z</time>
      </trkpt>
      <trkpt lat="43.36685" lon="2.43931">
        <ele>736</ele>
        <time>2017-09-24T11:56:44.000Z</time>
      </trkpt>
      <trkpt lat="43.36684" lon="2.4393">
        <ele>736</ele>
        <time>2017-09-24T11:56:45.000Z</time>
      </trkpt>
      <trkpt lat="43.36684" lon="2.43928">
        <ele>736</ele>
        <time>2017-09-24T11:56:46.000Z</time>
      </trkpt>
      <trkpt lat="43.36683" lon="2.43927">
        <ele>736</ele>
        <time>2017-09-24T11:56:47.000Z</time>
      </trkpt>
      <trkpt lat="43.36682" lon="2.43925">
        <ele>736</ele>
        <time>2017-09-24T11:56:48.000Z</time>
      </trkpt>
      <trkpt lat="43.36682" lon="2.43923">
        <ele>736</ele>
        <time>2017-09-24T11:56:49.000Z</time>
      </trkpt>
      <trkpt lat="43.36681" lon="2.43921">
        <ele>736</ele>
        <time>2017-09-24T11:56:50.000Z</time>
      </trkpt>
      <trkpt lat="43.3668" lon="2.4392">
        <ele>736</ele>
        <time>2017-09-24T11:56:51.000Z</time>
      </trkpt>
      <trkpt lat="43.3668" lon="2.43918">
        <ele>736</ele>
        <time>2017-09-24T11:56:52.000Z</time>
      </trkpt>
      <trkpt lat="43.36679" lon="2.43917">
        <ele>736</ele>
        <time>2017-09-24T11:56:53.000Z</time>
      </trkpt>
      <trkpt lat="43.36679" lon="2.43915">
        <ele>736</ele>
        <time>2017-09-24T11:56:54.000Z</time>
      </trkpt>
      <trkpt lat="43.36679" lon="2.43913">
        <ele>736</ele>
        <time>2017-09-24T11:56:55.000Z</time>
      </trkpt>
      <trkpt lat="43.36679" lon="2.43911">
        <ele>736</ele>
        <time>2017-09-24T11:56:56.000Z</time>
      </trkpt>
      <trkpt lat="43.36679" lon="2.43909">
        <ele>736</ele>
        <time>2017-09-24T11:56:57.000Z</time>
      </trkpt>
      <trkpt lat="43.36679" lon="2.43907">
        <ele>736</ele>
        <time>2017-09-24T11:56:58.000Z</time>
      </trkpt>
      <trkpt lat="43.36679" lon="2.43905">
        <ele>736</ele>
        <time>2017-09-24T11:56:59.000Z</time>
      </trkpt>
      <trkpt lat="43.36679" lon="2.43903">
        <ele>736</ele>
        <time>2017-09-24T11:57:00.000Z</time>
      </trkpt>
      <trkpt lat="43.36679" lon="2.43902">
        <ele>736</ele>
        <time>2017-09-24T11:57:01.000Z</time>
      </trkpt>
      <trkpt lat="43.36679" lon="2.439">
        <ele>736</ele>
        <time>2017-09-24T11:57:02.000Z</time>
      </trkpt>
      <trkpt lat="43.36679" lon="2.43898">
        <ele>736</ele>
        <time>2017-09-24T11:57:03.000Z</time>
      </trkpt>
      <trkpt lat="43.36679" lon="2.43897">
        <ele>736</ele>
        <time>2017-09-24T11:57:04.000Z</time>
      </trkpt>
      <trkpt lat="43.36679" lon="2.43895">
        <ele>736</ele>
        <time>2017-09-24T11:57:05.000Z</time>
      </trkpt>
      <trkpt lat="43.36679" lon="2.43893">
        <ele>736</ele>
        <time>2017-09-24T11:57:06.000Z</time>
      </trkpt>
      <trkpt lat="43.36679" lon="2.43891">
        <ele>736</ele>
        <time>2017-09-24T11:57:07.000Z</time>
      </trkpt>
      <trkpt lat="43.36679" lon="2.43889">
        <ele>736</ele>
        <time>2017-09-24T11:57:08.000Z</time>
      </trkpt>
      <trkpt lat="43.36679" lon="2.43887">
        <ele>736</ele>
        <time>2017-09-24T11:57:09.000Z</time>
      </trkpt>
      <trkpt lat="43.36679" lon="2.43885">
        <ele>736</ele>
        <time>2017-09-24T11:57:10.000Z</time>
      </trkpt>
      <trkpt lat="43.3668" lon="2.43883">
        <ele>736</ele>
        <time>2017-09-24T11:57:11.000Z</time>
      </trkpt>
      <trkpt lat="43.3668" lon="2.43881">
        <ele>736</ele>
        <time>2017-09-24T11:57:12.000Z</time>
      </trkpt>
      <trkpt lat="43.3668" lon="2.43879">
        <ele>736</ele>
        <time>2017-09-24T11:57:13.000Z</time>
      </trkpt>
      <trkpt lat="43.3668" lon="2.43877">
        <ele>736</ele>
        <time>2017-09-24T11:57:14.000Z</time>
      </trkpt>
      <trkpt lat="43.36681" lon="2.43875">
        <ele>736</ele>
        <time>2017-09-24T11:57:15.000Z</time>
      </trkpt>
      <trkpt lat="43.36681" lon="2.43873">
        <ele>736</ele>
        <time>2017-09-24T11:57:16.000Z</time>
      </trkpt>
      <trkpt lat="43.36681" lon="2.43872">
        <ele>735</ele>
        <time>2017-09-24T11:57:17.000Z</time>
      </trkpt>
      <trkpt lat="43.36682" lon="2.4387">
        <ele>735</ele>
        <time>2017-09-24T11:57:18.000Z</time>
      </trkpt>
      <trkpt lat="43.36682" lon="2.43868">
        <ele>735</ele>
        <time>2017-09-24T11:57:19.000Z</time>
      </trkpt>
      <trkpt lat="43.36682" lon="2.43866">
        <ele>735</ele>
        <time>2017-09-24T11:57:20.000Z</time>
      </trkpt>
      <trkpt lat="43.36683" lon="2.43864">
        <ele>735</ele>
        <time>2017-09-24T11:57:21.000Z</time>
      </trkpt>
      <trkpt lat="43.36683" lon="2.43863">
        <ele>735</ele>
        <time>2017-09-24T11:57:22.000Z</time>
      </trkpt>
      <trkpt lat="43.36683" lon="2.43861">
        <ele>735</ele>
        <time>2017-09-24T11:57:23.000Z</time>
      </trkpt>
      <trkpt lat="43.36683" lon="2.43859">
        <ele>735</ele>
        <time>2017-09-24T11:57:24.000Z</time>
      </trkpt>
      <trkpt lat="43.36682" lon="2.43857">
        <ele>735</ele>
        <time>2017-09-24T11:57:25.000Z</time>
      </trkpt>
      <trkpt lat="43.36682" lon="2.43855">
        <ele>735</ele>
        <time>2017-09-24T11:57:26.000Z</time>
      </trkpt>
      <trkpt lat="43.36681" lon="2.43853">
        <ele>735</ele>
        <time>2017-09-24T11:57:27.000Z</time>
      </trkpt>
      <trkpt lat="43.36681" lon="2.43851">
        <ele>735</ele>
        <time>2017-09-24T11:57:28.000Z</time>
      </trkpt>
      <trkpt lat="43.36681" lon="2.43849">
        <ele>735</ele>
        <time>2017-09-24T11:57:29.000Z</time>
      </trkpt>
      <trkpt lat="43.36681" lon="2.43847">
        <ele>735</ele>
        <time>2017-09-24T11:57:30.000Z</time>
      </trkpt>
      <trkpt lat="43.36681" lon="2.43845">
        <ele>735</ele>
        <time>2017-09-24T11:57:31.000Z</time>
      </trkpt>
      <trkpt lat="43.36681" lon="2.43843">
        <ele>735</ele>
        <time>2017-09-24T11:57:32.000Z</time>
      </trkpt>
      <trkpt lat="43.36681" lon="2.43841">
        <ele>735</ele>
        <time>2017-09-24T11:57:33.000Z</time>
      </trkpt>
      <trkpt lat="43.36681" lon="2.43839">
        <ele>735</ele>
        <time>2017-09-24T11:57:34.000Z</time>
      </trkpt>
      <trkpt lat="43.36681" lon="2.43837">
        <ele>735</ele>
        <time>2017-09-24T11:57:35.000Z</time>
      </trkpt>
      <trkpt lat="43.36681" lon="2.43835">
        <ele>735</ele>
        <time>2017-09-24T11:57:36.000Z</time>
      </trkpt>
      <trkpt lat="43.3668" lon="2.43834">
        <ele>735</ele>
        <time>2017-09-24T11:57:37.000Z</time>
      </trkpt>
      <trkpt lat="43.3668" lon="2.43832">
        <ele>735</ele>
        <time>2017-09-24T11:57:38.000Z</time>
      </trkpt>
      <trkpt lat="43.36681" lon="2.4383">
        <ele>735</ele>
        <time>2017-09-24T11:57:39.000Z</time>
      </trkpt>
      <trkpt lat="43.36681" lon="2.43828">
        <ele>735</ele>
        <time>2017-09-24T11:57:40.000Z</time>
      </trkpt>
      <trkpt lat="43.36681" lon="2.43826">
        <ele>735</ele>
        <time>2017-09-24T11:57:41.000Z</time>
      </trkpt>
      <trkpt lat="43.36681" lon="2.43825">
        <ele>735</ele>
        <time>2017-09-24T11:57:42.000Z</time>
      </trkpt>
      <trkpt lat="43.36681" lon="2.43823">
        <ele>735</ele>
        <time>2017-09-24T11:57:43.000Z</time>
      </trkpt>
      <trkpt lat="43.36682" lon="2.43822">
        <ele>735</ele>
        <time>2017-09-24T11:57:44.000Z</time>
      </trkpt>
      <trkpt lat="43.36682" lon="2.4382">
        <ele>735</ele>
        <time>2017-09-24T11:57:45.000Z</time>
      </trkpt>
      <trkpt lat="43.36682" lon="2.43818">
        <ele>734</ele>
        <time>2017-09-24T11:57:46.000Z</time>
      </trkpt>
      <trkpt lat="43.36682" lon="2.43817">
        <ele>735</ele>
        <time>2017-09-24T11:57:47.000Z</time>
      </trkpt>
      <trkpt lat="43.36682" lon="2.43815">
        <ele>734</ele>
        <time>2017-09-24T11:57:48.000Z</time>
      </trkpt>
      <trkpt lat="43.36682" lon="2.43813">
        <ele>734</ele>
        <time>2017-09-24T11:57:49.000Z</time>
      </trkpt>
      <trkpt lat="43.36683" lon="2.43812">
        <ele>734</ele>
        <time>2017-09-24T11:57:50.000Z</time>
      </trkpt>
      <trkpt lat="43.36682" lon="2.4381">
        <ele>734</ele>
        <time>2017-09-24T11:57:51.000Z</time>
      </trkpt>
      <trkpt lat="43.36682" lon="2.43808">
        <ele>734</ele>
        <time>2017-09-24T11:57:52.000Z</time>
      </trkpt>
      <trkpt lat="43.36683" lon="2.43806">
        <ele>734</ele>
        <time>2017-09-24T11:57:53.000Z</time>
      </trkpt>
      <trkpt lat="43.36683" lon="2.43805">
        <ele>734</ele>
        <time>2017-09-24T11:57:54.000Z</time>
      </trkpt>
      <trkpt lat="43.36683" lon="2.43803">
        <ele>734</ele>
        <time>2017-09-24T11:57:55.000Z</time>
      </trkpt>
      <trkpt lat="43.36683" lon="2.43801">
        <ele>734</ele>
        <time>2017-09-24T11:57:56.000Z</time>
      </trkpt>
      <trkpt lat="43.36683" lon="2.43799">
        <ele>734</ele>
        <time>2017-09-24T11:57:57.000Z</time>
      </trkpt>
      <trkpt lat="43.36682" lon="2.43798">
        <ele>734</ele>
        <time>2017-09-24T11:57:58.000Z</time>
      </trkpt>
      <trkpt lat="43.36682" lon="2.43796">
        <ele>734</ele>
        <time>2017-09-24T11:57:59.000Z</time>
      </trkpt>
      <trkpt lat="43.36682" lon="2.43794">
        <ele>734</ele>
        <time>2017-09-24T11:58:00.000Z</time>
      </trkpt>
      <trkpt lat="43.36682" lon="2.43793">
        <ele>734</ele>
        <time>2017-09-24T11:58:01.000Z</time>
      </trkpt>
      <trkpt lat="43.36682" lon="2.43791">
        <ele>734</ele>
        <time>2017-09-24T11:58:02.000Z</time>
      </trkpt>
      <trkpt lat="43.36681" lon="2.43789">
        <ele>734</ele>
        <time>2017-09-24T11:58:03.000Z</time>
      </trkpt>
      <trkpt lat="43.36681" lon="2.43787">
        <ele>735</ele>
        <time>2017-09-24T11:58:04.000Z</time>
      </trkpt>
      <trkpt lat="43.36681" lon="2.43786">
        <ele>734</ele>
        <time>2017-09-24T11:58:05.000Z</time>
      </trkpt>
      <trkpt lat="43.36681" lon="2.43784">
        <ele>734</ele>
        <time>2017-09-24T11:58:06.000Z</time>
      </trkpt>
      <trkpt lat="43.3668" lon="2.43782">
        <ele>734</ele>
        <time>2017-09-24T11:58:07.000Z</time>
      </trkpt>
      <trkpt lat="43.3668" lon="2.4378">
        <ele>735</ele>
        <time>2017-09-24T11:58:08.000Z</time>
      </trkpt>
      <trkpt lat="43.36679" lon="2.43778">
        <ele>735</ele>
        <time>2017-09-24T11:58:09.000Z</time>
      </trkpt>
      <trkpt lat="43.36679" lon="2.43777">
        <ele>735</ele>
        <time>2017-09-24T11:58:10.000Z</time>
      </trkpt>
      <trkpt lat="43.36679" lon="2.43775">
        <ele>735</ele>
        <time>2017-09-24T11:58:11.000Z</time>
      </trkpt>
      <trkpt lat="43.36678" lon="2.43773">
        <ele>735</ele>
        <time>2017-09-24T11:58:12.000Z</time>
      </trkpt>
      <trkpt lat="43.36677" lon="2.43771">
        <ele>735</ele>
        <time>2017-09-24T11:58:13.000Z</time>
      </trkpt>
      <trkpt lat="43.36677" lon="2.4377">
        <ele>735</ele>
        <time>2017-09-24T11:58:14.000Z</time>
      </trkpt>
      <trkpt lat="43.36676" lon="2.43768">
        <ele>735</ele>
        <time>2017-09-24T11:58:15.000Z</time>
      </trkpt>
      <trkpt lat="43.36676" lon="2.43767">
        <ele>735</ele>
        <time>2017-09-24T11:58:16.000Z</time>
      </trkpt>
      <trkpt lat="43.36676" lon="2.43765">
        <ele>735</ele>
        <time>2017-09-24T11:58:17.000Z</time>
      </trkpt>
      <trkpt lat="43.36676" lon="2.43764">
        <ele>735</ele>
        <time>2017-09-24T11:58:18.000Z</time>
      </trkpt>
      <trkpt lat="43.36675" lon="2.43763">
        <ele>735</ele>
        <time>2017-09-24T11:58:19.000Z</time>
      </trkpt>
      <trkpt lat="43.36675" lon="2.43761">
        <ele>735</ele>
        <time>2017-09-24T11:58:20.000Z</time>
      </trkpt>
      <trkpt lat="43.36674" lon="2.43759">
        <ele>735</ele>
        <time>2017-09-24T11:58:21.000Z</time>
      </trkpt>
      <trkpt lat="43.36674" lon="2.43758">
        <ele>735</ele>
        <time>2017-09-24T11:58:22.000Z</time>
      </trkpt>
      <trkpt lat="43.36673" lon="2.43756">
        <ele>735</ele>
        <time>2017-09-24T11:58:23.000Z</time>
      </trkpt>
      <trkpt lat="43.36673" lon="2.43755">
        <ele>735</ele>
        <time>2017-09-24T11:58:24.000Z</time>
      </trkpt>
      <trkpt lat="43.36672" lon="2.43753">
        <ele>735</ele>
        <time>2017-09-24T11:58:25.000Z</time>
      </trkpt>
      <trkpt lat="43.36672" lon="2.43752">
        <ele>735</ele>
        <time>2017-09-24T11:58:26.000Z</time>
      </trkpt>
      <trkpt lat="43.36671" lon="2.4375">
        <ele>735</ele>
        <time>2017-09-24T11:58:27.000Z</time>
      </trkpt>
      <trkpt lat="43.36671" lon="2.43748">
        <ele>735</ele>
        <time>2017-09-24T11:58:28.000Z</time>
      </trkpt>
      <trkpt lat="43.3667" lon="2.43747">
        <ele>735</ele>
        <time>2017-09-24T11:58:29.000Z</time>
      </trkpt>
      <trkpt lat="43.36669" lon="2.43745">
        <ele>735</ele>
        <time>2017-09-24T11:58:30.000Z</time>
      </trkpt>
      <trkpt lat="43.36669" lon="2.43744">
        <ele>735</ele>
        <time>2017-09-24T11:58:31.000Z</time>
      </trkpt>
      <trkpt lat="43.36668" lon="2.43743">
        <ele>735</ele>
        <time>2017-09-24T11:58:32.000Z</time>
      </trkpt>
      <trkpt lat="43.36667" lon="2.43741">
        <ele>735</ele>
        <time>2017-09-24T11:58:33.000Z</time>
      </trkpt>
      <trkpt lat="43.36667" lon="2.43739">
        <ele>735</ele>
        <time>2017-09-24T11:58:34.000Z</time>
      </trkpt>
      <trkpt lat="43.36666" lon="2.43738">
        <ele>735</ele>
        <time>2017-09-24T11:58:35.000Z</time>
      </trkpt>
      <trkpt lat="43.36665" lon="2.43737">
        <ele>735</ele>
        <time>2017-09-24T11:58:36.000Z</time>
      </trkpt>
      <trkpt lat="43.36665" lon="2.43736">
        <ele>735</ele>
        <time>2017-09-24T11:58:37.000Z</time>
      </trkpt>
      <trkpt lat="43.36664" lon="2.43734">
        <ele>735</ele>
        <time>2017-09-24T11:58:38.000Z</time>
      </trkpt>
      <trkpt lat="43.36663" lon="2.43733">
        <ele>735</ele>
        <time>2017-09-24T11:58:39.000Z</time>
      </trkpt>
      <trkpt lat="43.36662" lon="2.43731">
        <ele>735</ele>
        <time>2017-09-24T11:58:40.000Z</time>
      </trkpt>
      <trkpt lat="43.36661" lon="2.4373">
        <ele>735</ele>
        <time>2017-09-24T11:58:41.000Z</time>
      </trkpt>
      <trkpt lat="43.36661" lon="2.43728">
        <ele>735</ele>
        <time>2017-09-24T11:58:42.000Z</time>
      </trkpt>
      <trkpt lat="43.3666" lon="2.43727">
        <ele>735</ele>
        <time>2017-09-24T11:58:43.000Z</time>
      </trkpt>
      <trkpt lat="43.36659" lon="2.43725">
        <ele>736</ele>
        <time>2017-09-24T11:58:44.000Z</time>
      </trkpt>
      <trkpt lat="43.36659" lon="2.43724">
        <ele>736</ele>
        <time>2017-09-24T11:58:45.000Z</time>
      </trkpt>
      <trkpt lat="43.36658" lon="2.43723">
        <ele>736</ele>
        <time>2017-09-24T11:58:46.000Z</time>
      </trkpt>
      <trkpt lat="43.36658" lon="2.43721">
        <ele>736</ele>
        <time>2017-09-24T11:58:47.000Z</time>
      </trkpt>
      <trkpt lat="43.36657" lon="2.4372">
        <ele>736</ele>
        <time>2017-09-24T11:58:48.000Z</time>
      </trkpt>
      <trkpt lat="43.36657" lon="2.43718">
        <ele>736</ele>
        <time>2017-09-24T11:58:49.000Z</time>
      </trkpt>
      <trkpt lat="43.36656" lon="2.43717">
        <ele>736</ele>
        <time>2017-09-24T11:58:50.000Z</time>
      </trkpt>
      <trkpt lat="43.36655" lon="2.43715">
        <ele>736</ele>
        <time>2017-09-24T11:58:51.000Z</time>
      </trkpt>
      <trkpt lat="43.36654" lon="2.43714">
        <ele>736</ele>
        <time>2017-09-24T11:58:52.000Z</time>
      </trkpt>
      <trkpt lat="43.36654" lon="2.43712">
        <ele>736</ele>
        <time>2017-09-24T11:58:53.000Z</time>
      </trkpt>
      <trkpt lat="43.36653" lon="2.43711">
        <ele>736</ele>
        <time>2017-09-24T11:58:54.000Z</time>
      </trkpt>
      <trkpt lat="43.36652" lon="2.4371">
        <ele>736</ele>
        <time>2017-09-24T11:58:55.000Z</time>
      </trkpt>
      <trkpt lat="43.36652" lon="2.43708">
        <ele>736</ele>
        <time>2017-09-24T11:58:56.000Z</time>
      </trkpt>
      <trkpt lat="43.36651" lon="2.43707">
        <ele>736</ele>
        <time>2017-09-24T11:58:57.000Z</time>
      </trkpt>
      <trkpt lat="43.36651" lon="2.43706">
        <ele>736</ele>
        <time>2017-09-24T11:58:58.000Z</time>
      </trkpt>
      <trkpt lat="43.3665" lon="2.43705">
        <ele>736</ele>
        <time>2017-09-24T11:58:59.000Z</time>
      </trkpt>
      <trkpt lat="43.36649" lon="2.43703">
        <ele>736</ele>
        <time>2017-09-24T11:59:00.000Z</time>
      </trkpt>
      <trkpt lat="43.36649" lon="2.43702">
        <ele>736</ele>
        <time>2017-09-24T11:59:01.000Z</time>
      </trkpt>
      <trkpt lat="43.36648" lon="2.43701">
        <ele>736</ele>
        <time>2017-09-24T11:59:02.000Z</time>
      </trkpt>
      <trkpt lat="43.36648" lon="2.43699">
        <ele>736</ele>
        <time>2017-09-24T11:59:03.000Z</time>
      </trkpt>
      <trkpt lat="43.36647" lon="2.43698">
        <ele>736</ele>
        <time>2017-09-24T11:59:04.000Z</time>
      </trkpt>
      <trkpt lat="43.36647" lon="2.43697">
        <ele>736</ele>
        <time>2017-09-24T11:59:05.000Z</time>
      </trkpt>
      <trkpt lat="43.36646" lon="2.43695">
        <ele>736</ele>
        <time>2017-09-24T11:59:06.000Z</time>
      </trkpt>
      <trkpt lat="43.36645" lon="2.43694">
        <ele>736</ele>
        <time>2017-09-24T11:59:07.000Z</time>
      </trkpt>
      <trkpt lat="43.36644" lon="2.43693">
        <ele>736</ele>
        <time>2017-09-24T11:59:08.000Z</time>
      </trkpt>
      <trkpt lat="43.36643" lon="2.43691">
        <ele>736</ele>
        <time>2017-09-24T11:59:09.000Z</time>
      </trkpt>
      <trkpt lat="43.36643" lon="2.4369">
        <ele>736</ele>
        <time>2017-09-24T11:59:10.000Z</time>
      </trkpt>
      <trkpt lat="43.36642" lon="2.43688">
        <ele>736</ele>
        <time>2017-09-24T11:59:11.000Z</time>
      </trkpt>
      <trkpt lat="43.36642" lon="2.43687">
        <ele>736</ele>
        <time>2017-09-24T11:59:12.000Z</time>
      </trkpt>
      <trkpt lat="43.36641" lon="2.43686">
        <ele>736</ele>
        <time>2017-09-24T11:59:13.000Z</time>
      </trkpt>
      <trkpt lat="43.3664" lon="2.43684">
        <ele>736</ele>
        <time>2017-09-24T11:59:14.000Z</time>
      </trkpt>
      <trkpt lat="43.3664" lon="2.43683">
        <ele>736</ele>
        <time>2017-09-24T11:59:15.000Z</time>
      </trkpt>
      <trkpt lat="43.36639" lon="2.43682">
        <ele>736</ele>
        <time>2017-09-24T11:59:16.000Z</time>
      </trkpt>
      <trkpt lat="43.36638" lon="2.4368">
        <ele>736</ele>
        <time>2017-09-24T11:59:17.000Z</time>
      </trkpt>
      <trkpt lat="43.36638" lon="2.43678">
        <ele>736</ele>
        <time>2017-09-24T11:59:18.000Z</time>
      </trkpt>
      <trkpt lat="43.36637" lon="2.43677">
        <ele>736</ele>
        <time>2017-09-24T11:59:19.000Z</time>
      </trkpt>
      <trkpt lat="43.36637" lon="2.43676">
        <ele>737</ele>
        <time>2017-09-24T11:59:20.000Z</time>
      </trkpt>
      <trkpt lat="43.36636" lon="2.43674">
        <ele>737</ele>
        <time>2017-09-24T11:59:21.000Z</time>
      </trkpt>
      <trkpt lat="43.36636" lon="2.43673">
        <ele>737</ele>
        <time>2017-09-24T11:59:22.000Z</time>
      </trkpt>
      <trkpt lat="43.36635" lon="2.43671">
        <ele>737</ele>
        <time>2017-09-24T11:59:23.000Z</time>
      </trkpt>
      <trkpt lat="43.36635" lon="2.43669">
        <ele>737</ele>
        <time>2017-09-24T11:59:24.000Z</time>
      </trkpt>
      <trkpt lat="43.36634" lon="2.43668">
        <ele>737</ele>
        <time>2017-09-24T11:59:25.000Z</time>
      </trkpt>
      <trkpt lat="43.36634" lon="2.43666">
        <ele>737</ele>
        <time>2017-09-24T11:59:26.000Z</time>
      </trkpt>
      <trkpt lat="43.36634" lon="2.43664">
        <ele>737</ele>
        <time>2017-09-24T11:59:27.000Z</time>
      </trkpt>
      <trkpt lat="43.36633" lon="2.43663">
        <ele>737</ele>
        <time>2017-09-24T11:59:28.000Z</time>
      </trkpt>
      <trkpt lat="43.36633" lon="2.43661">
        <ele>737</ele>
        <time>2017-09-24T11:59:29.000Z</time>
      </trkpt>
      <trkpt lat="43.36632" lon="2.4366">
        <ele>737</ele>
        <time>2017-09-24T11:59:30.000Z</time>
      </trkpt>
      <trkpt lat="43.36632" lon="2.43659">
        <ele>737</ele>
        <time>2017-09-24T11:59:31.000Z</time>
      </trkpt>
      <trkpt lat="43.36631" lon="2.43657">
        <ele>737</ele>
        <time>2017-09-24T11:59:32.000Z</time>
      </trkpt>
      <trkpt lat="43.36631" lon="2.43655">
        <ele>737</ele>
        <time>2017-09-24T11:59:33.000Z</time>
      </trkpt>
      <trkpt lat="43.3663" lon="2.43654">
        <ele>737</ele>
        <time>2017-09-24T11:59:34.000Z</time>
      </trkpt>
      <trkpt lat="43.3663" lon="2.43653">
        <ele>737</ele>
        <time>2017-09-24T11:59:35.000Z</time>
      </trkpt>
      <trkpt lat="43.36629" lon="2.43651">
        <ele>737</ele>
        <time>2017-09-24T11:59:36.000Z</time>
      </trkpt>
      <trkpt lat="43.36628" lon="2.4365">
        <ele>737</ele>
        <time>2017-09-24T11:59:37.000Z</time>
      </trkpt>
      <trkpt lat="43.36628" lon="2.43649">
        <ele>737</ele>
        <time>2017-09-24T11:59:38.000Z</time>
      </trkpt>
      <trkpt lat="43.36627" lon="2.43647">
        <ele>737</ele>
        <time>2017-09-24T11:59:39.000Z</time>
      </trkpt>
      <trkpt lat="43.36626" lon="2.43646">
        <ele>737</ele>
        <time>2017-09-24T11:59:40.000Z</time>
      </trkpt>
      <trkpt lat="43.36626" lon="2.43644">
        <ele>737</ele>
        <time>2017-09-24T11:59:41.000Z</time>
      </trkpt>
      <trkpt lat="43.36625" lon="2.43643">
        <ele>737</ele>
        <time>2017-09-24T11:59:42.000Z</time>
      </trkpt>
      <trkpt lat="43.36624" lon="2.43642">
        <ele>737</ele>
        <time>2017-09-24T11:59:43.000Z</time>
      </trkpt>
      <trkpt lat="43.36623" lon="2.43641">
        <ele>737</ele>
        <time>2017-09-24T11:59:44.000Z</time>
      </trkpt>
      <trkpt lat="43.36622" lon="2.43639">
        <ele>737</ele>
        <time>2017-09-24T11:59:45.000Z</time>
      </trkpt>
      <trkpt lat="43.36621" lon="2.43638">
        <ele>737</ele>
        <time>2017-09-24T11:59:46.000Z</time>
      </trkpt>
      <trkpt lat="43.3662" lon="2.43637">
        <ele>738</ele>
        <time>2017-09-24T11:59:47.000Z</time>
      </trkpt>
      <trkpt lat="43.36619" lon="2.43635">
        <ele>738</ele>
        <time>2017-09-24T11:59:48.000Z</time>
      </trkpt>
      <trkpt lat="43.36618" lon="2.43634">
        <ele>738</ele>
        <time>2017-09-24T11:59:49.000Z</time>
      </trkpt>
      <trkpt lat="43.36617" lon="2.43633">
        <ele>738</ele>
        <time>2017-09-24T11:59:50.000Z</time>
      </trkpt>
      <trkpt lat="43.36616" lon="2.43632">
        <ele>738</ele>
        <time>2017-09-24T11:59:51.000Z</time>
      </trkpt>
      <trkpt lat="43.36615" lon="2.43631">
        <ele>738</ele>
        <time>2017-09-24T11:59:52.000Z</time>
      </trkpt>
      <trkpt lat="43.36614" lon="2.4363">
        <ele>738</ele>
        <time>2017-09-24T11:59:53.000Z</time>
      </trkpt>
      <trkpt lat="43.36613" lon="2.43629">
        <ele>738</ele>
        <time>2017-09-24T11:59:54.000Z</time>
      </trkpt>
      <trkpt lat="43.36612" lon="2.43628">
        <ele>738</ele>
        <time>2017-09-24T11:59:55.000Z</time>
      </trkpt>
      <trkpt lat="43.36611" lon="2.43627">
        <ele>738</ele>
        <time>2017-09-24T11:59:56.000Z</time>
      </trkpt>
      <trkpt lat="43.3661" lon="2.43626">
        <ele>738</ele>
        <time>2017-09-24T11:59:57.000Z</time>
      </trkpt>
      <trkpt lat="43.36609" lon="2.43625">
        <ele>738</ele>
        <time>2017-09-24T11:59:58.000Z</time>
      </trkpt>
      <trkpt lat="43.36608" lon="2.43624">
        <ele>739</ele>
        <time>2017-09-24T11:59:59.000Z</time>
      </trkpt>
      <trkpt lat="43.36607" lon="2.43624">
        <ele>739</ele>
        <time>2017-09-24T12:00:00.000Z</time>
      </trkpt>
      <trkpt lat="43.36606" lon="2.43623">
        <ele>739</ele>
        <time>2017-09-24T12:00:01.000Z</time>
      </trkpt>
      <trkpt lat="43.36605" lon="2.43622">
        <ele>739</ele>
        <time>2017-09-24T12:00:02.000Z</time>
      </trkpt>
      <trkpt lat="43.36603" lon="2.43621">
        <ele>739</ele>
        <time>2017-09-24T12:00:03.000Z</time>
      </trkpt>
      <trkpt lat="43.36602" lon="2.4362">
        <ele>739</ele>
        <time>2017-09-24T12:00:04.000Z</time>
      </trkpt>
      <trkpt lat="43.36601" lon="2.4362">
        <ele>739</ele>
        <time>2017-09-24T12:00:05.000Z</time>
      </trkpt>
      <trkpt lat="43.366" lon="2.43619">
        <ele>739</ele>
        <time>2017-09-24T12:00:06.000Z</time>
      </trkpt>
      <trkpt lat="43.36599" lon="2.43618">
        <ele>739</ele>
        <time>2017-09-24T12:00:07.000Z</time>
      </trkpt>
      <trkpt lat="43.36598" lon="2.43617">
        <ele>739</ele>
        <time>2017-09-24T12:00:08.000Z</time>
      </trkpt>
      <trkpt lat="43.36597" lon="2.43616">
        <ele>739</ele>
        <time>2017-09-24T12:00:09.000Z</time>
      </trkpt>
      <trkpt lat="43.36596" lon="2.43616">
        <ele>739</ele>
        <time>2017-09-24T12:00:10.000Z</time>
      </trkpt>
      <trkpt lat="43.36595" lon="2.43615">
        <ele>739</ele>
        <time>2017-09-24T12:00:11.000Z</time>
      </trkpt>
      <trkpt lat="43.36594" lon="2.43614">
        <ele>739</ele>
        <time>2017-09-24T12:00:12.000Z</time>
      </trkpt>
      <trkpt lat="43.36592" lon="2.43614">
        <ele>739</ele>
        <time>2017-09-24T12:00:13.000Z</time>
      </trkpt>
      <trkpt lat="43.36591" lon="2.43613">
        <ele>739</ele>
        <time>2017-09-24T12:00:14.000Z</time>
      </trkpt>
      <trkpt lat="43.3659" lon="2.43612">
        <ele>739</ele>
        <time>2017-09-24T12:00:15.000Z</time>
      </trkpt>
      <trkpt lat="43.36589" lon="2.43611">
        <ele>739</ele>
        <time>2017-09-24T12:00:16.000Z</time>
      </trkpt>
      <trkpt lat="43.36588" lon="2.4361">
        <ele>739</ele>
        <time>2017-09-24T12:00:17.000Z</time>
      </trkpt>
      <trkpt lat="43.36587" lon="2.4361">
        <ele>738</ele>
        <time>2017-09-24T12:00:18.000Z</time>
      </trkpt>
      <trkpt lat="43.36586" lon="2.43609">
        <ele>738</ele>
        <time>2017-09-24T12:00:19.000Z</time>
      </trkpt>
      <trkpt lat="43.36585" lon="2.43608">
        <ele>738</ele>
        <time>2017-09-24T12:00:20.000Z</time>
      </trkpt>
      <trkpt lat="43.36584" lon="2.43607">
        <ele>738</ele>
        <time>2017-09-24T12:00:21.000Z</time>
      </trkpt>
      <trkpt lat="43.36582" lon="2.43607">
        <ele>738</ele>
        <time>2017-09-24T12:00:22.000Z</time>
      </trkpt>
      <trkpt lat="43.36581" lon="2.43606">
        <ele>738</ele>
        <time>2017-09-24T12:00:23.000Z</time>
      </trkpt>
      <trkpt lat="43.3658" lon="2.43605">
        <ele>738</ele>
        <time>2017-09-24T12:00:24.000Z</time>
      </trkpt>
      <trkpt lat="43.36579" lon="2.43605">
        <ele>738</ele>
        <time>2017-09-24T12:00:25.000Z</time>
      </trkpt>
      <trkpt lat="43.36578" lon="2.43604">
        <ele>738</ele>
        <time>2017-09-24T12:00:26.000Z</time>
      </trkpt>
      <trkpt lat="43.36577" lon="2.43603">
        <ele>737</ele>
        <time>2017-09-24T12:00:27.000Z</time>
      </trkpt>
      <trkpt lat="43.36576" lon="2.43602">
        <ele>737</ele>
        <time>2017-09-24T12:00:28.000Z</time>
      </trkpt>
      <trkpt lat="43.36575" lon="2.43601">
        <ele>737</ele>
        <time>2017-09-24T12:00:29.000Z</time>
      </trkpt>
      <trkpt lat="43.36573" lon="2.43601">
        <ele>737</ele>
        <time>2017-09-24T12:00:30.000Z</time>
      </trkpt>
      <trkpt lat="43.36573" lon="2.436">
        <ele>737</ele>
        <time>2017-09-24T12:00:31.000Z</time>
      </trkpt>
      <trkpt lat="43.36571" lon="2.43599">
        <ele>737</ele>
        <time>2017-09-24T12:00:32.000Z</time>
      </trkpt>
      <trkpt lat="43.3657" lon="2.43598">
        <ele>737</ele>
        <time>2017-09-24T12:00:33.000Z</time>
      </trkpt>
      <trkpt lat="43.36569" lon="2.43597">
        <ele>737</ele>
        <time>2017-09-24T12:00:34.000Z</time>
      </trkpt>
      <trkpt lat="43.36568" lon="2.43596">
        <ele>737</ele>
        <time>2017-09-24T12:00:35.000Z</time>
      </trkpt>
      <trkpt lat="43.36567" lon="2.43595">
        <ele>737</ele>
        <time>2017-09-24T12:00:36.000Z</time>
      </trkpt>
      <trkpt lat="43.36566" lon="2.43594">
        <ele>736</ele>
        <time>2017-09-24T12:00:37.000Z</time>
      </trkpt>
      <trkpt lat="43.36565" lon="2.43593">
        <ele>736</ele>
        <time>2017-09-24T12:00:38.000Z</time>
      </trkpt>
      <trkpt lat="43.36564" lon="2.43592">
        <ele>736</ele>
        <time>2017-09-24T12:00:39.000Z</time>
      </trkpt>
      <trkpt lat="43.36563" lon="2.4359">
        <ele>736</ele>
        <time>2017-09-24T12:00:40.000Z</time>
      </trkpt>
      <trkpt lat="43.36562" lon="2.43589">
        <ele>736</ele>
        <time>2017-09-24T12:00:41.000Z</time>
      </trkpt>
      <trkpt lat="43.36561" lon="2.43588">
        <ele>736</ele>
        <time>2017-09-24T12:00:42.000Z</time>
      </trkpt>
      <trkpt lat="43.3656" lon="2.43587">
        <ele>736</ele>
        <time>2017-09-24T12:00:43.000Z</time>
      </trkpt>
      <trkpt lat="43.36559" lon="2.43586">
        <ele>736</ele>
        <time>2017-09-24T12:00:44.000Z</time>
      </trkpt>
      <trkpt lat="43.36558" lon="2.43584">
        <ele>736</ele>
        <time>2017-09-24T12:00:45.000Z</time>
      </trkpt>
      <trkpt lat="43.36557" lon="2.43583">
        <ele>736</ele>
        <time>2017-09-24T12:00:46.000Z</time>
      </trkpt>
      <trkpt lat="43.36556" lon="2.43582">
        <ele>735</ele>
        <time>2017-09-24T12:00:47.000Z</time>
      </trkpt>
      <trkpt lat="43.36555" lon="2.43581">
        <ele>735</ele>
        <time>2017-09-24T12:00:48.000Z</time>
      </trkpt>
      <trkpt lat="43.36554" lon="2.4358">
        <ele>735</ele>
        <time>2017-09-24T12:00:49.000Z</time>
      </trkpt>
      <trkpt lat="43.36554" lon="2.43578">
        <ele>735</ele>
        <time>2017-09-24T12:00:50.000Z</time>
      </trkpt>
      <trkpt lat="43.36553" lon="2.43577">
        <ele>735</ele>
        <time>2017-09-24T12:00:51.000Z</time>
      </trkpt>
      <trkpt lat="43.36552" lon="2.43576">
        <ele>735</ele>
        <time>2017-09-24T12:00:52.000Z</time>
      </trkpt>
      <trkpt lat="43.36551" lon="2.43575">
        <ele>735</ele>
        <time>2017-09-24T12:00:53.000Z</time>
      </trkpt>
      <trkpt lat="43.3655" lon="2.43573">
        <ele>735</ele>
        <time>2017-09-24T12:00:54.000Z</time>
      </trkpt>
      <trkpt lat="43.36549" lon="2.43572">
        <ele>735</ele>
        <time>2017-09-24T12:00:55.000Z</time>
      </trkpt>
      <trkpt lat="43.36548" lon="2.4357">
        <ele>735</ele>
        <time>2017-09-24T12:00:56.000Z</time>
      </trkpt>
      <trkpt lat="43.36547" lon="2.43569">
        <ele>735</ele>
        <time>2017-09-24T12:00:57.000Z</time>
      </trkpt>
      <trkpt lat="43.36547" lon="2.43568">
        <ele>735</ele>
        <time>2017-09-24T12:00:58.000Z</time>
      </trkpt>
      <trkpt lat="43.36546" lon="2.43567">
        <ele>735</ele>
        <time>2017-09-24T12:00:59.000Z</time>
      </trkpt>
      <trkpt lat="43.36545" lon="2.43565">
        <ele>735</ele>
        <time>2017-09-24T12:01:00.000Z</time>
      </trkpt>
      <trkpt lat="43.36544" lon="2.43564">
        <ele>735</ele>
        <time>2017-09-24T12:01:01.000Z</time>
      </trkpt>
      <trkpt lat="43.36543" lon="2.43562">
        <ele>735</ele>
        <time>2017-09-24T12:01:02.000Z</time>
      </trkpt>
      <trkpt lat="43.36542" lon="2.43561">
        <ele>735</ele>
        <time>2017-09-24T12:01:03.000Z</time>
      </trkpt>
      <trkpt lat="43.36542" lon="2.43559">
        <ele>735</ele>
        <time>2017-09-24T12:01:04.000Z</time>
      </trkpt>
      <trkpt lat="43.36541" lon="2.43558">
        <ele>735</ele>
        <time>2017-09-24T12:01:05.000Z</time>
      </trkpt>
      <trkpt lat="43.3654" lon="2.43556">
        <ele>734</ele>
        <time>2017-09-24T12:01:06.000Z</time>
      </trkpt>
      <trkpt lat="43.36539" lon="2.43555">
        <ele>734</ele>
        <time>2017-09-24T12:01:07.000Z</time>
      </trkpt>
      <trkpt lat="43.36538" lon="2.43554">
        <ele>734</ele>
        <time>2017-09-24T12:01:08.000Z</time>
      </trkpt>
      <trkpt lat="43.36537" lon="2.43553">
        <ele>734</ele>
        <time>2017-09-24T12:01:09.000Z</time>
      </trkpt>
      <trkpt lat="43.36537" lon="2.43551">
        <ele>734</ele>
        <time>2017-09-24T12:01:10.000Z</time>
      </trkpt>
      <trkpt lat="43.36536" lon="2.4355">
        <ele>734</ele>
        <time>2017-09-24T12:01:11.000Z</time>
      </trkpt>
      <trkpt lat="43.36535" lon="2.43549">
        <ele>734</ele>
        <time>2017-09-24T12:01:12.000Z</time>
      </trkpt>
      <trkpt lat="43.36534" lon="2.43547">
        <ele>734</ele>
        <time>2017-09-24T12:01:13.000Z</time>
      </trkpt>
      <trkpt lat="43.36534" lon="2.43546">
        <ele>734</ele>
        <time>2017-09-24T12:01:14.000Z</time>
      </trkpt>
      <trkpt lat="43.36533" lon="2.43544">
        <ele>734</ele>
        <time>2017-09-24T12:01:15.000Z</time>
      </trkpt>
      <trkpt lat="43.36532" lon="2.43543">
        <ele>734</ele>
        <time>2017-09-24T12:01:16.000Z</time>
      </trkpt>
      <trkpt lat="43.36531" lon="2.43541">
        <ele>734</ele>
        <time>2017-09-24T12:01:17.000Z</time>
      </trkpt>
      <trkpt lat="43.36531" lon="2.4354">
        <ele>734</ele>
        <time>2017-09-24T12:01:18.000Z</time>
      </trkpt>
      <trkpt lat="43.3653" lon="2.43539">
        <ele>734</ele>
        <time>2017-09-24T12:01:19.000Z</time>
      </trkpt>
      <trkpt lat="43.36529" lon="2.43538">
        <ele>734</ele>
        <time>2017-09-24T12:01:20.000Z</time>
      </trkpt>
      <trkpt lat="43.36527" lon="2.43537">
        <ele>734</ele>
        <time>2017-09-24T12:01:21.000Z</time>
      </trkpt>
      <trkpt lat="43.36527" lon="2.43536">
        <ele>734</ele>
        <time>2017-09-24T12:01:22.000Z</time>
      </trkpt>
      <trkpt lat="43.36526" lon="2.43535">
        <ele>733</ele>
        <time>2017-09-24T12:01:23.000Z</time>
      </trkpt>
      <trkpt lat="43.36525" lon="2.43534">
        <ele>733</ele>
        <time>2017-09-24T12:01:24.000Z</time>
      </trkpt>
      <trkpt lat="43.36523" lon="2.43533">
        <ele>733</ele>
        <time>2017-09-24T12:01:25.000Z</time>
      </trkpt>
      <trkpt lat="43.36522" lon="2.43532">
        <ele>733</ele>
        <time>2017-09-24T12:01:26.000Z</time>
      </trkpt>
      <trkpt lat="43.36521" lon="2.43531">
        <ele>733</ele>
        <time>2017-09-24T12:01:27.000Z</time>
      </trkpt>
      <trkpt lat="43.3652" lon="2.43531">
        <ele>733</ele>
        <time>2017-09-24T12:01:28.000Z</time>
      </trkpt>
      <trkpt lat="43.36519" lon="2.43531">
        <ele>733</ele>
        <time>2017-09-24T12:01:29.000Z</time>
      </trkpt>
      <trkpt lat="43.36517" lon="2.4353">
        <ele>733</ele>
        <time>2017-09-24T12:01:30.000Z</time>
      </trkpt>
      <trkpt lat="43.36516" lon="2.4353">
        <ele>733</ele>
        <time>2017-09-24T12:01:31.000Z</time>
      </trkpt>
      <trkpt lat="43.36515" lon="2.43529">
        <ele>733</ele>
        <time>2017-09-24T12:01:32.000Z</time>
      </trkpt>
      <trkpt lat="43.36513" lon="2.43529">
        <ele>733</ele>
        <time>2017-09-24T12:01:33.000Z</time>
      </trkpt>
      <trkpt lat="43.36512" lon="2.43529">
        <ele>732</ele>
        <time>2017-09-24T12:01:34.000Z</time>
      </trkpt>
      <trkpt lat="43.36511" lon="2.43529">
        <ele>732</ele>
        <time>2017-09-24T12:01:35.000Z</time>
      </trkpt>
      <trkpt lat="43.3651" lon="2.43528">
        <ele>732</ele>
        <time>2017-09-24T12:01:36.000Z</time>
      </trkpt>
      <trkpt lat="43.36509" lon="2.43528">
        <ele>732</ele>
        <time>2017-09-24T12:01:37.000Z</time>
      </trkpt>
      <trkpt lat="43.36507" lon="2.43529">
        <ele>732</ele>
        <time>2017-09-24T12:01:38.000Z</time>
      </trkpt>
      <trkpt lat="43.36506" lon="2.43529">
        <ele>732</ele>
        <time>2017-09-24T12:01:39.000Z</time>
      </trkpt>
      <trkpt lat="43.36505" lon="2.4353">
        <ele>732</ele>
        <time>2017-09-24T12:01:40.000Z</time>
      </trkpt>
      <trkpt lat="43.36504" lon="2.43531">
        <ele>732</ele>
        <time>2017-09-24T12:01:41.000Z</time>
      </trkpt>
      <trkpt lat="43.36503" lon="2.43532">
        <ele>732</ele>
        <time>2017-09-24T12:01:42.000Z</time>
      </trkpt>
      <trkpt lat="43.36502" lon="2.43533">
        <ele>731</ele>
        <time>2017-09-24T12:01:43.000Z</time>
      </trkpt>
      <trkpt lat="43.36501" lon="2.43534">
        <ele>731</ele>
        <time>2017-09-24T12:01:44.000Z</time>
      </trkpt>
      <trkpt lat="43.365" lon="2.43536">
        <ele>731</ele>
        <time>2017-09-24T12:01:45.000Z</time>
      </trkpt>
      <trkpt lat="43.365" lon="2.43537">
        <ele>731</ele>
        <time>2017-09-24T12:01:46.000Z</time>
      </trkpt>
      <trkpt lat="43.36499" lon="2.43539">
        <ele>731</ele>
        <time>2017-09-24T12:01:47.000Z</time>
      </trkpt>
      <trkpt lat="43.36499" lon="2.4354">
        <ele>731</ele>
        <time>2017-09-24T12:01:48.000Z</time>
      </trkpt>
      <trkpt lat="43.36498" lon="2.43542">
        <ele>731</ele>
        <time>2017-09-24T12:01:49.000Z</time>
      </trkpt>
      <trkpt lat="43.36498" lon="2.43543">
        <ele>731</ele>
        <time>2017-09-24T12:01:50.000Z</time>
      </trkpt>
      <trkpt lat="43.36498" lon="2.43544">
        <ele>731</ele>
        <time>2017-09-24T12:01:51.000Z</time>
      </trkpt>
      <trkpt lat="43.36498" lon="2.43544">
        <ele>731</ele>
        <time>2017-09-24T12:01:52.000Z</time>
      </trkpt>
      <trkpt lat="43.36497" lon="2.43545">
        <ele>731</ele>
        <time>2017-09-24T12:01:53.000Z</time>
      </trkpt>
      <trkpt lat="43.36498" lon="2.43545">
        <ele>731</ele>
        <time>2017-09-24T12:01:54.000Z</time>
      </trkpt>
      <trkpt lat="43.36498" lon="2.43546">
        <ele>731</ele>
        <time>2017-09-24T12:01:55.000Z</time>
      </trkpt>
      <trkpt lat="43.36497" lon="2.43548">
        <ele>731</ele>
        <time>2017-09-24T12:01:56.000Z</time>
      </trkpt>
      <trkpt lat="43.36497" lon="2.4355">
        <ele>731</ele>
        <time>2017-09-24T12:01:57.000Z</time>
      </trkpt>
      <trkpt lat="43.36497" lon="2.43551">
        <ele>731</ele>
        <time>2017-09-24T12:01:58.000Z</time>
      </trkpt>
      <trkpt lat="43.36497" lon="2.43553">
        <ele>731</ele>
        <time>2017-09-24T12:01:59.000Z</time>
      </trkpt>
      <trkpt lat="43.36496" lon="2.43555">
        <ele>731</ele>
        <time>2017-09-24T12:02:00.000Z</time>
      </trkpt>
      <trkpt lat="43.36496" lon="2.43556">
        <ele>731</ele>
        <time>2017-09-24T12:02:01.000Z</time>
      </trkpt>
      <trkpt lat="43.36496" lon="2.43558">
        <ele>731</ele>
        <time>2017-09-24T12:02:02.000Z</time>
      </trkpt>
      <trkpt lat="43.36496" lon="2.43559">
        <ele>730</ele>
        <time>2017-09-24T12:02:03.000Z</time>
      </trkpt>
      <trkpt lat="43.36496" lon="2.43561">
        <ele>730</ele>
        <time>2017-09-24T12:02:04.000Z</time>
      </trkpt>
      <trkpt lat="43.36496" lon="2.43562">
        <ele>730</ele>
        <time>2017-09-24T12:02:05.000Z</time>
      </trkpt>
      <trkpt lat="43.36496" lon="2.43564">
        <ele>730</ele>
        <time>2017-09-24T12:02:06.000Z</time>
      </trkpt>
      <trkpt lat="43.36496" lon="2.43565">
        <ele>730</ele>
        <time>2017-09-24T12:02:07.000Z</time>
      </trkpt>
      <trkpt lat="43.36496" lon="2.43567">
        <ele>730</ele>
        <time>2017-09-24T12:02:08.000Z</time>
      </trkpt>
      <trkpt lat="43.36495" lon="2.43568">
        <ele>730</ele>
        <time>2017-09-24T12:02:09.000Z</time>
      </trkpt>
      <trkpt lat="43.36495" lon="2.43569">
        <ele>730</ele>
        <time>2017-09-24T12:02:10.000Z</time>
      </trkpt>
      <trkpt lat="43.36495" lon="2.43569">
        <ele>730</ele>
        <time>2017-09-24T12:02:11.000Z</time>
      </trkpt>
      <trkpt lat="43.36494" lon="2.43569">
        <ele>730</ele>
        <time>2017-09-24T12:02:12.000Z</time>
      </trkpt>
      <trkpt lat="43.36494" lon="2.43569">
        <ele>730</ele>
        <time>2017-09-24T12:02:13.000Z</time>
      </trkpt>
      <trkpt lat="43.36495" lon="2.43577">
        <ele>730</ele>
        <time>2017-09-24T12:03:05.000Z</time>
      </trkpt>
      <trkpt lat="43.36495" lon="2.43578">
        <ele>730</ele>
        <time>2017-09-24T12:03:06.000Z</time>
      </trkpt>
      <trkpt lat="43.36496" lon="2.4358">
        <ele>730</ele>
        <time>2017-09-24T12:03:07.000Z</time>
      </trkpt>
      <trkpt lat="43.36496" lon="2.43581">
        <ele>730</ele>
        <time>2017-09-24T12:03:08.000Z</time>
      </trkpt>
      <trkpt lat="43.36496" lon="2.43583">
        <ele>730</ele>
        <time>2017-09-24T12:03:09.000Z</time>
      </trkpt>
      <trkpt lat="43.36496" lon="2.43585">
        <ele>729</ele>
        <time>2017-09-24T12:03:10.000Z</time>
      </trkpt>
      <trkpt lat="43.36496" lon="2.43586">
        <ele>729</ele>
        <time>2017-09-24T12:03:11.000Z</time>
      </trkpt>
      <trkpt lat="43.36497" lon="2.43588">
        <ele>729</ele>
        <time>2017-09-24T12:03:12.000Z</time>
      </trkpt>
      <trkpt lat="43.36497" lon="2.4359">
        <ele>729</ele>
        <time>2017-09-24T12:03:13.000Z</time>
      </trkpt>
      <trkpt lat="43.36497" lon="2.43591">
        <ele>729</ele>
        <time>2017-09-24T12:03:14.000Z</time>
      </trkpt>
      <trkpt lat="43.36497" lon="2.43593">
        <ele>729</ele>
        <time>2017-09-24T12:03:15.000Z</time>
      </trkpt>
      <trkpt lat="43.36497" lon="2.43594">
        <ele>729</ele>
        <time>2017-09-24T12:03:16.000Z</time>
      </trkpt>
      <trkpt lat="43.36497" lon="2.43596">
        <ele>729</ele>
        <time>2017-09-24T12:03:17.000Z</time>
      </trkpt>
      <trkpt lat="43.36497" lon="2.43598">
        <ele>729</ele>
        <time>2017-09-24T12:03:18.000Z</time>
      </trkpt>
      <trkpt lat="43.36498" lon="2.436">
        <ele>729</ele>
        <time>2017-09-24T12:03:19.000Z</time>
      </trkpt>
      <trkpt lat="43.36498" lon="2.43601">
        <ele>729</ele>
        <time>2017-09-24T12:03:20.000Z</time>
      </trkpt>
      <trkpt lat="43.36498" lon="2.43603">
        <ele>729</ele>
        <time>2017-09-24T12:03:21.000Z</time>
      </trkpt>
      <trkpt lat="43.36498" lon="2.43605">
        <ele>729</ele>
        <time>2017-09-24T12:03:22.000Z</time>
      </trkpt>
      <trkpt lat="43.36498" lon="2.43606">
        <ele>729</ele>
        <time>2017-09-24T12:03:23.000Z</time>
      </trkpt>
      <trkpt lat="43.36499" lon="2.43608">
        <ele>729</ele>
        <time>2017-09-24T12:03:24.000Z</time>
      </trkpt>
      <trkpt lat="43.36499" lon="2.4361">
        <ele>729</ele>
        <time>2017-09-24T12:03:25.000Z</time>
      </trkpt>
      <trkpt lat="43.36499" lon="2.43612">
        <ele>729</ele>
        <time>2017-09-24T12:03:26.000Z</time>
      </trkpt>
      <trkpt lat="43.36499" lon="2.43614">
        <ele>728</ele>
        <time>2017-09-24T12:03:27.000Z</time>
      </trkpt>
      <trkpt lat="43.36499" lon="2.43616">
        <ele>728</ele>
        <time>2017-09-24T12:03:28.000Z</time>
      </trkpt>
      <trkpt lat="43.365" lon="2.43617">
        <ele>728</ele>
        <time>2017-09-24T12:03:29.000Z</time>
      </trkpt>
      <trkpt lat="43.365" lon="2.43619">
        <ele>728</ele>
        <time>2017-09-24T12:03:30.000Z</time>
      </trkpt>
      <trkpt lat="43.365" lon="2.43621">
        <ele>728</ele>
        <time>2017-09-24T12:03:31.000Z</time>
      </trkpt>
      <trkpt lat="43.365" lon="2.43623">
        <ele>728</ele>
        <time>2017-09-24T12:03:32.000Z</time>
      </trkpt>
      <trkpt lat="43.36501" lon="2.43624">
        <ele>728</ele>
        <time>2017-09-24T12:03:33.000Z</time>
      </trkpt>
      <trkpt lat="43.36501" lon="2.43626">
        <ele>728</ele>
        <time>2017-09-24T12:03:34.000Z</time>
      </trkpt>
      <trkpt lat="43.36501" lon="2.43628">
        <ele>728</ele>
        <time>2017-09-24T12:03:35.000Z</time>
      </trkpt>
      <trkpt lat="43.36502" lon="2.4363">
        <ele>728</ele>
        <time>2017-09-24T12:03:36.000Z</time>
      </trkpt>
      <trkpt lat="43.36502" lon="2.43632">
        <ele>728</ele>
        <time>2017-09-24T12:03:37.000Z</time>
      </trkpt>
      <trkpt lat="43.36502" lon="2.43634">
        <ele>728</ele>
        <time>2017-09-24T12:03:38.000Z</time>
      </trkpt>
      <trkpt lat="43.36502" lon="2.43635">
        <ele>728</ele>
        <time>2017-09-24T12:03:39.000Z</time>
      </trkpt>
      <trkpt lat="43.36502" lon="2.43637">
        <ele>728</ele>
        <time>2017-09-24T12:03:40.000Z</time>
      </trkpt>
      <trkpt lat="43.36502" lon="2.43639">
        <ele>728</ele>
        <time>2017-09-24T12:03:41.000Z</time>
      </trkpt>
      <trkpt lat="43.36503" lon="2.43641">
        <ele>728</ele>
        <time>2017-09-24T12:03:42.000Z</time>
      </trkpt>
      <trkpt lat="43.36503" lon="2.43643">
        <ele>728</ele>
        <time>2017-09-24T12:03:43.000Z</time>
      </trkpt>
      <trkpt lat="43.36503" lon="2.43645">
        <ele>728</ele>
        <time>2017-09-24T12:03:44.000Z</time>
      </trkpt>
      <trkpt lat="43.36504" lon="2.43646">
        <ele>727</ele>
        <time>2017-09-24T12:03:45.000Z</time>
      </trkpt>
      <trkpt lat="43.36504" lon="2.43648">
        <ele>727</ele>
        <time>2017-09-24T12:03:46.000Z</time>
      </trkpt>
      <trkpt lat="43.36504" lon="2.4365">
        <ele>727</ele>
        <time>2017-09-24T12:03:47.000Z</time>
      </trkpt>
      <trkpt lat="43.36504" lon="2.43652">
        <ele>727</ele>
        <time>2017-09-24T12:03:48.000Z</time>
      </trkpt>
      <trkpt lat="43.36505" lon="2.43653">
        <ele>727</ele>
        <time>2017-09-24T12:03:49.000Z</time>
      </trkpt>
      <trkpt lat="43.36505" lon="2.43655">
        <ele>727</ele>
        <time>2017-09-24T12:03:50.000Z</time>
      </trkpt>
      <trkpt lat="43.36505" lon="2.43657">
        <ele>727</ele>
        <time>2017-09-24T12:03:51.000Z</time>
      </trkpt>
      <trkpt lat="43.36505" lon="2.43659">
        <ele>727</ele>
        <time>2017-09-24T12:03:52.000Z</time>
      </trkpt>
      <trkpt lat="43.36505" lon="2.43661">
        <ele>727</ele>
        <time>2017-09-24T12:03:53.000Z</time>
      </trkpt>
      <trkpt lat="43.36506" lon="2.43663">
        <ele>726</ele>
        <time>2017-09-24T12:03:54.000Z</time>
      </trkpt>
      <trkpt lat="43.36506" lon="2.43665">
        <ele>726</ele>
        <time>2017-09-24T12:03:55.000Z</time>
      </trkpt>
      <trkpt lat="43.36506" lon="2.43666">
        <ele>726</ele>
        <time>2017-09-24T12:03:56.000Z</time>
      </trkpt>
      <trkpt lat="43.36506" lon="2.43668">
        <ele>726</ele>
        <time>2017-09-24T12:03:57.000Z</time>
      </trkpt>
      <trkpt lat="43.36507" lon="2.4367">
        <ele>726</ele>
        <time>2017-09-24T12:03:58.000Z</time>
      </trkpt>
      <trkpt lat="43.36507" lon="2.43672">
        <ele>726</ele>
        <time>2017-09-24T12:03:59.000Z</time>
      </trkpt>
      <trkpt lat="43.36507" lon="2.43674">
        <ele>726</ele>
        <time>2017-09-24T12:04:00.000Z</time>
      </trkpt>
      <trkpt lat="43.36507" lon="2.43676">
        <ele>726</ele>
        <time>2017-09-24T12:04:01.000Z</time>
      </trkpt>
      <trkpt lat="43.36507" lon="2.43678">
        <ele>726</ele>
        <time>2017-09-24T12:04:02.000Z</time>
      </trkpt>
      <trkpt lat="43.36507" lon="2.4368">
        <ele>726</ele>
        <time>2017-09-24T12:04:03.000Z</time>
      </trkpt>
      <trkpt lat="43.36507" lon="2.43682">
        <ele>726</ele>
        <time>2017-09-24T12:04:04.000Z</time>
      </trkpt>
      <trkpt lat="43.36508" lon="2.43683">
        <ele>726</ele>
        <time>2017-09-24T12:04:05.000Z</time>
      </trkpt>
      <trkpt lat="43.36508" lon="2.43685">
        <ele>726</ele>
        <time>2017-09-24T12:04:06.000Z</time>
      </trkpt>
      <trkpt lat="43.36508" lon="2.43687">
        <ele>726</ele>
        <time>2017-09-24T12:04:07.000Z</time>
      </trkpt>
      <trkpt lat="43.36508" lon="2.43689">
        <ele>726</ele>
        <time>2017-09-24T12:04:08.000Z</time>
      </trkpt>
      <trkpt lat="43.36508" lon="2.4369">
        <ele>726</ele>
        <time>2017-09-24T12:04:09.000Z</time>
      </trkpt>
      <trkpt lat="43.36508" lon="2.43692">
        <ele>726</ele>
        <time>2017-09-24T12:04:10.000Z</time>
      </trkpt>
      <trkpt lat="43.36508" lon="2.43694">
        <ele>726</ele>
        <time>2017-09-24T12:04:11.000Z</time>
      </trkpt>
      <trkpt lat="43.36508" lon="2.43695">
        <ele>726</ele>
        <time>2017-09-24T12:04:12.000Z</time>
      </trkpt>
      <trkpt lat="43.36508" lon="2.43697">
        <ele>726</ele>
        <time>2017-09-24T12:04:13.000Z</time>
      </trkpt>
      <trkpt lat="43.36508" lon="2.43699">
        <ele>726</ele>
        <time>2017-09-24T12:04:14.000Z</time>
      </trkpt>
      <trkpt lat="43.36508" lon="2.437">
        <ele>726</ele>
        <time>2017-09-24T12:04:15.000Z</time>
      </trkpt>
      <trkpt lat="43.36508" lon="2.43702">
        <ele>726</ele>
        <time>2017-09-24T12:04:16.000Z</time>
      </trkpt>
      <trkpt lat="43.36508" lon="2.43704">
        <ele>726</ele>
        <time>2017-09-24T12:04:17.000Z</time>
      </trkpt>
      <trkpt lat="43.36508" lon="2.43706">
        <ele>726</ele>
        <time>2017-09-24T12:04:18.000Z</time>
      </trkpt>
      <trkpt lat="43.36508" lon="2.43708">
        <ele>725</ele>
        <time>2017-09-24T12:04:19.000Z</time>
      </trkpt>
      <trkpt lat="43.36508" lon="2.4371">
        <ele>725</ele>
        <time>2017-09-24T12:04:20.000Z</time>
      </trkpt>
      <trkpt lat="43.36508" lon="2.43712">
        <ele>725</ele>
        <time>2017-09-24T12:04:21.000Z</time>
      </trkpt>
      <trkpt lat="43.36508" lon="2.43714">
        <ele>725</ele>
        <time>2017-09-24T12:04:22.000Z</time>
      </trkpt>
      <trkpt lat="43.36508" lon="2.43716">
        <ele>725</ele>
        <time>2017-09-24T12:04:23.000Z</time>
      </trkpt>
      <trkpt lat="43.36508" lon="2.43718">
        <ele>725</ele>
        <time>2017-09-24T12:04:24.000Z</time>
      </trkpt>
      <trkpt lat="43.36507" lon="2.4372">
        <ele>725</ele>
        <time>2017-09-24T12:04:25.000Z</time>
      </trkpt>
      <trkpt lat="43.36507" lon="2.43722">
        <ele>725</ele>
        <time>2017-09-24T12:04:26.000Z</time>
      </trkpt>
      <trkpt lat="43.36507" lon="2.43723">
        <ele>725</ele>
        <time>2017-09-24T12:04:27.000Z</time>
      </trkpt>
      <trkpt lat="43.36507" lon="2.43725">
        <ele>725</ele>
        <time>2017-09-24T12:04:28.000Z</time>
      </trkpt>
      <trkpt lat="43.36507" lon="2.43727">
        <ele>725</ele>
        <time>2017-09-24T12:04:29.000Z</time>
      </trkpt>
      <trkpt lat="43.36507" lon="2.43729">
        <ele>725</ele>
        <time>2017-09-24T12:04:30.000Z</time>
      </trkpt>
      <trkpt lat="43.36507" lon="2.43731">
        <ele>725</ele>
        <time>2017-09-24T12:04:31.000Z</time>
      </trkpt>
      <trkpt lat="43.36506" lon="2.43732">
        <ele>725</ele>
        <time>2017-09-24T12:04:32.000Z</time>
      </trkpt>
      <trkpt lat="43.36506" lon="2.43734">
        <ele>724</ele>
        <time>2017-09-24T12:04:33.000Z</time>
      </trkpt>
      <trkpt lat="43.36505" lon="2.43736">
        <ele>724</ele>
        <time>2017-09-24T12:04:34.000Z</time>
      </trkpt>
      <trkpt lat="43.36505" lon="2.43737">
        <ele>724</ele>
        <time>2017-09-24T12:04:35.000Z</time>
      </trkpt>
      <trkpt lat="43.36505" lon="2.43739">
        <ele>724</ele>
        <time>2017-09-24T12:04:36.000Z</time>
      </trkpt>
      <trkpt lat="43.36505" lon="2.43741">
        <ele>724</ele>
        <time>2017-09-24T12:04:37.000Z</time>
      </trkpt>
      <trkpt lat="43.36504" lon="2.43743">
        <ele>724</ele>
        <time>2017-09-24T12:04:38.000Z</time>
      </trkpt>
      <trkpt lat="43.36504" lon="2.43744">
        <ele>723</ele>
        <time>2017-09-24T12:04:39.000Z</time>
      </trkpt>
      <trkpt lat="43.36504" lon="2.43746">
        <ele>723</ele>
        <time>2017-09-24T12:04:40.000Z</time>
      </trkpt>
      <trkpt lat="43.36503" lon="2.43747">
        <ele>723</ele>
        <time>2017-09-24T12:04:41.000Z</time>
      </trkpt>
      <trkpt lat="43.36503" lon="2.43749">
        <ele>722</ele>
        <time>2017-09-24T12:04:42.000Z</time>
      </trkpt>
      <trkpt lat="43.36503" lon="2.4375">
        <ele>722</ele>
        <time>2017-09-24T12:04:43.000Z</time>
      </trkpt>
      <trkpt lat="43.36502" lon="2.43752">
        <ele>722</ele>
        <time>2017-09-24T12:04:44.000Z</time>
      </trkpt>
      <trkpt lat="43.36502" lon="2.43754">
        <ele>722</ele>
        <time>2017-09-24T12:04:45.000Z</time>
      </trkpt>
      <trkpt lat="43.36502" lon="2.43755">
        <ele>722</ele>
        <time>2017-09-24T12:04:46.000Z</time>
      </trkpt>
      <trkpt lat="43.36501" lon="2.43757">
        <ele>722</ele>
        <time>2017-09-24T12:04:47.000Z</time>
      </trkpt>
      <trkpt lat="43.36501" lon="2.43759">
        <ele>722</ele>
        <time>2017-09-24T12:04:48.000Z</time>
      </trkpt>
      <trkpt lat="43.36501" lon="2.4376">
        <ele>722</ele>
        <time>2017-09-24T12:04:49.000Z</time>
      </trkpt>
      <trkpt lat="43.365" lon="2.43762">
        <ele>722</ele>
        <time>2017-09-24T12:04:50.000Z</time>
      </trkpt>
      <trkpt lat="43.365" lon="2.43764">
        <ele>722</ele>
        <time>2017-09-24T12:04:51.000Z</time>
      </trkpt>
      <trkpt lat="43.36499" lon="2.43765">
        <ele>721</ele>
        <time>2017-09-24T12:04:52.000Z</time>
      </trkpt>
      <trkpt lat="43.36498" lon="2.43766">
        <ele>721</ele>
        <time>2017-09-24T12:04:53.000Z</time>
      </trkpt>
      <trkpt lat="43.36498" lon="2.43768">
        <ele>721</ele>
        <time>2017-09-24T12:04:54.000Z</time>
      </trkpt>
      <trkpt lat="43.36498" lon="2.43769">
        <ele>721</ele>
        <time>2017-09-24T12:04:55.000Z</time>
      </trkpt>
      <trkpt lat="43.36497" lon="2.43771">
        <ele>721</ele>
        <time>2017-09-24T12:04:56.000Z</time>
      </trkpt>
      <trkpt lat="43.36497" lon="2.43772">
        <ele>721</ele>
        <time>2017-09-24T12:04:57.000Z</time>
      </trkpt>
      <trkpt lat="43.36497" lon="2.43774">
        <ele>721</ele>
        <time>2017-09-24T12:04:58.000Z</time>
      </trkpt>
      <trkpt lat="43.36496" lon="2.43775">
        <ele>721</ele>
        <time>2017-09-24T12:04:59.000Z</time>
      </trkpt>
      <trkpt lat="43.36496" lon="2.43777">
        <ele>721</ele>
        <time>2017-09-24T12:05:00.000Z</time>
      </trkpt>
      <trkpt lat="43.36495" lon="2.43779">
        <ele>721</ele>
        <time>2017-09-24T12:05:01.000Z</time>
      </trkpt>
      <trkpt lat="43.36495" lon="2.4378">
        <ele>721</ele>
        <time>2017-09-24T12:05:02.000Z</time>
      </trkpt>
      <trkpt lat="43.36495" lon="2.43782">
        <ele>721</ele>
        <time>2017-09-24T12:05:03.000Z</time>
      </trkpt>
      <trkpt lat="43.36494" lon="2.43783">
        <ele>721</ele>
        <time>2017-09-24T12:05:04.000Z</time>
      </trkpt>
      <trkpt lat="43.36494" lon="2.43785">
        <ele>720</ele>
        <time>2017-09-24T12:05:05.000Z</time>
      </trkpt>
      <trkpt lat="43.36493" lon="2.43786">
        <ele>720</ele>
        <time>2017-09-24T12:05:06.000Z</time>
      </trkpt>
      <trkpt lat="43.36492" lon="2.43788">
        <ele>720</ele>
        <time>2017-09-24T12:05:07.000Z</time>
      </trkpt>
      <trkpt lat="43.36492" lon="2.43789">
        <ele>720</ele>
        <time>2017-09-24T12:05:08.000Z</time>
      </trkpt>
      <trkpt lat="43.36491" lon="2.43791">
        <ele>720</ele>
        <time>2017-09-24T12:05:09.000Z</time>
      </trkpt>
      <trkpt lat="43.36491" lon="2.43792">
        <ele>720</ele>
        <time>2017-09-24T12:05:10.000Z</time>
      </trkpt>
      <trkpt lat="43.3649" lon="2.43794">
        <ele>719</ele>
        <time>2017-09-24T12:05:11.000Z</time>
      </trkpt>
      <trkpt lat="43.36489" lon="2.43795">
        <ele>719</ele>
        <time>2017-09-24T12:05:12.000Z</time>
      </trkpt>
      <trkpt lat="43.36488" lon="2.43796">
        <ele>719</ele>
        <time>2017-09-24T12:05:13.000Z</time>
      </trkpt>
      <trkpt lat="43.36488" lon="2.43798">
        <ele>719</ele>
        <time>2017-09-24T12:05:14.000Z</time>
      </trkpt>
      <trkpt lat="43.36487" lon="2.43799">
        <ele>719</ele>
        <time>2017-09-24T12:05:15.000Z</time>
      </trkpt>
      <trkpt lat="43.36487" lon="2.43801">
        <ele>719</ele>
        <time>2017-09-24T12:05:16.000Z</time>
      </trkpt>
      <trkpt lat="43.36486" lon="2.43802">
        <ele>718</ele>
        <time>2017-09-24T12:05:17.000Z</time>
      </trkpt>
      <trkpt lat="43.36486" lon="2.43804">
        <ele>718</ele>
        <time>2017-09-24T12:05:18.000Z</time>
      </trkpt>
      <trkpt lat="43.36485" lon="2.43806">
        <ele>718</ele>
        <time>2017-09-24T12:05:19.000Z</time>
      </trkpt>
      <trkpt lat="43.36484" lon="2.43807">
        <ele>718</ele>
        <time>2017-09-24T12:05:20.000Z</time>
      </trkpt>
      <trkpt lat="43.36484" lon="2.43809">
        <ele>718</ele>
        <time>2017-09-24T12:05:21.000Z</time>
      </trkpt>
      <trkpt lat="43.36483" lon="2.4381">
        <ele>718</ele>
        <time>2017-09-24T12:05:22.000Z</time>
      </trkpt>
      <trkpt lat="43.36482" lon="2.43812">
        <ele>718</ele>
        <time>2017-09-24T12:05:23.000Z</time>
      </trkpt>
      <trkpt lat="43.36481" lon="2.43813">
        <ele>717</ele>
        <time>2017-09-24T12:05:24.000Z</time>
      </trkpt>
      <trkpt lat="43.36481" lon="2.43815">
        <ele>717</ele>
        <time>2017-09-24T12:05:25.000Z</time>
      </trkpt>
      <trkpt lat="43.3648" lon="2.43816">
        <ele>717</ele>
        <time>2017-09-24T12:05:26.000Z</time>
      </trkpt>
      <trkpt lat="43.36479" lon="2.43817">
        <ele>717</ele>
        <time>2017-09-24T12:05:27.000Z</time>
      </trkpt>
      <trkpt lat="43.36478" lon="2.43819">
        <ele>717</ele>
        <time>2017-09-24T12:05:28.000Z</time>
      </trkpt>
      <trkpt lat="43.36478" lon="2.4382">
        <ele>716</ele>
        <time>2017-09-24T12:05:29.000Z</time>
      </trkpt>
      <trkpt lat="43.36477" lon="2.43821">
        <ele>716</ele>
        <time>2017-09-24T12:05:30.000Z</time>
      </trkpt>
      <trkpt lat="43.36476" lon="2.43823">
        <ele>716</ele>
        <time>2017-09-24T12:05:31.000Z</time>
      </trkpt>
      <trkpt lat="43.36476" lon="2.43824">
        <ele>716</ele>
        <time>2017-09-24T12:05:32.000Z</time>
      </trkpt>
      <trkpt lat="43.36475" lon="2.43826">
        <ele>716</ele>
        <time>2017-09-24T12:05:33.000Z</time>
      </trkpt>
      <trkpt lat="43.36475" lon="2.43827">
        <ele>716</ele>
        <time>2017-09-24T12:05:34.000Z</time>
      </trkpt>
      <trkpt lat="43.36474" lon="2.43829">
        <ele>716</ele>
        <time>2017-09-24T12:05:35.000Z</time>
      </trkpt>
      <trkpt lat="43.36474" lon="2.43831">
        <ele>716</ele>
        <time>2017-09-24T12:05:36.000Z</time>
      </trkpt>
      <trkpt lat="43.36473" lon="2.43832">
        <ele>716</ele>
        <time>2017-09-24T12:05:37.000Z</time>
      </trkpt>
      <trkpt lat="43.36473" lon="2.43834">
        <ele>715</ele>
        <time>2017-09-24T12:05:38.000Z</time>
      </trkpt>
      <trkpt lat="43.36472" lon="2.43835">
        <ele>715</ele>
        <time>2017-09-24T12:05:39.000Z</time>
      </trkpt>
      <trkpt lat="43.36472" lon="2.43837">
        <ele>715</ele>
        <time>2017-09-24T12:05:40.000Z</time>
      </trkpt>
      <trkpt lat="43.36471" lon="2.43838">
        <ele>715</ele>
        <time>2017-09-24T12:05:41.000Z</time>
      </trkpt>
      <trkpt lat="43.36471" lon="2.4384">
        <ele>715</ele>
        <time>2017-09-24T12:05:42.000Z</time>
      </trkpt>
      <trkpt lat="43.3647" lon="2.43842">
        <ele>714</ele>
        <time>2017-09-24T12:05:43.000Z</time>
      </trkpt>
      <trkpt lat="43.36469" lon="2.43844">
        <ele>714</ele>
        <time>2017-09-24T12:05:44.000Z</time>
      </trkpt>
      <trkpt lat="43.36469" lon="2.43845">
        <ele>714</ele>
        <time>2017-09-24T12:05:45.000Z</time>
      </trkpt>
      <trkpt lat="43.36468" lon="2.43846">
        <ele>714</ele>
        <time>2017-09-24T12:05:46.000Z</time>
      </trkpt>
      <trkpt lat="43.36468" lon="2.43848">
        <ele>714</ele>
        <time>2017-09-24T12:05:47.000Z</time>
      </trkpt>
      <trkpt lat="43.36468" lon="2.43849">
        <ele>714</ele>
        <time>2017-09-24T12:05:48.000Z</time>
      </trkpt>
      <trkpt lat="43.36467" lon="2.43851">
        <ele>713</ele>
        <time>2017-09-24T12:05:49.000Z</time>
      </trkpt>
      <trkpt lat="43.36466" lon="2.43852">
        <ele>713</ele>
        <time>2017-09-24T12:05:50.000Z</time>
      </trkpt>
      <trkpt lat="43.36465" lon="2.43854">
        <ele>713</ele>
        <time>2017-09-24T12:05:51.000Z</time>
      </trkpt>
      <trkpt lat="43.36465" lon="2.43855">
        <ele>713</ele>
        <time>2017-09-24T12:05:52.000Z</time>
      </trkpt>
      <trkpt lat="43.36464" lon="2.43857">
        <ele>712</ele>
        <time>2017-09-24T12:05:53.000Z</time>
      </trkpt>
      <trkpt lat="43.36464" lon="2.43858">
        <ele>712</ele>
        <time>2017-09-24T12:05:54.000Z</time>
      </trkpt>
      <trkpt lat="43.36463" lon="2.4386">
        <ele>712</ele>
        <time>2017-09-24T12:05:55.000Z</time>
      </trkpt>
      <trkpt lat="43.36463" lon="2.43861">
        <ele>712</ele>
        <time>2017-09-24T12:05:56.000Z</time>
      </trkpt>
      <trkpt lat="43.36462" lon="2.43863">
        <ele>712</ele>
        <time>2017-09-24T12:05:57.000Z</time>
      </trkpt>
      <trkpt lat="43.36462" lon="2.43865">
        <ele>712</ele>
        <time>2017-09-24T12:05:58.000Z</time>
      </trkpt>
      <trkpt lat="43.36462" lon="2.43867">
        <ele>712</ele>
        <time>2017-09-24T12:05:59.000Z</time>
      </trkpt>
      <trkpt lat="43.36461" lon="2.43868">
        <ele>712</ele>
        <time>2017-09-24T12:06:00.000Z</time>
      </trkpt>
      <trkpt lat="43.36461" lon="2.4387">
        <ele>712</ele>
        <time>2017-09-24T12:06:01.000Z</time>
      </trkpt>
      <trkpt lat="43.36461" lon="2.43872">
        <ele>712</ele>
        <time>2017-09-24T12:06:02.000Z</time>
      </trkpt>
      <trkpt lat="43.3646" lon="2.43873">
        <ele>712</ele>
        <time>2017-09-24T12:06:03.000Z</time>
      </trkpt>
      <trkpt lat="43.3646" lon="2.43875">
        <ele>712</ele>
        <time>2017-09-24T12:06:04.000Z</time>
      </trkpt>
      <trkpt lat="43.3646" lon="2.43876">
        <ele>712</ele>
        <time>2017-09-24T12:06:05.000Z</time>
      </trkpt>
      <trkpt lat="43.3646" lon="2.43878">
        <ele>712</ele>
        <time>2017-09-24T12:06:06.000Z</time>
      </trkpt>
      <trkpt lat="43.36459" lon="2.4388">
        <ele>712</ele>
        <time>2017-09-24T12:06:07.000Z</time>
      </trkpt>
      <trkpt lat="43.36459" lon="2.43882">
        <ele>712</ele>
        <time>2017-09-24T12:06:08.000Z</time>
      </trkpt>
      <trkpt lat="43.36459" lon="2.43883">
        <ele>712</ele>
        <time>2017-09-24T12:06:09.000Z</time>
      </trkpt>
      <trkpt lat="43.36459" lon="2.43885">
        <ele>712</ele>
        <time>2017-09-24T12:06:10.000Z</time>
      </trkpt>
      <trkpt lat="43.36459" lon="2.43887">
        <ele>712</ele>
        <time>2017-09-24T12:06:11.000Z</time>
      </trkpt>
      <trkpt lat="43.36459" lon="2.43889">
        <ele>712</ele>
        <time>2017-09-24T12:06:12.000Z</time>
      </trkpt>
      <trkpt lat="43.36458" lon="2.43891">
        <ele>712</ele>
        <time>2017-09-24T12:06:13.000Z</time>
      </trkpt>
      <trkpt lat="43.36458" lon="2.43892">
        <ele>712</ele>
        <time>2017-09-24T12:06:14.000Z</time>
      </trkpt>
      <trkpt lat="43.36458" lon="2.43894">
        <ele>712</ele>
        <time>2017-09-24T12:06:15.000Z</time>
      </trkpt>
      <trkpt lat="43.36457" lon="2.43895">
        <ele>712</ele>
        <time>2017-09-24T12:06:16.000Z</time>
      </trkpt>
      <trkpt lat="43.36457" lon="2.43897">
        <ele>712</ele>
        <time>2017-09-24T12:06:17.000Z</time>
      </trkpt>
      <trkpt lat="43.36457" lon="2.43899">
        <ele>712</ele>
        <time>2017-09-24T12:06:18.000Z</time>
      </trkpt>
      <trkpt lat="43.36457" lon="2.43901">
        <ele>712</ele>
        <time>2017-09-24T12:06:19.000Z</time>
      </trkpt>
      <trkpt lat="43.36457" lon="2.43902">
        <ele>712</ele>
        <time>2017-09-24T12:06:20.000Z</time>
      </trkpt>
      <trkpt lat="43.36457" lon="2.43904">
        <ele>712</ele>
        <time>2017-09-24T12:06:21.000Z</time>
      </trkpt>
      <trkpt lat="43.36457" lon="2.43906">
        <ele>712</ele>
        <time>2017-09-24T12:06:22.000Z</time>
      </trkpt>
      <trkpt lat="43.36456" lon="2.43907">
        <ele>712</ele>
        <time>2017-09-24T12:06:23.000Z</time>
      </trkpt>
      <trkpt lat="43.36456" lon="2.43909">
        <ele>712</ele>
        <time>2017-09-24T12:06:24.000Z</time>
      </trkpt>
      <trkpt lat="43.36456" lon="2.43911">
        <ele>712</ele>
        <time>2017-09-24T12:06:25.000Z</time>
      </trkpt>
      <trkpt lat="43.36456" lon="2.43913">
        <ele>713</ele>
        <time>2017-09-24T12:06:26.000Z</time>
      </trkpt>
      <trkpt lat="43.36456" lon="2.43914">
        <ele>713</ele>
        <time>2017-09-24T12:06:27.000Z</time>
      </trkpt>
      <trkpt lat="43.36456" lon="2.43916">
        <ele>713</ele>
        <time>2017-09-24T12:06:28.000Z</time>
      </trkpt>
      <trkpt lat="43.36456" lon="2.43917">
        <ele>713</ele>
        <time>2017-09-24T12:06:29.000Z</time>
      </trkpt>
      <trkpt lat="43.36456" lon="2.43919">
        <ele>712</ele>
        <time>2017-09-24T12:06:30.000Z</time>
      </trkpt>
      <trkpt lat="43.36456" lon="2.4392">
        <ele>712</ele>
        <time>2017-09-24T12:06:31.000Z</time>
      </trkpt>
      <trkpt lat="43.36455" lon="2.43922">
        <ele>712</ele>
        <time>2017-09-24T12:06:32.000Z</time>
      </trkpt>
      <trkpt lat="43.36455" lon="2.43923">
        <ele>712</ele>
        <time>2017-09-24T12:06:33.000Z</time>
      </trkpt>
      <trkpt lat="43.36455" lon="2.43924">
        <ele>712</ele>
        <time>2017-09-24T12:06:34.000Z</time>
      </trkpt>
      <trkpt lat="43.36455" lon="2.43926">
        <ele>712</ele>
        <time>2017-09-24T12:06:35.000Z</time>
      </trkpt>
      <trkpt lat="43.36455" lon="2.43927">
        <ele>712</ele>
        <time>2017-09-24T12:06:36.000Z</time>
      </trkpt>
      <trkpt lat="43.36455" lon="2.43929">
        <ele>712</ele>
        <time>2017-09-24T12:06:37.000Z</time>
      </trkpt>
      <trkpt lat="43.36455" lon="2.4393">
        <ele>712</ele>
        <time>2017-09-24T12:06:38.000Z</time>
      </trkpt>
      <trkpt lat="43.36454" lon="2.43931">
        <ele>712</ele>
        <time>2017-09-24T12:06:39.000Z</time>
      </trkpt>
      <trkpt lat="43.36454" lon="2.43932">
        <ele>712</ele>
        <time>2017-09-24T12:06:40.000Z</time>
      </trkpt>
      <trkpt lat="43.36454" lon="2.43934">
        <ele>712</ele>
        <time>2017-09-24T12:06:41.000Z</time>
      </trkpt>
      <trkpt lat="43.36453" lon="2.43935">
        <ele>712</ele>
        <time>2017-09-24T12:06:42.000Z</time>
      </trkpt>
      <trkpt lat="43.36453" lon="2.43937">
        <ele>712</ele>
        <time>2017-09-24T12:06:43.000Z</time>
      </trkpt>
      <trkpt lat="43.36453" lon="2.43938">
        <ele>711</ele>
        <time>2017-09-24T12:06:44.000Z</time>
      </trkpt>
      <trkpt lat="43.36453" lon="2.43938">
        <ele>711</ele>
        <time>2017-09-24T12:06:45.000Z</time>
      </trkpt>
      <trkpt lat="43.36452" lon="2.43939">
        <ele>711</ele>
        <time>2017-09-24T12:06:46.000Z</time>
      </trkpt>
      <trkpt lat="43.36452" lon="2.4394">
        <ele>711</ele>
        <time>2017-09-24T12:06:47.000Z</time>
      </trkpt>
      <trkpt lat="43.36452" lon="2.43941">
        <ele>711</ele>
        <time>2017-09-24T12:06:48.000Z</time>
      </trkpt>
      <trkpt lat="43.36452" lon="2.43941">
        <ele>711</ele>
        <time>2017-09-24T12:06:49.000Z</time>
      </trkpt>
      <trkpt lat="43.36451" lon="2.43942">
        <ele>711</ele>
        <time>2017-09-24T12:06:50.000Z</time>
      </trkpt>
      <trkpt lat="43.36452" lon="2.43948">
        <ele>711</ele>
        <time>2017-09-24T12:07:08.000Z</time>
      </trkpt>
      <trkpt lat="43.36452" lon="2.43949">
        <ele>711</ele>
        <time>2017-09-24T12:07:09.000Z</time>
      </trkpt>
      <trkpt lat="43.36452" lon="2.4395">
        <ele>711</ele>
        <time>2017-09-24T12:07:10.000Z</time>
      </trkpt>
      <trkpt lat="43.36452" lon="2.43951">
        <ele>711</ele>
        <time>2017-09-24T12:07:11.000Z</time>
      </trkpt>
      <trkpt lat="43.36452" lon="2.43953">
        <ele>711</ele>
        <time>2017-09-24T12:07:12.000Z</time>
      </trkpt>
      <trkpt lat="43.36452" lon="2.43954">
        <ele>711</ele>
        <time>2017-09-24T12:07:13.000Z</time>
      </trkpt>
      <trkpt lat="43.36452" lon="2.43956">
        <ele>710</ele>
        <time>2017-09-24T12:07:14.000Z</time>
      </trkpt>
      <trkpt lat="43.36452" lon="2.43957">
        <ele>710</ele>
        <time>2017-09-24T12:07:15.000Z</time>
      </trkpt>
      <trkpt lat="43.36451" lon="2.43959">
        <ele>710</ele>
        <time>2017-09-24T12:07:16.000Z</time>
      </trkpt>
      <trkpt lat="43.36451" lon="2.4396">
        <ele>710</ele>
        <time>2017-09-24T12:07:17.000Z</time>
      </trkpt>
      <trkpt lat="43.36451" lon="2.43962">
        <ele>710</ele>
        <time>2017-09-24T12:07:18.000Z</time>
      </trkpt>
      <trkpt lat="43.36451" lon="2.43964">
        <ele>710</ele>
        <time>2017-09-24T12:07:19.000Z</time>
      </trkpt>
      <trkpt lat="43.36451" lon="2.43965">
        <ele>710</ele>
        <time>2017-09-24T12:07:20.000Z</time>
      </trkpt>
      <trkpt lat="43.3645" lon="2.43967">
        <ele>710</ele>
        <time>2017-09-24T12:07:21.000Z</time>
      </trkpt>
      <trkpt lat="43.3645" lon="2.43968">
        <ele>710</ele>
        <time>2017-09-24T12:07:22.000Z</time>
      </trkpt>
      <trkpt lat="43.3645" lon="2.43969">
        <ele>710</ele>
        <time>2017-09-24T12:07:23.000Z</time>
      </trkpt>
      <trkpt lat="43.3645" lon="2.4397">
        <ele>710</ele>
        <time>2017-09-24T12:07:24.000Z</time>
      </trkpt>
      <trkpt lat="43.36451" lon="2.4397">
        <ele>710</ele>
        <time>2017-09-24T12:07:25.000Z</time>
      </trkpt>
      <trkpt lat="43.3645" lon="2.4397">
        <ele>710</ele>
        <time>2017-09-24T12:07:26.000Z</time>
      </trkpt>
      <trkpt lat="43.36451" lon="2.43975">
        <ele>710</ele>
        <time>2017-09-24T12:07:40.000Z</time>
      </trkpt>
      <trkpt lat="43.36451" lon="2.43976">
        <ele>710</ele>
        <time>2017-09-24T12:07:41.000Z</time>
      </trkpt>
      <trkpt lat="43.36451" lon="2.43977">
        <ele>710</ele>
        <time>2017-09-24T12:07:42.000Z</time>
      </trkpt>
      <trkpt lat="43.36452" lon="2.43978">
        <ele>710</ele>
        <time>2017-09-24T12:07:43.000Z</time>
      </trkpt>
      <trkpt lat="43.36452" lon="2.4398">
        <ele>710</ele>
        <time>2017-09-24T12:07:44.000Z</time>
      </trkpt>
      <trkpt lat="43.36452" lon="2.43981">
        <ele>710</ele>
        <time>2017-09-24T12:07:45.000Z</time>
      </trkpt>
      <trkpt lat="43.36452" lon="2.43982">
        <ele>710</ele>
        <time>2017-09-24T12:07:46.000Z</time>
      </trkpt>
      <trkpt lat="43.36452" lon="2.43984">
        <ele>710</ele>
        <time>2017-09-24T12:07:47.000Z</time>
      </trkpt>
      <trkpt lat="43.36452" lon="2.43985">
        <ele>710</ele>
        <time>2017-09-24T12:07:48.000Z</time>
      </trkpt>
      <trkpt lat="43.36452" lon="2.43987">
        <ele>709</ele>
        <time>2017-09-24T12:07:49.000Z</time>
      </trkpt>
      <trkpt lat="43.36452" lon="2.43988">
        <ele>709</ele>
        <time>2017-09-24T12:07:50.000Z</time>
      </trkpt>
      <trkpt lat="43.36452" lon="2.43989">
        <ele>709</ele>
        <time>2017-09-24T12:07:51.000Z</time>
      </trkpt>
      <trkpt lat="43.36453" lon="2.43991">
        <ele>709</ele>
        <time>2017-09-24T12:07:52.000Z</time>
      </trkpt>
      <trkpt lat="43.36453" lon="2.43993">
        <ele>710</ele>
        <time>2017-09-24T12:07:53.000Z</time>
      </trkpt>
      <trkpt lat="43.36453" lon="2.43994">
        <ele>709</ele>
        <time>2017-09-24T12:07:54.000Z</time>
      </trkpt>
      <trkpt lat="43.36453" lon="2.43996">
        <ele>709</ele>
        <time>2017-09-24T12:07:55.000Z</time>
      </trkpt>
      <trkpt lat="43.36453" lon="2.43997">
        <ele>709</ele>
        <time>2017-09-24T12:07:56.000Z</time>
      </trkpt>
      <trkpt lat="43.36453" lon="2.43998">
        <ele>709</ele>
        <time>2017-09-24T12:07:57.000Z</time>
      </trkpt>
      <trkpt lat="43.36453" lon="2.44">
        <ele>709</ele>
        <time>2017-09-24T12:07:58.000Z</time>
      </trkpt>
      <trkpt lat="43.36453" lon="2.44001">
        <ele>709</ele>
        <time>2017-09-24T12:07:59.000Z</time>
      </trkpt>
      <trkpt lat="43.36453" lon="2.44003">
        <ele>709</ele>
        <time>2017-09-24T12:08:00.000Z</time>
      </trkpt>
      <trkpt lat="43.36453" lon="2.44004">
        <ele>709</ele>
        <time>2017-09-24T12:08:01.000Z</time>
      </trkpt>
      <trkpt lat="43.36453" lon="2.44005">
        <ele>709</ele>
        <time>2017-09-24T12:08:02.000Z</time>
      </trkpt>
      <trkpt lat="43.36453" lon="2.44006">
        <ele>709</ele>
        <time>2017-09-24T12:08:03.000Z</time>
      </trkpt>
      <trkpt lat="43.36453" lon="2.44007">
        <ele>709</ele>
        <time>2017-09-24T12:08:04.000Z</time>
      </trkpt>
      <trkpt lat="43.36453" lon="2.44008">
        <ele>709</ele>
        <time>2017-09-24T12:08:05.000Z</time>
      </trkpt>
      <trkpt lat="43.36452" lon="2.4401">
        <ele>709</ele>
        <time>2017-09-24T12:08:06.000Z</time>
      </trkpt>
      <trkpt lat="43.36452" lon="2.44011">
        <ele>709</ele>
        <time>2017-09-24T12:08:07.000Z</time>
      </trkpt>
      <trkpt lat="43.36452" lon="2.44013">
        <ele>709</ele>
        <time>2017-09-24T12:08:08.000Z</time>
      </trkpt>
      <trkpt lat="43.36452" lon="2.44014">
        <ele>709</ele>
        <time>2017-09-24T12:08:09.000Z</time>
      </trkpt>
      <trkpt lat="43.36452" lon="2.44015">
        <ele>709</ele>
        <time>2017-09-24T12:08:10.000Z</time>
      </trkpt>
      <trkpt lat="43.36451" lon="2.44017">
        <ele>709</ele>
        <time>2017-09-24T12:08:11.000Z</time>
      </trkpt>
      <trkpt lat="43.36451" lon="2.44018">
        <ele>709</ele>
        <time>2017-09-24T12:08:12.000Z</time>
      </trkpt>
      <trkpt lat="43.36451" lon="2.44019">
        <ele>709</ele>
        <time>2017-09-24T12:08:13.000Z</time>
      </trkpt>
      <trkpt lat="43.3645" lon="2.44021">
        <ele>709</ele>
        <time>2017-09-24T12:08:14.000Z</time>
      </trkpt>
      <trkpt lat="43.3645" lon="2.44022">
        <ele>709</ele>
        <time>2017-09-24T12:08:15.000Z</time>
      </trkpt>
      <trkpt lat="43.3645" lon="2.44023">
        <ele>709</ele>
        <time>2017-09-24T12:08:16.000Z</time>
      </trkpt>
      <trkpt lat="43.36449" lon="2.44025">
        <ele>709</ele>
        <time>2017-09-24T12:08:17.000Z</time>
      </trkpt>
      <trkpt lat="43.36449" lon="2.44028">
        <ele>708</ele>
        <time>2017-09-24T12:08:18.000Z</time>
      </trkpt>
      <trkpt lat="43.36449" lon="2.44029">
        <ele>708</ele>
        <time>2017-09-24T12:08:19.000Z</time>
      </trkpt>
      <trkpt lat="43.36449" lon="2.44031">
        <ele>708</ele>
        <time>2017-09-24T12:08:20.000Z</time>
      </trkpt>
      <trkpt lat="43.36449" lon="2.44033">
        <ele>708</ele>
        <time>2017-09-24T12:08:21.000Z</time>
      </trkpt>
      <trkpt lat="43.36449" lon="2.44034">
        <ele>708</ele>
        <time>2017-09-24T12:08:22.000Z</time>
      </trkpt>
      <trkpt lat="43.36448" lon="2.44036">
        <ele>708</ele>
        <time>2017-09-24T12:08:23.000Z</time>
      </trkpt>
      <trkpt lat="43.36447" lon="2.44038">
        <ele>708</ele>
        <time>2017-09-24T12:08:24.000Z</time>
      </trkpt>
      <trkpt lat="43.36447" lon="2.44039">
        <ele>708</ele>
        <time>2017-09-24T12:08:25.000Z</time>
      </trkpt>
      <trkpt lat="43.36447" lon="2.4404">
        <ele>708</ele>
        <time>2017-09-24T12:08:26.000Z</time>
      </trkpt>
      <trkpt lat="43.36447" lon="2.44042">
        <ele>708</ele>
        <time>2017-09-24T12:08:27.000Z</time>
      </trkpt>
      <trkpt lat="43.36446" lon="2.44043">
        <ele>707</ele>
        <time>2017-09-24T12:08:28.000Z</time>
      </trkpt>
      <trkpt lat="43.36446" lon="2.44044">
        <ele>707</ele>
        <time>2017-09-24T12:08:29.000Z</time>
      </trkpt>
      <trkpt lat="43.36445" lon="2.44045">
        <ele>707</ele>
        <time>2017-09-24T12:08:30.000Z</time>
      </trkpt>
      <trkpt lat="43.36444" lon="2.44046">
        <ele>707</ele>
        <time>2017-09-24T12:08:31.000Z</time>
      </trkpt>
      <trkpt lat="43.36443" lon="2.44048">
        <ele>707</ele>
        <time>2017-09-24T12:08:32.000Z</time>
      </trkpt>
      <trkpt lat="43.36443" lon="2.4405">
        <ele>707</ele>
        <time>2017-09-24T12:08:33.000Z</time>
      </trkpt>
      <trkpt lat="43.36443" lon="2.44052">
        <ele>707</ele>
        <time>2017-09-24T12:08:34.000Z</time>
      </trkpt>
      <trkpt lat="43.36443" lon="2.44053">
        <ele>707</ele>
        <time>2017-09-24T12:08:35.000Z</time>
      </trkpt>
      <trkpt lat="43.36443" lon="2.44055">
        <ele>706</ele>
        <time>2017-09-24T12:08:36.000Z</time>
      </trkpt>
      <trkpt lat="43.36442" lon="2.44056">
        <ele>706</ele>
        <time>2017-09-24T12:08:37.000Z</time>
      </trkpt>
      <trkpt lat="43.36441" lon="2.44057">
        <ele>706</ele>
        <time>2017-09-24T12:08:38.000Z</time>
      </trkpt>
      <trkpt lat="43.36441" lon="2.44058">
        <ele>706</ele>
        <time>2017-09-24T12:08:39.000Z</time>
      </trkpt>
      <trkpt lat="43.3644" lon="2.4406">
        <ele>706</ele>
        <time>2017-09-24T12:08:40.000Z</time>
      </trkpt>
      <trkpt lat="43.3644" lon="2.44061">
        <ele>705</ele>
        <time>2017-09-24T12:08:41.000Z</time>
      </trkpt>
      <trkpt lat="43.36439" lon="2.44063">
        <ele>705</ele>
        <time>2017-09-24T12:08:42.000Z</time>
      </trkpt>
      <trkpt lat="43.36439" lon="2.44064">
        <ele>705</ele>
        <time>2017-09-24T12:08:43.000Z</time>
      </trkpt>
      <trkpt lat="43.36438" lon="2.44066">
        <ele>705</ele>
        <time>2017-09-24T12:08:44.000Z</time>
      </trkpt>
      <trkpt lat="43.36438" lon="2.44068">
        <ele>705</ele>
        <time>2017-09-24T12:08:45.000Z</time>
      </trkpt>
      <trkpt lat="43.36437" lon="2.44069">
        <ele>705</ele>
        <time>2017-09-24T12:08:46.000Z</time>
      </trkpt>
      <trkpt lat="43.36437" lon="2.4407">
        <ele>705</ele>
        <time>2017-09-24T12:08:47.000Z</time>
      </trkpt>
      <trkpt lat="43.36436" lon="2.44072">
        <ele>704</ele>
        <time>2017-09-24T12:08:48.000Z</time>
      </trkpt>
      <trkpt lat="43.36435" lon="2.44073">
        <ele>704</ele>
        <time>2017-09-24T12:08:49.000Z</time>
      </trkpt>
      <trkpt lat="43.36435" lon="2.44075">
        <ele>704</ele>
        <time>2017-09-24T12:08:50.000Z</time>
      </trkpt>
      <trkpt lat="43.36434" lon="2.44077">
        <ele>704</ele>
        <time>2017-09-24T12:08:51.000Z</time>
      </trkpt>
      <trkpt lat="43.36433" lon="2.44079">
        <ele>704</ele>
        <time>2017-09-24T12:08:52.000Z</time>
      </trkpt>
      <trkpt lat="43.36432" lon="2.4408">
        <ele>703</ele>
        <time>2017-09-24T12:08:53.000Z</time>
      </trkpt>
      <trkpt lat="43.36431" lon="2.44081">
        <ele>703</ele>
        <time>2017-09-24T12:08:54.000Z</time>
      </trkpt>
      <trkpt lat="43.3643" lon="2.44083">
        <ele>703</ele>
        <time>2017-09-24T12:08:55.000Z</time>
      </trkpt>
      <trkpt lat="43.3643" lon="2.44084">
        <ele>703</ele>
        <time>2017-09-24T12:08:56.000Z</time>
      </trkpt>
      <trkpt lat="43.36429" lon="2.44086">
        <ele>702</ele>
        <time>2017-09-24T12:08:57.000Z</time>
      </trkpt>
      <trkpt lat="43.36428" lon="2.44087">
        <ele>702</ele>
        <time>2017-09-24T12:08:58.000Z</time>
      </trkpt>
      <trkpt lat="43.36427" lon="2.44088">
        <ele>702</ele>
        <time>2017-09-24T12:08:59.000Z</time>
      </trkpt>
      <trkpt lat="43.36426" lon="2.44089">
        <ele>701</ele>
        <time>2017-09-24T12:09:00.000Z</time>
      </trkpt>
      <trkpt lat="43.36425" lon="2.44091">
        <ele>701</ele>
        <time>2017-09-24T12:09:01.000Z</time>
      </trkpt>
      <trkpt lat="43.36425" lon="2.44092">
        <ele>701</ele>
        <time>2017-09-24T12:09:02.000Z</time>
      </trkpt>
      <trkpt lat="43.36424" lon="2.44094">
        <ele>701</ele>
        <time>2017-09-24T12:09:03.000Z</time>
      </trkpt>
      <trkpt lat="43.36424" lon="2.44096">
        <ele>701</ele>
        <time>2017-09-24T12:09:04.000Z</time>
      </trkpt>
      <trkpt lat="43.36423" lon="2.44098">
        <ele>701</ele>
        <time>2017-09-24T12:09:05.000Z</time>
      </trkpt>
      <trkpt lat="43.36423" lon="2.441">
        <ele>700</ele>
        <time>2017-09-24T12:09:06.000Z</time>
      </trkpt>
      <trkpt lat="43.36423" lon="2.44102">
        <ele>701</ele>
        <time>2017-09-24T12:09:07.000Z</time>
      </trkpt>
      <trkpt lat="43.36423" lon="2.44105">
        <ele>701</ele>
        <time>2017-09-24T12:09:08.000Z</time>
      </trkpt>
      <trkpt lat="43.36422" lon="2.44106">
        <ele>700</ele>
        <time>2017-09-24T12:09:09.000Z</time>
      </trkpt>
      <trkpt lat="43.36423" lon="2.44109">
        <ele>701</ele>
        <time>2017-09-24T12:09:10.000Z</time>
      </trkpt>
      <trkpt lat="43.36422" lon="2.44111">
        <ele>700</ele>
        <time>2017-09-24T12:09:11.000Z</time>
      </trkpt>
      <trkpt lat="43.36422" lon="2.44112">
        <ele>700</ele>
        <time>2017-09-24T12:09:12.000Z</time>
      </trkpt>
      <trkpt lat="43.36421" lon="2.44114">
        <ele>700</ele>
        <time>2017-09-24T12:09:13.000Z</time>
      </trkpt>
      <trkpt lat="43.36421" lon="2.44116">
        <ele>700</ele>
        <time>2017-09-24T12:09:14.000Z</time>
      </trkpt>
      <trkpt lat="43.36421" lon="2.44117">
        <ele>700</ele>
        <time>2017-09-24T12:09:15.000Z</time>
      </trkpt>
      <trkpt lat="43.3642" lon="2.44118">
        <ele>700</ele>
        <time>2017-09-24T12:09:16.000Z</time>
      </trkpt>
      <trkpt lat="43.3642" lon="2.4412">
        <ele>700</ele>
        <time>2017-09-24T12:09:17.000Z</time>
      </trkpt>
      <trkpt lat="43.3642" lon="2.44121">
        <ele>700</ele>
        <time>2017-09-24T12:09:18.000Z</time>
      </trkpt>
      <trkpt lat="43.36419" lon="2.44123">
        <ele>700</ele>
        <time>2017-09-24T12:09:19.000Z</time>
      </trkpt>
      <trkpt lat="43.36419" lon="2.44124">
        <ele>700</ele>
        <time>2017-09-24T12:09:20.000Z</time>
      </trkpt>
      <trkpt lat="43.36419" lon="2.44125">
        <ele>700</ele>
        <time>2017-09-24T12:09:21.000Z</time>
      </trkpt>
      <trkpt lat="43.36419" lon="2.44127">
        <ele>699</ele>
        <time>2017-09-24T12:09:22.000Z</time>
      </trkpt>
      <trkpt lat="43.36419" lon="2.44128">
        <ele>700</ele>
        <time>2017-09-24T12:09:23.000Z</time>
      </trkpt>
      <trkpt lat="43.36419" lon="2.4413">
        <ele>700</ele>
        <time>2017-09-24T12:09:24.000Z</time>
      </trkpt>
      <trkpt lat="43.36418" lon="2.44131">
        <ele>699</ele>
        <time>2017-09-24T12:09:25.000Z</time>
      </trkpt>
      <trkpt lat="43.36418" lon="2.44133">
        <ele>699</ele>
        <time>2017-09-24T12:09:26.000Z</time>
      </trkpt>
      <trkpt lat="43.36418" lon="2.44135">
        <ele>699</ele>
        <time>2017-09-24T12:09:27.000Z</time>
      </trkpt>
      <trkpt lat="43.36417" lon="2.44136">
        <ele>699</ele>
        <time>2017-09-24T12:09:28.000Z</time>
      </trkpt>
      <trkpt lat="43.36417" lon="2.44138">
        <ele>699</ele>
        <time>2017-09-24T12:09:29.000Z</time>
      </trkpt>
      <trkpt lat="43.36417" lon="2.44139">
        <ele>699</ele>
        <time>2017-09-24T12:09:30.000Z</time>
      </trkpt>
      <trkpt lat="43.36417" lon="2.44141">
        <ele>699</ele>
        <time>2017-09-24T12:09:31.000Z</time>
      </trkpt>
      <trkpt lat="43.36416" lon="2.44143">
        <ele>699</ele>
        <time>2017-09-24T12:09:32.000Z</time>
      </trkpt>
      <trkpt lat="43.36416" lon="2.44145">
        <ele>699</ele>
        <time>2017-09-24T12:09:33.000Z</time>
      </trkpt>
      <trkpt lat="43.36416" lon="2.44147">
        <ele>699</ele>
        <time>2017-09-24T12:09:34.000Z</time>
      </trkpt>
      <trkpt lat="43.36416" lon="2.44148">
        <ele>699</ele>
        <time>2017-09-24T12:09:35.000Z</time>
      </trkpt>
      <trkpt lat="43.36416" lon="2.4415">
        <ele>699</ele>
        <time>2017-09-24T12:09:36.000Z</time>
      </trkpt>
      <trkpt lat="43.36416" lon="2.44152">
        <ele>699</ele>
        <time>2017-09-24T12:09:37.000Z</time>
      </trkpt>
      <trkpt lat="43.36416" lon="2.44154">
        <ele>699</ele>
        <time>2017-09-24T12:09:38.000Z</time>
      </trkpt>
      <trkpt lat="43.36416" lon="2.44156">
        <ele>699</ele>
        <time>2017-09-24T12:09:39.000Z</time>
      </trkpt>
      <trkpt lat="43.36415" lon="2.44158">
        <ele>699</ele>
        <time>2017-09-24T12:09:40.000Z</time>
      </trkpt>
      <trkpt lat="43.36416" lon="2.4416">
        <ele>699</ele>
        <time>2017-09-24T12:09:41.000Z</time>
      </trkpt>
      <trkpt lat="43.36416" lon="2.44161">
        <ele>699</ele>
        <time>2017-09-24T12:09:42.000Z</time>
      </trkpt>
      <trkpt lat="43.36415" lon="2.44163">
        <ele>699</ele>
        <time>2017-09-24T12:09:43.000Z</time>
      </trkpt>
      <trkpt lat="43.36414" lon="2.44164">
        <ele>699</ele>
        <time>2017-09-24T12:09:44.000Z</time>
      </trkpt>
      <trkpt lat="43.36414" lon="2.44166">
        <ele>699</ele>
        <time>2017-09-24T12:09:45.000Z</time>
      </trkpt>
      <trkpt lat="43.36413" lon="2.44168">
        <ele>699</ele>
        <time>2017-09-24T12:09:46.000Z</time>
      </trkpt>
      <trkpt lat="43.36413" lon="2.4417">
        <ele>699</ele>
        <time>2017-09-24T12:09:47.000Z</time>
      </trkpt>
      <trkpt lat="43.36413" lon="2.44172">
        <ele>699</ele>
        <time>2017-09-24T12:09:48.000Z</time>
      </trkpt>
      <trkpt lat="43.36413" lon="2.44174">
        <ele>699</ele>
        <time>2017-09-24T12:09:49.000Z</time>
      </trkpt>
      <trkpt lat="43.36413" lon="2.44175">
        <ele>699</ele>
        <time>2017-09-24T12:09:50.000Z</time>
      </trkpt>
      <trkpt lat="43.36412" lon="2.44177">
        <ele>698</ele>
        <time>2017-09-24T12:09:51.000Z</time>
      </trkpt>
      <trkpt lat="43.36412" lon="2.44179">
        <ele>698</ele>
        <time>2017-09-24T12:09:52.000Z</time>
      </trkpt>
      <trkpt lat="43.36411" lon="2.44181">
        <ele>698</ele>
        <time>2017-09-24T12:09:53.000Z</time>
      </trkpt>
      <trkpt lat="43.36411" lon="2.44182">
        <ele>698</ele>
        <time>2017-09-24T12:09:54.000Z</time>
      </trkpt>
      <trkpt lat="43.36411" lon="2.44184">
        <ele>698</ele>
        <time>2017-09-24T12:09:55.000Z</time>
      </trkpt>
      <trkpt lat="43.36411" lon="2.44186">
        <ele>698</ele>
        <time>2017-09-24T12:09:56.000Z</time>
      </trkpt>
      <trkpt lat="43.36411" lon="2.44188">
        <ele>698</ele>
        <time>2017-09-24T12:09:57.000Z</time>
      </trkpt>
      <trkpt lat="43.36411" lon="2.44189">
        <ele>698</ele>
        <time>2017-09-24T12:09:58.000Z</time>
      </trkpt>
      <trkpt lat="43.36411" lon="2.44191">
        <ele>698</ele>
        <time>2017-09-24T12:09:59.000Z</time>
      </trkpt>
      <trkpt lat="43.36411" lon="2.44193">
        <ele>698</ele>
        <time>2017-09-24T12:10:00.000Z</time>
      </trkpt>
      <trkpt lat="43.36411" lon="2.44195">
        <ele>698</ele>
        <time>2017-09-24T12:10:01.000Z</time>
      </trkpt>
      <trkpt lat="43.36411" lon="2.44197">
        <ele>698</ele>
        <time>2017-09-24T12:10:02.000Z</time>
      </trkpt>
      <trkpt lat="43.36411" lon="2.44198">
        <ele>698</ele>
        <time>2017-09-24T12:10:03.000Z</time>
      </trkpt>
      <trkpt lat="43.36411" lon="2.442">
        <ele>698</ele>
        <time>2017-09-24T12:10:04.000Z</time>
      </trkpt>
      <trkpt lat="43.36411" lon="2.44203">
        <ele>698</ele>
        <time>2017-09-24T12:10:05.000Z</time>
      </trkpt>
      <trkpt lat="43.36411" lon="2.44204">
        <ele>698</ele>
        <time>2017-09-24T12:10:06.000Z</time>
      </trkpt>
      <trkpt lat="43.36411" lon="2.44206">
        <ele>698</ele>
        <time>2017-09-24T12:10:07.000Z</time>
      </trkpt>
      <trkpt lat="43.36411" lon="2.44208">
        <ele>698</ele>
        <time>2017-09-24T12:10:08.000Z</time>
      </trkpt>
      <trkpt lat="43.36411" lon="2.4421">
        <ele>698</ele>
        <time>2017-09-24T12:10:09.000Z</time>
      </trkpt>
      <trkpt lat="43.36411" lon="2.44211">
        <ele>698</ele>
        <time>2017-09-24T12:10:10.000Z</time>
      </trkpt>
      <trkpt lat="43.36411" lon="2.44212">
        <ele>698</ele>
        <time>2017-09-24T12:10:11.000Z</time>
      </trkpt>
      <trkpt lat="43.36411" lon="2.44214">
        <ele>698</ele>
        <time>2017-09-24T12:10:12.000Z</time>
      </trkpt>
      <trkpt lat="43.36411" lon="2.44215">
        <ele>698</ele>
        <time>2017-09-24T12:10:13.000Z</time>
      </trkpt>
      <trkpt lat="43.36411" lon="2.44216">
        <ele>698</ele>
        <time>2017-09-24T12:10:14.000Z</time>
      </trkpt>
      <trkpt lat="43.36411" lon="2.44217">
        <ele>698</ele>
        <time>2017-09-24T12:10:15.000Z</time>
      </trkpt>
      <trkpt lat="43.36411" lon="2.44219">
        <ele>698</ele>
        <time>2017-09-24T12:10:16.000Z</time>
      </trkpt>
      <trkpt lat="43.36411" lon="2.4422">
        <ele>698</ele>
        <time>2017-09-24T12:10:17.000Z</time>
      </trkpt>
      <trkpt lat="43.36411" lon="2.44222">
        <ele>698</ele>
        <time>2017-09-24T12:10:18.000Z</time>
      </trkpt>
      <trkpt lat="43.36411" lon="2.44223">
        <ele>697</ele>
        <time>2017-09-24T12:10:19.000Z</time>
      </trkpt>
      <trkpt lat="43.36411" lon="2.44225">
        <ele>697</ele>
        <time>2017-09-24T12:10:20.000Z</time>
      </trkpt>
      <trkpt lat="43.36411" lon="2.44227">
        <ele>697</ele>
        <time>2017-09-24T12:10:21.000Z</time>
      </trkpt>
      <trkpt lat="43.36411" lon="2.44228">
        <ele>697</ele>
        <time>2017-09-24T12:10:22.000Z</time>
      </trkpt>
      <trkpt lat="43.36411" lon="2.4423">
        <ele>697</ele>
        <time>2017-09-24T12:10:23.000Z</time>
      </trkpt>
      <trkpt lat="43.36411" lon="2.44232">
        <ele>697</ele>
        <time>2017-09-24T12:10:24.000Z</time>
      </trkpt>
      <trkpt lat="43.36411" lon="2.44234">
        <ele>697</ele>
        <time>2017-09-24T12:10:25.000Z</time>
      </trkpt>
      <trkpt lat="43.36411" lon="2.44235">
        <ele>697</ele>
        <time>2017-09-24T12:10:26.000Z</time>
      </trkpt>
      <trkpt lat="43.36411" lon="2.44237">
        <ele>697</ele>
        <time>2017-09-24T12:10:27.000Z</time>
      </trkpt>
      <trkpt lat="43.36411" lon="2.44238">
        <ele>697</ele>
        <time>2017-09-24T12:10:28.000Z</time>
      </trkpt>
      <trkpt lat="43.36411" lon="2.4424">
        <ele>697</ele>
        <time>2017-09-24T12:10:29.000Z</time>
      </trkpt>
      <trkpt lat="43.36411" lon="2.44242">
        <ele>697</ele>
        <time>2017-09-24T12:10:30.000Z</time>
      </trkpt>
      <trkpt lat="43.36411" lon="2.44244">
        <ele>697</ele>
        <time>2017-09-24T12:10:31.000Z</time>
      </trkpt>
      <trkpt lat="43.36411" lon="2.44246">
        <ele>697</ele>
        <time>2017-09-24T12:10:32.000Z</time>
      </trkpt>
      <trkpt lat="43.36411" lon="2.44247">
        <ele>697</ele>
        <time>2017-09-24T12:10:33.000Z</time>
      </trkpt>
      <trkpt lat="43.36411" lon="2.44249">
        <ele>697</ele>
        <time>2017-09-24T12:10:34.000Z</time>
      </trkpt>
      <trkpt lat="43.36411" lon="2.44251">
        <ele>697</ele>
        <time>2017-09-24T12:10:35.000Z</time>
      </trkpt>
      <trkpt lat="43.36411" lon="2.44252">
        <ele>697</ele>
        <time>2017-09-24T12:10:36.000Z</time>
      </trkpt>
      <trkpt lat="43.36411" lon="2.44254">
        <ele>697</ele>
        <time>2017-09-24T12:10:37.000Z</time>
      </trkpt>
      <trkpt lat="43.36411" lon="2.44256">
        <ele>697</ele>
        <time>2017-09-24T12:10:38.000Z</time>
      </trkpt>
      <trkpt lat="43.36411" lon="2.44257">
        <ele>697</ele>
        <time>2017-09-24T12:10:39.000Z</time>
      </trkpt>
      <trkpt lat="43.36411" lon="2.44258">
        <ele>696</ele>
        <time>2017-09-24T12:10:40.000Z</time>
      </trkpt>
      <trkpt lat="43.36411" lon="2.4426">
        <ele>696</ele>
        <time>2017-09-24T12:10:41.000Z</time>
      </trkpt>
      <trkpt lat="43.36411" lon="2.44261">
        <ele>696</ele>
        <time>2017-09-24T12:10:42.000Z</time>
      </trkpt>
      <trkpt lat="43.36411" lon="2.44263">
        <ele>696</ele>
        <time>2017-09-24T12:10:43.000Z</time>
      </trkpt>
      <trkpt lat="43.36411" lon="2.44264">
        <ele>696</ele>
        <time>2017-09-24T12:10:44.000Z</time>
      </trkpt>
      <trkpt lat="43.36411" lon="2.44266">
        <ele>696</ele>
        <time>2017-09-24T12:10:45.000Z</time>
      </trkpt>
      <trkpt lat="43.36411" lon="2.44268">
        <ele>696</ele>
        <time>2017-09-24T12:10:46.000Z</time>
      </trkpt>
      <trkpt lat="43.36411" lon="2.44269">
        <ele>696</ele>
        <time>2017-09-24T12:10:47.000Z</time>
      </trkpt>
      <trkpt lat="43.36411" lon="2.4427">
        <ele>696</ele>
        <time>2017-09-24T12:10:48.000Z</time>
      </trkpt>
      <trkpt lat="43.36411" lon="2.44272">
        <ele>696</ele>
        <time>2017-09-24T12:10:49.000Z</time>
      </trkpt>
      <trkpt lat="43.36411" lon="2.44274">
        <ele>696</ele>
        <time>2017-09-24T12:10:50.000Z</time>
      </trkpt>
      <trkpt lat="43.36411" lon="2.44275">
        <ele>696</ele>
        <time>2017-09-24T12:10:51.000Z</time>
      </trkpt>
      <trkpt lat="43.3641" lon="2.44276">
        <ele>696</ele>
        <time>2017-09-24T12:10:52.000Z</time>
      </trkpt>
      <trkpt lat="43.3641" lon="2.44278">
        <ele>696</ele>
        <time>2017-09-24T12:10:53.000Z</time>
      </trkpt>
      <trkpt lat="43.3641" lon="2.44279">
        <ele>696</ele>
        <time>2017-09-24T12:10:54.000Z</time>
      </trkpt>
      <trkpt lat="43.36411" lon="2.4428">
        <ele>696</ele>
        <time>2017-09-24T12:10:55.000Z</time>
      </trkpt>
      <trkpt lat="43.3641" lon="2.44282">
        <ele>696</ele>
        <time>2017-09-24T12:10:56.000Z</time>
      </trkpt>
      <trkpt lat="43.3641" lon="2.44283">
        <ele>696</ele>
        <time>2017-09-24T12:10:57.000Z</time>
      </trkpt>
      <trkpt lat="43.36411" lon="2.44285">
        <ele>696</ele>
        <time>2017-09-24T12:10:58.000Z</time>
      </trkpt>
      <trkpt lat="43.36411" lon="2.44287">
        <ele>696</ele>
        <time>2017-09-24T12:10:59.000Z</time>
      </trkpt>
      <trkpt lat="43.36411" lon="2.44288">
        <ele>696</ele>
        <time>2017-09-24T12:11:00.000Z</time>
      </trkpt>
      <trkpt lat="43.36411" lon="2.4429">
        <ele>696</ele>
        <time>2017-09-24T12:11:01.000Z</time>
      </trkpt>
      <trkpt lat="43.36411" lon="2.44292">
        <ele>696</ele>
        <time>2017-09-24T12:11:02.000Z</time>
      </trkpt>
      <trkpt lat="43.36411" lon="2.44294">
        <ele>696</ele>
        <time>2017-09-24T12:11:03.000Z</time>
      </trkpt>
      <trkpt lat="43.36412" lon="2.44295">
        <ele>696</ele>
        <time>2017-09-24T12:11:04.000Z</time>
      </trkpt>
      <trkpt lat="43.36412" lon="2.44297">
        <ele>696</ele>
        <time>2017-09-24T12:11:05.000Z</time>
      </trkpt>
      <trkpt lat="43.36412" lon="2.44299">
        <ele>696</ele>
        <time>2017-09-24T12:11:06.000Z</time>
      </trkpt>
      <trkpt lat="43.36412" lon="2.44301">
        <ele>696</ele>
        <time>2017-09-24T12:11:07.000Z</time>
      </trkpt>
      <trkpt lat="43.36412" lon="2.44303">
        <ele>696</ele>
        <time>2017-09-24T12:11:08.000Z</time>
      </trkpt>
      <trkpt lat="43.36412" lon="2.44304">
        <ele>696</ele>
        <time>2017-09-24T12:11:09.000Z</time>
      </trkpt>
      <trkpt lat="43.36412" lon="2.44306">
        <ele>696</ele>
        <time>2017-09-24T12:11:10.000Z</time>
      </trkpt>
      <trkpt lat="43.36412" lon="2.44308">
        <ele>696</ele>
        <time>2017-09-24T12:11:11.000Z</time>
      </trkpt>
      <trkpt lat="43.36412" lon="2.44309">
        <ele>696</ele>
        <time>2017-09-24T12:11:12.000Z</time>
      </trkpt>
      <trkpt lat="43.36413" lon="2.44311">
        <ele>696</ele>
        <time>2017-09-24T12:11:13.000Z</time>
      </trkpt>
      <trkpt lat="43.36413" lon="2.44312">
        <ele>696</ele>
        <time>2017-09-24T12:11:14.000Z</time>
      </trkpt>
      <trkpt lat="43.36413" lon="2.44314">
        <ele>696</ele>
        <time>2017-09-24T12:11:15.000Z</time>
      </trkpt>
      <trkpt lat="43.36413" lon="2.44315">
        <ele>696</ele>
        <time>2017-09-24T12:11:16.000Z</time>
      </trkpt>
      <trkpt lat="43.36413" lon="2.44317">
        <ele>696</ele>
        <time>2017-09-24T12:11:17.000Z</time>
      </trkpt>
      <trkpt lat="43.36413" lon="2.44319">
        <ele>696</ele>
        <time>2017-09-24T12:11:18.000Z</time>
      </trkpt>
      <trkpt lat="43.36413" lon="2.4432">
        <ele>696</ele>
        <time>2017-09-24T12:11:19.000Z</time>
      </trkpt>
      <trkpt lat="43.36413" lon="2.44322">
        <ele>696</ele>
        <time>2017-09-24T12:11:20.000Z</time>
      </trkpt>
      <trkpt lat="43.36413" lon="2.44324">
        <ele>696</ele>
        <time>2017-09-24T12:11:21.000Z</time>
      </trkpt>
      <trkpt lat="43.36413" lon="2.44326">
        <ele>696</ele>
        <time>2017-09-24T12:11:22.000Z</time>
      </trkpt>
      <trkpt lat="43.36413" lon="2.44327">
        <ele>696</ele>
        <time>2017-09-24T12:11:23.000Z</time>
      </trkpt>
      <trkpt lat="43.36413" lon="2.44329">
        <ele>696</ele>
        <time>2017-09-24T12:11:24.000Z</time>
      </trkpt>
      <trkpt lat="43.36413" lon="2.44331">
        <ele>696</ele>
        <time>2017-09-24T12:11:25.000Z</time>
      </trkpt>
      <trkpt lat="43.36414" lon="2.44333">
        <ele>696</ele>
        <time>2017-09-24T12:11:26.000Z</time>
      </trkpt>
      <trkpt lat="43.36414" lon="2.44335">
        <ele>696</ele>
        <time>2017-09-24T12:11:27.000Z</time>
      </trkpt>
      <trkpt lat="43.36414" lon="2.44336">
        <ele>696</ele>
        <time>2017-09-24T12:11:28.000Z</time>
      </trkpt>
      <trkpt lat="43.36414" lon="2.44338">
        <ele>697</ele>
        <time>2017-09-24T12:11:29.000Z</time>
      </trkpt>
      <trkpt lat="43.36414" lon="2.4434">
        <ele>697</ele>
        <time>2017-09-24T12:11:30.000Z</time>
      </trkpt>
      <trkpt lat="43.36414" lon="2.44342">
        <ele>697</ele>
        <time>2017-09-24T12:11:31.000Z</time>
      </trkpt>
      <trkpt lat="43.36414" lon="2.44343">
        <ele>697</ele>
        <time>2017-09-24T12:11:32.000Z</time>
      </trkpt>
      <trkpt lat="43.36414" lon="2.44345">
        <ele>697</ele>
        <time>2017-09-24T12:11:33.000Z</time>
      </trkpt>
      <trkpt lat="43.36414" lon="2.44347">
        <ele>697</ele>
        <time>2017-09-24T12:11:34.000Z</time>
      </trkpt>
      <trkpt lat="43.36414" lon="2.44349">
        <ele>697</ele>
        <time>2017-09-24T12:11:35.000Z</time>
      </trkpt>
      <trkpt lat="43.36414" lon="2.4435">
        <ele>697</ele>
        <time>2017-09-24T12:11:36.000Z</time>
      </trkpt>
      <trkpt lat="43.36414" lon="2.44352">
        <ele>697</ele>
        <time>2017-09-24T12:11:37.000Z</time>
      </trkpt>
      <trkpt lat="43.36413" lon="2.44354">
        <ele>697</ele>
        <time>2017-09-24T12:11:38.000Z</time>
      </trkpt>
      <trkpt lat="43.36414" lon="2.44356">
        <ele>697</ele>
        <time>2017-09-24T12:11:39.000Z</time>
      </trkpt>
      <trkpt lat="43.36413" lon="2.44357">
        <ele>697</ele>
        <time>2017-09-24T12:11:40.000Z</time>
      </trkpt>
      <trkpt lat="43.36413" lon="2.44359">
        <ele>697</ele>
        <time>2017-09-24T12:11:41.000Z</time>
      </trkpt>
      <trkpt lat="43.36413" lon="2.44361">
        <ele>697</ele>
        <time>2017-09-24T12:11:42.000Z</time>
      </trkpt>
      <trkpt lat="43.36414" lon="2.44362">
        <ele>698</ele>
        <time>2017-09-24T12:11:43.000Z</time>
      </trkpt>
      <trkpt lat="43.36414" lon="2.44364">
        <ele>698</ele>
        <time>2017-09-24T12:11:44.000Z</time>
      </trkpt>
      <trkpt lat="43.36414" lon="2.44365">
        <ele>698</ele>
        <time>2017-09-24T12:11:45.000Z</time>
      </trkpt>
      <trkpt lat="43.36414" lon="2.44367">
        <ele>698</ele>
        <time>2017-09-24T12:11:46.000Z</time>
      </trkpt>
      <trkpt lat="43.36414" lon="2.44368">
        <ele>698</ele>
        <time>2017-09-24T12:11:47.000Z</time>
      </trkpt>
      <trkpt lat="43.36414" lon="2.4437">
        <ele>698</ele>
        <time>2017-09-24T12:11:48.000Z</time>
      </trkpt>
      <trkpt lat="43.36414" lon="2.44371">
        <ele>698</ele>
        <time>2017-09-24T12:11:49.000Z</time>
      </trkpt>
      <trkpt lat="43.36413" lon="2.44373">
        <ele>698</ele>
        <time>2017-09-24T12:11:50.000Z</time>
      </trkpt>
      <trkpt lat="43.36413" lon="2.44374">
        <ele>698</ele>
        <time>2017-09-24T12:11:51.000Z</time>
      </trkpt>
      <trkpt lat="43.36413" lon="2.44376">
        <ele>698</ele>
        <time>2017-09-24T12:11:52.000Z</time>
      </trkpt>
      <trkpt lat="43.36412" lon="2.44377">
        <ele>698</ele>
        <time>2017-09-24T12:11:53.000Z</time>
      </trkpt>
      <trkpt lat="43.36412" lon="2.44379">
        <ele>698</ele>
        <time>2017-09-24T12:11:54.000Z</time>
      </trkpt>
      <trkpt lat="43.36412" lon="2.4438">
        <ele>698</ele>
        <time>2017-09-24T12:11:55.000Z</time>
      </trkpt>
      <trkpt lat="43.36412" lon="2.44382">
        <ele>698</ele>
        <time>2017-09-24T12:11:56.000Z</time>
      </trkpt>
      <trkpt lat="43.36412" lon="2.44383">
        <ele>698</ele>
        <time>2017-09-24T12:11:57.000Z</time>
      </trkpt>
      <trkpt lat="43.36412" lon="2.44385">
        <ele>698</ele>
        <time>2017-09-24T12:11:58.000Z</time>
      </trkpt>
      <trkpt lat="43.36412" lon="2.44386">
        <ele>698</ele>
        <time>2017-09-24T12:11:59.000Z</time>
      </trkpt>
      <trkpt lat="43.36412" lon="2.44387">
        <ele>698</ele>
        <time>2017-09-24T12:12:00.000Z</time>
      </trkpt>
      <trkpt lat="43.36411" lon="2.44389">
        <ele>698</ele>
        <time>2017-09-24T12:12:01.000Z</time>
      </trkpt>
      <trkpt lat="43.36411" lon="2.4439">
        <ele>698</ele>
        <time>2017-09-24T12:12:02.000Z</time>
      </trkpt>
      <trkpt lat="43.36411" lon="2.44392">
        <ele>698</ele>
        <time>2017-09-24T12:12:03.000Z</time>
      </trkpt>
      <trkpt lat="43.36411" lon="2.44394">
        <ele>698</ele>
        <time>2017-09-24T12:12:04.000Z</time>
      </trkpt>
      <trkpt lat="43.36411" lon="2.44395">
        <ele>698</ele>
        <time>2017-09-24T12:12:05.000Z</time>
      </trkpt>
      <trkpt lat="43.36411" lon="2.44397">
        <ele>699</ele>
        <time>2017-09-24T12:12:06.000Z</time>
      </trkpt>
      <trkpt lat="43.3641" lon="2.44398">
        <ele>699</ele>
        <time>2017-09-24T12:12:07.000Z</time>
      </trkpt>
      <trkpt lat="43.36411" lon="2.444">
        <ele>699</ele>
        <time>2017-09-24T12:12:08.000Z</time>
      </trkpt>
      <trkpt lat="43.3641" lon="2.44401">
        <ele>699</ele>
        <time>2017-09-24T12:12:09.000Z</time>
      </trkpt>
      <trkpt lat="43.3641" lon="2.44402">
        <ele>700</ele>
        <time>2017-09-24T12:12:10.000Z</time>
      </trkpt>
      <trkpt lat="43.3641" lon="2.44403">
        <ele>700</ele>
        <time>2017-09-24T12:12:11.000Z</time>
      </trkpt>
      <trkpt lat="43.3641" lon="2.44404">
        <ele>700</ele>
        <time>2017-09-24T12:12:12.000Z</time>
      </trkpt>
      <trkpt lat="43.3641" lon="2.44406">
        <ele>700</ele>
        <time>2017-09-24T12:12:13.000Z</time>
      </trkpt>
      <trkpt lat="43.36411" lon="2.44407">
        <ele>701</ele>
        <time>2017-09-24T12:12:14.000Z</time>
      </trkpt>
      <trkpt lat="43.36411" lon="2.44409">
        <ele>701</ele>
        <time>2017-09-24T12:12:15.000Z</time>
      </trkpt>
      <trkpt lat="43.36411" lon="2.4441">
        <ele>701</ele>
        <time>2017-09-24T12:12:16.000Z</time>
      </trkpt>
      <trkpt lat="43.36412" lon="2.44411">
        <ele>702</ele>
        <time>2017-09-24T12:12:17.000Z</time>
      </trkpt>
      <trkpt lat="43.36412" lon="2.44412">
        <ele>702</ele>
        <time>2017-09-24T12:12:18.000Z</time>
      </trkpt>
      <trkpt lat="43.36413" lon="2.44414">
        <ele>702</ele>
        <time>2017-09-24T12:12:19.000Z</time>
      </trkpt>
      <trkpt lat="43.36412" lon="2.44415">
        <ele>702</ele>
        <time>2017-09-24T12:12:20.000Z</time>
      </trkpt>
      <trkpt lat="43.36412" lon="2.44416">
        <ele>703</ele>
        <time>2017-09-24T12:12:21.000Z</time>
      </trkpt>
      <trkpt lat="43.36413" lon="2.44417">
        <ele>703</ele>
        <time>2017-09-24T12:12:22.000Z</time>
      </trkpt>
      <trkpt lat="43.36413" lon="2.44418">
        <ele>703</ele>
        <time>2017-09-24T12:12:23.000Z</time>
      </trkpt>
      <trkpt lat="43.36414" lon="2.4442">
        <ele>703</ele>
        <time>2017-09-24T12:12:24.000Z</time>
      </trkpt>
      <trkpt lat="43.36415" lon="2.44421">
        <ele>703</ele>
        <time>2017-09-24T12:12:25.000Z</time>
      </trkpt>
      <trkpt lat="43.36416" lon="2.44423">
        <ele>703</ele>
        <time>2017-09-24T12:12:26.000Z</time>
      </trkpt>
      <trkpt lat="43.36416" lon="2.44424">
        <ele>703</ele>
        <time>2017-09-24T12:12:27.000Z</time>
      </trkpt>
      <trkpt lat="43.36416" lon="2.44425">
        <ele>703</ele>
        <time>2017-09-24T12:12:28.000Z</time>
      </trkpt>
      <trkpt lat="43.36416" lon="2.44426">
        <ele>703</ele>
        <time>2017-09-24T12:12:29.000Z</time>
      </trkpt>
      <trkpt lat="43.36416" lon="2.44428">
        <ele>703</ele>
        <time>2017-09-24T12:12:30.000Z</time>
      </trkpt>
      <trkpt lat="43.36417" lon="2.44429">
        <ele>703</ele>
        <time>2017-09-24T12:12:31.000Z</time>
      </trkpt>
      <trkpt lat="43.36417" lon="2.4443">
        <ele>703</ele>
        <time>2017-09-24T12:12:32.000Z</time>
      </trkpt>
      <trkpt lat="43.36417" lon="2.44432">
        <ele>704</ele>
        <time>2017-09-24T12:12:33.000Z</time>
      </trkpt>
      <trkpt lat="43.36417" lon="2.44433">
        <ele>704</ele>
        <time>2017-09-24T12:12:34.000Z</time>
      </trkpt>
      <trkpt lat="43.36418" lon="2.44435">
        <ele>704</ele>
        <time>2017-09-24T12:12:35.000Z</time>
      </trkpt>
      <trkpt lat="43.36418" lon="2.44436">
        <ele>704</ele>
        <time>2017-09-24T12:12:36.000Z</time>
      </trkpt>
      <trkpt lat="43.36418" lon="2.44438">
        <ele>704</ele>
        <time>2017-09-24T12:12:37.000Z</time>
      </trkpt>
      <trkpt lat="43.36418" lon="2.44439">
        <ele>704</ele>
        <time>2017-09-24T12:12:38.000Z</time>
      </trkpt>
      <trkpt lat="43.36418" lon="2.44441">
        <ele>704</ele>
        <time>2017-09-24T12:12:39.000Z</time>
      </trkpt>
      <trkpt lat="43.36418" lon="2.44443">
        <ele>704</ele>
        <time>2017-09-24T12:12:40.000Z</time>
      </trkpt>
      <trkpt lat="43.36418" lon="2.44444">
        <ele>704</ele>
        <time>2017-09-24T12:12:41.000Z</time>
      </trkpt>
      <trkpt lat="43.36418" lon="2.44446">
        <ele>704</ele>
        <time>2017-09-24T12:12:42.000Z</time>
      </trkpt>
      <trkpt lat="43.36418" lon="2.44447">
        <ele>704</ele>
        <time>2017-09-24T12:12:43.000Z</time>
      </trkpt>
      <trkpt lat="43.36418" lon="2.44449">
        <ele>704</ele>
        <time>2017-09-24T12:12:44.000Z</time>
      </trkpt>
      <trkpt lat="43.36417" lon="2.4445">
        <ele>704</ele>
        <time>2017-09-24T12:12:45.000Z</time>
      </trkpt>
      <trkpt lat="43.36417" lon="2.4445">
        <ele>704</ele>
        <time>2017-09-24T12:12:46.000Z</time>
      </trkpt>
      <trkpt lat="43.36416" lon="2.44451">
        <ele>704</ele>
        <time>2017-09-24T12:12:47.000Z</time>
      </trkpt>
      <trkpt lat="43.36416" lon="2.44452">
        <ele>704</ele>
        <time>2017-09-24T12:12:48.000Z</time>
      </trkpt>
      <trkpt lat="43.36415" lon="2.44453">
        <ele>704</ele>
        <time>2017-09-24T12:12:49.000Z</time>
      </trkpt>
      <trkpt lat="43.36415" lon="2.44454">
        <ele>704</ele>
        <time>2017-09-24T12:12:50.000Z</time>
      </trkpt>
      <trkpt lat="43.36414" lon="2.44455">
        <ele>704</ele>
        <time>2017-09-24T12:12:51.000Z</time>
      </trkpt>
      <trkpt lat="43.36413" lon="2.44456">
        <ele>704</ele>
        <time>2017-09-24T12:12:52.000Z</time>
      </trkpt>
      <trkpt lat="43.36412" lon="2.44457">
        <ele>703</ele>
        <time>2017-09-24T12:12:53.000Z</time>
      </trkpt>
      <trkpt lat="43.36411" lon="2.44458">
        <ele>703</ele>
        <time>2017-09-24T12:12:54.000Z</time>
      </trkpt>
      <trkpt lat="43.3641" lon="2.44459">
        <ele>703</ele>
        <time>2017-09-24T12:12:55.000Z</time>
      </trkpt>
      <trkpt lat="43.36409" lon="2.4446">
        <ele>703</ele>
        <time>2017-09-24T12:12:56.000Z</time>
      </trkpt>
      <trkpt lat="43.36408" lon="2.44461">
        <ele>703</ele>
        <time>2017-09-24T12:12:57.000Z</time>
      </trkpt>
      <trkpt lat="43.36407" lon="2.44461">
        <ele>703</ele>
        <time>2017-09-24T12:12:58.000Z</time>
      </trkpt>
      <trkpt lat="43.36406" lon="2.44462">
        <ele>703</ele>
        <time>2017-09-24T12:12:59.000Z</time>
      </trkpt>
      <trkpt lat="43.36406" lon="2.44462">
        <ele>703</ele>
        <time>2017-09-24T12:13:00.000Z</time>
      </trkpt>
      <trkpt lat="43.36405" lon="2.44463">
        <ele>703</ele>
        <time>2017-09-24T12:13:01.000Z</time>
      </trkpt>
      <trkpt lat="43.36404" lon="2.44464">
        <ele>703</ele>
        <time>2017-09-24T12:13:02.000Z</time>
      </trkpt>
      <trkpt lat="43.36403" lon="2.44465">
        <ele>702</ele>
        <time>2017-09-24T12:13:03.000Z</time>
      </trkpt>
      <trkpt lat="43.36402" lon="2.44466">
        <ele>702</ele>
        <time>2017-09-24T12:13:04.000Z</time>
      </trkpt>
      <trkpt lat="43.36401" lon="2.44466">
        <ele>702</ele>
        <time>2017-09-24T12:13:05.000Z</time>
      </trkpt>
      <trkpt lat="43.364" lon="2.44466">
        <ele>702</ele>
        <time>2017-09-24T12:13:06.000Z</time>
      </trkpt>
      <trkpt lat="43.36398" lon="2.44466">
        <ele>702</ele>
        <time>2017-09-24T12:13:07.000Z</time>
      </trkpt>
      <trkpt lat="43.36397" lon="2.44467">
        <ele>702</ele>
        <time>2017-09-24T12:13:08.000Z</time>
      </trkpt>
      <trkpt lat="43.36397" lon="2.44467">
        <ele>702</ele>
        <time>2017-09-24T12:13:09.000Z</time>
      </trkpt>
      <trkpt lat="43.36396" lon="2.44468">
        <ele>702</ele>
        <time>2017-09-24T12:13:10.000Z</time>
      </trkpt>
      <trkpt lat="43.36396" lon="2.44469">
        <ele>702</ele>
        <time>2017-09-24T12:13:11.000Z</time>
      </trkpt>
      <trkpt lat="43.36395" lon="2.4447">
        <ele>702</ele>
        <time>2017-09-24T12:13:12.000Z</time>
      </trkpt>
      <trkpt lat="43.36395" lon="2.4447">
        <ele>703</ele>
        <time>2017-09-24T12:13:13.000Z</time>
      </trkpt>
      <trkpt lat="43.36394" lon="2.44471">
        <ele>703</ele>
        <time>2017-09-24T12:13:14.000Z</time>
      </trkpt>
      <trkpt lat="43.36393" lon="2.44472">
        <ele>703</ele>
        <time>2017-09-24T12:13:15.000Z</time>
      </trkpt>
      <trkpt lat="43.36392" lon="2.44473">
        <ele>703</ele>
        <time>2017-09-24T12:13:16.000Z</time>
      </trkpt>
      <trkpt lat="43.36392" lon="2.44473">
        <ele>703</ele>
        <time>2017-09-24T12:13:17.000Z</time>
      </trkpt>
      <trkpt lat="43.36391" lon="2.44474">
        <ele>703</ele>
        <time>2017-09-24T12:13:18.000Z</time>
      </trkpt>
      <trkpt lat="43.3639" lon="2.44475">
        <ele>703</ele>
        <time>2017-09-24T12:13:19.000Z</time>
      </trkpt>
      <trkpt lat="43.36389" lon="2.44475">
        <ele>703</ele>
        <time>2017-09-24T12:13:20.000Z</time>
      </trkpt>
      <trkpt lat="43.36388" lon="2.44476">
        <ele>704</ele>
        <time>2017-09-24T12:13:21.000Z</time>
      </trkpt>
      <trkpt lat="43.36387" lon="2.44477">
        <ele>704</ele>
        <time>2017-09-24T12:13:22.000Z</time>
      </trkpt>
      <trkpt lat="43.36386" lon="2.44477">
        <ele>704</ele>
        <time>2017-09-24T12:13:23.000Z</time>
      </trkpt>
      <trkpt lat="43.36385" lon="2.44477">
        <ele>704</ele>
        <time>2017-09-24T12:13:24.000Z</time>
      </trkpt>
      <trkpt lat="43.36383" lon="2.44478">
        <ele>704</ele>
        <time>2017-09-24T12:13:25.000Z</time>
      </trkpt>
      <trkpt lat="43.36382" lon="2.44478">
        <ele>704</ele>
        <time>2017-09-24T12:13:26.000Z</time>
      </trkpt>
      <trkpt lat="43.36381" lon="2.44478">
        <ele>704</ele>
        <time>2017-09-24T12:13:27.000Z</time>
      </trkpt>
      <trkpt lat="43.3638" lon="2.44479">
        <ele>704</ele>
        <time>2017-09-24T12:13:28.000Z</time>
      </trkpt>
      <trkpt lat="43.36379" lon="2.44479">
        <ele>704</ele>
        <time>2017-09-24T12:13:29.000Z</time>
      </trkpt>
      <trkpt lat="43.36377" lon="2.44479">
        <ele>704</ele>
        <time>2017-09-24T12:13:30.000Z</time>
      </trkpt>
      <trkpt lat="43.36375" lon="2.44479">
        <ele>704</ele>
        <time>2017-09-24T12:13:31.000Z</time>
      </trkpt>
      <trkpt lat="43.36374" lon="2.4448">
        <ele>704</ele>
        <time>2017-09-24T12:13:32.000Z</time>
      </trkpt>
      <trkpt lat="43.36373" lon="2.4448">
        <ele>704</ele>
        <time>2017-09-24T12:13:33.000Z</time>
      </trkpt>
      <trkpt lat="43.36372" lon="2.4448">
        <ele>705</ele>
        <time>2017-09-24T12:13:34.000Z</time>
      </trkpt>
      <trkpt lat="43.3637" lon="2.44481">
        <ele>705</ele>
        <time>2017-09-24T12:13:35.000Z</time>
      </trkpt>
      <trkpt lat="43.36369" lon="2.44482">
        <ele>705</ele>
        <time>2017-09-24T12:13:36.000Z</time>
      </trkpt>
      <trkpt lat="43.36367" lon="2.44482">
        <ele>705</ele>
        <time>2017-09-24T12:13:37.000Z</time>
      </trkpt>
      <trkpt lat="43.36366" lon="2.44482">
        <ele>705</ele>
        <time>2017-09-24T12:13:38.000Z</time>
      </trkpt>
      <trkpt lat="43.36365" lon="2.44482">
        <ele>705</ele>
        <time>2017-09-24T12:13:39.000Z</time>
      </trkpt>
      <trkpt lat="43.36363" lon="2.44482">
        <ele>705</ele>
        <time>2017-09-24T12:13:40.000Z</time>
      </trkpt>
      <trkpt lat="43.36362" lon="2.44482">
        <ele>705</ele>
        <time>2017-09-24T12:13:41.000Z</time>
      </trkpt>
      <trkpt lat="43.36361" lon="2.44483">
        <ele>705</ele>
        <time>2017-09-24T12:13:42.000Z</time>
      </trkpt>
      <trkpt lat="43.3636" lon="2.44482">
        <ele>705</ele>
        <time>2017-09-24T12:13:43.000Z</time>
      </trkpt>
      <trkpt lat="43.36359" lon="2.44482">
        <ele>705</ele>
        <time>2017-09-24T12:13:44.000Z</time>
      </trkpt>
      <trkpt lat="43.36357" lon="2.44482">
        <ele>705</ele>
        <time>2017-09-24T12:13:45.000Z</time>
      </trkpt>
      <trkpt lat="43.36356" lon="2.44482">
        <ele>705</ele>
        <time>2017-09-24T12:13:46.000Z</time>
      </trkpt>
      <trkpt lat="43.36355" lon="2.44482">
        <ele>705</ele>
        <time>2017-09-24T12:13:47.000Z</time>
      </trkpt>
      <trkpt lat="43.36354" lon="2.44481">
        <ele>705</ele>
        <time>2017-09-24T12:13:48.000Z</time>
      </trkpt>
      <trkpt lat="43.36353" lon="2.44481">
        <ele>705</ele>
        <time>2017-09-24T12:13:49.000Z</time>
      </trkpt>
      <trkpt lat="43.36352" lon="2.44481">
        <ele>705</ele>
        <time>2017-09-24T12:13:50.000Z</time>
      </trkpt>
      <trkpt lat="43.3635" lon="2.44481">
        <ele>705</ele>
        <time>2017-09-24T12:13:51.000Z</time>
      </trkpt>
      <trkpt lat="43.36349" lon="2.44481">
        <ele>705</ele>
        <time>2017-09-24T12:13:52.000Z</time>
      </trkpt>
      <trkpt lat="43.36348" lon="2.44481">
        <ele>705</ele>
        <time>2017-09-24T12:13:53.000Z</time>
      </trkpt>
      <trkpt lat="43.36347" lon="2.4448">
        <ele>705</ele>
        <time>2017-09-24T12:13:54.000Z</time>
      </trkpt>
      <trkpt lat="43.36347" lon="2.4448">
        <ele>705</ele>
        <time>2017-09-24T12:13:55.000Z</time>
      </trkpt>
      <trkpt lat="43.36346" lon="2.4448">
        <ele>705</ele>
        <time>2017-09-24T12:13:56.000Z</time>
      </trkpt>
      <trkpt lat="43.36345" lon="2.4448">
        <ele>704</ele>
        <time>2017-09-24T12:13:57.000Z</time>
      </trkpt>
      <trkpt lat="43.36343" lon="2.44479">
        <ele>704</ele>
        <time>2017-09-24T12:13:58.000Z</time>
      </trkpt>
      <trkpt lat="43.36342" lon="2.44479">
        <ele>704</ele>
        <time>2017-09-24T12:13:59.000Z</time>
      </trkpt>
      <trkpt lat="43.36341" lon="2.44479">
        <ele>704</ele>
        <time>2017-09-24T12:14:00.000Z</time>
      </trkpt>
      <trkpt lat="43.36339" lon="2.44479">
        <ele>704</ele>
        <time>2017-09-24T12:14:01.000Z</time>
      </trkpt>
      <trkpt lat="43.36338" lon="2.44479">
        <ele>704</ele>
        <time>2017-09-24T12:14:02.000Z</time>
      </trkpt>
      <trkpt lat="43.36337" lon="2.44479">
        <ele>704</ele>
        <time>2017-09-24T12:14:03.000Z</time>
      </trkpt>
      <trkpt lat="43.36336" lon="2.4448">
        <ele>704</ele>
        <time>2017-09-24T12:14:04.000Z</time>
      </trkpt>
      <trkpt lat="43.36335" lon="2.4448">
        <ele>703</ele>
        <time>2017-09-24T12:14:05.000Z</time>
      </trkpt>
      <trkpt lat="43.36334" lon="2.4448">
        <ele>703</ele>
        <time>2017-09-24T12:14:06.000Z</time>
      </trkpt>
      <trkpt lat="43.36333" lon="2.4448">
        <ele>703</ele>
        <time>2017-09-24T12:14:07.000Z</time>
      </trkpt>
      <trkpt lat="43.36331" lon="2.4448">
        <ele>703</ele>
        <time>2017-09-24T12:14:08.000Z</time>
      </trkpt>
      <trkpt lat="43.3633" lon="2.44481">
        <ele>703</ele>
        <time>2017-09-24T12:14:09.000Z</time>
      </trkpt>
      <trkpt lat="43.36328" lon="2.44481">
        <ele>703</ele>
        <time>2017-09-24T12:14:10.000Z</time>
      </trkpt>
      <trkpt lat="43.36327" lon="2.44481">
        <ele>703</ele>
        <time>2017-09-24T12:14:11.000Z</time>
      </trkpt>
      <trkpt lat="43.36326" lon="2.44481">
        <ele>703</ele>
        <time>2017-09-24T12:14:12.000Z</time>
      </trkpt>
      <trkpt lat="43.36325" lon="2.44482">
        <ele>703</ele>
        <time>2017-09-24T12:14:13.000Z</time>
      </trkpt>
      <trkpt lat="43.36324" lon="2.44483">
        <ele>703</ele>
        <time>2017-09-24T12:14:14.000Z</time>
      </trkpt>
      <trkpt lat="43.36323" lon="2.44483">
        <ele>703</ele>
        <time>2017-09-24T12:14:15.000Z</time>
      </trkpt>
      <trkpt lat="43.36322" lon="2.44483">
        <ele>703</ele>
        <time>2017-09-24T12:14:16.000Z</time>
      </trkpt>
      <trkpt lat="43.3632" lon="2.44484">
        <ele>703</ele>
        <time>2017-09-24T12:14:17.000Z</time>
      </trkpt>
      <trkpt lat="43.36319" lon="2.44484">
        <ele>703</ele>
        <time>2017-09-24T12:14:18.000Z</time>
      </trkpt>
      <trkpt lat="43.36318" lon="2.44483">
        <ele>703</ele>
        <time>2017-09-24T12:14:19.000Z</time>
      </trkpt>
      <trkpt lat="43.36317" lon="2.44482">
        <ele>702</ele>
        <time>2017-09-24T12:14:20.000Z</time>
      </trkpt>
      <trkpt lat="43.36315" lon="2.44482">
        <ele>702</ele>
        <time>2017-09-24T12:14:21.000Z</time>
      </trkpt>
      <trkpt lat="43.36314" lon="2.44481">
        <ele>702</ele>
        <time>2017-09-24T12:14:22.000Z</time>
      </trkpt>
      <trkpt lat="43.36313" lon="2.44481">
        <ele>702</ele>
        <time>2017-09-24T12:14:23.000Z</time>
      </trkpt>
      <trkpt lat="43.36312" lon="2.44481">
        <ele>702</ele>
        <time>2017-09-24T12:14:24.000Z</time>
      </trkpt>
      <trkpt lat="43.36311" lon="2.44481">
        <ele>702</ele>
        <time>2017-09-24T12:14:25.000Z</time>
      </trkpt>
      <trkpt lat="43.36309" lon="2.4448">
        <ele>701</ele>
        <time>2017-09-24T12:14:26.000Z</time>
      </trkpt>
      <trkpt lat="43.36308" lon="2.4448">
        <ele>701</ele>
        <time>2017-09-24T12:14:27.000Z</time>
      </trkpt>
      <trkpt lat="43.36307" lon="2.4448">
        <ele>701</ele>
        <time>2017-09-24T12:14:28.000Z</time>
      </trkpt>
      <trkpt lat="43.36306" lon="2.4448">
        <ele>701</ele>
        <time>2017-09-24T12:14:29.000Z</time>
      </trkpt>
      <trkpt lat="43.36305" lon="2.44479">
        <ele>701</ele>
        <time>2017-09-24T12:14:30.000Z</time>
      </trkpt>
      <trkpt lat="43.36304" lon="2.44478">
        <ele>700</ele>
        <time>2017-09-24T12:14:31.000Z</time>
      </trkpt>
      <trkpt lat="43.36302" lon="2.44477">
        <ele>700</ele>
        <time>2017-09-24T12:14:32.000Z</time>
      </trkpt>
      <trkpt lat="43.36301" lon="2.44476">
        <ele>700</ele>
        <time>2017-09-24T12:14:33.000Z</time>
      </trkpt>
      <trkpt lat="43.363" lon="2.44476">
        <ele>700</ele>
        <time>2017-09-24T12:14:34.000Z</time>
      </trkpt>
      <trkpt lat="43.36299" lon="2.44475">
        <ele>700</ele>
        <time>2017-09-24T12:14:35.000Z</time>
      </trkpt>
      <trkpt lat="43.36297" lon="2.44474">
        <ele>699</ele>
        <time>2017-09-24T12:14:36.000Z</time>
      </trkpt>
      <trkpt lat="43.36296" lon="2.44474">
        <ele>699</ele>
        <time>2017-09-24T12:14:37.000Z</time>
      </trkpt>
      <trkpt lat="43.36295" lon="2.44474">
        <ele>699</ele>
        <time>2017-09-24T12:14:38.000Z</time>
      </trkpt>
      <trkpt lat="43.36294" lon="2.44474">
        <ele>699</ele>
        <time>2017-09-24T12:14:39.000Z</time>
      </trkpt>
      <trkpt lat="43.36293" lon="2.44473">
        <ele>699</ele>
        <time>2017-09-24T12:14:40.000Z</time>
      </trkpt>
      <trkpt lat="43.36292" lon="2.44473">
        <ele>699</ele>
        <time>2017-09-24T12:14:41.000Z</time>
      </trkpt>
      <trkpt lat="43.36291" lon="2.44473">
        <ele>698</ele>
        <time>2017-09-24T12:14:42.000Z</time>
      </trkpt>
      <trkpt lat="43.3629" lon="2.44472">
        <ele>698</ele>
        <time>2017-09-24T12:14:43.000Z</time>
      </trkpt>
      <trkpt lat="43.36289" lon="2.44472">
        <ele>698</ele>
        <time>2017-09-24T12:14:44.000Z</time>
      </trkpt>
      <trkpt lat="43.36288" lon="2.44473">
        <ele>698</ele>
        <time>2017-09-24T12:14:45.000Z</time>
      </trkpt>
      <trkpt lat="43.36287" lon="2.44473">
        <ele>698</ele>
        <time>2017-09-24T12:14:46.000Z</time>
      </trkpt>
      <trkpt lat="43.36286" lon="2.44474">
        <ele>698</ele>
        <time>2017-09-24T12:14:47.000Z</time>
      </trkpt>
      <trkpt lat="43.36285" lon="2.44474">
        <ele>698</ele>
        <time>2017-09-24T12:14:48.000Z</time>
      </trkpt>
      <trkpt lat="43.36284" lon="2.44475">
        <ele>698</ele>
        <time>2017-09-24T12:14:49.000Z</time>
      </trkpt>
      <trkpt lat="43.36283" lon="2.44475">
        <ele>698</ele>
        <time>2017-09-24T12:14:50.000Z</time>
      </trkpt>
      <trkpt lat="43.36282" lon="2.44476">
        <ele>698</ele>
        <time>2017-09-24T12:14:51.000Z</time>
      </trkpt>
      <trkpt lat="43.36281" lon="2.44476">
        <ele>698</ele>
        <time>2017-09-24T12:14:52.000Z</time>
      </trkpt>
      <trkpt lat="43.3628" lon="2.44477">
        <ele>698</ele>
        <time>2017-09-24T12:14:53.000Z</time>
      </trkpt>
      <trkpt lat="43.36278" lon="2.44478">
        <ele>698</ele>
        <time>2017-09-24T12:14:54.000Z</time>
      </trkpt>
      <trkpt lat="43.36277" lon="2.44478">
        <ele>698</ele>
        <time>2017-09-24T12:14:55.000Z</time>
      </trkpt>
      <trkpt lat="43.36276" lon="2.44479">
        <ele>698</ele>
        <time>2017-09-24T12:14:56.000Z</time>
      </trkpt>
      <trkpt lat="43.36275" lon="2.4448">
        <ele>698</ele>
        <time>2017-09-24T12:14:57.000Z</time>
      </trkpt>
      <trkpt lat="43.36274" lon="2.44481">
        <ele>698</ele>
        <time>2017-09-24T12:14:58.000Z</time>
      </trkpt>
      <trkpt lat="43.36273" lon="2.44481">
        <ele>699</ele>
        <time>2017-09-24T12:14:59.000Z</time>
      </trkpt>
      <trkpt lat="43.36272" lon="2.44482">
        <ele>699</ele>
        <time>2017-09-24T12:15:00.000Z</time>
      </trkpt>
      <trkpt lat="43.36271" lon="2.44483">
        <ele>699</ele>
        <time>2017-09-24T12:15:01.000Z</time>
      </trkpt>
      <trkpt lat="43.3627" lon="2.44484">
        <ele>699</ele>
        <time>2017-09-24T12:15:02.000Z</time>
      </trkpt>
      <trkpt lat="43.36269" lon="2.44485">
        <ele>699</ele>
        <time>2017-09-24T12:15:03.000Z</time>
      </trkpt>
      <trkpt lat="43.36268" lon="2.44486">
        <ele>699</ele>
        <time>2017-09-24T12:15:04.000Z</time>
      </trkpt>
      <trkpt lat="43.36266" lon="2.44486">
        <ele>699</ele>
        <time>2017-09-24T12:15:05.000Z</time>
      </trkpt>
      <trkpt lat="43.36265" lon="2.44487">
        <ele>699</ele>
        <time>2017-09-24T12:15:06.000Z</time>
      </trkpt>
      <trkpt lat="43.36264" lon="2.44488">
        <ele>699</ele>
        <time>2017-09-24T12:15:07.000Z</time>
      </trkpt>
      <trkpt lat="43.36263" lon="2.44489">
        <ele>699</ele>
        <time>2017-09-24T12:15:08.000Z</time>
      </trkpt>
      <trkpt lat="43.36261" lon="2.4449">
        <ele>699</ele>
        <time>2017-09-24T12:15:09.000Z</time>
      </trkpt>
      <trkpt lat="43.3626" lon="2.4449">
        <ele>699</ele>
        <time>2017-09-24T12:15:10.000Z</time>
      </trkpt>
      <trkpt lat="43.36259" lon="2.44491">
        <ele>699</ele>
        <time>2017-09-24T12:15:11.000Z</time>
      </trkpt>
      <trkpt lat="43.36258" lon="2.44492">
        <ele>699</ele>
        <time>2017-09-24T12:15:12.000Z</time>
      </trkpt>
      <trkpt lat="43.36257" lon="2.44492">
        <ele>699</ele>
        <time>2017-09-24T12:15:13.000Z</time>
      </trkpt>
      <trkpt lat="43.36255" lon="2.44493">
        <ele>699</ele>
        <time>2017-09-24T12:15:14.000Z</time>
      </trkpt>
      <trkpt lat="43.36254" lon="2.44493">
        <ele>699</ele>
        <time>2017-09-24T12:15:15.000Z</time>
      </trkpt>
      <trkpt lat="43.36253" lon="2.44494">
        <ele>699</ele>
        <time>2017-09-24T12:15:16.000Z</time>
      </trkpt>
      <trkpt lat="43.36252" lon="2.44494">
        <ele>699</ele>
        <time>2017-09-24T12:15:17.000Z</time>
      </trkpt>
      <trkpt lat="43.36251" lon="2.44494">
        <ele>699</ele>
        <time>2017-09-24T12:15:18.000Z</time>
      </trkpt>
      <trkpt lat="43.36249" lon="2.44495">
        <ele>699</ele>
        <time>2017-09-24T12:15:19.000Z</time>
      </trkpt>
      <trkpt lat="43.36248" lon="2.44495">
        <ele>699</ele>
        <time>2017-09-24T12:15:20.000Z</time>
      </trkpt>
      <trkpt lat="43.36247" lon="2.44495">
        <ele>699</ele>
        <time>2017-09-24T12:15:21.000Z</time>
      </trkpt>
      <trkpt lat="43.36246" lon="2.44496">
        <ele>699</ele>
        <time>2017-09-24T12:15:22.000Z</time>
      </trkpt>
      <trkpt lat="43.36244" lon="2.44496">
        <ele>699</ele>
        <time>2017-09-24T12:15:23.000Z</time>
      </trkpt>
      <trkpt lat="43.36243" lon="2.44496">
        <ele>699</ele>
        <time>2017-09-24T12:15:24.000Z</time>
      </trkpt>
      <trkpt lat="43.36241" lon="2.44497">
        <ele>699</ele>
        <time>2017-09-24T12:15:25.000Z</time>
      </trkpt>
      <trkpt lat="43.3624" lon="2.44497">
        <ele>699</ele>
        <time>2017-09-24T12:15:26.000Z</time>
      </trkpt>
      <trkpt lat="43.36239" lon="2.44497">
        <ele>699</ele>
        <time>2017-09-24T12:15:27.000Z</time>
      </trkpt>
      <trkpt lat="43.36238" lon="2.44498">
        <ele>699</ele>
        <time>2017-09-24T12:15:28.000Z</time>
      </trkpt>
      <trkpt lat="43.36237" lon="2.44499">
        <ele>699</ele>
        <time>2017-09-24T12:15:29.000Z</time>
      </trkpt>
      <trkpt lat="43.36235" lon="2.44499">
        <ele>699</ele>
        <time>2017-09-24T12:15:30.000Z</time>
      </trkpt>
      <trkpt lat="43.36234" lon="2.445">
        <ele>699</ele>
        <time>2017-09-24T12:15:31.000Z</time>
      </trkpt>
      <trkpt lat="43.36233" lon="2.44501">
        <ele>699</ele>
        <time>2017-09-24T12:15:32.000Z</time>
      </trkpt>
      <trkpt lat="43.36232" lon="2.44501">
        <ele>698</ele>
        <time>2017-09-24T12:15:33.000Z</time>
      </trkpt>
      <trkpt lat="43.36231" lon="2.44502">
        <ele>698</ele>
        <time>2017-09-24T12:15:34.000Z</time>
      </trkpt>
      <trkpt lat="43.3623" lon="2.44503">
        <ele>698</ele>
        <time>2017-09-24T12:15:35.000Z</time>
      </trkpt>
      <trkpt lat="43.36228" lon="2.44503">
        <ele>698</ele>
        <time>2017-09-24T12:15:36.000Z</time>
      </trkpt>
      <trkpt lat="43.36227" lon="2.44504">
        <ele>698</ele>
        <time>2017-09-24T12:15:37.000Z</time>
      </trkpt>
      <trkpt lat="43.36225" lon="2.44505">
        <ele>698</ele>
        <time>2017-09-24T12:15:38.000Z</time>
      </trkpt>
      <trkpt lat="43.36224" lon="2.44505">
        <ele>697</ele>
        <time>2017-09-24T12:15:39.000Z</time>
      </trkpt>
      <trkpt lat="43.36223" lon="2.44506">
        <ele>697</ele>
        <time>2017-09-24T12:15:40.000Z</time>
      </trkpt>
      <trkpt lat="43.36222" lon="2.44507">
        <ele>697</ele>
        <time>2017-09-24T12:15:41.000Z</time>
      </trkpt>
      <trkpt lat="43.36221" lon="2.44508">
        <ele>697</ele>
        <time>2017-09-24T12:15:42.000Z</time>
      </trkpt>
      <trkpt lat="43.3622" lon="2.44508">
        <ele>697</ele>
        <time>2017-09-24T12:15:43.000Z</time>
      </trkpt>
      <trkpt lat="43.36218" lon="2.44509">
        <ele>697</ele>
        <time>2017-09-24T12:15:44.000Z</time>
      </trkpt>
      <trkpt lat="43.36217" lon="2.4451">
        <ele>697</ele>
        <time>2017-09-24T12:15:45.000Z</time>
      </trkpt>
      <trkpt lat="43.36215" lon="2.4451">
        <ele>696</ele>
        <time>2017-09-24T12:15:46.000Z</time>
      </trkpt>
      <trkpt lat="43.36214" lon="2.44511">
        <ele>696</ele>
        <time>2017-09-24T12:15:47.000Z</time>
      </trkpt>
      <trkpt lat="43.36213" lon="2.44511">
        <ele>696</ele>
        <time>2017-09-24T12:15:48.000Z</time>
      </trkpt>
      <trkpt lat="43.36212" lon="2.44511">
        <ele>696</ele>
        <time>2017-09-24T12:15:49.000Z</time>
      </trkpt>
      <trkpt lat="43.36211" lon="2.44512">
        <ele>696</ele>
        <time>2017-09-24T12:15:50.000Z</time>
      </trkpt>
      <trkpt lat="43.36209" lon="2.44513">
        <ele>696</ele>
        <time>2017-09-24T12:15:51.000Z</time>
      </trkpt>
      <trkpt lat="43.36208" lon="2.44513">
        <ele>696</ele>
        <time>2017-09-24T12:15:52.000Z</time>
      </trkpt>
      <trkpt lat="43.36207" lon="2.44514">
        <ele>695</ele>
        <time>2017-09-24T12:15:53.000Z</time>
      </trkpt>
      <trkpt lat="43.36206" lon="2.44514">
        <ele>695</ele>
        <time>2017-09-24T12:15:54.000Z</time>
      </trkpt>
      <trkpt lat="43.36204" lon="2.44514">
        <ele>695</ele>
        <time>2017-09-24T12:15:55.000Z</time>
      </trkpt>
      <trkpt lat="43.36203" lon="2.44514">
        <ele>695</ele>
        <time>2017-09-24T12:15:56.000Z</time>
      </trkpt>
      <trkpt lat="43.36202" lon="2.44515">
        <ele>695</ele>
        <time>2017-09-24T12:15:57.000Z</time>
      </trkpt>
      <trkpt lat="43.36201" lon="2.44515">
        <ele>695</ele>
        <time>2017-09-24T12:15:58.000Z</time>
      </trkpt>
      <trkpt lat="43.362" lon="2.44515">
        <ele>695</ele>
        <time>2017-09-24T12:15:59.000Z</time>
      </trkpt>
      <trkpt lat="43.36198" lon="2.44515">
        <ele>695</ele>
        <time>2017-09-24T12:16:00.000Z</time>
      </trkpt>
      <trkpt lat="43.36197" lon="2.44516">
        <ele>695</ele>
        <time>2017-09-24T12:16:01.000Z</time>
      </trkpt>
      <trkpt lat="43.36196" lon="2.44516">
        <ele>695</ele>
        <time>2017-09-24T12:16:02.000Z</time>
      </trkpt>
      <trkpt lat="43.36195" lon="2.44517">
        <ele>694</ele>
        <time>2017-09-24T12:16:03.000Z</time>
      </trkpt>
      <trkpt lat="43.36193" lon="2.44517">
        <ele>694</ele>
        <time>2017-09-24T12:16:04.000Z</time>
      </trkpt>
      <trkpt lat="43.36192" lon="2.44517">
        <ele>694</ele>
        <time>2017-09-24T12:16:05.000Z</time>
      </trkpt>
      <trkpt lat="43.36191" lon="2.44517">
        <ele>694</ele>
        <time>2017-09-24T12:16:06.000Z</time>
      </trkpt>
      <trkpt lat="43.36189" lon="2.44517">
        <ele>694</ele>
        <time>2017-09-24T12:16:07.000Z</time>
      </trkpt>
      <trkpt lat="43.36188" lon="2.44517">
        <ele>694</ele>
        <time>2017-09-24T12:16:08.000Z</time>
      </trkpt>
      <trkpt lat="43.36187" lon="2.44517">
        <ele>694</ele>
        <time>2017-09-24T12:16:09.000Z</time>
      </trkpt>
      <trkpt lat="43.36186" lon="2.44517">
        <ele>694</ele>
        <time>2017-09-24T12:16:10.000Z</time>
      </trkpt>
      <trkpt lat="43.36185" lon="2.44517">
        <ele>694</ele>
        <time>2017-09-24T12:16:11.000Z</time>
      </trkpt>
      <trkpt lat="43.36184" lon="2.44517">
        <ele>694</ele>
        <time>2017-09-24T12:16:12.000Z</time>
      </trkpt>
      <trkpt lat="43.36183" lon="2.44517">
        <ele>694</ele>
        <time>2017-09-24T12:16:13.000Z</time>
      </trkpt>
      <trkpt lat="43.36182" lon="2.44517">
        <ele>694</ele>
        <time>2017-09-24T12:16:14.000Z</time>
      </trkpt>
      <trkpt lat="43.36181" lon="2.44517">
        <ele>694</ele>
        <time>2017-09-24T12:16:15.000Z</time>
      </trkpt>
      <trkpt lat="43.3618" lon="2.44517">
        <ele>694</ele>
        <time>2017-09-24T12:16:16.000Z</time>
      </trkpt>
      <trkpt lat="43.36179" lon="2.44517">
        <ele>694</ele>
        <time>2017-09-24T12:16:17.000Z</time>
      </trkpt>
      <trkpt lat="43.36178" lon="2.44517">
        <ele>694</ele>
        <time>2017-09-24T12:16:18.000Z</time>
      </trkpt>
      <trkpt lat="43.36177" lon="2.44517">
        <ele>694</ele>
        <time>2017-09-24T12:16:19.000Z</time>
      </trkpt>
      <trkpt lat="43.36176" lon="2.44516">
        <ele>694</ele>
        <time>2017-09-24T12:16:20.000Z</time>
      </trkpt>
      <trkpt lat="43.36175" lon="2.44516">
        <ele>693</ele>
        <time>2017-09-24T12:16:21.000Z</time>
      </trkpt>
      <trkpt lat="43.36173" lon="2.44516">
        <ele>693</ele>
        <time>2017-09-24T12:16:22.000Z</time>
      </trkpt>
      <trkpt lat="43.36172" lon="2.44516">
        <ele>693</ele>
        <time>2017-09-24T12:16:23.000Z</time>
      </trkpt>
      <trkpt lat="43.36171" lon="2.44516">
        <ele>693</ele>
        <time>2017-09-24T12:16:24.000Z</time>
      </trkpt>
      <trkpt lat="43.3617" lon="2.44517">
        <ele>693</ele>
        <time>2017-09-24T12:16:25.000Z</time>
      </trkpt>
      <trkpt lat="43.36169" lon="2.44517">
        <ele>693</ele>
        <time>2017-09-24T12:16:26.000Z</time>
      </trkpt>
      <trkpt lat="43.36168" lon="2.44517">
        <ele>693</ele>
        <time>2017-09-24T12:16:27.000Z</time>
      </trkpt>
      <trkpt lat="43.36167" lon="2.44518">
        <ele>692</ele>
        <time>2017-09-24T12:16:28.000Z</time>
      </trkpt>
      <trkpt lat="43.36166" lon="2.44518">
        <ele>692</ele>
        <time>2017-09-24T12:16:29.000Z</time>
      </trkpt>
      <trkpt lat="43.36165" lon="2.44519">
        <ele>692</ele>
        <time>2017-09-24T12:16:30.000Z</time>
      </trkpt>
      <trkpt lat="43.36164" lon="2.4452">
        <ele>692</ele>
        <time>2017-09-24T12:16:31.000Z</time>
      </trkpt>
      <trkpt lat="43.36163" lon="2.4452">
        <ele>692</ele>
        <time>2017-09-24T12:16:32.000Z</time>
      </trkpt>
      <trkpt lat="43.36162" lon="2.44521">
        <ele>692</ele>
        <time>2017-09-24T12:16:33.000Z</time>
      </trkpt>
      <trkpt lat="43.36161" lon="2.44521">
        <ele>692</ele>
        <time>2017-09-24T12:16:34.000Z</time>
      </trkpt>
      <trkpt lat="43.3616" lon="2.44521">
        <ele>691</ele>
        <time>2017-09-24T12:16:35.000Z</time>
      </trkpt>
      <trkpt lat="43.36159" lon="2.44521">
        <ele>691</ele>
        <time>2017-09-24T12:16:36.000Z</time>
      </trkpt>
      <trkpt lat="43.36158" lon="2.44521">
        <ele>691</ele>
        <time>2017-09-24T12:16:37.000Z</time>
      </trkpt>
      <trkpt lat="43.36157" lon="2.44521">
        <ele>691</ele>
        <time>2017-09-24T12:16:38.000Z</time>
      </trkpt>
      <trkpt lat="43.36157" lon="2.44521">
        <ele>691</ele>
        <time>2017-09-24T12:16:39.000Z</time>
      </trkpt>
      <trkpt lat="43.36156" lon="2.44522">
        <ele>691</ele>
        <time>2017-09-24T12:16:40.000Z</time>
      </trkpt>
      <trkpt lat="43.36155" lon="2.44522">
        <ele>691</ele>
        <time>2017-09-24T12:16:41.000Z</time>
      </trkpt>
      <trkpt lat="43.36155" lon="2.44523">
        <ele>691</ele>
        <time>2017-09-24T12:16:42.000Z</time>
      </trkpt>
      <trkpt lat="43.36154" lon="2.44524">
        <ele>691</ele>
        <time>2017-09-24T12:16:43.000Z</time>
      </trkpt>
      <trkpt lat="43.36153" lon="2.44524">
        <ele>690</ele>
        <time>2017-09-24T12:16:44.000Z</time>
      </trkpt>
      <trkpt lat="43.36152" lon="2.44525">
        <ele>690</ele>
        <time>2017-09-24T12:16:45.000Z</time>
      </trkpt>
      <trkpt lat="43.36151" lon="2.44526">
        <ele>690</ele>
        <time>2017-09-24T12:16:46.000Z</time>
      </trkpt>
      <trkpt lat="43.3615" lon="2.44527">
        <ele>690</ele>
        <time>2017-09-24T12:16:47.000Z</time>
      </trkpt>
      <trkpt lat="43.3615" lon="2.44527">
        <ele>690</ele>
        <time>2017-09-24T12:16:48.000Z</time>
      </trkpt>
      <trkpt lat="43.36149" lon="2.44529">
        <ele>690</ele>
        <time>2017-09-24T12:16:49.000Z</time>
      </trkpt>
      <trkpt lat="43.36148" lon="2.44529">
        <ele>690</ele>
        <time>2017-09-24T12:16:50.000Z</time>
      </trkpt>
      <trkpt lat="43.36148" lon="2.4453">
        <ele>689</ele>
        <time>2017-09-24T12:16:51.000Z</time>
      </trkpt>
      <trkpt lat="43.36147" lon="2.44531">
        <ele>689</ele>
        <time>2017-09-24T12:16:52.000Z</time>
      </trkpt>
      <trkpt lat="43.36146" lon="2.44532">
        <ele>689</ele>
        <time>2017-09-24T12:16:53.000Z</time>
      </trkpt>
      <trkpt lat="43.36145" lon="2.44533">
        <ele>689</ele>
        <time>2017-09-24T12:16:54.000Z</time>
      </trkpt>
      <trkpt lat="43.36145" lon="2.44534">
        <ele>689</ele>
        <time>2017-09-24T12:16:55.000Z</time>
      </trkpt>
      <trkpt lat="43.36144" lon="2.44534">
        <ele>689</ele>
        <time>2017-09-24T12:16:56.000Z</time>
      </trkpt>
      <trkpt lat="43.36144" lon="2.44535">
        <ele>689</ele>
        <time>2017-09-24T12:16:57.000Z</time>
      </trkpt>
      <trkpt lat="43.36144" lon="2.44535">
        <ele>689</ele>
        <time>2017-09-24T12:16:58.000Z</time>
      </trkpt>
      <trkpt lat="43.36142" lon="2.44538">
        <ele>688</ele>
        <time>2017-09-24T12:17:03.000Z</time>
      </trkpt>
      <trkpt lat="43.36142" lon="2.44539">
        <ele>688</ele>
        <time>2017-09-24T12:17:04.000Z</time>
      </trkpt>
      <trkpt lat="43.36141" lon="2.4454">
        <ele>688</ele>
        <time>2017-09-24T12:17:05.000Z</time>
      </trkpt>
      <trkpt lat="43.3614" lon="2.44542">
        <ele>688</ele>
        <time>2017-09-24T12:17:06.000Z</time>
      </trkpt>
      <trkpt lat="43.3614" lon="2.44543">
        <ele>688</ele>
        <time>2017-09-24T12:17:07.000Z</time>
      </trkpt>
      <trkpt lat="43.36139" lon="2.44545">
        <ele>688</ele>
        <time>2017-09-24T12:17:08.000Z</time>
      </trkpt>
      <trkpt lat="43.36139" lon="2.44547">
        <ele>688</ele>
        <time>2017-09-24T12:17:09.000Z</time>
      </trkpt>
      <trkpt lat="43.36138" lon="2.44548">
        <ele>687</ele>
        <time>2017-09-24T12:17:10.000Z</time>
      </trkpt>
      <trkpt lat="43.36138" lon="2.44549">
        <ele>687</ele>
        <time>2017-09-24T12:17:11.000Z</time>
      </trkpt>
      <trkpt lat="43.36138" lon="2.4455">
        <ele>687</ele>
        <time>2017-09-24T12:17:12.000Z</time>
      </trkpt>
      <trkpt lat="43.36138" lon="2.44552">
        <ele>687</ele>
        <time>2017-09-24T12:17:13.000Z</time>
      </trkpt>
      <trkpt lat="43.36137" lon="2.44553">
        <ele>687</ele>
        <time>2017-09-24T12:17:14.000Z</time>
      </trkpt>
      <trkpt lat="43.36137" lon="2.44554">
        <ele>687</ele>
        <time>2017-09-24T12:17:15.000Z</time>
      </trkpt>
      <trkpt lat="43.36136" lon="2.44556">
        <ele>687</ele>
        <time>2017-09-24T12:17:16.000Z</time>
      </trkpt>
      <trkpt lat="43.36136" lon="2.44557">
        <ele>687</ele>
        <time>2017-09-24T12:17:17.000Z</time>
      </trkpt>
      <trkpt lat="43.36135" lon="2.44558">
        <ele>686</ele>
        <time>2017-09-24T12:17:18.000Z</time>
      </trkpt>
      <trkpt lat="43.36135" lon="2.4456">
        <ele>686</ele>
        <time>2017-09-24T12:17:19.000Z</time>
      </trkpt>
      <trkpt lat="43.36134" lon="2.44561">
        <ele>686</ele>
        <time>2017-09-24T12:17:20.000Z</time>
      </trkpt>
      <trkpt lat="43.36134" lon="2.44562">
        <ele>686</ele>
        <time>2017-09-24T12:17:21.000Z</time>
      </trkpt>
      <trkpt lat="43.36134" lon="2.44564">
        <ele>686</ele>
        <time>2017-09-24T12:17:22.000Z</time>
      </trkpt>
      <trkpt lat="43.36133" lon="2.44565">
        <ele>686</ele>
        <time>2017-09-24T12:17:23.000Z</time>
      </trkpt>
      <trkpt lat="43.36133" lon="2.44566">
        <ele>686</ele>
        <time>2017-09-24T12:17:24.000Z</time>
      </trkpt>
      <trkpt lat="43.36132" lon="2.44567">
        <ele>685</ele>
        <time>2017-09-24T12:17:25.000Z</time>
      </trkpt>
      <trkpt lat="43.36131" lon="2.44567">
        <ele>685</ele>
        <time>2017-09-24T12:17:26.000Z</time>
      </trkpt>
      <trkpt lat="43.3613" lon="2.44568">
        <ele>685</ele>
        <time>2017-09-24T12:17:27.000Z</time>
      </trkpt>
      <trkpt lat="43.36128" lon="2.44569">
        <ele>685</ele>
        <time>2017-09-24T12:17:28.000Z</time>
      </trkpt>
      <trkpt lat="43.36127" lon="2.4457">
        <ele>685</ele>
        <time>2017-09-24T12:17:29.000Z</time>
      </trkpt>
      <trkpt lat="43.36126" lon="2.44571">
        <ele>684</ele>
        <time>2017-09-24T12:17:30.000Z</time>
      </trkpt>
      <trkpt lat="43.36125" lon="2.44572">
        <ele>684</ele>
        <time>2017-09-24T12:17:31.000Z</time>
      </trkpt>
      <trkpt lat="43.36125" lon="2.44573">
        <ele>684</ele>
        <time>2017-09-24T12:17:32.000Z</time>
      </trkpt>
      <trkpt lat="43.36124" lon="2.44574">
        <ele>684</ele>
        <time>2017-09-24T12:17:33.000Z</time>
      </trkpt>
      <trkpt lat="43.36123" lon="2.44575">
        <ele>684</ele>
        <time>2017-09-24T12:17:34.000Z</time>
      </trkpt>
      <trkpt lat="43.36123" lon="2.44576">
        <ele>684</ele>
        <time>2017-09-24T12:17:35.000Z</time>
      </trkpt>
      <trkpt lat="43.36122" lon="2.44577">
        <ele>684</ele>
        <time>2017-09-24T12:17:36.000Z</time>
      </trkpt>
      <trkpt lat="43.36121" lon="2.44578">
        <ele>683</ele>
        <time>2017-09-24T12:17:37.000Z</time>
      </trkpt>
      <trkpt lat="43.36121" lon="2.44579">
        <ele>683</ele>
        <time>2017-09-24T12:17:38.000Z</time>
      </trkpt>
      <trkpt lat="43.3612" lon="2.44579">
        <ele>683</ele>
        <time>2017-09-24T12:17:39.000Z</time>
      </trkpt>
      <trkpt lat="43.3612" lon="2.4458">
        <ele>683</ele>
        <time>2017-09-24T12:17:40.000Z</time>
      </trkpt>
      <trkpt lat="43.3612" lon="2.44581">
        <ele>683</ele>
        <time>2017-09-24T12:17:41.000Z</time>
      </trkpt>
      <trkpt lat="43.36119" lon="2.44582">
        <ele>683</ele>
        <time>2017-09-24T12:17:42.000Z</time>
      </trkpt>
      <trkpt lat="43.36119" lon="2.44583">
        <ele>683</ele>
        <time>2017-09-24T12:17:43.000Z</time>
      </trkpt>
      <trkpt lat="43.36119" lon="2.44584">
        <ele>682</ele>
        <time>2017-09-24T12:17:44.000Z</time>
      </trkpt>
      <trkpt lat="43.36119" lon="2.44586">
        <ele>682</ele>
        <time>2017-09-24T12:17:45.000Z</time>
      </trkpt>
      <trkpt lat="43.36118" lon="2.44587">
        <ele>681</ele>
        <time>2017-09-24T12:17:46.000Z</time>
      </trkpt>
      <trkpt lat="43.36118" lon="2.44588">
        <ele>681</ele>
        <time>2017-09-24T12:17:47.000Z</time>
      </trkpt>
      <trkpt lat="43.36117" lon="2.4459">
        <ele>680</ele>
        <time>2017-09-24T12:17:48.000Z</time>
      </trkpt>
      <trkpt lat="43.36117" lon="2.44591">
        <ele>680</ele>
        <time>2017-09-24T12:17:49.000Z</time>
      </trkpt>
      <trkpt lat="43.36116" lon="2.44592">
        <ele>679</ele>
        <time>2017-09-24T12:17:50.000Z</time>
      </trkpt>
      <trkpt lat="43.36116" lon="2.44594">
        <ele>679</ele>
        <time>2017-09-24T12:17:51.000Z</time>
      </trkpt>
      <trkpt lat="43.36115" lon="2.44596">
        <ele>678</ele>
        <time>2017-09-24T12:17:52.000Z</time>
      </trkpt>
      <trkpt lat="43.36115" lon="2.44597">
        <ele>678</ele>
        <time>2017-09-24T12:17:53.000Z</time>
      </trkpt>
      <trkpt lat="43.36114" lon="2.44598">
        <ele>677</ele>
        <time>2017-09-24T12:17:54.000Z</time>
      </trkpt>
      <trkpt lat="43.36113" lon="2.44599">
        <ele>677</ele>
        <time>2017-09-24T12:17:55.000Z</time>
      </trkpt>
      <trkpt lat="43.36113" lon="2.446">
        <ele>677</ele>
        <time>2017-09-24T12:17:56.000Z</time>
      </trkpt>
      <trkpt lat="43.36112" lon="2.44601">
        <ele>677</ele>
        <time>2017-09-24T12:17:57.000Z</time>
      </trkpt>
      <trkpt lat="43.36111" lon="2.44602">
        <ele>677</ele>
        <time>2017-09-24T12:17:58.000Z</time>
      </trkpt>
      <trkpt lat="43.36111" lon="2.44603">
        <ele>677</ele>
        <time>2017-09-24T12:17:59.000Z</time>
      </trkpt>
      <trkpt lat="43.3611" lon="2.44604">
        <ele>677</ele>
        <time>2017-09-24T12:18:00.000Z</time>
      </trkpt>
      <trkpt lat="43.3611" lon="2.44605">
        <ele>677</ele>
        <time>2017-09-24T12:18:01.000Z</time>
      </trkpt>
      <trkpt lat="43.36109" lon="2.44606">
        <ele>676</ele>
        <time>2017-09-24T12:18:02.000Z</time>
      </trkpt>
      <trkpt lat="43.36109" lon="2.44607">
        <ele>676</ele>
        <time>2017-09-24T12:18:03.000Z</time>
      </trkpt>
      <trkpt lat="43.36109" lon="2.44608">
        <ele>676</ele>
        <time>2017-09-24T12:18:04.000Z</time>
      </trkpt>
      <trkpt lat="43.36108" lon="2.4461">
        <ele>676</ele>
        <time>2017-09-24T12:18:05.000Z</time>
      </trkpt>
      <trkpt lat="43.36108" lon="2.44611">
        <ele>676</ele>
        <time>2017-09-24T12:18:06.000Z</time>
      </trkpt>
      <trkpt lat="43.36108" lon="2.44612">
        <ele>676</ele>
        <time>2017-09-24T12:18:07.000Z</time>
      </trkpt>
      <trkpt lat="43.36107" lon="2.44614">
        <ele>676</ele>
        <time>2017-09-24T12:18:08.000Z</time>
      </trkpt>
      <trkpt lat="43.36107" lon="2.44615">
        <ele>676</ele>
        <time>2017-09-24T12:18:09.000Z</time>
      </trkpt>
      <trkpt lat="43.36106" lon="2.44616">
        <ele>675</ele>
        <time>2017-09-24T12:18:10.000Z</time>
      </trkpt>
      <trkpt lat="43.36106" lon="2.44618">
        <ele>675</ele>
        <time>2017-09-24T12:18:11.000Z</time>
      </trkpt>
      <trkpt lat="43.36106" lon="2.44619">
        <ele>675</ele>
        <time>2017-09-24T12:18:12.000Z</time>
      </trkpt>
      <trkpt lat="43.36106" lon="2.4462">
        <ele>675</ele>
        <time>2017-09-24T12:18:13.000Z</time>
      </trkpt>
      <trkpt lat="43.36105" lon="2.44622">
        <ele>675</ele>
        <time>2017-09-24T12:18:14.000Z</time>
      </trkpt>
      <trkpt lat="43.36105" lon="2.44623">
        <ele>675</ele>
        <time>2017-09-24T12:18:15.000Z</time>
      </trkpt>
      <trkpt lat="43.36105" lon="2.44624">
        <ele>675</ele>
        <time>2017-09-24T12:18:16.000Z</time>
      </trkpt>
      <trkpt lat="43.36105" lon="2.44626">
        <ele>674</ele>
        <time>2017-09-24T12:18:17.000Z</time>
      </trkpt>
      <trkpt lat="43.36105" lon="2.44627">
        <ele>674</ele>
        <time>2017-09-24T12:18:18.000Z</time>
      </trkpt>
      <trkpt lat="43.36104" lon="2.44628">
        <ele>674</ele>
        <time>2017-09-24T12:18:19.000Z</time>
      </trkpt>
      <trkpt lat="43.36104" lon="2.4463">
        <ele>674</ele>
        <time>2017-09-24T12:18:20.000Z</time>
      </trkpt>
      <trkpt lat="43.36104" lon="2.44631">
        <ele>674</ele>
        <time>2017-09-24T12:18:21.000Z</time>
      </trkpt>
      <trkpt lat="43.36103" lon="2.44633">
        <ele>674</ele>
        <time>2017-09-24T12:18:22.000Z</time>
      </trkpt>
      <trkpt lat="43.36103" lon="2.44634">
        <ele>674</ele>
        <time>2017-09-24T12:18:23.000Z</time>
      </trkpt>
      <trkpt lat="43.36103" lon="2.44635">
        <ele>673</ele>
        <time>2017-09-24T12:18:24.000Z</time>
      </trkpt>
      <trkpt lat="43.36103" lon="2.44636">
        <ele>673</ele>
        <time>2017-09-24T12:18:25.000Z</time>
      </trkpt>
      <trkpt lat="43.36103" lon="2.44638">
        <ele>673</ele>
        <time>2017-09-24T12:18:26.000Z</time>
      </trkpt>
      <trkpt lat="43.36103" lon="2.44639">
        <ele>673</ele>
        <time>2017-09-24T12:18:27.000Z</time>
      </trkpt>
      <trkpt lat="43.36103" lon="2.44641">
        <ele>673</ele>
        <time>2017-09-24T12:18:28.000Z</time>
      </trkpt>
      <trkpt lat="43.36103" lon="2.44642">
        <ele>673</ele>
        <time>2017-09-24T12:18:29.000Z</time>
      </trkpt>
      <trkpt lat="43.36103" lon="2.44642">
        <ele>672</ele>
        <time>2017-09-24T12:18:30.000Z</time>
      </trkpt>
      <trkpt lat="43.36104" lon="2.44643">
        <ele>672</ele>
        <time>2017-09-24T12:18:31.000Z</time>
      </trkpt>
      <trkpt lat="43.36104" lon="2.44644">
        <ele>672</ele>
        <time>2017-09-24T12:18:32.000Z</time>
      </trkpt>
      <trkpt lat="43.36104" lon="2.44644">
        <ele>672</ele>
        <time>2017-09-24T12:18:33.000Z</time>
      </trkpt>
      <trkpt lat="43.36105" lon="2.44646">
        <ele>672</ele>
        <time>2017-09-24T12:18:34.000Z</time>
      </trkpt>
      <trkpt lat="43.36104" lon="2.44648">
        <ele>672</ele>
        <time>2017-09-24T12:18:35.000Z</time>
      </trkpt>
      <trkpt lat="43.36104" lon="2.44649">
        <ele>672</ele>
        <time>2017-09-24T12:18:36.000Z</time>
      </trkpt>
      <trkpt lat="43.36103" lon="2.4465">
        <ele>672</ele>
        <time>2017-09-24T12:18:37.000Z</time>
      </trkpt>
      <trkpt lat="43.36103" lon="2.4465">
        <ele>672</ele>
        <time>2017-09-24T12:18:38.000Z</time>
      </trkpt>
      <trkpt lat="43.36103" lon="2.44651">
        <ele>671</ele>
        <time>2017-09-24T12:18:39.000Z</time>
      </trkpt>
      <trkpt lat="43.36101" lon="2.44652">
        <ele>671</ele>
        <time>2017-09-24T12:18:40.000Z</time>
      </trkpt>
      <trkpt lat="43.361" lon="2.44652">
        <ele>671</ele>
        <time>2017-09-24T12:18:41.000Z</time>
      </trkpt>
      <trkpt lat="43.36099" lon="2.44652">
        <ele>672</ele>
        <time>2017-09-24T12:18:42.000Z</time>
      </trkpt>
      <trkpt lat="43.36099" lon="2.44652">
        <ele>672</ele>
        <time>2017-09-24T12:18:43.000Z</time>
      </trkpt>
      <trkpt lat="43.36098" lon="2.44653">
        <ele>672</ele>
        <time>2017-09-24T12:18:44.000Z</time>
      </trkpt>
      <trkpt lat="43.36097" lon="2.44654">
        <ele>671</ele>
        <time>2017-09-24T12:18:45.000Z</time>
      </trkpt>
      <trkpt lat="43.36097" lon="2.44654">
        <ele>671</ele>
        <time>2017-09-24T12:18:46.000Z</time>
      </trkpt>
      <trkpt lat="43.36096" lon="2.44654">
        <ele>671</ele>
        <time>2017-09-24T12:18:47.000Z</time>
      </trkpt>
      <trkpt lat="43.36096" lon="2.44655">
        <ele>670</ele>
        <time>2017-09-24T12:18:48.000Z</time>
      </trkpt>
      <trkpt lat="43.36095" lon="2.44657">
        <ele>670</ele>
        <time>2017-09-24T12:18:49.000Z</time>
      </trkpt>
      <trkpt lat="43.36095" lon="2.44658">
        <ele>670</ele>
        <time>2017-09-24T12:18:50.000Z</time>
      </trkpt>
      <trkpt lat="43.36094" lon="2.44659">
        <ele>670</ele>
        <time>2017-09-24T12:18:51.000Z</time>
      </trkpt>
      <trkpt lat="43.36094" lon="2.4466">
        <ele>669</ele>
        <time>2017-09-24T12:18:52.000Z</time>
      </trkpt>
      <trkpt lat="43.36093" lon="2.4466">
        <ele>669</ele>
        <time>2017-09-24T12:18:53.000Z</time>
      </trkpt>
      <trkpt lat="43.36092" lon="2.44661">
        <ele>668</ele>
        <time>2017-09-24T12:18:54.000Z</time>
      </trkpt>
      <trkpt lat="43.36092" lon="2.44662">
        <ele>668</ele>
        <time>2017-09-24T12:18:55.000Z</time>
      </trkpt>
      <trkpt lat="43.36091" lon="2.44662">
        <ele>668</ele>
        <time>2017-09-24T12:18:56.000Z</time>
      </trkpt>
      <trkpt lat="43.36091" lon="2.44662">
        <ele>668</ele>
        <time>2017-09-24T12:18:57.000Z</time>
      </trkpt>
      <trkpt lat="43.3609" lon="2.44663">
        <ele>667</ele>
        <time>2017-09-24T12:18:58.000Z</time>
      </trkpt>
      <trkpt lat="43.3609" lon="2.44664">
        <ele>667</ele>
        <time>2017-09-24T12:18:59.000Z</time>
      </trkpt>
      <trkpt lat="43.36089" lon="2.44664">
        <ele>667</ele>
        <time>2017-09-24T12:19:00.000Z</time>
      </trkpt>
      <trkpt lat="43.36089" lon="2.44665">
        <ele>666</ele>
        <time>2017-09-24T12:19:01.000Z</time>
      </trkpt>
      <trkpt lat="43.36089" lon="2.44666">
        <ele>666</ele>
        <time>2017-09-24T12:19:02.000Z</time>
      </trkpt>
      <trkpt lat="43.36088" lon="2.44667">
        <ele>666</ele>
        <time>2017-09-24T12:19:03.000Z</time>
      </trkpt>
      <trkpt lat="43.36088" lon="2.44668">
        <ele>666</ele>
        <time>2017-09-24T12:19:04.000Z</time>
      </trkpt>
      <trkpt lat="43.36087" lon="2.4467">
        <ele>665</ele>
        <time>2017-09-24T12:19:05.000Z</time>
      </trkpt>
      <trkpt lat="43.36087" lon="2.44672">
        <ele>665</ele>
        <time>2017-09-24T12:19:06.000Z</time>
      </trkpt>
      <trkpt lat="43.36087" lon="2.44673">
        <ele>665</ele>
        <time>2017-09-24T12:19:07.000Z</time>
      </trkpt>
      <trkpt lat="43.36087" lon="2.44674">
        <ele>664</ele>
        <time>2017-09-24T12:19:08.000Z</time>
      </trkpt>
      <trkpt lat="43.36086" lon="2.44676">
        <ele>664</ele>
        <time>2017-09-24T12:19:09.000Z</time>
      </trkpt>
      <trkpt lat="43.36086" lon="2.44678">
        <ele>664</ele>
        <time>2017-09-24T12:19:10.000Z</time>
      </trkpt>
      <trkpt lat="43.36086" lon="2.4468">
        <ele>663</ele>
        <time>2017-09-24T12:19:11.000Z</time>
      </trkpt>
      <trkpt lat="43.36086" lon="2.44682">
        <ele>663</ele>
        <time>2017-09-24T12:19:12.000Z</time>
      </trkpt>
      <trkpt lat="43.36085" lon="2.44684">
        <ele>663</ele>
        <time>2017-09-24T12:19:13.000Z</time>
      </trkpt>
      <trkpt lat="43.36085" lon="2.44685">
        <ele>663</ele>
        <time>2017-09-24T12:19:14.000Z</time>
      </trkpt>
      <trkpt lat="43.36085" lon="2.44686">
        <ele>662</ele>
        <time>2017-09-24T12:19:15.000Z</time>
      </trkpt>
      <trkpt lat="43.36084" lon="2.44688">
        <ele>662</ele>
        <time>2017-09-24T12:19:16.000Z</time>
      </trkpt>
      <trkpt lat="43.36084" lon="2.44689">
        <ele>661</ele>
        <time>2017-09-24T12:19:17.000Z</time>
      </trkpt>
      <trkpt lat="43.36083" lon="2.4469">
        <ele>661</ele>
        <time>2017-09-24T12:19:18.000Z</time>
      </trkpt>
      <trkpt lat="43.36083" lon="2.44691">
        <ele>661</ele>
        <time>2017-09-24T12:19:19.000Z</time>
      </trkpt>
      <trkpt lat="43.36083" lon="2.44692">
        <ele>661</ele>
        <time>2017-09-24T12:19:20.000Z</time>
      </trkpt>
      <trkpt lat="43.36083" lon="2.44693">
        <ele>661</ele>
        <time>2017-09-24T12:19:21.000Z</time>
      </trkpt>
      <trkpt lat="43.36083" lon="2.44695">
        <ele>660</ele>
        <time>2017-09-24T12:19:22.000Z</time>
      </trkpt>
      <trkpt lat="43.36083" lon="2.44696">
        <ele>660</ele>
        <time>2017-09-24T12:19:23.000Z</time>
      </trkpt>
      <trkpt lat="43.36083" lon="2.44698">
        <ele>660</ele>
        <time>2017-09-24T12:19:24.000Z</time>
      </trkpt>
      <trkpt lat="43.36082" lon="2.447">
        <ele>660</ele>
        <time>2017-09-24T12:19:25.000Z</time>
      </trkpt>
      <trkpt lat="43.36083" lon="2.44701">
        <ele>660</ele>
        <time>2017-09-24T12:19:26.000Z</time>
      </trkpt>
      <trkpt lat="43.36082" lon="2.44702">
        <ele>659</ele>
        <time>2017-09-24T12:19:27.000Z</time>
      </trkpt>
      <trkpt lat="43.36083" lon="2.44703">
        <ele>659</ele>
        <time>2017-09-24T12:19:28.000Z</time>
      </trkpt>
      <trkpt lat="43.36083" lon="2.44704">
        <ele>659</ele>
        <time>2017-09-24T12:19:29.000Z</time>
      </trkpt>
      <trkpt lat="43.36083" lon="2.44706">
        <ele>659</ele>
        <time>2017-09-24T12:19:30.000Z</time>
      </trkpt>
      <trkpt lat="43.36083" lon="2.44707">
        <ele>659</ele>
        <time>2017-09-24T12:19:31.000Z</time>
      </trkpt>
      <trkpt lat="43.36083" lon="2.44708">
        <ele>659</ele>
        <time>2017-09-24T12:19:32.000Z</time>
      </trkpt>
      <trkpt lat="43.36083" lon="2.44709">
        <ele>659</ele>
        <time>2017-09-24T12:19:33.000Z</time>
      </trkpt>
      <trkpt lat="43.36083" lon="2.44711">
        <ele>659</ele>
        <time>2017-09-24T12:19:34.000Z</time>
      </trkpt>
      <trkpt lat="43.36083" lon="2.44712">
        <ele>659</ele>
        <time>2017-09-24T12:19:35.000Z</time>
      </trkpt>
      <trkpt lat="43.36083" lon="2.44713">
        <ele>658</ele>
        <time>2017-09-24T12:19:36.000Z</time>
      </trkpt>
      <trkpt lat="43.36084" lon="2.44714">
        <ele>658</ele>
        <time>2017-09-24T12:19:37.000Z</time>
      </trkpt>
      <trkpt lat="43.36084" lon="2.44716">
        <ele>658</ele>
        <time>2017-09-24T12:19:38.000Z</time>
      </trkpt>
      <trkpt lat="43.36084" lon="2.44717">
        <ele>658</ele>
        <time>2017-09-24T12:19:39.000Z</time>
      </trkpt>
      <trkpt lat="43.36085" lon="2.44719">
        <ele>658</ele>
        <time>2017-09-24T12:19:40.000Z</time>
      </trkpt>
      <trkpt lat="43.36085" lon="2.44721">
        <ele>658</ele>
        <time>2017-09-24T12:19:41.000Z</time>
      </trkpt>
      <trkpt lat="43.36085" lon="2.44722">
        <ele>658</ele>
        <time>2017-09-24T12:19:42.000Z</time>
      </trkpt>
      <trkpt lat="43.36085" lon="2.44724">
        <ele>658</ele>
        <time>2017-09-24T12:19:43.000Z</time>
      </trkpt>
      <trkpt lat="43.36085" lon="2.44726">
        <ele>658</ele>
        <time>2017-09-24T12:19:44.000Z</time>
      </trkpt>
      <trkpt lat="43.36085" lon="2.44728">
        <ele>657</ele>
        <time>2017-09-24T12:19:45.000Z</time>
      </trkpt>
      <trkpt lat="43.36085" lon="2.4473">
        <ele>657</ele>
        <time>2017-09-24T12:19:46.000Z</time>
      </trkpt>
      <trkpt lat="43.36085" lon="2.44732">
        <ele>657</ele>
        <time>2017-09-24T12:19:47.000Z</time>
      </trkpt>
      <trkpt lat="43.36085" lon="2.44734">
        <ele>657</ele>
        <time>2017-09-24T12:19:48.000Z</time>
      </trkpt>
      <trkpt lat="43.36085" lon="2.44735">
        <ele>656</ele>
        <time>2017-09-24T12:19:49.000Z</time>
      </trkpt>
      <trkpt lat="43.36085" lon="2.44736">
        <ele>656</ele>
        <time>2017-09-24T12:19:50.000Z</time>
      </trkpt>
      <trkpt lat="43.36085" lon="2.44738">
        <ele>656</ele>
        <time>2017-09-24T12:19:51.000Z</time>
      </trkpt>
      <trkpt lat="43.36085" lon="2.4474">
        <ele>656</ele>
        <time>2017-09-24T12:19:52.000Z</time>
      </trkpt>
      <trkpt lat="43.36085" lon="2.44741">
        <ele>656</ele>
        <time>2017-09-24T12:19:53.000Z</time>
      </trkpt>
      <trkpt lat="43.36085" lon="2.44743">
        <ele>656</ele>
        <time>2017-09-24T12:19:54.000Z</time>
      </trkpt>
      <trkpt lat="43.36084" lon="2.44744">
        <ele>655</ele>
        <time>2017-09-24T12:19:55.000Z</time>
      </trkpt>
      <trkpt lat="43.36084" lon="2.44746">
        <ele>655</ele>
        <time>2017-09-24T12:19:56.000Z</time>
      </trkpt>
      <trkpt lat="43.36085" lon="2.44748">
        <ele>655</ele>
        <time>2017-09-24T12:19:57.000Z</time>
      </trkpt>
      <trkpt lat="43.36085" lon="2.44749">
        <ele>655</ele>
        <time>2017-09-24T12:19:58.000Z</time>
      </trkpt>
      <trkpt lat="43.36085" lon="2.4475">
        <ele>655</ele>
        <time>2017-09-24T12:19:59.000Z</time>
      </trkpt>
      <trkpt lat="43.36084" lon="2.44752">
        <ele>655</ele>
        <time>2017-09-24T12:20:00.000Z</time>
      </trkpt>
      <trkpt lat="43.36084" lon="2.44753">
        <ele>655</ele>
        <time>2017-09-24T12:20:01.000Z</time>
      </trkpt>
      <trkpt lat="43.36084" lon="2.44754">
        <ele>655</ele>
        <time>2017-09-24T12:20:02.000Z</time>
      </trkpt>
      <trkpt lat="43.36084" lon="2.44756">
        <ele>654</ele>
        <time>2017-09-24T12:20:03.000Z</time>
      </trkpt>
      <trkpt lat="43.36084" lon="2.44757">
        <ele>654</ele>
        <time>2017-09-24T12:20:04.000Z</time>
      </trkpt>
      <trkpt lat="43.36084" lon="2.44758">
        <ele>654</ele>
        <time>2017-09-24T12:20:05.000Z</time>
      </trkpt>
      <trkpt lat="43.36083" lon="2.4476">
        <ele>654</ele>
        <time>2017-09-24T12:20:06.000Z</time>
      </trkpt>
      <trkpt lat="43.36083" lon="2.44761">
        <ele>654</ele>
        <time>2017-09-24T12:20:07.000Z</time>
      </trkpt>
      <trkpt lat="43.36082" lon="2.44762">
        <ele>653</ele>
        <time>2017-09-24T12:20:08.000Z</time>
      </trkpt>
      <trkpt lat="43.36082" lon="2.44764">
        <ele>653</ele>
        <time>2017-09-24T12:20:09.000Z</time>
      </trkpt>
      <trkpt lat="43.36082" lon="2.44766">
        <ele>653</ele>
        <time>2017-09-24T12:20:10.000Z</time>
      </trkpt>
      <trkpt lat="43.36082" lon="2.44768">
        <ele>653</ele>
        <time>2017-09-24T12:20:11.000Z</time>
      </trkpt>
      <trkpt lat="43.36082" lon="2.44769">
        <ele>653</ele>
        <time>2017-09-24T12:20:12.000Z</time>
      </trkpt>
      <trkpt lat="43.36082" lon="2.44771">
        <ele>653</ele>
        <time>2017-09-24T12:20:13.000Z</time>
      </trkpt>
      <trkpt lat="43.36082" lon="2.44772">
        <ele>653</ele>
        <time>2017-09-24T12:20:14.000Z</time>
      </trkpt>
      <trkpt lat="43.36082" lon="2.44775">
        <ele>652</ele>
        <time>2017-09-24T12:20:15.000Z</time>
      </trkpt>
      <trkpt lat="43.36083" lon="2.44776">
        <ele>652</ele>
        <time>2017-09-24T12:20:16.000Z</time>
      </trkpt>
      <trkpt lat="43.36083" lon="2.44778">
        <ele>652</ele>
        <time>2017-09-24T12:20:17.000Z</time>
      </trkpt>
      <trkpt lat="43.36082" lon="2.44779">
        <ele>652</ele>
        <time>2017-09-24T12:20:18.000Z</time>
      </trkpt>
      <trkpt lat="43.36082" lon="2.44781">
        <ele>652</ele>
        <time>2017-09-24T12:20:19.000Z</time>
      </trkpt>
      <trkpt lat="43.36082" lon="2.44783">
        <ele>652</ele>
        <time>2017-09-24T12:20:20.000Z</time>
      </trkpt>
      <trkpt lat="43.36082" lon="2.44784">
        <ele>652</ele>
        <time>2017-09-24T12:20:21.000Z</time>
      </trkpt>
      <trkpt lat="43.36082" lon="2.44786">
        <ele>651</ele>
        <time>2017-09-24T12:20:22.000Z</time>
      </trkpt>
      <trkpt lat="43.36081" lon="2.44787">
        <ele>651</ele>
        <time>2017-09-24T12:20:23.000Z</time>
      </trkpt>
      <trkpt lat="43.36081" lon="2.44789">
        <ele>651</ele>
        <time>2017-09-24T12:20:24.000Z</time>
      </trkpt>
      <trkpt lat="43.36081" lon="2.4479">
        <ele>651</ele>
        <time>2017-09-24T12:20:25.000Z</time>
      </trkpt>
      <trkpt lat="43.36081" lon="2.44792">
        <ele>651</ele>
        <time>2017-09-24T12:20:26.000Z</time>
      </trkpt>
      <trkpt lat="43.3608" lon="2.44793">
        <ele>650</ele>
        <time>2017-09-24T12:20:27.000Z</time>
      </trkpt>
      <trkpt lat="43.3608" lon="2.44795">
        <ele>650</ele>
        <time>2017-09-24T12:20:28.000Z</time>
      </trkpt>
      <trkpt lat="43.3608" lon="2.44796">
        <ele>650</ele>
        <time>2017-09-24T12:20:29.000Z</time>
      </trkpt>
      <trkpt lat="43.36079" lon="2.44796">
        <ele>650</ele>
        <time>2017-09-24T12:20:30.000Z</time>
      </trkpt>
      <trkpt lat="43.36079" lon="2.44798">
        <ele>649</ele>
        <time>2017-09-24T12:20:31.000Z</time>
      </trkpt>
      <trkpt lat="43.36079" lon="2.44799">
        <ele>649</ele>
        <time>2017-09-24T12:20:32.000Z</time>
      </trkpt>
      <trkpt lat="43.36078" lon="2.448">
        <ele>649</ele>
        <time>2017-09-24T12:20:33.000Z</time>
      </trkpt>
      <trkpt lat="43.36078" lon="2.44801">
        <ele>649</ele>
        <time>2017-09-24T12:20:34.000Z</time>
      </trkpt>
      <trkpt lat="43.36078" lon="2.44803">
        <ele>649</ele>
        <time>2017-09-24T12:20:35.000Z</time>
      </trkpt>
      <trkpt lat="43.36077" lon="2.44804">
        <ele>648</ele>
        <time>2017-09-24T12:20:36.000Z</time>
      </trkpt>
      <trkpt lat="43.36077" lon="2.44806">
        <ele>648</ele>
        <time>2017-09-24T12:20:37.000Z</time>
      </trkpt>
      <trkpt lat="43.36077" lon="2.44807">
        <ele>648</ele>
        <time>2017-09-24T12:20:38.000Z</time>
      </trkpt>
      <trkpt lat="43.36077" lon="2.44808">
        <ele>648</ele>
        <time>2017-09-24T12:20:39.000Z</time>
      </trkpt>
      <trkpt lat="43.36077" lon="2.44809">
        <ele>648</ele>
        <time>2017-09-24T12:20:40.000Z</time>
      </trkpt>
      <trkpt lat="43.36077" lon="2.4481">
        <ele>648</ele>
        <time>2017-09-24T12:20:41.000Z</time>
      </trkpt>
      <trkpt lat="43.36076" lon="2.44811">
        <ele>648</ele>
        <time>2017-09-24T12:20:42.000Z</time>
      </trkpt>
      <trkpt lat="43.36076" lon="2.44812">
        <ele>648</ele>
        <time>2017-09-24T12:20:43.000Z</time>
      </trkpt>
      <trkpt lat="43.36076" lon="2.44813">
        <ele>647</ele>
        <time>2017-09-24T12:20:44.000Z</time>
      </trkpt>
      <trkpt lat="43.36076" lon="2.44814">
        <ele>647</ele>
        <time>2017-09-24T12:20:45.000Z</time>
      </trkpt>
      <trkpt lat="43.36075" lon="2.44816">
        <ele>647</ele>
        <time>2017-09-24T12:20:46.000Z</time>
      </trkpt>
      <trkpt lat="43.36075" lon="2.44816">
        <ele>647</ele>
        <time>2017-09-24T12:20:47.000Z</time>
      </trkpt>
      <trkpt lat="43.36074" lon="2.44817">
        <ele>647</ele>
        <time>2017-09-24T12:20:48.000Z</time>
      </trkpt>
      <trkpt lat="43.36074" lon="2.44818">
        <ele>647</ele>
        <time>2017-09-24T12:20:49.000Z</time>
      </trkpt>
      <trkpt lat="43.36074" lon="2.44819">
        <ele>647</ele>
        <time>2017-09-24T12:20:50.000Z</time>
      </trkpt>
      <trkpt lat="43.36074" lon="2.44821">
        <ele>647</ele>
        <time>2017-09-24T12:20:51.000Z</time>
      </trkpt>
      <trkpt lat="43.36074" lon="2.44822">
        <ele>647</ele>
        <time>2017-09-24T12:20:52.000Z</time>
      </trkpt>
      <trkpt lat="43.36074" lon="2.44822">
        <ele>647</ele>
        <time>2017-09-24T12:20:53.000Z</time>
      </trkpt>
      <trkpt lat="43.36073" lon="2.44822">
        <ele>647</ele>
        <time>2017-09-24T12:20:54.000Z</time>
      </trkpt>
      <trkpt lat="43.36073" lon="2.44823">
        <ele>647</ele>
        <time>2017-09-24T12:20:55.000Z</time>
      </trkpt>
      <trkpt lat="43.36074" lon="2.44825">
        <ele>647</ele>
        <time>2017-09-24T12:20:56.000Z</time>
      </trkpt>
      <trkpt lat="43.36074" lon="2.44826">
        <ele>647</ele>
        <time>2017-09-24T12:20:57.000Z</time>
      </trkpt>
      <trkpt lat="43.36074" lon="2.44828">
        <ele>647</ele>
        <time>2017-09-24T12:20:58.000Z</time>
      </trkpt>
      <trkpt lat="43.36074" lon="2.44829">
        <ele>647</ele>
        <time>2017-09-24T12:20:59.000Z</time>
      </trkpt>
      <trkpt lat="43.36074" lon="2.4483">
        <ele>647</ele>
        <time>2017-09-24T12:21:00.000Z</time>
      </trkpt>
      <trkpt lat="43.36074" lon="2.44832">
        <ele>647</ele>
        <time>2017-09-24T12:21:01.000Z</time>
      </trkpt>
      <trkpt lat="43.36074" lon="2.44834">
        <ele>647</ele>
        <time>2017-09-24T12:21:02.000Z</time>
      </trkpt>
      <trkpt lat="43.36073" lon="2.44835">
        <ele>647</ele>
        <time>2017-09-24T12:21:03.000Z</time>
      </trkpt>
      <trkpt lat="43.36073" lon="2.44837">
        <ele>647</ele>
        <time>2017-09-24T12:21:04.000Z</time>
      </trkpt>
      <trkpt lat="43.36072" lon="2.44838">
        <ele>646</ele>
        <time>2017-09-24T12:21:05.000Z</time>
      </trkpt>
      <trkpt lat="43.36072" lon="2.44839">
        <ele>646</ele>
        <time>2017-09-24T12:21:06.000Z</time>
      </trkpt>
      <trkpt lat="43.36071" lon="2.4484">
        <ele>646</ele>
        <time>2017-09-24T12:21:07.000Z</time>
      </trkpt>
      <trkpt lat="43.3607" lon="2.44842">
        <ele>645</ele>
        <time>2017-09-24T12:21:08.000Z</time>
      </trkpt>
      <trkpt lat="43.3607" lon="2.44843">
        <ele>645</ele>
        <time>2017-09-24T12:21:09.000Z</time>
      </trkpt>
      <trkpt lat="43.36069" lon="2.44844">
        <ele>645</ele>
        <time>2017-09-24T12:21:10.000Z</time>
      </trkpt>
      <trkpt lat="43.36069" lon="2.44846">
        <ele>645</ele>
        <time>2017-09-24T12:21:11.000Z</time>
      </trkpt>
      <trkpt lat="43.36068" lon="2.44847">
        <ele>644</ele>
        <time>2017-09-24T12:21:12.000Z</time>
      </trkpt>
      <trkpt lat="43.36068" lon="2.44848">
        <ele>644</ele>
        <time>2017-09-24T12:21:13.000Z</time>
      </trkpt>
      <trkpt lat="43.36067" lon="2.44849">
        <ele>644</ele>
        <time>2017-09-24T12:21:14.000Z</time>
      </trkpt>
      <trkpt lat="43.36067" lon="2.4485">
        <ele>644</ele>
        <time>2017-09-24T12:21:15.000Z</time>
      </trkpt>
      <trkpt lat="43.36066" lon="2.4485">
        <ele>643</ele>
        <time>2017-09-24T12:21:16.000Z</time>
      </trkpt>
      <trkpt lat="43.36067" lon="2.44851">
        <ele>643</ele>
        <time>2017-09-24T12:21:17.000Z</time>
      </trkpt>
      <trkpt lat="43.36066" lon="2.44852">
        <ele>643</ele>
        <time>2017-09-24T12:21:18.000Z</time>
      </trkpt>
      <trkpt lat="43.36066" lon="2.44853">
        <ele>643</ele>
        <time>2017-09-24T12:21:19.000Z</time>
      </trkpt>
      <trkpt lat="43.36066" lon="2.44853">
        <ele>643</ele>
        <time>2017-09-24T12:21:20.000Z</time>
      </trkpt>
      <trkpt lat="43.36066" lon="2.44854">
        <ele>643</ele>
        <time>2017-09-24T12:21:21.000Z</time>
      </trkpt>
      <trkpt lat="43.36066" lon="2.44854">
        <ele>643</ele>
        <time>2017-09-24T12:21:22.000Z</time>
      </trkpt>
      <trkpt lat="43.36066" lon="2.44855">
        <ele>643</ele>
        <time>2017-09-24T12:21:23.000Z</time>
      </trkpt>
      <trkpt lat="43.36066" lon="2.44857">
        <ele>643</ele>
        <time>2017-09-24T12:21:24.000Z</time>
      </trkpt>
      <trkpt lat="43.36065" lon="2.44858">
        <ele>642</ele>
        <time>2017-09-24T12:21:25.000Z</time>
      </trkpt>
      <trkpt lat="43.36065" lon="2.44859">
        <ele>642</ele>
        <time>2017-09-24T12:21:26.000Z</time>
      </trkpt>
      <trkpt lat="43.36065" lon="2.4486">
        <ele>642</ele>
        <time>2017-09-24T12:21:27.000Z</time>
      </trkpt>
      <trkpt lat="43.36064" lon="2.44861">
        <ele>642</ele>
        <time>2017-09-24T12:21:28.000Z</time>
      </trkpt>
      <trkpt lat="43.36064" lon="2.44861">
        <ele>642</ele>
        <time>2017-09-24T12:21:29.000Z</time>
      </trkpt>
      <trkpt lat="43.36064" lon="2.44862">
        <ele>641</ele>
        <time>2017-09-24T12:21:30.000Z</time>
      </trkpt>
      <trkpt lat="43.36064" lon="2.44862">
        <ele>641</ele>
        <time>2017-09-24T12:21:31.000Z</time>
      </trkpt>
      <trkpt lat="43.36064" lon="2.44863">
        <ele>641</ele>
        <time>2017-09-24T12:21:32.000Z</time>
      </trkpt>
      <trkpt lat="43.36064" lon="2.44863">
        <ele>641</ele>
        <time>2017-09-24T12:21:33.000Z</time>
      </trkpt>
      <trkpt lat="43.36065" lon="2.44864">
        <ele>641</ele>
        <time>2017-09-24T12:21:34.000Z</time>
      </trkpt>
      <trkpt lat="43.36065" lon="2.44865">
        <ele>641</ele>
        <time>2017-09-24T12:21:35.000Z</time>
      </trkpt>
      <trkpt lat="43.36065" lon="2.44866">
        <ele>641</ele>
        <time>2017-09-24T12:21:36.000Z</time>
      </trkpt>
      <trkpt lat="43.36064" lon="2.44866">
        <ele>641</ele>
        <time>2017-09-24T12:21:37.000Z</time>
      </trkpt>
      <trkpt lat="43.36064" lon="2.44867">
        <ele>641</ele>
        <time>2017-09-24T12:21:38.000Z</time>
      </trkpt>
      <trkpt lat="43.36064" lon="2.44868">
        <ele>641</ele>
        <time>2017-09-24T12:21:39.000Z</time>
      </trkpt>
      <trkpt lat="43.36064" lon="2.44869">
        <ele>641</ele>
        <time>2017-09-24T12:21:40.000Z</time>
      </trkpt>
      <trkpt lat="43.36064" lon="2.44869">
        <ele>641</ele>
        <time>2017-09-24T12:21:41.000Z</time>
      </trkpt>
      <trkpt lat="43.36064" lon="2.4487">
        <ele>641</ele>
        <time>2017-09-24T12:21:42.000Z</time>
      </trkpt>
      <trkpt lat="43.36064" lon="2.44871">
        <ele>641</ele>
        <time>2017-09-24T12:21:43.000Z</time>
      </trkpt>
      <trkpt lat="43.36064" lon="2.44872">
        <ele>640</ele>
        <time>2017-09-24T12:21:44.000Z</time>
      </trkpt>
      <trkpt lat="43.36064" lon="2.44873">
        <ele>640</ele>
        <time>2017-09-24T12:21:45.000Z</time>
      </trkpt>
      <trkpt lat="43.36063" lon="2.44873">
        <ele>640</ele>
        <time>2017-09-24T12:21:46.000Z</time>
      </trkpt>
      <trkpt lat="43.36063" lon="2.44874">
        <ele>640</ele>
        <time>2017-09-24T12:21:47.000Z</time>
      </trkpt>
      <trkpt lat="43.36063" lon="2.44875">
        <ele>640</ele>
        <time>2017-09-24T12:21:48.000Z</time>
      </trkpt>
      <trkpt lat="43.36063" lon="2.44875">
        <ele>640</ele>
        <time>2017-09-24T12:21:49.000Z</time>
      </trkpt>
      <trkpt lat="43.36063" lon="2.44876">
        <ele>640</ele>
        <time>2017-09-24T12:21:50.000Z</time>
      </trkpt>
      <trkpt lat="43.36063" lon="2.44877">
        <ele>640</ele>
        <time>2017-09-24T12:21:51.000Z</time>
      </trkpt>
      <trkpt lat="43.36063" lon="2.44878">
        <ele>639</ele>
        <time>2017-09-24T12:21:52.000Z</time>
      </trkpt>
      <trkpt lat="43.36063" lon="2.4488">
        <ele>639</ele>
        <time>2017-09-24T12:21:53.000Z</time>
      </trkpt>
      <trkpt lat="43.36062" lon="2.44881">
        <ele>639</ele>
        <time>2017-09-24T12:21:54.000Z</time>
      </trkpt>
      <trkpt lat="43.36062" lon="2.44881">
        <ele>639</ele>
        <time>2017-09-24T12:21:55.000Z</time>
      </trkpt>
      <trkpt lat="43.36062" lon="2.44882">
        <ele>639</ele>
        <time>2017-09-24T12:21:56.000Z</time>
      </trkpt>
      <trkpt lat="43.36062" lon="2.44883">
        <ele>639</ele>
        <time>2017-09-24T12:21:57.000Z</time>
      </trkpt>
      <trkpt lat="43.36062" lon="2.44883">
        <ele>639</ele>
        <time>2017-09-24T12:21:58.000Z</time>
      </trkpt>
      <trkpt lat="43.36062" lon="2.44884">
        <ele>640</ele>
        <time>2017-09-24T12:21:59.000Z</time>
      </trkpt>
      <trkpt lat="43.36062" lon="2.44885">
        <ele>640</ele>
        <time>2017-09-24T12:22:00.000Z</time>
      </trkpt>
      <trkpt lat="43.36062" lon="2.44886">
        <ele>640</ele>
        <time>2017-09-24T12:22:01.000Z</time>
      </trkpt>
      <trkpt lat="43.36062" lon="2.44886">
        <ele>640</ele>
        <time>2017-09-24T12:22:02.000Z</time>
      </trkpt>
      <trkpt lat="43.36062" lon="2.44887">
        <ele>640</ele>
        <time>2017-09-24T12:22:03.000Z</time>
      </trkpt>
      <trkpt lat="43.36061" lon="2.44888">
        <ele>640</ele>
        <time>2017-09-24T12:22:04.000Z</time>
      </trkpt>
      <trkpt lat="43.36061" lon="2.44889">
        <ele>640</ele>
        <time>2017-09-24T12:22:05.000Z</time>
      </trkpt>
      <trkpt lat="43.36061" lon="2.4489">
        <ele>641</ele>
        <time>2017-09-24T12:22:06.000Z</time>
      </trkpt>
      <trkpt lat="43.36061" lon="2.44891">
        <ele>641</ele>
        <time>2017-09-24T12:22:07.000Z</time>
      </trkpt>
      <trkpt lat="43.36061" lon="2.44892">
        <ele>641</ele>
        <time>2017-09-24T12:22:08.000Z</time>
      </trkpt>
      <trkpt lat="43.36061" lon="2.44892">
        <ele>641</ele>
        <time>2017-09-24T12:22:09.000Z</time>
      </trkpt>
      <trkpt lat="43.36061" lon="2.44893">
        <ele>641</ele>
        <time>2017-09-24T12:22:10.000Z</time>
      </trkpt>
      <trkpt lat="43.36061" lon="2.44894">
        <ele>641</ele>
        <time>2017-09-24T12:22:11.000Z</time>
      </trkpt>
      <trkpt lat="43.36061" lon="2.44895">
        <ele>641</ele>
        <time>2017-09-24T12:22:12.000Z</time>
      </trkpt>
      <trkpt lat="43.3606" lon="2.44896">
        <ele>641</ele>
        <time>2017-09-24T12:22:13.000Z</time>
      </trkpt>
      <trkpt lat="43.36059" lon="2.44896">
        <ele>641</ele>
        <time>2017-09-24T12:22:14.000Z</time>
      </trkpt>
      <trkpt lat="43.36059" lon="2.44897">
        <ele>642</ele>
        <time>2017-09-24T12:22:15.000Z</time>
      </trkpt>
      <trkpt lat="43.36059" lon="2.44898">
        <ele>642</ele>
        <time>2017-09-24T12:22:16.000Z</time>
      </trkpt>
      <trkpt lat="43.36059" lon="2.44898">
        <ele>642</ele>
        <time>2017-09-24T12:22:17.000Z</time>
      </trkpt>
      <trkpt lat="43.36059" lon="2.44899">
        <ele>642</ele>
        <time>2017-09-24T12:22:18.000Z</time>
      </trkpt>
      <trkpt lat="43.36059" lon="2.449">
        <ele>642</ele>
        <time>2017-09-24T12:22:19.000Z</time>
      </trkpt>
      <trkpt lat="43.36059" lon="2.44901">
        <ele>642</ele>
        <time>2017-09-24T12:22:20.000Z</time>
      </trkpt>
      <trkpt lat="43.36058" lon="2.44902">
        <ele>642</ele>
        <time>2017-09-24T12:22:21.000Z</time>
      </trkpt>
      <trkpt lat="43.36058" lon="2.44902">
        <ele>642</ele>
        <time>2017-09-24T12:22:22.000Z</time>
      </trkpt>
      <trkpt lat="43.36058" lon="2.44903">
        <ele>643</ele>
        <time>2017-09-24T12:22:23.000Z</time>
      </trkpt>
      <trkpt lat="43.36058" lon="2.44905">
        <ele>643</ele>
        <time>2017-09-24T12:22:24.000Z</time>
      </trkpt>
      <trkpt lat="43.36057" lon="2.44906">
        <ele>643</ele>
        <time>2017-09-24T12:22:25.000Z</time>
      </trkpt>
      <trkpt lat="43.36057" lon="2.44907">
        <ele>643</ele>
        <time>2017-09-24T12:22:26.000Z</time>
      </trkpt>
      <trkpt lat="43.36057" lon="2.44908">
        <ele>643</ele>
        <time>2017-09-24T12:22:27.000Z</time>
      </trkpt>
      <trkpt lat="43.36056" lon="2.44909">
        <ele>643</ele>
        <time>2017-09-24T12:22:28.000Z</time>
      </trkpt>
      <trkpt lat="43.36056" lon="2.4491">
        <ele>644</ele>
        <time>2017-09-24T12:22:29.000Z</time>
      </trkpt>
      <trkpt lat="43.36056" lon="2.44911">
        <ele>644</ele>
        <time>2017-09-24T12:22:30.000Z</time>
      </trkpt>
      <trkpt lat="43.36055" lon="2.44912">
        <ele>644</ele>
        <time>2017-09-24T12:22:31.000Z</time>
      </trkpt>
      <trkpt lat="43.36055" lon="2.44913">
        <ele>644</ele>
        <time>2017-09-24T12:22:32.000Z</time>
      </trkpt>
      <trkpt lat="43.36055" lon="2.44914">
        <ele>644</ele>
        <time>2017-09-24T12:22:33.000Z</time>
      </trkpt>
      <trkpt lat="43.36055" lon="2.44915">
        <ele>644</ele>
        <time>2017-09-24T12:22:34.000Z</time>
      </trkpt>
      <trkpt lat="43.36055" lon="2.44916">
        <ele>644</ele>
        <time>2017-09-24T12:22:35.000Z</time>
      </trkpt>
      <trkpt lat="43.36055" lon="2.44918">
        <ele>644</ele>
        <time>2017-09-24T12:22:36.000Z</time>
      </trkpt>
      <trkpt lat="43.36054" lon="2.44919">
        <ele>644</ele>
        <time>2017-09-24T12:22:37.000Z</time>
      </trkpt>
      <trkpt lat="43.36054" lon="2.44919">
        <ele>644</ele>
        <time>2017-09-24T12:22:38.000Z</time>
      </trkpt>
      <trkpt lat="43.36054" lon="2.4492">
        <ele>644</ele>
        <time>2017-09-24T12:22:39.000Z</time>
      </trkpt>
      <trkpt lat="43.36054" lon="2.44921">
        <ele>643</ele>
        <time>2017-09-24T12:22:40.000Z</time>
      </trkpt>
      <trkpt lat="43.36053" lon="2.44922">
        <ele>643</ele>
        <time>2017-09-24T12:22:41.000Z</time>
      </trkpt>
      <trkpt lat="43.36053" lon="2.44924">
        <ele>643</ele>
        <time>2017-09-24T12:22:42.000Z</time>
      </trkpt>
      <trkpt lat="43.36053" lon="2.44925">
        <ele>643</ele>
        <time>2017-09-24T12:22:43.000Z</time>
      </trkpt>
      <trkpt lat="43.36052" lon="2.44926">
        <ele>642</ele>
        <time>2017-09-24T12:22:44.000Z</time>
      </trkpt>
      <trkpt lat="43.36052" lon="2.44926">
        <ele>642</ele>
        <time>2017-09-24T12:22:45.000Z</time>
      </trkpt>
      <trkpt lat="43.36052" lon="2.44927">
        <ele>642</ele>
        <time>2017-09-24T12:22:46.000Z</time>
      </trkpt>
      <trkpt lat="43.36052" lon="2.44928">
        <ele>642</ele>
        <time>2017-09-24T12:22:47.000Z</time>
      </trkpt>
      <trkpt lat="43.36052" lon="2.44929">
        <ele>642</ele>
        <time>2017-09-24T12:22:48.000Z</time>
      </trkpt>
      <trkpt lat="43.36052" lon="2.44929">
        <ele>642</ele>
        <time>2017-09-24T12:22:49.000Z</time>
      </trkpt>
      <trkpt lat="43.36052" lon="2.4493">
        <ele>641</ele>
        <time>2017-09-24T12:22:50.000Z</time>
      </trkpt>
      <trkpt lat="43.36052" lon="2.4493">
        <ele>641</ele>
        <time>2017-09-24T12:22:51.000Z</time>
      </trkpt>
      <trkpt lat="43.36052" lon="2.44931">
        <ele>641</ele>
        <time>2017-09-24T12:22:52.000Z</time>
      </trkpt>
      <trkpt lat="43.36052" lon="2.44932">
        <ele>641</ele>
        <time>2017-09-24T12:22:53.000Z</time>
      </trkpt>
      <trkpt lat="43.36052" lon="2.44932">
        <ele>641</ele>
        <time>2017-09-24T12:22:54.000Z</time>
      </trkpt>
      <trkpt lat="43.36052" lon="2.44933">
        <ele>641</ele>
        <time>2017-09-24T12:22:55.000Z</time>
      </trkpt>
      <trkpt lat="43.36052" lon="2.44934">
        <ele>641</ele>
        <time>2017-09-24T12:22:56.000Z</time>
      </trkpt>
      <trkpt lat="43.36051" lon="2.44934">
        <ele>640</ele>
        <time>2017-09-24T12:22:57.000Z</time>
      </trkpt>
      <trkpt lat="43.36051" lon="2.44935">
        <ele>640</ele>
        <time>2017-09-24T12:22:58.000Z</time>
      </trkpt>
      <trkpt lat="43.36051" lon="2.44935">
        <ele>640</ele>
        <time>2017-09-24T12:22:59.000Z</time>
      </trkpt>
      <trkpt lat="43.36051" lon="2.44936">
        <ele>640</ele>
        <time>2017-09-24T12:23:00.000Z</time>
      </trkpt>
      <trkpt lat="43.36052" lon="2.44937">
        <ele>640</ele>
        <time>2017-09-24T12:23:01.000Z</time>
      </trkpt>
      <trkpt lat="43.36052" lon="2.44937">
        <ele>640</ele>
        <time>2017-09-24T12:23:02.000Z</time>
      </trkpt>
      <trkpt lat="43.36051" lon="2.44938">
        <ele>640</ele>
        <time>2017-09-24T12:23:03.000Z</time>
      </trkpt>
      <trkpt lat="43.36051" lon="2.44938">
        <ele>640</ele>
        <time>2017-09-24T12:23:04.000Z</time>
      </trkpt>
      <trkpt lat="43.36051" lon="2.44939">
        <ele>639</ele>
        <time>2017-09-24T12:23:05.000Z</time>
      </trkpt>
      <trkpt lat="43.36051" lon="2.44939">
        <ele>639</ele>
        <time>2017-09-24T12:23:06.000Z</time>
      </trkpt>
      <trkpt lat="43.36051" lon="2.4494">
        <ele>639</ele>
        <time>2017-09-24T12:23:07.000Z</time>
      </trkpt>
      <trkpt lat="43.36051" lon="2.44941">
        <ele>639</ele>
        <time>2017-09-24T12:23:08.000Z</time>
      </trkpt>
      <trkpt lat="43.3605" lon="2.44942">
        <ele>639</ele>
        <time>2017-09-24T12:23:09.000Z</time>
      </trkpt>
      <trkpt lat="43.3605" lon="2.44943">
        <ele>638</ele>
        <time>2017-09-24T12:23:10.000Z</time>
      </trkpt>
      <trkpt lat="43.36049" lon="2.44944">
        <ele>638</ele>
        <time>2017-09-24T12:23:11.000Z</time>
      </trkpt>
      <trkpt lat="43.36049" lon="2.44945">
        <ele>638</ele>
        <time>2017-09-24T12:23:12.000Z</time>
      </trkpt>
      <trkpt lat="43.36049" lon="2.44946">
        <ele>638</ele>
        <time>2017-09-24T12:23:13.000Z</time>
      </trkpt>
      <trkpt lat="43.36048" lon="2.44947">
        <ele>638</ele>
        <time>2017-09-24T12:23:14.000Z</time>
      </trkpt>
      <trkpt lat="43.36049" lon="2.44948">
        <ele>638</ele>
        <time>2017-09-24T12:23:15.000Z</time>
      </trkpt>
      <trkpt lat="43.36048" lon="2.44948">
        <ele>637</ele>
        <time>2017-09-24T12:23:16.000Z</time>
      </trkpt>
      <trkpt lat="43.36048" lon="2.44949">
        <ele>637</ele>
        <time>2017-09-24T12:23:17.000Z</time>
      </trkpt>
      <trkpt lat="43.36048" lon="2.4495">
        <ele>637</ele>
        <time>2017-09-24T12:23:18.000Z</time>
      </trkpt>
      <trkpt lat="43.36048" lon="2.44951">
        <ele>637</ele>
        <time>2017-09-24T12:23:19.000Z</time>
      </trkpt>
      <trkpt lat="43.36048" lon="2.44952">
        <ele>638</ele>
        <time>2017-09-24T12:23:20.000Z</time>
      </trkpt>
      <trkpt lat="43.36048" lon="2.44953">
        <ele>638</ele>
        <time>2017-09-24T12:23:21.000Z</time>
      </trkpt>
      <trkpt lat="43.36048" lon="2.44954">
        <ele>638</ele>
        <time>2017-09-24T12:23:22.000Z</time>
      </trkpt>
      <trkpt lat="43.36048" lon="2.44955">
        <ele>638</ele>
        <time>2017-09-24T12:23:23.000Z</time>
      </trkpt>
      <trkpt lat="43.36047" lon="2.44956">
        <ele>638</ele>
        <time>2017-09-24T12:23:24.000Z</time>
      </trkpt>
      <trkpt lat="43.36047" lon="2.44957">
        <ele>639</ele>
        <time>2017-09-24T12:23:25.000Z</time>
      </trkpt>
      <trkpt lat="43.36047" lon="2.44957">
        <ele>639</ele>
        <time>2017-09-24T12:23:26.000Z</time>
      </trkpt>
      <trkpt lat="43.36046" lon="2.44958">
        <ele>639</ele>
        <time>2017-09-24T12:23:27.000Z</time>
      </trkpt>
      <trkpt lat="43.36046" lon="2.44959">
        <ele>639</ele>
        <time>2017-09-24T12:23:28.000Z</time>
      </trkpt>
      <trkpt lat="43.36046" lon="2.4496">
        <ele>639</ele>
        <time>2017-09-24T12:23:29.000Z</time>
      </trkpt>
      <trkpt lat="43.36045" lon="2.4496">
        <ele>640</ele>
        <time>2017-09-24T12:23:30.000Z</time>
      </trkpt>
      <trkpt lat="43.36045" lon="2.44961">
        <ele>640</ele>
        <time>2017-09-24T12:23:31.000Z</time>
      </trkpt>
      <trkpt lat="43.36045" lon="2.44962">
        <ele>640</ele>
        <time>2017-09-24T12:23:32.000Z</time>
      </trkpt>
      <trkpt lat="43.36045" lon="2.44963">
        <ele>640</ele>
        <time>2017-09-24T12:23:33.000Z</time>
      </trkpt>
      <trkpt lat="43.36045" lon="2.44963">
        <ele>640</ele>
        <time>2017-09-24T12:23:34.000Z</time>
      </trkpt>
      <trkpt lat="43.36046" lon="2.44964">
        <ele>640</ele>
        <time>2017-09-24T12:23:35.000Z</time>
      </trkpt>
      <trkpt lat="43.36046" lon="2.44964">
        <ele>640</ele>
        <time>2017-09-24T12:23:36.000Z</time>
      </trkpt>
      <trkpt lat="43.36046" lon="2.44965">
        <ele>640</ele>
        <time>2017-09-24T12:23:37.000Z</time>
      </trkpt>
      <trkpt lat="43.36047" lon="2.44966">
        <ele>640</ele>
        <time>2017-09-24T12:23:38.000Z</time>
      </trkpt>
      <trkpt lat="43.36047" lon="2.44967">
        <ele>640</ele>
        <time>2017-09-24T12:23:39.000Z</time>
      </trkpt>
      <trkpt lat="43.36047" lon="2.44967">
        <ele>640</ele>
        <time>2017-09-24T12:23:40.000Z</time>
      </trkpt>
      <trkpt lat="43.36046" lon="2.44968">
        <ele>640</ele>
        <time>2017-09-24T12:23:41.000Z</time>
      </trkpt>
      <trkpt lat="43.36046" lon="2.44968">
        <ele>640</ele>
        <time>2017-09-24T12:23:42.000Z</time>
      </trkpt>
      <trkpt lat="43.36043" lon="2.4498">
        <ele>643</ele>
        <time>2017-09-24T12:24:46.000Z</time>
      </trkpt>
      <trkpt lat="43.36043" lon="2.44981">
        <ele>644</ele>
        <time>2017-09-24T12:24:47.000Z</time>
      </trkpt>
      <trkpt lat="43.36042" lon="2.44981">
        <ele>644</ele>
        <time>2017-09-24T12:24:48.000Z</time>
      </trkpt>
      <trkpt lat="43.36042" lon="2.44982">
        <ele>644</ele>
        <time>2017-09-24T12:24:49.000Z</time>
      </trkpt>
      <trkpt lat="43.36042" lon="2.44983">
        <ele>644</ele>
        <time>2017-09-24T12:24:50.000Z</time>
      </trkpt>
      <trkpt lat="43.36042" lon="2.44983">
        <ele>644</ele>
        <time>2017-09-24T12:24:51.000Z</time>
      </trkpt>
      <trkpt lat="43.36042" lon="2.44984">
        <ele>644</ele>
        <time>2017-09-24T12:24:52.000Z</time>
      </trkpt>
      <trkpt lat="43.36042" lon="2.44985">
        <ele>645</ele>
        <time>2017-09-24T12:24:53.000Z</time>
      </trkpt>
      <trkpt lat="43.36041" lon="2.44986">
        <ele>645</ele>
        <time>2017-09-24T12:24:54.000Z</time>
      </trkpt>
      <trkpt lat="43.36041" lon="2.44987">
        <ele>645</ele>
        <time>2017-09-24T12:24:55.000Z</time>
      </trkpt>
      <trkpt lat="43.36041" lon="2.44987">
        <ele>645</ele>
        <time>2017-09-24T12:24:56.000Z</time>
      </trkpt>
      <trkpt lat="43.3604" lon="2.44987">
        <ele>645</ele>
        <time>2017-09-24T12:24:57.000Z</time>
      </trkpt>
      <trkpt lat="43.3604" lon="2.44989">
        <ele>646</ele>
        <time>2017-09-24T12:24:58.000Z</time>
      </trkpt>
      <trkpt lat="43.3604" lon="2.4499">
        <ele>646</ele>
        <time>2017-09-24T12:24:59.000Z</time>
      </trkpt>
      <trkpt lat="43.3604" lon="2.44991">
        <ele>646</ele>
        <time>2017-09-24T12:25:00.000Z</time>
      </trkpt>
      <trkpt lat="43.3604" lon="2.44992">
        <ele>646</ele>
        <time>2017-09-24T12:25:01.000Z</time>
      </trkpt>
      <trkpt lat="43.3604" lon="2.44993">
        <ele>646</ele>
        <time>2017-09-24T12:25:02.000Z</time>
      </trkpt>
      <trkpt lat="43.3604" lon="2.44994">
        <ele>646</ele>
        <time>2017-09-24T12:25:03.000Z</time>
      </trkpt>
      <trkpt lat="43.36039" lon="2.44995">
        <ele>647</ele>
        <time>2017-09-24T12:25:04.000Z</time>
      </trkpt>
      <trkpt lat="43.36039" lon="2.44996">
        <ele>647</ele>
        <time>2017-09-24T12:25:05.000Z</time>
      </trkpt>
      <trkpt lat="43.36039" lon="2.44998">
        <ele>647</ele>
        <time>2017-09-24T12:25:06.000Z</time>
      </trkpt>
      <trkpt lat="43.36039" lon="2.44999">
        <ele>647</ele>
        <time>2017-09-24T12:25:07.000Z</time>
      </trkpt>
      <trkpt lat="43.36039" lon="2.45">
        <ele>647</ele>
        <time>2017-09-24T12:25:08.000Z</time>
      </trkpt>
      <trkpt lat="43.36038" lon="2.45001">
        <ele>647</ele>
        <time>2017-09-24T12:25:09.000Z</time>
      </trkpt>
      <trkpt lat="43.36038" lon="2.45002">
        <ele>647</ele>
        <time>2017-09-24T12:25:10.000Z</time>
      </trkpt>
      <trkpt lat="43.36037" lon="2.45003">
        <ele>647</ele>
        <time>2017-09-24T12:25:11.000Z</time>
      </trkpt>
      <trkpt lat="43.36037" lon="2.45004">
        <ele>647</ele>
        <time>2017-09-24T12:25:12.000Z</time>
      </trkpt>
      <trkpt lat="43.36036" lon="2.45005">
        <ele>647</ele>
        <time>2017-09-24T12:25:13.000Z</time>
      </trkpt>
      <trkpt lat="43.36035" lon="2.45006">
        <ele>647</ele>
        <time>2017-09-24T12:25:14.000Z</time>
      </trkpt>
      <trkpt lat="43.36035" lon="2.45007">
        <ele>647</ele>
        <time>2017-09-24T12:25:15.000Z</time>
      </trkpt>
      <trkpt lat="43.36034" lon="2.45008">
        <ele>647</ele>
        <time>2017-09-24T12:25:16.000Z</time>
      </trkpt>
      <trkpt lat="43.36034" lon="2.4501">
        <ele>647</ele>
        <time>2017-09-24T12:25:17.000Z</time>
      </trkpt>
      <trkpt lat="43.36034" lon="2.4501">
        <ele>647</ele>
        <time>2017-09-24T12:25:18.000Z</time>
      </trkpt>
      <trkpt lat="43.36034" lon="2.45012">
        <ele>646</ele>
        <time>2017-09-24T12:25:19.000Z</time>
      </trkpt>
      <trkpt lat="43.36033" lon="2.45013">
        <ele>646</ele>
        <time>2017-09-24T12:25:20.000Z</time>
      </trkpt>
      <trkpt lat="43.36033" lon="2.45014">
        <ele>646</ele>
        <time>2017-09-24T12:25:21.000Z</time>
      </trkpt>
      <trkpt lat="43.36033" lon="2.45015">
        <ele>646</ele>
        <time>2017-09-24T12:25:22.000Z</time>
      </trkpt>
      <trkpt lat="43.36032" lon="2.45016">
        <ele>646</ele>
        <time>2017-09-24T12:25:23.000Z</time>
      </trkpt>
      <trkpt lat="43.36032" lon="2.45017">
        <ele>646</ele>
        <time>2017-09-24T12:25:24.000Z</time>
      </trkpt>
      <trkpt lat="43.36032" lon="2.45018">
        <ele>646</ele>
        <time>2017-09-24T12:25:25.000Z</time>
      </trkpt>
      <trkpt lat="43.36032" lon="2.45019">
        <ele>646</ele>
        <time>2017-09-24T12:25:26.000Z</time>
      </trkpt>
      <trkpt lat="43.36032" lon="2.4502">
        <ele>646</ele>
        <time>2017-09-24T12:25:27.000Z</time>
      </trkpt>
      <trkpt lat="43.36032" lon="2.45021">
        <ele>646</ele>
        <time>2017-09-24T12:25:28.000Z</time>
      </trkpt>
      <trkpt lat="43.36032" lon="2.45022">
        <ele>646</ele>
        <time>2017-09-24T12:25:29.000Z</time>
      </trkpt>
      <trkpt lat="43.36032" lon="2.45023">
        <ele>646</ele>
        <time>2017-09-24T12:25:30.000Z</time>
      </trkpt>
      <trkpt lat="43.36032" lon="2.45023">
        <ele>646</ele>
        <time>2017-09-24T12:25:31.000Z</time>
      </trkpt>
      <trkpt lat="43.36032" lon="2.45024">
        <ele>646</ele>
        <time>2017-09-24T12:25:32.000Z</time>
      </trkpt>
      <trkpt lat="43.36031" lon="2.45024">
        <ele>646</ele>
        <time>2017-09-24T12:25:33.000Z</time>
      </trkpt>
      <trkpt lat="43.36031" lon="2.45024">
        <ele>646</ele>
        <time>2017-09-24T12:25:34.000Z</time>
      </trkpt>
      <trkpt lat="43.3603" lon="2.45023">
        <ele>646</ele>
        <time>2017-09-24T12:25:35.000Z</time>
      </trkpt>
      <trkpt lat="43.3603" lon="2.45022">
        <ele>647</ele>
        <time>2017-09-24T12:25:36.000Z</time>
      </trkpt>
      <trkpt lat="43.36029" lon="2.4502">
        <ele>647</ele>
        <time>2017-09-24T12:25:37.000Z</time>
      </trkpt>
      <trkpt lat="43.36029" lon="2.45019">
        <ele>647</ele>
        <time>2017-09-24T12:25:38.000Z</time>
      </trkpt>
      <trkpt lat="43.36029" lon="2.45019">
        <ele>647</ele>
        <time>2017-09-24T12:25:39.000Z</time>
      </trkpt>
      <trkpt lat="43.36028" lon="2.45018">
        <ele>648</ele>
        <time>2017-09-24T12:25:40.000Z</time>
      </trkpt>
      <trkpt lat="43.36027" lon="2.45034">
        <ele>648</ele>
        <time>2017-09-24T12:26:09.000Z</time>
      </trkpt>
      <trkpt lat="43.36027" lon="2.45035">
        <ele>648</ele>
        <time>2017-09-24T12:26:10.000Z</time>
      </trkpt>
      <trkpt lat="43.36027" lon="2.45036">
        <ele>648</ele>
        <time>2017-09-24T12:26:11.000Z</time>
      </trkpt>
      <trkpt lat="43.36027" lon="2.45037">
        <ele>648</ele>
        <time>2017-09-24T12:26:12.000Z</time>
      </trkpt>
      <trkpt lat="43.36026" lon="2.45038">
        <ele>648</ele>
        <time>2017-09-24T12:26:13.000Z</time>
      </trkpt>
      <trkpt lat="43.36026" lon="2.4504">
        <ele>648</ele>
        <time>2017-09-24T12:26:14.000Z</time>
      </trkpt>
      <trkpt lat="43.36026" lon="2.45041">
        <ele>648</ele>
        <time>2017-09-24T12:26:15.000Z</time>
      </trkpt>
      <trkpt lat="43.36026" lon="2.45042">
        <ele>648</ele>
        <time>2017-09-24T12:26:16.000Z</time>
      </trkpt>
      <trkpt lat="43.36025" lon="2.45043">
        <ele>648</ele>
        <time>2017-09-24T12:26:17.000Z</time>
      </trkpt>
      <trkpt lat="43.36026" lon="2.45044">
        <ele>648</ele>
        <time>2017-09-24T12:26:18.000Z</time>
      </trkpt>
      <trkpt lat="43.36026" lon="2.45045">
        <ele>648</ele>
        <time>2017-09-24T12:26:19.000Z</time>
      </trkpt>
      <trkpt lat="43.36026" lon="2.45045">
        <ele>648</ele>
        <time>2017-09-24T12:26:20.000Z</time>
      </trkpt>
      <trkpt lat="43.36026" lon="2.45046">
        <ele>648</ele>
        <time>2017-09-24T12:26:21.000Z</time>
      </trkpt>
      <trkpt lat="43.36026" lon="2.45047">
        <ele>648</ele>
        <time>2017-09-24T12:26:22.000Z</time>
      </trkpt>
      <trkpt lat="43.36025" lon="2.45048">
        <ele>648</ele>
        <time>2017-09-24T12:26:23.000Z</time>
      </trkpt>
      <trkpt lat="43.36025" lon="2.45049">
        <ele>648</ele>
        <time>2017-09-24T12:26:24.000Z</time>
      </trkpt>
      <trkpt lat="43.36025" lon="2.45049">
        <ele>648</ele>
        <time>2017-09-24T12:26:25.000Z</time>
      </trkpt>
      <trkpt lat="43.36025" lon="2.45051">
        <ele>648</ele>
        <time>2017-09-24T12:26:26.000Z</time>
      </trkpt>
      <trkpt lat="43.36025" lon="2.45051">
        <ele>648</ele>
        <time>2017-09-24T12:26:27.000Z</time>
      </trkpt>
      <trkpt lat="43.36025" lon="2.45052">
        <ele>648</ele>
        <time>2017-09-24T12:26:28.000Z</time>
      </trkpt>
      <trkpt lat="43.36025" lon="2.45052">
        <ele>648</ele>
        <time>2017-09-24T12:26:29.000Z</time>
      </trkpt>
      <trkpt lat="43.36025" lon="2.45053">
        <ele>648</ele>
        <time>2017-09-24T12:26:30.000Z</time>
      </trkpt>
      <trkpt lat="43.36025" lon="2.45054">
        <ele>648</ele>
        <time>2017-09-24T12:26:31.000Z</time>
      </trkpt>
      <trkpt lat="43.36025" lon="2.45054">
        <ele>648</ele>
        <time>2017-09-24T12:26:32.000Z</time>
      </trkpt>
      <trkpt lat="43.36025" lon="2.45055">
        <ele>648</ele>
        <time>2017-09-24T12:26:33.000Z</time>
      </trkpt>
      <trkpt lat="43.36006" lon="2.45094">
        <ele>645</ele>
        <time>2017-09-24T12:27:36.000Z</time>
      </trkpt>
      <trkpt lat="43.36006" lon="2.45095">
        <ele>645</ele>
        <time>2017-09-24T12:27:37.000Z</time>
      </trkpt>
      <trkpt lat="43.36005" lon="2.45096">
        <ele>644</ele>
        <time>2017-09-24T12:27:38.000Z</time>
      </trkpt>
      <trkpt lat="43.36005" lon="2.45097">
        <ele>644</ele>
        <time>2017-09-24T12:27:39.000Z</time>
      </trkpt>
      <trkpt lat="43.36006" lon="2.45098">
        <ele>644</ele>
        <time>2017-09-24T12:27:40.000Z</time>
      </trkpt>
      <trkpt lat="43.36007" lon="2.45099">
        <ele>645</ele>
        <time>2017-09-24T12:27:41.000Z</time>
      </trkpt>
      <trkpt lat="43.36007" lon="2.451">
        <ele>645</ele>
        <time>2017-09-24T12:27:42.000Z</time>
      </trkpt>
      <trkpt lat="43.36008" lon="2.451">
        <ele>645</ele>
        <time>2017-09-24T12:27:43.000Z</time>
      </trkpt>
      <trkpt lat="43.36008" lon="2.45101">
        <ele>645</ele>
        <time>2017-09-24T12:27:44.000Z</time>
      </trkpt>
      <trkpt lat="43.36008" lon="2.45102">
        <ele>645</ele>
        <time>2017-09-24T12:27:45.000Z</time>
      </trkpt>
      <trkpt lat="43.36008" lon="2.45103">
        <ele>645</ele>
        <time>2017-09-24T12:27:46.000Z</time>
      </trkpt>
      <trkpt lat="43.36008" lon="2.45104">
        <ele>645</ele>
        <time>2017-09-24T12:27:47.000Z</time>
      </trkpt>
      <trkpt lat="43.36008" lon="2.45104">
        <ele>645</ele>
        <time>2017-09-24T12:27:48.000Z</time>
      </trkpt>
      <trkpt lat="43.36009" lon="2.45105">
        <ele>645</ele>
        <time>2017-09-24T12:27:49.000Z</time>
      </trkpt>
      <trkpt lat="43.36009" lon="2.45106">
        <ele>644</ele>
        <time>2017-09-24T12:27:50.000Z</time>
      </trkpt>
      <trkpt lat="43.36009" lon="2.45107">
        <ele>644</ele>
        <time>2017-09-24T12:27:51.000Z</time>
      </trkpt>
      <trkpt lat="43.36009" lon="2.45108">
        <ele>644</ele>
        <time>2017-09-24T12:27:52.000Z</time>
      </trkpt>
      <trkpt lat="43.3601" lon="2.45109">
        <ele>644</ele>
        <time>2017-09-24T12:27:53.000Z</time>
      </trkpt>
      <trkpt lat="43.3601" lon="2.45111">
        <ele>644</ele>
        <time>2017-09-24T12:27:54.000Z</time>
      </trkpt>
      <trkpt lat="43.36009" lon="2.45112">
        <ele>644</ele>
        <time>2017-09-24T12:27:55.000Z</time>
      </trkpt>
      <trkpt lat="43.36009" lon="2.45113">
        <ele>644</ele>
        <time>2017-09-24T12:27:56.000Z</time>
      </trkpt>
      <trkpt lat="43.36009" lon="2.45114">
        <ele>643</ele>
        <time>2017-09-24T12:27:57.000Z</time>
      </trkpt>
      <trkpt lat="43.36009" lon="2.45115">
        <ele>643</ele>
        <time>2017-09-24T12:27:58.000Z</time>
      </trkpt>
      <trkpt lat="43.36009" lon="2.45116">
        <ele>643</ele>
        <time>2017-09-24T12:27:59.000Z</time>
      </trkpt>
      <trkpt lat="43.36009" lon="2.45117">
        <ele>643</ele>
        <time>2017-09-24T12:28:00.000Z</time>
      </trkpt>
      <trkpt lat="43.36009" lon="2.45117">
        <ele>643</ele>
        <time>2017-09-24T12:28:01.000Z</time>
      </trkpt>
      <trkpt lat="43.36009" lon="2.45118">
        <ele>642</ele>
        <time>2017-09-24T12:28:02.000Z</time>
      </trkpt>
      <trkpt lat="43.36009" lon="2.45119">
        <ele>642</ele>
        <time>2017-09-24T12:28:03.000Z</time>
      </trkpt>
      <trkpt lat="43.36009" lon="2.45121">
        <ele>642</ele>
        <time>2017-09-24T12:28:04.000Z</time>
      </trkpt>
      <trkpt lat="43.36009" lon="2.45122">
        <ele>642</ele>
        <time>2017-09-24T12:28:05.000Z</time>
      </trkpt>
      <trkpt lat="43.36008" lon="2.45122">
        <ele>641</ele>
        <time>2017-09-24T12:28:06.000Z</time>
      </trkpt>
      <trkpt lat="43.36008" lon="2.45122">
        <ele>641</ele>
        <time>2017-09-24T12:28:07.000Z</time>
      </trkpt>
      <trkpt lat="43.36008" lon="2.45128">
        <ele>640</ele>
        <time>2017-09-24T12:28:23.000Z</time>
      </trkpt>
      <trkpt lat="43.36008" lon="2.45129">
        <ele>640</ele>
        <time>2017-09-24T12:28:24.000Z</time>
      </trkpt>
      <trkpt lat="43.36008" lon="2.4513">
        <ele>640</ele>
        <time>2017-09-24T12:28:25.000Z</time>
      </trkpt>
      <trkpt lat="43.36008" lon="2.45132">
        <ele>640</ele>
        <time>2017-09-24T12:28:26.000Z</time>
      </trkpt>
      <trkpt lat="43.36008" lon="2.45133">
        <ele>639</ele>
        <time>2017-09-24T12:28:27.000Z</time>
      </trkpt>
      <trkpt lat="43.36009" lon="2.45134">
        <ele>639</ele>
        <time>2017-09-24T12:28:28.000Z</time>
      </trkpt>
      <trkpt lat="43.36009" lon="2.45135">
        <ele>639</ele>
        <time>2017-09-24T12:28:29.000Z</time>
      </trkpt>
      <trkpt lat="43.36009" lon="2.45136">
        <ele>639</ele>
        <time>2017-09-24T12:28:30.000Z</time>
      </trkpt>
      <trkpt lat="43.36009" lon="2.45137">
        <ele>639</ele>
        <time>2017-09-24T12:28:31.000Z</time>
      </trkpt>
      <trkpt lat="43.36009" lon="2.45138">
        <ele>639</ele>
        <time>2017-09-24T12:28:32.000Z</time>
      </trkpt>
      <trkpt lat="43.36009" lon="2.45139">
        <ele>639</ele>
        <time>2017-09-24T12:28:33.000Z</time>
      </trkpt>
      <trkpt lat="43.36009" lon="2.4514">
        <ele>639</ele>
        <time>2017-09-24T12:28:34.000Z</time>
      </trkpt>
      <trkpt lat="43.36009" lon="2.4514">
        <ele>639</ele>
        <time>2017-09-24T12:28:35.000Z</time>
      </trkpt>
      <trkpt lat="43.36009" lon="2.45141">
        <ele>638</ele>
        <time>2017-09-24T12:28:36.000Z</time>
      </trkpt>
      <trkpt lat="43.36009" lon="2.45142">
        <ele>638</ele>
        <time>2017-09-24T12:28:37.000Z</time>
      </trkpt>
      <trkpt lat="43.3601" lon="2.45143">
        <ele>638</ele>
        <time>2017-09-24T12:28:38.000Z</time>
      </trkpt>
      <trkpt lat="43.3601" lon="2.45144">
        <ele>638</ele>
        <time>2017-09-24T12:28:39.000Z</time>
      </trkpt>
      <trkpt lat="43.3601" lon="2.45145">
        <ele>638</ele>
        <time>2017-09-24T12:28:40.000Z</time>
      </trkpt>
      <trkpt lat="43.36011" lon="2.45145">
        <ele>639</ele>
        <time>2017-09-24T12:28:41.000Z</time>
      </trkpt>
      <trkpt lat="43.36011" lon="2.45146">
        <ele>639</ele>
        <time>2017-09-24T12:28:42.000Z</time>
      </trkpt>
      <trkpt lat="43.36011" lon="2.45147">
        <ele>638</ele>
        <time>2017-09-24T12:28:43.000Z</time>
      </trkpt>
      <trkpt lat="43.36011" lon="2.45148">
        <ele>638</ele>
        <time>2017-09-24T12:28:44.000Z</time>
      </trkpt>
      <trkpt lat="43.36011" lon="2.45149">
        <ele>638</ele>
        <time>2017-09-24T12:28:45.000Z</time>
      </trkpt>
      <trkpt lat="43.36011" lon="2.4515">
        <ele>638</ele>
        <time>2017-09-24T12:28:46.000Z</time>
      </trkpt>
      <trkpt lat="43.36012" lon="2.45151">
        <ele>638</ele>
        <time>2017-09-24T12:28:47.000Z</time>
      </trkpt>
      <trkpt lat="43.36012" lon="2.45152">
        <ele>638</ele>
        <time>2017-09-24T12:28:48.000Z</time>
      </trkpt>
      <trkpt lat="43.36012" lon="2.45152">
        <ele>638</ele>
        <time>2017-09-24T12:28:49.000Z</time>
      </trkpt>
      <trkpt lat="43.36013" lon="2.45153">
        <ele>638</ele>
        <time>2017-09-24T12:28:50.000Z</time>
      </trkpt>
      <trkpt lat="43.36013" lon="2.45154">
        <ele>638</ele>
        <time>2017-09-24T12:28:51.000Z</time>
      </trkpt>
      <trkpt lat="43.36013" lon="2.45155">
        <ele>638</ele>
        <time>2017-09-24T12:28:52.000Z</time>
      </trkpt>
      <trkpt lat="43.36014" lon="2.45156">
        <ele>638</ele>
        <time>2017-09-24T12:28:53.000Z</time>
      </trkpt>
      <trkpt lat="43.36014" lon="2.45156">
        <ele>639</ele>
        <time>2017-09-24T12:28:54.000Z</time>
      </trkpt>
      <trkpt lat="43.36015" lon="2.45157">
        <ele>638</ele>
        <time>2017-09-24T12:28:55.000Z</time>
      </trkpt>
      <trkpt lat="43.36015" lon="2.45158">
        <ele>638</ele>
        <time>2017-09-24T12:28:56.000Z</time>
      </trkpt>
      <trkpt lat="43.36016" lon="2.45158">
        <ele>638</ele>
        <time>2017-09-24T12:28:57.000Z</time>
      </trkpt>
      <trkpt lat="43.36016" lon="2.45159">
        <ele>637</ele>
        <time>2017-09-24T12:28:58.000Z</time>
      </trkpt>
      <trkpt lat="43.36017" lon="2.4516">
        <ele>637</ele>
        <time>2017-09-24T12:28:59.000Z</time>
      </trkpt>
      <trkpt lat="43.36018" lon="2.45161">
        <ele>636</ele>
        <time>2017-09-24T12:29:00.000Z</time>
      </trkpt>
      <trkpt lat="43.36018" lon="2.45161">
        <ele>636</ele>
        <time>2017-09-24T12:29:01.000Z</time>
      </trkpt>
      <trkpt lat="43.36018" lon="2.45161">
        <ele>636</ele>
        <time>2017-09-24T12:29:02.000Z</time>
      </trkpt>
      <trkpt lat="43.36019" lon="2.45165">
        <ele>635</ele>
        <time>2017-09-24T12:29:09.000Z</time>
      </trkpt>
      <trkpt lat="43.3602" lon="2.45166">
        <ele>634</ele>
        <time>2017-09-24T12:29:10.000Z</time>
      </trkpt>
      <trkpt lat="43.3602" lon="2.45166">
        <ele>634</ele>
        <time>2017-09-24T12:29:11.000Z</time>
      </trkpt>
      <trkpt lat="43.36021" lon="2.45167">
        <ele>634</ele>
        <time>2017-09-24T12:29:12.000Z</time>
      </trkpt>
      <trkpt lat="43.36021" lon="2.45168">
        <ele>633</ele>
        <time>2017-09-24T12:29:13.000Z</time>
      </trkpt>
      <trkpt lat="43.36022" lon="2.45168">
        <ele>633</ele>
        <time>2017-09-24T12:29:14.000Z</time>
      </trkpt>
      <trkpt lat="43.36022" lon="2.45169">
        <ele>632</ele>
        <time>2017-09-24T12:29:15.000Z</time>
      </trkpt>
      <trkpt lat="43.36023" lon="2.4517">
        <ele>632</ele>
        <time>2017-09-24T12:29:16.000Z</time>
      </trkpt>
      <trkpt lat="43.36023" lon="2.45171">
        <ele>632</ele>
        <time>2017-09-24T12:29:17.000Z</time>
      </trkpt>
      <trkpt lat="43.36023" lon="2.45171">
        <ele>631</ele>
        <time>2017-09-24T12:29:18.000Z</time>
      </trkpt>
      <trkpt lat="43.36023" lon="2.45172">
        <ele>631</ele>
        <time>2017-09-24T12:29:19.000Z</time>
      </trkpt>
      <trkpt lat="43.36024" lon="2.45172">
        <ele>631</ele>
        <time>2017-09-24T12:29:20.000Z</time>
      </trkpt>
      <trkpt lat="43.36024" lon="2.45173">
        <ele>631</ele>
        <time>2017-09-24T12:29:21.000Z</time>
      </trkpt>
      <trkpt lat="43.36024" lon="2.45173">
        <ele>631</ele>
        <time>2017-09-24T12:29:22.000Z</time>
      </trkpt>
      <trkpt lat="43.36024" lon="2.45174">
        <ele>631</ele>
        <time>2017-09-24T12:29:23.000Z</time>
      </trkpt>
      <trkpt lat="43.36027" lon="2.45183">
        <ele>627</ele>
        <time>2017-09-24T12:33:41.000Z</time>
      </trkpt>
      <trkpt lat="43.36026" lon="2.45182">
        <ele>628</ele>
        <time>2017-09-24T12:33:42.000Z</time>
      </trkpt>
      <trkpt lat="43.36025" lon="2.45181">
        <ele>628</ele>
        <time>2017-09-24T12:33:43.000Z</time>
      </trkpt>
      <trkpt lat="43.36025" lon="2.45181">
        <ele>628</ele>
        <time>2017-09-24T12:33:44.000Z</time>
      </trkpt>
      <trkpt lat="43.36025" lon="2.4518">
        <ele>629</ele>
        <time>2017-09-24T12:33:45.000Z</time>
      </trkpt>
      <trkpt lat="43.36025" lon="2.45179">
        <ele>629</ele>
        <time>2017-09-24T12:33:46.000Z</time>
      </trkpt>
      <trkpt lat="43.36025" lon="2.45179">
        <ele>629</ele>
        <time>2017-09-24T12:33:47.000Z</time>
      </trkpt>
      <trkpt lat="43.36025" lon="2.45178">
        <ele>629</ele>
        <time>2017-09-24T12:33:48.000Z</time>
      </trkpt>
      <trkpt lat="43.36025" lon="2.45178">
        <ele>629</ele>
        <time>2017-09-24T12:33:49.000Z</time>
      </trkpt>
      <trkpt lat="43.36026" lon="2.45178">
        <ele>629</ele>
        <time>2017-09-24T12:33:50.000Z</time>
      </trkpt>
      <trkpt lat="43.36027" lon="2.45178">
        <ele>629</ele>
        <time>2017-09-24T12:33:51.000Z</time>
      </trkpt>
      <trkpt lat="43.36027" lon="2.45178">
        <ele>629</ele>
        <time>2017-09-24T12:33:52.000Z</time>
      </trkpt>
      <trkpt lat="43.36025" lon="2.45171">
        <ele>631</ele>
        <time>2017-09-24T12:34:08.000Z</time>
      </trkpt>
      <trkpt lat="43.36025" lon="2.4517">
        <ele>631</ele>
        <time>2017-09-24T12:34:09.000Z</time>
      </trkpt>
      <trkpt lat="43.36025" lon="2.45169">
        <ele>631</ele>
        <time>2017-09-24T12:34:10.000Z</time>
      </trkpt>
      <trkpt lat="43.36024" lon="2.45169">
        <ele>632</ele>
        <time>2017-09-24T12:34:11.000Z</time>
      </trkpt>
      <trkpt lat="43.36023" lon="2.45169">
        <ele>632</ele>
        <time>2017-09-24T12:34:12.000Z</time>
      </trkpt>
      <trkpt lat="43.36022" lon="2.45168">
        <ele>632</ele>
        <time>2017-09-24T12:34:13.000Z</time>
      </trkpt>
      <trkpt lat="43.36022" lon="2.45167">
        <ele>633</ele>
        <time>2017-09-24T12:34:14.000Z</time>
      </trkpt>
      <trkpt lat="43.36022" lon="2.45166">
        <ele>633</ele>
        <time>2017-09-24T12:34:15.000Z</time>
      </trkpt>
      <trkpt lat="43.36021" lon="2.45166">
        <ele>633</ele>
        <time>2017-09-24T12:34:16.000Z</time>
      </trkpt>
      <trkpt lat="43.36021" lon="2.45165">
        <ele>634</ele>
        <time>2017-09-24T12:34:17.000Z</time>
      </trkpt>
      <trkpt lat="43.36021" lon="2.45164">
        <ele>634</ele>
        <time>2017-09-24T12:34:18.000Z</time>
      </trkpt>
      <trkpt lat="43.3602" lon="2.45163">
        <ele>634</ele>
        <time>2017-09-24T12:34:19.000Z</time>
      </trkpt>
      <trkpt lat="43.3602" lon="2.45162">
        <ele>635</ele>
        <time>2017-09-24T12:34:20.000Z</time>
      </trkpt>
      <trkpt lat="43.3602" lon="2.45161">
        <ele>635</ele>
        <time>2017-09-24T12:34:21.000Z</time>
      </trkpt>
      <trkpt lat="43.36019" lon="2.4516">
        <ele>635</ele>
        <time>2017-09-24T12:34:22.000Z</time>
      </trkpt>
      <trkpt lat="43.36019" lon="2.45159">
        <ele>636</ele>
        <time>2017-09-24T12:34:23.000Z</time>
      </trkpt>
      <trkpt lat="43.36018" lon="2.45158">
        <ele>636</ele>
        <time>2017-09-24T12:34:24.000Z</time>
      </trkpt>
      <trkpt lat="43.36018" lon="2.45158">
        <ele>637</ele>
        <time>2017-09-24T12:34:25.000Z</time>
      </trkpt>
      <trkpt lat="43.36017" lon="2.45157">
        <ele>637</ele>
        <time>2017-09-24T12:34:26.000Z</time>
      </trkpt>
      <trkpt lat="43.36016" lon="2.45156">
        <ele>638</ele>
        <time>2017-09-24T12:34:27.000Z</time>
      </trkpt>
      <trkpt lat="43.36016" lon="2.45156">
        <ele>638</ele>
        <time>2017-09-24T12:34:28.000Z</time>
      </trkpt>
      <trkpt lat="43.36015" lon="2.45155">
        <ele>638</ele>
        <time>2017-09-24T12:34:29.000Z</time>
      </trkpt>
      <trkpt lat="43.36015" lon="2.45154">
        <ele>639</ele>
        <time>2017-09-24T12:34:30.000Z</time>
      </trkpt>
      <trkpt lat="43.36015" lon="2.45153">
        <ele>639</ele>
        <time>2017-09-24T12:34:31.000Z</time>
      </trkpt>
      <trkpt lat="43.36014" lon="2.45152">
        <ele>639</ele>
        <time>2017-09-24T12:34:32.000Z</time>
      </trkpt>
      <trkpt lat="43.36014" lon="2.45151">
        <ele>639</ele>
        <time>2017-09-24T12:34:33.000Z</time>
      </trkpt>
      <trkpt lat="43.36013" lon="2.4515">
        <ele>639</ele>
        <time>2017-09-24T12:34:34.000Z</time>
      </trkpt>
      <trkpt lat="43.36013" lon="2.4515">
        <ele>639</ele>
        <time>2017-09-24T12:34:35.000Z</time>
      </trkpt>
      <trkpt lat="43.36013" lon="2.45149">
        <ele>639</ele>
        <time>2017-09-24T12:34:36.000Z</time>
      </trkpt>
      <trkpt lat="43.36013" lon="2.45148">
        <ele>639</ele>
        <time>2017-09-24T12:34:37.000Z</time>
      </trkpt>
      <trkpt lat="43.36012" lon="2.45148">
        <ele>639</ele>
        <time>2017-09-24T12:34:38.000Z</time>
      </trkpt>
      <trkpt lat="43.36012" lon="2.45147">
        <ele>639</ele>
        <time>2017-09-24T12:34:39.000Z</time>
      </trkpt>
      <trkpt lat="43.36012" lon="2.45146">
        <ele>639</ele>
        <time>2017-09-24T12:34:40.000Z</time>
      </trkpt>
      <trkpt lat="43.36012" lon="2.45145">
        <ele>639</ele>
        <time>2017-09-24T12:34:41.000Z</time>
      </trkpt>
      <trkpt lat="43.36011" lon="2.45145">
        <ele>639</ele>
        <time>2017-09-24T12:34:42.000Z</time>
      </trkpt>
      <trkpt lat="43.36011" lon="2.45144">
        <ele>639</ele>
        <time>2017-09-24T12:34:43.000Z</time>
      </trkpt>
      <trkpt lat="43.36011" lon="2.45143">
        <ele>639</ele>
        <time>2017-09-24T12:34:44.000Z</time>
      </trkpt>
      <trkpt lat="43.3601" lon="2.45142">
        <ele>639</ele>
        <time>2017-09-24T12:34:45.000Z</time>
      </trkpt>
      <trkpt lat="43.3601" lon="2.45142">
        <ele>639</ele>
        <time>2017-09-24T12:34:46.000Z</time>
      </trkpt>
      <trkpt lat="43.3601" lon="2.45141">
        <ele>639</ele>
        <time>2017-09-24T12:34:47.000Z</time>
      </trkpt>
      <trkpt lat="43.3601" lon="2.4514">
        <ele>639</ele>
        <time>2017-09-24T12:34:48.000Z</time>
      </trkpt>
      <trkpt lat="43.3601" lon="2.45139">
        <ele>639</ele>
        <time>2017-09-24T12:34:49.000Z</time>
      </trkpt>
      <trkpt lat="43.36009" lon="2.45138">
        <ele>639</ele>
        <time>2017-09-24T12:34:50.000Z</time>
      </trkpt>
      <trkpt lat="43.36009" lon="2.45137">
        <ele>639</ele>
        <time>2017-09-24T12:34:51.000Z</time>
      </trkpt>
      <trkpt lat="43.36009" lon="2.45137">
        <ele>639</ele>
        <time>2017-09-24T12:34:52.000Z</time>
      </trkpt>
      <trkpt lat="43.36008" lon="2.45129">
        <ele>640</ele>
        <time>2017-09-24T12:35:01.000Z</time>
      </trkpt>
      <trkpt lat="43.36008" lon="2.45128">
        <ele>640</ele>
        <time>2017-09-24T12:35:02.000Z</time>
      </trkpt>
      <trkpt lat="43.36008" lon="2.45127">
        <ele>640</ele>
        <time>2017-09-24T12:35:03.000Z</time>
      </trkpt>
      <trkpt lat="43.36008" lon="2.45125">
        <ele>641</ele>
        <time>2017-09-24T12:35:04.000Z</time>
      </trkpt>
      <trkpt lat="43.36008" lon="2.45124">
        <ele>641</ele>
        <time>2017-09-24T12:35:05.000Z</time>
      </trkpt>
      <trkpt lat="43.36008" lon="2.45123">
        <ele>641</ele>
        <time>2017-09-24T12:35:06.000Z</time>
      </trkpt>
      <trkpt lat="43.36007" lon="2.45122">
        <ele>641</ele>
        <time>2017-09-24T12:35:07.000Z</time>
      </trkpt>
      <trkpt lat="43.36007" lon="2.4512">
        <ele>641</ele>
        <time>2017-09-24T12:35:08.000Z</time>
      </trkpt>
      <trkpt lat="43.36007" lon="2.45118">
        <ele>641</ele>
        <time>2017-09-24T12:35:09.000Z</time>
      </trkpt>
      <trkpt lat="43.36007" lon="2.45117">
        <ele>642</ele>
        <time>2017-09-24T12:35:10.000Z</time>
      </trkpt>
      <trkpt lat="43.36008" lon="2.45115">
        <ele>642</ele>
        <time>2017-09-24T12:35:11.000Z</time>
      </trkpt>
      <trkpt lat="43.36008" lon="2.45114">
        <ele>643</ele>
        <time>2017-09-24T12:35:12.000Z</time>
      </trkpt>
      <trkpt lat="43.36008" lon="2.45112">
        <ele>643</ele>
        <time>2017-09-24T12:35:13.000Z</time>
      </trkpt>
      <trkpt lat="43.36007" lon="2.45111">
        <ele>643</ele>
        <time>2017-09-24T12:35:14.000Z</time>
      </trkpt>
      <trkpt lat="43.36008" lon="2.45109">
        <ele>643</ele>
        <time>2017-09-24T12:35:15.000Z</time>
      </trkpt>
      <trkpt lat="43.36008" lon="2.45108">
        <ele>644</ele>
        <time>2017-09-24T12:35:16.000Z</time>
      </trkpt>
      <trkpt lat="43.36008" lon="2.45107">
        <ele>644</ele>
        <time>2017-09-24T12:35:17.000Z</time>
      </trkpt>
      <trkpt lat="43.36008" lon="2.45106">
        <ele>644</ele>
        <time>2017-09-24T12:35:18.000Z</time>
      </trkpt>
      <trkpt lat="43.36008" lon="2.45105">
        <ele>644</ele>
        <time>2017-09-24T12:35:19.000Z</time>
      </trkpt>
      <trkpt lat="43.36008" lon="2.45104">
        <ele>644</ele>
        <time>2017-09-24T12:35:20.000Z</time>
      </trkpt>
      <trkpt lat="43.36008" lon="2.45102">
        <ele>645</ele>
        <time>2017-09-24T12:35:21.000Z</time>
      </trkpt>
      <trkpt lat="43.36007" lon="2.45101">
        <ele>645</ele>
        <time>2017-09-24T12:35:22.000Z</time>
      </trkpt>
      <trkpt lat="43.36007" lon="2.451">
        <ele>645</ele>
        <time>2017-09-24T12:35:23.000Z</time>
      </trkpt>
      <trkpt lat="43.36007" lon="2.45098">
        <ele>645</ele>
        <time>2017-09-24T12:35:24.000Z</time>
      </trkpt>
      <trkpt lat="43.36007" lon="2.45097">
        <ele>645</ele>
        <time>2017-09-24T12:35:25.000Z</time>
      </trkpt>
      <trkpt lat="43.36007" lon="2.45096">
        <ele>645</ele>
        <time>2017-09-24T12:35:26.000Z</time>
      </trkpt>
      <trkpt lat="43.36007" lon="2.45094">
        <ele>646</ele>
        <time>2017-09-24T12:35:27.000Z</time>
      </trkpt>
      <trkpt lat="43.36007" lon="2.45093">
        <ele>646</ele>
        <time>2017-09-24T12:35:28.000Z</time>
      </trkpt>
      <trkpt lat="43.36007" lon="2.45092">
        <ele>646</ele>
        <time>2017-09-24T12:35:29.000Z</time>
      </trkpt>
      <trkpt lat="43.36007" lon="2.45091">
        <ele>646</ele>
        <time>2017-09-24T12:35:30.000Z</time>
      </trkpt>
      <trkpt lat="43.36008" lon="2.45091">
        <ele>647</ele>
        <time>2017-09-24T12:35:31.000Z</time>
      </trkpt>
      <trkpt lat="43.36008" lon="2.4509">
        <ele>647</ele>
        <time>2017-09-24T12:35:32.000Z</time>
      </trkpt>
      <trkpt lat="43.36008" lon="2.45089">
        <ele>647</ele>
        <time>2017-09-24T12:35:33.000Z</time>
      </trkpt>
      <trkpt lat="43.36009" lon="2.45087">
        <ele>648</ele>
        <time>2017-09-24T12:35:34.000Z</time>
      </trkpt>
      <trkpt lat="43.36009" lon="2.45086">
        <ele>648</ele>
        <time>2017-09-24T12:35:35.000Z</time>
      </trkpt>
      <trkpt lat="43.36009" lon="2.45085">
        <ele>649</ele>
        <time>2017-09-24T12:35:36.000Z</time>
      </trkpt>
      <trkpt lat="43.3601" lon="2.45085">
        <ele>649</ele>
        <time>2017-09-24T12:35:37.000Z</time>
      </trkpt>
      <trkpt lat="43.3601" lon="2.45084">
        <ele>649</ele>
        <time>2017-09-24T12:35:38.000Z</time>
      </trkpt>
      <trkpt lat="43.3601" lon="2.45083">
        <ele>649</ele>
        <time>2017-09-24T12:35:39.000Z</time>
      </trkpt>
      <trkpt lat="43.3601" lon="2.45082">
        <ele>650</ele>
        <time>2017-09-24T12:35:40.000Z</time>
      </trkpt>
      <trkpt lat="43.36011" lon="2.45082">
        <ele>650</ele>
        <time>2017-09-24T12:35:41.000Z</time>
      </trkpt>
      <trkpt lat="43.36011" lon="2.45082">
        <ele>650</ele>
        <time>2017-09-24T12:35:42.000Z</time>
      </trkpt>
      <trkpt lat="43.36024" lon="2.45063">
        <ele>648</ele>
        <time>2017-09-24T12:36:28.000Z</time>
      </trkpt>
      <trkpt lat="43.36024" lon="2.45062">
        <ele>648</ele>
        <time>2017-09-24T12:36:29.000Z</time>
      </trkpt>
      <trkpt lat="43.36024" lon="2.45062">
        <ele>648</ele>
        <time>2017-09-24T12:36:30.000Z</time>
      </trkpt>
      <trkpt lat="43.36024" lon="2.4506">
        <ele>648</ele>
        <time>2017-09-24T12:36:31.000Z</time>
      </trkpt>
      <trkpt lat="43.36024" lon="2.45059">
        <ele>648</ele>
        <time>2017-09-24T12:36:32.000Z</time>
      </trkpt>
      <trkpt lat="43.36024" lon="2.45058">
        <ele>648</ele>
        <time>2017-09-24T12:36:33.000Z</time>
      </trkpt>
      <trkpt lat="43.36024" lon="2.45056">
        <ele>648</ele>
        <time>2017-09-24T12:36:34.000Z</time>
      </trkpt>
      <trkpt lat="43.36025" lon="2.45056">
        <ele>648</ele>
        <time>2017-09-24T12:36:35.000Z</time>
      </trkpt>
      <trkpt lat="43.36025" lon="2.45055">
        <ele>648</ele>
        <time>2017-09-24T12:36:36.000Z</time>
      </trkpt>
      <trkpt lat="43.36025" lon="2.45054">
        <ele>648</ele>
        <time>2017-09-24T12:36:37.000Z</time>
      </trkpt>
      <trkpt lat="43.36026" lon="2.45053">
        <ele>648</ele>
        <time>2017-09-24T12:36:38.000Z</time>
      </trkpt>
      <trkpt lat="43.36026" lon="2.45052">
        <ele>647</ele>
        <time>2017-09-24T12:36:39.000Z</time>
      </trkpt>
      <trkpt lat="43.36026" lon="2.45052">
        <ele>647</ele>
        <time>2017-09-24T12:36:40.000Z</time>
      </trkpt>
      <trkpt lat="43.36026" lon="2.45051">
        <ele>647</ele>
        <time>2017-09-24T12:36:41.000Z</time>
      </trkpt>
      <trkpt lat="43.36026" lon="2.4505">
        <ele>647</ele>
        <time>2017-09-24T12:36:42.000Z</time>
      </trkpt>
      <trkpt lat="43.36026" lon="2.4505">
        <ele>647</ele>
        <time>2017-09-24T12:36:43.000Z</time>
      </trkpt>
      <trkpt lat="43.36031" lon="2.45011">
        <ele>647</ele>
        <time>2017-09-24T12:46:34.000Z</time>
      </trkpt>
      <trkpt lat="43.36032" lon="2.4501">
        <ele>648</ele>
        <time>2017-09-24T12:46:35.000Z</time>
      </trkpt>
      <trkpt lat="43.36032" lon="2.45009">
        <ele>648</ele>
        <time>2017-09-24T12:46:36.000Z</time>
      </trkpt>
      <trkpt lat="43.36033" lon="2.45008">
        <ele>648</ele>
        <time>2017-09-24T12:46:37.000Z</time>
      </trkpt>
      <trkpt lat="43.36033" lon="2.45007">
        <ele>648</ele>
        <time>2017-09-24T12:46:38.000Z</time>
      </trkpt>
      <trkpt lat="43.36033" lon="2.45006">
        <ele>648</ele>
        <time>2017-09-24T12:46:39.000Z</time>
      </trkpt>
      <trkpt lat="43.36033" lon="2.45004">
        <ele>648</ele>
        <time>2017-09-24T12:46:40.000Z</time>
      </trkpt>
      <trkpt lat="43.36034" lon="2.45003">
        <ele>648</ele>
        <time>2017-09-24T12:46:41.000Z</time>
      </trkpt>
      <trkpt lat="43.36034" lon="2.45002">
        <ele>649</ele>
        <time>2017-09-24T12:46:42.000Z</time>
      </trkpt>
      <trkpt lat="43.36034" lon="2.45001">
        <ele>649</ele>
        <time>2017-09-24T12:46:43.000Z</time>
      </trkpt>
      <trkpt lat="43.36035" lon="2.44999">
        <ele>649</ele>
        <time>2017-09-24T12:46:44.000Z</time>
      </trkpt>
      <trkpt lat="43.36035" lon="2.44998">
        <ele>649</ele>
        <time>2017-09-24T12:46:45.000Z</time>
      </trkpt>
      <trkpt lat="43.36036" lon="2.44997">
        <ele>648</ele>
        <time>2017-09-24T12:46:46.000Z</time>
      </trkpt>
      <trkpt lat="43.36037" lon="2.44996">
        <ele>648</ele>
        <time>2017-09-24T12:46:47.000Z</time>
      </trkpt>
      <trkpt lat="43.36037" lon="2.44995">
        <ele>647</ele>
        <time>2017-09-24T12:46:48.000Z</time>
      </trkpt>
      <trkpt lat="43.36038" lon="2.44993">
        <ele>647</ele>
        <time>2017-09-24T12:46:49.000Z</time>
      </trkpt>
      <trkpt lat="43.36038" lon="2.44992">
        <ele>647</ele>
        <time>2017-09-24T12:46:50.000Z</time>
      </trkpt>
      <trkpt lat="43.36038" lon="2.44991">
        <ele>647</ele>
        <time>2017-09-24T12:46:51.000Z</time>
      </trkpt>
      <trkpt lat="43.36039" lon="2.4499">
        <ele>646</ele>
        <time>2017-09-24T12:46:52.000Z</time>
      </trkpt>
      <trkpt lat="43.3604" lon="2.4499">
        <ele>646</ele>
        <time>2017-09-24T12:46:53.000Z</time>
      </trkpt>
      <trkpt lat="43.3604" lon="2.44989">
        <ele>646</ele>
        <time>2017-09-24T12:46:54.000Z</time>
      </trkpt>
      <trkpt lat="43.3604" lon="2.44988">
        <ele>645</ele>
        <time>2017-09-24T12:46:55.000Z</time>
      </trkpt>
      <trkpt lat="43.3604" lon="2.44987">
        <ele>645</ele>
        <time>2017-09-24T12:46:56.000Z</time>
      </trkpt>
      <trkpt lat="43.3604" lon="2.44986">
        <ele>645</ele>
        <time>2017-09-24T12:46:57.000Z</time>
      </trkpt>
      <trkpt lat="43.36041" lon="2.44985">
        <ele>645</ele>
        <time>2017-09-24T12:46:58.000Z</time>
      </trkpt>
      <trkpt lat="43.36041" lon="2.44984">
        <ele>645</ele>
        <time>2017-09-24T12:46:59.000Z</time>
      </trkpt>
      <trkpt lat="43.36042" lon="2.44983">
        <ele>644</ele>
        <time>2017-09-24T12:47:00.000Z</time>
      </trkpt>
      <trkpt lat="43.36042" lon="2.44982">
        <ele>644</ele>
        <time>2017-09-24T12:47:01.000Z</time>
      </trkpt>
      <trkpt lat="43.36043" lon="2.44982">
        <ele>644</ele>
        <time>2017-09-24T12:47:02.000Z</time>
      </trkpt>
      <trkpt lat="43.36043" lon="2.44981">
        <ele>643</ele>
        <time>2017-09-24T12:47:03.000Z</time>
      </trkpt>
      <trkpt lat="43.36043" lon="2.4498">
        <ele>643</ele>
        <time>2017-09-24T12:47:04.000Z</time>
      </trkpt>
      <trkpt lat="43.36044" lon="2.44979">
        <ele>643</ele>
        <time>2017-09-24T12:47:05.000Z</time>
      </trkpt>
      <trkpt lat="43.36044" lon="2.44978">
        <ele>643</ele>
        <time>2017-09-24T12:47:06.000Z</time>
      </trkpt>
      <trkpt lat="43.36045" lon="2.44977">
        <ele>642</ele>
        <time>2017-09-24T12:47:07.000Z</time>
      </trkpt>
      <trkpt lat="43.36045" lon="2.44977">
        <ele>642</ele>
        <time>2017-09-24T12:47:08.000Z</time>
      </trkpt>
      <trkpt lat="43.36046" lon="2.44976">
        <ele>642</ele>
        <time>2017-09-24T12:47:09.000Z</time>
      </trkpt>
      <trkpt lat="43.36046" lon="2.44975">
        <ele>642</ele>
        <time>2017-09-24T12:47:10.000Z</time>
      </trkpt>
      <trkpt lat="43.36046" lon="2.44974">
        <ele>641</ele>
        <time>2017-09-24T12:47:11.000Z</time>
      </trkpt>
      <trkpt lat="43.36047" lon="2.44974">
        <ele>641</ele>
        <time>2017-09-24T12:47:12.000Z</time>
      </trkpt>
      <trkpt lat="43.36047" lon="2.44972">
        <ele>641</ele>
        <time>2017-09-24T12:47:13.000Z</time>
      </trkpt>
      <trkpt lat="43.36047" lon="2.44972">
        <ele>641</ele>
        <time>2017-09-24T12:47:14.000Z</time>
      </trkpt>
      <trkpt lat="43.36047" lon="2.44971">
        <ele>640</ele>
        <time>2017-09-24T12:47:15.000Z</time>
      </trkpt>
      <trkpt lat="43.36048" lon="2.4497">
        <ele>640</ele>
        <time>2017-09-24T12:47:16.000Z</time>
      </trkpt>
      <trkpt lat="43.36048" lon="2.44969">
        <ele>640</ele>
        <time>2017-09-24T12:47:17.000Z</time>
      </trkpt>
      <trkpt lat="43.36048" lon="2.44969">
        <ele>640</ele>
        <time>2017-09-24T12:47:18.000Z</time>
      </trkpt>
      <trkpt lat="43.36049" lon="2.44968">
        <ele>640</ele>
        <time>2017-09-24T12:47:19.000Z</time>
      </trkpt>
      <trkpt lat="43.36049" lon="2.44967">
        <ele>639</ele>
        <time>2017-09-24T12:47:20.000Z</time>
      </trkpt>
      <trkpt lat="43.36049" lon="2.44966">
        <ele>639</ele>
        <time>2017-09-24T12:47:21.000Z</time>
      </trkpt>
      <trkpt lat="43.36049" lon="2.44965">
        <ele>639</ele>
        <time>2017-09-24T12:47:22.000Z</time>
      </trkpt>
      <trkpt lat="43.36049" lon="2.44964">
        <ele>639</ele>
        <time>2017-09-24T12:47:23.000Z</time>
      </trkpt>
      <trkpt lat="43.36048" lon="2.44964">
        <ele>639</ele>
        <time>2017-09-24T12:47:24.000Z</time>
      </trkpt>
      <trkpt lat="43.36048" lon="2.44963">
        <ele>639</ele>
        <time>2017-09-24T12:47:25.000Z</time>
      </trkpt>
      <trkpt lat="43.36048" lon="2.44963">
        <ele>639</ele>
        <time>2017-09-24T12:47:26.000Z</time>
      </trkpt>
      <trkpt lat="43.36047" lon="2.44962">
        <ele>639</ele>
        <time>2017-09-24T12:47:27.000Z</time>
      </trkpt>
      <trkpt lat="43.36047" lon="2.44961">
        <ele>639</ele>
        <time>2017-09-24T12:47:28.000Z</time>
      </trkpt>
      <trkpt lat="43.36047" lon="2.4496">
        <ele>639</ele>
        <time>2017-09-24T12:47:29.000Z</time>
      </trkpt>
      <trkpt lat="43.36047" lon="2.44959">
        <ele>639</ele>
        <time>2017-09-24T12:47:30.000Z</time>
      </trkpt>
      <trkpt lat="43.36046" lon="2.44959">
        <ele>639</ele>
        <time>2017-09-24T12:47:31.000Z</time>
      </trkpt>
      <trkpt lat="43.36046" lon="2.44958">
        <ele>639</ele>
        <time>2017-09-24T12:47:32.000Z</time>
      </trkpt>
      <trkpt lat="43.36047" lon="2.44957">
        <ele>639</ele>
        <time>2017-09-24T12:47:33.000Z</time>
      </trkpt>
      <trkpt lat="43.36047" lon="2.44957">
        <ele>639</ele>
        <time>2017-09-24T12:47:34.000Z</time>
      </trkpt>
      <trkpt lat="43.36047" lon="2.44956">
        <ele>638</ele>
        <time>2017-09-24T12:47:35.000Z</time>
      </trkpt>
      <trkpt lat="43.36048" lon="2.44956">
        <ele>638</ele>
        <time>2017-09-24T12:47:36.000Z</time>
      </trkpt>
      <trkpt lat="43.36048" lon="2.44955">
        <ele>638</ele>
        <time>2017-09-24T12:47:37.000Z</time>
      </trkpt>
      <trkpt lat="43.36048" lon="2.44955">
        <ele>638</ele>
        <time>2017-09-24T12:47:38.000Z</time>
      </trkpt>
      <trkpt lat="43.36048" lon="2.44954">
        <ele>638</ele>
        <time>2017-09-24T12:47:39.000Z</time>
      </trkpt>
      <trkpt lat="43.36048" lon="2.44953">
        <ele>638</ele>
        <time>2017-09-24T12:47:40.000Z</time>
      </trkpt>
      <trkpt lat="43.36048" lon="2.44951">
        <ele>637</ele>
        <time>2017-09-24T12:47:41.000Z</time>
      </trkpt>
      <trkpt lat="43.36048" lon="2.4495">
        <ele>637</ele>
        <time>2017-09-24T12:47:42.000Z</time>
      </trkpt>
      <trkpt lat="43.36049" lon="2.4495">
        <ele>637</ele>
        <time>2017-09-24T12:47:43.000Z</time>
      </trkpt>
      <trkpt lat="43.36049" lon="2.44949">
        <ele>637</ele>
        <time>2017-09-24T12:47:44.000Z</time>
      </trkpt>
      <trkpt lat="43.36049" lon="2.44948">
        <ele>638</ele>
        <time>2017-09-24T12:47:45.000Z</time>
      </trkpt>
      <trkpt lat="43.36049" lon="2.44947">
        <ele>638</ele>
        <time>2017-09-24T12:47:46.000Z</time>
      </trkpt>
      <trkpt lat="43.36049" lon="2.44947">
        <ele>638</ele>
        <time>2017-09-24T12:47:47.000Z</time>
      </trkpt>
      <trkpt lat="43.36049" lon="2.44946">
        <ele>638</ele>
        <time>2017-09-24T12:47:48.000Z</time>
      </trkpt>
      <trkpt lat="43.3605" lon="2.44946">
        <ele>638</ele>
        <time>2017-09-24T12:47:49.000Z</time>
      </trkpt>
      <trkpt lat="43.3605" lon="2.44945">
        <ele>638</ele>
        <time>2017-09-24T12:47:50.000Z</time>
      </trkpt>
      <trkpt lat="43.3605" lon="2.44945">
        <ele>638</ele>
        <time>2017-09-24T12:47:51.000Z</time>
      </trkpt>
      <trkpt lat="43.36052" lon="2.44938">
        <ele>640</ele>
        <time>2017-09-24T12:48:01.000Z</time>
      </trkpt>
      <trkpt lat="43.36053" lon="2.44937">
        <ele>640</ele>
        <time>2017-09-24T12:48:02.000Z</time>
      </trkpt>
      <trkpt lat="43.36053" lon="2.44937">
        <ele>640</ele>
        <time>2017-09-24T12:48:03.000Z</time>
      </trkpt>
      <trkpt lat="43.36053" lon="2.44936">
        <ele>640</ele>
        <time>2017-09-24T12:48:04.000Z</time>
      </trkpt>
      <trkpt lat="43.36053" lon="2.44936">
        <ele>640</ele>
        <time>2017-09-24T12:48:05.000Z</time>
      </trkpt>
      <trkpt lat="43.36057" lon="2.44921">
        <ele>643</ele>
        <time>2017-09-24T12:48:31.000Z</time>
      </trkpt>
      <trkpt lat="43.36057" lon="2.4492">
        <ele>644</ele>
        <time>2017-09-24T12:48:32.000Z</time>
      </trkpt>
      <trkpt lat="43.36057" lon="2.44919">
        <ele>644</ele>
        <time>2017-09-24T12:48:33.000Z</time>
      </trkpt>
      <trkpt lat="43.36057" lon="2.44918">
        <ele>644</ele>
        <time>2017-09-24T12:48:34.000Z</time>
      </trkpt>
      <trkpt lat="43.36057" lon="2.44917">
        <ele>644</ele>
        <time>2017-09-24T12:48:35.000Z</time>
      </trkpt>
      <trkpt lat="43.36057" lon="2.44916">
        <ele>644</ele>
        <time>2017-09-24T12:48:36.000Z</time>
      </trkpt>
      <trkpt lat="43.36057" lon="2.44915">
        <ele>644</ele>
        <time>2017-09-24T12:48:37.000Z</time>
      </trkpt>
      <trkpt lat="43.36058" lon="2.44914">
        <ele>644</ele>
        <time>2017-09-24T12:48:38.000Z</time>
      </trkpt>
      <trkpt lat="43.36058" lon="2.44914">
        <ele>644</ele>
        <time>2017-09-24T12:48:39.000Z</time>
      </trkpt>
      <trkpt lat="43.36058" lon="2.44913">
        <ele>644</ele>
        <time>2017-09-24T12:48:40.000Z</time>
      </trkpt>
      <trkpt lat="43.36058" lon="2.44912">
        <ele>644</ele>
        <time>2017-09-24T12:48:41.000Z</time>
      </trkpt>
      <trkpt lat="43.36059" lon="2.4491">
        <ele>644</ele>
        <time>2017-09-24T12:48:42.000Z</time>
      </trkpt>
      <trkpt lat="43.36059" lon="2.4491">
        <ele>644</ele>
        <time>2017-09-24T12:48:43.000Z</time>
      </trkpt>
      <trkpt lat="43.36059" lon="2.44909">
        <ele>643</ele>
        <time>2017-09-24T12:48:44.000Z</time>
      </trkpt>
      <trkpt lat="43.3606" lon="2.44908">
        <ele>643</ele>
        <time>2017-09-24T12:48:45.000Z</time>
      </trkpt>
      <trkpt lat="43.3606" lon="2.44907">
        <ele>643</ele>
        <time>2017-09-24T12:48:46.000Z</time>
      </trkpt>
      <trkpt lat="43.3606" lon="2.44906">
        <ele>643</ele>
        <time>2017-09-24T12:48:47.000Z</time>
      </trkpt>
      <trkpt lat="43.3606" lon="2.44905">
        <ele>643</ele>
        <time>2017-09-24T12:48:48.000Z</time>
      </trkpt>
      <trkpt lat="43.3606" lon="2.44904">
        <ele>643</ele>
        <time>2017-09-24T12:48:49.000Z</time>
      </trkpt>
      <trkpt lat="43.3606" lon="2.44904">
        <ele>643</ele>
        <time>2017-09-24T12:48:50.000Z</time>
      </trkpt>
      <trkpt lat="43.36061" lon="2.44903">
        <ele>643</ele>
        <time>2017-09-24T12:48:51.000Z</time>
      </trkpt>
      <trkpt lat="43.36061" lon="2.44902">
        <ele>642</ele>
        <time>2017-09-24T12:48:52.000Z</time>
      </trkpt>
      <trkpt lat="43.36061" lon="2.44902">
        <ele>642</ele>
        <time>2017-09-24T12:48:53.000Z</time>
      </trkpt>
      <trkpt lat="43.36061" lon="2.44901">
        <ele>642</ele>
        <time>2017-09-24T12:48:54.000Z</time>
      </trkpt>
      <trkpt lat="43.36062" lon="2.449">
        <ele>642</ele>
        <time>2017-09-24T12:48:55.000Z</time>
      </trkpt>
      <trkpt lat="43.36062" lon="2.44899">
        <ele>642</ele>
        <time>2017-09-24T12:48:56.000Z</time>
      </trkpt>
      <trkpt lat="43.36063" lon="2.44898">
        <ele>642</ele>
        <time>2017-09-24T12:48:57.000Z</time>
      </trkpt>
      <trkpt lat="43.36063" lon="2.44898">
        <ele>642</ele>
        <time>2017-09-24T12:48:58.000Z</time>
      </trkpt>
      <trkpt lat="43.36064" lon="2.44897">
        <ele>642</ele>
        <time>2017-09-24T12:48:59.000Z</time>
      </trkpt>
      <trkpt lat="43.36064" lon="2.44897">
        <ele>642</ele>
        <time>2017-09-24T12:49:00.000Z</time>
      </trkpt>
      <trkpt lat="43.36063" lon="2.44889">
        <ele>640</ele>
        <time>2017-09-24T12:49:10.000Z</time>
      </trkpt>
      <trkpt lat="43.36063" lon="2.44888">
        <ele>640</ele>
        <time>2017-09-24T12:49:11.000Z</time>
      </trkpt>
      <trkpt lat="43.36063" lon="2.44888">
        <ele>640</ele>
        <time>2017-09-24T12:49:12.000Z</time>
      </trkpt>
      <trkpt lat="43.36064" lon="2.44887">
        <ele>640</ele>
        <time>2017-09-24T12:49:13.000Z</time>
      </trkpt>
      <trkpt lat="43.36064" lon="2.44887">
        <ele>640</ele>
        <time>2017-09-24T12:49:14.000Z</time>
      </trkpt>
      <trkpt lat="43.36073" lon="2.44845">
        <ele>646</ele>
        <time>2017-09-24T12:50:36.000Z</time>
      </trkpt>
      <trkpt lat="43.36074" lon="2.44845">
        <ele>646</ele>
        <time>2017-09-24T12:50:37.000Z</time>
      </trkpt>
      <trkpt lat="43.36075" lon="2.44843">
        <ele>647</ele>
        <time>2017-09-24T12:50:38.000Z</time>
      </trkpt>
      <trkpt lat="43.36075" lon="2.44842">
        <ele>647</ele>
        <time>2017-09-24T12:50:39.000Z</time>
      </trkpt>
      <trkpt lat="43.36075" lon="2.44841">
        <ele>647</ele>
        <time>2017-09-24T12:50:40.000Z</time>
      </trkpt>
      <trkpt lat="43.36075" lon="2.4484">
        <ele>647</ele>
        <time>2017-09-24T12:50:41.000Z</time>
      </trkpt>
      <trkpt lat="43.36075" lon="2.44838">
        <ele>647</ele>
        <time>2017-09-24T12:50:42.000Z</time>
      </trkpt>
      <trkpt lat="43.36075" lon="2.44836">
        <ele>647</ele>
        <time>2017-09-24T12:50:43.000Z</time>
      </trkpt>
      <trkpt lat="43.36076" lon="2.44835">
        <ele>648</ele>
        <time>2017-09-24T12:50:44.000Z</time>
      </trkpt>
      <trkpt lat="43.36076" lon="2.44834">
        <ele>648</ele>
        <time>2017-09-24T12:50:45.000Z</time>
      </trkpt>
      <trkpt lat="43.36076" lon="2.44832">
        <ele>648</ele>
        <time>2017-09-24T12:50:46.000Z</time>
      </trkpt>
      <trkpt lat="43.36076" lon="2.44831">
        <ele>648</ele>
        <time>2017-09-24T12:50:47.000Z</time>
      </trkpt>
      <trkpt lat="43.36076" lon="2.44829">
        <ele>648</ele>
        <time>2017-09-24T12:50:48.000Z</time>
      </trkpt>
      <trkpt lat="43.36077" lon="2.44828">
        <ele>648</ele>
        <time>2017-09-24T12:50:49.000Z</time>
      </trkpt>
      <trkpt lat="43.36077" lon="2.44827">
        <ele>648</ele>
        <time>2017-09-24T12:50:50.000Z</time>
      </trkpt>
      <trkpt lat="43.36078" lon="2.44826">
        <ele>648</ele>
        <time>2017-09-24T12:50:51.000Z</time>
      </trkpt>
      <trkpt lat="43.36079" lon="2.44825">
        <ele>649</ele>
        <time>2017-09-24T12:50:52.000Z</time>
      </trkpt>
      <trkpt lat="43.3608" lon="2.44824">
        <ele>649</ele>
        <time>2017-09-24T12:50:53.000Z</time>
      </trkpt>
      <trkpt lat="43.3608" lon="2.44823">
        <ele>649</ele>
        <time>2017-09-24T12:50:54.000Z</time>
      </trkpt>
      <trkpt lat="43.3608" lon="2.44822">
        <ele>649</ele>
        <time>2017-09-24T12:50:55.000Z</time>
      </trkpt>
      <trkpt lat="43.3608" lon="2.44821">
        <ele>649</ele>
        <time>2017-09-24T12:50:56.000Z</time>
      </trkpt>
      <trkpt lat="43.3608" lon="2.4482">
        <ele>649</ele>
        <time>2017-09-24T12:50:57.000Z</time>
      </trkpt>
      <trkpt lat="43.3608" lon="2.44819">
        <ele>649</ele>
        <time>2017-09-24T12:50:58.000Z</time>
      </trkpt>
      <trkpt lat="43.36081" lon="2.44817">
        <ele>649</ele>
        <time>2017-09-24T12:50:59.000Z</time>
      </trkpt>
      <trkpt lat="43.36082" lon="2.44816">
        <ele>649</ele>
        <time>2017-09-24T12:51:00.000Z</time>
      </trkpt>
      <trkpt lat="43.36083" lon="2.44815">
        <ele>650</ele>
        <time>2017-09-24T12:51:01.000Z</time>
      </trkpt>
      <trkpt lat="43.36083" lon="2.44814">
        <ele>650</ele>
        <time>2017-09-24T12:51:02.000Z</time>
      </trkpt>
      <trkpt lat="43.36084" lon="2.44812">
        <ele>650</ele>
        <time>2017-09-24T12:51:03.000Z</time>
      </trkpt>
      <trkpt lat="43.36084" lon="2.44811">
        <ele>650</ele>
        <time>2017-09-24T12:51:04.000Z</time>
      </trkpt>
      <trkpt lat="43.36084" lon="2.4481">
        <ele>650</ele>
        <time>2017-09-24T12:51:05.000Z</time>
      </trkpt>
      <trkpt lat="43.36084" lon="2.44809">
        <ele>651</ele>
        <time>2017-09-24T12:51:06.000Z</time>
      </trkpt>
      <trkpt lat="43.36084" lon="2.44807">
        <ele>651</ele>
        <time>2017-09-24T12:51:07.000Z</time>
      </trkpt>
      <trkpt lat="43.36084" lon="2.44805">
        <ele>651</ele>
        <time>2017-09-24T12:51:08.000Z</time>
      </trkpt>
      <trkpt lat="43.36084" lon="2.44804">
        <ele>651</ele>
        <time>2017-09-24T12:51:09.000Z</time>
      </trkpt>
      <trkpt lat="43.36084" lon="2.44802">
        <ele>651</ele>
        <time>2017-09-24T12:51:10.000Z</time>
      </trkpt>
      <trkpt lat="43.36083" lon="2.448">
        <ele>651</ele>
        <time>2017-09-24T12:51:11.000Z</time>
      </trkpt>
      <trkpt lat="43.36083" lon="2.44799">
        <ele>651</ele>
        <time>2017-09-24T12:51:12.000Z</time>
      </trkpt>
      <trkpt lat="43.36082" lon="2.44797">
        <ele>651</ele>
        <time>2017-09-24T12:51:13.000Z</time>
      </trkpt>
      <trkpt lat="43.36082" lon="2.44795">
        <ele>651</ele>
        <time>2017-09-24T12:51:14.000Z</time>
      </trkpt>
      <trkpt lat="43.36081" lon="2.44794">
        <ele>651</ele>
        <time>2017-09-24T12:51:15.000Z</time>
      </trkpt>
      <trkpt lat="43.36081" lon="2.44792">
        <ele>651</ele>
        <time>2017-09-24T12:51:16.000Z</time>
      </trkpt>
      <trkpt lat="43.36081" lon="2.4479">
        <ele>651</ele>
        <time>2017-09-24T12:51:17.000Z</time>
      </trkpt>
      <trkpt lat="43.3608" lon="2.44788">
        <ele>651</ele>
        <time>2017-09-24T12:51:18.000Z</time>
      </trkpt>
      <trkpt lat="43.3608" lon="2.44786">
        <ele>651</ele>
        <time>2017-09-24T12:51:19.000Z</time>
      </trkpt>
      <trkpt lat="43.3608" lon="2.44784">
        <ele>651</ele>
        <time>2017-09-24T12:51:20.000Z</time>
      </trkpt>
      <trkpt lat="43.3608" lon="2.44782">
        <ele>651</ele>
        <time>2017-09-24T12:51:21.000Z</time>
      </trkpt>
      <trkpt lat="43.3608" lon="2.4478">
        <ele>651</ele>
        <time>2017-09-24T12:51:22.000Z</time>
      </trkpt>
      <trkpt lat="43.36081" lon="2.44779">
        <ele>652</ele>
        <time>2017-09-24T12:51:23.000Z</time>
      </trkpt>
      <trkpt lat="43.36081" lon="2.44777">
        <ele>652</ele>
        <time>2017-09-24T12:51:24.000Z</time>
      </trkpt>
      <trkpt lat="43.36082" lon="2.44775">
        <ele>652</ele>
        <time>2017-09-24T12:51:25.000Z</time>
      </trkpt>
      <trkpt lat="43.36083" lon="2.44773">
        <ele>653</ele>
        <time>2017-09-24T12:51:26.000Z</time>
      </trkpt>
      <trkpt lat="43.36084" lon="2.44772">
        <ele>653</ele>
        <time>2017-09-24T12:51:27.000Z</time>
      </trkpt>
      <trkpt lat="43.36084" lon="2.4477">
        <ele>654</ele>
        <time>2017-09-24T12:51:28.000Z</time>
      </trkpt>
      <trkpt lat="43.36085" lon="2.44768">
        <ele>654</ele>
        <time>2017-09-24T12:51:29.000Z</time>
      </trkpt>
      <trkpt lat="43.36085" lon="2.44767">
        <ele>654</ele>
        <time>2017-09-24T12:51:30.000Z</time>
      </trkpt>
      <trkpt lat="43.36085" lon="2.44765">
        <ele>654</ele>
        <time>2017-09-24T12:51:31.000Z</time>
      </trkpt>
      <trkpt lat="43.36084" lon="2.44763">
        <ele>654</ele>
        <time>2017-09-24T12:51:32.000Z</time>
      </trkpt>
      <trkpt lat="43.36084" lon="2.44761">
        <ele>654</ele>
        <time>2017-09-24T12:51:33.000Z</time>
      </trkpt>
      <trkpt lat="43.36084" lon="2.44759">
        <ele>654</ele>
        <time>2017-09-24T12:51:34.000Z</time>
      </trkpt>
      <trkpt lat="43.36084" lon="2.44758">
        <ele>654</ele>
        <time>2017-09-24T12:51:35.000Z</time>
      </trkpt>
      <trkpt lat="43.36084" lon="2.44755">
        <ele>654</ele>
        <time>2017-09-24T12:51:36.000Z</time>
      </trkpt>
      <trkpt lat="43.36083" lon="2.44753">
        <ele>654</ele>
        <time>2017-09-24T12:51:37.000Z</time>
      </trkpt>
      <trkpt lat="43.36083" lon="2.44752">
        <ele>654</ele>
        <time>2017-09-24T12:51:38.000Z</time>
      </trkpt>
      <trkpt lat="43.36083" lon="2.4475">
        <ele>655</ele>
        <time>2017-09-24T12:51:39.000Z</time>
      </trkpt>
      <trkpt lat="43.36083" lon="2.44749">
        <ele>655</ele>
        <time>2017-09-24T12:51:40.000Z</time>
      </trkpt>
      <trkpt lat="43.36083" lon="2.44747">
        <ele>655</ele>
        <time>2017-09-24T12:51:41.000Z</time>
      </trkpt>
      <trkpt lat="43.36084" lon="2.44745">
        <ele>655</ele>
        <time>2017-09-24T12:51:42.000Z</time>
      </trkpt>
      <trkpt lat="43.36084" lon="2.44743">
        <ele>655</ele>
        <time>2017-09-24T12:51:43.000Z</time>
      </trkpt>
      <trkpt lat="43.36084" lon="2.44742">
        <ele>655</ele>
        <time>2017-09-24T12:51:44.000Z</time>
      </trkpt>
      <trkpt lat="43.36084" lon="2.4474">
        <ele>656</ele>
        <time>2017-09-24T12:51:45.000Z</time>
      </trkpt>
      <trkpt lat="43.36084" lon="2.44738">
        <ele>656</ele>
        <time>2017-09-24T12:51:46.000Z</time>
      </trkpt>
      <trkpt lat="43.36084" lon="2.44736">
        <ele>656</ele>
        <time>2017-09-24T12:51:47.000Z</time>
      </trkpt>
      <trkpt lat="43.36084" lon="2.44734">
        <ele>656</ele>
        <time>2017-09-24T12:51:48.000Z</time>
      </trkpt>
      <trkpt lat="43.36084" lon="2.44732">
        <ele>656</ele>
        <time>2017-09-24T12:51:49.000Z</time>
      </trkpt>
      <trkpt lat="43.36084" lon="2.4473">
        <ele>657</ele>
        <time>2017-09-24T12:51:50.000Z</time>
      </trkpt>
      <trkpt lat="43.36084" lon="2.44728">
        <ele>657</ele>
        <time>2017-09-24T12:51:51.000Z</time>
      </trkpt>
      <trkpt lat="43.36084" lon="2.44727">
        <ele>657</ele>
        <time>2017-09-24T12:51:52.000Z</time>
      </trkpt>
      <trkpt lat="43.36084" lon="2.44725">
        <ele>657</ele>
        <time>2017-09-24T12:51:53.000Z</time>
      </trkpt>
      <trkpt lat="43.36084" lon="2.44723">
        <ele>657</ele>
        <time>2017-09-24T12:51:54.000Z</time>
      </trkpt>
      <trkpt lat="43.36084" lon="2.44721">
        <ele>658</ele>
        <time>2017-09-24T12:51:55.000Z</time>
      </trkpt>
      <trkpt lat="43.36084" lon="2.44719">
        <ele>658</ele>
        <time>2017-09-24T12:51:56.000Z</time>
      </trkpt>
      <trkpt lat="43.36084" lon="2.44717">
        <ele>658</ele>
        <time>2017-09-24T12:51:57.000Z</time>
      </trkpt>
      <trkpt lat="43.36084" lon="2.44716">
        <ele>658</ele>
        <time>2017-09-24T12:51:58.000Z</time>
      </trkpt>
      <trkpt lat="43.36083" lon="2.44714">
        <ele>658</ele>
        <time>2017-09-24T12:51:59.000Z</time>
      </trkpt>
      <trkpt lat="43.36083" lon="2.44712">
        <ele>659</ele>
        <time>2017-09-24T12:52:00.000Z</time>
      </trkpt>
      <trkpt lat="43.36083" lon="2.4471">
        <ele>659</ele>
        <time>2017-09-24T12:52:01.000Z</time>
      </trkpt>
      <trkpt lat="43.36083" lon="2.44709">
        <ele>659</ele>
        <time>2017-09-24T12:52:02.000Z</time>
      </trkpt>
      <trkpt lat="43.36083" lon="2.44707">
        <ele>659</ele>
        <time>2017-09-24T12:52:03.000Z</time>
      </trkpt>
      <trkpt lat="43.36082" lon="2.44706">
        <ele>659</ele>
        <time>2017-09-24T12:52:04.000Z</time>
      </trkpt>
      <trkpt lat="43.36082" lon="2.44704">
        <ele>659</ele>
        <time>2017-09-24T12:52:05.000Z</time>
      </trkpt>
      <trkpt lat="43.36082" lon="2.44703">
        <ele>659</ele>
        <time>2017-09-24T12:52:06.000Z</time>
      </trkpt>
      <trkpt lat="43.36081" lon="2.44701">
        <ele>659</ele>
        <time>2017-09-24T12:52:07.000Z</time>
      </trkpt>
      <trkpt lat="43.3608" lon="2.44699">
        <ele>659</ele>
        <time>2017-09-24T12:52:08.000Z</time>
      </trkpt>
      <trkpt lat="43.3608" lon="2.44697">
        <ele>659</ele>
        <time>2017-09-24T12:52:09.000Z</time>
      </trkpt>
      <trkpt lat="43.3608" lon="2.44696">
        <ele>659</ele>
        <time>2017-09-24T12:52:10.000Z</time>
      </trkpt>
      <trkpt lat="43.36079" lon="2.44695">
        <ele>659</ele>
        <time>2017-09-24T12:52:11.000Z</time>
      </trkpt>
      <trkpt lat="43.36079" lon="2.44693">
        <ele>659</ele>
        <time>2017-09-24T12:52:12.000Z</time>
      </trkpt>
      <trkpt lat="43.36078" lon="2.44691">
        <ele>659</ele>
        <time>2017-09-24T12:52:13.000Z</time>
      </trkpt>
      <trkpt lat="43.36078" lon="2.4469">
        <ele>659</ele>
        <time>2017-09-24T12:52:14.000Z</time>
      </trkpt>
      <trkpt lat="43.36077" lon="2.44688">
        <ele>659</ele>
        <time>2017-09-24T12:52:15.000Z</time>
      </trkpt>
      <trkpt lat="43.36077" lon="2.44686">
        <ele>659</ele>
        <time>2017-09-24T12:52:16.000Z</time>
      </trkpt>
      <trkpt lat="43.36077" lon="2.44685">
        <ele>659</ele>
        <time>2017-09-24T12:52:17.000Z</time>
      </trkpt>
      <trkpt lat="43.36077" lon="2.44683">
        <ele>659</ele>
        <time>2017-09-24T12:52:18.000Z</time>
      </trkpt>
      <trkpt lat="43.36077" lon="2.44681">
        <ele>660</ele>
        <time>2017-09-24T12:52:19.000Z</time>
      </trkpt>
      <trkpt lat="43.36077" lon="2.4468">
        <ele>660</ele>
        <time>2017-09-24T12:52:20.000Z</time>
      </trkpt>
      <trkpt lat="43.36076" lon="2.44678">
        <ele>660</ele>
        <time>2017-09-24T12:52:21.000Z</time>
      </trkpt>
      <trkpt lat="43.36076" lon="2.44677">
        <ele>660</ele>
        <time>2017-09-24T12:52:22.000Z</time>
      </trkpt>
      <trkpt lat="43.36076" lon="2.44676">
        <ele>660</ele>
        <time>2017-09-24T12:52:23.000Z</time>
      </trkpt>
      <trkpt lat="43.36075" lon="2.44674">
        <ele>660</ele>
        <time>2017-09-24T12:52:24.000Z</time>
      </trkpt>
      <trkpt lat="43.36075" lon="2.44673">
        <ele>660</ele>
        <time>2017-09-24T12:52:25.000Z</time>
      </trkpt>
      <trkpt lat="43.36074" lon="2.44672">
        <ele>660</ele>
        <time>2017-09-24T12:52:26.000Z</time>
      </trkpt>
      <trkpt lat="43.36074" lon="2.4467">
        <ele>660</ele>
        <time>2017-09-24T12:52:27.000Z</time>
      </trkpt>
      <trkpt lat="43.36073" lon="2.44669">
        <ele>660</ele>
        <time>2017-09-24T12:52:28.000Z</time>
      </trkpt>
      <trkpt lat="43.36073" lon="2.44668">
        <ele>660</ele>
        <time>2017-09-24T12:52:29.000Z</time>
      </trkpt>
      <trkpt lat="43.36072" lon="2.44667">
        <ele>659</ele>
        <time>2017-09-24T12:52:30.000Z</time>
      </trkpt>
      <trkpt lat="43.36071" lon="2.44666">
        <ele>659</ele>
        <time>2017-09-24T12:52:31.000Z</time>
      </trkpt>
      <trkpt lat="43.36071" lon="2.44665">
        <ele>659</ele>
        <time>2017-09-24T12:52:32.000Z</time>
      </trkpt>
      <trkpt lat="43.3607" lon="2.44663">
        <ele>659</ele>
        <time>2017-09-24T12:52:33.000Z</time>
      </trkpt>
      <trkpt lat="43.36069" lon="2.44661">
        <ele>659</ele>
        <time>2017-09-24T12:52:34.000Z</time>
      </trkpt>
      <trkpt lat="43.36069" lon="2.4466">
        <ele>659</ele>
        <time>2017-09-24T12:52:35.000Z</time>
      </trkpt>
      <trkpt lat="43.36068" lon="2.44658">
        <ele>659</ele>
        <time>2017-09-24T12:52:36.000Z</time>
      </trkpt>
      <trkpt lat="43.36068" lon="2.44657">
        <ele>659</ele>
        <time>2017-09-24T12:52:37.000Z</time>
      </trkpt>
      <trkpt lat="43.36067" lon="2.44655">
        <ele>659</ele>
        <time>2017-09-24T12:52:38.000Z</time>
      </trkpt>
      <trkpt lat="43.36067" lon="2.44653">
        <ele>659</ele>
        <time>2017-09-24T12:52:39.000Z</time>
      </trkpt>
      <trkpt lat="43.36066" lon="2.44652">
        <ele>659</ele>
        <time>2017-09-24T12:52:40.000Z</time>
      </trkpt>
      <trkpt lat="43.36066" lon="2.44651">
        <ele>659</ele>
        <time>2017-09-24T12:52:41.000Z</time>
      </trkpt>
      <trkpt lat="43.36066" lon="2.44649">
        <ele>659</ele>
        <time>2017-09-24T12:52:42.000Z</time>
      </trkpt>
      <trkpt lat="43.36066" lon="2.44647">
        <ele>659</ele>
        <time>2017-09-24T12:52:43.000Z</time>
      </trkpt>
      <trkpt lat="43.36065" lon="2.44646">
        <ele>659</ele>
        <time>2017-09-24T12:52:44.000Z</time>
      </trkpt>
      <trkpt lat="43.36065" lon="2.44645">
        <ele>660</ele>
        <time>2017-09-24T12:52:45.000Z</time>
      </trkpt>
      <trkpt lat="43.36065" lon="2.44644">
        <ele>660</ele>
        <time>2017-09-24T12:52:46.000Z</time>
      </trkpt>
      <trkpt lat="43.36065" lon="2.44643">
        <ele>660</ele>
        <time>2017-09-24T12:52:47.000Z</time>
      </trkpt>
      <trkpt lat="43.36064" lon="2.44642">
        <ele>660</ele>
        <time>2017-09-24T12:52:48.000Z</time>
      </trkpt>
      <trkpt lat="43.36064" lon="2.44642">
        <ele>659</ele>
        <time>2017-09-24T12:52:49.000Z</time>
      </trkpt>
      <trkpt lat="43.36064" lon="2.44641">
        <ele>659</ele>
        <time>2017-09-24T12:52:50.000Z</time>
      </trkpt>
      <trkpt lat="43.36063" lon="2.4464">
        <ele>659</ele>
        <time>2017-09-24T12:52:51.000Z</time>
      </trkpt>
      <trkpt lat="43.36063" lon="2.44639">
        <ele>659</ele>
        <time>2017-09-24T12:52:52.000Z</time>
      </trkpt>
      <trkpt lat="43.36063" lon="2.44638">
        <ele>659</ele>
        <time>2017-09-24T12:52:53.000Z</time>
      </trkpt>
      <trkpt lat="43.36062" lon="2.44637">
        <ele>659</ele>
        <time>2017-09-24T12:52:54.000Z</time>
      </trkpt>
      <trkpt lat="43.36062" lon="2.44636">
        <ele>659</ele>
        <time>2017-09-24T12:52:55.000Z</time>
      </trkpt>
      <trkpt lat="43.36062" lon="2.44635">
        <ele>659</ele>
        <time>2017-09-24T12:52:56.000Z</time>
      </trkpt>
      <trkpt lat="43.36061" lon="2.44633">
        <ele>659</ele>
        <time>2017-09-24T12:52:57.000Z</time>
      </trkpt>
      <trkpt lat="43.36061" lon="2.44632">
        <ele>659</ele>
        <time>2017-09-24T12:52:58.000Z</time>
      </trkpt>
      <trkpt lat="43.36061" lon="2.44631">
        <ele>660</ele>
        <time>2017-09-24T12:52:59.000Z</time>
      </trkpt>
      <trkpt lat="43.3606" lon="2.44629">
        <ele>660</ele>
        <time>2017-09-24T12:53:00.000Z</time>
      </trkpt>
      <trkpt lat="43.3606" lon="2.44627">
        <ele>660</ele>
        <time>2017-09-24T12:53:01.000Z</time>
      </trkpt>
      <trkpt lat="43.3606" lon="2.44626">
        <ele>660</ele>
        <time>2017-09-24T12:53:02.000Z</time>
      </trkpt>
      <trkpt lat="43.3606" lon="2.44624">
        <ele>660</ele>
        <time>2017-09-24T12:53:03.000Z</time>
      </trkpt>
      <trkpt lat="43.3606" lon="2.44623">
        <ele>660</ele>
        <time>2017-09-24T12:53:04.000Z</time>
      </trkpt>
      <trkpt lat="43.36059" lon="2.44621">
        <ele>660</ele>
        <time>2017-09-24T12:53:05.000Z</time>
      </trkpt>
      <trkpt lat="43.36059" lon="2.44619">
        <ele>660</ele>
        <time>2017-09-24T12:53:06.000Z</time>
      </trkpt>
      <trkpt lat="43.36058" lon="2.44618">
        <ele>660</ele>
        <time>2017-09-24T12:53:07.000Z</time>
      </trkpt>
      <trkpt lat="43.36058" lon="2.44617">
        <ele>660</ele>
        <time>2017-09-24T12:53:08.000Z</time>
      </trkpt>
      <trkpt lat="43.36057" lon="2.44615">
        <ele>660</ele>
        <time>2017-09-24T12:53:09.000Z</time>
      </trkpt>
      <trkpt lat="43.36057" lon="2.44613">
        <ele>660</ele>
        <time>2017-09-24T12:53:10.000Z</time>
      </trkpt>
      <trkpt lat="43.36057" lon="2.44612">
        <ele>660</ele>
        <time>2017-09-24T12:53:11.000Z</time>
      </trkpt>
      <trkpt lat="43.36056" lon="2.4461">
        <ele>660</ele>
        <time>2017-09-24T12:53:12.000Z</time>
      </trkpt>
      <trkpt lat="43.36055" lon="2.44608">
        <ele>660</ele>
        <time>2017-09-24T12:53:13.000Z</time>
      </trkpt>
      <trkpt lat="43.36055" lon="2.44607">
        <ele>660</ele>
        <time>2017-09-24T12:53:14.000Z</time>
      </trkpt>
      <trkpt lat="43.36054" lon="2.44605">
        <ele>660</ele>
        <time>2017-09-24T12:53:15.000Z</time>
      </trkpt>
      <trkpt lat="43.36054" lon="2.44604">
        <ele>660</ele>
        <time>2017-09-24T12:53:16.000Z</time>
      </trkpt>
      <trkpt lat="43.36053" lon="2.44602">
        <ele>660</ele>
        <time>2017-09-24T12:53:17.000Z</time>
      </trkpt>
      <trkpt lat="43.36053" lon="2.446">
        <ele>660</ele>
        <time>2017-09-24T12:53:18.000Z</time>
      </trkpt>
      <trkpt lat="43.36052" lon="2.44598">
        <ele>660</ele>
        <time>2017-09-24T12:53:19.000Z</time>
      </trkpt>
      <trkpt lat="43.36052" lon="2.44597">
        <ele>660</ele>
        <time>2017-09-24T12:53:20.000Z</time>
      </trkpt>
      <trkpt lat="43.36051" lon="2.44596">
        <ele>660</ele>
        <time>2017-09-24T12:53:21.000Z</time>
      </trkpt>
      <trkpt lat="43.36051" lon="2.44594">
        <ele>660</ele>
        <time>2017-09-24T12:53:22.000Z</time>
      </trkpt>
      <trkpt lat="43.3605" lon="2.44593">
        <ele>660</ele>
        <time>2017-09-24T12:53:23.000Z</time>
      </trkpt>
      <trkpt lat="43.36049" lon="2.44592">
        <ele>660</ele>
        <time>2017-09-24T12:53:24.000Z</time>
      </trkpt>
      <trkpt lat="43.36048" lon="2.44591">
        <ele>660</ele>
        <time>2017-09-24T12:53:25.000Z</time>
      </trkpt>
      <trkpt lat="43.36048" lon="2.4459">
        <ele>659</ele>
        <time>2017-09-24T12:53:26.000Z</time>
      </trkpt>
      <trkpt lat="43.36047" lon="2.44589">
        <ele>659</ele>
        <time>2017-09-24T12:53:27.000Z</time>
      </trkpt>
      <trkpt lat="43.36046" lon="2.44587">
        <ele>659</ele>
        <time>2017-09-24T12:53:28.000Z</time>
      </trkpt>
      <trkpt lat="43.36045" lon="2.44586">
        <ele>659</ele>
        <time>2017-09-24T12:53:29.000Z</time>
      </trkpt>
      <trkpt lat="43.36044" lon="2.44585">
        <ele>659</ele>
        <time>2017-09-24T12:53:30.000Z</time>
      </trkpt>
      <trkpt lat="43.36043" lon="2.44584">
        <ele>658</ele>
        <time>2017-09-24T12:53:31.000Z</time>
      </trkpt>
      <trkpt lat="43.36043" lon="2.44583">
        <ele>658</ele>
        <time>2017-09-24T12:53:32.000Z</time>
      </trkpt>
      <trkpt lat="43.36042" lon="2.44582">
        <ele>658</ele>
        <time>2017-09-24T12:53:33.000Z</time>
      </trkpt>
      <trkpt lat="43.36041" lon="2.4458">
        <ele>658</ele>
        <time>2017-09-24T12:53:34.000Z</time>
      </trkpt>
      <trkpt lat="43.3604" lon="2.44579">
        <ele>658</ele>
        <time>2017-09-24T12:53:35.000Z</time>
      </trkpt>
      <trkpt lat="43.3604" lon="2.44577">
        <ele>658</ele>
        <time>2017-09-24T12:53:36.000Z</time>
      </trkpt>
      <trkpt lat="43.36039" lon="2.44576">
        <ele>658</ele>
        <time>2017-09-24T12:53:37.000Z</time>
      </trkpt>
      <trkpt lat="43.36039" lon="2.44575">
        <ele>658</ele>
        <time>2017-09-24T12:53:38.000Z</time>
      </trkpt>
      <trkpt lat="43.36038" lon="2.44574">
        <ele>658</ele>
        <time>2017-09-24T12:53:39.000Z</time>
      </trkpt>
      <trkpt lat="43.36037" lon="2.44573">
        <ele>657</ele>
        <time>2017-09-24T12:53:40.000Z</time>
      </trkpt>
      <trkpt lat="43.36036" lon="2.44572">
        <ele>657</ele>
        <time>2017-09-24T12:53:41.000Z</time>
      </trkpt>
      <trkpt lat="43.36035" lon="2.44571">
        <ele>657</ele>
        <time>2017-09-24T12:53:42.000Z</time>
      </trkpt>
      <trkpt lat="43.36034" lon="2.4457">
        <ele>657</ele>
        <time>2017-09-24T12:53:43.000Z</time>
      </trkpt>
      <trkpt lat="43.36033" lon="2.44568">
        <ele>657</ele>
        <time>2017-09-24T12:53:44.000Z</time>
      </trkpt>
      <trkpt lat="43.36033" lon="2.44567">
        <ele>657</ele>
        <time>2017-09-24T12:53:45.000Z</time>
      </trkpt>
      <trkpt lat="43.36032" lon="2.44565">
        <ele>657</ele>
        <time>2017-09-24T12:53:46.000Z</time>
      </trkpt>
      <trkpt lat="43.36032" lon="2.44563">
        <ele>657</ele>
        <time>2017-09-24T12:53:47.000Z</time>
      </trkpt>
      <trkpt lat="43.36031" lon="2.44562">
        <ele>657</ele>
        <time>2017-09-24T12:53:48.000Z</time>
      </trkpt>
      <trkpt lat="43.36031" lon="2.44561">
        <ele>657</ele>
        <time>2017-09-24T12:53:49.000Z</time>
      </trkpt>
      <trkpt lat="43.36031" lon="2.44559">
        <ele>657</ele>
        <time>2017-09-24T12:53:50.000Z</time>
      </trkpt>
      <trkpt lat="43.3603" lon="2.44558">
        <ele>657</ele>
        <time>2017-09-24T12:53:51.000Z</time>
      </trkpt>
      <trkpt lat="43.3603" lon="2.44557">
        <ele>657</ele>
        <time>2017-09-24T12:53:52.000Z</time>
      </trkpt>
      <trkpt lat="43.36029" lon="2.44556">
        <ele>657</ele>
        <time>2017-09-24T12:53:53.000Z</time>
      </trkpt>
      <trkpt lat="43.36029" lon="2.44554">
        <ele>657</ele>
        <time>2017-09-24T12:53:54.000Z</time>
      </trkpt>
      <trkpt lat="43.36028" lon="2.44553">
        <ele>657</ele>
        <time>2017-09-24T12:53:55.000Z</time>
      </trkpt>
      <trkpt lat="43.36028" lon="2.44551">
        <ele>657</ele>
        <time>2017-09-24T12:53:56.000Z</time>
      </trkpt>
      <trkpt lat="43.36027" lon="2.4455">
        <ele>657</ele>
        <time>2017-09-24T12:53:57.000Z</time>
      </trkpt>
      <trkpt lat="43.36027" lon="2.44549">
        <ele>657</ele>
        <time>2017-09-24T12:53:58.000Z</time>
      </trkpt>
      <trkpt lat="43.36027" lon="2.44547">
        <ele>657</ele>
        <time>2017-09-24T12:53:59.000Z</time>
      </trkpt>
      <trkpt lat="43.36026" lon="2.44545">
        <ele>657</ele>
        <time>2017-09-24T12:54:00.000Z</time>
      </trkpt>
      <trkpt lat="43.36026" lon="2.44543">
        <ele>657</ele>
        <time>2017-09-24T12:54:01.000Z</time>
      </trkpt>
      <trkpt lat="43.36025" lon="2.44542">
        <ele>657</ele>
        <time>2017-09-24T12:54:02.000Z</time>
      </trkpt>
      <trkpt lat="43.36025" lon="2.44541">
        <ele>657</ele>
        <time>2017-09-24T12:54:03.000Z</time>
      </trkpt>
      <trkpt lat="43.36024" lon="2.4454">
        <ele>657</ele>
        <time>2017-09-24T12:54:04.000Z</time>
      </trkpt>
      <trkpt lat="43.36024" lon="2.44538">
        <ele>657</ele>
        <time>2017-09-24T12:54:05.000Z</time>
      </trkpt>
      <trkpt lat="43.36023" lon="2.44537">
        <ele>657</ele>
        <time>2017-09-24T12:54:06.000Z</time>
      </trkpt>
      <trkpt lat="43.36023" lon="2.44535">
        <ele>657</ele>
        <time>2017-09-24T12:54:07.000Z</time>
      </trkpt>
      <trkpt lat="43.36023" lon="2.44534">
        <ele>657</ele>
        <time>2017-09-24T12:54:08.000Z</time>
      </trkpt>
      <trkpt lat="43.36022" lon="2.44532">
        <ele>657</ele>
        <time>2017-09-24T12:54:09.000Z</time>
      </trkpt>
      <trkpt lat="43.36022" lon="2.44531">
        <ele>657</ele>
        <time>2017-09-24T12:54:10.000Z</time>
      </trkpt>
      <trkpt lat="43.36021" lon="2.44529">
        <ele>657</ele>
        <time>2017-09-24T12:54:11.000Z</time>
      </trkpt>
      <trkpt lat="43.36021" lon="2.44528">
        <ele>657</ele>
        <time>2017-09-24T12:54:12.000Z</time>
      </trkpt>
      <trkpt lat="43.3602" lon="2.44526">
        <ele>657</ele>
        <time>2017-09-24T12:54:13.000Z</time>
      </trkpt>
      <trkpt lat="43.36019" lon="2.44524">
        <ele>657</ele>
        <time>2017-09-24T12:54:14.000Z</time>
      </trkpt>
      <trkpt lat="43.36019" lon="2.44523">
        <ele>657</ele>
        <time>2017-09-24T12:54:15.000Z</time>
      </trkpt>
      <trkpt lat="43.36018" lon="2.44522">
        <ele>657</ele>
        <time>2017-09-24T12:54:16.000Z</time>
      </trkpt>
      <trkpt lat="43.36017" lon="2.4452">
        <ele>657</ele>
        <time>2017-09-24T12:54:17.000Z</time>
      </trkpt>
      <trkpt lat="43.36017" lon="2.44518">
        <ele>657</ele>
        <time>2017-09-24T12:54:18.000Z</time>
      </trkpt>
      <trkpt lat="43.36016" lon="2.44517">
        <ele>657</ele>
        <time>2017-09-24T12:54:19.000Z</time>
      </trkpt>
      <trkpt lat="43.36015" lon="2.44515">
        <ele>657</ele>
        <time>2017-09-24T12:54:20.000Z</time>
      </trkpt>
      <trkpt lat="43.36015" lon="2.44513">
        <ele>657</ele>
        <time>2017-09-24T12:54:21.000Z</time>
      </trkpt>
      <trkpt lat="43.36015" lon="2.44511">
        <ele>657</ele>
        <time>2017-09-24T12:54:22.000Z</time>
      </trkpt>
      <trkpt lat="43.36014" lon="2.44509">
        <ele>657</ele>
        <time>2017-09-24T12:54:23.000Z</time>
      </trkpt>
      <trkpt lat="43.36014" lon="2.44507">
        <ele>658</ele>
        <time>2017-09-24T12:54:24.000Z</time>
      </trkpt>
      <trkpt lat="43.36013" lon="2.44506">
        <ele>658</ele>
        <time>2017-09-24T12:54:25.000Z</time>
      </trkpt>
      <trkpt lat="43.36013" lon="2.44504">
        <ele>658</ele>
        <time>2017-09-24T12:54:26.000Z</time>
      </trkpt>
      <trkpt lat="43.36012" lon="2.44502">
        <ele>658</ele>
        <time>2017-09-24T12:54:27.000Z</time>
      </trkpt>
      <trkpt lat="43.36011" lon="2.445">
        <ele>658</ele>
        <time>2017-09-24T12:54:28.000Z</time>
      </trkpt>
      <trkpt lat="43.36011" lon="2.44498">
        <ele>658</ele>
        <time>2017-09-24T12:54:29.000Z</time>
      </trkpt>
      <trkpt lat="43.3601" lon="2.44496">
        <ele>658</ele>
        <time>2017-09-24T12:54:30.000Z</time>
      </trkpt>
      <trkpt lat="43.3601" lon="2.44494">
        <ele>657</ele>
        <time>2017-09-24T12:54:31.000Z</time>
      </trkpt>
      <trkpt lat="43.36009" lon="2.44492">
        <ele>657</ele>
        <time>2017-09-24T12:54:32.000Z</time>
      </trkpt>
      <trkpt lat="43.36009" lon="2.44491">
        <ele>657</ele>
        <time>2017-09-24T12:54:33.000Z</time>
      </trkpt>
      <trkpt lat="43.36009" lon="2.44489">
        <ele>657</ele>
        <time>2017-09-24T12:54:34.000Z</time>
      </trkpt>
      <trkpt lat="43.36009" lon="2.44488">
        <ele>656</ele>
        <time>2017-09-24T12:54:35.000Z</time>
      </trkpt>
      <trkpt lat="43.36008" lon="2.44486">
        <ele>656</ele>
        <time>2017-09-24T12:54:36.000Z</time>
      </trkpt>
      <trkpt lat="43.36007" lon="2.44484">
        <ele>656</ele>
        <time>2017-09-24T12:54:37.000Z</time>
      </trkpt>
      <trkpt lat="43.36006" lon="2.44482">
        <ele>655</ele>
        <time>2017-09-24T12:54:38.000Z</time>
      </trkpt>
      <trkpt lat="43.36006" lon="2.4448">
        <ele>655</ele>
        <time>2017-09-24T12:54:39.000Z</time>
      </trkpt>
      <trkpt lat="43.36005" lon="2.44479">
        <ele>655</ele>
        <time>2017-09-24T12:54:40.000Z</time>
      </trkpt>
      <trkpt lat="43.36005" lon="2.44477">
        <ele>654</ele>
        <time>2017-09-24T12:54:41.000Z</time>
      </trkpt>
      <trkpt lat="43.36004" lon="2.44476">
        <ele>654</ele>
        <time>2017-09-24T12:54:42.000Z</time>
      </trkpt>
      <trkpt lat="43.36004" lon="2.44474">
        <ele>654</ele>
        <time>2017-09-24T12:54:43.000Z</time>
      </trkpt>
      <trkpt lat="43.36003" lon="2.44473">
        <ele>654</ele>
        <time>2017-09-24T12:54:44.000Z</time>
      </trkpt>
      <trkpt lat="43.36003" lon="2.44472">
        <ele>654</ele>
        <time>2017-09-24T12:54:45.000Z</time>
      </trkpt>
      <trkpt lat="43.36002" lon="2.4447">
        <ele>653</ele>
        <time>2017-09-24T12:54:46.000Z</time>
      </trkpt>
      <trkpt lat="43.36001" lon="2.44469">
        <ele>653</ele>
        <time>2017-09-24T12:54:47.000Z</time>
      </trkpt>
      <trkpt lat="43.36001" lon="2.44467">
        <ele>653</ele>
        <time>2017-09-24T12:54:48.000Z</time>
      </trkpt>
      <trkpt lat="43.36001" lon="2.44465">
        <ele>652</ele>
        <time>2017-09-24T12:54:49.000Z</time>
      </trkpt>
      <trkpt lat="43.36" lon="2.44464">
        <ele>652</ele>
        <time>2017-09-24T12:54:50.000Z</time>
      </trkpt>
      <trkpt lat="43.36" lon="2.44462">
        <ele>652</ele>
        <time>2017-09-24T12:54:51.000Z</time>
      </trkpt>
      <trkpt lat="43.36" lon="2.44461">
        <ele>652</ele>
        <time>2017-09-24T12:54:52.000Z</time>
      </trkpt>
      <trkpt lat="43.36" lon="2.4446">
        <ele>652</ele>
        <time>2017-09-24T12:54:53.000Z</time>
      </trkpt>
      <trkpt lat="43.35999" lon="2.4446">
        <ele>652</ele>
        <time>2017-09-24T12:54:54.000Z</time>
      </trkpt>
      <trkpt lat="43.35999" lon="2.44459">
        <ele>651</ele>
        <time>2017-09-24T12:54:55.000Z</time>
      </trkpt>
      <trkpt lat="43.35998" lon="2.44459">
        <ele>651</ele>
        <time>2017-09-24T12:54:56.000Z</time>
      </trkpt>
      <trkpt lat="43.35998" lon="2.44457">
        <ele>651</ele>
        <time>2017-09-24T12:54:57.000Z</time>
      </trkpt>
      <trkpt lat="43.35998" lon="2.44457">
        <ele>651</ele>
        <time>2017-09-24T12:54:58.000Z</time>
      </trkpt>
      <trkpt lat="43.35999" lon="2.44456">
        <ele>651</ele>
        <time>2017-09-24T12:54:59.000Z</time>
      </trkpt>
      <trkpt lat="43.35999" lon="2.44455">
        <ele>651</ele>
        <time>2017-09-24T12:55:00.000Z</time>
      </trkpt>
      <trkpt lat="43.36" lon="2.44455">
        <ele>651</ele>
        <time>2017-09-24T12:55:01.000Z</time>
      </trkpt>
      <trkpt lat="43.36" lon="2.44455">
        <ele>651</ele>
        <time>2017-09-24T12:55:02.000Z</time>
      </trkpt>
      <trkpt lat="43.35999" lon="2.4445">
        <ele>651</ele>
        <time>2017-09-24T12:55:11.000Z</time>
      </trkpt>
      <trkpt lat="43.35999" lon="2.44449">
        <ele>651</ele>
        <time>2017-09-24T12:55:12.000Z</time>
      </trkpt>
      <trkpt lat="43.35999" lon="2.44447">
        <ele>650</ele>
        <time>2017-09-24T12:55:13.000Z</time>
      </trkpt>
      <trkpt lat="43.35999" lon="2.44446">
        <ele>650</ele>
        <time>2017-09-24T12:55:14.000Z</time>
      </trkpt>
      <trkpt lat="43.35999" lon="2.44444">
        <ele>650</ele>
        <time>2017-09-24T12:55:15.000Z</time>
      </trkpt>
      <trkpt lat="43.35999" lon="2.44442">
        <ele>650</ele>
        <time>2017-09-24T12:55:16.000Z</time>
      </trkpt>
      <trkpt lat="43.36" lon="2.44441">
        <ele>650</ele>
        <time>2017-09-24T12:55:17.000Z</time>
      </trkpt>
      <trkpt lat="43.36" lon="2.44439">
        <ele>650</ele>
        <time>2017-09-24T12:55:18.000Z</time>
      </trkpt>
      <trkpt lat="43.36" lon="2.44437">
        <ele>650</ele>
        <time>2017-09-24T12:55:19.000Z</time>
      </trkpt>
      <trkpt lat="43.36001" lon="2.44435">
        <ele>650</ele>
        <time>2017-09-24T12:55:20.000Z</time>
      </trkpt>
      <trkpt lat="43.36001" lon="2.44434">
        <ele>649</ele>
        <time>2017-09-24T12:55:21.000Z</time>
      </trkpt>
      <trkpt lat="43.36001" lon="2.44433">
        <ele>649</ele>
        <time>2017-09-24T12:55:22.000Z</time>
      </trkpt>
      <trkpt lat="43.36001" lon="2.44432">
        <ele>649</ele>
        <time>2017-09-24T12:55:23.000Z</time>
      </trkpt>
      <trkpt lat="43.36001" lon="2.44431">
        <ele>649</ele>
        <time>2017-09-24T12:55:24.000Z</time>
      </trkpt>
      <trkpt lat="43.36001" lon="2.4443">
        <ele>649</ele>
        <time>2017-09-24T12:55:25.000Z</time>
      </trkpt>
      <trkpt lat="43.36001" lon="2.44429">
        <ele>649</ele>
        <time>2017-09-24T12:55:26.000Z</time>
      </trkpt>
      <trkpt lat="43.36" lon="2.44428">
        <ele>649</ele>
        <time>2017-09-24T12:55:27.000Z</time>
      </trkpt>
      <trkpt lat="43.36001" lon="2.44428">
        <ele>649</ele>
        <time>2017-09-24T12:55:28.000Z</time>
      </trkpt>
      <trkpt lat="43.36003" lon="2.44436">
        <ele>650</ele>
        <time>2017-09-24T12:56:07.000Z</time>
      </trkpt>
      <trkpt lat="43.36003" lon="2.44438">
        <ele>650</ele>
        <time>2017-09-24T12:56:08.000Z</time>
      </trkpt>
      <trkpt lat="43.36002" lon="2.44439">
        <ele>650</ele>
        <time>2017-09-24T12:56:09.000Z</time>
      </trkpt>
      <trkpt lat="43.36002" lon="2.44441">
        <ele>650</ele>
        <time>2017-09-24T12:56:10.000Z</time>
      </trkpt>
      <trkpt lat="43.36002" lon="2.44442">
        <ele>650</ele>
        <time>2017-09-24T12:56:11.000Z</time>
      </trkpt>
      <trkpt lat="43.36002" lon="2.44443">
        <ele>651</ele>
        <time>2017-09-24T12:56:12.000Z</time>
      </trkpt>
      <trkpt lat="43.36001" lon="2.44445">
        <ele>651</ele>
        <time>2017-09-24T12:56:13.000Z</time>
      </trkpt>
      <trkpt lat="43.36001" lon="2.44447">
        <ele>651</ele>
        <time>2017-09-24T12:56:14.000Z</time>
      </trkpt>
      <trkpt lat="43.36002" lon="2.44448">
        <ele>651</ele>
        <time>2017-09-24T12:56:15.000Z</time>
      </trkpt>
      <trkpt lat="43.36002" lon="2.44449">
        <ele>651</ele>
        <time>2017-09-24T12:56:16.000Z</time>
      </trkpt>
      <trkpt lat="43.36002" lon="2.44451">
        <ele>651</ele>
        <time>2017-09-24T12:56:17.000Z</time>
      </trkpt>
      <trkpt lat="43.36002" lon="2.44452">
        <ele>652</ele>
        <time>2017-09-24T12:56:18.000Z</time>
      </trkpt>
      <trkpt lat="43.36002" lon="2.44453">
        <ele>651</ele>
        <time>2017-09-24T12:56:19.000Z</time>
      </trkpt>
      <trkpt lat="43.36001" lon="2.44454">
        <ele>651</ele>
        <time>2017-09-24T12:56:20.000Z</time>
      </trkpt>
      <trkpt lat="43.36001" lon="2.44455">
        <ele>652</ele>
        <time>2017-09-24T12:56:21.000Z</time>
      </trkpt>
      <trkpt lat="43.36001" lon="2.44455">
        <ele>652</ele>
        <time>2017-09-24T12:56:22.000Z</time>
      </trkpt>
      <trkpt lat="43.36001" lon="2.44455">
        <ele>652</ele>
        <time>2017-09-24T12:56:23.000Z</time>
      </trkpt>
      <trkpt lat="43.35995" lon="2.4446">
        <ele>651</ele>
        <time>2017-09-24T12:56:46.000Z</time>
      </trkpt>
      <trkpt lat="43.35995" lon="2.4446">
        <ele>651</ele>
        <time>2017-09-24T12:56:47.000Z</time>
      </trkpt>
      <trkpt lat="43.35994" lon="2.44461">
        <ele>650</ele>
        <time>2017-09-24T12:56:48.000Z</time>
      </trkpt>
      <trkpt lat="43.35993" lon="2.44461">
        <ele>650</ele>
        <time>2017-09-24T12:56:49.000Z</time>
      </trkpt>
      <trkpt lat="43.35993" lon="2.44461">
        <ele>650</ele>
        <time>2017-09-24T12:56:50.000Z</time>
      </trkpt>
      <trkpt lat="43.35992" lon="2.44461">
        <ele>650</ele>
        <time>2017-09-24T12:56:51.000Z</time>
      </trkpt>
      <trkpt lat="43.35991" lon="2.44461">
        <ele>650</ele>
        <time>2017-09-24T12:56:52.000Z</time>
      </trkpt>
      <trkpt lat="43.3599" lon="2.44462">
        <ele>650</ele>
        <time>2017-09-24T12:56:53.000Z</time>
      </trkpt>
      <trkpt lat="43.35989" lon="2.44462">
        <ele>649</ele>
        <time>2017-09-24T12:56:54.000Z</time>
      </trkpt>
      <trkpt lat="43.35988" lon="2.44461">
        <ele>649</ele>
        <time>2017-09-24T12:56:55.000Z</time>
      </trkpt>
      <trkpt lat="43.35988" lon="2.44461">
        <ele>649</ele>
        <time>2017-09-24T12:56:56.000Z</time>
      </trkpt>
      <trkpt lat="43.35987" lon="2.44461">
        <ele>649</ele>
        <time>2017-09-24T12:56:57.000Z</time>
      </trkpt>
      <trkpt lat="43.35986" lon="2.44461">
        <ele>649</ele>
        <time>2017-09-24T12:56:58.000Z</time>
      </trkpt>
      <trkpt lat="43.35985" lon="2.44462">
        <ele>648</ele>
        <time>2017-09-24T12:56:59.000Z</time>
      </trkpt>
      <trkpt lat="43.35985" lon="2.44462">
        <ele>648</ele>
        <time>2017-09-24T12:57:00.000Z</time>
      </trkpt>
      <trkpt lat="43.35985" lon="2.44462">
        <ele>648</ele>
        <time>2017-09-24T12:57:01.000Z</time>
      </trkpt>
      <trkpt lat="43.35984" lon="2.44462">
        <ele>648</ele>
        <time>2017-09-24T12:57:02.000Z</time>
      </trkpt>
      <trkpt lat="43.35984" lon="2.44462">
        <ele>648</ele>
        <time>2017-09-24T12:57:03.000Z</time>
      </trkpt>
      <trkpt lat="43.35983" lon="2.44463">
        <ele>648</ele>
        <time>2017-09-24T12:57:04.000Z</time>
      </trkpt>
      <trkpt lat="43.35982" lon="2.44463">
        <ele>648</ele>
        <time>2017-09-24T12:57:05.000Z</time>
      </trkpt>
      <trkpt lat="43.35981" lon="2.44464">
        <ele>648</ele>
        <time>2017-09-24T12:57:06.000Z</time>
      </trkpt>
      <trkpt lat="43.35981" lon="2.44465">
        <ele>648</ele>
        <time>2017-09-24T12:57:07.000Z</time>
      </trkpt>
      <trkpt lat="43.3598" lon="2.44465">
        <ele>647</ele>
        <time>2017-09-24T12:57:08.000Z</time>
      </trkpt>
      <trkpt lat="43.35979" lon="2.44465">
        <ele>647</ele>
        <time>2017-09-24T12:57:09.000Z</time>
      </trkpt>
      <trkpt lat="43.35978" lon="2.44465">
        <ele>647</ele>
        <time>2017-09-24T12:57:10.000Z</time>
      </trkpt>
      <trkpt lat="43.35977" lon="2.44466">
        <ele>647</ele>
        <time>2017-09-24T12:57:11.000Z</time>
      </trkpt>
      <trkpt lat="43.35976" lon="2.44466">
        <ele>646</ele>
        <time>2017-09-24T12:57:12.000Z</time>
      </trkpt>
      <trkpt lat="43.35976" lon="2.44466">
        <ele>646</ele>
        <time>2017-09-24T12:57:13.000Z</time>
      </trkpt>
      <trkpt lat="43.35975" lon="2.44466">
        <ele>646</ele>
        <time>2017-09-24T12:57:14.000Z</time>
      </trkpt>
      <trkpt lat="43.35974" lon="2.44466">
        <ele>646</ele>
        <time>2017-09-24T12:57:15.000Z</time>
      </trkpt>
      <trkpt lat="43.35973" lon="2.44466">
        <ele>646</ele>
        <time>2017-09-24T12:57:16.000Z</time>
      </trkpt>
      <trkpt lat="43.35973" lon="2.44467">
        <ele>645</ele>
        <time>2017-09-24T12:57:17.000Z</time>
      </trkpt>
      <trkpt lat="43.35972" lon="2.44467">
        <ele>645</ele>
        <time>2017-09-24T12:57:18.000Z</time>
      </trkpt>
      <trkpt lat="43.35971" lon="2.44467">
        <ele>645</ele>
        <time>2017-09-24T12:57:19.000Z</time>
      </trkpt>
      <trkpt lat="43.3597" lon="2.44467">
        <ele>645</ele>
        <time>2017-09-24T12:57:20.000Z</time>
      </trkpt>
      <trkpt lat="43.35969" lon="2.44467">
        <ele>644</ele>
        <time>2017-09-24T12:57:21.000Z</time>
      </trkpt>
      <trkpt lat="43.35968" lon="2.44467">
        <ele>644</ele>
        <time>2017-09-24T12:57:22.000Z</time>
      </trkpt>
      <trkpt lat="43.35967" lon="2.44466">
        <ele>644</ele>
        <time>2017-09-24T12:57:23.000Z</time>
      </trkpt>
      <trkpt lat="43.35967" lon="2.44466">
        <ele>644</ele>
        <time>2017-09-24T12:57:24.000Z</time>
      </trkpt>
      <trkpt lat="43.35965" lon="2.44466">
        <ele>643</ele>
        <time>2017-09-24T12:57:25.000Z</time>
      </trkpt>
      <trkpt lat="43.35965" lon="2.44466">
        <ele>643</ele>
        <time>2017-09-24T12:57:26.000Z</time>
      </trkpt>
      <trkpt lat="43.35964" lon="2.44466">
        <ele>643</ele>
        <time>2017-09-24T12:57:27.000Z</time>
      </trkpt>
      <trkpt lat="43.35963" lon="2.44466">
        <ele>642</ele>
        <time>2017-09-24T12:57:28.000Z</time>
      </trkpt>
      <trkpt lat="43.35962" lon="2.44466">
        <ele>642</ele>
        <time>2017-09-24T12:57:29.000Z</time>
      </trkpt>
      <trkpt lat="43.35961" lon="2.44466">
        <ele>642</ele>
        <time>2017-09-24T12:57:30.000Z</time>
      </trkpt>
      <trkpt lat="43.3596" lon="2.44466">
        <ele>642</ele>
        <time>2017-09-24T12:57:31.000Z</time>
      </trkpt>
      <trkpt lat="43.35959" lon="2.44466">
        <ele>642</ele>
        <time>2017-09-24T12:57:32.000Z</time>
      </trkpt>
      <trkpt lat="43.35959" lon="2.44466">
        <ele>641</ele>
        <time>2017-09-24T12:57:33.000Z</time>
      </trkpt>
      <trkpt lat="43.35958" lon="2.44466">
        <ele>641</ele>
        <time>2017-09-24T12:57:34.000Z</time>
      </trkpt>
      <trkpt lat="43.35957" lon="2.44465">
        <ele>641</ele>
        <time>2017-09-24T12:57:35.000Z</time>
      </trkpt>
      <trkpt lat="43.35956" lon="2.44465">
        <ele>641</ele>
        <time>2017-09-24T12:57:36.000Z</time>
      </trkpt>
      <trkpt lat="43.35956" lon="2.44465">
        <ele>640</ele>
        <time>2017-09-24T12:57:37.000Z</time>
      </trkpt>
      <trkpt lat="43.35955" lon="2.44465">
        <ele>640</ele>
        <time>2017-09-24T12:57:38.000Z</time>
      </trkpt>
      <trkpt lat="43.35954" lon="2.44465">
        <ele>640</ele>
        <time>2017-09-24T12:57:39.000Z</time>
      </trkpt>
      <trkpt lat="43.35953" lon="2.44465">
        <ele>640</ele>
        <time>2017-09-24T12:57:40.000Z</time>
      </trkpt>
      <trkpt lat="43.35953" lon="2.44465">
        <ele>640</ele>
        <time>2017-09-24T12:57:41.000Z</time>
      </trkpt>
      <trkpt lat="43.35952" lon="2.44464">
        <ele>639</ele>
        <time>2017-09-24T12:57:42.000Z</time>
      </trkpt>
      <trkpt lat="43.35952" lon="2.44464">
        <ele>639</ele>
        <time>2017-09-24T12:57:43.000Z</time>
      </trkpt>
      <trkpt lat="43.35951" lon="2.44464">
        <ele>639</ele>
        <time>2017-09-24T12:57:44.000Z</time>
      </trkpt>
      <trkpt lat="43.3595" lon="2.44465">
        <ele>639</ele>
        <time>2017-09-24T12:57:45.000Z</time>
      </trkpt>
      <trkpt lat="43.35949" lon="2.44465">
        <ele>639</ele>
        <time>2017-09-24T12:57:46.000Z</time>
      </trkpt>
      <trkpt lat="43.35949" lon="2.44466">
        <ele>638</ele>
        <time>2017-09-24T12:57:47.000Z</time>
      </trkpt>
      <trkpt lat="43.35948" lon="2.44467">
        <ele>638</ele>
        <time>2017-09-24T12:57:48.000Z</time>
      </trkpt>
      <trkpt lat="43.35947" lon="2.44467">
        <ele>638</ele>
        <time>2017-09-24T12:57:49.000Z</time>
      </trkpt>
      <trkpt lat="43.35945" lon="2.44468">
        <ele>638</ele>
        <time>2017-09-24T12:57:50.000Z</time>
      </trkpt>
      <trkpt lat="43.35944" lon="2.44468">
        <ele>637</ele>
        <time>2017-09-24T12:57:51.000Z</time>
      </trkpt>
      <trkpt lat="43.35943" lon="2.44468">
        <ele>637</ele>
        <time>2017-09-24T12:57:52.000Z</time>
      </trkpt>
      <trkpt lat="43.35942" lon="2.44468">
        <ele>637</ele>
        <time>2017-09-24T12:57:53.000Z</time>
      </trkpt>
      <trkpt lat="43.35941" lon="2.44468">
        <ele>636</ele>
        <time>2017-09-24T12:57:54.000Z</time>
      </trkpt>
      <trkpt lat="43.3594" lon="2.44468">
        <ele>636</ele>
        <time>2017-09-24T12:57:55.000Z</time>
      </trkpt>
      <trkpt lat="43.35939" lon="2.44467">
        <ele>636</ele>
        <time>2017-09-24T12:57:56.000Z</time>
      </trkpt>
      <trkpt lat="43.35939" lon="2.44466">
        <ele>636</ele>
        <time>2017-09-24T12:57:57.000Z</time>
      </trkpt>
      <trkpt lat="43.35938" lon="2.44466">
        <ele>635</ele>
        <time>2017-09-24T12:57:58.000Z</time>
      </trkpt>
      <trkpt lat="43.35937" lon="2.44467">
        <ele>635</ele>
        <time>2017-09-24T12:57:59.000Z</time>
      </trkpt>
      <trkpt lat="43.35936" lon="2.44466">
        <ele>635</ele>
        <time>2017-09-24T12:58:00.000Z</time>
      </trkpt>
      <trkpt lat="43.35935" lon="2.44466">
        <ele>635</ele>
        <time>2017-09-24T12:58:01.000Z</time>
      </trkpt>
      <trkpt lat="43.35935" lon="2.44466">
        <ele>634</ele>
        <time>2017-09-24T12:58:02.000Z</time>
      </trkpt>
      <trkpt lat="43.35934" lon="2.44466">
        <ele>634</ele>
        <time>2017-09-24T12:58:03.000Z</time>
      </trkpt>
      <trkpt lat="43.35933" lon="2.44466">
        <ele>634</ele>
        <time>2017-09-24T12:58:04.000Z</time>
      </trkpt>
      <trkpt lat="43.35932" lon="2.44466">
        <ele>634</ele>
        <time>2017-09-24T12:58:05.000Z</time>
      </trkpt>
      <trkpt lat="43.35931" lon="2.44466">
        <ele>633</ele>
        <time>2017-09-24T12:58:06.000Z</time>
      </trkpt>
      <trkpt lat="43.3593" lon="2.44466">
        <ele>633</ele>
        <time>2017-09-24T12:58:07.000Z</time>
      </trkpt>
      <trkpt lat="43.35929" lon="2.44466">
        <ele>633</ele>
        <time>2017-09-24T12:58:08.000Z</time>
      </trkpt>
      <trkpt lat="43.35928" lon="2.44466">
        <ele>633</ele>
        <time>2017-09-24T12:58:09.000Z</time>
      </trkpt>
      <trkpt lat="43.35927" lon="2.44466">
        <ele>633</ele>
        <time>2017-09-24T12:58:10.000Z</time>
      </trkpt>
      <trkpt lat="43.35927" lon="2.44466">
        <ele>633</ele>
        <time>2017-09-24T12:58:11.000Z</time>
      </trkpt>
      <trkpt lat="43.35926" lon="2.44466">
        <ele>632</ele>
        <time>2017-09-24T12:58:12.000Z</time>
      </trkpt>
      <trkpt lat="43.35926" lon="2.44466">
        <ele>632</ele>
        <time>2017-09-24T12:58:13.000Z</time>
      </trkpt>
      <trkpt lat="43.35925" lon="2.44466">
        <ele>632</ele>
        <time>2017-09-24T12:58:14.000Z</time>
      </trkpt>
      <trkpt lat="43.35924" lon="2.44466">
        <ele>632</ele>
        <time>2017-09-24T12:58:15.000Z</time>
      </trkpt>
      <trkpt lat="43.35924" lon="2.44466">
        <ele>632</ele>
        <time>2017-09-24T12:58:16.000Z</time>
      </trkpt>
      <trkpt lat="43.35923" lon="2.44466">
        <ele>632</ele>
        <time>2017-09-24T12:58:17.000Z</time>
      </trkpt>
      <trkpt lat="43.35922" lon="2.44467">
        <ele>632</ele>
        <time>2017-09-24T12:58:18.000Z</time>
      </trkpt>
      <trkpt lat="43.35921" lon="2.44467">
        <ele>631</ele>
        <time>2017-09-24T12:58:19.000Z</time>
      </trkpt>
      <trkpt lat="43.3592" lon="2.44467">
        <ele>631</ele>
        <time>2017-09-24T12:58:20.000Z</time>
      </trkpt>
      <trkpt lat="43.35919" lon="2.44467">
        <ele>631</ele>
        <time>2017-09-24T12:58:21.000Z</time>
      </trkpt>
      <trkpt lat="43.35918" lon="2.44467">
        <ele>631</ele>
        <time>2017-09-24T12:58:22.000Z</time>
      </trkpt>
      <trkpt lat="43.35918" lon="2.44467">
        <ele>631</ele>
        <time>2017-09-24T12:58:23.000Z</time>
      </trkpt>
      <trkpt lat="43.35917" lon="2.44467">
        <ele>631</ele>
        <time>2017-09-24T12:58:24.000Z</time>
      </trkpt>
      <trkpt lat="43.35916" lon="2.44467">
        <ele>630</ele>
        <time>2017-09-24T12:58:25.000Z</time>
      </trkpt>
      <trkpt lat="43.35915" lon="2.44467">
        <ele>630</ele>
        <time>2017-09-24T12:58:26.000Z</time>
      </trkpt>
      <trkpt lat="43.35914" lon="2.44467">
        <ele>630</ele>
        <time>2017-09-24T12:58:27.000Z</time>
      </trkpt>
      <trkpt lat="43.35913" lon="2.44466">
        <ele>630</ele>
        <time>2017-09-24T12:58:28.000Z</time>
      </trkpt>
      <trkpt lat="43.35912" lon="2.44466">
        <ele>630</ele>
        <time>2017-09-24T12:58:29.000Z</time>
      </trkpt>
      <trkpt lat="43.35911" lon="2.44467">
        <ele>629</ele>
        <time>2017-09-24T12:58:30.000Z</time>
      </trkpt>
      <trkpt lat="43.35911" lon="2.44467">
        <ele>629</ele>
        <time>2017-09-24T12:58:31.000Z</time>
      </trkpt>
      <trkpt lat="43.3591" lon="2.44467">
        <ele>629</ele>
        <time>2017-09-24T12:58:32.000Z</time>
      </trkpt>
      <trkpt lat="43.35909" lon="2.44467">
        <ele>629</ele>
        <time>2017-09-24T12:58:33.000Z</time>
      </trkpt>
      <trkpt lat="43.35908" lon="2.44467">
        <ele>629</ele>
        <time>2017-09-24T12:58:34.000Z</time>
      </trkpt>
      <trkpt lat="43.35908" lon="2.44466">
        <ele>629</ele>
        <time>2017-09-24T12:58:35.000Z</time>
      </trkpt>
      <trkpt lat="43.35907" lon="2.44466">
        <ele>629</ele>
        <time>2017-09-24T12:58:36.000Z</time>
      </trkpt>
      <trkpt lat="43.35907" lon="2.44465">
        <ele>628</ele>
        <time>2017-09-24T12:58:37.000Z</time>
      </trkpt>
      <trkpt lat="43.35906" lon="2.44465">
        <ele>628</ele>
        <time>2017-09-24T12:58:38.000Z</time>
      </trkpt>
      <trkpt lat="43.35906" lon="2.44465">
        <ele>628</ele>
        <time>2017-09-24T12:58:39.000Z</time>
      </trkpt>
      <trkpt lat="43.35906" lon="2.44466">
        <ele>628</ele>
        <time>2017-09-24T12:58:40.000Z</time>
      </trkpt>
      <trkpt lat="43.35905" lon="2.44467">
        <ele>628</ele>
        <time>2017-09-24T12:58:41.000Z</time>
      </trkpt>
      <trkpt lat="43.35905" lon="2.44467">
        <ele>628</ele>
        <time>2017-09-24T12:58:42.000Z</time>
      </trkpt>
      <trkpt lat="43.35904" lon="2.44468">
        <ele>628</ele>
        <time>2017-09-24T12:58:43.000Z</time>
      </trkpt>
      <trkpt lat="43.35904" lon="2.44469">
        <ele>628</ele>
        <time>2017-09-24T12:58:44.000Z</time>
      </trkpt>
      <trkpt lat="43.35904" lon="2.4447">
        <ele>628</ele>
        <time>2017-09-24T12:58:45.000Z</time>
      </trkpt>
      <trkpt lat="43.35904" lon="2.4447">
        <ele>628</ele>
        <time>2017-09-24T12:58:46.000Z</time>
      </trkpt>
      <trkpt lat="43.35903" lon="2.44471">
        <ele>628</ele>
        <time>2017-09-24T12:58:47.000Z</time>
      </trkpt>
      <trkpt lat="43.35903" lon="2.44472">
        <ele>628</ele>
        <time>2017-09-24T12:58:48.000Z</time>
      </trkpt>
      <trkpt lat="43.35903" lon="2.44474">
        <ele>628</ele>
        <time>2017-09-24T12:58:49.000Z</time>
      </trkpt>
      <trkpt lat="43.35903" lon="2.44475">
        <ele>628</ele>
        <time>2017-09-24T12:58:50.000Z</time>
      </trkpt>
      <trkpt lat="43.35902" lon="2.44476">
        <ele>628</ele>
        <time>2017-09-24T12:58:51.000Z</time>
      </trkpt>
      <trkpt lat="43.35902" lon="2.44477">
        <ele>628</ele>
        <time>2017-09-24T12:58:52.000Z</time>
      </trkpt>
      <trkpt lat="43.35902" lon="2.44479">
        <ele>628</ele>
        <time>2017-09-24T12:58:53.000Z</time>
      </trkpt>
      <trkpt lat="43.35901" lon="2.44479">
        <ele>628</ele>
        <time>2017-09-24T12:58:54.000Z</time>
      </trkpt>
      <trkpt lat="43.35901" lon="2.44479">
        <ele>628</ele>
        <time>2017-09-24T12:58:55.000Z</time>
      </trkpt>
      <trkpt lat="43.35901" lon="2.44479">
        <ele>628</ele>
        <time>2017-09-24T12:58:56.000Z</time>
      </trkpt>
      <trkpt lat="43.35901" lon="2.4448">
        <ele>628</ele>
        <time>2017-09-24T12:58:57.000Z</time>
      </trkpt>
      <trkpt lat="43.35901" lon="2.44481">
        <ele>628</ele>
        <time>2017-09-24T12:58:58.000Z</time>
      </trkpt>
      <trkpt lat="43.35901" lon="2.44482">
        <ele>628</ele>
        <time>2017-09-24T12:58:59.000Z</time>
      </trkpt>
      <trkpt lat="43.359" lon="2.44483">
        <ele>628</ele>
        <time>2017-09-24T12:59:00.000Z</time>
      </trkpt>
      <trkpt lat="43.35899" lon="2.44483">
        <ele>628</ele>
        <time>2017-09-24T12:59:01.000Z</time>
      </trkpt>
      <trkpt lat="43.35898" lon="2.44484">
        <ele>628</ele>
        <time>2017-09-24T12:59:02.000Z</time>
      </trkpt>
      <trkpt lat="43.35898" lon="2.44485">
        <ele>628</ele>
        <time>2017-09-24T12:59:03.000Z</time>
      </trkpt>
      <trkpt lat="43.35898" lon="2.44486">
        <ele>628</ele>
        <time>2017-09-24T12:59:04.000Z</time>
      </trkpt>
      <trkpt lat="43.35898" lon="2.44487">
        <ele>628</ele>
        <time>2017-09-24T12:59:05.000Z</time>
      </trkpt>
      <trkpt lat="43.35898" lon="2.44488">
        <ele>628</ele>
        <time>2017-09-24T12:59:06.000Z</time>
      </trkpt>
      <trkpt lat="43.35897" lon="2.44489">
        <ele>628</ele>
        <time>2017-09-24T12:59:07.000Z</time>
      </trkpt>
      <trkpt lat="43.35897" lon="2.4449">
        <ele>628</ele>
        <time>2017-09-24T12:59:08.000Z</time>
      </trkpt>
      <trkpt lat="43.35897" lon="2.44491">
        <ele>628</ele>
        <time>2017-09-24T12:59:09.000Z</time>
      </trkpt>
      <trkpt lat="43.35897" lon="2.44493">
        <ele>628</ele>
        <time>2017-09-24T12:59:10.000Z</time>
      </trkpt>
      <trkpt lat="43.35896" lon="2.44494">
        <ele>628</ele>
        <time>2017-09-24T12:59:11.000Z</time>
      </trkpt>
      <trkpt lat="43.35896" lon="2.44495">
        <ele>628</ele>
        <time>2017-09-24T12:59:12.000Z</time>
      </trkpt>
      <trkpt lat="43.35895" lon="2.44496">
        <ele>628</ele>
        <time>2017-09-24T12:59:13.000Z</time>
      </trkpt>
      <trkpt lat="43.35894" lon="2.44497">
        <ele>627</ele>
        <time>2017-09-24T12:59:14.000Z</time>
      </trkpt>
      <trkpt lat="43.35894" lon="2.44498">
        <ele>627</ele>
        <time>2017-09-24T12:59:15.000Z</time>
      </trkpt>
      <trkpt lat="43.35893" lon="2.44498">
        <ele>627</ele>
        <time>2017-09-24T12:59:16.000Z</time>
      </trkpt>
      <trkpt lat="43.35893" lon="2.445">
        <ele>627</ele>
        <time>2017-09-24T12:59:17.000Z</time>
      </trkpt>
      <trkpt lat="43.35892" lon="2.44501">
        <ele>627</ele>
        <time>2017-09-24T12:59:18.000Z</time>
      </trkpt>
      <trkpt lat="43.35892" lon="2.44502">
        <ele>626</ele>
        <time>2017-09-24T12:59:19.000Z</time>
      </trkpt>
      <trkpt lat="43.35891" lon="2.44503">
        <ele>626</ele>
        <time>2017-09-24T12:59:20.000Z</time>
      </trkpt>
      <trkpt lat="43.35891" lon="2.44504">
        <ele>626</ele>
        <time>2017-09-24T12:59:21.000Z</time>
      </trkpt>
      <trkpt lat="43.3589" lon="2.44505">
        <ele>625</ele>
        <time>2017-09-24T12:59:22.000Z</time>
      </trkpt>
      <trkpt lat="43.3589" lon="2.44506">
        <ele>625</ele>
        <time>2017-09-24T12:59:23.000Z</time>
      </trkpt>
      <trkpt lat="43.35889" lon="2.44507">
        <ele>625</ele>
        <time>2017-09-24T12:59:24.000Z</time>
      </trkpt>
      <trkpt lat="43.35889" lon="2.44509">
        <ele>624</ele>
        <time>2017-09-24T12:59:25.000Z</time>
      </trkpt>
      <trkpt lat="43.35889" lon="2.4451">
        <ele>624</ele>
        <time>2017-09-24T12:59:26.000Z</time>
      </trkpt>
      <trkpt lat="43.35888" lon="2.44511">
        <ele>624</ele>
        <time>2017-09-24T12:59:27.000Z</time>
      </trkpt>
      <trkpt lat="43.35888" lon="2.44513">
        <ele>623</ele>
        <time>2017-09-24T12:59:28.000Z</time>
      </trkpt>
      <trkpt lat="43.35888" lon="2.44515">
        <ele>623</ele>
        <time>2017-09-24T12:59:29.000Z</time>
      </trkpt>
      <trkpt lat="43.35888" lon="2.44516">
        <ele>622</ele>
        <time>2017-09-24T12:59:30.000Z</time>
      </trkpt>
      <trkpt lat="43.35887" lon="2.44518">
        <ele>622</ele>
        <time>2017-09-24T12:59:31.000Z</time>
      </trkpt>
      <trkpt lat="43.35887" lon="2.44519">
        <ele>622</ele>
        <time>2017-09-24T12:59:32.000Z</time>
      </trkpt>
      <trkpt lat="43.35886" lon="2.44521">
        <ele>621</ele>
        <time>2017-09-24T12:59:33.000Z</time>
      </trkpt>
      <trkpt lat="43.35886" lon="2.44522">
        <ele>621</ele>
        <time>2017-09-24T12:59:34.000Z</time>
      </trkpt>
      <trkpt lat="43.35886" lon="2.44524">
        <ele>620</ele>
        <time>2017-09-24T12:59:35.000Z</time>
      </trkpt>
      <trkpt lat="43.35885" lon="2.44525">
        <ele>620</ele>
        <time>2017-09-24T12:59:36.000Z</time>
      </trkpt>
      <trkpt lat="43.35885" lon="2.44526">
        <ele>620</ele>
        <time>2017-09-24T12:59:37.000Z</time>
      </trkpt>
      <trkpt lat="43.35884" lon="2.44527">
        <ele>619</ele>
        <time>2017-09-24T12:59:38.000Z</time>
      </trkpt>
      <trkpt lat="43.35884" lon="2.44529">
        <ele>619</ele>
        <time>2017-09-24T12:59:39.000Z</time>
      </trkpt>
      <trkpt lat="43.35883" lon="2.4453">
        <ele>619</ele>
        <time>2017-09-24T12:59:40.000Z</time>
      </trkpt>
      <trkpt lat="43.35883" lon="2.44531">
        <ele>618</ele>
        <time>2017-09-24T12:59:41.000Z</time>
      </trkpt>
      <trkpt lat="43.35882" lon="2.44532">
        <ele>618</ele>
        <time>2017-09-24T12:59:42.000Z</time>
      </trkpt>
      <trkpt lat="43.35882" lon="2.44533">
        <ele>618</ele>
        <time>2017-09-24T12:59:43.000Z</time>
      </trkpt>
      <trkpt lat="43.35881" lon="2.44534">
        <ele>617</ele>
        <time>2017-09-24T12:59:44.000Z</time>
      </trkpt>
      <trkpt lat="43.35881" lon="2.44534">
        <ele>617</ele>
        <time>2017-09-24T12:59:45.000Z</time>
      </trkpt>
      <trkpt lat="43.35881" lon="2.44534">
        <ele>617</ele>
        <time>2017-09-24T12:59:46.000Z</time>
      </trkpt>
      <trkpt lat="43.35881" lon="2.4453">
        <ele>618</ele>
        <time>2017-09-24T12:59:51.000Z</time>
      </trkpt>
      <trkpt lat="43.35882" lon="2.44528">
        <ele>619</ele>
        <time>2017-09-24T12:59:52.000Z</time>
      </trkpt>
      <trkpt lat="43.35882" lon="2.44527">
        <ele>619</ele>
        <time>2017-09-24T12:59:53.000Z</time>
      </trkpt>
      <trkpt lat="43.35883" lon="2.44526">
        <ele>619</ele>
        <time>2017-09-24T12:59:54.000Z</time>
      </trkpt>
      <trkpt lat="43.35883" lon="2.44524">
        <ele>620</ele>
        <time>2017-09-24T12:59:55.000Z</time>
      </trkpt>
      <trkpt lat="43.35883" lon="2.44522">
        <ele>620</ele>
        <time>2017-09-24T12:59:56.000Z</time>
      </trkpt>
      <trkpt lat="43.35884" lon="2.44521">
        <ele>621</ele>
        <time>2017-09-24T12:59:57.000Z</time>
      </trkpt>
      <trkpt lat="43.35884" lon="2.4452">
        <ele>621</ele>
        <time>2017-09-24T12:59:58.000Z</time>
      </trkpt>
      <trkpt lat="43.35885" lon="2.44518">
        <ele>622</ele>
        <time>2017-09-24T12:59:59.000Z</time>
      </trkpt>
      <trkpt lat="43.35886" lon="2.44516">
        <ele>622</ele>
        <time>2017-09-24T13:00:00.000Z</time>
      </trkpt>
      <trkpt lat="43.35886" lon="2.44515">
        <ele>623</ele>
        <time>2017-09-24T13:00:01.000Z</time>
      </trkpt>
      <trkpt lat="43.35887" lon="2.44513">
        <ele>623</ele>
        <time>2017-09-24T13:00:02.000Z</time>
      </trkpt>
      <trkpt lat="43.35887" lon="2.44511">
        <ele>623</ele>
        <time>2017-09-24T13:00:03.000Z</time>
      </trkpt>
      <trkpt lat="43.35888" lon="2.4451">
        <ele>624</ele>
        <time>2017-09-24T13:00:04.000Z</time>
      </trkpt>
      <trkpt lat="43.35888" lon="2.44508">
        <ele>624</ele>
        <time>2017-09-24T13:00:05.000Z</time>
      </trkpt>
      <trkpt lat="43.35889" lon="2.44507">
        <ele>625</ele>
        <time>2017-09-24T13:00:06.000Z</time>
      </trkpt>
      <trkpt lat="43.35889" lon="2.44506">
        <ele>625</ele>
        <time>2017-09-24T13:00:07.000Z</time>
      </trkpt>
      <trkpt lat="43.3589" lon="2.44504">
        <ele>626</ele>
        <time>2017-09-24T13:00:08.000Z</time>
      </trkpt>
      <trkpt lat="43.35891" lon="2.44503">
        <ele>626</ele>
        <time>2017-09-24T13:00:09.000Z</time>
      </trkpt>
      <trkpt lat="43.35891" lon="2.44502">
        <ele>626</ele>
        <time>2017-09-24T13:00:10.000Z</time>
      </trkpt>
      <trkpt lat="43.35892" lon="2.445">
        <ele>627</ele>
        <time>2017-09-24T13:00:11.000Z</time>
      </trkpt>
      <trkpt lat="43.35892" lon="2.44499">
        <ele>627</ele>
        <time>2017-09-24T13:00:12.000Z</time>
      </trkpt>
      <trkpt lat="43.35893" lon="2.44498">
        <ele>627</ele>
        <time>2017-09-24T13:00:13.000Z</time>
      </trkpt>
      <trkpt lat="43.35893" lon="2.44496">
        <ele>627</ele>
        <time>2017-09-24T13:00:14.000Z</time>
      </trkpt>
      <trkpt lat="43.35893" lon="2.44495">
        <ele>627</ele>
        <time>2017-09-24T13:00:15.000Z</time>
      </trkpt>
      <trkpt lat="43.35894" lon="2.44494">
        <ele>627</ele>
        <time>2017-09-24T13:00:16.000Z</time>
      </trkpt>
      <trkpt lat="43.35894" lon="2.44493">
        <ele>627</ele>
        <time>2017-09-24T13:00:17.000Z</time>
      </trkpt>
      <trkpt lat="43.35895" lon="2.44492">
        <ele>627</ele>
        <time>2017-09-24T13:00:18.000Z</time>
      </trkpt>
      <trkpt lat="43.35895" lon="2.44491">
        <ele>627</ele>
        <time>2017-09-24T13:00:19.000Z</time>
      </trkpt>
      <trkpt lat="43.35896" lon="2.4449">
        <ele>627</ele>
        <time>2017-09-24T13:00:20.000Z</time>
      </trkpt>
      <trkpt lat="43.35896" lon="2.44488">
        <ele>627</ele>
        <time>2017-09-24T13:00:21.000Z</time>
      </trkpt>
      <trkpt lat="43.35897" lon="2.44487">
        <ele>627</ele>
        <time>2017-09-24T13:00:22.000Z</time>
      </trkpt>
      <trkpt lat="43.35898" lon="2.44486">
        <ele>628</ele>
        <time>2017-09-24T13:00:23.000Z</time>
      </trkpt>
      <trkpt lat="43.35898" lon="2.44484">
        <ele>628</ele>
        <time>2017-09-24T13:00:24.000Z</time>
      </trkpt>
      <trkpt lat="43.35898" lon="2.44483">
        <ele>628</ele>
        <time>2017-09-24T13:00:25.000Z</time>
      </trkpt>
      <trkpt lat="43.35898" lon="2.44481">
        <ele>627</ele>
        <time>2017-09-24T13:00:26.000Z</time>
      </trkpt>
      <trkpt lat="43.35899" lon="2.4448">
        <ele>628</ele>
        <time>2017-09-24T13:00:27.000Z</time>
      </trkpt>
      <trkpt lat="43.35899" lon="2.44478">
        <ele>628</ele>
        <time>2017-09-24T13:00:28.000Z</time>
      </trkpt>
      <trkpt lat="43.359" lon="2.44477">
        <ele>628</ele>
        <time>2017-09-24T13:00:29.000Z</time>
      </trkpt>
      <trkpt lat="43.359" lon="2.44476">
        <ele>628</ele>
        <time>2017-09-24T13:00:30.000Z</time>
      </trkpt>
      <trkpt lat="43.35901" lon="2.44475">
        <ele>628</ele>
        <time>2017-09-24T13:00:31.000Z</time>
      </trkpt>
      <trkpt lat="43.35901" lon="2.44473">
        <ele>628</ele>
        <time>2017-09-24T13:00:32.000Z</time>
      </trkpt>
      <trkpt lat="43.35902" lon="2.44472">
        <ele>628</ele>
        <time>2017-09-24T13:00:33.000Z</time>
      </trkpt>
      <trkpt lat="43.35902" lon="2.4447">
        <ele>628</ele>
        <time>2017-09-24T13:00:34.000Z</time>
      </trkpt>
      <trkpt lat="43.35903" lon="2.44469">
        <ele>628</ele>
        <time>2017-09-24T13:00:35.000Z</time>
      </trkpt>
      <trkpt lat="43.35903" lon="2.44468">
        <ele>628</ele>
        <time>2017-09-24T13:00:36.000Z</time>
      </trkpt>
      <trkpt lat="43.35903" lon="2.44466">
        <ele>628</ele>
        <time>2017-09-24T13:00:37.000Z</time>
      </trkpt>
      <trkpt lat="43.35904" lon="2.44465">
        <ele>628</ele>
        <time>2017-09-24T13:00:38.000Z</time>
      </trkpt>
      <trkpt lat="43.35904" lon="2.44464">
        <ele>628</ele>
        <time>2017-09-24T13:00:39.000Z</time>
      </trkpt>
      <trkpt lat="43.35904" lon="2.44463">
        <ele>628</ele>
        <time>2017-09-24T13:00:40.000Z</time>
      </trkpt>
      <trkpt lat="43.35904" lon="2.44462">
        <ele>628</ele>
        <time>2017-09-24T13:00:41.000Z</time>
      </trkpt>
      <trkpt lat="43.35905" lon="2.44461">
        <ele>628</ele>
        <time>2017-09-24T13:00:42.000Z</time>
      </trkpt>
      <trkpt lat="43.35905" lon="2.4446">
        <ele>628</ele>
        <time>2017-09-24T13:00:43.000Z</time>
      </trkpt>
      <trkpt lat="43.35905" lon="2.44459">
        <ele>628</ele>
        <time>2017-09-24T13:00:44.000Z</time>
      </trkpt>
      <trkpt lat="43.35906" lon="2.44459">
        <ele>628</ele>
        <time>2017-09-24T13:00:45.000Z</time>
      </trkpt>
      <trkpt lat="43.35906" lon="2.44459">
        <ele>628</ele>
        <time>2017-09-24T13:00:46.000Z</time>
      </trkpt>
      <trkpt lat="43.35902" lon="2.44471">
        <ele>628</ele>
        <time>2017-09-24T13:02:19.000Z</time>
      </trkpt>
      <trkpt lat="43.35902" lon="2.44472">
        <ele>628</ele>
        <time>2017-09-24T13:02:20.000Z</time>
      </trkpt>
      <trkpt lat="43.35902" lon="2.44473">
        <ele>628</ele>
        <time>2017-09-24T13:02:21.000Z</time>
      </trkpt>
      <trkpt lat="43.35901" lon="2.44474">
        <ele>628</ele>
        <time>2017-09-24T13:02:22.000Z</time>
      </trkpt>
      <trkpt lat="43.35901" lon="2.44475">
        <ele>628</ele>
        <time>2017-09-24T13:02:23.000Z</time>
      </trkpt>
      <trkpt lat="43.35901" lon="2.44476">
        <ele>628</ele>
        <time>2017-09-24T13:02:24.000Z</time>
      </trkpt>
      <trkpt lat="43.35901" lon="2.44478">
        <ele>628</ele>
        <time>2017-09-24T13:02:25.000Z</time>
      </trkpt>
      <trkpt lat="43.35901" lon="2.44479">
        <ele>628</ele>
        <time>2017-09-24T13:02:26.000Z</time>
      </trkpt>
      <trkpt lat="43.359" lon="2.4448">
        <ele>628</ele>
        <time>2017-09-24T13:02:27.000Z</time>
      </trkpt>
      <trkpt lat="43.359" lon="2.44481">
        <ele>628</ele>
        <time>2017-09-24T13:02:28.000Z</time>
      </trkpt>
      <trkpt lat="43.359" lon="2.44482">
        <ele>628</ele>
        <time>2017-09-24T13:02:29.000Z</time>
      </trkpt>
      <trkpt lat="43.35899" lon="2.44483">
        <ele>628</ele>
        <time>2017-09-24T13:02:30.000Z</time>
      </trkpt>
      <trkpt lat="43.35899" lon="2.44484">
        <ele>628</ele>
        <time>2017-09-24T13:02:31.000Z</time>
      </trkpt>
      <trkpt lat="43.35898" lon="2.44485">
        <ele>628</ele>
        <time>2017-09-24T13:02:32.000Z</time>
      </trkpt>
      <trkpt lat="43.35898" lon="2.44486">
        <ele>628</ele>
        <time>2017-09-24T13:02:33.000Z</time>
      </trkpt>
      <trkpt lat="43.35898" lon="2.44486">
        <ele>628</ele>
        <time>2017-09-24T13:02:34.000Z</time>
      </trkpt>
      <trkpt lat="43.35898" lon="2.44487">
        <ele>628</ele>
        <time>2017-09-24T13:02:35.000Z</time>
      </trkpt>
      <trkpt lat="43.35897" lon="2.44488">
        <ele>628</ele>
        <time>2017-09-24T13:02:36.000Z</time>
      </trkpt>
      <trkpt lat="43.35897" lon="2.44488">
        <ele>628</ele>
        <time>2017-09-24T13:02:37.000Z</time>
      </trkpt>
      <trkpt lat="43.35897" lon="2.44489">
        <ele>628</ele>
        <time>2017-09-24T13:02:38.000Z</time>
      </trkpt>
      <trkpt lat="43.35896" lon="2.44489">
        <ele>627</ele>
        <time>2017-09-24T13:02:39.000Z</time>
      </trkpt>
      <trkpt lat="43.35896" lon="2.4449">
        <ele>627</ele>
        <time>2017-09-24T13:02:40.000Z</time>
      </trkpt>
      <trkpt lat="43.35895" lon="2.44491">
        <ele>627</ele>
        <time>2017-09-24T13:02:41.000Z</time>
      </trkpt>
      <trkpt lat="43.35895" lon="2.44492">
        <ele>627</ele>
        <time>2017-09-24T13:02:42.000Z</time>
      </trkpt>
      <trkpt lat="43.35895" lon="2.44493">
        <ele>627</ele>
        <time>2017-09-24T13:02:43.000Z</time>
      </trkpt>
      <trkpt lat="43.35895" lon="2.44494">
        <ele>627</ele>
        <time>2017-09-24T13:02:44.000Z</time>
      </trkpt>
      <trkpt lat="43.35895" lon="2.44495">
        <ele>627</ele>
        <time>2017-09-24T13:02:45.000Z</time>
      </trkpt>
      <trkpt lat="43.35894" lon="2.44497">
        <ele>627</ele>
        <time>2017-09-24T13:02:46.000Z</time>
      </trkpt>
      <trkpt lat="43.35894" lon="2.44498">
        <ele>627</ele>
        <time>2017-09-24T13:02:47.000Z</time>
      </trkpt>
      <trkpt lat="43.35895" lon="2.44499">
        <ele>628</ele>
        <time>2017-09-24T13:02:48.000Z</time>
      </trkpt>
      <trkpt lat="43.35894" lon="2.445">
        <ele>627</ele>
        <time>2017-09-24T13:02:49.000Z</time>
      </trkpt>
      <trkpt lat="43.35893" lon="2.44501">
        <ele>627</ele>
        <time>2017-09-24T13:02:50.000Z</time>
      </trkpt>
      <trkpt lat="43.35893" lon="2.44503">
        <ele>626</ele>
        <time>2017-09-24T13:02:51.000Z</time>
      </trkpt>
      <trkpt lat="43.35892" lon="2.44503">
        <ele>626</ele>
        <time>2017-09-24T13:02:52.000Z</time>
      </trkpt>
      <trkpt lat="43.35891" lon="2.44504">
        <ele>626</ele>
        <time>2017-09-24T13:02:53.000Z</time>
      </trkpt>
      <trkpt lat="43.35891" lon="2.44505">
        <ele>626</ele>
        <time>2017-09-24T13:02:54.000Z</time>
      </trkpt>
      <trkpt lat="43.3589" lon="2.44506">
        <ele>625</ele>
        <time>2017-09-24T13:02:55.000Z</time>
      </trkpt>
      <trkpt lat="43.3589" lon="2.44507">
        <ele>625</ele>
        <time>2017-09-24T13:02:56.000Z</time>
      </trkpt>
      <trkpt lat="43.3589" lon="2.44508">
        <ele>625</ele>
        <time>2017-09-24T13:02:57.000Z</time>
      </trkpt>
      <trkpt lat="43.3589" lon="2.44509">
        <ele>624</ele>
        <time>2017-09-24T13:02:58.000Z</time>
      </trkpt>
      <trkpt lat="43.3589" lon="2.4451">
        <ele>624</ele>
        <time>2017-09-24T13:02:59.000Z</time>
      </trkpt>
      <trkpt lat="43.35889" lon="2.44512">
        <ele>624</ele>
        <time>2017-09-24T13:03:00.000Z</time>
      </trkpt>
      <trkpt lat="43.35889" lon="2.44513">
        <ele>623</ele>
        <time>2017-09-24T13:03:01.000Z</time>
      </trkpt>
      <trkpt lat="43.35888" lon="2.44514">
        <ele>623</ele>
        <time>2017-09-24T13:03:02.000Z</time>
      </trkpt>
      <trkpt lat="43.35888" lon="2.44515">
        <ele>623</ele>
        <time>2017-09-24T13:03:03.000Z</time>
      </trkpt>
      <trkpt lat="43.35887" lon="2.44517">
        <ele>622</ele>
        <time>2017-09-24T13:03:04.000Z</time>
      </trkpt>
      <trkpt lat="43.35887" lon="2.44518">
        <ele>622</ele>
        <time>2017-09-24T13:03:05.000Z</time>
      </trkpt>
      <trkpt lat="43.35887" lon="2.44519">
        <ele>622</ele>
        <time>2017-09-24T13:03:06.000Z</time>
      </trkpt>
      <trkpt lat="43.35886" lon="2.4452">
        <ele>621</ele>
        <time>2017-09-24T13:03:07.000Z</time>
      </trkpt>
      <trkpt lat="43.35886" lon="2.44521">
        <ele>621</ele>
        <time>2017-09-24T13:03:08.000Z</time>
      </trkpt>
      <trkpt lat="43.35885" lon="2.44523">
        <ele>621</ele>
        <time>2017-09-24T13:03:09.000Z</time>
      </trkpt>
      <trkpt lat="43.35885" lon="2.44524">
        <ele>620</ele>
        <time>2017-09-24T13:03:10.000Z</time>
      </trkpt>
      <trkpt lat="43.35885" lon="2.44525">
        <ele>620</ele>
        <time>2017-09-24T13:03:11.000Z</time>
      </trkpt>
      <trkpt lat="43.35884" lon="2.44526">
        <ele>620</ele>
        <time>2017-09-24T13:03:12.000Z</time>
      </trkpt>
      <trkpt lat="43.35884" lon="2.44527">
        <ele>619</ele>
        <time>2017-09-24T13:03:13.000Z</time>
      </trkpt>
      <trkpt lat="43.35883" lon="2.44528">
        <ele>619</ele>
        <time>2017-09-24T13:03:14.000Z</time>
      </trkpt>
      <trkpt lat="43.35883" lon="2.44529">
        <ele>619</ele>
        <time>2017-09-24T13:03:15.000Z</time>
      </trkpt>
      <trkpt lat="43.35883" lon="2.4453">
        <ele>618</ele>
        <time>2017-09-24T13:03:16.000Z</time>
      </trkpt>
      <trkpt lat="43.35882" lon="2.44532">
        <ele>618</ele>
        <time>2017-09-24T13:03:17.000Z</time>
      </trkpt>
      <trkpt lat="43.35882" lon="2.44533">
        <ele>618</ele>
        <time>2017-09-24T13:03:18.000Z</time>
      </trkpt>
      <trkpt lat="43.35881" lon="2.44534">
        <ele>617</ele>
        <time>2017-09-24T13:03:19.000Z</time>
      </trkpt>
      <trkpt lat="43.35881" lon="2.44535">
        <ele>617</ele>
        <time>2017-09-24T13:03:20.000Z</time>
      </trkpt>
      <trkpt lat="43.3588" lon="2.44536">
        <ele>616</ele>
        <time>2017-09-24T13:03:21.000Z</time>
      </trkpt>
      <trkpt lat="43.35879" lon="2.44537">
        <ele>616</ele>
        <time>2017-09-24T13:03:22.000Z</time>
      </trkpt>
      <trkpt lat="43.35878" lon="2.44537">
        <ele>616</ele>
        <time>2017-09-24T13:03:23.000Z</time>
      </trkpt>
      <trkpt lat="43.35878" lon="2.44537">
        <ele>616</ele>
        <time>2017-09-24T13:03:24.000Z</time>
      </trkpt>
      <trkpt lat="43.35877" lon="2.44537">
        <ele>615</ele>
        <time>2017-09-24T13:03:25.000Z</time>
      </trkpt>
      <trkpt lat="43.35876" lon="2.44537">
        <ele>615</ele>
        <time>2017-09-24T13:03:26.000Z</time>
      </trkpt>
      <trkpt lat="43.35875" lon="2.44537">
        <ele>615</ele>
        <time>2017-09-24T13:03:27.000Z</time>
      </trkpt>
      <trkpt lat="43.35875" lon="2.44536">
        <ele>615</ele>
        <time>2017-09-24T13:03:28.000Z</time>
      </trkpt>
      <trkpt lat="43.35874" lon="2.44536">
        <ele>615</ele>
        <time>2017-09-24T13:03:29.000Z</time>
      </trkpt>
      <trkpt lat="43.35874" lon="2.44537">
        <ele>615</ele>
        <time>2017-09-24T13:03:30.000Z</time>
      </trkpt>
      <trkpt lat="43.35873" lon="2.44537">
        <ele>614</ele>
        <time>2017-09-24T13:03:31.000Z</time>
      </trkpt>
      <trkpt lat="43.35873" lon="2.44537">
        <ele>614</ele>
        <time>2017-09-24T13:03:32.000Z</time>
      </trkpt>
      <trkpt lat="43.35872" lon="2.44537">
        <ele>614</ele>
        <time>2017-09-24T13:03:33.000Z</time>
      </trkpt>
      <trkpt lat="43.35872" lon="2.44537">
        <ele>614</ele>
        <time>2017-09-24T13:03:34.000Z</time>
      </trkpt>
      <trkpt lat="43.35872" lon="2.44536">
        <ele>614</ele>
        <time>2017-09-24T13:03:35.000Z</time>
      </trkpt>
      <trkpt lat="43.35871" lon="2.44536">
        <ele>614</ele>
        <time>2017-09-24T13:03:36.000Z</time>
      </trkpt>
      <trkpt lat="43.3587" lon="2.44536">
        <ele>614</ele>
        <time>2017-09-24T13:03:37.000Z</time>
      </trkpt>
      <trkpt lat="43.3587" lon="2.44536">
        <ele>614</ele>
        <time>2017-09-24T13:03:38.000Z</time>
      </trkpt>
      <trkpt lat="43.35869" lon="2.44535">
        <ele>614</ele>
        <time>2017-09-24T13:03:39.000Z</time>
      </trkpt>
      <trkpt lat="43.35869" lon="2.44535">
        <ele>614</ele>
        <time>2017-09-24T13:03:40.000Z</time>
      </trkpt>
      <trkpt lat="43.35868" lon="2.44535">
        <ele>614</ele>
        <time>2017-09-24T13:03:41.000Z</time>
      </trkpt>
      <trkpt lat="43.35868" lon="2.44535">
        <ele>614</ele>
        <time>2017-09-24T13:03:42.000Z</time>
      </trkpt>
      <trkpt lat="43.35868" lon="2.44535">
        <ele>613</ele>
        <time>2017-09-24T13:03:43.000Z</time>
      </trkpt>
      <trkpt lat="43.35867" lon="2.44535">
        <ele>613</ele>
        <time>2017-09-24T13:03:44.000Z</time>
      </trkpt>
      <trkpt lat="43.35866" lon="2.44534">
        <ele>613</ele>
        <time>2017-09-24T13:03:45.000Z</time>
      </trkpt>
      <trkpt lat="43.35866" lon="2.44534">
        <ele>613</ele>
        <time>2017-09-24T13:03:46.000Z</time>
      </trkpt>
      <trkpt lat="43.35866" lon="2.44534">
        <ele>614</ele>
        <time>2017-09-24T13:03:47.000Z</time>
      </trkpt>
      <trkpt lat="43.35866" lon="2.44533">
        <ele>614</ele>
        <time>2017-09-24T13:03:48.000Z</time>
      </trkpt>
      <trkpt lat="43.35862" lon="2.44536">
        <ele>612</ele>
        <time>2017-09-24T13:04:02.000Z</time>
      </trkpt>
      <trkpt lat="43.35861" lon="2.44536">
        <ele>612</ele>
        <time>2017-09-24T13:04:03.000Z</time>
      </trkpt>
      <trkpt lat="43.35861" lon="2.44536">
        <ele>612</ele>
        <time>2017-09-24T13:04:04.000Z</time>
      </trkpt>
      <trkpt lat="43.3586" lon="2.44536">
        <ele>611</ele>
        <time>2017-09-24T13:04:05.000Z</time>
      </trkpt>
      <trkpt lat="43.35859" lon="2.44536">
        <ele>611</ele>
        <time>2017-09-24T13:04:06.000Z</time>
      </trkpt>
      <trkpt lat="43.35858" lon="2.44537">
        <ele>611</ele>
        <time>2017-09-24T13:04:07.000Z</time>
      </trkpt>
      <trkpt lat="43.35857" lon="2.44537">
        <ele>610</ele>
        <time>2017-09-24T13:04:08.000Z</time>
      </trkpt>
      <trkpt lat="43.35857" lon="2.44537">
        <ele>610</ele>
        <time>2017-09-24T13:04:09.000Z</time>
      </trkpt>
      <trkpt lat="43.35857" lon="2.44537">
        <ele>610</ele>
        <time>2017-09-24T13:04:10.000Z</time>
      </trkpt>
      <trkpt lat="43.35837" lon="2.44542">
        <ele>602</ele>
        <time>2017-09-24T13:05:05.000Z</time>
      </trkpt>
      <trkpt lat="43.35837" lon="2.44542">
        <ele>602</ele>
        <time>2017-09-24T13:05:06.000Z</time>
      </trkpt>
      <trkpt lat="43.35836" lon="2.44542">
        <ele>601</ele>
        <time>2017-09-24T13:05:07.000Z</time>
      </trkpt>
      <trkpt lat="43.35835" lon="2.44541">
        <ele>601</ele>
        <time>2017-09-24T13:05:08.000Z</time>
      </trkpt>
      <trkpt lat="43.35834" lon="2.44541">
        <ele>601</ele>
        <time>2017-09-24T13:05:09.000Z</time>
      </trkpt>
      <trkpt lat="43.35834" lon="2.44541">
        <ele>600</ele>
        <time>2017-09-24T13:05:10.000Z</time>
      </trkpt>
      <trkpt lat="43.35833" lon="2.44541">
        <ele>600</ele>
        <time>2017-09-24T13:05:11.000Z</time>
      </trkpt>
      <trkpt lat="43.35833" lon="2.44541">
        <ele>600</ele>
        <time>2017-09-24T13:05:12.000Z</time>
      </trkpt>
      <trkpt lat="43.35832" lon="2.4454">
        <ele>600</ele>
        <time>2017-09-24T13:05:13.000Z</time>
      </trkpt>
      <trkpt lat="43.35832" lon="2.4454">
        <ele>600</ele>
        <time>2017-09-24T13:05:14.000Z</time>
      </trkpt>
      <trkpt lat="43.35831" lon="2.4454">
        <ele>600</ele>
        <time>2017-09-24T13:05:15.000Z</time>
      </trkpt>
      <trkpt lat="43.35831" lon="2.44539">
        <ele>599</ele>
        <time>2017-09-24T13:05:16.000Z</time>
      </trkpt>
      <trkpt lat="43.3583" lon="2.44539">
        <ele>599</ele>
        <time>2017-09-24T13:05:17.000Z</time>
      </trkpt>
      <trkpt lat="43.3583" lon="2.44539">
        <ele>599</ele>
        <time>2017-09-24T13:05:18.000Z</time>
      </trkpt>
      <trkpt lat="43.35829" lon="2.44538">
        <ele>599</ele>
        <time>2017-09-24T13:05:19.000Z</time>
      </trkpt>
      <trkpt lat="43.35829" lon="2.44538">
        <ele>599</ele>
        <time>2017-09-24T13:05:20.000Z</time>
      </trkpt>
      <trkpt lat="43.35829" lon="2.44538">
        <ele>599</ele>
        <time>2017-09-24T13:05:21.000Z</time>
      </trkpt>
      <trkpt lat="43.35828" lon="2.44538">
        <ele>599</ele>
        <time>2017-09-24T13:05:22.000Z</time>
      </trkpt>
      <trkpt lat="43.35828" lon="2.44538">
        <ele>598</ele>
        <time>2017-09-24T13:05:23.000Z</time>
      </trkpt>
      <trkpt lat="43.35827" lon="2.44537">
        <ele>598</ele>
        <time>2017-09-24T13:05:24.000Z</time>
      </trkpt>
      <trkpt lat="43.35827" lon="2.44537">
        <ele>598</ele>
        <time>2017-09-24T13:05:25.000Z</time>
      </trkpt>
      <trkpt lat="43.35827" lon="2.44536">
        <ele>598</ele>
        <time>2017-09-24T13:05:26.000Z</time>
      </trkpt>
      <trkpt lat="43.35826" lon="2.44536">
        <ele>598</ele>
        <time>2017-09-24T13:05:27.000Z</time>
      </trkpt>
      <trkpt lat="43.35826" lon="2.44536">
        <ele>598</ele>
        <time>2017-09-24T13:05:28.000Z</time>
      </trkpt>
      <trkpt lat="43.35825" lon="2.44536">
        <ele>598</ele>
        <time>2017-09-24T13:05:29.000Z</time>
      </trkpt>
      <trkpt lat="43.35825" lon="2.44535">
        <ele>598</ele>
        <time>2017-09-24T13:05:30.000Z</time>
      </trkpt>
      <trkpt lat="43.3577" lon="2.44537">
        <ele>576</ele>
        <time>2017-09-24T13:09:52.000Z</time>
      </trkpt>
      <trkpt lat="43.35769" lon="2.44538">
        <ele>576</ele>
        <time>2017-09-24T13:09:53.000Z</time>
      </trkpt>
      <trkpt lat="43.35768" lon="2.44537">
        <ele>576</ele>
        <time>2017-09-24T13:09:54.000Z</time>
      </trkpt>
      <trkpt lat="43.35768" lon="2.44535">
        <ele>576</ele>
        <time>2017-09-24T13:09:55.000Z</time>
      </trkpt>
      <trkpt lat="43.35768" lon="2.44534">
        <ele>576</ele>
        <time>2017-09-24T13:09:56.000Z</time>
      </trkpt>
      <trkpt lat="43.35768" lon="2.44533">
        <ele>576</ele>
        <time>2017-09-24T13:09:57.000Z</time>
      </trkpt>
      <trkpt lat="43.35768" lon="2.44532">
        <ele>576</ele>
        <time>2017-09-24T13:09:58.000Z</time>
      </trkpt>
      <trkpt lat="43.35768" lon="2.44531">
        <ele>576</ele>
        <time>2017-09-24T13:09:59.000Z</time>
      </trkpt>
      <trkpt lat="43.35768" lon="2.4453">
        <ele>576</ele>
        <time>2017-09-24T13:10:00.000Z</time>
      </trkpt>
      <trkpt lat="43.35767" lon="2.4453">
        <ele>576</ele>
        <time>2017-09-24T13:10:01.000Z</time>
      </trkpt>
      <trkpt lat="43.35767" lon="2.44529">
        <ele>576</ele>
        <time>2017-09-24T13:10:02.000Z</time>
      </trkpt>
      <trkpt lat="43.35768" lon="2.44529">
        <ele>577</ele>
        <time>2017-09-24T13:10:03.000Z</time>
      </trkpt>
      <trkpt lat="43.35769" lon="2.44529">
        <ele>577</ele>
        <time>2017-09-24T13:10:04.000Z</time>
      </trkpt>
      <trkpt lat="43.35769" lon="2.44529">
        <ele>577</ele>
        <time>2017-09-24T13:10:05.000Z</time>
      </trkpt>
      <trkpt lat="43.35764" lon="2.44528">
        <ele>575</ele>
        <time>2017-09-24T13:11:05.000Z</time>
      </trkpt>
      <trkpt lat="43.35763" lon="2.44529">
        <ele>575</ele>
        <time>2017-09-24T13:11:06.000Z</time>
      </trkpt>
      <trkpt lat="43.35762" lon="2.44529">
        <ele>574</ele>
        <time>2017-09-24T13:11:07.000Z</time>
      </trkpt>
      <trkpt lat="43.35761" lon="2.44529">
        <ele>574</ele>
        <time>2017-09-24T13:11:08.000Z</time>
      </trkpt>
      <trkpt lat="43.3576" lon="2.44529">
        <ele>574</ele>
        <time>2017-09-24T13:11:09.000Z</time>
      </trkpt>
      <trkpt lat="43.3576" lon="2.44529">
        <ele>573</ele>
        <time>2017-09-24T13:11:10.000Z</time>
      </trkpt>
      <trkpt lat="43.35759" lon="2.44529">
        <ele>573</ele>
        <time>2017-09-24T13:11:11.000Z</time>
      </trkpt>
      <trkpt lat="43.35758" lon="2.4453">
        <ele>572</ele>
        <time>2017-09-24T13:11:12.000Z</time>
      </trkpt>
      <trkpt lat="43.35757" lon="2.4453">
        <ele>572</ele>
        <time>2017-09-24T13:11:13.000Z</time>
      </trkpt>
      <trkpt lat="43.35756" lon="2.4453">
        <ele>571</ele>
        <time>2017-09-24T13:11:14.000Z</time>
      </trkpt>
      <trkpt lat="43.35755" lon="2.4453">
        <ele>571</ele>
        <time>2017-09-24T13:11:15.000Z</time>
      </trkpt>
      <trkpt lat="43.35754" lon="2.4453">
        <ele>570</ele>
        <time>2017-09-24T13:11:16.000Z</time>
      </trkpt>
      <trkpt lat="43.35753" lon="2.44531">
        <ele>570</ele>
        <time>2017-09-24T13:11:17.000Z</time>
      </trkpt>
      <trkpt lat="43.35752" lon="2.44531">
        <ele>569</ele>
        <time>2017-09-24T13:11:18.000Z</time>
      </trkpt>
      <trkpt lat="43.3575" lon="2.44531">
        <ele>569</ele>
        <time>2017-09-24T13:11:19.000Z</time>
      </trkpt>
      <trkpt lat="43.35749" lon="2.44532">
        <ele>568</ele>
        <time>2017-09-24T13:11:20.000Z</time>
      </trkpt>
      <trkpt lat="43.35749" lon="2.44532">
        <ele>568</ele>
        <time>2017-09-24T13:11:21.000Z</time>
      </trkpt>
      <trkpt lat="43.35748" lon="2.44532">
        <ele>567</ele>
        <time>2017-09-24T13:11:22.000Z</time>
      </trkpt>
      <trkpt lat="43.35747" lon="2.44533">
        <ele>567</ele>
        <time>2017-09-24T13:11:23.000Z</time>
      </trkpt>
      <trkpt lat="43.35746" lon="2.44533">
        <ele>566</ele>
        <time>2017-09-24T13:11:24.000Z</time>
      </trkpt>
      <trkpt lat="43.35745" lon="2.44534">
        <ele>566</ele>
        <time>2017-09-24T13:11:25.000Z</time>
      </trkpt>
      <trkpt lat="43.35744" lon="2.44534">
        <ele>565</ele>
        <time>2017-09-24T13:11:26.000Z</time>
      </trkpt>
      <trkpt lat="43.35744" lon="2.44535">
        <ele>565</ele>
        <time>2017-09-24T13:11:27.000Z</time>
      </trkpt>
      <trkpt lat="43.35743" lon="2.44536">
        <ele>565</ele>
        <time>2017-09-24T13:11:28.000Z</time>
      </trkpt>
      <trkpt lat="43.35742" lon="2.44536">
        <ele>564</ele>
        <time>2017-09-24T13:11:29.000Z</time>
      </trkpt>
      <trkpt lat="43.35742" lon="2.44537">
        <ele>564</ele>
        <time>2017-09-24T13:11:30.000Z</time>
      </trkpt>
      <trkpt lat="43.35741" lon="2.44537">
        <ele>564</ele>
        <time>2017-09-24T13:11:31.000Z</time>
      </trkpt>
      <trkpt lat="43.35741" lon="2.44538">
        <ele>563</ele>
        <time>2017-09-24T13:11:32.000Z</time>
      </trkpt>
      <trkpt lat="43.35741" lon="2.44539">
        <ele>563</ele>
        <time>2017-09-24T13:11:33.000Z</time>
      </trkpt>
      <trkpt lat="43.3574" lon="2.4454">
        <ele>563</ele>
        <time>2017-09-24T13:11:34.000Z</time>
      </trkpt>
      <trkpt lat="43.3574" lon="2.4454">
        <ele>563</ele>
        <time>2017-09-24T13:11:35.000Z</time>
      </trkpt>
      <trkpt lat="43.35736" lon="2.4454">
        <ele>561</ele>
        <time>2017-09-24T13:12:20.000Z</time>
      </trkpt>
      <trkpt lat="43.35735" lon="2.4454">
        <ele>560</ele>
        <time>2017-09-24T13:12:21.000Z</time>
      </trkpt>
      <trkpt lat="43.35734" lon="2.4454">
        <ele>560</ele>
        <time>2017-09-24T13:12:22.000Z</time>
      </trkpt>
      <trkpt lat="43.35733" lon="2.4454">
        <ele>560</ele>
        <time>2017-09-24T13:12:23.000Z</time>
      </trkpt>
      <trkpt lat="43.35733" lon="2.4454">
        <ele>559</ele>
        <time>2017-09-24T13:12:24.000Z</time>
      </trkpt>
      <trkpt lat="43.35732" lon="2.4454">
        <ele>559</ele>
        <time>2017-09-24T13:12:25.000Z</time>
      </trkpt>
      <trkpt lat="43.35732" lon="2.44541">
        <ele>559</ele>
        <time>2017-09-24T13:12:26.000Z</time>
      </trkpt>
      <trkpt lat="43.35732" lon="2.44541">
        <ele>559</ele>
        <time>2017-09-24T13:12:27.000Z</time>
      </trkpt>
      <trkpt lat="43.35731" lon="2.44541">
        <ele>559</ele>
        <time>2017-09-24T13:12:28.000Z</time>
      </trkpt>
      <trkpt lat="43.35731" lon="2.44542">
        <ele>558</ele>
        <time>2017-09-24T13:12:29.000Z</time>
      </trkpt>
      <trkpt lat="43.3573" lon="2.44542">
        <ele>558</ele>
        <time>2017-09-24T13:12:30.000Z</time>
      </trkpt>
      <trkpt lat="43.3573" lon="2.44543">
        <ele>558</ele>
        <time>2017-09-24T13:12:31.000Z</time>
      </trkpt>
      <trkpt lat="43.35729" lon="2.44543">
        <ele>557</ele>
        <time>2017-09-24T13:12:32.000Z</time>
      </trkpt>
      <trkpt lat="43.35729" lon="2.44543">
        <ele>557</ele>
        <time>2017-09-24T13:12:33.000Z</time>
      </trkpt>
      <trkpt lat="43.35728" lon="2.44544">
        <ele>557</ele>
        <time>2017-09-24T13:12:34.000Z</time>
      </trkpt>
      <trkpt lat="43.35728" lon="2.44544">
        <ele>557</ele>
        <time>2017-09-24T13:12:35.000Z</time>
      </trkpt>
      <trkpt lat="43.35727" lon="2.44544">
        <ele>556</ele>
        <time>2017-09-24T13:12:36.000Z</time>
      </trkpt>
      <trkpt lat="43.35727" lon="2.44545">
        <ele>556</ele>
        <time>2017-09-24T13:12:37.000Z</time>
      </trkpt>
      <trkpt lat="43.35726" lon="2.44545">
        <ele>556</ele>
        <time>2017-09-24T13:12:38.000Z</time>
      </trkpt>
      <trkpt lat="43.35726" lon="2.44546">
        <ele>556</ele>
        <time>2017-09-24T13:12:39.000Z</time>
      </trkpt>
      <trkpt lat="43.35725" lon="2.44546">
        <ele>556</ele>
        <time>2017-09-24T13:12:40.000Z</time>
      </trkpt>
      <trkpt lat="43.35725" lon="2.44547">
        <ele>556</ele>
        <time>2017-09-24T13:12:41.000Z</time>
      </trkpt>
      <trkpt lat="43.35724" lon="2.44547">
        <ele>556</ele>
        <time>2017-09-24T13:12:42.000Z</time>
      </trkpt>
      <trkpt lat="43.35724" lon="2.44548">
        <ele>556</ele>
        <time>2017-09-24T13:12:43.000Z</time>
      </trkpt>
      <trkpt lat="43.35724" lon="2.44548">
        <ele>555</ele>
        <time>2017-09-24T13:12:44.000Z</time>
      </trkpt>
      <trkpt lat="43.35723" lon="2.44549">
        <ele>556</ele>
        <time>2017-09-24T13:12:45.000Z</time>
      </trkpt>
      <trkpt lat="43.35723" lon="2.44549">
        <ele>556</ele>
        <time>2017-09-24T13:12:46.000Z</time>
      </trkpt>
      <trkpt lat="43.35723" lon="2.4455">
        <ele>556</ele>
        <time>2017-09-24T13:12:47.000Z</time>
      </trkpt>
      <trkpt lat="43.35723" lon="2.4455">
        <ele>555</ele>
        <time>2017-09-24T13:12:48.000Z</time>
      </trkpt>
      <trkpt lat="43.35722" lon="2.44551">
        <ele>555</ele>
        <time>2017-09-24T13:12:49.000Z</time>
      </trkpt>
      <trkpt lat="43.35722" lon="2.44551">
        <ele>555</ele>
        <time>2017-09-24T13:12:50.000Z</time>
      </trkpt>
      <trkpt lat="43.35721" lon="2.44551">
        <ele>555</ele>
        <time>2017-09-24T13:12:51.000Z</time>
      </trkpt>
      <trkpt lat="43.35721" lon="2.44552">
        <ele>555</ele>
        <time>2017-09-24T13:12:52.000Z</time>
      </trkpt>
      <trkpt lat="43.35721" lon="2.44552">
        <ele>555</ele>
        <time>2017-09-24T13:12:53.000Z</time>
      </trkpt>
      <trkpt lat="43.3572" lon="2.44552">
        <ele>555</ele>
        <time>2017-09-24T13:12:54.000Z</time>
      </trkpt>
      <trkpt lat="43.3572" lon="2.44553">
        <ele>555</ele>
        <time>2017-09-24T13:12:55.000Z</time>
      </trkpt>
      <trkpt lat="43.3572" lon="2.44554">
        <ele>555</ele>
        <time>2017-09-24T13:12:56.000Z</time>
      </trkpt>
      <trkpt lat="43.3572" lon="2.44554">
        <ele>555</ele>
        <time>2017-09-24T13:12:57.000Z</time>
      </trkpt>
      <trkpt lat="43.35719" lon="2.44555">
        <ele>555</ele>
        <time>2017-09-24T13:12:58.000Z</time>
      </trkpt>
      <trkpt lat="43.35719" lon="2.44556">
        <ele>555</ele>
        <time>2017-09-24T13:12:59.000Z</time>
      </trkpt>
      <trkpt lat="43.35719" lon="2.44556">
        <ele>555</ele>
        <time>2017-09-24T13:13:00.000Z</time>
      </trkpt>
      <trkpt lat="43.35719" lon="2.44557">
        <ele>555</ele>
        <time>2017-09-24T13:13:01.000Z</time>
      </trkpt>
      <trkpt lat="43.35718" lon="2.44558">
        <ele>555</ele>
        <time>2017-09-24T13:13:02.000Z</time>
      </trkpt>
      <trkpt lat="43.35718" lon="2.44559">
        <ele>555</ele>
        <time>2017-09-24T13:13:03.000Z</time>
      </trkpt>
      <trkpt lat="43.35718" lon="2.44559">
        <ele>555</ele>
        <time>2017-09-24T13:13:04.000Z</time>
      </trkpt>
      <trkpt lat="43.35717" lon="2.4456">
        <ele>555</ele>
        <time>2017-09-24T13:13:05.000Z</time>
      </trkpt>
      <trkpt lat="43.35717" lon="2.44561">
        <ele>555</ele>
        <time>2017-09-24T13:13:06.000Z</time>
      </trkpt>
      <trkpt lat="43.35716" lon="2.44561">
        <ele>555</ele>
        <time>2017-09-24T13:13:07.000Z</time>
      </trkpt>
      <trkpt lat="43.35715" lon="2.44562">
        <ele>555</ele>
        <time>2017-09-24T13:13:08.000Z</time>
      </trkpt>
      <trkpt lat="43.35715" lon="2.44562">
        <ele>555</ele>
        <time>2017-09-24T13:13:09.000Z</time>
      </trkpt>
      <trkpt lat="43.35714" lon="2.44562">
        <ele>555</ele>
        <time>2017-09-24T13:13:10.000Z</time>
      </trkpt>
      <trkpt lat="43.35713" lon="2.44563">
        <ele>555</ele>
        <time>2017-09-24T13:13:11.000Z</time>
      </trkpt>
      <trkpt lat="43.35713" lon="2.44564">
        <ele>555</ele>
        <time>2017-09-24T13:13:12.000Z</time>
      </trkpt>
      <trkpt lat="43.35712" lon="2.44565">
        <ele>554</ele>
        <time>2017-09-24T13:13:13.000Z</time>
      </trkpt>
      <trkpt lat="43.35711" lon="2.44565">
        <ele>554</ele>
        <time>2017-09-24T13:13:14.000Z</time>
      </trkpt>
      <trkpt lat="43.35711" lon="2.44566">
        <ele>554</ele>
        <time>2017-09-24T13:13:15.000Z</time>
      </trkpt>
      <trkpt lat="43.3571" lon="2.44566">
        <ele>554</ele>
        <time>2017-09-24T13:13:16.000Z</time>
      </trkpt>
      <trkpt lat="43.35709" lon="2.44567">
        <ele>554</ele>
        <time>2017-09-24T13:13:17.000Z</time>
      </trkpt>
      <trkpt lat="43.35708" lon="2.44568">
        <ele>554</ele>
        <time>2017-09-24T13:13:18.000Z</time>
      </trkpt>
      <trkpt lat="43.35707" lon="2.44569">
        <ele>554</ele>
        <time>2017-09-24T13:13:19.000Z</time>
      </trkpt>
      <trkpt lat="43.35706" lon="2.44569">
        <ele>554</ele>
        <time>2017-09-24T13:13:20.000Z</time>
      </trkpt>
      <trkpt lat="43.35705" lon="2.44569">
        <ele>553</ele>
        <time>2017-09-24T13:13:21.000Z</time>
      </trkpt>
      <trkpt lat="43.35704" lon="2.4457">
        <ele>553</ele>
        <time>2017-09-24T13:13:22.000Z</time>
      </trkpt>
      <trkpt lat="43.35702" lon="2.44569">
        <ele>553</ele>
        <time>2017-09-24T13:13:23.000Z</time>
      </trkpt>
      <trkpt lat="43.35701" lon="2.44569">
        <ele>552</ele>
        <time>2017-09-24T13:13:24.000Z</time>
      </trkpt>
      <trkpt lat="43.357" lon="2.44569">
        <ele>552</ele>
        <time>2017-09-24T13:13:25.000Z</time>
      </trkpt>
      <trkpt lat="43.35699" lon="2.44568">
        <ele>552</ele>
        <time>2017-09-24T13:13:26.000Z</time>
      </trkpt>
      <trkpt lat="43.35698" lon="2.44569">
        <ele>552</ele>
        <time>2017-09-24T13:13:27.000Z</time>
      </trkpt>
      <trkpt lat="43.35697" lon="2.44569">
        <ele>551</ele>
        <time>2017-09-24T13:13:28.000Z</time>
      </trkpt>
      <trkpt lat="43.35696" lon="2.44569">
        <ele>551</ele>
        <time>2017-09-24T13:13:29.000Z</time>
      </trkpt>
      <trkpt lat="43.35695" lon="2.44569">
        <ele>551</ele>
        <time>2017-09-24T13:13:30.000Z</time>
      </trkpt>
      <trkpt lat="43.35694" lon="2.44569">
        <ele>551</ele>
        <time>2017-09-24T13:13:31.000Z</time>
      </trkpt>
      <trkpt lat="43.35694" lon="2.44569">
        <ele>551</ele>
        <time>2017-09-24T13:13:32.000Z</time>
      </trkpt>
      <trkpt lat="43.35693" lon="2.44569">
        <ele>550</ele>
        <time>2017-09-24T13:13:33.000Z</time>
      </trkpt>
      <trkpt lat="43.35692" lon="2.44569">
        <ele>550</ele>
        <time>2017-09-24T13:13:34.000Z</time>
      </trkpt>
      <trkpt lat="43.35691" lon="2.44569">
        <ele>550</ele>
        <time>2017-09-24T13:13:35.000Z</time>
      </trkpt>
      <trkpt lat="43.35691" lon="2.44569">
        <ele>550</ele>
        <time>2017-09-24T13:13:36.000Z</time>
      </trkpt>
      <trkpt lat="43.3569" lon="2.44569">
        <ele>550</ele>
        <time>2017-09-24T13:13:37.000Z</time>
      </trkpt>
      <trkpt lat="43.35689" lon="2.44569">
        <ele>549</ele>
        <time>2017-09-24T13:13:38.000Z</time>
      </trkpt>
      <trkpt lat="43.35688" lon="2.44568">
        <ele>549</ele>
        <time>2017-09-24T13:13:39.000Z</time>
      </trkpt>
      <trkpt lat="43.35687" lon="2.44568">
        <ele>549</ele>
        <time>2017-09-24T13:13:40.000Z</time>
      </trkpt>
      <trkpt lat="43.35687" lon="2.44568">
        <ele>549</ele>
        <time>2017-09-24T13:13:41.000Z</time>
      </trkpt>
      <trkpt lat="43.35686" lon="2.44568">
        <ele>549</ele>
        <time>2017-09-24T13:13:42.000Z</time>
      </trkpt>
      <trkpt lat="43.35686" lon="2.44568">
        <ele>549</ele>
        <time>2017-09-24T13:13:43.000Z</time>
      </trkpt>
      <trkpt lat="43.35685" lon="2.44568">
        <ele>548</ele>
        <time>2017-09-24T13:13:44.000Z</time>
      </trkpt>
      <trkpt lat="43.35684" lon="2.44569">
        <ele>548</ele>
        <time>2017-09-24T13:13:45.000Z</time>
      </trkpt>
      <trkpt lat="43.35684" lon="2.44569">
        <ele>548</ele>
        <time>2017-09-24T13:13:46.000Z</time>
      </trkpt>
      <trkpt lat="43.35683" lon="2.44569">
        <ele>548</ele>
        <time>2017-09-24T13:13:47.000Z</time>
      </trkpt>
      <trkpt lat="43.35683" lon="2.44569">
        <ele>548</ele>
        <time>2017-09-24T13:13:48.000Z</time>
      </trkpt>
      <trkpt lat="43.35683" lon="2.4457">
        <ele>548</ele>
        <time>2017-09-24T13:13:49.000Z</time>
      </trkpt>
      <trkpt lat="43.35682" lon="2.4457">
        <ele>548</ele>
        <time>2017-09-24T13:13:50.000Z</time>
      </trkpt>
      <trkpt lat="43.35676" lon="2.44573">
        <ele>546</ele>
        <time>2017-09-24T13:14:06.000Z</time>
      </trkpt>
      <trkpt lat="43.35675" lon="2.44573">
        <ele>546</ele>
        <time>2017-09-24T13:14:07.000Z</time>
      </trkpt>
      <trkpt lat="43.35674" lon="2.44574">
        <ele>546</ele>
        <time>2017-09-24T13:14:08.000Z</time>
      </trkpt>
      <trkpt lat="43.35674" lon="2.44574">
        <ele>546</ele>
        <time>2017-09-24T13:14:09.000Z</time>
      </trkpt>
      <trkpt lat="43.35674" lon="2.44574">
        <ele>546</ele>
        <time>2017-09-24T13:14:10.000Z</time>
      </trkpt>
      <trkpt lat="43.35674" lon="2.44575">
        <ele>546</ele>
        <time>2017-09-24T13:14:11.000Z</time>
      </trkpt>
      <trkpt lat="43.35673" lon="2.44577">
        <ele>546</ele>
        <time>2017-09-24T13:14:12.000Z</time>
      </trkpt>
      <trkpt lat="43.35672" lon="2.44578">
        <ele>546</ele>
        <time>2017-09-24T13:14:13.000Z</time>
      </trkpt>
      <trkpt lat="43.35671" lon="2.44579">
        <ele>546</ele>
        <time>2017-09-24T13:14:14.000Z</time>
      </trkpt>
      <trkpt lat="43.3567" lon="2.4458">
        <ele>546</ele>
        <time>2017-09-24T13:14:15.000Z</time>
      </trkpt>
      <trkpt lat="43.35669" lon="2.4458">
        <ele>546</ele>
        <time>2017-09-24T13:14:16.000Z</time>
      </trkpt>
      <trkpt lat="43.35668" lon="2.44581">
        <ele>546</ele>
        <time>2017-09-24T13:14:17.000Z</time>
      </trkpt>
      <trkpt lat="43.35667" lon="2.44581">
        <ele>545</ele>
        <time>2017-09-24T13:14:18.000Z</time>
      </trkpt>
      <trkpt lat="43.35666" lon="2.44581">
        <ele>545</ele>
        <time>2017-09-24T13:14:19.000Z</time>
      </trkpt>
      <trkpt lat="43.35665" lon="2.44581">
        <ele>545</ele>
        <time>2017-09-24T13:14:20.000Z</time>
      </trkpt>
      <trkpt lat="43.35664" lon="2.44582">
        <ele>545</ele>
        <time>2017-09-24T13:14:21.000Z</time>
      </trkpt>
      <trkpt lat="43.35664" lon="2.44583">
        <ele>544</ele>
        <time>2017-09-24T13:14:22.000Z</time>
      </trkpt>
      <trkpt lat="43.35663" lon="2.44584">
        <ele>544</ele>
        <time>2017-09-24T13:14:23.000Z</time>
      </trkpt>
      <trkpt lat="43.35663" lon="2.44585">
        <ele>544</ele>
        <time>2017-09-24T13:14:24.000Z</time>
      </trkpt>
      <trkpt lat="43.35662" lon="2.44586">
        <ele>544</ele>
        <time>2017-09-24T13:14:25.000Z</time>
      </trkpt>
      <trkpt lat="43.35662" lon="2.44587">
        <ele>543</ele>
        <time>2017-09-24T13:14:26.000Z</time>
      </trkpt>
      <trkpt lat="43.35661" lon="2.44588">
        <ele>543</ele>
        <time>2017-09-24T13:14:27.000Z</time>
      </trkpt>
      <trkpt lat="43.35661" lon="2.44589">
        <ele>543</ele>
        <time>2017-09-24T13:14:28.000Z</time>
      </trkpt>
      <trkpt lat="43.3566" lon="2.4459">
        <ele>542</ele>
        <time>2017-09-24T13:14:29.000Z</time>
      </trkpt>
      <trkpt lat="43.35659" lon="2.44591">
        <ele>542</ele>
        <time>2017-09-24T13:14:30.000Z</time>
      </trkpt>
      <trkpt lat="43.35658" lon="2.44591">
        <ele>542</ele>
        <time>2017-09-24T13:14:31.000Z</time>
      </trkpt>
      <trkpt lat="43.35658" lon="2.44592">
        <ele>541</ele>
        <time>2017-09-24T13:14:32.000Z</time>
      </trkpt>
      <trkpt lat="43.35657" lon="2.44593">
        <ele>541</ele>
        <time>2017-09-24T13:14:33.000Z</time>
      </trkpt>
      <trkpt lat="43.35656" lon="2.44594">
        <ele>541</ele>
        <time>2017-09-24T13:14:34.000Z</time>
      </trkpt>
      <trkpt lat="43.35655" lon="2.44594">
        <ele>540</ele>
        <time>2017-09-24T13:14:35.000Z</time>
      </trkpt>
      <trkpt lat="43.35654" lon="2.44595">
        <ele>540</ele>
        <time>2017-09-24T13:14:36.000Z</time>
      </trkpt>
      <trkpt lat="43.35654" lon="2.44596">
        <ele>540</ele>
        <time>2017-09-24T13:14:37.000Z</time>
      </trkpt>
      <trkpt lat="43.35653" lon="2.44596">
        <ele>539</ele>
        <time>2017-09-24T13:14:38.000Z</time>
      </trkpt>
      <trkpt lat="43.35652" lon="2.44597">
        <ele>539</ele>
        <time>2017-09-24T13:14:39.000Z</time>
      </trkpt>
      <trkpt lat="43.35652" lon="2.44598">
        <ele>539</ele>
        <time>2017-09-24T13:14:40.000Z</time>
      </trkpt>
      <trkpt lat="43.35651" lon="2.44599">
        <ele>538</ele>
        <time>2017-09-24T13:14:41.000Z</time>
      </trkpt>
      <trkpt lat="43.35651" lon="2.44601">
        <ele>538</ele>
        <time>2017-09-24T13:14:42.000Z</time>
      </trkpt>
      <trkpt lat="43.3565" lon="2.44602">
        <ele>538</ele>
        <time>2017-09-24T13:14:43.000Z</time>
      </trkpt>
      <trkpt lat="43.3565" lon="2.44603">
        <ele>537</ele>
        <time>2017-09-24T13:14:44.000Z</time>
      </trkpt>
      <trkpt lat="43.3565" lon="2.44605">
        <ele>537</ele>
        <time>2017-09-24T13:14:45.000Z</time>
      </trkpt>
      <trkpt lat="43.35649" lon="2.44606">
        <ele>536</ele>
        <time>2017-09-24T13:14:46.000Z</time>
      </trkpt>
      <trkpt lat="43.35648" lon="2.44607">
        <ele>536</ele>
        <time>2017-09-24T13:14:47.000Z</time>
      </trkpt>
      <trkpt lat="43.35647" lon="2.44609">
        <ele>536</ele>
        <time>2017-09-24T13:14:48.000Z</time>
      </trkpt>
      <trkpt lat="43.35647" lon="2.44609">
        <ele>535</ele>
        <time>2017-09-24T13:14:49.000Z</time>
      </trkpt>
      <trkpt lat="43.35646" lon="2.4461">
        <ele>535</ele>
        <time>2017-09-24T13:14:50.000Z</time>
      </trkpt>
      <trkpt lat="43.35644" lon="2.4461">
        <ele>534</ele>
        <time>2017-09-24T13:14:51.000Z</time>
      </trkpt>
      <trkpt lat="43.35644" lon="2.44611">
        <ele>534</ele>
        <time>2017-09-24T13:14:52.000Z</time>
      </trkpt>
      <trkpt lat="43.35643" lon="2.44611">
        <ele>534</ele>
        <time>2017-09-24T13:14:53.000Z</time>
      </trkpt>
      <trkpt lat="43.35642" lon="2.4461">
        <ele>534</ele>
        <time>2017-09-24T13:14:54.000Z</time>
      </trkpt>
      <trkpt lat="43.35641" lon="2.4461">
        <ele>534</ele>
        <time>2017-09-24T13:14:55.000Z</time>
      </trkpt>
      <trkpt lat="43.3564" lon="2.44609">
        <ele>534</ele>
        <time>2017-09-24T13:14:56.000Z</time>
      </trkpt>
      <trkpt lat="43.35639" lon="2.44609">
        <ele>533</ele>
        <time>2017-09-24T13:14:57.000Z</time>
      </trkpt>
      <trkpt lat="43.35639" lon="2.44609">
        <ele>533</ele>
        <time>2017-09-24T13:14:58.000Z</time>
      </trkpt>
      <trkpt lat="43.35638" lon="2.44608">
        <ele>533</ele>
        <time>2017-09-24T13:14:59.000Z</time>
      </trkpt>
      <trkpt lat="43.35637" lon="2.44608">
        <ele>533</ele>
        <time>2017-09-24T13:15:00.000Z</time>
      </trkpt>
      <trkpt lat="43.35637" lon="2.44609">
        <ele>533</ele>
        <time>2017-09-24T13:15:01.000Z</time>
      </trkpt>
      <trkpt lat="43.35636" lon="2.44609">
        <ele>532</ele>
        <time>2017-09-24T13:15:02.000Z</time>
      </trkpt>
      <trkpt lat="43.35634" lon="2.44609">
        <ele>532</ele>
        <time>2017-09-24T13:15:03.000Z</time>
      </trkpt>
      <trkpt lat="43.35633" lon="2.44608">
        <ele>532</ele>
        <time>2017-09-24T13:15:04.000Z</time>
      </trkpt>
      <trkpt lat="43.35632" lon="2.44608">
        <ele>532</ele>
        <time>2017-09-24T13:15:05.000Z</time>
      </trkpt>
      <trkpt lat="43.35632" lon="2.44608">
        <ele>532</ele>
        <time>2017-09-24T13:15:06.000Z</time>
      </trkpt>
      <trkpt lat="43.35631" lon="2.44609">
        <ele>531</ele>
        <time>2017-09-24T13:15:07.000Z</time>
      </trkpt>
      <trkpt lat="43.35629" lon="2.44609">
        <ele>531</ele>
        <time>2017-09-24T13:15:08.000Z</time>
      </trkpt>
      <trkpt lat="43.35628" lon="2.44609">
        <ele>531</ele>
        <time>2017-09-24T13:15:09.000Z</time>
      </trkpt>
      <trkpt lat="43.35627" lon="2.44609">
        <ele>530</ele>
        <time>2017-09-24T13:15:10.000Z</time>
      </trkpt>
      <trkpt lat="43.35626" lon="2.44609">
        <ele>530</ele>
        <time>2017-09-24T13:15:11.000Z</time>
      </trkpt>
      <trkpt lat="43.35625" lon="2.4461">
        <ele>530</ele>
        <time>2017-09-24T13:15:12.000Z</time>
      </trkpt>
      <trkpt lat="43.35624" lon="2.4461">
        <ele>529</ele>
        <time>2017-09-24T13:15:13.000Z</time>
      </trkpt>
      <trkpt lat="43.35623" lon="2.4461">
        <ele>529</ele>
        <time>2017-09-24T13:15:14.000Z</time>
      </trkpt>
      <trkpt lat="43.35622" lon="2.44611">
        <ele>529</ele>
        <time>2017-09-24T13:15:15.000Z</time>
      </trkpt>
      <trkpt lat="43.35622" lon="2.44611">
        <ele>529</ele>
        <time>2017-09-24T13:15:16.000Z</time>
      </trkpt>
      <trkpt lat="43.35621" lon="2.44612">
        <ele>529</ele>
        <time>2017-09-24T13:15:17.000Z</time>
      </trkpt>
      <trkpt lat="43.3562" lon="2.44612">
        <ele>529</ele>
        <time>2017-09-24T13:15:18.000Z</time>
      </trkpt>
      <trkpt lat="43.3562" lon="2.44613">
        <ele>529</ele>
        <time>2017-09-24T13:15:19.000Z</time>
      </trkpt>
      <trkpt lat="43.35619" lon="2.44613">
        <ele>529</ele>
        <time>2017-09-24T13:15:20.000Z</time>
      </trkpt>
      <trkpt lat="43.35618" lon="2.44614">
        <ele>529</ele>
        <time>2017-09-24T13:15:21.000Z</time>
      </trkpt>
      <trkpt lat="43.35617" lon="2.44614">
        <ele>529</ele>
        <time>2017-09-24T13:15:22.000Z</time>
      </trkpt>
      <trkpt lat="43.35617" lon="2.44614">
        <ele>529</ele>
        <time>2017-09-24T13:15:23.000Z</time>
      </trkpt>
      <trkpt lat="43.35616" lon="2.44615">
        <ele>528</ele>
        <time>2017-09-24T13:15:24.000Z</time>
      </trkpt>
      <trkpt lat="43.35615" lon="2.44615">
        <ele>528</ele>
        <time>2017-09-24T13:15:25.000Z</time>
      </trkpt>
      <trkpt lat="43.35615" lon="2.44616">
        <ele>528</ele>
        <time>2017-09-24T13:15:26.000Z</time>
      </trkpt>
      <trkpt lat="43.35615" lon="2.44616">
        <ele>528</ele>
        <time>2017-09-24T13:15:27.000Z</time>
      </trkpt>
      <trkpt lat="43.35614" lon="2.44617">
        <ele>528</ele>
        <time>2017-09-24T13:15:28.000Z</time>
      </trkpt>
      <trkpt lat="43.35613" lon="2.44617">
        <ele>528</ele>
        <time>2017-09-24T13:15:29.000Z</time>
      </trkpt>
      <trkpt lat="43.35613" lon="2.44617">
        <ele>528</ele>
        <time>2017-09-24T13:15:30.000Z</time>
      </trkpt>
      <trkpt lat="43.35612" lon="2.44618">
        <ele>528</ele>
        <time>2017-09-24T13:15:31.000Z</time>
      </trkpt>
      <trkpt lat="43.35612" lon="2.44618">
        <ele>528</ele>
        <time>2017-09-24T13:15:32.000Z</time>
      </trkpt>
      <trkpt lat="43.35612" lon="2.44618">
        <ele>528</ele>
        <time>2017-09-24T13:15:33.000Z</time>
      </trkpt>
      <trkpt lat="43.35595" lon="2.44611">
        <ele>526</ele>
        <time>2017-09-24T13:16:14.000Z</time>
      </trkpt>
      <trkpt lat="43.35594" lon="2.44611">
        <ele>526</ele>
        <time>2017-09-24T13:16:15.000Z</time>
      </trkpt>
      <trkpt lat="43.35594" lon="2.4461">
        <ele>526</ele>
        <time>2017-09-24T13:16:16.000Z</time>
      </trkpt>
      <trkpt lat="43.35593" lon="2.44609">
        <ele>526</ele>
        <time>2017-09-24T13:16:17.000Z</time>
      </trkpt>
      <trkpt lat="43.35593" lon="2.44609">
        <ele>526</ele>
        <time>2017-09-24T13:16:18.000Z</time>
      </trkpt>
      <trkpt lat="43.35592" lon="2.4461">
        <ele>526</ele>
        <time>2017-09-24T13:16:19.000Z</time>
      </trkpt>
      <trkpt lat="43.35592" lon="2.4461">
        <ele>525</ele>
        <time>2017-09-24T13:16:20.000Z</time>
      </trkpt>
      <trkpt lat="43.35591" lon="2.4461">
        <ele>525</ele>
        <time>2017-09-24T13:16:21.000Z</time>
      </trkpt>
      <trkpt lat="43.35591" lon="2.4461">
        <ele>525</ele>
        <time>2017-09-24T13:16:22.000Z</time>
      </trkpt>
      <trkpt lat="43.3559" lon="2.44611">
        <ele>525</ele>
        <time>2017-09-24T13:16:23.000Z</time>
      </trkpt>
      <trkpt lat="43.35589" lon="2.44611">
        <ele>525</ele>
        <time>2017-09-24T13:16:24.000Z</time>
      </trkpt>
      <trkpt lat="43.35588" lon="2.44611">
        <ele>525</ele>
        <time>2017-09-24T13:16:25.000Z</time>
      </trkpt>
      <trkpt lat="43.35588" lon="2.44611">
        <ele>525</ele>
        <time>2017-09-24T13:16:26.000Z</time>
      </trkpt>
      <trkpt lat="43.35587" lon="2.44611">
        <ele>524</ele>
        <time>2017-09-24T13:16:27.000Z</time>
      </trkpt>
      <trkpt lat="43.35586" lon="2.4461">
        <ele>524</ele>
        <time>2017-09-24T13:16:28.000Z</time>
      </trkpt>
      <trkpt lat="43.35585" lon="2.4461">
        <ele>524</ele>
        <time>2017-09-24T13:16:29.000Z</time>
      </trkpt>
      <trkpt lat="43.35584" lon="2.44609">
        <ele>524</ele>
        <time>2017-09-24T13:16:30.000Z</time>
      </trkpt>
      <trkpt lat="43.35584" lon="2.44609">
        <ele>524</ele>
        <time>2017-09-24T13:16:31.000Z</time>
      </trkpt>
      <trkpt lat="43.35583" lon="2.44608">
        <ele>524</ele>
        <time>2017-09-24T13:16:32.000Z</time>
      </trkpt>
      <trkpt lat="43.35582" lon="2.44608">
        <ele>524</ele>
        <time>2017-09-24T13:16:33.000Z</time>
      </trkpt>
      <trkpt lat="43.35581" lon="2.44609">
        <ele>523</ele>
        <time>2017-09-24T13:16:34.000Z</time>
      </trkpt>
      <trkpt lat="43.3558" lon="2.44609">
        <ele>523</ele>
        <time>2017-09-24T13:16:35.000Z</time>
      </trkpt>
      <trkpt lat="43.35579" lon="2.44609">
        <ele>523</ele>
        <time>2017-09-24T13:16:36.000Z</time>
      </trkpt>
      <trkpt lat="43.35578" lon="2.44609">
        <ele>523</ele>
        <time>2017-09-24T13:16:37.000Z</time>
      </trkpt>
      <trkpt lat="43.35577" lon="2.44609">
        <ele>522</ele>
        <time>2017-09-24T13:16:38.000Z</time>
      </trkpt>
      <trkpt lat="43.35576" lon="2.44609">
        <ele>522</ele>
        <time>2017-09-24T13:16:39.000Z</time>
      </trkpt>
      <trkpt lat="43.35574" lon="2.44609">
        <ele>522</ele>
        <time>2017-09-24T13:16:40.000Z</time>
      </trkpt>
      <trkpt lat="43.35573" lon="2.44609">
        <ele>522</ele>
        <time>2017-09-24T13:16:41.000Z</time>
      </trkpt>
      <trkpt lat="43.35572" lon="2.4461">
        <ele>521</ele>
        <time>2017-09-24T13:16:42.000Z</time>
      </trkpt>
      <trkpt lat="43.35571" lon="2.4461">
        <ele>521</ele>
        <time>2017-09-24T13:16:43.000Z</time>
      </trkpt>
      <trkpt lat="43.3557" lon="2.4461">
        <ele>521</ele>
        <time>2017-09-24T13:16:44.000Z</time>
      </trkpt>
      <trkpt lat="43.35569" lon="2.44609">
        <ele>521</ele>
        <time>2017-09-24T13:16:45.000Z</time>
      </trkpt>
      <trkpt lat="43.35568" lon="2.44609">
        <ele>521</ele>
        <time>2017-09-24T13:16:46.000Z</time>
      </trkpt>
      <trkpt lat="43.35567" lon="2.44609">
        <ele>520</ele>
        <time>2017-09-24T13:16:47.000Z</time>
      </trkpt>
      <trkpt lat="43.35566" lon="2.44609">
        <ele>520</ele>
        <time>2017-09-24T13:16:48.000Z</time>
      </trkpt>
      <trkpt lat="43.35565" lon="2.4461">
        <ele>520</ele>
        <time>2017-09-24T13:16:49.000Z</time>
      </trkpt>
      <trkpt lat="43.35564" lon="2.44609">
        <ele>520</ele>
        <time>2017-09-24T13:16:50.000Z</time>
      </trkpt>
      <trkpt lat="43.35564" lon="2.44608">
        <ele>520</ele>
        <time>2017-09-24T13:16:51.000Z</time>
      </trkpt>
      <trkpt lat="43.35564" lon="2.44608">
        <ele>520</ele>
        <time>2017-09-24T13:16:52.000Z</time>
      </trkpt>
      <trkpt lat="43.35564" lon="2.44607">
        <ele>520</ele>
        <time>2017-09-24T13:16:53.000Z</time>
      </trkpt>
      <trkpt lat="43.35564" lon="2.44607">
        <ele>520</ele>
        <time>2017-09-24T13:29:17.000Z</time>
      </trkpt>
      <trkpt lat="43.35563" lon="2.44607">
        <ele>520</ele>
        <time>2017-09-24T13:29:18.000Z</time>
      </trkpt>
      <trkpt lat="43.35562" lon="2.44607">
        <ele>520</ele>
        <time>2017-09-24T13:29:19.000Z</time>
      </trkpt>
      <trkpt lat="43.35562" lon="2.44607">
        <ele>519</ele>
        <time>2017-09-24T13:29:20.000Z</time>
      </trkpt>
      <trkpt lat="43.35561" lon="2.44606">
        <ele>519</ele>
        <time>2017-09-24T13:29:21.000Z</time>
      </trkpt>
      <trkpt lat="43.3556" lon="2.44606">
        <ele>519</ele>
        <time>2017-09-24T13:29:22.000Z</time>
      </trkpt>
      <trkpt lat="43.3556" lon="2.44606">
        <ele>519</ele>
        <time>2017-09-24T13:29:23.000Z</time>
      </trkpt>
      <trkpt lat="43.35559" lon="2.44605">
        <ele>519</ele>
        <time>2017-09-24T13:29:24.000Z</time>
      </trkpt>
      <trkpt lat="43.35559" lon="2.44605">
        <ele>519</ele>
        <time>2017-09-24T13:29:25.000Z</time>
      </trkpt>
      <trkpt lat="43.3553" lon="2.44611">
        <ele>514</ele>
        <time>2017-09-24T13:31:08.000Z</time>
      </trkpt>
      <trkpt lat="43.35529" lon="2.44612">
        <ele>514</ele>
        <time>2017-09-24T13:31:09.000Z</time>
      </trkpt>
      <trkpt lat="43.35528" lon="2.44613">
        <ele>514</ele>
        <time>2017-09-24T13:31:10.000Z</time>
      </trkpt>
      <trkpt lat="43.35527" lon="2.44614">
        <ele>514</ele>
        <time>2017-09-24T13:31:11.000Z</time>
      </trkpt>
      <trkpt lat="43.35526" lon="2.44616">
        <ele>514</ele>
        <time>2017-09-24T13:31:12.000Z</time>
      </trkpt>
      <trkpt lat="43.35525" lon="2.44617">
        <ele>514</ele>
        <time>2017-09-24T13:31:13.000Z</time>
      </trkpt>
      <trkpt lat="43.35524" lon="2.44618">
        <ele>514</ele>
        <time>2017-09-24T13:31:14.000Z</time>
      </trkpt>
      <trkpt lat="43.35523" lon="2.44619">
        <ele>514</ele>
        <time>2017-09-24T13:31:15.000Z</time>
      </trkpt>
      <trkpt lat="43.35522" lon="2.44621">
        <ele>514</ele>
        <time>2017-09-24T13:31:16.000Z</time>
      </trkpt>
      <trkpt lat="43.35521" lon="2.44622">
        <ele>514</ele>
        <time>2017-09-24T13:31:17.000Z</time>
      </trkpt>
      <trkpt lat="43.3552" lon="2.44623">
        <ele>514</ele>
        <time>2017-09-24T13:31:18.000Z</time>
      </trkpt>
      <trkpt lat="43.35519" lon="2.44624">
        <ele>514</ele>
        <time>2017-09-24T13:31:19.000Z</time>
      </trkpt>
      <trkpt lat="43.35518" lon="2.44626">
        <ele>514</ele>
        <time>2017-09-24T13:31:20.000Z</time>
      </trkpt>
      <trkpt lat="43.35517" lon="2.44627">
        <ele>514</ele>
        <time>2017-09-24T13:31:21.000Z</time>
      </trkpt>
      <trkpt lat="43.35516" lon="2.44628">
        <ele>514</ele>
        <time>2017-09-24T13:31:22.000Z</time>
      </trkpt>
      <trkpt lat="43.35515" lon="2.44629">
        <ele>514</ele>
        <time>2017-09-24T13:31:23.000Z</time>
      </trkpt>
      <trkpt lat="43.35514" lon="2.4463">
        <ele>514</ele>
        <time>2017-09-24T13:31:24.000Z</time>
      </trkpt>
      <trkpt lat="43.35513" lon="2.44631">
        <ele>515</ele>
        <time>2017-09-24T13:31:25.000Z</time>
      </trkpt>
      <trkpt lat="43.35512" lon="2.44632">
        <ele>515</ele>
        <time>2017-09-24T13:31:26.000Z</time>
      </trkpt>
      <trkpt lat="43.35511" lon="2.44633">
        <ele>515</ele>
        <time>2017-09-24T13:31:27.000Z</time>
      </trkpt>
      <trkpt lat="43.3551" lon="2.44634">
        <ele>515</ele>
        <time>2017-09-24T13:31:28.000Z</time>
      </trkpt>
      <trkpt lat="43.35508" lon="2.44635">
        <ele>515</ele>
        <time>2017-09-24T13:31:29.000Z</time>
      </trkpt>
      <trkpt lat="43.35507" lon="2.44635">
        <ele>515</ele>
        <time>2017-09-24T13:31:30.000Z</time>
      </trkpt>
      <trkpt lat="43.35507" lon="2.44636">
        <ele>515</ele>
        <time>2017-09-24T13:31:31.000Z</time>
      </trkpt>
      <trkpt lat="43.35506" lon="2.44636">
        <ele>515</ele>
        <time>2017-09-24T13:31:32.000Z</time>
      </trkpt>
      <trkpt lat="43.35505" lon="2.44637">
        <ele>516</ele>
        <time>2017-09-24T13:31:33.000Z</time>
      </trkpt>
      <trkpt lat="43.35503" lon="2.44638">
        <ele>516</ele>
        <time>2017-09-24T13:31:34.000Z</time>
      </trkpt>
      <trkpt lat="43.35502" lon="2.44638">
        <ele>516</ele>
        <time>2017-09-24T13:31:35.000Z</time>
      </trkpt>
      <trkpt lat="43.355" lon="2.44639">
        <ele>516</ele>
        <time>2017-09-24T13:31:36.000Z</time>
      </trkpt>
      <trkpt lat="43.35499" lon="2.44639">
        <ele>516</ele>
        <time>2017-09-24T13:31:37.000Z</time>
      </trkpt>
      <trkpt lat="43.35498" lon="2.4464">
        <ele>516</ele>
        <time>2017-09-24T13:31:38.000Z</time>
      </trkpt>
      <trkpt lat="43.35497" lon="2.44641">
        <ele>516</ele>
        <time>2017-09-24T13:31:39.000Z</time>
      </trkpt>
      <trkpt lat="43.35496" lon="2.44642">
        <ele>516</ele>
        <time>2017-09-24T13:31:40.000Z</time>
      </trkpt>
      <trkpt lat="43.35495" lon="2.44642">
        <ele>516</ele>
        <time>2017-09-24T13:31:41.000Z</time>
      </trkpt>
      <trkpt lat="43.35493" lon="2.44643">
        <ele>517</ele>
        <time>2017-09-24T13:31:42.000Z</time>
      </trkpt>
      <trkpt lat="43.35492" lon="2.44644">
        <ele>517</ele>
        <time>2017-09-24T13:31:43.000Z</time>
      </trkpt>
      <trkpt lat="43.35492" lon="2.44645">
        <ele>517</ele>
        <time>2017-09-24T13:31:44.000Z</time>
      </trkpt>
      <trkpt lat="43.35491" lon="2.44646">
        <ele>517</ele>
        <time>2017-09-24T13:31:45.000Z</time>
      </trkpt>
      <trkpt lat="43.3549" lon="2.44647">
        <ele>517</ele>
        <time>2017-09-24T13:31:46.000Z</time>
      </trkpt>
      <trkpt lat="43.3549" lon="2.44647">
        <ele>517</ele>
        <time>2017-09-24T13:31:47.000Z</time>
      </trkpt>
      <trkpt lat="43.35489" lon="2.44648">
        <ele>517</ele>
        <time>2017-09-24T13:31:48.000Z</time>
      </trkpt>
      <trkpt lat="43.35488" lon="2.44649">
        <ele>518</ele>
        <time>2017-09-24T13:31:49.000Z</time>
      </trkpt>
      <trkpt lat="43.35487" lon="2.4465">
        <ele>518</ele>
        <time>2017-09-24T13:31:50.000Z</time>
      </trkpt>
      <trkpt lat="43.35487" lon="2.44651">
        <ele>518</ele>
        <time>2017-09-24T13:31:51.000Z</time>
      </trkpt>
      <trkpt lat="43.35486" lon="2.44652">
        <ele>518</ele>
        <time>2017-09-24T13:31:52.000Z</time>
      </trkpt>
      <trkpt lat="43.35485" lon="2.44653">
        <ele>518</ele>
        <time>2017-09-24T13:31:53.000Z</time>
      </trkpt>
      <trkpt lat="43.35485" lon="2.44654">
        <ele>518</ele>
        <time>2017-09-24T13:31:54.000Z</time>
      </trkpt>
      <trkpt lat="43.35484" lon="2.44654">
        <ele>518</ele>
        <time>2017-09-24T13:31:55.000Z</time>
      </trkpt>
      <trkpt lat="43.35484" lon="2.44654">
        <ele>518</ele>
        <time>2017-09-24T13:31:56.000Z</time>
      </trkpt>
      <trkpt lat="43.35483" lon="2.44655">
        <ele>519</ele>
        <time>2017-09-24T13:31:57.000Z</time>
      </trkpt>
      <trkpt lat="43.35483" lon="2.44657">
        <ele>519</ele>
        <time>2017-09-24T13:31:58.000Z</time>
      </trkpt>
      <trkpt lat="43.35483" lon="2.44658">
        <ele>519</ele>
        <time>2017-09-24T13:31:59.000Z</time>
      </trkpt>
      <trkpt lat="43.35483" lon="2.44659">
        <ele>519</ele>
        <time>2017-09-24T13:32:00.000Z</time>
      </trkpt>
      <trkpt lat="43.35483" lon="2.4466">
        <ele>519</ele>
        <time>2017-09-24T13:32:01.000Z</time>
      </trkpt>
      <trkpt lat="43.35483" lon="2.44661">
        <ele>519</ele>
        <time>2017-09-24T13:32:02.000Z</time>
      </trkpt>
      <trkpt lat="43.35483" lon="2.44662">
        <ele>519</ele>
        <time>2017-09-24T13:32:03.000Z</time>
      </trkpt>
      <trkpt lat="43.35484" lon="2.44663">
        <ele>519</ele>
        <time>2017-09-24T13:32:04.000Z</time>
      </trkpt>
      <trkpt lat="43.35484" lon="2.44664">
        <ele>519</ele>
        <time>2017-09-24T13:32:05.000Z</time>
      </trkpt>
      <trkpt lat="43.35484" lon="2.44665">
        <ele>519</ele>
        <time>2017-09-24T13:32:06.000Z</time>
      </trkpt>
      <trkpt lat="43.35483" lon="2.44666">
        <ele>520</ele>
        <time>2017-09-24T13:32:07.000Z</time>
      </trkpt>
      <trkpt lat="43.35483" lon="2.44667">
        <ele>519</ele>
        <time>2017-09-24T13:32:08.000Z</time>
      </trkpt>
      <trkpt lat="43.35483" lon="2.44668">
        <ele>519</ele>
        <time>2017-09-24T13:32:09.000Z</time>
      </trkpt>
      <trkpt lat="43.35482" lon="2.44669">
        <ele>519</ele>
        <time>2017-09-24T13:32:10.000Z</time>
      </trkpt>
      <trkpt lat="43.35482" lon="2.44669">
        <ele>519</ele>
        <time>2017-09-24T13:32:11.000Z</time>
      </trkpt>
      <trkpt lat="43.35482" lon="2.44669">
        <ele>519</ele>
        <time>2017-09-24T13:32:12.000Z</time>
      </trkpt>
      <trkpt lat="43.35484" lon="2.44665">
        <ele>519</ele>
        <time>2017-09-24T13:32:28.000Z</time>
      </trkpt>
      <trkpt lat="43.35485" lon="2.44665">
        <ele>519</ele>
        <time>2017-09-24T13:32:29.000Z</time>
      </trkpt>
      <trkpt lat="43.35486" lon="2.44665">
        <ele>519</ele>
        <time>2017-09-24T13:32:30.000Z</time>
      </trkpt>
      <trkpt lat="43.35487" lon="2.44665">
        <ele>519</ele>
        <time>2017-09-24T13:32:31.000Z</time>
      </trkpt>
      <trkpt lat="43.35489" lon="2.44666">
        <ele>519</ele>
        <time>2017-09-24T13:32:32.000Z</time>
      </trkpt>
      <trkpt lat="43.3549" lon="2.44666">
        <ele>519</ele>
        <time>2017-09-24T13:32:33.000Z</time>
      </trkpt>
      <trkpt lat="43.35491" lon="2.44666">
        <ele>519</ele>
        <time>2017-09-24T13:32:34.000Z</time>
      </trkpt>
      <trkpt lat="43.35492" lon="2.44666">
        <ele>519</ele>
        <time>2017-09-24T13:32:35.000Z</time>
      </trkpt>
      <trkpt lat="43.35493" lon="2.44666">
        <ele>519</ele>
        <time>2017-09-24T13:32:36.000Z</time>
      </trkpt>
      <trkpt lat="43.35494" lon="2.44666">
        <ele>519</ele>
        <time>2017-09-24T13:32:37.000Z</time>
      </trkpt>
      <trkpt lat="43.35495" lon="2.44666">
        <ele>519</ele>
        <time>2017-09-24T13:32:38.000Z</time>
      </trkpt>
      <trkpt lat="43.35496" lon="2.44666">
        <ele>519</ele>
        <time>2017-09-24T13:32:39.000Z</time>
      </trkpt>
      <trkpt lat="43.35497" lon="2.44666">
        <ele>518</ele>
        <time>2017-09-24T13:32:40.000Z</time>
      </trkpt>
      <trkpt lat="43.35498" lon="2.44666">
        <ele>518</ele>
        <time>2017-09-24T13:32:41.000Z</time>
      </trkpt>
      <trkpt lat="43.35499" lon="2.44666">
        <ele>518</ele>
        <time>2017-09-24T13:32:42.000Z</time>
      </trkpt>
      <trkpt lat="43.355" lon="2.44666">
        <ele>518</ele>
        <time>2017-09-24T13:32:43.000Z</time>
      </trkpt>
      <trkpt lat="43.35501" lon="2.44666">
        <ele>518</ele>
        <time>2017-09-24T13:32:44.000Z</time>
      </trkpt>
      <trkpt lat="43.35502" lon="2.44666">
        <ele>518</ele>
        <time>2017-09-24T13:32:45.000Z</time>
      </trkpt>
      <trkpt lat="43.35502" lon="2.44666">
        <ele>518</ele>
        <time>2017-09-24T13:32:46.000Z</time>
      </trkpt>
      <trkpt lat="43.35503" lon="2.44666">
        <ele>518</ele>
        <time>2017-09-24T13:32:47.000Z</time>
      </trkpt>
      <trkpt lat="43.35503" lon="2.44666">
        <ele>518</ele>
        <time>2017-09-24T13:32:48.000Z</time>
      </trkpt>
      <trkpt lat="43.3551" lon="2.44677">
        <ele>516</ele>
        <time>2017-09-24T13:33:21.000Z</time>
      </trkpt>
      <trkpt lat="43.35511" lon="2.44678">
        <ele>516</ele>
        <time>2017-09-24T13:33:22.000Z</time>
      </trkpt>
      <trkpt lat="43.35512" lon="2.44678">
        <ele>515</ele>
        <time>2017-09-24T13:33:23.000Z</time>
      </trkpt>
      <trkpt lat="43.35513" lon="2.44679">
        <ele>515</ele>
        <time>2017-09-24T13:33:24.000Z</time>
      </trkpt>
      <trkpt lat="43.35514" lon="2.4468">
        <ele>515</ele>
        <time>2017-09-24T13:33:25.000Z</time>
      </trkpt>
      <trkpt lat="43.35515" lon="2.4468">
        <ele>515</ele>
        <time>2017-09-24T13:33:26.000Z</time>
      </trkpt>
      <trkpt lat="43.35515" lon="2.44681">
        <ele>515</ele>
        <time>2017-09-24T13:33:27.000Z</time>
      </trkpt>
      <trkpt lat="43.35516" lon="2.44682">
        <ele>515</ele>
        <time>2017-09-24T13:33:28.000Z</time>
      </trkpt>
      <trkpt lat="43.35517" lon="2.44683">
        <ele>515</ele>
        <time>2017-09-24T13:33:29.000Z</time>
      </trkpt>
      <trkpt lat="43.35518" lon="2.44683">
        <ele>515</ele>
        <time>2017-09-24T13:33:30.000Z</time>
      </trkpt>
      <trkpt lat="43.35519" lon="2.44684">
        <ele>515</ele>
        <time>2017-09-24T13:33:31.000Z</time>
      </trkpt>
      <trkpt lat="43.3552" lon="2.44684">
        <ele>514</ele>
        <time>2017-09-24T13:33:32.000Z</time>
      </trkpt>
      <trkpt lat="43.35521" lon="2.44685">
        <ele>514</ele>
        <time>2017-09-24T13:33:33.000Z</time>
      </trkpt>
      <trkpt lat="43.35521" lon="2.44686">
        <ele>514</ele>
        <time>2017-09-24T13:33:34.000Z</time>
      </trkpt>
      <trkpt lat="43.35522" lon="2.44686">
        <ele>514</ele>
        <time>2017-09-24T13:33:35.000Z</time>
      </trkpt>
      <trkpt lat="43.35523" lon="2.44687">
        <ele>514</ele>
        <time>2017-09-24T13:33:36.000Z</time>
      </trkpt>
      <trkpt lat="43.35524" lon="2.44688">
        <ele>514</ele>
        <time>2017-09-24T13:33:37.000Z</time>
      </trkpt>
      <trkpt lat="43.35525" lon="2.44689">
        <ele>514</ele>
        <time>2017-09-24T13:33:38.000Z</time>
      </trkpt>
      <trkpt lat="43.35526" lon="2.4469">
        <ele>514</ele>
        <time>2017-09-24T13:33:39.000Z</time>
      </trkpt>
      <trkpt lat="43.35526" lon="2.44691">
        <ele>514</ele>
        <time>2017-09-24T13:33:40.000Z</time>
      </trkpt>
      <trkpt lat="43.35527" lon="2.44692">
        <ele>514</ele>
        <time>2017-09-24T13:33:41.000Z</time>
      </trkpt>
      <trkpt lat="43.35528" lon="2.44693">
        <ele>513</ele>
        <time>2017-09-24T13:33:42.000Z</time>
      </trkpt>
      <trkpt lat="43.35528" lon="2.44694">
        <ele>513</ele>
        <time>2017-09-24T13:33:43.000Z</time>
      </trkpt>
      <trkpt lat="43.35529" lon="2.44695">
        <ele>513</ele>
        <time>2017-09-24T13:33:44.000Z</time>
      </trkpt>
      <trkpt lat="43.3553" lon="2.44696">
        <ele>513</ele>
        <time>2017-09-24T13:33:45.000Z</time>
      </trkpt>
      <trkpt lat="43.35531" lon="2.44697">
        <ele>513</ele>
        <time>2017-09-24T13:33:46.000Z</time>
      </trkpt>
      <trkpt lat="43.35532" lon="2.44698">
        <ele>513</ele>
        <time>2017-09-24T13:33:47.000Z</time>
      </trkpt>
      <trkpt lat="43.35532" lon="2.44699">
        <ele>513</ele>
        <time>2017-09-24T13:33:48.000Z</time>
      </trkpt>
      <trkpt lat="43.35533" lon="2.447">
        <ele>513</ele>
        <time>2017-09-24T13:33:49.000Z</time>
      </trkpt>
      <trkpt lat="43.35534" lon="2.44701">
        <ele>512</ele>
        <time>2017-09-24T13:33:50.000Z</time>
      </trkpt>
      <trkpt lat="43.35534" lon="2.44702">
        <ele>512</ele>
        <time>2017-09-24T13:33:51.000Z</time>
      </trkpt>
      <trkpt lat="43.35535" lon="2.44702">
        <ele>512</ele>
        <time>2017-09-24T13:33:52.000Z</time>
      </trkpt>
      <trkpt lat="43.35536" lon="2.44703">
        <ele>512</ele>
        <time>2017-09-24T13:33:53.000Z</time>
      </trkpt>
      <trkpt lat="43.35537" lon="2.44704">
        <ele>512</ele>
        <time>2017-09-24T13:33:54.000Z</time>
      </trkpt>
      <trkpt lat="43.35537" lon="2.44705">
        <ele>512</ele>
        <time>2017-09-24T13:33:55.000Z</time>
      </trkpt>
      <trkpt lat="43.35538" lon="2.44706">
        <ele>512</ele>
        <time>2017-09-24T13:33:56.000Z</time>
      </trkpt>
      <trkpt lat="43.35539" lon="2.44706">
        <ele>512</ele>
        <time>2017-09-24T13:33:57.000Z</time>
      </trkpt>
      <trkpt lat="43.35539" lon="2.44707">
        <ele>512</ele>
        <time>2017-09-24T13:33:58.000Z</time>
      </trkpt>
      <trkpt lat="43.3554" lon="2.44708">
        <ele>512</ele>
        <time>2017-09-24T13:33:59.000Z</time>
      </trkpt>
      <trkpt lat="43.35541" lon="2.44708">
        <ele>512</ele>
        <time>2017-09-24T13:34:00.000Z</time>
      </trkpt>
      <trkpt lat="43.35542" lon="2.44709">
        <ele>511</ele>
        <time>2017-09-24T13:34:01.000Z</time>
      </trkpt>
      <trkpt lat="43.35542" lon="2.4471">
        <ele>511</ele>
        <time>2017-09-24T13:34:02.000Z</time>
      </trkpt>
      <trkpt lat="43.35543" lon="2.4471">
        <ele>511</ele>
        <time>2017-09-24T13:34:03.000Z</time>
      </trkpt>
      <trkpt lat="43.35544" lon="2.44711">
        <ele>511</ele>
        <time>2017-09-24T13:34:04.000Z</time>
      </trkpt>
      <trkpt lat="43.35545" lon="2.44712">
        <ele>511</ele>
        <time>2017-09-24T13:34:05.000Z</time>
      </trkpt>
      <trkpt lat="43.35546" lon="2.44713">
        <ele>511</ele>
        <time>2017-09-24T13:34:06.000Z</time>
      </trkpt>
      <trkpt lat="43.35546" lon="2.44714">
        <ele>511</ele>
        <time>2017-09-24T13:34:07.000Z</time>
      </trkpt>
      <trkpt lat="43.35547" lon="2.44715">
        <ele>511</ele>
        <time>2017-09-24T13:34:08.000Z</time>
      </trkpt>
      <trkpt lat="43.35548" lon="2.44716">
        <ele>511</ele>
        <time>2017-09-24T13:34:09.000Z</time>
      </trkpt>
      <trkpt lat="43.35548" lon="2.44716">
        <ele>511</ele>
        <time>2017-09-24T13:34:10.000Z</time>
      </trkpt>
      <trkpt lat="43.35549" lon="2.44717">
        <ele>510</ele>
        <time>2017-09-24T13:34:11.000Z</time>
      </trkpt>
      <trkpt lat="43.3555" lon="2.44718">
        <ele>510</ele>
        <time>2017-09-24T13:34:12.000Z</time>
      </trkpt>
      <trkpt lat="43.35551" lon="2.44718">
        <ele>510</ele>
        <time>2017-09-24T13:34:13.000Z</time>
      </trkpt>
      <trkpt lat="43.35552" lon="2.44719">
        <ele>510</ele>
        <time>2017-09-24T13:34:14.000Z</time>
      </trkpt>
      <trkpt lat="43.35552" lon="2.44719">
        <ele>510</ele>
        <time>2017-09-24T13:34:15.000Z</time>
      </trkpt>
      <trkpt lat="43.35553" lon="2.4472">
        <ele>510</ele>
        <time>2017-09-24T13:34:16.000Z</time>
      </trkpt>
      <trkpt lat="43.35554" lon="2.44721">
        <ele>510</ele>
        <time>2017-09-24T13:34:17.000Z</time>
      </trkpt>
      <trkpt lat="43.35555" lon="2.44721">
        <ele>510</ele>
        <time>2017-09-24T13:34:18.000Z</time>
      </trkpt>
      <trkpt lat="43.35555" lon="2.44722">
        <ele>510</ele>
        <time>2017-09-24T13:34:19.000Z</time>
      </trkpt>
      <trkpt lat="43.35556" lon="2.44722">
        <ele>510</ele>
        <time>2017-09-24T13:34:20.000Z</time>
      </trkpt>
      <trkpt lat="43.35557" lon="2.44723">
        <ele>510</ele>
        <time>2017-09-24T13:34:21.000Z</time>
      </trkpt>
      <trkpt lat="43.35558" lon="2.44723">
        <ele>510</ele>
        <time>2017-09-24T13:34:22.000Z</time>
      </trkpt>
      <trkpt lat="43.35559" lon="2.44724">
        <ele>510</ele>
        <time>2017-09-24T13:34:23.000Z</time>
      </trkpt>
      <trkpt lat="43.3556" lon="2.44724">
        <ele>510</ele>
        <time>2017-09-24T13:34:24.000Z</time>
      </trkpt>
      <trkpt lat="43.3556" lon="2.44725">
        <ele>510</ele>
        <time>2017-09-24T13:34:25.000Z</time>
      </trkpt>
      <trkpt lat="43.35561" lon="2.44726">
        <ele>509</ele>
        <time>2017-09-24T13:34:26.000Z</time>
      </trkpt>
      <trkpt lat="43.35562" lon="2.44727">
        <ele>509</ele>
        <time>2017-09-24T13:34:27.000Z</time>
      </trkpt>
      <trkpt lat="43.35563" lon="2.44728">
        <ele>509</ele>
        <time>2017-09-24T13:34:28.000Z</time>
      </trkpt>
      <trkpt lat="43.35563" lon="2.44729">
        <ele>509</ele>
        <time>2017-09-24T13:34:29.000Z</time>
      </trkpt>
      <trkpt lat="43.35564" lon="2.4473">
        <ele>509</ele>
        <time>2017-09-24T13:34:30.000Z</time>
      </trkpt>
      <trkpt lat="43.35565" lon="2.4473">
        <ele>509</ele>
        <time>2017-09-24T13:34:31.000Z</time>
      </trkpt>
      <trkpt lat="43.35566" lon="2.44731">
        <ele>509</ele>
        <time>2017-09-24T13:34:32.000Z</time>
      </trkpt>
      <trkpt lat="43.35567" lon="2.44732">
        <ele>509</ele>
        <time>2017-09-24T13:34:33.000Z</time>
      </trkpt>
      <trkpt lat="43.35568" lon="2.44733">
        <ele>509</ele>
        <time>2017-09-24T13:34:34.000Z</time>
      </trkpt>
      <trkpt lat="43.35569" lon="2.44734">
        <ele>508</ele>
        <time>2017-09-24T13:34:35.000Z</time>
      </trkpt>
      <trkpt lat="43.3557" lon="2.44735">
        <ele>508</ele>
        <time>2017-09-24T13:34:36.000Z</time>
      </trkpt>
      <trkpt lat="43.35571" lon="2.44736">
        <ele>508</ele>
        <time>2017-09-24T13:34:37.000Z</time>
      </trkpt>
      <trkpt lat="43.35572" lon="2.44736">
        <ele>508</ele>
        <time>2017-09-24T13:34:38.000Z</time>
      </trkpt>
      <trkpt lat="43.35573" lon="2.44737">
        <ele>508</ele>
        <time>2017-09-24T13:34:39.000Z</time>
      </trkpt>
      <trkpt lat="43.35574" lon="2.44737">
        <ele>508</ele>
        <time>2017-09-24T13:34:40.000Z</time>
      </trkpt>
      <trkpt lat="43.35574" lon="2.44738">
        <ele>508</ele>
        <time>2017-09-24T13:34:41.000Z</time>
      </trkpt>
      <trkpt lat="43.35575" lon="2.44739">
        <ele>508</ele>
        <time>2017-09-24T13:34:42.000Z</time>
      </trkpt>
      <trkpt lat="43.35576" lon="2.4474">
        <ele>508</ele>
        <time>2017-09-24T13:34:43.000Z</time>
      </trkpt>
      <trkpt lat="43.35576" lon="2.4474">
        <ele>508</ele>
        <time>2017-09-24T13:34:44.000Z</time>
      </trkpt>
      <trkpt lat="43.35577" lon="2.4474">
        <ele>508</ele>
        <time>2017-09-24T13:34:45.000Z</time>
      </trkpt>
      <trkpt lat="43.35578" lon="2.44741">
        <ele>508</ele>
        <time>2017-09-24T13:34:46.000Z</time>
      </trkpt>
      <trkpt lat="43.35579" lon="2.44742">
        <ele>508</ele>
        <time>2017-09-24T13:34:47.000Z</time>
      </trkpt>
      <trkpt lat="43.35579" lon="2.44742">
        <ele>508</ele>
        <time>2017-09-24T13:34:48.000Z</time>
      </trkpt>
      <trkpt lat="43.3558" lon="2.44743">
        <ele>508</ele>
        <time>2017-09-24T13:34:49.000Z</time>
      </trkpt>
      <trkpt lat="43.35581" lon="2.44743">
        <ele>507</ele>
        <time>2017-09-24T13:34:50.000Z</time>
      </trkpt>
      <trkpt lat="43.35582" lon="2.44744">
        <ele>507</ele>
        <time>2017-09-24T13:34:51.000Z</time>
      </trkpt>
      <trkpt lat="43.35582" lon="2.44745">
        <ele>507</ele>
        <time>2017-09-24T13:34:52.000Z</time>
      </trkpt>
      <trkpt lat="43.35583" lon="2.44746">
        <ele>507</ele>
        <time>2017-09-24T13:34:53.000Z</time>
      </trkpt>
      <trkpt lat="43.35584" lon="2.44746">
        <ele>507</ele>
        <time>2017-09-24T13:34:54.000Z</time>
      </trkpt>
      <trkpt lat="43.35585" lon="2.44747">
        <ele>507</ele>
        <time>2017-09-24T13:34:55.000Z</time>
      </trkpt>
      <trkpt lat="43.35586" lon="2.44747">
        <ele>507</ele>
        <time>2017-09-24T13:34:56.000Z</time>
      </trkpt>
      <trkpt lat="43.35587" lon="2.44748">
        <ele>507</ele>
        <time>2017-09-24T13:34:57.000Z</time>
      </trkpt>
      <trkpt lat="43.35588" lon="2.44748">
        <ele>507</ele>
        <time>2017-09-24T13:34:58.000Z</time>
      </trkpt>
      <trkpt lat="43.3559" lon="2.44748">
        <ele>507</ele>
        <time>2017-09-24T13:34:59.000Z</time>
      </trkpt>
      <trkpt lat="43.35591" lon="2.44749">
        <ele>507</ele>
        <time>2017-09-24T13:35:00.000Z</time>
      </trkpt>
      <trkpt lat="43.35592" lon="2.44749">
        <ele>507</ele>
        <time>2017-09-24T13:35:01.000Z</time>
      </trkpt>
      <trkpt lat="43.35593" lon="2.4475">
        <ele>507</ele>
        <time>2017-09-24T13:35:02.000Z</time>
      </trkpt>
      <trkpt lat="43.35594" lon="2.4475">
        <ele>507</ele>
        <time>2017-09-24T13:35:03.000Z</time>
      </trkpt>
      <trkpt lat="43.35595" lon="2.44751">
        <ele>507</ele>
        <time>2017-09-24T13:35:04.000Z</time>
      </trkpt>
      <trkpt lat="43.35596" lon="2.44751">
        <ele>506</ele>
        <time>2017-09-24T13:35:05.000Z</time>
      </trkpt>
      <trkpt lat="43.35597" lon="2.44752">
        <ele>506</ele>
        <time>2017-09-24T13:35:06.000Z</time>
      </trkpt>
      <trkpt lat="43.35598" lon="2.44753">
        <ele>506</ele>
        <time>2017-09-24T13:35:07.000Z</time>
      </trkpt>
      <trkpt lat="43.35599" lon="2.44753">
        <ele>506</ele>
        <time>2017-09-24T13:35:08.000Z</time>
      </trkpt>
      <trkpt lat="43.356" lon="2.44753">
        <ele>506</ele>
        <time>2017-09-24T13:35:09.000Z</time>
      </trkpt>
      <trkpt lat="43.35601" lon="2.44754">
        <ele>506</ele>
        <time>2017-09-24T13:35:10.000Z</time>
      </trkpt>
      <trkpt lat="43.35602" lon="2.44755">
        <ele>506</ele>
        <time>2017-09-24T13:35:11.000Z</time>
      </trkpt>
      <trkpt lat="43.35602" lon="2.44755">
        <ele>506</ele>
        <time>2017-09-24T13:35:12.000Z</time>
      </trkpt>
      <trkpt lat="43.35603" lon="2.44755">
        <ele>506</ele>
        <time>2017-09-24T13:35:13.000Z</time>
      </trkpt>
      <trkpt lat="43.35604" lon="2.44756">
        <ele>506</ele>
        <time>2017-09-24T13:35:14.000Z</time>
      </trkpt>
      <trkpt lat="43.35604" lon="2.44756">
        <ele>506</ele>
        <time>2017-09-24T13:35:15.000Z</time>
      </trkpt>
      <trkpt lat="43.35605" lon="2.44757">
        <ele>506</ele>
        <time>2017-09-24T13:35:16.000Z</time>
      </trkpt>
      <trkpt lat="43.35606" lon="2.44758">
        <ele>505</ele>
        <time>2017-09-24T13:35:17.000Z</time>
      </trkpt>
      <trkpt lat="43.35606" lon="2.44758">
        <ele>505</ele>
        <time>2017-09-24T13:35:18.000Z</time>
      </trkpt>
      <trkpt lat="43.35607" lon="2.44759">
        <ele>505</ele>
        <time>2017-09-24T13:35:19.000Z</time>
      </trkpt>
      <trkpt lat="43.35608" lon="2.44759">
        <ele>505</ele>
        <time>2017-09-24T13:35:20.000Z</time>
      </trkpt>
      <trkpt lat="43.35609" lon="2.44759">
        <ele>505</ele>
        <time>2017-09-24T13:35:21.000Z</time>
      </trkpt>
      <trkpt lat="43.3561" lon="2.4476">
        <ele>505</ele>
        <time>2017-09-24T13:35:22.000Z</time>
      </trkpt>
      <trkpt lat="43.35611" lon="2.4476">
        <ele>505</ele>
        <time>2017-09-24T13:35:23.000Z</time>
      </trkpt>
      <trkpt lat="43.35612" lon="2.4476">
        <ele>505</ele>
        <time>2017-09-24T13:35:24.000Z</time>
      </trkpt>
      <trkpt lat="43.35613" lon="2.4476">
        <ele>505</ele>
        <time>2017-09-24T13:35:25.000Z</time>
      </trkpt>
      <trkpt lat="43.35614" lon="2.44761">
        <ele>505</ele>
        <time>2017-09-24T13:35:26.000Z</time>
      </trkpt>
      <trkpt lat="43.35615" lon="2.44761">
        <ele>505</ele>
        <time>2017-09-24T13:35:27.000Z</time>
      </trkpt>
      <trkpt lat="43.35616" lon="2.44761">
        <ele>505</ele>
        <time>2017-09-24T13:35:28.000Z</time>
      </trkpt>
      <trkpt lat="43.35616" lon="2.44761">
        <ele>505</ele>
        <time>2017-09-24T13:35:29.000Z</time>
      </trkpt>
      <trkpt lat="43.35617" lon="2.44762">
        <ele>505</ele>
        <time>2017-09-24T13:35:30.000Z</time>
      </trkpt>
      <trkpt lat="43.35618" lon="2.44762">
        <ele>505</ele>
        <time>2017-09-24T13:35:31.000Z</time>
      </trkpt>
      <trkpt lat="43.35619" lon="2.44762">
        <ele>505</ele>
        <time>2017-09-24T13:35:32.000Z</time>
      </trkpt>
      <trkpt lat="43.3562" lon="2.44762">
        <ele>505</ele>
        <time>2017-09-24T13:35:33.000Z</time>
      </trkpt>
      <trkpt lat="43.3562" lon="2.44762">
        <ele>505</ele>
        <time>2017-09-24T13:35:34.000Z</time>
      </trkpt>
      <trkpt lat="43.35621" lon="2.44762">
        <ele>505</ele>
        <time>2017-09-24T13:35:35.000Z</time>
      </trkpt>
      <trkpt lat="43.35622" lon="2.44762">
        <ele>505</ele>
        <time>2017-09-24T13:35:36.000Z</time>
      </trkpt>
      <trkpt lat="43.35623" lon="2.44763">
        <ele>505</ele>
        <time>2017-09-24T13:35:37.000Z</time>
      </trkpt>
      <trkpt lat="43.35623" lon="2.44763">
        <ele>505</ele>
        <time>2017-09-24T13:35:38.000Z</time>
      </trkpt>
      <trkpt lat="43.35624" lon="2.44763">
        <ele>505</ele>
        <time>2017-09-24T13:35:39.000Z</time>
      </trkpt>
      <trkpt lat="43.35625" lon="2.44763">
        <ele>505</ele>
        <time>2017-09-24T13:35:40.000Z</time>
      </trkpt>
      <trkpt lat="43.35626" lon="2.44763">
        <ele>505</ele>
        <time>2017-09-24T13:35:41.000Z</time>
      </trkpt>
      <trkpt lat="43.35627" lon="2.44763">
        <ele>505</ele>
        <time>2017-09-24T13:35:42.000Z</time>
      </trkpt>
      <trkpt lat="43.35628" lon="2.44763">
        <ele>505</ele>
        <time>2017-09-24T13:35:43.000Z</time>
      </trkpt>
      <trkpt lat="43.35629" lon="2.44763">
        <ele>505</ele>
        <time>2017-09-24T13:35:44.000Z</time>
      </trkpt>
      <trkpt lat="43.3563" lon="2.44763">
        <ele>505</ele>
        <time>2017-09-24T13:35:45.000Z</time>
      </trkpt>
      <trkpt lat="43.35631" lon="2.44763">
        <ele>505</ele>
        <time>2017-09-24T13:35:46.000Z</time>
      </trkpt>
      <trkpt lat="43.35632" lon="2.44763">
        <ele>505</ele>
        <time>2017-09-24T13:35:47.000Z</time>
      </trkpt>
      <trkpt lat="43.35634" lon="2.44763">
        <ele>505</ele>
        <time>2017-09-24T13:35:48.000Z</time>
      </trkpt>
      <trkpt lat="43.35635" lon="2.44764">
        <ele>505</ele>
        <time>2017-09-24T13:35:49.000Z</time>
      </trkpt>
      <trkpt lat="43.35636" lon="2.44764">
        <ele>505</ele>
        <time>2017-09-24T13:35:50.000Z</time>
      </trkpt>
      <trkpt lat="43.35637" lon="2.44765">
        <ele>505</ele>
        <time>2017-09-24T13:35:51.000Z</time>
      </trkpt>
      <trkpt lat="43.35638" lon="2.44765">
        <ele>505</ele>
        <time>2017-09-24T13:35:52.000Z</time>
      </trkpt>
      <trkpt lat="43.35639" lon="2.44766">
        <ele>505</ele>
        <time>2017-09-24T13:35:53.000Z</time>
      </trkpt>
      <trkpt lat="43.3564" lon="2.44766">
        <ele>505</ele>
        <time>2017-09-24T13:35:54.000Z</time>
      </trkpt>
      <trkpt lat="43.3564" lon="2.44767">
        <ele>505</ele>
        <time>2017-09-24T13:35:55.000Z</time>
      </trkpt>
      <trkpt lat="43.35641" lon="2.44767">
        <ele>505</ele>
        <time>2017-09-24T13:35:56.000Z</time>
      </trkpt>
      <trkpt lat="43.35642" lon="2.44768">
        <ele>505</ele>
        <time>2017-09-24T13:35:57.000Z</time>
      </trkpt>
      <trkpt lat="43.35643" lon="2.44769">
        <ele>504</ele>
        <time>2017-09-24T13:35:58.000Z</time>
      </trkpt>
      <trkpt lat="43.35643" lon="2.44771">
        <ele>504</ele>
        <time>2017-09-24T13:35:59.000Z</time>
      </trkpt>
      <trkpt lat="43.35644" lon="2.44772">
        <ele>504</ele>
        <time>2017-09-24T13:36:00.000Z</time>
      </trkpt>
      <trkpt lat="43.35645" lon="2.44773">
        <ele>504</ele>
        <time>2017-09-24T13:36:01.000Z</time>
      </trkpt>
      <trkpt lat="43.35646" lon="2.44774">
        <ele>503</ele>
        <time>2017-09-24T13:36:02.000Z</time>
      </trkpt>
      <trkpt lat="43.35647" lon="2.44774">
        <ele>503</ele>
        <time>2017-09-24T13:36:03.000Z</time>
      </trkpt>
      <trkpt lat="43.35648" lon="2.44775">
        <ele>503</ele>
        <time>2017-09-24T13:36:04.000Z</time>
      </trkpt>
      <trkpt lat="43.35648" lon="2.44776">
        <ele>503</ele>
        <time>2017-09-24T13:36:05.000Z</time>
      </trkpt>
      <trkpt lat="43.35649" lon="2.44777">
        <ele>503</ele>
        <time>2017-09-24T13:36:06.000Z</time>
      </trkpt>
      <trkpt lat="43.3565" lon="2.44778">
        <ele>503</ele>
        <time>2017-09-24T13:36:07.000Z</time>
      </trkpt>
      <trkpt lat="43.3565" lon="2.44779">
        <ele>502</ele>
        <time>2017-09-24T13:36:08.000Z</time>
      </trkpt>
      <trkpt lat="43.3565" lon="2.4478">
        <ele>502</ele>
        <time>2017-09-24T13:36:09.000Z</time>
      </trkpt>
      <trkpt lat="43.35651" lon="2.44781">
        <ele>502</ele>
        <time>2017-09-24T13:36:10.000Z</time>
      </trkpt>
      <trkpt lat="43.35652" lon="2.44782">
        <ele>502</ele>
        <time>2017-09-24T13:36:11.000Z</time>
      </trkpt>
      <trkpt lat="43.35653" lon="2.44783">
        <ele>502</ele>
        <time>2017-09-24T13:36:12.000Z</time>
      </trkpt>
      <trkpt lat="43.35653" lon="2.44783">
        <ele>502</ele>
        <time>2017-09-24T13:36:13.000Z</time>
      </trkpt>
      <trkpt lat="43.35654" lon="2.44784">
        <ele>501</ele>
        <time>2017-09-24T13:36:14.000Z</time>
      </trkpt>
      <trkpt lat="43.35655" lon="2.44785">
        <ele>501</ele>
        <time>2017-09-24T13:36:15.000Z</time>
      </trkpt>
      <trkpt lat="43.35655" lon="2.44786">
        <ele>501</ele>
        <time>2017-09-24T13:36:16.000Z</time>
      </trkpt>
      <trkpt lat="43.35656" lon="2.44787">
        <ele>501</ele>
        <time>2017-09-24T13:36:17.000Z</time>
      </trkpt>
      <trkpt lat="43.35657" lon="2.44788">
        <ele>501</ele>
        <time>2017-09-24T13:36:18.000Z</time>
      </trkpt>
      <trkpt lat="43.35657" lon="2.44789">
        <ele>501</ele>
        <time>2017-09-24T13:36:19.000Z</time>
      </trkpt>
      <trkpt lat="43.35658" lon="2.4479">
        <ele>500</ele>
        <time>2017-09-24T13:36:20.000Z</time>
      </trkpt>
      <trkpt lat="43.35658" lon="2.44791">
        <ele>500</ele>
        <time>2017-09-24T13:36:21.000Z</time>
      </trkpt>
      <trkpt lat="43.35659" lon="2.44791">
        <ele>500</ele>
        <time>2017-09-24T13:36:22.000Z</time>
      </trkpt>
      <trkpt lat="43.35659" lon="2.44792">
        <ele>500</ele>
        <time>2017-09-24T13:36:23.000Z</time>
      </trkpt>
      <trkpt lat="43.3566" lon="2.44792">
        <ele>500</ele>
        <time>2017-09-24T13:36:24.000Z</time>
      </trkpt>
      <trkpt lat="43.3566" lon="2.44793">
        <ele>500</ele>
        <time>2017-09-24T13:36:25.000Z</time>
      </trkpt>
      <trkpt lat="43.35661" lon="2.44794">
        <ele>500</ele>
        <time>2017-09-24T13:36:26.000Z</time>
      </trkpt>
      <trkpt lat="43.35662" lon="2.44794">
        <ele>500</ele>
        <time>2017-09-24T13:36:27.000Z</time>
      </trkpt>
      <trkpt lat="43.35663" lon="2.44795">
        <ele>499</ele>
        <time>2017-09-24T13:36:28.000Z</time>
      </trkpt>
      <trkpt lat="43.35664" lon="2.44796">
        <ele>499</ele>
        <time>2017-09-24T13:36:29.000Z</time>
      </trkpt>
      <trkpt lat="43.35664" lon="2.44796">
        <ele>499</ele>
        <time>2017-09-24T13:36:30.000Z</time>
      </trkpt>
      <trkpt lat="43.35665" lon="2.44797">
        <ele>499</ele>
        <time>2017-09-24T13:36:31.000Z</time>
      </trkpt>
      <trkpt lat="43.35666" lon="2.44797">
        <ele>499</ele>
        <time>2017-09-24T13:36:32.000Z</time>
      </trkpt>
      <trkpt lat="43.35667" lon="2.44798">
        <ele>499</ele>
        <time>2017-09-24T13:36:33.000Z</time>
      </trkpt>
      <trkpt lat="43.35667" lon="2.44798">
        <ele>499</ele>
        <time>2017-09-24T13:36:34.000Z</time>
      </trkpt>
      <trkpt lat="43.35669" lon="2.44798">
        <ele>499</ele>
        <time>2017-09-24T13:36:35.000Z</time>
      </trkpt>
      <trkpt lat="43.3567" lon="2.44798">
        <ele>499</ele>
        <time>2017-09-24T13:36:36.000Z</time>
      </trkpt>
      <trkpt lat="43.35671" lon="2.44798">
        <ele>499</ele>
        <time>2017-09-24T13:36:37.000Z</time>
      </trkpt>
      <trkpt lat="43.35672" lon="2.44798">
        <ele>499</ele>
        <time>2017-09-24T13:36:38.000Z</time>
      </trkpt>
      <trkpt lat="43.35673" lon="2.44799">
        <ele>499</ele>
        <time>2017-09-24T13:36:39.000Z</time>
      </trkpt>
      <trkpt lat="43.35674" lon="2.44799">
        <ele>499</ele>
        <time>2017-09-24T13:36:40.000Z</time>
      </trkpt>
      <trkpt lat="43.35675" lon="2.448">
        <ele>499</ele>
        <time>2017-09-24T13:36:41.000Z</time>
      </trkpt>
      <trkpt lat="43.35676" lon="2.44801">
        <ele>499</ele>
        <time>2017-09-24T13:36:42.000Z</time>
      </trkpt>
      <trkpt lat="43.35677" lon="2.44801">
        <ele>499</ele>
        <time>2017-09-24T13:36:43.000Z</time>
      </trkpt>
      <trkpt lat="43.35677" lon="2.44801">
        <ele>499</ele>
        <time>2017-09-24T13:36:44.000Z</time>
      </trkpt>
      <trkpt lat="43.35678" lon="2.44802">
        <ele>499</ele>
        <time>2017-09-24T13:36:45.000Z</time>
      </trkpt>
      <trkpt lat="43.35679" lon="2.44802">
        <ele>499</ele>
        <time>2017-09-24T13:36:46.000Z</time>
      </trkpt>
      <trkpt lat="43.3568" lon="2.44802">
        <ele>498</ele>
        <time>2017-09-24T13:36:47.000Z</time>
      </trkpt>
      <trkpt lat="43.35681" lon="2.44803">
        <ele>498</ele>
        <time>2017-09-24T13:36:48.000Z</time>
      </trkpt>
      <trkpt lat="43.35682" lon="2.44803">
        <ele>498</ele>
        <time>2017-09-24T13:36:49.000Z</time>
      </trkpt>
      <trkpt lat="43.35683" lon="2.44804">
        <ele>498</ele>
        <time>2017-09-24T13:36:50.000Z</time>
      </trkpt>
      <trkpt lat="43.35684" lon="2.44804">
        <ele>498</ele>
        <time>2017-09-24T13:36:51.000Z</time>
      </trkpt>
      <trkpt lat="43.35685" lon="2.44804">
        <ele>499</ele>
        <time>2017-09-24T13:36:52.000Z</time>
      </trkpt>
      <trkpt lat="43.35686" lon="2.44804">
        <ele>499</ele>
        <time>2017-09-24T13:36:53.000Z</time>
      </trkpt>
      <trkpt lat="43.35687" lon="2.44804">
        <ele>499</ele>
        <time>2017-09-24T13:36:54.000Z</time>
      </trkpt>
      <trkpt lat="43.35688" lon="2.44804">
        <ele>499</ele>
        <time>2017-09-24T13:36:55.000Z</time>
      </trkpt>
      <trkpt lat="43.35689" lon="2.44804">
        <ele>499</ele>
        <time>2017-09-24T13:36:56.000Z</time>
      </trkpt>
      <trkpt lat="43.3569" lon="2.44803">
        <ele>499</ele>
        <time>2017-09-24T13:36:57.000Z</time>
      </trkpt>
      <trkpt lat="43.35691" lon="2.44803">
        <ele>500</ele>
        <time>2017-09-24T13:36:58.000Z</time>
      </trkpt>
      <trkpt lat="43.35693" lon="2.44802">
        <ele>500</ele>
        <time>2017-09-24T13:36:59.000Z</time>
      </trkpt>
      <trkpt lat="43.35693" lon="2.44802">
        <ele>500</ele>
        <time>2017-09-24T13:37:00.000Z</time>
      </trkpt>
      <trkpt lat="43.35694" lon="2.44802">
        <ele>500</ele>
        <time>2017-09-24T13:37:01.000Z</time>
      </trkpt>
      <trkpt lat="43.35695" lon="2.44801">
        <ele>500</ele>
        <time>2017-09-24T13:37:02.000Z</time>
      </trkpt>
      <trkpt lat="43.35696" lon="2.448">
        <ele>501</ele>
        <time>2017-09-24T13:37:03.000Z</time>
      </trkpt>
      <trkpt lat="43.35697" lon="2.448">
        <ele>501</ele>
        <time>2017-09-24T13:37:04.000Z</time>
      </trkpt>
      <trkpt lat="43.35698" lon="2.44799">
        <ele>501</ele>
        <time>2017-09-24T13:37:05.000Z</time>
      </trkpt>
      <trkpt lat="43.35699" lon="2.44798">
        <ele>501</ele>
        <time>2017-09-24T13:37:06.000Z</time>
      </trkpt>
      <trkpt lat="43.357" lon="2.44798">
        <ele>502</ele>
        <time>2017-09-24T13:37:07.000Z</time>
      </trkpt>
      <trkpt lat="43.357" lon="2.44797">
        <ele>502</ele>
        <time>2017-09-24T13:37:08.000Z</time>
      </trkpt>
      <trkpt lat="43.35702" lon="2.44799">
        <ele>501</ele>
        <time>2017-09-24T13:37:09.000Z</time>
      </trkpt>
      <trkpt lat="43.35702" lon="2.44799">
        <ele>501</ele>
        <time>2017-09-24T13:37:10.000Z</time>
      </trkpt>
      <trkpt lat="43.35703" lon="2.448">
        <ele>501</ele>
        <time>2017-09-24T13:37:11.000Z</time>
      </trkpt>
      <trkpt lat="43.35703" lon="2.448">
        <ele>501</ele>
        <time>2017-09-24T13:37:12.000Z</time>
      </trkpt>
      <trkpt lat="43.35703" lon="2.44801">
        <ele>501</ele>
        <time>2017-09-24T13:37:13.000Z</time>
      </trkpt>
      <trkpt lat="43.35702" lon="2.44802">
        <ele>501</ele>
        <time>2017-09-24T13:37:14.000Z</time>
      </trkpt>
      <trkpt lat="43.35702" lon="2.44802">
        <ele>501</ele>
        <time>2017-09-24T13:37:15.000Z</time>
      </trkpt>
      <trkpt lat="43.35702" lon="2.44803">
        <ele>501</ele>
        <time>2017-09-24T13:37:16.000Z</time>
      </trkpt>
      <trkpt lat="43.35701" lon="2.44805">
        <ele>500</ele>
        <time>2017-09-24T13:37:17.000Z</time>
      </trkpt>
      <trkpt lat="43.35701" lon="2.44806">
        <ele>500</ele>
        <time>2017-09-24T13:37:18.000Z</time>
      </trkpt>
      <trkpt lat="43.35701" lon="2.44807">
        <ele>500</ele>
        <time>2017-09-24T13:37:19.000Z</time>
      </trkpt>
      <trkpt lat="43.357" lon="2.44807">
        <ele>500</ele>
        <time>2017-09-24T13:37:20.000Z</time>
      </trkpt>
      <trkpt lat="43.357" lon="2.44808">
        <ele>499</ele>
        <time>2017-09-24T13:37:21.000Z</time>
      </trkpt>
      <trkpt lat="43.35699" lon="2.44809">
        <ele>499</ele>
        <time>2017-09-24T13:37:22.000Z</time>
      </trkpt>
      <trkpt lat="43.35698" lon="2.4481">
        <ele>499</ele>
        <time>2017-09-24T13:37:23.000Z</time>
      </trkpt>
      <trkpt lat="43.35697" lon="2.44811">
        <ele>498</ele>
        <time>2017-09-24T13:37:24.000Z</time>
      </trkpt>
      <trkpt lat="43.35697" lon="2.44812">
        <ele>498</ele>
        <time>2017-09-24T13:37:25.000Z</time>
      </trkpt>
      <trkpt lat="43.35696" lon="2.44813">
        <ele>498</ele>
        <time>2017-09-24T13:37:26.000Z</time>
      </trkpt>
      <trkpt lat="43.35696" lon="2.44814">
        <ele>498</ele>
        <time>2017-09-24T13:37:27.000Z</time>
      </trkpt>
      <trkpt lat="43.35695" lon="2.44815">
        <ele>497</ele>
        <time>2017-09-24T13:37:28.000Z</time>
      </trkpt>
      <trkpt lat="43.35694" lon="2.44816">
        <ele>497</ele>
        <time>2017-09-24T13:37:29.000Z</time>
      </trkpt>
      <trkpt lat="43.35694" lon="2.44816">
        <ele>497</ele>
        <time>2017-09-24T13:37:30.000Z</time>
      </trkpt>
      <trkpt lat="43.35693" lon="2.44817">
        <ele>497</ele>
        <time>2017-09-24T13:37:31.000Z</time>
      </trkpt>
      <trkpt lat="43.35693" lon="2.44817">
        <ele>497</ele>
        <time>2017-09-24T13:37:32.000Z</time>
      </trkpt>
      <trkpt lat="43.35693" lon="2.44817">
        <ele>497</ele>
        <time>2017-09-24T13:37:33.000Z</time>
      </trkpt>
      <trkpt lat="43.35692" lon="2.44818">
        <ele>496</ele>
        <time>2017-09-24T13:37:34.000Z</time>
      </trkpt>
      <trkpt lat="43.35692" lon="2.44818">
        <ele>496</ele>
        <time>2017-09-24T13:37:35.000Z</time>
      </trkpt>
      <trkpt lat="43.35686" lon="2.44822">
        <ele>495</ele>
        <time>2017-09-24T13:37:43.000Z</time>
      </trkpt>
      <trkpt lat="43.35686" lon="2.44823">
        <ele>495</ele>
        <time>2017-09-24T13:37:44.000Z</time>
      </trkpt>
      <trkpt lat="43.35685" lon="2.44823">
        <ele>495</ele>
        <time>2017-09-24T13:37:45.000Z</time>
      </trkpt>
      <trkpt lat="43.35684" lon="2.44823">
        <ele>494</ele>
        <time>2017-09-24T13:37:46.000Z</time>
      </trkpt>
      <trkpt lat="43.35683" lon="2.44824">
        <ele>494</ele>
        <time>2017-09-24T13:37:47.000Z</time>
      </trkpt>
      <trkpt lat="43.35682" lon="2.44824">
        <ele>494</ele>
        <time>2017-09-24T13:37:48.000Z</time>
      </trkpt>
      <trkpt lat="43.35682" lon="2.44824">
        <ele>494</ele>
        <time>2017-09-24T13:37:49.000Z</time>
      </trkpt>
      <trkpt lat="43.35681" lon="2.44824">
        <ele>494</ele>
        <time>2017-09-24T13:37:50.000Z</time>
      </trkpt>
      <trkpt lat="43.3568" lon="2.44825">
        <ele>494</ele>
        <time>2017-09-24T13:37:51.000Z</time>
      </trkpt>
      <trkpt lat="43.35679" lon="2.44825">
        <ele>494</ele>
        <time>2017-09-24T13:37:52.000Z</time>
      </trkpt>
      <trkpt lat="43.35678" lon="2.44826">
        <ele>493</ele>
        <time>2017-09-24T13:37:53.000Z</time>
      </trkpt>
      <trkpt lat="43.35678" lon="2.44826">
        <ele>493</ele>
        <time>2017-09-24T13:37:54.000Z</time>
      </trkpt>
      <trkpt lat="43.35677" lon="2.44827">
        <ele>493</ele>
        <time>2017-09-24T13:37:55.000Z</time>
      </trkpt>
      <trkpt lat="43.35676" lon="2.44828">
        <ele>493</ele>
        <time>2017-09-24T13:37:56.000Z</time>
      </trkpt>
      <trkpt lat="43.35676" lon="2.44828">
        <ele>493</ele>
        <time>2017-09-24T13:37:57.000Z</time>
      </trkpt>
      <trkpt lat="43.35675" lon="2.44829">
        <ele>493</ele>
        <time>2017-09-24T13:37:58.000Z</time>
      </trkpt>
      <trkpt lat="43.35674" lon="2.44829">
        <ele>492</ele>
        <time>2017-09-24T13:37:59.000Z</time>
      </trkpt>
      <trkpt lat="43.35674" lon="2.4483">
        <ele>492</ele>
        <time>2017-09-24T13:38:00.000Z</time>
      </trkpt>
      <trkpt lat="43.35673" lon="2.44831">
        <ele>492</ele>
        <time>2017-09-24T13:38:01.000Z</time>
      </trkpt>
      <trkpt lat="43.35672" lon="2.44831">
        <ele>492</ele>
        <time>2017-09-24T13:38:02.000Z</time>
      </trkpt>
      <trkpt lat="43.35672" lon="2.44832">
        <ele>491</ele>
        <time>2017-09-24T13:38:03.000Z</time>
      </trkpt>
      <trkpt lat="43.35671" lon="2.44832">
        <ele>491</ele>
        <time>2017-09-24T13:38:04.000Z</time>
      </trkpt>
      <trkpt lat="43.3567" lon="2.44833">
        <ele>491</ele>
        <time>2017-09-24T13:38:05.000Z</time>
      </trkpt>
      <trkpt lat="43.3567" lon="2.44833">
        <ele>491</ele>
        <time>2017-09-24T13:38:06.000Z</time>
      </trkpt>
      <trkpt lat="43.35669" lon="2.44833">
        <ele>491</ele>
        <time>2017-09-24T13:38:07.000Z</time>
      </trkpt>
      <trkpt lat="43.35669" lon="2.44834">
        <ele>491</ele>
        <time>2017-09-24T13:38:08.000Z</time>
      </trkpt>
      <trkpt lat="43.35668" lon="2.44835">
        <ele>491</ele>
        <time>2017-09-24T13:38:09.000Z</time>
      </trkpt>
      <trkpt lat="43.35668" lon="2.44835">
        <ele>491</ele>
        <time>2017-09-24T13:38:10.000Z</time>
      </trkpt>
      <trkpt lat="43.35667" lon="2.44836">
        <ele>491</ele>
        <time>2017-09-24T13:38:11.000Z</time>
      </trkpt>
      <trkpt lat="43.35667" lon="2.44837">
        <ele>491</ele>
        <time>2017-09-24T13:38:12.000Z</time>
      </trkpt>
      <trkpt lat="43.35666" lon="2.44838">
        <ele>490</ele>
        <time>2017-09-24T13:38:13.000Z</time>
      </trkpt>
      <trkpt lat="43.35665" lon="2.44838">
        <ele>490</ele>
        <time>2017-09-24T13:38:14.000Z</time>
      </trkpt>
      <trkpt lat="43.35664" lon="2.44839">
        <ele>490</ele>
        <time>2017-09-24T13:38:15.000Z</time>
      </trkpt>
      <trkpt lat="43.35664" lon="2.44839">
        <ele>490</ele>
        <time>2017-09-24T13:38:16.000Z</time>
      </trkpt>
      <trkpt lat="43.35663" lon="2.44839">
        <ele>490</ele>
        <time>2017-09-24T13:38:17.000Z</time>
      </trkpt>
      <trkpt lat="43.35663" lon="2.44839">
        <ele>490</ele>
        <time>2017-09-24T13:38:18.000Z</time>
      </trkpt>
      <trkpt lat="43.35662" lon="2.4484">
        <ele>490</ele>
        <time>2017-09-24T13:38:19.000Z</time>
      </trkpt>
      <trkpt lat="43.35661" lon="2.44841">
        <ele>490</ele>
        <time>2017-09-24T13:38:20.000Z</time>
      </trkpt>
      <trkpt lat="43.35661" lon="2.44841">
        <ele>490</ele>
        <time>2017-09-24T13:38:21.000Z</time>
      </trkpt>
      <trkpt lat="43.3566" lon="2.44842">
        <ele>490</ele>
        <time>2017-09-24T13:38:22.000Z</time>
      </trkpt>
      <trkpt lat="43.35659" lon="2.44842">
        <ele>490</ele>
        <time>2017-09-24T13:38:23.000Z</time>
      </trkpt>
      <trkpt lat="43.35658" lon="2.44843">
        <ele>490</ele>
        <time>2017-09-24T13:38:24.000Z</time>
      </trkpt>
      <trkpt lat="43.35657" lon="2.44843">
        <ele>489</ele>
        <time>2017-09-24T13:38:25.000Z</time>
      </trkpt>
      <trkpt lat="43.35657" lon="2.44843">
        <ele>489</ele>
        <time>2017-09-24T13:38:26.000Z</time>
      </trkpt>
      <trkpt lat="43.35656" lon="2.44844">
        <ele>489</ele>
        <time>2017-09-24T13:38:27.000Z</time>
      </trkpt>
      <trkpt lat="43.35655" lon="2.44844">
        <ele>489</ele>
        <time>2017-09-24T13:38:28.000Z</time>
      </trkpt>
      <trkpt lat="43.35655" lon="2.44844">
        <ele>489</ele>
        <time>2017-09-24T13:38:29.000Z</time>
      </trkpt>
      <trkpt lat="43.35654" lon="2.44845">
        <ele>489</ele>
        <time>2017-09-24T13:38:30.000Z</time>
      </trkpt>
      <trkpt lat="43.35654" lon="2.44846">
        <ele>489</ele>
        <time>2017-09-24T13:38:31.000Z</time>
      </trkpt>
      <trkpt lat="43.35653" lon="2.44846">
        <ele>489</ele>
        <time>2017-09-24T13:38:32.000Z</time>
      </trkpt>
      <trkpt lat="43.35652" lon="2.44847">
        <ele>489</ele>
        <time>2017-09-24T13:38:33.000Z</time>
      </trkpt>
      <trkpt lat="43.35652" lon="2.44847">
        <ele>489</ele>
        <time>2017-09-24T13:38:34.000Z</time>
      </trkpt>
      <trkpt lat="43.35651" lon="2.44848">
        <ele>489</ele>
        <time>2017-09-24T13:38:35.000Z</time>
      </trkpt>
      <trkpt lat="43.3565" lon="2.44848">
        <ele>488</ele>
        <time>2017-09-24T13:38:36.000Z</time>
      </trkpt>
      <trkpt lat="43.3565" lon="2.44849">
        <ele>488</ele>
        <time>2017-09-24T13:38:37.000Z</time>
      </trkpt>
      <trkpt lat="43.35649" lon="2.4485">
        <ele>488</ele>
        <time>2017-09-24T13:38:38.000Z</time>
      </trkpt>
      <trkpt lat="43.35648" lon="2.4485">
        <ele>488</ele>
        <time>2017-09-24T13:38:39.000Z</time>
      </trkpt>
      <trkpt lat="43.35647" lon="2.44851">
        <ele>488</ele>
        <time>2017-09-24T13:38:40.000Z</time>
      </trkpt>
      <trkpt lat="43.35647" lon="2.44851">
        <ele>488</ele>
        <time>2017-09-24T13:38:41.000Z</time>
      </trkpt>
      <trkpt lat="43.35646" lon="2.44852">
        <ele>488</ele>
        <time>2017-09-24T13:38:42.000Z</time>
      </trkpt>
      <trkpt lat="43.35645" lon="2.44852">
        <ele>488</ele>
        <time>2017-09-24T13:38:43.000Z</time>
      </trkpt>
      <trkpt lat="43.35644" lon="2.44852">
        <ele>488</ele>
        <time>2017-09-24T13:38:44.000Z</time>
      </trkpt>
      <trkpt lat="43.35643" lon="2.44853">
        <ele>488</ele>
        <time>2017-09-24T13:38:45.000Z</time>
      </trkpt>
      <trkpt lat="43.35643" lon="2.44853">
        <ele>488</ele>
        <time>2017-09-24T13:38:46.000Z</time>
      </trkpt>
      <trkpt lat="43.35642" lon="2.44854">
        <ele>487</ele>
        <time>2017-09-24T13:38:47.000Z</time>
      </trkpt>
      <trkpt lat="43.35641" lon="2.44854">
        <ele>487</ele>
        <time>2017-09-24T13:38:48.000Z</time>
      </trkpt>
      <trkpt lat="43.3564" lon="2.44855">
        <ele>487</ele>
        <time>2017-09-24T13:38:49.000Z</time>
      </trkpt>
      <trkpt lat="43.35639" lon="2.44856">
        <ele>487</ele>
        <time>2017-09-24T13:38:50.000Z</time>
      </trkpt>
      <trkpt lat="43.35638" lon="2.44856">
        <ele>487</ele>
        <time>2017-09-24T13:38:51.000Z</time>
      </trkpt>
      <trkpt lat="43.35637" lon="2.44856">
        <ele>487</ele>
        <time>2017-09-24T13:38:52.000Z</time>
      </trkpt>
      <trkpt lat="43.35636" lon="2.44857">
        <ele>487</ele>
        <time>2017-09-24T13:38:53.000Z</time>
      </trkpt>
      <trkpt lat="43.35635" lon="2.44857">
        <ele>487</ele>
        <time>2017-09-24T13:38:54.000Z</time>
      </trkpt>
      <trkpt lat="43.35634" lon="2.44857">
        <ele>487</ele>
        <time>2017-09-24T13:38:55.000Z</time>
      </trkpt>
      <trkpt lat="43.35633" lon="2.44857">
        <ele>486</ele>
        <time>2017-09-24T13:38:56.000Z</time>
      </trkpt>
      <trkpt lat="43.35632" lon="2.44858">
        <ele>486</ele>
        <time>2017-09-24T13:38:57.000Z</time>
      </trkpt>
      <trkpt lat="43.35632" lon="2.44858">
        <ele>486</ele>
        <time>2017-09-24T13:38:58.000Z</time>
      </trkpt>
      <trkpt lat="43.35631" lon="2.44859">
        <ele>486</ele>
        <time>2017-09-24T13:38:59.000Z</time>
      </trkpt>
      <trkpt lat="43.3563" lon="2.44859">
        <ele>486</ele>
        <time>2017-09-24T13:39:00.000Z</time>
      </trkpt>
      <trkpt lat="43.35629" lon="2.44859">
        <ele>486</ele>
        <time>2017-09-24T13:39:01.000Z</time>
      </trkpt>
      <trkpt lat="43.35628" lon="2.4486">
        <ele>486</ele>
        <time>2017-09-24T13:39:02.000Z</time>
      </trkpt>
      <trkpt lat="43.35628" lon="2.4486">
        <ele>486</ele>
        <time>2017-09-24T13:39:03.000Z</time>
      </trkpt>
      <trkpt lat="43.35627" lon="2.4486">
        <ele>486</ele>
        <time>2017-09-24T13:39:04.000Z</time>
      </trkpt>
      <trkpt lat="43.35626" lon="2.44861">
        <ele>486</ele>
        <time>2017-09-24T13:39:05.000Z</time>
      </trkpt>
      <trkpt lat="43.35626" lon="2.44861">
        <ele>486</ele>
        <time>2017-09-24T13:39:06.000Z</time>
      </trkpt>
      <trkpt lat="43.35625" lon="2.44861">
        <ele>486</ele>
        <time>2017-09-24T13:39:07.000Z</time>
      </trkpt>
      <trkpt lat="43.35625" lon="2.44861">
        <ele>485</ele>
        <time>2017-09-24T13:39:08.000Z</time>
      </trkpt>
      <trkpt lat="43.35624" lon="2.44861">
        <ele>485</ele>
        <time>2017-09-24T13:39:09.000Z</time>
      </trkpt>
      <trkpt lat="43.35624" lon="2.44862">
        <ele>485</ele>
        <time>2017-09-24T13:39:10.000Z</time>
      </trkpt>
      <trkpt lat="43.35623" lon="2.44862">
        <ele>485</ele>
        <time>2017-09-24T13:39:11.000Z</time>
      </trkpt>
      <trkpt lat="43.35622" lon="2.44862">
        <ele>485</ele>
        <time>2017-09-24T13:39:12.000Z</time>
      </trkpt>
      <trkpt lat="43.35621" lon="2.44862">
        <ele>485</ele>
        <time>2017-09-24T13:39:13.000Z</time>
      </trkpt>
      <trkpt lat="43.35621" lon="2.44863">
        <ele>485</ele>
        <time>2017-09-24T13:39:14.000Z</time>
      </trkpt>
      <trkpt lat="43.3562" lon="2.44863">
        <ele>485</ele>
        <time>2017-09-24T13:39:15.000Z</time>
      </trkpt>
      <trkpt lat="43.3562" lon="2.44863">
        <ele>485</ele>
        <time>2017-09-24T13:39:16.000Z</time>
      </trkpt>
      <trkpt lat="43.35619" lon="2.44864">
        <ele>484</ele>
        <time>2017-09-24T13:39:17.000Z</time>
      </trkpt>
      <trkpt lat="43.35619" lon="2.44864">
        <ele>484</ele>
        <time>2017-09-24T13:39:18.000Z</time>
      </trkpt>
      <trkpt lat="43.35618" lon="2.44864">
        <ele>484</ele>
        <time>2017-09-24T13:39:19.000Z</time>
      </trkpt>
      <trkpt lat="43.35618" lon="2.44864">
        <ele>484</ele>
        <time>2017-09-24T13:39:20.000Z</time>
      </trkpt>
      <trkpt lat="43.35617" lon="2.44865">
        <ele>484</ele>
        <time>2017-09-24T13:39:21.000Z</time>
      </trkpt>
      <trkpt lat="43.35616" lon="2.44865">
        <ele>484</ele>
        <time>2017-09-24T13:39:22.000Z</time>
      </trkpt>
      <trkpt lat="43.35616" lon="2.44865">
        <ele>484</ele>
        <time>2017-09-24T13:39:23.000Z</time>
      </trkpt>
      <trkpt lat="43.35614" lon="2.44866">
        <ele>483</ele>
        <time>2017-09-24T13:39:24.000Z</time>
      </trkpt>
      <trkpt lat="43.35613" lon="2.44867">
        <ele>483</ele>
        <time>2017-09-24T13:39:25.000Z</time>
      </trkpt>
      <trkpt lat="43.35612" lon="2.44868">
        <ele>483</ele>
        <time>2017-09-24T13:39:26.000Z</time>
      </trkpt>
      <trkpt lat="43.35611" lon="2.44869">
        <ele>483</ele>
        <time>2017-09-24T13:39:27.000Z</time>
      </trkpt>
      <trkpt lat="43.3561" lon="2.44869">
        <ele>482</ele>
        <time>2017-09-24T13:39:28.000Z</time>
      </trkpt>
      <trkpt lat="43.35609" lon="2.4487">
        <ele>482</ele>
        <time>2017-09-24T13:39:29.000Z</time>
      </trkpt>
      <trkpt lat="43.35609" lon="2.4487">
        <ele>482</ele>
        <time>2017-09-24T13:39:30.000Z</time>
      </trkpt>
      <trkpt lat="43.35608" lon="2.4487">
        <ele>482</ele>
        <time>2017-09-24T13:39:31.000Z</time>
      </trkpt>
      <trkpt lat="43.35607" lon="2.44871">
        <ele>482</ele>
        <time>2017-09-24T13:39:32.000Z</time>
      </trkpt>
      <trkpt lat="43.35606" lon="2.44872">
        <ele>481</ele>
        <time>2017-09-24T13:39:33.000Z</time>
      </trkpt>
      <trkpt lat="43.35605" lon="2.44873">
        <ele>481</ele>
        <time>2017-09-24T13:39:34.000Z</time>
      </trkpt>
      <trkpt lat="43.35604" lon="2.44874">
        <ele>481</ele>
        <time>2017-09-24T13:39:35.000Z</time>
      </trkpt>
      <trkpt lat="43.35603" lon="2.44874">
        <ele>481</ele>
        <time>2017-09-24T13:39:36.000Z</time>
      </trkpt>
      <trkpt lat="43.35602" lon="2.44875">
        <ele>481</ele>
        <time>2017-09-24T13:39:37.000Z</time>
      </trkpt>
      <trkpt lat="43.35601" lon="2.44875">
        <ele>480</ele>
        <time>2017-09-24T13:39:38.000Z</time>
      </trkpt>
      <trkpt lat="43.35601" lon="2.44876">
        <ele>480</ele>
        <time>2017-09-24T13:39:39.000Z</time>
      </trkpt>
      <trkpt lat="43.356" lon="2.44877">
        <ele>480</ele>
        <time>2017-09-24T13:39:40.000Z</time>
      </trkpt>
      <trkpt lat="43.35599" lon="2.44878">
        <ele>480</ele>
        <time>2017-09-24T13:39:41.000Z</time>
      </trkpt>
      <trkpt lat="43.35598" lon="2.44878">
        <ele>479</ele>
        <time>2017-09-24T13:39:42.000Z</time>
      </trkpt>
      <trkpt lat="43.35597" lon="2.44879">
        <ele>479</ele>
        <time>2017-09-24T13:39:43.000Z</time>
      </trkpt>
      <trkpt lat="43.35596" lon="2.44879">
        <ele>479</ele>
        <time>2017-09-24T13:39:44.000Z</time>
      </trkpt>
      <trkpt lat="43.35595" lon="2.4488">
        <ele>479</ele>
        <time>2017-09-24T13:39:45.000Z</time>
      </trkpt>
      <trkpt lat="43.35594" lon="2.44881">
        <ele>479</ele>
        <time>2017-09-24T13:39:46.000Z</time>
      </trkpt>
      <trkpt lat="43.35593" lon="2.44881">
        <ele>479</ele>
        <time>2017-09-24T13:39:47.000Z</time>
      </trkpt>
      <trkpt lat="43.35592" lon="2.44881">
        <ele>479</ele>
        <time>2017-09-24T13:39:48.000Z</time>
      </trkpt>
      <trkpt lat="43.35591" lon="2.44882">
        <ele>479</ele>
        <time>2017-09-24T13:39:49.000Z</time>
      </trkpt>
      <trkpt lat="43.35591" lon="2.44882">
        <ele>479</ele>
        <time>2017-09-24T13:39:50.000Z</time>
      </trkpt>
      <trkpt lat="43.3559" lon="2.44882">
        <ele>479</ele>
        <time>2017-09-24T13:39:51.000Z</time>
      </trkpt>
      <trkpt lat="43.3559" lon="2.44882">
        <ele>479</ele>
        <time>2017-09-24T13:39:52.000Z</time>
      </trkpt>
      <trkpt lat="43.35589" lon="2.44883">
        <ele>479</ele>
        <time>2017-09-24T13:39:53.000Z</time>
      </trkpt>
      <trkpt lat="43.35588" lon="2.44883">
        <ele>479</ele>
        <time>2017-09-24T13:39:54.000Z</time>
      </trkpt>
      <trkpt lat="43.35587" lon="2.44883">
        <ele>479</ele>
        <time>2017-09-24T13:39:55.000Z</time>
      </trkpt>
      <trkpt lat="43.35586" lon="2.44883">
        <ele>479</ele>
        <time>2017-09-24T13:39:56.000Z</time>
      </trkpt>
      <trkpt lat="43.35585" lon="2.44883">
        <ele>479</ele>
        <time>2017-09-24T13:39:57.000Z</time>
      </trkpt>
      <trkpt lat="43.35583" lon="2.44883">
        <ele>479</ele>
        <time>2017-09-24T13:39:58.000Z</time>
      </trkpt>
      <trkpt lat="43.35582" lon="2.44883">
        <ele>479</ele>
        <time>2017-09-24T13:39:59.000Z</time>
      </trkpt>
      <trkpt lat="43.35581" lon="2.44884">
        <ele>479</ele>
        <time>2017-09-24T13:40:00.000Z</time>
      </trkpt>
      <trkpt lat="43.3558" lon="2.44884">
        <ele>479</ele>
        <time>2017-09-24T13:40:01.000Z</time>
      </trkpt>
      <trkpt lat="43.35579" lon="2.44884">
        <ele>479</ele>
        <time>2017-09-24T13:40:02.000Z</time>
      </trkpt>
      <trkpt lat="43.35578" lon="2.44884">
        <ele>479</ele>
        <time>2017-09-24T13:40:03.000Z</time>
      </trkpt>
      <trkpt lat="43.35577" lon="2.44885">
        <ele>479</ele>
        <time>2017-09-24T13:40:04.000Z</time>
      </trkpt>
      <trkpt lat="43.35576" lon="2.44885">
        <ele>479</ele>
        <time>2017-09-24T13:40:05.000Z</time>
      </trkpt>
      <trkpt lat="43.35575" lon="2.44885">
        <ele>479</ele>
        <time>2017-09-24T13:40:06.000Z</time>
      </trkpt>
      <trkpt lat="43.35574" lon="2.44885">
        <ele>479</ele>
        <time>2017-09-24T13:40:07.000Z</time>
      </trkpt>
      <trkpt lat="43.35573" lon="2.44885">
        <ele>479</ele>
        <time>2017-09-24T13:40:08.000Z</time>
      </trkpt>
      <trkpt lat="43.35572" lon="2.44885">
        <ele>479</ele>
        <time>2017-09-24T13:40:09.000Z</time>
      </trkpt>
      <trkpt lat="43.35571" lon="2.44885">
        <ele>479</ele>
        <time>2017-09-24T13:40:10.000Z</time>
      </trkpt>
      <trkpt lat="43.35569" lon="2.44884">
        <ele>479</ele>
        <time>2017-09-24T13:40:11.000Z</time>
      </trkpt>
      <trkpt lat="43.35568" lon="2.44884">
        <ele>479</ele>
        <time>2017-09-24T13:40:12.000Z</time>
      </trkpt>
      <trkpt lat="43.35567" lon="2.44884">
        <ele>479</ele>
        <time>2017-09-24T13:40:13.000Z</time>
      </trkpt>
      <trkpt lat="43.35566" lon="2.44884">
        <ele>479</ele>
        <time>2017-09-24T13:40:14.000Z</time>
      </trkpt>
      <trkpt lat="43.35565" lon="2.44884">
        <ele>479</ele>
        <time>2017-09-24T13:40:15.000Z</time>
      </trkpt>
      <trkpt lat="43.35565" lon="2.44884">
        <ele>479</ele>
        <time>2017-09-24T13:40:16.000Z</time>
      </trkpt>
      <trkpt lat="43.35565" lon="2.44884">
        <ele>479</ele>
        <time>2017-09-24T13:40:17.000Z</time>
      </trkpt>
      <trkpt lat="43.3556" lon="2.44885">
        <ele>478</ele>
        <time>2017-09-24T13:40:25.000Z</time>
      </trkpt>
      <trkpt lat="43.35559" lon="2.44885">
        <ele>478</ele>
        <time>2017-09-24T13:40:26.000Z</time>
      </trkpt>
      <trkpt lat="43.35558" lon="2.44885">
        <ele>478</ele>
        <time>2017-09-24T13:40:27.000Z</time>
      </trkpt>
      <trkpt lat="43.35557" lon="2.44885">
        <ele>478</ele>
        <time>2017-09-24T13:40:28.000Z</time>
      </trkpt>
      <trkpt lat="43.35556" lon="2.44885">
        <ele>478</ele>
        <time>2017-09-24T13:40:29.000Z</time>
      </trkpt>
      <trkpt lat="43.35555" lon="2.44885">
        <ele>478</ele>
        <time>2017-09-24T13:40:30.000Z</time>
      </trkpt>
      <trkpt lat="43.35554" lon="2.44885">
        <ele>478</ele>
        <time>2017-09-24T13:40:31.000Z</time>
      </trkpt>
      <trkpt lat="43.35553" lon="2.44885">
        <ele>478</ele>
        <time>2017-09-24T13:40:32.000Z</time>
      </trkpt>
      <trkpt lat="43.35552" lon="2.44885">
        <ele>478</ele>
        <time>2017-09-24T13:40:33.000Z</time>
      </trkpt>
      <trkpt lat="43.35551" lon="2.44885">
        <ele>478</ele>
        <time>2017-09-24T13:40:34.000Z</time>
      </trkpt>
      <trkpt lat="43.35549" lon="2.44885">
        <ele>478</ele>
        <time>2017-09-24T13:40:35.000Z</time>
      </trkpt>
      <trkpt lat="43.35548" lon="2.44885">
        <ele>478</ele>
        <time>2017-09-24T13:40:36.000Z</time>
      </trkpt>
      <trkpt lat="43.35547" lon="2.44885">
        <ele>478</ele>
        <time>2017-09-24T13:40:37.000Z</time>
      </trkpt>
      <trkpt lat="43.35546" lon="2.44884">
        <ele>478</ele>
        <time>2017-09-24T13:40:38.000Z</time>
      </trkpt>
      <trkpt lat="43.35545" lon="2.44884">
        <ele>478</ele>
        <time>2017-09-24T13:40:39.000Z</time>
      </trkpt>
      <trkpt lat="43.35544" lon="2.44884">
        <ele>478</ele>
        <time>2017-09-24T13:40:40.000Z</time>
      </trkpt>
      <trkpt lat="43.35543" lon="2.44883">
        <ele>478</ele>
        <time>2017-09-24T13:40:41.000Z</time>
      </trkpt>
      <trkpt lat="43.35541" lon="2.44883">
        <ele>478</ele>
        <time>2017-09-24T13:40:42.000Z</time>
      </trkpt>
      <trkpt lat="43.3554" lon="2.44882">
        <ele>478</ele>
        <time>2017-09-24T13:40:43.000Z</time>
      </trkpt>
      <trkpt lat="43.35539" lon="2.44882">
        <ele>478</ele>
        <time>2017-09-24T13:40:44.000Z</time>
      </trkpt>
      <trkpt lat="43.35538" lon="2.44882">
        <ele>478</ele>
        <time>2017-09-24T13:40:45.000Z</time>
      </trkpt>
      <trkpt lat="43.35537" lon="2.44882">
        <ele>478</ele>
        <time>2017-09-24T13:40:46.000Z</time>
      </trkpt>
      <trkpt lat="43.35536" lon="2.44882">
        <ele>478</ele>
        <time>2017-09-24T13:40:47.000Z</time>
      </trkpt>
      <trkpt lat="43.35535" lon="2.44882">
        <ele>478</ele>
        <time>2017-09-24T13:40:48.000Z</time>
      </trkpt>
      <trkpt lat="43.35534" lon="2.44882">
        <ele>478</ele>
        <time>2017-09-24T13:40:49.000Z</time>
      </trkpt>
      <trkpt lat="43.35532" lon="2.44882">
        <ele>478</ele>
        <time>2017-09-24T13:40:50.000Z</time>
      </trkpt>
      <trkpt lat="43.35532" lon="2.44882">
        <ele>478</ele>
        <time>2017-09-24T13:40:51.000Z</time>
      </trkpt>
      <trkpt lat="43.35531" lon="2.44881">
        <ele>478</ele>
        <time>2017-09-24T13:40:52.000Z</time>
      </trkpt>
      <trkpt lat="43.3553" lon="2.44881">
        <ele>478</ele>
        <time>2017-09-24T13:40:53.000Z</time>
      </trkpt>
      <trkpt lat="43.35529" lon="2.44881">
        <ele>478</ele>
        <time>2017-09-24T13:40:54.000Z</time>
      </trkpt>
      <trkpt lat="43.35528" lon="2.4488">
        <ele>478</ele>
        <time>2017-09-24T13:40:55.000Z</time>
      </trkpt>
      <trkpt lat="43.35527" lon="2.4488">
        <ele>478</ele>
        <time>2017-09-24T13:40:56.000Z</time>
      </trkpt>
      <trkpt lat="43.35526" lon="2.44879">
        <ele>478</ele>
        <time>2017-09-24T13:40:57.000Z</time>
      </trkpt>
      <trkpt lat="43.35526" lon="2.44878">
        <ele>478</ele>
        <time>2017-09-24T13:40:58.000Z</time>
      </trkpt>
      <trkpt lat="43.35525" lon="2.44878">
        <ele>478</ele>
        <time>2017-09-24T13:40:59.000Z</time>
      </trkpt>
      <trkpt lat="43.35524" lon="2.44877">
        <ele>478</ele>
        <time>2017-09-24T13:41:00.000Z</time>
      </trkpt>
      <trkpt lat="43.35523" lon="2.44876">
        <ele>479</ele>
        <time>2017-09-24T13:41:01.000Z</time>
      </trkpt>
      <trkpt lat="43.35523" lon="2.44876">
        <ele>479</ele>
        <time>2017-09-24T13:41:02.000Z</time>
      </trkpt>
      <trkpt lat="43.35522" lon="2.44875">
        <ele>479</ele>
        <time>2017-09-24T13:41:03.000Z</time>
      </trkpt>
      <trkpt lat="43.35521" lon="2.44875">
        <ele>479</ele>
        <time>2017-09-24T13:41:04.000Z</time>
      </trkpt>
      <trkpt lat="43.3552" lon="2.44875">
        <ele>479</ele>
        <time>2017-09-24T13:41:05.000Z</time>
      </trkpt>
      <trkpt lat="43.35519" lon="2.44875">
        <ele>479</ele>
        <time>2017-09-24T13:41:06.000Z</time>
      </trkpt>
      <trkpt lat="43.35518" lon="2.44875">
        <ele>479</ele>
        <time>2017-09-24T13:41:07.000Z</time>
      </trkpt>
      <trkpt lat="43.35517" lon="2.44875">
        <ele>478</ele>
        <time>2017-09-24T13:41:08.000Z</time>
      </trkpt>
      <trkpt lat="43.35516" lon="2.44875">
        <ele>478</ele>
        <time>2017-09-24T13:41:09.000Z</time>
      </trkpt>
      <trkpt lat="43.35515" lon="2.44875">
        <ele>478</ele>
        <time>2017-09-24T13:41:10.000Z</time>
      </trkpt>
      <trkpt lat="43.35514" lon="2.44874">
        <ele>479</ele>
        <time>2017-09-24T13:41:11.000Z</time>
      </trkpt>
      <trkpt lat="43.35513" lon="2.44873">
        <ele>479</ele>
        <time>2017-09-24T13:41:12.000Z</time>
      </trkpt>
      <trkpt lat="43.35512" lon="2.44871">
        <ele>479</ele>
        <time>2017-09-24T13:41:13.000Z</time>
      </trkpt>
      <trkpt lat="43.35513" lon="2.4487">
        <ele>479</ele>
        <time>2017-09-24T13:41:14.000Z</time>
      </trkpt>
      <trkpt lat="43.35513" lon="2.44869">
        <ele>480</ele>
        <time>2017-09-24T13:41:15.000Z</time>
      </trkpt>
      <trkpt lat="43.35513" lon="2.44868">
        <ele>480</ele>
        <time>2017-09-24T13:41:16.000Z</time>
      </trkpt>
      <trkpt lat="43.35514" lon="2.44867">
        <ele>480</ele>
        <time>2017-09-24T13:41:17.000Z</time>
      </trkpt>
      <trkpt lat="43.35515" lon="2.44867">
        <ele>480</ele>
        <time>2017-09-24T13:41:18.000Z</time>
      </trkpt>
      <trkpt lat="43.35516" lon="2.44866">
        <ele>480</ele>
        <time>2017-09-24T13:41:19.000Z</time>
      </trkpt>
      <trkpt lat="43.35517" lon="2.44866">
        <ele>480</ele>
        <time>2017-09-24T13:41:20.000Z</time>
      </trkpt>
      <trkpt lat="43.35518" lon="2.44866">
        <ele>480</ele>
        <time>2017-09-24T13:41:21.000Z</time>
      </trkpt>
      <trkpt lat="43.35518" lon="2.44865">
        <ele>481</ele>
        <time>2017-09-24T13:41:22.000Z</time>
      </trkpt>
      <trkpt lat="43.35519" lon="2.44865">
        <ele>481</ele>
        <time>2017-09-24T13:41:23.000Z</time>
      </trkpt>
      <trkpt lat="43.3552" lon="2.44865">
        <ele>481</ele>
        <time>2017-09-24T13:41:24.000Z</time>
      </trkpt>
      <trkpt lat="43.35521" lon="2.44864">
        <ele>481</ele>
        <time>2017-09-24T13:41:25.000Z</time>
      </trkpt>
      <trkpt lat="43.35521" lon="2.44864">
        <ele>481</ele>
        <time>2017-09-24T13:41:26.000Z</time>
      </trkpt>
      <trkpt lat="43.35522" lon="2.44863">
        <ele>481</ele>
        <time>2017-09-24T13:41:27.000Z</time>
      </trkpt>
      <trkpt lat="43.35523" lon="2.44862">
        <ele>481</ele>
        <time>2017-09-24T13:41:28.000Z</time>
      </trkpt>
      <trkpt lat="43.35523" lon="2.44861">
        <ele>482</ele>
        <time>2017-09-24T13:41:29.000Z</time>
      </trkpt>
      <trkpt lat="43.35524" lon="2.44861">
        <ele>482</ele>
        <time>2017-09-24T13:41:30.000Z</time>
      </trkpt>
      <trkpt lat="43.35525" lon="2.4486">
        <ele>482</ele>
        <time>2017-09-24T13:41:31.000Z</time>
      </trkpt>
      <trkpt lat="43.35525" lon="2.4486">
        <ele>482</ele>
        <time>2017-09-24T13:41:32.000Z</time>
      </trkpt>
      <trkpt lat="43.35526" lon="2.44859">
        <ele>482</ele>
        <time>2017-09-24T13:41:33.000Z</time>
      </trkpt>
      <trkpt lat="43.35526" lon="2.44859">
        <ele>482</ele>
        <time>2017-09-24T13:41:34.000Z</time>
      </trkpt>
      <trkpt lat="43.35527" lon="2.44858">
        <ele>482</ele>
        <time>2017-09-24T13:41:35.000Z</time>
      </trkpt>
      <trkpt lat="43.35528" lon="2.44858">
        <ele>482</ele>
        <time>2017-09-24T13:41:36.000Z</time>
      </trkpt>
      <trkpt lat="43.35529" lon="2.44858">
        <ele>482</ele>
        <time>2017-09-24T13:41:37.000Z</time>
      </trkpt>
      <trkpt lat="43.3553" lon="2.44858">
        <ele>482</ele>
        <time>2017-09-24T13:41:38.000Z</time>
      </trkpt>
      <trkpt lat="43.3553" lon="2.44858">
        <ele>482</ele>
        <time>2017-09-24T13:41:39.000Z</time>
      </trkpt>
      <trkpt lat="43.35531" lon="2.44858">
        <ele>483</ele>
        <time>2017-09-24T13:41:40.000Z</time>
      </trkpt>
      <trkpt lat="43.35532" lon="2.44858">
        <ele>483</ele>
        <time>2017-09-24T13:41:41.000Z</time>
      </trkpt>
      <trkpt lat="43.35533" lon="2.44858">
        <ele>483</ele>
        <time>2017-09-24T13:41:42.000Z</time>
      </trkpt>
      <trkpt lat="43.35534" lon="2.44858">
        <ele>483</ele>
        <time>2017-09-24T13:41:43.000Z</time>
      </trkpt>
      <trkpt lat="43.35534" lon="2.44858">
        <ele>483</ele>
        <time>2017-09-24T13:41:44.000Z</time>
      </trkpt>
      <trkpt lat="43.35535" lon="2.44857">
        <ele>483</ele>
        <time>2017-09-24T13:41:45.000Z</time>
      </trkpt>
      <trkpt lat="43.35536" lon="2.44857">
        <ele>483</ele>
        <time>2017-09-24T13:41:46.000Z</time>
      </trkpt>
      <trkpt lat="43.35537" lon="2.44857">
        <ele>483</ele>
        <time>2017-09-24T13:41:47.000Z</time>
      </trkpt>
      <trkpt lat="43.35538" lon="2.44856">
        <ele>483</ele>
        <time>2017-09-24T13:41:48.000Z</time>
      </trkpt>
      <trkpt lat="43.35539" lon="2.44856">
        <ele>483</ele>
        <time>2017-09-24T13:41:49.000Z</time>
      </trkpt>
      <trkpt lat="43.3554" lon="2.44856">
        <ele>483</ele>
        <time>2017-09-24T13:41:50.000Z</time>
      </trkpt>
      <trkpt lat="43.35541" lon="2.44856">
        <ele>483</ele>
        <time>2017-09-24T13:41:51.000Z</time>
      </trkpt>
      <trkpt lat="43.35542" lon="2.44855">
        <ele>483</ele>
        <time>2017-09-24T13:41:52.000Z</time>
      </trkpt>
      <trkpt lat="43.35542" lon="2.44855">
        <ele>483</ele>
        <time>2017-09-24T13:41:53.000Z</time>
      </trkpt>
      <trkpt lat="43.35543" lon="2.44855">
        <ele>483</ele>
        <time>2017-09-24T13:41:54.000Z</time>
      </trkpt>
      <trkpt lat="43.35544" lon="2.44854">
        <ele>484</ele>
        <time>2017-09-24T13:41:55.000Z</time>
      </trkpt>
      <trkpt lat="43.35545" lon="2.44854">
        <ele>484</ele>
        <time>2017-09-24T13:41:56.000Z</time>
      </trkpt>
      <trkpt lat="43.35546" lon="2.44854">
        <ele>484</ele>
        <time>2017-09-24T13:41:57.000Z</time>
      </trkpt>
      <trkpt lat="43.35547" lon="2.44853">
        <ele>484</ele>
        <time>2017-09-24T13:41:58.000Z</time>
      </trkpt>
      <trkpt lat="43.35547" lon="2.44853">
        <ele>484</ele>
        <time>2017-09-24T13:41:59.000Z</time>
      </trkpt>
      <trkpt lat="43.35548" lon="2.44852">
        <ele>484</ele>
        <time>2017-09-24T13:42:00.000Z</time>
      </trkpt>
      <trkpt lat="43.35549" lon="2.44852">
        <ele>484</ele>
        <time>2017-09-24T13:42:01.000Z</time>
      </trkpt>
      <trkpt lat="43.35549" lon="2.44852">
        <ele>484</ele>
        <time>2017-09-24T13:42:02.000Z</time>
      </trkpt>
      <trkpt lat="43.3555" lon="2.44851">
        <ele>484</ele>
        <time>2017-09-24T13:42:03.000Z</time>
      </trkpt>
      <trkpt lat="43.3555" lon="2.44851">
        <ele>484</ele>
        <time>2017-09-24T13:42:04.000Z</time>
      </trkpt>
      <trkpt lat="43.3555" lon="2.44851">
        <ele>484</ele>
        <time>2017-09-24T13:42:05.000Z</time>
      </trkpt>
      <trkpt lat="43.35551" lon="2.4485">
        <ele>484</ele>
        <time>2017-09-24T13:42:06.000Z</time>
      </trkpt>
      <trkpt lat="43.35551" lon="2.44849">
        <ele>484</ele>
        <time>2017-09-24T13:42:07.000Z</time>
      </trkpt>
      <trkpt lat="43.35552" lon="2.44849">
        <ele>484</ele>
        <time>2017-09-24T13:42:08.000Z</time>
      </trkpt>
      <trkpt lat="43.35552" lon="2.44849">
        <ele>484</ele>
        <time>2017-09-24T13:42:09.000Z</time>
      </trkpt>
      <trkpt lat="43.35552" lon="2.44849">
        <ele>484</ele>
        <time>2017-09-24T13:42:10.000Z</time>
      </trkpt>
      <trkpt lat="43.35553" lon="2.44849">
        <ele>484</ele>
        <time>2017-09-24T13:42:11.000Z</time>
      </trkpt>
      <trkpt lat="43.35553" lon="2.44849">
        <ele>484</ele>
        <time>2017-09-24T13:42:12.000Z</time>
      </trkpt>
      <trkpt lat="43.35554" lon="2.44848">
        <ele>484</ele>
        <time>2017-09-24T13:42:13.000Z</time>
      </trkpt>
      <trkpt lat="43.35554" lon="2.44848">
        <ele>484</ele>
        <time>2017-09-24T13:42:14.000Z</time>
      </trkpt>
      <trkpt lat="43.35555" lon="2.44848">
        <ele>484</ele>
        <time>2017-09-24T13:42:15.000Z</time>
      </trkpt>
      <trkpt lat="43.35555" lon="2.44847">
        <ele>484</ele>
        <time>2017-09-24T13:42:16.000Z</time>
      </trkpt>
      <trkpt lat="43.35556" lon="2.44847">
        <ele>484</ele>
        <time>2017-09-24T13:42:17.000Z</time>
      </trkpt>
      <trkpt lat="43.35556" lon="2.44846">
        <ele>485</ele>
        <time>2017-09-24T13:42:18.000Z</time>
      </trkpt>
      <trkpt lat="43.35556" lon="2.44846">
        <ele>484</ele>
        <time>2017-09-24T13:42:19.000Z</time>
      </trkpt>
      <trkpt lat="43.35557" lon="2.44846">
        <ele>484</ele>
        <time>2017-09-24T13:42:20.000Z</time>
      </trkpt>
      <trkpt lat="43.35557" lon="2.44846">
        <ele>485</ele>
        <time>2017-09-24T13:42:21.000Z</time>
      </trkpt>
      <trkpt lat="43.35558" lon="2.44846">
        <ele>485</ele>
        <time>2017-09-24T13:42:22.000Z</time>
      </trkpt>
      <trkpt lat="43.35559" lon="2.44846">
        <ele>485</ele>
        <time>2017-09-24T13:42:23.000Z</time>
      </trkpt>
      <trkpt lat="43.35559" lon="2.44845">
        <ele>485</ele>
        <time>2017-09-24T13:42:24.000Z</time>
      </trkpt>
      <trkpt lat="43.3556" lon="2.44845">
        <ele>485</ele>
        <time>2017-09-24T13:42:25.000Z</time>
      </trkpt>
      <trkpt lat="43.35561" lon="2.44845">
        <ele>485</ele>
        <time>2017-09-24T13:42:26.000Z</time>
      </trkpt>
      <trkpt lat="43.35561" lon="2.44845">
        <ele>485</ele>
        <time>2017-09-24T13:42:27.000Z</time>
      </trkpt>
      <trkpt lat="43.35562" lon="2.44844">
        <ele>485</ele>
        <time>2017-09-24T13:42:28.000Z</time>
      </trkpt>
      <trkpt lat="43.35562" lon="2.44844">
        <ele>485</ele>
        <time>2017-09-24T13:42:29.000Z</time>
      </trkpt>
      <trkpt lat="43.35563" lon="2.44844">
        <ele>485</ele>
        <time>2017-09-24T13:42:30.000Z</time>
      </trkpt>
      <trkpt lat="43.35564" lon="2.44843">
        <ele>485</ele>
        <time>2017-09-24T13:42:31.000Z</time>
      </trkpt>
      <trkpt lat="43.35565" lon="2.44843">
        <ele>485</ele>
        <time>2017-09-24T13:42:32.000Z</time>
      </trkpt>
      <trkpt lat="43.35565" lon="2.44843">
        <ele>485</ele>
        <time>2017-09-24T13:42:33.000Z</time>
      </trkpt>
      <trkpt lat="43.35566" lon="2.44843">
        <ele>485</ele>
        <time>2017-09-24T13:42:34.000Z</time>
      </trkpt>
      <trkpt lat="43.35566" lon="2.44843">
        <ele>485</ele>
        <time>2017-09-24T13:42:35.000Z</time>
      </trkpt>
      <trkpt lat="43.35563" lon="2.44803">
        <ele>493</ele>
        <time>2017-09-24T13:43:41.000Z</time>
      </trkpt>
      <trkpt lat="43.35562" lon="2.44802">
        <ele>493</ele>
        <time>2017-09-24T13:43:42.000Z</time>
      </trkpt>
      <trkpt lat="43.35562" lon="2.44801">
        <ele>493</ele>
        <time>2017-09-24T13:43:43.000Z</time>
      </trkpt>
      <trkpt lat="43.35562" lon="2.448">
        <ele>493</ele>
        <time>2017-09-24T13:43:44.000Z</time>
      </trkpt>
      <trkpt lat="43.35562" lon="2.44799">
        <ele>494</ele>
        <time>2017-09-24T13:43:45.000Z</time>
      </trkpt>
      <trkpt lat="43.35562" lon="2.44799">
        <ele>494</ele>
        <time>2017-09-24T13:43:46.000Z</time>
      </trkpt>
      <trkpt lat="43.35562" lon="2.44798">
        <ele>494</ele>
        <time>2017-09-24T13:43:47.000Z</time>
      </trkpt>
      <trkpt lat="43.35562" lon="2.44798">
        <ele>494</ele>
        <time>2017-09-24T13:43:48.000Z</time>
      </trkpt>
      <trkpt lat="43.35556" lon="2.44777">
        <ele>499</ele>
        <time>2017-09-24T13:44:19.000Z</time>
      </trkpt>
      <trkpt lat="43.35555" lon="2.44777">
        <ele>499</ele>
        <time>2017-09-24T13:44:20.000Z</time>
      </trkpt>
      <trkpt lat="43.35554" lon="2.44777">
        <ele>499</ele>
        <time>2017-09-24T13:44:21.000Z</time>
      </trkpt>
      <trkpt lat="43.35554" lon="2.44776">
        <ele>499</ele>
        <time>2017-09-24T13:44:22.000Z</time>
      </trkpt>
      <trkpt lat="43.35553" lon="2.44776">
        <ele>499</ele>
        <time>2017-09-24T13:44:23.000Z</time>
      </trkpt>
      <trkpt lat="43.35552" lon="2.44777">
        <ele>499</ele>
        <time>2017-09-24T13:44:24.000Z</time>
      </trkpt>
      <trkpt lat="43.35552" lon="2.44777">
        <ele>499</ele>
        <time>2017-09-24T13:44:25.000Z</time>
      </trkpt>
      <trkpt lat="43.35567" lon="2.44773">
        <ele>500</ele>
        <time>2017-09-24T14:04:37.000Z</time>
      </trkpt>
      <trkpt lat="43.35568" lon="2.44773">
        <ele>500</ele>
        <time>2017-09-24T14:04:38.000Z</time>
      </trkpt>
      <trkpt lat="43.35569" lon="2.44774">
        <ele>500</ele>
        <time>2017-09-24T14:04:39.000Z</time>
      </trkpt>
      <trkpt lat="43.35569" lon="2.44774">
        <ele>500</ele>
        <time>2017-09-24T14:04:40.000Z</time>
      </trkpt>
      <trkpt lat="43.3557" lon="2.44774">
        <ele>500</ele>
        <time>2017-09-24T14:04:41.000Z</time>
      </trkpt>
      <trkpt lat="43.35571" lon="2.44775">
        <ele>500</ele>
        <time>2017-09-24T14:04:42.000Z</time>
      </trkpt>
      <trkpt lat="43.35572" lon="2.44775">
        <ele>500</ele>
        <time>2017-09-24T14:04:43.000Z</time>
      </trkpt>
      <trkpt lat="43.35573" lon="2.44775">
        <ele>500</ele>
        <time>2017-09-24T14:04:44.000Z</time>
      </trkpt>
      <trkpt lat="43.35574" lon="2.44776">
        <ele>500</ele>
        <time>2017-09-24T14:04:45.000Z</time>
      </trkpt>
      <trkpt lat="43.35575" lon="2.44776">
        <ele>500</ele>
        <time>2017-09-24T14:04:46.000Z</time>
      </trkpt>
      <trkpt lat="43.35576" lon="2.44776">
        <ele>500</ele>
        <time>2017-09-24T14:04:47.000Z</time>
      </trkpt>
      <trkpt lat="43.35577" lon="2.44776">
        <ele>500</ele>
        <time>2017-09-24T14:04:48.000Z</time>
      </trkpt>
      <trkpt lat="43.35578" lon="2.44777">
        <ele>500</ele>
        <time>2017-09-24T14:04:49.000Z</time>
      </trkpt>
      <trkpt lat="43.35579" lon="2.44777">
        <ele>500</ele>
        <time>2017-09-24T14:04:50.000Z</time>
      </trkpt>
      <trkpt lat="43.3558" lon="2.44777">
        <ele>500</ele>
        <time>2017-09-24T14:04:51.000Z</time>
      </trkpt>
      <trkpt lat="43.35581" lon="2.44777">
        <ele>499</ele>
        <time>2017-09-24T14:04:52.000Z</time>
      </trkpt>
      <trkpt lat="43.35582" lon="2.44778">
        <ele>499</ele>
        <time>2017-09-24T14:04:53.000Z</time>
      </trkpt>
      <trkpt lat="43.35583" lon="2.44778">
        <ele>499</ele>
        <time>2017-09-24T14:04:54.000Z</time>
      </trkpt>
      <trkpt lat="43.35584" lon="2.44779">
        <ele>499</ele>
        <time>2017-09-24T14:04:55.000Z</time>
      </trkpt>
      <trkpt lat="43.35585" lon="2.44779">
        <ele>499</ele>
        <time>2017-09-24T14:04:56.000Z</time>
      </trkpt>
      <trkpt lat="43.35586" lon="2.44779">
        <ele>499</ele>
        <time>2017-09-24T14:04:57.000Z</time>
      </trkpt>
      <trkpt lat="43.35587" lon="2.44779">
        <ele>499</ele>
        <time>2017-09-24T14:04:58.000Z</time>
      </trkpt>
      <trkpt lat="43.35588" lon="2.4478">
        <ele>499</ele>
        <time>2017-09-24T14:04:59.000Z</time>
      </trkpt>
      <trkpt lat="43.3559" lon="2.4478">
        <ele>499</ele>
        <time>2017-09-24T14:05:00.000Z</time>
      </trkpt>
      <trkpt lat="43.3559" lon="2.4478">
        <ele>499</ele>
        <time>2017-09-24T14:05:01.000Z</time>
      </trkpt>
      <trkpt lat="43.35591" lon="2.4478">
        <ele>499</ele>
        <time>2017-09-24T14:05:02.000Z</time>
      </trkpt>
      <trkpt lat="43.35593" lon="2.44781">
        <ele>499</ele>
        <time>2017-09-24T14:05:03.000Z</time>
      </trkpt>
      <trkpt lat="43.35593" lon="2.44781">
        <ele>499</ele>
        <time>2017-09-24T14:05:04.000Z</time>
      </trkpt>
      <trkpt lat="43.35595" lon="2.44782">
        <ele>499</ele>
        <time>2017-09-24T14:05:05.000Z</time>
      </trkpt>
      <trkpt lat="43.35596" lon="2.44782">
        <ele>499</ele>
        <time>2017-09-24T14:05:06.000Z</time>
      </trkpt>
      <trkpt lat="43.35597" lon="2.44782">
        <ele>499</ele>
        <time>2017-09-24T14:05:07.000Z</time>
      </trkpt>
      <trkpt lat="43.35598" lon="2.44782">
        <ele>499</ele>
        <time>2017-09-24T14:05:08.000Z</time>
      </trkpt>
      <trkpt lat="43.35599" lon="2.44782">
        <ele>499</ele>
        <time>2017-09-24T14:05:09.000Z</time>
      </trkpt>
      <trkpt lat="43.356" lon="2.44782">
        <ele>499</ele>
        <time>2017-09-24T14:05:10.000Z</time>
      </trkpt>
      <trkpt lat="43.35601" lon="2.44782">
        <ele>499</ele>
        <time>2017-09-24T14:05:11.000Z</time>
      </trkpt>
      <trkpt lat="43.35602" lon="2.44781">
        <ele>499</ele>
        <time>2017-09-24T14:05:12.000Z</time>
      </trkpt>
      <trkpt lat="43.35603" lon="2.44781">
        <ele>499</ele>
        <time>2017-09-24T14:05:13.000Z</time>
      </trkpt>
      <trkpt lat="43.35603" lon="2.4478">
        <ele>500</ele>
        <time>2017-09-24T14:05:14.000Z</time>
      </trkpt>
      <trkpt lat="43.35604" lon="2.4478">
        <ele>500</ele>
        <time>2017-09-24T14:05:15.000Z</time>
      </trkpt>
      <trkpt lat="43.35605" lon="2.44779">
        <ele>500</ele>
        <time>2017-09-24T14:05:16.000Z</time>
      </trkpt>
      <trkpt lat="43.35606" lon="2.44779">
        <ele>500</ele>
        <time>2017-09-24T14:05:17.000Z</time>
      </trkpt>
      <trkpt lat="43.35607" lon="2.4478">
        <ele>500</ele>
        <time>2017-09-24T14:05:18.000Z</time>
      </trkpt>
      <trkpt lat="43.35608" lon="2.4478">
        <ele>500</ele>
        <time>2017-09-24T14:05:19.000Z</time>
      </trkpt>
      <trkpt lat="43.35609" lon="2.4478">
        <ele>500</ele>
        <time>2017-09-24T14:05:20.000Z</time>
      </trkpt>
      <trkpt lat="43.3561" lon="2.44781">
        <ele>500</ele>
        <time>2017-09-24T14:05:21.000Z</time>
      </trkpt>
      <trkpt lat="43.35611" lon="2.44781">
        <ele>500</ele>
        <time>2017-09-24T14:05:22.000Z</time>
      </trkpt>
      <trkpt lat="43.35612" lon="2.44781">
        <ele>500</ele>
        <time>2017-09-24T14:05:23.000Z</time>
      </trkpt>
      <trkpt lat="43.35612" lon="2.44781">
        <ele>500</ele>
        <time>2017-09-24T14:05:24.000Z</time>
      </trkpt>
      <trkpt lat="43.35613" lon="2.44781">
        <ele>500</ele>
        <time>2017-09-24T14:05:25.000Z</time>
      </trkpt>
      <trkpt lat="43.35614" lon="2.4478">
        <ele>500</ele>
        <time>2017-09-24T14:05:26.000Z</time>
      </trkpt>
      <trkpt lat="43.35615" lon="2.4478">
        <ele>500</ele>
        <time>2017-09-24T14:05:27.000Z</time>
      </trkpt>
      <trkpt lat="43.35616" lon="2.4478">
        <ele>501</ele>
        <time>2017-09-24T14:05:28.000Z</time>
      </trkpt>
      <trkpt lat="43.35617" lon="2.4478">
        <ele>501</ele>
        <time>2017-09-24T14:05:29.000Z</time>
      </trkpt>
      <trkpt lat="43.35618" lon="2.4478">
        <ele>501</ele>
        <time>2017-09-24T14:05:30.000Z</time>
      </trkpt>
      <trkpt lat="43.35619" lon="2.44779">
        <ele>501</ele>
        <time>2017-09-24T14:05:31.000Z</time>
      </trkpt>
      <trkpt lat="43.3562" lon="2.44779">
        <ele>501</ele>
        <time>2017-09-24T14:05:32.000Z</time>
      </trkpt>
      <trkpt lat="43.3562" lon="2.44778">
        <ele>501</ele>
        <time>2017-09-24T14:05:33.000Z</time>
      </trkpt>
      <trkpt lat="43.35621" lon="2.44778">
        <ele>501</ele>
        <time>2017-09-24T14:05:34.000Z</time>
      </trkpt>
      <trkpt lat="43.35622" lon="2.44778">
        <ele>502</ele>
        <time>2017-09-24T14:05:35.000Z</time>
      </trkpt>
      <trkpt lat="43.35622" lon="2.44777">
        <ele>502</ele>
        <time>2017-09-24T14:05:36.000Z</time>
      </trkpt>
      <trkpt lat="43.35623" lon="2.44777">
        <ele>502</ele>
        <time>2017-09-24T14:05:37.000Z</time>
      </trkpt>
      <trkpt lat="43.35623" lon="2.44776">
        <ele>502</ele>
        <time>2017-09-24T14:05:38.000Z</time>
      </trkpt>
      <trkpt lat="43.35624" lon="2.44775">
        <ele>502</ele>
        <time>2017-09-24T14:05:39.000Z</time>
      </trkpt>
      <trkpt lat="43.35624" lon="2.44775">
        <ele>502</ele>
        <time>2017-09-24T14:05:40.000Z</time>
      </trkpt>
      <trkpt lat="43.35624" lon="2.44775">
        <ele>502</ele>
        <time>2017-09-24T14:05:41.000Z</time>
      </trkpt>
      <trkpt lat="43.35625" lon="2.44774">
        <ele>503</ele>
        <time>2017-09-24T14:05:42.000Z</time>
      </trkpt>
      <trkpt lat="43.35625" lon="2.44774">
        <ele>503</ele>
        <time>2017-09-24T14:05:43.000Z</time>
      </trkpt>
      <trkpt lat="43.35625" lon="2.44773">
        <ele>503</ele>
        <time>2017-09-24T14:05:44.000Z</time>
      </trkpt>
      <trkpt lat="43.35626" lon="2.44772">
        <ele>503</ele>
        <time>2017-09-24T14:05:45.000Z</time>
      </trkpt>
      <trkpt lat="43.35626" lon="2.44772">
        <ele>503</ele>
        <time>2017-09-24T14:05:46.000Z</time>
      </trkpt>
      <trkpt lat="43.35612" lon="2.44762">
        <ele>505</ele>
        <time>2017-09-24T14:06:22.000Z</time>
      </trkpt>
      <trkpt lat="43.35611" lon="2.44762">
        <ele>505</ele>
        <time>2017-09-24T14:06:23.000Z</time>
      </trkpt>
      <trkpt lat="43.35611" lon="2.44762">
        <ele>505</ele>
        <time>2017-09-24T14:06:24.000Z</time>
      </trkpt>
      <trkpt lat="43.3561" lon="2.44761">
        <ele>505</ele>
        <time>2017-09-24T14:06:25.000Z</time>
      </trkpt>
      <trkpt lat="43.3561" lon="2.44761">
        <ele>505</ele>
        <time>2017-09-24T14:06:26.000Z</time>
      </trkpt>
      <trkpt lat="43.35609" lon="2.44761">
        <ele>505</ele>
        <time>2017-09-24T14:06:27.000Z</time>
      </trkpt>
      <trkpt lat="43.35608" lon="2.4476">
        <ele>505</ele>
        <time>2017-09-24T14:06:28.000Z</time>
      </trkpt>
      <trkpt lat="43.35607" lon="2.4476">
        <ele>505</ele>
        <time>2017-09-24T14:06:29.000Z</time>
      </trkpt>
      <trkpt lat="43.35607" lon="2.44759">
        <ele>505</ele>
        <time>2017-09-24T14:06:30.000Z</time>
      </trkpt>
      <trkpt lat="43.35606" lon="2.44759">
        <ele>505</ele>
        <time>2017-09-24T14:06:31.000Z</time>
      </trkpt>
      <trkpt lat="43.35605" lon="2.44758">
        <ele>505</ele>
        <time>2017-09-24T14:06:32.000Z</time>
      </trkpt>
      <trkpt lat="43.35604" lon="2.44759">
        <ele>505</ele>
        <time>2017-09-24T14:06:33.000Z</time>
      </trkpt>
      <trkpt lat="43.35604" lon="2.44758">
        <ele>505</ele>
        <time>2017-09-24T14:06:34.000Z</time>
      </trkpt>
      <trkpt lat="43.35603" lon="2.44757">
        <ele>505</ele>
        <time>2017-09-24T14:06:35.000Z</time>
      </trkpt>
      <trkpt lat="43.35602" lon="2.44757">
        <ele>505</ele>
        <time>2017-09-24T14:06:36.000Z</time>
      </trkpt>
      <trkpt lat="43.35601" lon="2.44756">
        <ele>505</ele>
        <time>2017-09-24T14:06:37.000Z</time>
      </trkpt>
      <trkpt lat="43.35601" lon="2.44756">
        <ele>506</ele>
        <time>2017-09-24T14:06:38.000Z</time>
      </trkpt>
      <trkpt lat="43.356" lon="2.44755">
        <ele>506</ele>
        <time>2017-09-24T14:06:39.000Z</time>
      </trkpt>
      <trkpt lat="43.35599" lon="2.44755">
        <ele>506</ele>
        <time>2017-09-24T14:06:40.000Z</time>
      </trkpt>
      <trkpt lat="43.35598" lon="2.44755">
        <ele>506</ele>
        <time>2017-09-24T14:06:41.000Z</time>
      </trkpt>
      <trkpt lat="43.35598" lon="2.44754">
        <ele>506</ele>
        <time>2017-09-24T14:06:42.000Z</time>
      </trkpt>
      <trkpt lat="43.35597" lon="2.44754">
        <ele>506</ele>
        <time>2017-09-24T14:06:43.000Z</time>
      </trkpt>
      <trkpt lat="43.35596" lon="2.44753">
        <ele>506</ele>
        <time>2017-09-24T14:06:44.000Z</time>
      </trkpt>
      <trkpt lat="43.35596" lon="2.44753">
        <ele>506</ele>
        <time>2017-09-24T14:06:45.000Z</time>
      </trkpt>
      <trkpt lat="43.35595" lon="2.44752">
        <ele>506</ele>
        <time>2017-09-24T14:06:46.000Z</time>
      </trkpt>
      <trkpt lat="43.35594" lon="2.44751">
        <ele>506</ele>
        <time>2017-09-24T14:06:47.000Z</time>
      </trkpt>
      <trkpt lat="43.35594" lon="2.44751">
        <ele>506</ele>
        <time>2017-09-24T14:06:48.000Z</time>
      </trkpt>
      <trkpt lat="43.35593" lon="2.44751">
        <ele>506</ele>
        <time>2017-09-24T14:06:49.000Z</time>
      </trkpt>
      <trkpt lat="43.35592" lon="2.4475">
        <ele>507</ele>
        <time>2017-09-24T14:06:50.000Z</time>
      </trkpt>
      <trkpt lat="43.35591" lon="2.4475">
        <ele>507</ele>
        <time>2017-09-24T14:06:51.000Z</time>
      </trkpt>
      <trkpt lat="43.35591" lon="2.44749">
        <ele>507</ele>
        <time>2017-09-24T14:06:52.000Z</time>
      </trkpt>
      <trkpt lat="43.3559" lon="2.44749">
        <ele>507</ele>
        <time>2017-09-24T14:06:53.000Z</time>
      </trkpt>
      <trkpt lat="43.35589" lon="2.44748">
        <ele>507</ele>
        <time>2017-09-24T14:06:54.000Z</time>
      </trkpt>
      <trkpt lat="43.35588" lon="2.44748">
        <ele>507</ele>
        <time>2017-09-24T14:06:55.000Z</time>
      </trkpt>
      <trkpt lat="43.35587" lon="2.44747">
        <ele>507</ele>
        <time>2017-09-24T14:06:56.000Z</time>
      </trkpt>
      <trkpt lat="43.35586" lon="2.44746">
        <ele>507</ele>
        <time>2017-09-24T14:06:57.000Z</time>
      </trkpt>
      <trkpt lat="43.35586" lon="2.44746">
        <ele>507</ele>
        <time>2017-09-24T14:06:58.000Z</time>
      </trkpt>
      <trkpt lat="43.35585" lon="2.44745">
        <ele>507</ele>
        <time>2017-09-24T14:06:59.000Z</time>
      </trkpt>
      <trkpt lat="43.35584" lon="2.44745">
        <ele>507</ele>
        <time>2017-09-24T14:07:00.000Z</time>
      </trkpt>
      <trkpt lat="43.35583" lon="2.44744">
        <ele>507</ele>
        <time>2017-09-24T14:07:01.000Z</time>
      </trkpt>
      <trkpt lat="43.35582" lon="2.44743">
        <ele>507</ele>
        <time>2017-09-24T14:07:02.000Z</time>
      </trkpt>
      <trkpt lat="43.35582" lon="2.44743">
        <ele>508</ele>
        <time>2017-09-24T14:07:03.000Z</time>
      </trkpt>
      <trkpt lat="43.35581" lon="2.44742">
        <ele>508</ele>
        <time>2017-09-24T14:07:04.000Z</time>
      </trkpt>
      <trkpt lat="43.3558" lon="2.44742">
        <ele>508</ele>
        <time>2017-09-24T14:07:05.000Z</time>
      </trkpt>
      <trkpt lat="43.35579" lon="2.44741">
        <ele>508</ele>
        <time>2017-09-24T14:07:06.000Z</time>
      </trkpt>
      <trkpt lat="43.35578" lon="2.44741">
        <ele>508</ele>
        <time>2017-09-24T14:07:07.000Z</time>
      </trkpt>
      <trkpt lat="43.35577" lon="2.4474">
        <ele>508</ele>
        <time>2017-09-24T14:07:08.000Z</time>
      </trkpt>
      <trkpt lat="43.35576" lon="2.4474">
        <ele>508</ele>
        <time>2017-09-24T14:07:09.000Z</time>
      </trkpt>
      <trkpt lat="43.35575" lon="2.4474">
        <ele>508</ele>
        <time>2017-09-24T14:07:10.000Z</time>
      </trkpt>
      <trkpt lat="43.35574" lon="2.44739">
        <ele>508</ele>
        <time>2017-09-24T14:07:11.000Z</time>
      </trkpt>
      <trkpt lat="43.35573" lon="2.44739">
        <ele>508</ele>
        <time>2017-09-24T14:07:12.000Z</time>
      </trkpt>
      <trkpt lat="43.35572" lon="2.44738">
        <ele>508</ele>
        <time>2017-09-24T14:07:13.000Z</time>
      </trkpt>
      <trkpt lat="43.35571" lon="2.44737">
        <ele>508</ele>
        <time>2017-09-24T14:07:14.000Z</time>
      </trkpt>
      <trkpt lat="43.3557" lon="2.44737">
        <ele>508</ele>
        <time>2017-09-24T14:07:15.000Z</time>
      </trkpt>
      <trkpt lat="43.35569" lon="2.44736">
        <ele>508</ele>
        <time>2017-09-24T14:07:16.000Z</time>
      </trkpt>
      <trkpt lat="43.35569" lon="2.44736">
        <ele>508</ele>
        <time>2017-09-24T14:07:17.000Z</time>
      </trkpt>
      <trkpt lat="43.35568" lon="2.44736">
        <ele>508</ele>
        <time>2017-09-24T14:07:18.000Z</time>
      </trkpt>
      <trkpt lat="43.35567" lon="2.44735">
        <ele>508</ele>
        <time>2017-09-24T14:07:19.000Z</time>
      </trkpt>
      <trkpt lat="43.35566" lon="2.44734">
        <ele>508</ele>
        <time>2017-09-24T14:07:20.000Z</time>
      </trkpt>
      <trkpt lat="43.35566" lon="2.44733">
        <ele>509</ele>
        <time>2017-09-24T14:07:21.000Z</time>
      </trkpt>
      <trkpt lat="43.35565" lon="2.44733">
        <ele>509</ele>
        <time>2017-09-24T14:07:22.000Z</time>
      </trkpt>
      <trkpt lat="43.35564" lon="2.44732">
        <ele>509</ele>
        <time>2017-09-24T14:07:23.000Z</time>
      </trkpt>
      <trkpt lat="43.35564" lon="2.44732">
        <ele>509</ele>
        <time>2017-09-24T14:07:24.000Z</time>
      </trkpt>
      <trkpt lat="43.35563" lon="2.44731">
        <ele>509</ele>
        <time>2017-09-24T14:07:25.000Z</time>
      </trkpt>
      <trkpt lat="43.35562" lon="2.44731">
        <ele>509</ele>
        <time>2017-09-24T14:07:26.000Z</time>
      </trkpt>
      <trkpt lat="43.35562" lon="2.44731">
        <ele>509</ele>
        <time>2017-09-24T14:07:27.000Z</time>
      </trkpt>
      <trkpt lat="43.35561" lon="2.44731">
        <ele>509</ele>
        <time>2017-09-24T14:07:28.000Z</time>
      </trkpt>
      <trkpt lat="43.35561" lon="2.4473">
        <ele>509</ele>
        <time>2017-09-24T14:07:29.000Z</time>
      </trkpt>
      <trkpt lat="43.3556" lon="2.44729">
        <ele>509</ele>
        <time>2017-09-24T14:07:30.000Z</time>
      </trkpt>
      <trkpt lat="43.35559" lon="2.44729">
        <ele>509</ele>
        <time>2017-09-24T14:07:31.000Z</time>
      </trkpt>
      <trkpt lat="43.35559" lon="2.44728">
        <ele>509</ele>
        <time>2017-09-24T14:07:32.000Z</time>
      </trkpt>
      <trkpt lat="43.35558" lon="2.44727">
        <ele>509</ele>
        <time>2017-09-24T14:07:33.000Z</time>
      </trkpt>
      <trkpt lat="43.35558" lon="2.44727">
        <ele>509</ele>
        <time>2017-09-24T14:07:34.000Z</time>
      </trkpt>
      <trkpt lat="43.35557" lon="2.44727">
        <ele>509</ele>
        <time>2017-09-24T14:07:35.000Z</time>
      </trkpt>
      <trkpt lat="43.35556" lon="2.44727">
        <ele>509</ele>
        <time>2017-09-24T14:07:36.000Z</time>
      </trkpt>
      <trkpt lat="43.35556" lon="2.44726">
        <ele>509</ele>
        <time>2017-09-24T14:07:37.000Z</time>
      </trkpt>
      <trkpt lat="43.35555" lon="2.44727">
        <ele>509</ele>
        <time>2017-09-24T14:07:38.000Z</time>
      </trkpt>
      <trkpt lat="43.35555" lon="2.44726">
        <ele>509</ele>
        <time>2017-09-24T14:07:39.000Z</time>
      </trkpt>
      <trkpt lat="43.35554" lon="2.44726">
        <ele>509</ele>
        <time>2017-09-24T14:07:40.000Z</time>
      </trkpt>
      <trkpt lat="43.35554" lon="2.44725">
        <ele>509</ele>
        <time>2017-09-24T14:07:41.000Z</time>
      </trkpt>
      <trkpt lat="43.35553" lon="2.44725">
        <ele>509</ele>
        <time>2017-09-24T14:07:42.000Z</time>
      </trkpt>
      <trkpt lat="43.35553" lon="2.44725">
        <ele>509</ele>
        <time>2017-09-24T14:07:43.000Z</time>
      </trkpt>
      <trkpt lat="43.35552" lon="2.44724">
        <ele>509</ele>
        <time>2017-09-24T14:07:44.000Z</time>
      </trkpt>
      <trkpt lat="43.35551" lon="2.44724">
        <ele>510</ele>
        <time>2017-09-24T14:07:45.000Z</time>
      </trkpt>
      <trkpt lat="43.35551" lon="2.44724">
        <ele>510</ele>
        <time>2017-09-24T14:07:46.000Z</time>
      </trkpt>
      <trkpt lat="43.3555" lon="2.44724">
        <ele>510</ele>
        <time>2017-09-24T14:07:47.000Z</time>
      </trkpt>
      <trkpt lat="43.35549" lon="2.44723">
        <ele>510</ele>
        <time>2017-09-24T14:07:48.000Z</time>
      </trkpt>
      <trkpt lat="43.35549" lon="2.44723">
        <ele>510</ele>
        <time>2017-09-24T14:07:49.000Z</time>
      </trkpt>
      <trkpt lat="43.35549" lon="2.44723">
        <ele>510</ele>
        <time>2017-09-24T14:07:50.000Z</time>
      </trkpt>
      <trkpt lat="43.35548" lon="2.44722">
        <ele>510</ele>
        <time>2017-09-24T14:07:51.000Z</time>
      </trkpt>
      <trkpt lat="43.35548" lon="2.44722">
        <ele>510</ele>
        <time>2017-09-24T14:07:52.000Z</time>
      </trkpt>
      <trkpt lat="43.35547" lon="2.44722">
        <ele>510</ele>
        <time>2017-09-24T14:07:53.000Z</time>
      </trkpt>
      <trkpt lat="43.35546" lon="2.44721">
        <ele>510</ele>
        <time>2017-09-24T14:07:54.000Z</time>
      </trkpt>
      <trkpt lat="43.35546" lon="2.44721">
        <ele>510</ele>
        <time>2017-09-24T14:07:55.000Z</time>
      </trkpt>
      <trkpt lat="43.35545" lon="2.44721">
        <ele>510</ele>
        <time>2017-09-24T14:07:56.000Z</time>
      </trkpt>
      <trkpt lat="43.35545" lon="2.4472">
        <ele>510</ele>
        <time>2017-09-24T14:07:57.000Z</time>
      </trkpt>
      <trkpt lat="43.35544" lon="2.4472">
        <ele>510</ele>
        <time>2017-09-24T14:07:58.000Z</time>
      </trkpt>
      <trkpt lat="43.35543" lon="2.44719">
        <ele>510</ele>
        <time>2017-09-24T14:07:59.000Z</time>
      </trkpt>
      <trkpt lat="43.35543" lon="2.44719">
        <ele>510</ele>
        <time>2017-09-24T14:08:00.000Z</time>
      </trkpt>
      <trkpt lat="43.35542" lon="2.44718">
        <ele>510</ele>
        <time>2017-09-24T14:08:01.000Z</time>
      </trkpt>
      <trkpt lat="43.35542" lon="2.44718">
        <ele>510</ele>
        <time>2017-09-24T14:08:02.000Z</time>
      </trkpt>
      <trkpt lat="43.35541" lon="2.44717">
        <ele>510</ele>
        <time>2017-09-24T14:08:03.000Z</time>
      </trkpt>
      <trkpt lat="43.35541" lon="2.44716">
        <ele>510</ele>
        <time>2017-09-24T14:08:04.000Z</time>
      </trkpt>
      <trkpt lat="43.3554" lon="2.44716">
        <ele>510</ele>
        <time>2017-09-24T14:08:05.000Z</time>
      </trkpt>
      <trkpt lat="43.35539" lon="2.44715">
        <ele>510</ele>
        <time>2017-09-24T14:08:06.000Z</time>
      </trkpt>
      <trkpt lat="43.35539" lon="2.44715">
        <ele>511</ele>
        <time>2017-09-24T14:08:07.000Z</time>
      </trkpt>
      <trkpt lat="43.35538" lon="2.44714">
        <ele>511</ele>
        <time>2017-09-24T14:08:08.000Z</time>
      </trkpt>
      <trkpt lat="43.35538" lon="2.44714">
        <ele>511</ele>
        <time>2017-09-24T14:08:09.000Z</time>
      </trkpt>
      <trkpt lat="43.35537" lon="2.44713">
        <ele>511</ele>
        <time>2017-09-24T14:08:10.000Z</time>
      </trkpt>
      <trkpt lat="43.35536" lon="2.44712">
        <ele>511</ele>
        <time>2017-09-24T14:08:11.000Z</time>
      </trkpt>
      <trkpt lat="43.35536" lon="2.44712">
        <ele>511</ele>
        <time>2017-09-24T14:08:12.000Z</time>
      </trkpt>
      <trkpt lat="43.35535" lon="2.44711">
        <ele>511</ele>
        <time>2017-09-24T14:08:13.000Z</time>
      </trkpt>
      <trkpt lat="43.35535" lon="2.4471">
        <ele>511</ele>
        <time>2017-09-24T14:08:14.000Z</time>
      </trkpt>
      <trkpt lat="43.35534" lon="2.4471">
        <ele>511</ele>
        <time>2017-09-24T14:08:15.000Z</time>
      </trkpt>
      <trkpt lat="43.35533" lon="2.44709">
        <ele>511</ele>
        <time>2017-09-24T14:08:16.000Z</time>
      </trkpt>
      <trkpt lat="43.35533" lon="2.44709">
        <ele>511</ele>
        <time>2017-09-24T14:08:17.000Z</time>
      </trkpt>
      <trkpt lat="43.35532" lon="2.44708">
        <ele>511</ele>
        <time>2017-09-24T14:08:18.000Z</time>
      </trkpt>
      <trkpt lat="43.35531" lon="2.44707">
        <ele>511</ele>
        <time>2017-09-24T14:08:19.000Z</time>
      </trkpt>
      <trkpt lat="43.35531" lon="2.44706">
        <ele>512</ele>
        <time>2017-09-24T14:08:20.000Z</time>
      </trkpt>
      <trkpt lat="43.3553" lon="2.44706">
        <ele>512</ele>
        <time>2017-09-24T14:08:21.000Z</time>
      </trkpt>
      <trkpt lat="43.3553" lon="2.44705">
        <ele>512</ele>
        <time>2017-09-24T14:08:22.000Z</time>
      </trkpt>
      <trkpt lat="43.35529" lon="2.44704">
        <ele>512</ele>
        <time>2017-09-24T14:08:23.000Z</time>
      </trkpt>
      <trkpt lat="43.35528" lon="2.44703">
        <ele>512</ele>
        <time>2017-09-24T14:08:24.000Z</time>
      </trkpt>
      <trkpt lat="43.35528" lon="2.44703">
        <ele>512</ele>
        <time>2017-09-24T14:08:25.000Z</time>
      </trkpt>
      <trkpt lat="43.35527" lon="2.44702">
        <ele>512</ele>
        <time>2017-09-24T14:08:26.000Z</time>
      </trkpt>
      <trkpt lat="43.35526" lon="2.44701">
        <ele>512</ele>
        <time>2017-09-24T14:08:27.000Z</time>
      </trkpt>
      <trkpt lat="43.35526" lon="2.447">
        <ele>512</ele>
        <time>2017-09-24T14:08:28.000Z</time>
      </trkpt>
      <trkpt lat="43.35525" lon="2.447">
        <ele>512</ele>
        <time>2017-09-24T14:08:29.000Z</time>
      </trkpt>
      <trkpt lat="43.35524" lon="2.44699">
        <ele>513</ele>
        <time>2017-09-24T14:08:30.000Z</time>
      </trkpt>
      <trkpt lat="43.35524" lon="2.44698">
        <ele>513</ele>
        <time>2017-09-24T14:08:31.000Z</time>
      </trkpt>
      <trkpt lat="43.35523" lon="2.44697">
        <ele>513</ele>
        <time>2017-09-24T14:08:32.000Z</time>
      </trkpt>
      <trkpt lat="43.35523" lon="2.44696">
        <ele>513</ele>
        <time>2017-09-24T14:08:33.000Z</time>
      </trkpt>
      <trkpt lat="43.35522" lon="2.44695">
        <ele>513</ele>
        <time>2017-09-24T14:08:34.000Z</time>
      </trkpt>
      <trkpt lat="43.35522" lon="2.44695">
        <ele>513</ele>
        <time>2017-09-24T14:08:35.000Z</time>
      </trkpt>
      <trkpt lat="43.35521" lon="2.44694">
        <ele>513</ele>
        <time>2017-09-24T14:08:36.000Z</time>
      </trkpt>
      <trkpt lat="43.35521" lon="2.44693">
        <ele>513</ele>
        <time>2017-09-24T14:08:37.000Z</time>
      </trkpt>
      <trkpt lat="43.3552" lon="2.44692">
        <ele>513</ele>
        <time>2017-09-24T14:08:38.000Z</time>
      </trkpt>
      <trkpt lat="43.35519" lon="2.44692">
        <ele>513</ele>
        <time>2017-09-24T14:08:39.000Z</time>
      </trkpt>
      <trkpt lat="43.35519" lon="2.44691">
        <ele>513</ele>
        <time>2017-09-24T14:08:40.000Z</time>
      </trkpt>
      <trkpt lat="43.35518" lon="2.4469">
        <ele>514</ele>
        <time>2017-09-24T14:08:41.000Z</time>
      </trkpt>
      <trkpt lat="43.35518" lon="2.4469">
        <ele>514</ele>
        <time>2017-09-24T14:08:42.000Z</time>
      </trkpt>
      <trkpt lat="43.35517" lon="2.4469">
        <ele>514</ele>
        <time>2017-09-24T14:08:43.000Z</time>
      </trkpt>
      <trkpt lat="43.35516" lon="2.44689">
        <ele>514</ele>
        <time>2017-09-24T14:08:44.000Z</time>
      </trkpt>
      <trkpt lat="43.35516" lon="2.44689">
        <ele>514</ele>
        <time>2017-09-24T14:08:45.000Z</time>
      </trkpt>
      <trkpt lat="43.35515" lon="2.44688">
        <ele>514</ele>
        <time>2017-09-24T14:08:46.000Z</time>
      </trkpt>
      <trkpt lat="43.35515" lon="2.44688">
        <ele>514</ele>
        <time>2017-09-24T14:08:47.000Z</time>
      </trkpt>
      <trkpt lat="43.35514" lon="2.44687">
        <ele>514</ele>
        <time>2017-09-24T14:08:48.000Z</time>
      </trkpt>
      <trkpt lat="43.35513" lon="2.44686">
        <ele>514</ele>
        <time>2017-09-24T14:08:49.000Z</time>
      </trkpt>
      <trkpt lat="43.35513" lon="2.44686">
        <ele>514</ele>
        <time>2017-09-24T14:08:50.000Z</time>
      </trkpt>
      <trkpt lat="43.35512" lon="2.44686">
        <ele>514</ele>
        <time>2017-09-24T14:08:51.000Z</time>
      </trkpt>
      <trkpt lat="43.35512" lon="2.44685">
        <ele>514</ele>
        <time>2017-09-24T14:08:52.000Z</time>
      </trkpt>
      <trkpt lat="43.35512" lon="2.44685">
        <ele>515</ele>
        <time>2017-09-24T14:08:53.000Z</time>
      </trkpt>
      <trkpt lat="43.35511" lon="2.44684">
        <ele>515</ele>
        <time>2017-09-24T14:08:54.000Z</time>
      </trkpt>
      <trkpt lat="43.35511" lon="2.44683">
        <ele>515</ele>
        <time>2017-09-24T14:08:55.000Z</time>
      </trkpt>
      <trkpt lat="43.3551" lon="2.44683">
        <ele>515</ele>
        <time>2017-09-24T14:08:56.000Z</time>
      </trkpt>
      <trkpt lat="43.35509" lon="2.44682">
        <ele>515</ele>
        <time>2017-09-24T14:08:57.000Z</time>
      </trkpt>
      <trkpt lat="43.35509" lon="2.44681">
        <ele>515</ele>
        <time>2017-09-24T14:08:58.000Z</time>
      </trkpt>
      <trkpt lat="43.35508" lon="2.44681">
        <ele>515</ele>
        <time>2017-09-24T14:08:59.000Z</time>
      </trkpt>
      <trkpt lat="43.35507" lon="2.4468">
        <ele>515</ele>
        <time>2017-09-24T14:09:00.000Z</time>
      </trkpt>
      <trkpt lat="43.35507" lon="2.4468">
        <ele>516</ele>
        <time>2017-09-24T14:09:01.000Z</time>
      </trkpt>
      <trkpt lat="43.35506" lon="2.4468">
        <ele>516</ele>
        <time>2017-09-24T14:09:02.000Z</time>
      </trkpt>
      <trkpt lat="43.35506" lon="2.44679">
        <ele>516</ele>
        <time>2017-09-24T14:09:03.000Z</time>
      </trkpt>
      <trkpt lat="43.35505" lon="2.44679">
        <ele>516</ele>
        <time>2017-09-24T14:09:04.000Z</time>
      </trkpt>
      <trkpt lat="43.35504" lon="2.44678">
        <ele>516</ele>
        <time>2017-09-24T14:09:05.000Z</time>
      </trkpt>
      <trkpt lat="43.35504" lon="2.44678">
        <ele>516</ele>
        <time>2017-09-24T14:09:06.000Z</time>
      </trkpt>
      <trkpt lat="43.35503" lon="2.44677">
        <ele>516</ele>
        <time>2017-09-24T14:09:07.000Z</time>
      </trkpt>
      <trkpt lat="43.35503" lon="2.44677">
        <ele>516</ele>
        <time>2017-09-24T14:09:08.000Z</time>
      </trkpt>
      <trkpt lat="43.35503" lon="2.44676">
        <ele>516</ele>
        <time>2017-09-24T14:09:09.000Z</time>
      </trkpt>
      <trkpt lat="43.35503" lon="2.44676">
        <ele>517</ele>
        <time>2017-09-24T14:09:10.000Z</time>
      </trkpt>
      <trkpt lat="43.35502" lon="2.44675">
        <ele>517</ele>
        <time>2017-09-24T14:09:11.000Z</time>
      </trkpt>
      <trkpt lat="43.35502" lon="2.44675">
        <ele>517</ele>
        <time>2017-09-24T14:09:12.000Z</time>
      </trkpt>
      <trkpt lat="43.35501" lon="2.44674">
        <ele>517</ele>
        <time>2017-09-24T14:09:13.000Z</time>
      </trkpt>
      <trkpt lat="43.35501" lon="2.44673">
        <ele>517</ele>
        <time>2017-09-24T14:09:14.000Z</time>
      </trkpt>
      <trkpt lat="43.35501" lon="2.44672">
        <ele>517</ele>
        <time>2017-09-24T14:09:15.000Z</time>
      </trkpt>
      <trkpt lat="43.355" lon="2.44672">
        <ele>517</ele>
        <time>2017-09-24T14:09:16.000Z</time>
      </trkpt>
      <trkpt lat="43.355" lon="2.44671">
        <ele>517</ele>
        <time>2017-09-24T14:09:17.000Z</time>
      </trkpt>
      <trkpt lat="43.355" lon="2.44671">
        <ele>517</ele>
        <time>2017-09-24T14:09:18.000Z</time>
      </trkpt>
      <trkpt lat="43.35496" lon="2.44669">
        <ele>518</ele>
        <time>2017-09-24T14:09:31.000Z</time>
      </trkpt>
      <trkpt lat="43.35495" lon="2.44668">
        <ele>518</ele>
        <time>2017-09-24T14:09:32.000Z</time>
      </trkpt>
      <trkpt lat="43.35495" lon="2.44668">
        <ele>518</ele>
        <time>2017-09-24T14:09:33.000Z</time>
      </trkpt>
      <trkpt lat="43.35494" lon="2.44668">
        <ele>518</ele>
        <time>2017-09-24T14:09:34.000Z</time>
      </trkpt>
      <trkpt lat="43.35494" lon="2.44668">
        <ele>518</ele>
        <time>2017-09-24T14:09:35.000Z</time>
      </trkpt>
      <trkpt lat="43.35493" lon="2.44668">
        <ele>518</ele>
        <time>2017-09-24T14:09:36.000Z</time>
      </trkpt>
      <trkpt lat="43.35492" lon="2.44669">
        <ele>518</ele>
        <time>2017-09-24T14:09:37.000Z</time>
      </trkpt>
      <trkpt lat="43.35492" lon="2.44669">
        <ele>518</ele>
        <time>2017-09-24T14:09:38.000Z</time>
      </trkpt>
      <trkpt lat="43.35491" lon="2.44669">
        <ele>519</ele>
        <time>2017-09-24T14:09:39.000Z</time>
      </trkpt>
      <trkpt lat="43.3549" lon="2.44668">
        <ele>519</ele>
        <time>2017-09-24T14:09:40.000Z</time>
      </trkpt>
      <trkpt lat="43.35489" lon="2.44668">
        <ele>519</ele>
        <time>2017-09-24T14:09:41.000Z</time>
      </trkpt>
      <trkpt lat="43.35489" lon="2.44668">
        <ele>519</ele>
        <time>2017-09-24T14:09:42.000Z</time>
      </trkpt>
      <trkpt lat="43.35488" lon="2.44668">
        <ele>519</ele>
        <time>2017-09-24T14:09:43.000Z</time>
      </trkpt>
      <trkpt lat="43.35487" lon="2.44667">
        <ele>519</ele>
        <time>2017-09-24T14:09:44.000Z</time>
      </trkpt>
      <trkpt lat="43.35486" lon="2.44667">
        <ele>519</ele>
        <time>2017-09-24T14:09:45.000Z</time>
      </trkpt>
      <trkpt lat="43.35486" lon="2.44666">
        <ele>519</ele>
        <time>2017-09-24T14:09:46.000Z</time>
      </trkpt>
      <trkpt lat="43.35485" lon="2.44667">
        <ele>519</ele>
        <time>2017-09-24T14:09:47.000Z</time>
      </trkpt>
      <trkpt lat="43.35484" lon="2.44666">
        <ele>520</ele>
        <time>2017-09-24T14:09:48.000Z</time>
      </trkpt>
      <trkpt lat="43.35483" lon="2.44665">
        <ele>520</ele>
        <time>2017-09-24T14:09:49.000Z</time>
      </trkpt>
      <trkpt lat="43.35483" lon="2.44665">
        <ele>520</ele>
        <time>2017-09-24T14:09:50.000Z</time>
      </trkpt>
      <trkpt lat="43.35482" lon="2.44664">
        <ele>520</ele>
        <time>2017-09-24T14:09:51.000Z</time>
      </trkpt>
      <trkpt lat="43.35482" lon="2.44664">
        <ele>520</ele>
        <time>2017-09-24T14:09:52.000Z</time>
      </trkpt>
      <trkpt lat="43.35482" lon="2.44662">
        <ele>519</ele>
        <time>2017-09-24T14:09:53.000Z</time>
      </trkpt>
      <trkpt lat="43.35481" lon="2.44661">
        <ele>519</ele>
        <time>2017-09-24T14:09:54.000Z</time>
      </trkpt>
      <trkpt lat="43.35481" lon="2.4466">
        <ele>519</ele>
        <time>2017-09-24T14:09:55.000Z</time>
      </trkpt>
      <trkpt lat="43.35481" lon="2.44659">
        <ele>519</ele>
        <time>2017-09-24T14:09:56.000Z</time>
      </trkpt>
      <trkpt lat="43.35482" lon="2.44658">
        <ele>519</ele>
        <time>2017-09-24T14:09:57.000Z</time>
      </trkpt>
      <trkpt lat="43.35482" lon="2.44657">
        <ele>519</ele>
        <time>2017-09-24T14:09:58.000Z</time>
      </trkpt>
      <trkpt lat="43.35482" lon="2.44656">
        <ele>519</ele>
        <time>2017-09-24T14:09:59.000Z</time>
      </trkpt>
      <trkpt lat="43.35483" lon="2.44656">
        <ele>519</ele>
        <time>2017-09-24T14:10:00.000Z</time>
      </trkpt>
      <trkpt lat="43.35483" lon="2.44655">
        <ele>519</ele>
        <time>2017-09-24T14:10:01.000Z</time>
      </trkpt>
      <trkpt lat="43.35484" lon="2.44654">
        <ele>518</ele>
        <time>2017-09-24T14:10:02.000Z</time>
      </trkpt>
      <trkpt lat="43.35485" lon="2.44653">
        <ele>518</ele>
        <time>2017-09-24T14:10:03.000Z</time>
      </trkpt>
      <trkpt lat="43.35485" lon="2.44652">
        <ele>518</ele>
        <time>2017-09-24T14:10:04.000Z</time>
      </trkpt>
      <trkpt lat="43.35486" lon="2.44651">
        <ele>518</ele>
        <time>2017-09-24T14:10:05.000Z</time>
      </trkpt>
      <trkpt lat="43.35487" lon="2.44651">
        <ele>518</ele>
        <time>2017-09-24T14:10:06.000Z</time>
      </trkpt>
      <trkpt lat="43.35487" lon="2.4465">
        <ele>518</ele>
        <time>2017-09-24T14:10:07.000Z</time>
      </trkpt>
      <trkpt lat="43.35488" lon="2.44649">
        <ele>518</ele>
        <time>2017-09-24T14:10:08.000Z</time>
      </trkpt>
      <trkpt lat="43.35488" lon="2.44649">
        <ele>518</ele>
        <time>2017-09-24T14:10:09.000Z</time>
      </trkpt>
      <trkpt lat="43.35489" lon="2.44648">
        <ele>517</ele>
        <time>2017-09-24T14:10:10.000Z</time>
      </trkpt>
      <trkpt lat="43.35489" lon="2.44647">
        <ele>517</ele>
        <time>2017-09-24T14:10:11.000Z</time>
      </trkpt>
      <trkpt lat="43.3549" lon="2.44646">
        <ele>517</ele>
        <time>2017-09-24T14:10:12.000Z</time>
      </trkpt>
      <trkpt lat="43.35491" lon="2.44645">
        <ele>517</ele>
        <time>2017-09-24T14:10:13.000Z</time>
      </trkpt>
      <trkpt lat="43.35491" lon="2.44644">
        <ele>517</ele>
        <time>2017-09-24T14:10:14.000Z</time>
      </trkpt>
      <trkpt lat="43.35492" lon="2.44643">
        <ele>517</ele>
        <time>2017-09-24T14:10:15.000Z</time>
      </trkpt>
      <trkpt lat="43.35493" lon="2.44641">
        <ele>517</ele>
        <time>2017-09-24T14:10:16.000Z</time>
      </trkpt>
      <trkpt lat="43.35495" lon="2.4464">
        <ele>516</ele>
        <time>2017-09-24T14:10:17.000Z</time>
      </trkpt>
      <trkpt lat="43.35496" lon="2.4464">
        <ele>516</ele>
        <time>2017-09-24T14:10:18.000Z</time>
      </trkpt>
      <trkpt lat="43.35497" lon="2.44639">
        <ele>516</ele>
        <time>2017-09-24T14:10:19.000Z</time>
      </trkpt>
      <trkpt lat="43.35498" lon="2.44638">
        <ele>516</ele>
        <time>2017-09-24T14:10:20.000Z</time>
      </trkpt>
      <trkpt lat="43.35499" lon="2.44637">
        <ele>516</ele>
        <time>2017-09-24T14:10:21.000Z</time>
      </trkpt>
      <trkpt lat="43.355" lon="2.44636">
        <ele>516</ele>
        <time>2017-09-24T14:10:22.000Z</time>
      </trkpt>
      <trkpt lat="43.35501" lon="2.44634">
        <ele>516</ele>
        <time>2017-09-24T14:10:23.000Z</time>
      </trkpt>
      <trkpt lat="43.35502" lon="2.44633">
        <ele>515</ele>
        <time>2017-09-24T14:10:24.000Z</time>
      </trkpt>
      <trkpt lat="43.35503" lon="2.44632">
        <ele>515</ele>
        <time>2017-09-24T14:10:25.000Z</time>
      </trkpt>
      <trkpt lat="43.35504" lon="2.4463">
        <ele>515</ele>
        <time>2017-09-24T14:10:26.000Z</time>
      </trkpt>
      <trkpt lat="43.35505" lon="2.44629">
        <ele>515</ele>
        <time>2017-09-24T14:10:27.000Z</time>
      </trkpt>
      <trkpt lat="43.35506" lon="2.44628">
        <ele>515</ele>
        <time>2017-09-24T14:10:28.000Z</time>
      </trkpt>
      <trkpt lat="43.35507" lon="2.44626">
        <ele>515</ele>
        <time>2017-09-24T14:10:29.000Z</time>
      </trkpt>
      <trkpt lat="43.35508" lon="2.44625">
        <ele>514</ele>
        <time>2017-09-24T14:10:30.000Z</time>
      </trkpt>
      <trkpt lat="43.35508" lon="2.44624">
        <ele>514</ele>
        <time>2017-09-24T14:10:31.000Z</time>
      </trkpt>
      <trkpt lat="43.35509" lon="2.44622">
        <ele>514</ele>
        <time>2017-09-24T14:10:32.000Z</time>
      </trkpt>
      <trkpt lat="43.35509" lon="2.44621">
        <ele>514</ele>
        <time>2017-09-24T14:10:33.000Z</time>
      </trkpt>
      <trkpt lat="43.35509" lon="2.4462">
        <ele>514</ele>
        <time>2017-09-24T14:10:34.000Z</time>
      </trkpt>
      <trkpt lat="43.35509" lon="2.4462">
        <ele>514</ele>
        <time>2017-09-24T14:10:35.000Z</time>
      </trkpt>
      <trkpt lat="43.35509" lon="2.44619">
        <ele>514</ele>
        <time>2017-09-24T14:10:36.000Z</time>
      </trkpt>
      <trkpt lat="43.35509" lon="2.44619">
        <ele>514</ele>
        <time>2017-09-24T14:10:37.000Z</time>
      </trkpt>
      <trkpt lat="43.35505" lon="2.44614">
        <ele>514</ele>
        <time>2017-09-24T14:10:45.000Z</time>
      </trkpt>
      <trkpt lat="43.35506" lon="2.44612">
        <ele>514</ele>
        <time>2017-09-24T14:10:46.000Z</time>
      </trkpt>
      <trkpt lat="43.35506" lon="2.4461">
        <ele>513</ele>
        <time>2017-09-24T14:10:47.000Z</time>
      </trkpt>
      <trkpt lat="43.35506" lon="2.44609">
        <ele>513</ele>
        <time>2017-09-24T14:10:48.000Z</time>
      </trkpt>
      <trkpt lat="43.35507" lon="2.44608">
        <ele>513</ele>
        <time>2017-09-24T14:10:49.000Z</time>
      </trkpt>
      <trkpt lat="43.35507" lon="2.44606">
        <ele>513</ele>
        <time>2017-09-24T14:10:50.000Z</time>
      </trkpt>
      <trkpt lat="43.35507" lon="2.44605">
        <ele>513</ele>
        <time>2017-09-24T14:10:51.000Z</time>
      </trkpt>
      <trkpt lat="43.35508" lon="2.44603">
        <ele>513</ele>
        <time>2017-09-24T14:10:52.000Z</time>
      </trkpt>
      <trkpt lat="43.35508" lon="2.44602">
        <ele>513</ele>
        <time>2017-09-24T14:10:53.000Z</time>
      </trkpt>
      <trkpt lat="43.35509" lon="2.44601">
        <ele>513</ele>
        <time>2017-09-24T14:10:54.000Z</time>
      </trkpt>
      <trkpt lat="43.35509" lon="2.446">
        <ele>513</ele>
        <time>2017-09-24T14:10:55.000Z</time>
      </trkpt>
      <trkpt lat="43.35509" lon="2.44598">
        <ele>512</ele>
        <time>2017-09-24T14:10:56.000Z</time>
      </trkpt>
      <trkpt lat="43.35509" lon="2.44597">
        <ele>512</ele>
        <time>2017-09-24T14:10:57.000Z</time>
      </trkpt>
      <trkpt lat="43.35509" lon="2.44595">
        <ele>512</ele>
        <time>2017-09-24T14:10:58.000Z</time>
      </trkpt>
      <trkpt lat="43.35509" lon="2.44594">
        <ele>512</ele>
        <time>2017-09-24T14:10:59.000Z</time>
      </trkpt>
      <trkpt lat="43.35509" lon="2.44592">
        <ele>512</ele>
        <time>2017-09-24T14:11:00.000Z</time>
      </trkpt>
      <trkpt lat="43.35509" lon="2.44591">
        <ele>512</ele>
        <time>2017-09-24T14:11:01.000Z</time>
      </trkpt>
      <trkpt lat="43.3551" lon="2.44589">
        <ele>512</ele>
        <time>2017-09-24T14:11:02.000Z</time>
      </trkpt>
      <trkpt lat="43.3551" lon="2.44587">
        <ele>512</ele>
        <time>2017-09-24T14:11:03.000Z</time>
      </trkpt>
      <trkpt lat="43.35511" lon="2.44586">
        <ele>511</ele>
        <time>2017-09-24T14:11:04.000Z</time>
      </trkpt>
      <trkpt lat="43.35511" lon="2.44585">
        <ele>511</ele>
        <time>2017-09-24T14:11:05.000Z</time>
      </trkpt>
      <trkpt lat="43.35511" lon="2.44584">
        <ele>511</ele>
        <time>2017-09-24T14:11:06.000Z</time>
      </trkpt>
      <trkpt lat="43.35511" lon="2.44582">
        <ele>511</ele>
        <time>2017-09-24T14:11:07.000Z</time>
      </trkpt>
      <trkpt lat="43.35511" lon="2.4458">
        <ele>510</ele>
        <time>2017-09-24T14:11:08.000Z</time>
      </trkpt>
      <trkpt lat="43.35511" lon="2.44579">
        <ele>510</ele>
        <time>2017-09-24T14:11:09.000Z</time>
      </trkpt>
      <trkpt lat="43.35511" lon="2.44577">
        <ele>510</ele>
        <time>2017-09-24T14:11:10.000Z</time>
      </trkpt>
      <trkpt lat="43.35512" lon="2.44576">
        <ele>509</ele>
        <time>2017-09-24T14:11:11.000Z</time>
      </trkpt>
      <trkpt lat="43.35512" lon="2.44574">
        <ele>509</ele>
        <time>2017-09-24T14:11:12.000Z</time>
      </trkpt>
      <trkpt lat="43.35512" lon="2.44573">
        <ele>509</ele>
        <time>2017-09-24T14:11:13.000Z</time>
      </trkpt>
      <trkpt lat="43.35512" lon="2.44572">
        <ele>508</ele>
        <time>2017-09-24T14:11:14.000Z</time>
      </trkpt>
      <trkpt lat="43.35513" lon="2.4457">
        <ele>508</ele>
        <time>2017-09-24T14:11:15.000Z</time>
      </trkpt>
      <trkpt lat="43.35513" lon="2.44569">
        <ele>508</ele>
        <time>2017-09-24T14:11:16.000Z</time>
      </trkpt>
      <trkpt lat="43.35513" lon="2.44568">
        <ele>508</ele>
        <time>2017-09-24T14:11:17.000Z</time>
      </trkpt>
      <trkpt lat="43.35514" lon="2.44566">
        <ele>507</ele>
        <time>2017-09-24T14:11:18.000Z</time>
      </trkpt>
      <trkpt lat="43.35515" lon="2.44565">
        <ele>507</ele>
        <time>2017-09-24T14:11:19.000Z</time>
      </trkpt>
      <trkpt lat="43.35516" lon="2.44563">
        <ele>507</ele>
        <time>2017-09-24T14:11:20.000Z</time>
      </trkpt>
      <trkpt lat="43.35516" lon="2.44562">
        <ele>507</ele>
        <time>2017-09-24T14:11:21.000Z</time>
      </trkpt>
      <trkpt lat="43.35517" lon="2.4456">
        <ele>507</ele>
        <time>2017-09-24T14:11:22.000Z</time>
      </trkpt>
      <trkpt lat="43.35518" lon="2.44559">
        <ele>507</ele>
        <time>2017-09-24T14:11:23.000Z</time>
      </trkpt>
      <trkpt lat="43.35518" lon="2.44558">
        <ele>507</ele>
        <time>2017-09-24T14:11:24.000Z</time>
      </trkpt>
      <trkpt lat="43.35519" lon="2.44557">
        <ele>506</ele>
        <time>2017-09-24T14:11:25.000Z</time>
      </trkpt>
      <trkpt lat="43.35519" lon="2.44555">
        <ele>506</ele>
        <time>2017-09-24T14:11:26.000Z</time>
      </trkpt>
      <trkpt lat="43.35519" lon="2.44555">
        <ele>506</ele>
        <time>2017-09-24T14:11:27.000Z</time>
      </trkpt>
      <trkpt lat="43.35519" lon="2.44554">
        <ele>506</ele>
        <time>2017-09-24T14:11:28.000Z</time>
      </trkpt>
      <trkpt lat="43.35519" lon="2.44553">
        <ele>506</ele>
        <time>2017-09-24T14:11:29.000Z</time>
      </trkpt>
      <trkpt lat="43.35519" lon="2.44553">
        <ele>506</ele>
        <time>2017-09-24T14:11:30.000Z</time>
      </trkpt>
      <trkpt lat="43.35519" lon="2.44552">
        <ele>505</ele>
        <time>2017-09-24T14:11:31.000Z</time>
      </trkpt>
      <trkpt lat="43.35519" lon="2.44551">
        <ele>505</ele>
        <time>2017-09-24T14:11:32.000Z</time>
      </trkpt>
      <trkpt lat="43.35519" lon="2.44549">
        <ele>505</ele>
        <time>2017-09-24T14:11:33.000Z</time>
      </trkpt>
      <trkpt lat="43.35519" lon="2.44548">
        <ele>504</ele>
        <time>2017-09-24T14:11:34.000Z</time>
      </trkpt>
      <trkpt lat="43.3552" lon="2.44546">
        <ele>504</ele>
        <time>2017-09-24T14:11:35.000Z</time>
      </trkpt>
      <trkpt lat="43.3552" lon="2.44544">
        <ele>504</ele>
        <time>2017-09-24T14:11:36.000Z</time>
      </trkpt>
      <trkpt lat="43.35521" lon="2.44543">
        <ele>504</ele>
        <time>2017-09-24T14:11:37.000Z</time>
      </trkpt>
      <trkpt lat="43.35522" lon="2.44542">
        <ele>504</ele>
        <time>2017-09-24T14:11:38.000Z</time>
      </trkpt>
      <trkpt lat="43.35522" lon="2.4454">
        <ele>503</ele>
        <time>2017-09-24T14:11:39.000Z</time>
      </trkpt>
      <trkpt lat="43.35523" lon="2.44538">
        <ele>503</ele>
        <time>2017-09-24T14:11:40.000Z</time>
      </trkpt>
      <trkpt lat="43.35524" lon="2.44537">
        <ele>503</ele>
        <time>2017-09-24T14:11:41.000Z</time>
      </trkpt>
      <trkpt lat="43.35524" lon="2.44535">
        <ele>503</ele>
        <time>2017-09-24T14:11:42.000Z</time>
      </trkpt>
      <trkpt lat="43.35525" lon="2.44534">
        <ele>503</ele>
        <time>2017-09-24T14:11:43.000Z</time>
      </trkpt>
      <trkpt lat="43.35525" lon="2.44533">
        <ele>502</ele>
        <time>2017-09-24T14:11:44.000Z</time>
      </trkpt>
      <trkpt lat="43.35526" lon="2.44531">
        <ele>502</ele>
        <time>2017-09-24T14:11:45.000Z</time>
      </trkpt>
      <trkpt lat="43.35526" lon="2.4453">
        <ele>502</ele>
        <time>2017-09-24T14:11:46.000Z</time>
      </trkpt>
      <trkpt lat="43.35527" lon="2.44529">
        <ele>502</ele>
        <time>2017-09-24T14:11:47.000Z</time>
      </trkpt>
      <trkpt lat="43.35528" lon="2.44528">
        <ele>502</ele>
        <time>2017-09-24T14:11:48.000Z</time>
      </trkpt>
      <trkpt lat="43.3553" lon="2.44527">
        <ele>502</ele>
        <time>2017-09-24T14:11:49.000Z</time>
      </trkpt>
      <trkpt lat="43.35531" lon="2.44526">
        <ele>502</ele>
        <time>2017-09-24T14:11:50.000Z</time>
      </trkpt>
      <trkpt lat="43.35532" lon="2.44526">
        <ele>502</ele>
        <time>2017-09-24T14:11:51.000Z</time>
      </trkpt>
      <trkpt lat="43.35533" lon="2.44525">
        <ele>502</ele>
        <time>2017-09-24T14:11:52.000Z</time>
      </trkpt>
      <trkpt lat="43.35534" lon="2.44525">
        <ele>503</ele>
        <time>2017-09-24T14:11:53.000Z</time>
      </trkpt>
      <trkpt lat="43.35535" lon="2.44525">
        <ele>503</ele>
        <time>2017-09-24T14:11:54.000Z</time>
      </trkpt>
      <trkpt lat="43.35536" lon="2.44525">
        <ele>503</ele>
        <time>2017-09-24T14:11:55.000Z</time>
      </trkpt>
      <trkpt lat="43.35538" lon="2.44524">
        <ele>503</ele>
        <time>2017-09-24T14:11:56.000Z</time>
      </trkpt>
      <trkpt lat="43.35539" lon="2.44524">
        <ele>504</ele>
        <time>2017-09-24T14:11:57.000Z</time>
      </trkpt>
      <trkpt lat="43.35541" lon="2.44524">
        <ele>504</ele>
        <time>2017-09-24T14:11:58.000Z</time>
      </trkpt>
      <trkpt lat="43.35542" lon="2.44524">
        <ele>504</ele>
        <time>2017-09-24T14:11:59.000Z</time>
      </trkpt>
      <trkpt lat="43.35542" lon="2.44524">
        <ele>504</ele>
        <time>2017-09-24T14:12:00.000Z</time>
      </trkpt>
      <trkpt lat="43.35543" lon="2.44524">
        <ele>504</ele>
        <time>2017-09-24T14:12:01.000Z</time>
      </trkpt>
      <trkpt lat="43.35544" lon="2.44523">
        <ele>505</ele>
        <time>2017-09-24T14:12:02.000Z</time>
      </trkpt>
      <trkpt lat="43.35545" lon="2.44523">
        <ele>505</ele>
        <time>2017-09-24T14:12:03.000Z</time>
      </trkpt>
      <trkpt lat="43.35546" lon="2.44522">
        <ele>505</ele>
        <time>2017-09-24T14:12:04.000Z</time>
      </trkpt>
      <trkpt lat="43.35546" lon="2.44521">
        <ele>505</ele>
        <time>2017-09-24T14:12:05.000Z</time>
      </trkpt>
      <trkpt lat="43.35547" lon="2.4452">
        <ele>505</ele>
        <time>2017-09-24T14:12:06.000Z</time>
      </trkpt>
      <trkpt lat="43.35548" lon="2.44519">
        <ele>505</ele>
        <time>2017-09-24T14:12:07.000Z</time>
      </trkpt>
      <trkpt lat="43.35548" lon="2.44518">
        <ele>504</ele>
        <time>2017-09-24T14:12:08.000Z</time>
      </trkpt>
      <trkpt lat="43.35548" lon="2.44516">
        <ele>504</ele>
        <time>2017-09-24T14:12:09.000Z</time>
      </trkpt>
      <trkpt lat="43.35548" lon="2.44515">
        <ele>504</ele>
        <time>2017-09-24T14:12:10.000Z</time>
      </trkpt>
      <trkpt lat="43.35549" lon="2.44513">
        <ele>504</ele>
        <time>2017-09-24T14:12:11.000Z</time>
      </trkpt>
      <trkpt lat="43.35549" lon="2.44512">
        <ele>504</ele>
        <time>2017-09-24T14:12:12.000Z</time>
      </trkpt>
      <trkpt lat="43.35549" lon="2.4451">
        <ele>503</ele>
        <time>2017-09-24T14:12:13.000Z</time>
      </trkpt>
      <trkpt lat="43.3555" lon="2.44509">
        <ele>503</ele>
        <time>2017-09-24T14:12:14.000Z</time>
      </trkpt>
      <trkpt lat="43.35551" lon="2.44507">
        <ele>503</ele>
        <time>2017-09-24T14:12:15.000Z</time>
      </trkpt>
      <trkpt lat="43.35551" lon="2.44506">
        <ele>503</ele>
        <time>2017-09-24T14:12:16.000Z</time>
      </trkpt>
      <trkpt lat="43.35552" lon="2.44505">
        <ele>503</ele>
        <time>2017-09-24T14:12:17.000Z</time>
      </trkpt>
      <trkpt lat="43.35552" lon="2.44503">
        <ele>503</ele>
        <time>2017-09-24T14:12:18.000Z</time>
      </trkpt>
      <trkpt lat="43.35553" lon="2.44502">
        <ele>503</ele>
        <time>2017-09-24T14:12:19.000Z</time>
      </trkpt>
      <trkpt lat="43.35553" lon="2.44501">
        <ele>503</ele>
        <time>2017-09-24T14:12:20.000Z</time>
      </trkpt>
      <trkpt lat="43.35553" lon="2.445">
        <ele>502</ele>
        <time>2017-09-24T14:12:21.000Z</time>
      </trkpt>
      <trkpt lat="43.35554" lon="2.44498">
        <ele>502</ele>
        <time>2017-09-24T14:12:22.000Z</time>
      </trkpt>
      <trkpt lat="43.35554" lon="2.44497">
        <ele>502</ele>
        <time>2017-09-24T14:12:23.000Z</time>
      </trkpt>
      <trkpt lat="43.35553" lon="2.44495">
        <ele>501</ele>
        <time>2017-09-24T14:12:24.000Z</time>
      </trkpt>
      <trkpt lat="43.35553" lon="2.44493">
        <ele>501</ele>
        <time>2017-09-24T14:12:25.000Z</time>
      </trkpt>
      <trkpt lat="43.35553" lon="2.44493">
        <ele>501</ele>
        <time>2017-09-24T14:12:26.000Z</time>
      </trkpt>
      <trkpt lat="43.35553" lon="2.44492">
        <ele>500</ele>
        <time>2017-09-24T14:12:27.000Z</time>
      </trkpt>
      <trkpt lat="43.35553" lon="2.44491">
        <ele>500</ele>
        <time>2017-09-24T14:12:28.000Z</time>
      </trkpt>
      <trkpt lat="43.35553" lon="2.4449">
        <ele>500</ele>
        <time>2017-09-24T14:12:29.000Z</time>
      </trkpt>
      <trkpt lat="43.35553" lon="2.4449">
        <ele>500</ele>
        <time>2017-09-24T14:12:30.000Z</time>
      </trkpt>
      <trkpt lat="43.35554" lon="2.44489">
        <ele>500</ele>
        <time>2017-09-24T14:12:31.000Z</time>
      </trkpt>
      <trkpt lat="43.35554" lon="2.44488">
        <ele>500</ele>
        <time>2017-09-24T14:12:32.000Z</time>
      </trkpt>
      <trkpt lat="43.35554" lon="2.44488">
        <ele>500</ele>
        <time>2017-09-24T14:12:33.000Z</time>
      </trkpt>
      <trkpt lat="43.35555" lon="2.44482">
        <ele>498</ele>
        <time>2017-09-24T14:12:41.000Z</time>
      </trkpt>
      <trkpt lat="43.35555" lon="2.4448">
        <ele>498</ele>
        <time>2017-09-24T14:12:42.000Z</time>
      </trkpt>
      <trkpt lat="43.35555" lon="2.44478">
        <ele>497</ele>
        <time>2017-09-24T14:12:43.000Z</time>
      </trkpt>
      <trkpt lat="43.35555" lon="2.44476">
        <ele>497</ele>
        <time>2017-09-24T14:12:44.000Z</time>
      </trkpt>
      <trkpt lat="43.35556" lon="2.44475">
        <ele>497</ele>
        <time>2017-09-24T14:12:45.000Z</time>
      </trkpt>
      <trkpt lat="43.35557" lon="2.44474">
        <ele>496</ele>
        <time>2017-09-24T14:12:46.000Z</time>
      </trkpt>
      <trkpt lat="43.35558" lon="2.44472">
        <ele>496</ele>
        <time>2017-09-24T14:12:47.000Z</time>
      </trkpt>
      <trkpt lat="43.35559" lon="2.44471">
        <ele>496</ele>
        <time>2017-09-24T14:12:48.000Z</time>
      </trkpt>
      <trkpt lat="43.3556" lon="2.4447">
        <ele>496</ele>
        <time>2017-09-24T14:12:49.000Z</time>
      </trkpt>
      <trkpt lat="43.3556" lon="2.44469">
        <ele>496</ele>
        <time>2017-09-24T14:12:50.000Z</time>
      </trkpt>
      <trkpt lat="43.35561" lon="2.44468">
        <ele>496</ele>
        <time>2017-09-24T14:12:51.000Z</time>
      </trkpt>
      <trkpt lat="43.35562" lon="2.44467">
        <ele>496</ele>
        <time>2017-09-24T14:12:52.000Z</time>
      </trkpt>
      <trkpt lat="43.35562" lon="2.44466">
        <ele>496</ele>
        <time>2017-09-24T14:12:53.000Z</time>
      </trkpt>
      <trkpt lat="43.35563" lon="2.44465">
        <ele>496</ele>
        <time>2017-09-24T14:12:54.000Z</time>
      </trkpt>
      <trkpt lat="43.35563" lon="2.44464">
        <ele>495</ele>
        <time>2017-09-24T14:12:55.000Z</time>
      </trkpt>
      <trkpt lat="43.35563" lon="2.44463">
        <ele>495</ele>
        <time>2017-09-24T14:12:56.000Z</time>
      </trkpt>
      <trkpt lat="43.35562" lon="2.44463">
        <ele>495</ele>
        <time>2017-09-24T14:12:57.000Z</time>
      </trkpt>
      <trkpt lat="43.35562" lon="2.44462">
        <ele>495</ele>
        <time>2017-09-24T14:12:58.000Z</time>
      </trkpt>
      <trkpt lat="43.35562" lon="2.44461">
        <ele>495</ele>
        <time>2017-09-24T14:12:59.000Z</time>
      </trkpt>
      <trkpt lat="43.35562" lon="2.44461">
        <ele>495</ele>
        <time>2017-09-24T14:13:00.000Z</time>
      </trkpt>
      <trkpt lat="43.35564" lon="2.44454">
        <ele>494</ele>
        <time>2017-09-24T14:13:11.000Z</time>
      </trkpt>
      <trkpt lat="43.35564" lon="2.44453">
        <ele>494</ele>
        <time>2017-09-24T14:13:12.000Z</time>
      </trkpt>
      <trkpt lat="43.35565" lon="2.44451">
        <ele>494</ele>
        <time>2017-09-24T14:13:13.000Z</time>
      </trkpt>
      <trkpt lat="43.35566" lon="2.44449">
        <ele>494</ele>
        <time>2017-09-24T14:13:14.000Z</time>
      </trkpt>
      <trkpt lat="43.35566" lon="2.44447">
        <ele>494</ele>
        <time>2017-09-24T14:13:15.000Z</time>
      </trkpt>
      <trkpt lat="43.35567" lon="2.44446">
        <ele>494</ele>
        <time>2017-09-24T14:13:16.000Z</time>
      </trkpt>
      <trkpt lat="43.35568" lon="2.44445">
        <ele>494</ele>
        <time>2017-09-24T14:13:17.000Z</time>
      </trkpt>
      <trkpt lat="43.35569" lon="2.44444">
        <ele>494</ele>
        <time>2017-09-24T14:13:18.000Z</time>
      </trkpt>
      <trkpt lat="43.3557" lon="2.44443">
        <ele>494</ele>
        <time>2017-09-24T14:13:19.000Z</time>
      </trkpt>
      <trkpt lat="43.35571" lon="2.44444">
        <ele>495</ele>
        <time>2017-09-24T14:13:20.000Z</time>
      </trkpt>
      <trkpt lat="43.35572" lon="2.44444">
        <ele>495</ele>
        <time>2017-09-24T14:13:21.000Z</time>
      </trkpt>
      <trkpt lat="43.35573" lon="2.44444">
        <ele>495</ele>
        <time>2017-09-24T14:13:22.000Z</time>
      </trkpt>
      <trkpt lat="43.35574" lon="2.44443">
        <ele>496</ele>
        <time>2017-09-24T14:13:23.000Z</time>
      </trkpt>
      <trkpt lat="43.35575" lon="2.44443">
        <ele>496</ele>
        <time>2017-09-24T14:13:24.000Z</time>
      </trkpt>
      <trkpt lat="43.35576" lon="2.44443">
        <ele>496</ele>
        <time>2017-09-24T14:13:25.000Z</time>
      </trkpt>
      <trkpt lat="43.35578" lon="2.44443">
        <ele>497</ele>
        <time>2017-09-24T14:13:26.000Z</time>
      </trkpt>
      <trkpt lat="43.35579" lon="2.44443">
        <ele>497</ele>
        <time>2017-09-24T14:13:27.000Z</time>
      </trkpt>
      <trkpt lat="43.3558" lon="2.44443">
        <ele>498</ele>
        <time>2017-09-24T14:13:28.000Z</time>
      </trkpt>
      <trkpt lat="43.35581" lon="2.44442">
        <ele>498</ele>
        <time>2017-09-24T14:13:29.000Z</time>
      </trkpt>
      <trkpt lat="43.35582" lon="2.44443">
        <ele>498</ele>
        <time>2017-09-24T14:13:30.000Z</time>
      </trkpt>
      <trkpt lat="43.35583" lon="2.44443">
        <ele>499</ele>
        <time>2017-09-24T14:13:31.000Z</time>
      </trkpt>
      <trkpt lat="43.35585" lon="2.44442">
        <ele>499</ele>
        <time>2017-09-24T14:13:32.000Z</time>
      </trkpt>
      <trkpt lat="43.35586" lon="2.44442">
        <ele>499</ele>
        <time>2017-09-24T14:13:33.000Z</time>
      </trkpt>
      <trkpt lat="43.35587" lon="2.44442">
        <ele>500</ele>
        <time>2017-09-24T14:13:34.000Z</time>
      </trkpt>
      <trkpt lat="43.35587" lon="2.44441">
        <ele>500</ele>
        <time>2017-09-24T14:13:35.000Z</time>
      </trkpt>
      <trkpt lat="43.35588" lon="2.44439">
        <ele>500</ele>
        <time>2017-09-24T14:13:36.000Z</time>
      </trkpt>
      <trkpt lat="43.35589" lon="2.44438">
        <ele>500</ele>
        <time>2017-09-24T14:13:37.000Z</time>
      </trkpt>
      <trkpt lat="43.35589" lon="2.44437">
        <ele>500</ele>
        <time>2017-09-24T14:13:38.000Z</time>
      </trkpt>
      <trkpt lat="43.3559" lon="2.44435">
        <ele>500</ele>
        <time>2017-09-24T14:13:39.000Z</time>
      </trkpt>
      <trkpt lat="43.3559" lon="2.44434">
        <ele>499</ele>
        <time>2017-09-24T14:13:40.000Z</time>
      </trkpt>
      <trkpt lat="43.35591" lon="2.44432">
        <ele>499</ele>
        <time>2017-09-24T14:13:41.000Z</time>
      </trkpt>
      <trkpt lat="43.35591" lon="2.44431">
        <ele>499</ele>
        <time>2017-09-24T14:13:42.000Z</time>
      </trkpt>
      <trkpt lat="43.35591" lon="2.4443">
        <ele>499</ele>
        <time>2017-09-24T14:13:43.000Z</time>
      </trkpt>
      <trkpt lat="43.35592" lon="2.44428">
        <ele>499</ele>
        <time>2017-09-24T14:13:44.000Z</time>
      </trkpt>
      <trkpt lat="43.35593" lon="2.44427">
        <ele>499</ele>
        <time>2017-09-24T14:13:45.000Z</time>
      </trkpt>
      <trkpt lat="43.35593" lon="2.44425">
        <ele>499</ele>
        <time>2017-09-24T14:13:46.000Z</time>
      </trkpt>
      <trkpt lat="43.35594" lon="2.44424">
        <ele>499</ele>
        <time>2017-09-24T14:13:47.000Z</time>
      </trkpt>
      <trkpt lat="43.35595" lon="2.44423">
        <ele>499</ele>
        <time>2017-09-24T14:13:48.000Z</time>
      </trkpt>
      <trkpt lat="43.35596" lon="2.44422">
        <ele>499</ele>
        <time>2017-09-24T14:13:49.000Z</time>
      </trkpt>
      <trkpt lat="43.35597" lon="2.44421">
        <ele>500</ele>
        <time>2017-09-24T14:13:50.000Z</time>
      </trkpt>
      <trkpt lat="43.35597" lon="2.44419">
        <ele>499</ele>
        <time>2017-09-24T14:13:51.000Z</time>
      </trkpt>
      <trkpt lat="43.35598" lon="2.44418">
        <ele>500</ele>
        <time>2017-09-24T14:13:52.000Z</time>
      </trkpt>
      <trkpt lat="43.35599" lon="2.44417">
        <ele>500</ele>
        <time>2017-09-24T14:13:53.000Z</time>
      </trkpt>
      <trkpt lat="43.356" lon="2.44416">
        <ele>500</ele>
        <time>2017-09-24T14:13:54.000Z</time>
      </trkpt>
      <trkpt lat="43.356" lon="2.44414">
        <ele>500</ele>
        <time>2017-09-24T14:13:55.000Z</time>
      </trkpt>
      <trkpt lat="43.35601" lon="2.44413">
        <ele>500</ele>
        <time>2017-09-24T14:13:56.000Z</time>
      </trkpt>
      <trkpt lat="43.35602" lon="2.44412">
        <ele>500</ele>
        <time>2017-09-24T14:13:57.000Z</time>
      </trkpt>
      <trkpt lat="43.35603" lon="2.44411">
        <ele>500</ele>
        <time>2017-09-24T14:13:58.000Z</time>
      </trkpt>
      <trkpt lat="43.35604" lon="2.44409">
        <ele>501</ele>
        <time>2017-09-24T14:14:00.000Z</time>
      </trkpt>
      <trkpt lat="43.35605" lon="2.44408">
        <ele>501</ele>
        <time>2017-09-24T14:14:01.000Z</time>
      </trkpt>
      <trkpt lat="43.35605" lon="2.44407">
        <ele>501</ele>
        <time>2017-09-24T14:14:02.000Z</time>
      </trkpt>
      <trkpt lat="43.35606" lon="2.44406">
        <ele>501</ele>
        <time>2017-09-24T14:14:03.000Z</time>
      </trkpt>
      <trkpt lat="43.35607" lon="2.44406">
        <ele>501</ele>
        <time>2017-09-24T14:14:04.000Z</time>
      </trkpt>
      <trkpt lat="43.35608" lon="2.44406">
        <ele>502</ele>
        <time>2017-09-24T14:14:05.000Z</time>
      </trkpt>
      <trkpt lat="43.35609" lon="2.44406">
        <ele>502</ele>
        <time>2017-09-24T14:14:06.000Z</time>
      </trkpt>
      <trkpt lat="43.3561" lon="2.44405">
        <ele>502</ele>
        <time>2017-09-24T14:14:07.000Z</time>
      </trkpt>
      <trkpt lat="43.3561" lon="2.44405">
        <ele>502</ele>
        <time>2017-09-24T14:14:08.000Z</time>
      </trkpt>
      <trkpt lat="43.35611" lon="2.44405">
        <ele>503</ele>
        <time>2017-09-24T14:14:09.000Z</time>
      </trkpt>
      <trkpt lat="43.35611" lon="2.44404">
        <ele>502</ele>
        <time>2017-09-24T14:14:10.000Z</time>
      </trkpt>
      <trkpt lat="43.35611" lon="2.44404">
        <ele>502</ele>
        <time>2017-09-24T14:14:11.000Z</time>
      </trkpt>
      <trkpt lat="43.3561" lon="2.44403">
        <ele>502</ele>
        <time>2017-09-24T14:14:12.000Z</time>
      </trkpt>
      <trkpt lat="43.3561" lon="2.44402">
        <ele>502</ele>
        <time>2017-09-24T14:14:13.000Z</time>
      </trkpt>
      <trkpt lat="43.35604" lon="2.44398">
        <ele>499</ele>
        <time>2017-09-24T14:14:28.000Z</time>
      </trkpt>
      <trkpt lat="43.35603" lon="2.44397">
        <ele>499</ele>
        <time>2017-09-24T14:14:29.000Z</time>
      </trkpt>
      <trkpt lat="43.35603" lon="2.44396">
        <ele>498</ele>
        <time>2017-09-24T14:14:30.000Z</time>
      </trkpt>
      <trkpt lat="43.35602" lon="2.44395">
        <ele>498</ele>
        <time>2017-09-24T14:14:31.000Z</time>
      </trkpt>
      <trkpt lat="43.35602" lon="2.44393">
        <ele>498</ele>
        <time>2017-09-24T14:14:32.000Z</time>
      </trkpt>
      <trkpt lat="43.35602" lon="2.44392">
        <ele>497</ele>
        <time>2017-09-24T14:14:33.000Z</time>
      </trkpt>
      <trkpt lat="43.35602" lon="2.44391">
        <ele>497</ele>
        <time>2017-09-24T14:14:34.000Z</time>
      </trkpt>
      <trkpt lat="43.35602" lon="2.44389">
        <ele>497</ele>
        <time>2017-09-24T14:14:35.000Z</time>
      </trkpt>
      <trkpt lat="43.35602" lon="2.44388">
        <ele>497</ele>
        <time>2017-09-24T14:14:36.000Z</time>
      </trkpt>
      <trkpt lat="43.35602" lon="2.44387">
        <ele>497</ele>
        <time>2017-09-24T14:14:37.000Z</time>
      </trkpt>
      <trkpt lat="43.35602" lon="2.44386">
        <ele>497</ele>
        <time>2017-09-24T14:14:38.000Z</time>
      </trkpt>
      <trkpt lat="43.35602" lon="2.44385">
        <ele>497</ele>
        <time>2017-09-24T14:14:39.000Z</time>
      </trkpt>
      <trkpt lat="43.35601" lon="2.44383">
        <ele>496</ele>
        <time>2017-09-24T14:14:40.000Z</time>
      </trkpt>
      <trkpt lat="43.35601" lon="2.44382">
        <ele>496</ele>
        <time>2017-09-24T14:14:41.000Z</time>
      </trkpt>
      <trkpt lat="43.35601" lon="2.4438">
        <ele>495</ele>
        <time>2017-09-24T14:14:42.000Z</time>
      </trkpt>
      <trkpt lat="43.35601" lon="2.44378">
        <ele>495</ele>
        <time>2017-09-24T14:14:43.000Z</time>
      </trkpt>
      <trkpt lat="43.35601" lon="2.44377">
        <ele>495</ele>
        <time>2017-09-24T14:14:44.000Z</time>
      </trkpt>
      <trkpt lat="43.35601" lon="2.44375">
        <ele>495</ele>
        <time>2017-09-24T14:14:45.000Z</time>
      </trkpt>
      <trkpt lat="43.35601" lon="2.44373">
        <ele>495</ele>
        <time>2017-09-24T14:14:46.000Z</time>
      </trkpt>
      <trkpt lat="43.35602" lon="2.44371">
        <ele>495</ele>
        <time>2017-09-24T14:14:47.000Z</time>
      </trkpt>
      <trkpt lat="43.35602" lon="2.44369">
        <ele>494</ele>
        <time>2017-09-24T14:14:48.000Z</time>
      </trkpt>
      <trkpt lat="43.35601" lon="2.44367">
        <ele>494</ele>
        <time>2017-09-24T14:14:49.000Z</time>
      </trkpt>
      <trkpt lat="43.35601" lon="2.44366">
        <ele>494</ele>
        <time>2017-09-24T14:14:50.000Z</time>
      </trkpt>
      <trkpt lat="43.356" lon="2.44364">
        <ele>493</ele>
        <time>2017-09-24T14:14:51.000Z</time>
      </trkpt>
      <trkpt lat="43.356" lon="2.44362">
        <ele>493</ele>
        <time>2017-09-24T14:14:52.000Z</time>
      </trkpt>
      <trkpt lat="43.35599" lon="2.4436">
        <ele>492</ele>
        <time>2017-09-24T14:14:53.000Z</time>
      </trkpt>
      <trkpt lat="43.35599" lon="2.44359">
        <ele>492</ele>
        <time>2017-09-24T14:14:54.000Z</time>
      </trkpt>
      <trkpt lat="43.35598" lon="2.44357">
        <ele>492</ele>
        <time>2017-09-24T14:14:55.000Z</time>
      </trkpt>
      <trkpt lat="43.35598" lon="2.44356">
        <ele>491</ele>
        <time>2017-09-24T14:14:56.000Z</time>
      </trkpt>
      <trkpt lat="43.35598" lon="2.44355">
        <ele>491</ele>
        <time>2017-09-24T14:14:57.000Z</time>
      </trkpt>
      <trkpt lat="43.35597" lon="2.44353">
        <ele>491</ele>
        <time>2017-09-24T14:14:58.000Z</time>
      </trkpt>
      <trkpt lat="43.35597" lon="2.44352">
        <ele>490</ele>
        <time>2017-09-24T14:14:59.000Z</time>
      </trkpt>
      <trkpt lat="43.35597" lon="2.44351">
        <ele>490</ele>
        <time>2017-09-24T14:15:00.000Z</time>
      </trkpt>
      <trkpt lat="43.35597" lon="2.44351">
        <ele>490</ele>
        <time>2017-09-24T14:15:01.000Z</time>
      </trkpt>
      <trkpt lat="43.35596" lon="2.4435">
        <ele>490</ele>
        <time>2017-09-24T14:15:02.000Z</time>
      </trkpt>
      <trkpt lat="43.35596" lon="2.44349">
        <ele>489</ele>
        <time>2017-09-24T14:15:03.000Z</time>
      </trkpt>
      <trkpt lat="43.35595" lon="2.44347">
        <ele>489</ele>
        <time>2017-09-24T14:15:04.000Z</time>
      </trkpt>
      <trkpt lat="43.35595" lon="2.44346">
        <ele>489</ele>
        <time>2017-09-24T14:15:05.000Z</time>
      </trkpt>
      <trkpt lat="43.35595" lon="2.44344">
        <ele>488</ele>
        <time>2017-09-24T14:15:06.000Z</time>
      </trkpt>
      <trkpt lat="43.35595" lon="2.44344">
        <ele>488</ele>
        <time>2017-09-24T14:15:07.000Z</time>
      </trkpt>
      <trkpt lat="43.35595" lon="2.44343">
        <ele>488</ele>
        <time>2017-09-24T14:15:08.000Z</time>
      </trkpt>
      <trkpt lat="43.35594" lon="2.44342">
        <ele>488</ele>
        <time>2017-09-24T14:15:09.000Z</time>
      </trkpt>
      <trkpt lat="43.35593" lon="2.44341">
        <ele>487</ele>
        <time>2017-09-24T14:15:10.000Z</time>
      </trkpt>
      <trkpt lat="43.35593" lon="2.4434">
        <ele>487</ele>
        <time>2017-09-24T14:15:11.000Z</time>
      </trkpt>
      <trkpt lat="43.35592" lon="2.44338">
        <ele>486</ele>
        <time>2017-09-24T14:15:12.000Z</time>
      </trkpt>
      <trkpt lat="43.35591" lon="2.44336">
        <ele>486</ele>
        <time>2017-09-24T14:15:13.000Z</time>
      </trkpt>
      <trkpt lat="43.35591" lon="2.44335">
        <ele>486</ele>
        <time>2017-09-24T14:15:14.000Z</time>
      </trkpt>
      <trkpt lat="43.35591" lon="2.44334">
        <ele>485</ele>
        <time>2017-09-24T14:15:15.000Z</time>
      </trkpt>
      <trkpt lat="43.3559" lon="2.44333">
        <ele>485</ele>
        <time>2017-09-24T14:15:16.000Z</time>
      </trkpt>
      <trkpt lat="43.3559" lon="2.44331">
        <ele>485</ele>
        <time>2017-09-24T14:15:17.000Z</time>
      </trkpt>
      <trkpt lat="43.3559" lon="2.4433">
        <ele>485</ele>
        <time>2017-09-24T14:15:18.000Z</time>
      </trkpt>
      <trkpt lat="43.3559" lon="2.44328">
        <ele>485</ele>
        <time>2017-09-24T14:15:19.000Z</time>
      </trkpt>
      <trkpt lat="43.35589" lon="2.44327">
        <ele>485</ele>
        <time>2017-09-24T14:15:20.000Z</time>
      </trkpt>
      <trkpt lat="43.35589" lon="2.44325">
        <ele>485</ele>
        <time>2017-09-24T14:15:21.000Z</time>
      </trkpt>
      <trkpt lat="43.35588" lon="2.44324">
        <ele>485</ele>
        <time>2017-09-24T14:15:22.000Z</time>
      </trkpt>
      <trkpt lat="43.35587" lon="2.44323">
        <ele>484</ele>
        <time>2017-09-24T14:15:23.000Z</time>
      </trkpt>
      <trkpt lat="43.35587" lon="2.44322">
        <ele>484</ele>
        <time>2017-09-24T14:15:24.000Z</time>
      </trkpt>
      <trkpt lat="43.35586" lon="2.44321">
        <ele>484</ele>
        <time>2017-09-24T14:15:25.000Z</time>
      </trkpt>
      <trkpt lat="43.35586" lon="2.44318">
        <ele>484</ele>
        <time>2017-09-24T14:15:26.000Z</time>
      </trkpt>
      <trkpt lat="43.35586" lon="2.44317">
        <ele>483</ele>
        <time>2017-09-24T14:15:27.000Z</time>
      </trkpt>
      <trkpt lat="43.35585" lon="2.44316">
        <ele>483</ele>
        <time>2017-09-24T14:15:28.000Z</time>
      </trkpt>
      <trkpt lat="43.35585" lon="2.44315">
        <ele>483</ele>
        <time>2017-09-24T14:15:29.000Z</time>
      </trkpt>
      <trkpt lat="43.35585" lon="2.44313">
        <ele>483</ele>
        <time>2017-09-24T14:15:30.000Z</time>
      </trkpt>
      <trkpt lat="43.35584" lon="2.44312">
        <ele>482</ele>
        <time>2017-09-24T14:15:31.000Z</time>
      </trkpt>
      <trkpt lat="43.35584" lon="2.44312">
        <ele>482</ele>
        <time>2017-09-24T14:15:32.000Z</time>
      </trkpt>
      <trkpt lat="43.35584" lon="2.44311">
        <ele>482</ele>
        <time>2017-09-24T14:15:33.000Z</time>
      </trkpt>
      <trkpt lat="43.35584" lon="2.4431">
        <ele>482</ele>
        <time>2017-09-24T14:15:34.000Z</time>
      </trkpt>
      <trkpt lat="43.35584" lon="2.44309">
        <ele>482</ele>
        <time>2017-09-24T14:15:35.000Z</time>
      </trkpt>
      <trkpt lat="43.35583" lon="2.44308">
        <ele>481</ele>
        <time>2017-09-24T14:15:36.000Z</time>
      </trkpt>
      <trkpt lat="43.35583" lon="2.44308">
        <ele>481</ele>
        <time>2017-09-24T14:15:37.000Z</time>
      </trkpt>
      <trkpt lat="43.35583" lon="2.44307">
        <ele>481</ele>
        <time>2017-09-24T14:15:38.000Z</time>
      </trkpt>
      <trkpt lat="43.35583" lon="2.44307">
        <ele>481</ele>
        <time>2017-09-24T14:15:39.000Z</time>
      </trkpt>
      <trkpt lat="43.35583" lon="2.44307">
        <ele>481</ele>
        <time>2017-09-24T14:15:40.000Z</time>
      </trkpt>
      <trkpt lat="43.35583" lon="2.44306">
        <ele>481</ele>
        <time>2017-09-24T14:15:41.000Z</time>
      </trkpt>
      <trkpt lat="43.35582" lon="2.44306">
        <ele>481</ele>
        <time>2017-09-24T14:15:42.000Z</time>
      </trkpt>
      <trkpt lat="43.35582" lon="2.44305">
        <ele>481</ele>
        <time>2017-09-24T14:15:43.000Z</time>
      </trkpt>
      <trkpt lat="43.35582" lon="2.44304">
        <ele>481</ele>
        <time>2017-09-24T14:15:44.000Z</time>
      </trkpt>
      <trkpt lat="43.35582" lon="2.44304">
        <ele>480</ele>
        <time>2017-09-24T14:15:45.000Z</time>
      </trkpt>
      <trkpt lat="43.35582" lon="2.44304">
        <ele>480</ele>
        <time>2017-09-24T14:15:46.000Z</time>
      </trkpt>
      <trkpt lat="43.35556" lon="2.44292">
        <ele>473</ele>
        <time>2017-09-24T14:16:39.000Z</time>
      </trkpt>
      <trkpt lat="43.35556" lon="2.44292">
        <ele>473</ele>
        <time>2017-09-24T14:16:40.000Z</time>
      </trkpt>
      <trkpt lat="43.35555" lon="2.44291">
        <ele>473</ele>
        <time>2017-09-24T14:16:41.000Z</time>
      </trkpt>
      <trkpt lat="43.35555" lon="2.4429">
        <ele>473</ele>
        <time>2017-09-24T14:16:42.000Z</time>
      </trkpt>
      <trkpt lat="43.35555" lon="2.4429">
        <ele>473</ele>
        <time>2017-09-24T14:16:43.000Z</time>
      </trkpt>
      <trkpt lat="43.35555" lon="2.44289">
        <ele>473</ele>
        <time>2017-09-24T14:16:44.000Z</time>
      </trkpt>
      <trkpt lat="43.35554" lon="2.44289">
        <ele>473</ele>
        <time>2017-09-24T14:16:45.000Z</time>
      </trkpt>
      <trkpt lat="43.35554" lon="2.44289">
        <ele>473</ele>
        <time>2017-09-24T14:16:46.000Z</time>
      </trkpt>
      <trkpt lat="43.35553" lon="2.44289">
        <ele>473</ele>
        <time>2017-09-24T14:16:47.000Z</time>
      </trkpt>
      <trkpt lat="43.35553" lon="2.44288">
        <ele>472</ele>
        <time>2017-09-24T14:16:48.000Z</time>
      </trkpt>
      <trkpt lat="43.35553" lon="2.44288">
        <ele>472</ele>
        <time>2017-09-24T14:16:49.000Z</time>
      </trkpt>
      <trkpt lat="43.35553" lon="2.44287">
        <ele>472</ele>
        <time>2017-09-24T14:16:50.000Z</time>
      </trkpt>
      <trkpt lat="43.35552" lon="2.44287">
        <ele>472</ele>
        <time>2017-09-24T14:16:51.000Z</time>
      </trkpt>
      <trkpt lat="43.35552" lon="2.44287">
        <ele>472</ele>
        <time>2017-09-24T14:16:52.000Z</time>
      </trkpt>
      <trkpt lat="43.35543" lon="2.44284">
        <ele>469</ele>
        <time>2017-09-24T14:17:27.000Z</time>
      </trkpt>
      <trkpt lat="43.35543" lon="2.44285">
        <ele>468</ele>
        <time>2017-09-24T14:17:28.000Z</time>
      </trkpt>
      <trkpt lat="43.35542" lon="2.44285">
        <ele>468</ele>
        <time>2017-09-24T14:17:29.000Z</time>
      </trkpt>
      <trkpt lat="43.35541" lon="2.44286">
        <ele>468</ele>
        <time>2017-09-24T14:17:30.000Z</time>
      </trkpt>
      <trkpt lat="43.3554" lon="2.44286">
        <ele>467</ele>
        <time>2017-09-24T14:17:31.000Z</time>
      </trkpt>
      <trkpt lat="43.3554" lon="2.44287">
        <ele>467</ele>
        <time>2017-09-24T14:17:32.000Z</time>
      </trkpt>
      <trkpt lat="43.35538" lon="2.44288">
        <ele>466</ele>
        <time>2017-09-24T14:17:33.000Z</time>
      </trkpt>
      <trkpt lat="43.35537" lon="2.44288">
        <ele>466</ele>
        <time>2017-09-24T14:17:34.000Z</time>
      </trkpt>
      <trkpt lat="43.35536" lon="2.44288">
        <ele>466</ele>
        <time>2017-09-24T14:17:35.000Z</time>
      </trkpt>
      <trkpt lat="43.35536" lon="2.44286">
        <ele>465</ele>
        <time>2017-09-24T14:17:36.000Z</time>
      </trkpt>
      <trkpt lat="43.35535" lon="2.44285">
        <ele>465</ele>
        <time>2017-09-24T14:17:37.000Z</time>
      </trkpt>
      <trkpt lat="43.35535" lon="2.44283">
        <ele>465</ele>
        <time>2017-09-24T14:17:38.000Z</time>
      </trkpt>
      <trkpt lat="43.35535" lon="2.44281">
        <ele>465</ele>
        <time>2017-09-24T14:17:39.000Z</time>
      </trkpt>
      <trkpt lat="43.35535" lon="2.44279">
        <ele>465</ele>
        <time>2017-09-24T14:17:40.000Z</time>
      </trkpt>
      <trkpt lat="43.35534" lon="2.44278">
        <ele>465</ele>
        <time>2017-09-24T14:17:41.000Z</time>
      </trkpt>
      <trkpt lat="43.35534" lon="2.44278">
        <ele>465</ele>
        <time>2017-09-24T14:17:42.000Z</time>
      </trkpt>
      <trkpt lat="43.35534" lon="2.44276">
        <ele>465</ele>
        <time>2017-09-24T14:17:43.000Z</time>
      </trkpt>
      <trkpt lat="43.35534" lon="2.44275">
        <ele>465</ele>
        <time>2017-09-24T14:17:44.000Z</time>
      </trkpt>
      <trkpt lat="43.35534" lon="2.44274">
        <ele>465</ele>
        <time>2017-09-24T14:17:45.000Z</time>
      </trkpt>
      <trkpt lat="43.35534" lon="2.44273">
        <ele>465</ele>
        <time>2017-09-24T14:17:46.000Z</time>
      </trkpt>
      <trkpt lat="43.35533" lon="2.44272">
        <ele>465</ele>
        <time>2017-09-24T14:17:47.000Z</time>
      </trkpt>
      <trkpt lat="43.35533" lon="2.44271">
        <ele>465</ele>
        <time>2017-09-24T14:17:48.000Z</time>
      </trkpt>
      <trkpt lat="43.35532" lon="2.4427">
        <ele>465</ele>
        <time>2017-09-24T14:17:49.000Z</time>
      </trkpt>
      <trkpt lat="43.35532" lon="2.44269">
        <ele>465</ele>
        <time>2017-09-24T14:17:50.000Z</time>
      </trkpt>
      <trkpt lat="43.35532" lon="2.44267">
        <ele>465</ele>
        <time>2017-09-24T14:17:51.000Z</time>
      </trkpt>
      <trkpt lat="43.35532" lon="2.44266">
        <ele>465</ele>
        <time>2017-09-24T14:17:52.000Z</time>
      </trkpt>
      <trkpt lat="43.35532" lon="2.44265">
        <ele>465</ele>
        <time>2017-09-24T14:17:53.000Z</time>
      </trkpt>
      <trkpt lat="43.35532" lon="2.44264">
        <ele>465</ele>
        <time>2017-09-24T14:17:54.000Z</time>
      </trkpt>
      <trkpt lat="43.35531" lon="2.44264">
        <ele>464</ele>
        <time>2017-09-24T14:17:55.000Z</time>
      </trkpt>
      <trkpt lat="43.3553" lon="2.44263">
        <ele>464</ele>
        <time>2017-09-24T14:17:56.000Z</time>
      </trkpt>
      <trkpt lat="43.3553" lon="2.44262">
        <ele>464</ele>
        <time>2017-09-24T14:17:57.000Z</time>
      </trkpt>
      <trkpt lat="43.3553" lon="2.44263">
        <ele>464</ele>
        <time>2017-09-24T14:17:58.000Z</time>
      </trkpt>
      <trkpt lat="43.35529" lon="2.44262">
        <ele>464</ele>
        <time>2017-09-24T14:17:59.000Z</time>
      </trkpt>
      <trkpt lat="43.35529" lon="2.44262">
        <ele>464</ele>
        <time>2017-09-24T14:18:00.000Z</time>
      </trkpt>
      <trkpt lat="43.35529" lon="2.44261">
        <ele>464</ele>
        <time>2017-09-24T14:18:01.000Z</time>
      </trkpt>
      <trkpt lat="43.35529" lon="2.44261">
        <ele>464</ele>
        <time>2017-09-24T14:18:02.000Z</time>
      </trkpt>
      <trkpt lat="43.35528" lon="2.44261">
        <ele>463</ele>
        <time>2017-09-24T14:18:03.000Z</time>
      </trkpt>
      <trkpt lat="43.35528" lon="2.44261">
        <ele>463</ele>
        <time>2017-09-24T14:18:04.000Z</time>
      </trkpt>
      <trkpt lat="43.35527" lon="2.4426">
        <ele>463</ele>
        <time>2017-09-24T14:18:05.000Z</time>
      </trkpt>
      <trkpt lat="43.35527" lon="2.4426">
        <ele>463</ele>
        <time>2017-09-24T14:18:06.000Z</time>
      </trkpt>
      <trkpt lat="43.35526" lon="2.44259">
        <ele>463</ele>
        <time>2017-09-24T14:18:07.000Z</time>
      </trkpt>
      <trkpt lat="43.35526" lon="2.44259">
        <ele>463</ele>
        <time>2017-09-24T14:18:08.000Z</time>
      </trkpt>
      <trkpt lat="43.35525" lon="2.44258">
        <ele>463</ele>
        <time>2017-09-24T14:18:09.000Z</time>
      </trkpt>
      <trkpt lat="43.35525" lon="2.44258">
        <ele>463</ele>
        <time>2017-09-24T14:18:10.000Z</time>
      </trkpt>
      <trkpt lat="43.35499" lon="2.44237">
        <ele>463</ele>
        <time>2017-09-24T14:24:11.000Z</time>
      </trkpt>
      <trkpt lat="43.35498" lon="2.44237">
        <ele>463</ele>
        <time>2017-09-24T14:24:12.000Z</time>
      </trkpt>
      <trkpt lat="43.35497" lon="2.44238">
        <ele>462</ele>
        <time>2017-09-24T14:24:13.000Z</time>
      </trkpt>
      <trkpt lat="43.35496" lon="2.44238">
        <ele>463</ele>
        <time>2017-09-24T14:24:14.000Z</time>
      </trkpt>
      <trkpt lat="43.35496" lon="2.44238">
        <ele>462</ele>
        <time>2017-09-24T14:24:15.000Z</time>
      </trkpt>
      <trkpt lat="43.35495" lon="2.44238">
        <ele>462</ele>
        <time>2017-09-24T14:24:16.000Z</time>
      </trkpt>
      <trkpt lat="43.35495" lon="2.44239">
        <ele>462</ele>
        <time>2017-09-24T14:24:17.000Z</time>
      </trkpt>
      <trkpt lat="43.35494" lon="2.44239">
        <ele>462</ele>
        <time>2017-09-24T14:24:18.000Z</time>
      </trkpt>
      <trkpt lat="43.35494" lon="2.44238">
        <ele>462</ele>
        <time>2017-09-24T14:24:19.000Z</time>
      </trkpt>
      <trkpt lat="43.35494" lon="2.44239">
        <ele>462</ele>
        <time>2017-09-24T14:24:20.000Z</time>
      </trkpt>
      <trkpt lat="43.35493" lon="2.4424">
        <ele>462</ele>
        <time>2017-09-24T14:24:21.000Z</time>
      </trkpt>
      <trkpt lat="43.35493" lon="2.44241">
        <ele>462</ele>
        <time>2017-09-24T14:24:22.000Z</time>
      </trkpt>
      <trkpt lat="43.35492" lon="2.44243">
        <ele>461</ele>
        <time>2017-09-24T14:24:23.000Z</time>
      </trkpt>
      <trkpt lat="43.35492" lon="2.44244">
        <ele>461</ele>
        <time>2017-09-24T14:24:24.000Z</time>
      </trkpt>
      <trkpt lat="43.35492" lon="2.44245">
        <ele>460</ele>
        <time>2017-09-24T14:24:25.000Z</time>
      </trkpt>
      <trkpt lat="43.3549" lon="2.44246">
        <ele>460</ele>
        <time>2017-09-24T14:24:26.000Z</time>
      </trkpt>
      <trkpt lat="43.3549" lon="2.44246">
        <ele>460</ele>
        <time>2017-09-24T14:24:27.000Z</time>
      </trkpt>
      <trkpt lat="43.35489" lon="2.44247">
        <ele>460</ele>
        <time>2017-09-24T14:24:28.000Z</time>
      </trkpt>
      <trkpt lat="43.35488" lon="2.44248">
        <ele>459</ele>
        <time>2017-09-24T14:24:29.000Z</time>
      </trkpt>
      <trkpt lat="43.35487" lon="2.44249">
        <ele>459</ele>
        <time>2017-09-24T14:24:30.000Z</time>
      </trkpt>
      <trkpt lat="43.35486" lon="2.4425">
        <ele>459</ele>
        <time>2017-09-24T14:24:31.000Z</time>
      </trkpt>
      <trkpt lat="43.35485" lon="2.44251">
        <ele>459</ele>
        <time>2017-09-24T14:24:32.000Z</time>
      </trkpt>
      <trkpt lat="43.35484" lon="2.44251">
        <ele>459</ele>
        <time>2017-09-24T14:24:33.000Z</time>
      </trkpt>
      <trkpt lat="43.35482" lon="2.44251">
        <ele>459</ele>
        <time>2017-09-24T14:24:34.000Z</time>
      </trkpt>
      <trkpt lat="43.35481" lon="2.4425">
        <ele>459</ele>
        <time>2017-09-24T14:24:35.000Z</time>
      </trkpt>
      <trkpt lat="43.3548" lon="2.44249">
        <ele>459</ele>
        <time>2017-09-24T14:24:36.000Z</time>
      </trkpt>
      <trkpt lat="43.35479" lon="2.44249">
        <ele>459</ele>
        <time>2017-09-24T14:24:37.000Z</time>
      </trkpt>
      <trkpt lat="43.35478" lon="2.44248">
        <ele>459</ele>
        <time>2017-09-24T14:24:38.000Z</time>
      </trkpt>
      <trkpt lat="43.35476" lon="2.44249">
        <ele>459</ele>
        <time>2017-09-24T14:24:39.000Z</time>
      </trkpt>
      <trkpt lat="43.35475" lon="2.44249">
        <ele>459</ele>
        <time>2017-09-24T14:24:40.000Z</time>
      </trkpt>
      <trkpt lat="43.35473" lon="2.44249">
        <ele>459</ele>
        <time>2017-09-24T14:24:41.000Z</time>
      </trkpt>
      <trkpt lat="43.35472" lon="2.44248">
        <ele>459</ele>
        <time>2017-09-24T14:24:42.000Z</time>
      </trkpt>
      <trkpt lat="43.35471" lon="2.44248">
        <ele>459</ele>
        <time>2017-09-24T14:24:43.000Z</time>
      </trkpt>
      <trkpt lat="43.3547" lon="2.44248">
        <ele>459</ele>
        <time>2017-09-24T14:24:44.000Z</time>
      </trkpt>
      <trkpt lat="43.35469" lon="2.44248">
        <ele>459</ele>
        <time>2017-09-24T14:24:45.000Z</time>
      </trkpt>
      <trkpt lat="43.35469" lon="2.44248">
        <ele>459</ele>
        <time>2017-09-24T14:24:46.000Z</time>
      </trkpt>
      <trkpt lat="43.35468" lon="2.44248">
        <ele>459</ele>
        <time>2017-09-24T14:24:47.000Z</time>
      </trkpt>
      <trkpt lat="43.35467" lon="2.44248">
        <ele>459</ele>
        <time>2017-09-24T14:24:48.000Z</time>
      </trkpt>
      <trkpt lat="43.35466" lon="2.44247">
        <ele>460</ele>
        <time>2017-09-24T14:24:49.000Z</time>
      </trkpt>
      <trkpt lat="43.35465" lon="2.44247">
        <ele>460</ele>
        <time>2017-09-24T14:24:50.000Z</time>
      </trkpt>
      <trkpt lat="43.35465" lon="2.44247">
        <ele>460</ele>
        <time>2017-09-24T14:24:51.000Z</time>
      </trkpt>
      <trkpt lat="43.35464" lon="2.44247">
        <ele>460</ele>
        <time>2017-09-24T14:24:52.000Z</time>
      </trkpt>
      <trkpt lat="43.35463" lon="2.44247">
        <ele>460</ele>
        <time>2017-09-24T14:24:53.000Z</time>
      </trkpt>
      <trkpt lat="43.35462" lon="2.44248">
        <ele>459</ele>
        <time>2017-09-24T14:24:54.000Z</time>
      </trkpt>
      <trkpt lat="43.35461" lon="2.44248">
        <ele>459</ele>
        <time>2017-09-24T14:24:55.000Z</time>
      </trkpt>
      <trkpt lat="43.3546" lon="2.44248">
        <ele>459</ele>
        <time>2017-09-24T14:24:56.000Z</time>
      </trkpt>
      <trkpt lat="43.35459" lon="2.44248">
        <ele>459</ele>
        <time>2017-09-24T14:24:57.000Z</time>
      </trkpt>
      <trkpt lat="43.35458" lon="2.44247">
        <ele>460</ele>
        <time>2017-09-24T14:24:58.000Z</time>
      </trkpt>
      <trkpt lat="43.35457" lon="2.44247">
        <ele>460</ele>
        <time>2017-09-24T14:24:59.000Z</time>
      </trkpt>
      <trkpt lat="43.35456" lon="2.44247">
        <ele>460</ele>
        <time>2017-09-24T14:25:00.000Z</time>
      </trkpt>
      <trkpt lat="43.35456" lon="2.44246">
        <ele>460</ele>
        <time>2017-09-24T14:25:01.000Z</time>
      </trkpt>
      <trkpt lat="43.35455" lon="2.44246">
        <ele>460</ele>
        <time>2017-09-24T14:25:02.000Z</time>
      </trkpt>
      <trkpt lat="43.35454" lon="2.44246">
        <ele>460</ele>
        <time>2017-09-24T14:25:03.000Z</time>
      </trkpt>
      <trkpt lat="43.35453" lon="2.44246">
        <ele>460</ele>
        <time>2017-09-24T14:25:04.000Z</time>
      </trkpt>
      <trkpt lat="43.35452" lon="2.44246">
        <ele>460</ele>
        <time>2017-09-24T14:25:05.000Z</time>
      </trkpt>
      <trkpt lat="43.35451" lon="2.44246">
        <ele>460</ele>
        <time>2017-09-24T14:25:06.000Z</time>
      </trkpt>
      <trkpt lat="43.3545" lon="2.44246">
        <ele>460</ele>
        <time>2017-09-24T14:25:07.000Z</time>
      </trkpt>
      <trkpt lat="43.3545" lon="2.44246">
        <ele>460</ele>
        <time>2017-09-24T14:25:08.000Z</time>
      </trkpt>
      <trkpt lat="43.35449" lon="2.44245">
        <ele>460</ele>
        <time>2017-09-24T14:25:09.000Z</time>
      </trkpt>
      <trkpt lat="43.35448" lon="2.44246">
        <ele>460</ele>
        <time>2017-09-24T14:25:10.000Z</time>
      </trkpt>
      <trkpt lat="43.35447" lon="2.44245">
        <ele>460</ele>
        <time>2017-09-24T14:25:11.000Z</time>
      </trkpt>
      <trkpt lat="43.35447" lon="2.44245">
        <ele>460</ele>
        <time>2017-09-24T14:25:12.000Z</time>
      </trkpt>
      <trkpt lat="43.35446" lon="2.44245">
        <ele>460</ele>
        <time>2017-09-24T14:25:13.000Z</time>
      </trkpt>
      <trkpt lat="43.35445" lon="2.44245">
        <ele>460</ele>
        <time>2017-09-24T14:25:14.000Z</time>
      </trkpt>
      <trkpt lat="43.35444" lon="2.44245">
        <ele>460</ele>
        <time>2017-09-24T14:25:15.000Z</time>
      </trkpt>
      <trkpt lat="43.35443" lon="2.44245">
        <ele>460</ele>
        <time>2017-09-24T14:25:16.000Z</time>
      </trkpt>
      <trkpt lat="43.35442" lon="2.44245">
        <ele>460</ele>
        <time>2017-09-24T14:25:17.000Z</time>
      </trkpt>
      <trkpt lat="43.35442" lon="2.44245">
        <ele>460</ele>
        <time>2017-09-24T14:25:18.000Z</time>
      </trkpt>
      <trkpt lat="43.35441" lon="2.44245">
        <ele>460</ele>
        <time>2017-09-24T14:25:19.000Z</time>
      </trkpt>
      <trkpt lat="43.3544" lon="2.44246">
        <ele>460</ele>
        <time>2017-09-24T14:25:20.000Z</time>
      </trkpt>
      <trkpt lat="43.3544" lon="2.44246">
        <ele>460</ele>
        <time>2017-09-24T14:25:21.000Z</time>
      </trkpt>
      <trkpt lat="43.35439" lon="2.44247">
        <ele>460</ele>
        <time>2017-09-24T14:25:22.000Z</time>
      </trkpt>
      <trkpt lat="43.35439" lon="2.44247">
        <ele>460</ele>
        <time>2017-09-24T14:25:23.000Z</time>
      </trkpt>
      <trkpt lat="43.35437" lon="2.44247">
        <ele>460</ele>
        <time>2017-09-24T14:25:24.000Z</time>
      </trkpt>
      <trkpt lat="43.35436" lon="2.44247">
        <ele>460</ele>
        <time>2017-09-24T14:25:25.000Z</time>
      </trkpt>
      <trkpt lat="43.35436" lon="2.44247">
        <ele>460</ele>
        <time>2017-09-24T14:25:26.000Z</time>
      </trkpt>
      <trkpt lat="43.35435" lon="2.44247">
        <ele>460</ele>
        <time>2017-09-24T14:25:27.000Z</time>
      </trkpt>
      <trkpt lat="43.35434" lon="2.44246">
        <ele>460</ele>
        <time>2017-09-24T14:25:28.000Z</time>
      </trkpt>
      <trkpt lat="43.35434" lon="2.44246">
        <ele>460</ele>
        <time>2017-09-24T14:25:29.000Z</time>
      </trkpt>
      <trkpt lat="43.35433" lon="2.44246">
        <ele>460</ele>
        <time>2017-09-24T14:25:30.000Z</time>
      </trkpt>
      <trkpt lat="43.35432" lon="2.44246">
        <ele>460</ele>
        <time>2017-09-24T14:25:31.000Z</time>
      </trkpt>
      <trkpt lat="43.35431" lon="2.44246">
        <ele>460</ele>
        <time>2017-09-24T14:25:32.000Z</time>
      </trkpt>
      <trkpt lat="43.3543" lon="2.44246">
        <ele>460</ele>
        <time>2017-09-24T14:25:33.000Z</time>
      </trkpt>
      <trkpt lat="43.35429" lon="2.44245">
        <ele>460</ele>
        <time>2017-09-24T14:25:34.000Z</time>
      </trkpt>
      <trkpt lat="43.35428" lon="2.44246">
        <ele>460</ele>
        <time>2017-09-24T14:25:35.000Z</time>
      </trkpt>
      <trkpt lat="43.35427" lon="2.44245">
        <ele>460</ele>
        <time>2017-09-24T14:25:36.000Z</time>
      </trkpt>
      <trkpt lat="43.35426" lon="2.44244">
        <ele>461</ele>
        <time>2017-09-24T14:25:37.000Z</time>
      </trkpt>
      <trkpt lat="43.35425" lon="2.44244">
        <ele>461</ele>
        <time>2017-09-24T14:25:38.000Z</time>
      </trkpt>
      <trkpt lat="43.35424" lon="2.44244">
        <ele>461</ele>
        <time>2017-09-24T14:25:39.000Z</time>
      </trkpt>
      <trkpt lat="43.35423" lon="2.44244">
        <ele>461</ele>
        <time>2017-09-24T14:25:40.000Z</time>
      </trkpt>
      <trkpt lat="43.35422" lon="2.44244">
        <ele>461</ele>
        <time>2017-09-24T14:25:41.000Z</time>
      </trkpt>
      <trkpt lat="43.35421" lon="2.44244">
        <ele>461</ele>
        <time>2017-09-24T14:25:42.000Z</time>
      </trkpt>
      <trkpt lat="43.3542" lon="2.44245">
        <ele>461</ele>
        <time>2017-09-24T14:25:43.000Z</time>
      </trkpt>
      <trkpt lat="43.35418" lon="2.44244">
        <ele>461</ele>
        <time>2017-09-24T14:25:44.000Z</time>
      </trkpt>
      <trkpt lat="43.35417" lon="2.44245">
        <ele>461</ele>
        <time>2017-09-24T14:25:45.000Z</time>
      </trkpt>
      <trkpt lat="43.35416" lon="2.44245">
        <ele>461</ele>
        <time>2017-09-24T14:25:46.000Z</time>
      </trkpt>
      <trkpt lat="43.35415" lon="2.44244">
        <ele>461</ele>
        <time>2017-09-24T14:25:47.000Z</time>
      </trkpt>
      <trkpt lat="43.35414" lon="2.44244">
        <ele>461</ele>
        <time>2017-09-24T14:25:48.000Z</time>
      </trkpt>
      <trkpt lat="43.35414" lon="2.44243">
        <ele>461</ele>
        <time>2017-09-24T14:25:49.000Z</time>
      </trkpt>
      <trkpt lat="43.35414" lon="2.44241">
        <ele>462</ele>
        <time>2017-09-24T14:25:50.000Z</time>
      </trkpt>
      <trkpt lat="43.35413" lon="2.44241">
        <ele>462</ele>
        <time>2017-09-24T14:25:51.000Z</time>
      </trkpt>
      <trkpt lat="43.35413" lon="2.4424">
        <ele>462</ele>
        <time>2017-09-24T14:25:52.000Z</time>
      </trkpt>
      <trkpt lat="43.35413" lon="2.44239">
        <ele>462</ele>
        <time>2017-09-24T14:25:53.000Z</time>
      </trkpt>
      <trkpt lat="43.35413" lon="2.44239">
        <ele>463</ele>
        <time>2017-09-24T14:25:54.000Z</time>
      </trkpt>
      <trkpt lat="43.35412" lon="2.44238">
        <ele>463</ele>
        <time>2017-09-24T14:25:55.000Z</time>
      </trkpt>
      <trkpt lat="43.35412" lon="2.44238">
        <ele>463</ele>
        <time>2017-09-24T14:25:56.000Z</time>
      </trkpt>
      <trkpt lat="43.35412" lon="2.44237">
        <ele>463</ele>
        <time>2017-09-24T14:25:57.000Z</time>
      </trkpt>
      <trkpt lat="43.35412" lon="2.44237">
        <ele>463</ele>
        <time>2017-09-24T14:25:58.000Z</time>
      </trkpt>
      <trkpt lat="43.35411" lon="2.44236">
        <ele>464</ele>
        <time>2017-09-24T14:25:59.000Z</time>
      </trkpt>
      <trkpt lat="43.35411" lon="2.44235">
        <ele>464</ele>
        <time>2017-09-24T14:26:00.000Z</time>
      </trkpt>
      <trkpt lat="43.35411" lon="2.44235">
        <ele>464</ele>
        <time>2017-09-24T14:26:01.000Z</time>
      </trkpt>
      <trkpt lat="43.3541" lon="2.44235">
        <ele>464</ele>
        <time>2017-09-24T14:26:02.000Z</time>
      </trkpt>
      <trkpt lat="43.3541" lon="2.44234">
        <ele>464</ele>
        <time>2017-09-24T14:26:03.000Z</time>
      </trkpt>
      <trkpt lat="43.35409" lon="2.44234">
        <ele>464</ele>
        <time>2017-09-24T14:26:04.000Z</time>
      </trkpt>
      <trkpt lat="43.35408" lon="2.44235">
        <ele>464</ele>
        <time>2017-09-24T14:26:05.000Z</time>
      </trkpt>
      <trkpt lat="43.35407" lon="2.44234">
        <ele>464</ele>
        <time>2017-09-24T14:26:06.000Z</time>
      </trkpt>
      <trkpt lat="43.35407" lon="2.44234">
        <ele>464</ele>
        <time>2017-09-24T14:26:07.000Z</time>
      </trkpt>
      <trkpt lat="43.35407" lon="2.44234">
        <ele>464</ele>
        <time>2017-09-24T14:26:08.000Z</time>
      </trkpt>
      <trkpt lat="43.35406" lon="2.44233">
        <ele>464</ele>
        <time>2017-09-24T14:26:09.000Z</time>
      </trkpt>
      <trkpt lat="43.35406" lon="2.44233">
        <ele>465</ele>
        <time>2017-09-24T14:26:10.000Z</time>
      </trkpt>
      <trkpt lat="43.35406" lon="2.44233">
        <ele>465</ele>
        <time>2017-09-24T14:26:11.000Z</time>
      </trkpt>
      <trkpt lat="43.35405" lon="2.44232">
        <ele>465</ele>
        <time>2017-09-24T14:26:12.000Z</time>
      </trkpt>
      <trkpt lat="43.35405" lon="2.44232">
        <ele>465</ele>
        <time>2017-09-24T14:26:13.000Z</time>
      </trkpt>
      <trkpt lat="43.35404" lon="2.44232">
        <ele>465</ele>
        <time>2017-09-24T14:26:14.000Z</time>
      </trkpt>
      <trkpt lat="43.35403" lon="2.44231">
        <ele>465</ele>
        <time>2017-09-24T14:26:15.000Z</time>
      </trkpt>
      <trkpt lat="43.35403" lon="2.44231">
        <ele>465</ele>
        <time>2017-09-24T14:26:16.000Z</time>
      </trkpt>
      <trkpt lat="43.35402" lon="2.4423">
        <ele>466</ele>
        <time>2017-09-24T14:26:17.000Z</time>
      </trkpt>
      <trkpt lat="43.35402" lon="2.4423">
        <ele>466</ele>
        <time>2017-09-24T14:26:18.000Z</time>
      </trkpt>
      <trkpt lat="43.35402" lon="2.44229">
        <ele>466</ele>
        <time>2017-09-24T14:26:19.000Z</time>
      </trkpt>
      <trkpt lat="43.35401" lon="2.44229">
        <ele>466</ele>
        <time>2017-09-24T14:26:20.000Z</time>
      </trkpt>
      <trkpt lat="43.35401" lon="2.44228">
        <ele>466</ele>
        <time>2017-09-24T14:26:21.000Z</time>
      </trkpt>
      <trkpt lat="43.354" lon="2.44228">
        <ele>466</ele>
        <time>2017-09-24T14:26:22.000Z</time>
      </trkpt>
      <trkpt lat="43.354" lon="2.44227">
        <ele>467</ele>
        <time>2017-09-24T14:26:23.000Z</time>
      </trkpt>
      <trkpt lat="43.354" lon="2.44226">
        <ele>467</ele>
        <time>2017-09-24T14:26:24.000Z</time>
      </trkpt>
      <trkpt lat="43.354" lon="2.44226">
        <ele>467</ele>
        <time>2017-09-24T14:26:25.000Z</time>
      </trkpt>
      <trkpt lat="43.354" lon="2.44225">
        <ele>467</ele>
        <time>2017-09-24T14:26:26.000Z</time>
      </trkpt>
      <trkpt lat="43.35399" lon="2.44225">
        <ele>468</ele>
        <time>2017-09-24T14:26:27.000Z</time>
      </trkpt>
      <trkpt lat="43.35398" lon="2.44224">
        <ele>468</ele>
        <time>2017-09-24T14:26:28.000Z</time>
      </trkpt>
      <trkpt lat="43.35398" lon="2.44223">
        <ele>468</ele>
        <time>2017-09-24T14:26:29.000Z</time>
      </trkpt>
      <trkpt lat="43.35397" lon="2.44223">
        <ele>468</ele>
        <time>2017-09-24T14:26:30.000Z</time>
      </trkpt>
      <trkpt lat="43.35396" lon="2.44222">
        <ele>468</ele>
        <time>2017-09-24T14:26:31.000Z</time>
      </trkpt>
      <trkpt lat="43.35395" lon="2.44222">
        <ele>468</ele>
        <time>2017-09-24T14:26:32.000Z</time>
      </trkpt>
      <trkpt lat="43.35393" lon="2.44221">
        <ele>469</ele>
        <time>2017-09-24T14:26:33.000Z</time>
      </trkpt>
      <trkpt lat="43.35392" lon="2.44221">
        <ele>469</ele>
        <time>2017-09-24T14:26:34.000Z</time>
      </trkpt>
      <trkpt lat="43.35391" lon="2.44221">
        <ele>469</ele>
        <time>2017-09-24T14:26:35.000Z</time>
      </trkpt>
      <trkpt lat="43.3539" lon="2.4422">
        <ele>469</ele>
        <time>2017-09-24T14:26:36.000Z</time>
      </trkpt>
      <trkpt lat="43.35389" lon="2.44219">
        <ele>469</ele>
        <time>2017-09-24T14:26:37.000Z</time>
      </trkpt>
      <trkpt lat="43.35387" lon="2.44219">
        <ele>470</ele>
        <time>2017-09-24T14:26:38.000Z</time>
      </trkpt>
      <trkpt lat="43.35387" lon="2.44218">
        <ele>470</ele>
        <time>2017-09-24T14:26:39.000Z</time>
      </trkpt>
      <trkpt lat="43.35386" lon="2.44217">
        <ele>470</ele>
        <time>2017-09-24T14:26:40.000Z</time>
      </trkpt>
      <trkpt lat="43.35385" lon="2.44217">
        <ele>470</ele>
        <time>2017-09-24T14:26:41.000Z</time>
      </trkpt>
      <trkpt lat="43.35383" lon="2.44216">
        <ele>470</ele>
        <time>2017-09-24T14:26:42.000Z</time>
      </trkpt>
      <trkpt lat="43.35382" lon="2.44216">
        <ele>471</ele>
        <time>2017-09-24T14:26:43.000Z</time>
      </trkpt>
      <trkpt lat="43.35381" lon="2.44215">
        <ele>471</ele>
        <time>2017-09-24T14:26:44.000Z</time>
      </trkpt>
      <trkpt lat="43.3538" lon="2.44214">
        <ele>471</ele>
        <time>2017-09-24T14:26:45.000Z</time>
      </trkpt>
      <trkpt lat="43.3538" lon="2.44214">
        <ele>471</ele>
        <time>2017-09-24T14:26:46.000Z</time>
      </trkpt>
      <trkpt lat="43.35379" lon="2.44213">
        <ele>472</ele>
        <time>2017-09-24T14:26:47.000Z</time>
      </trkpt>
      <trkpt lat="43.35379" lon="2.44211">
        <ele>472</ele>
        <time>2017-09-24T14:26:48.000Z</time>
      </trkpt>
      <trkpt lat="43.35379" lon="2.44211">
        <ele>472</ele>
        <time>2017-09-24T14:26:49.000Z</time>
      </trkpt>
      <trkpt lat="43.35379" lon="2.4421">
        <ele>473</ele>
        <time>2017-09-24T14:26:50.000Z</time>
      </trkpt>
      <trkpt lat="43.35378" lon="2.4421">
        <ele>473</ele>
        <time>2017-09-24T14:26:51.000Z</time>
      </trkpt>
      <trkpt lat="43.35378" lon="2.44209">
        <ele>473</ele>
        <time>2017-09-24T14:26:52.000Z</time>
      </trkpt>
      <trkpt lat="43.35378" lon="2.44209">
        <ele>473</ele>
        <time>2017-09-24T14:26:53.000Z</time>
      </trkpt>
      <trkpt lat="43.35377" lon="2.44208">
        <ele>473</ele>
        <time>2017-09-24T14:26:54.000Z</time>
      </trkpt>
      <trkpt lat="43.35377" lon="2.44208">
        <ele>473</ele>
        <time>2017-09-24T14:26:55.000Z</time>
      </trkpt>
      <trkpt lat="43.35376" lon="2.44207">
        <ele>474</ele>
        <time>2017-09-24T14:26:56.000Z</time>
      </trkpt>
      <trkpt lat="43.35376" lon="2.44207">
        <ele>474</ele>
        <time>2017-09-24T14:26:57.000Z</time>
      </trkpt>
      <trkpt lat="43.35375" lon="2.44206">
        <ele>474</ele>
        <time>2017-09-24T14:26:58.000Z</time>
      </trkpt>
      <trkpt lat="43.35375" lon="2.44206">
        <ele>474</ele>
        <time>2017-09-24T14:26:59.000Z</time>
      </trkpt>
      <trkpt lat="43.35374" lon="2.44205">
        <ele>474</ele>
        <time>2017-09-24T14:27:00.000Z</time>
      </trkpt>
      <trkpt lat="43.35374" lon="2.44204">
        <ele>475</ele>
        <time>2017-09-24T14:27:01.000Z</time>
      </trkpt>
      <trkpt lat="43.35373" lon="2.44204">
        <ele>475</ele>
        <time>2017-09-24T14:27:02.000Z</time>
      </trkpt>
      <trkpt lat="43.35373" lon="2.44203">
        <ele>475</ele>
        <time>2017-09-24T14:27:03.000Z</time>
      </trkpt>
      <trkpt lat="43.35372" lon="2.44203">
        <ele>475</ele>
        <time>2017-09-24T14:27:04.000Z</time>
      </trkpt>
      <trkpt lat="43.35372" lon="2.44202">
        <ele>475</ele>
        <time>2017-09-24T14:27:05.000Z</time>
      </trkpt>
      <trkpt lat="43.35371" lon="2.44202">
        <ele>475</ele>
        <time>2017-09-24T14:27:06.000Z</time>
      </trkpt>
      <trkpt lat="43.35371" lon="2.44202">
        <ele>476</ele>
        <time>2017-09-24T14:27:07.000Z</time>
      </trkpt>
      <trkpt lat="43.3537" lon="2.44201">
        <ele>476</ele>
        <time>2017-09-24T14:27:08.000Z</time>
      </trkpt>
      <trkpt lat="43.3537" lon="2.44201">
        <ele>476</ele>
        <time>2017-09-24T14:27:09.000Z</time>
      </trkpt>
      <trkpt lat="43.35369" lon="2.442">
        <ele>476</ele>
        <time>2017-09-24T14:27:10.000Z</time>
      </trkpt>
      <trkpt lat="43.35368" lon="2.442">
        <ele>476</ele>
        <time>2017-09-24T14:27:11.000Z</time>
      </trkpt>
      <trkpt lat="43.35367" lon="2.442">
        <ele>476</ele>
        <time>2017-09-24T14:27:12.000Z</time>
      </trkpt>
      <trkpt lat="43.35366" lon="2.442">
        <ele>476</ele>
        <time>2017-09-24T14:27:13.000Z</time>
      </trkpt>
      <trkpt lat="43.35366" lon="2.442">
        <ele>476</ele>
        <time>2017-09-24T14:27:14.000Z</time>
      </trkpt>
      <trkpt lat="43.35365" lon="2.44199">
        <ele>476</ele>
        <time>2017-09-24T14:27:15.000Z</time>
      </trkpt>
      <trkpt lat="43.35364" lon="2.44198">
        <ele>477</ele>
        <time>2017-09-24T14:27:16.000Z</time>
      </trkpt>
      <trkpt lat="43.35364" lon="2.44197">
        <ele>477</ele>
        <time>2017-09-24T14:27:17.000Z</time>
      </trkpt>
      <trkpt lat="43.35363" lon="2.44196">
        <ele>477</ele>
        <time>2017-09-24T14:27:18.000Z</time>
      </trkpt>
      <trkpt lat="43.35362" lon="2.44196">
        <ele>477</ele>
        <time>2017-09-24T14:27:19.000Z</time>
      </trkpt>
      <trkpt lat="43.35362" lon="2.44196">
        <ele>477</ele>
        <time>2017-09-24T14:27:20.000Z</time>
      </trkpt>
      <trkpt lat="43.35361" lon="2.44196">
        <ele>477</ele>
        <time>2017-09-24T14:27:21.000Z</time>
      </trkpt>
      <trkpt lat="43.3536" lon="2.44196">
        <ele>477</ele>
        <time>2017-09-24T14:27:22.000Z</time>
      </trkpt>
      <trkpt lat="43.35359" lon="2.44196">
        <ele>477</ele>
        <time>2017-09-24T14:27:23.000Z</time>
      </trkpt>
      <trkpt lat="43.35358" lon="2.44196">
        <ele>478</ele>
        <time>2017-09-24T14:27:24.000Z</time>
      </trkpt>
      <trkpt lat="43.35357" lon="2.44196">
        <ele>478</ele>
        <time>2017-09-24T14:27:25.000Z</time>
      </trkpt>
      <trkpt lat="43.35356" lon="2.44195">
        <ele>478</ele>
        <time>2017-09-24T14:27:26.000Z</time>
      </trkpt>
      <trkpt lat="43.35355" lon="2.44195">
        <ele>478</ele>
        <time>2017-09-24T14:27:27.000Z</time>
      </trkpt>
      <trkpt lat="43.35354" lon="2.44195">
        <ele>478</ele>
        <time>2017-09-24T14:27:28.000Z</time>
      </trkpt>
      <trkpt lat="43.35353" lon="2.44195">
        <ele>478</ele>
        <time>2017-09-24T14:27:29.000Z</time>
      </trkpt>
      <trkpt lat="43.35352" lon="2.44194">
        <ele>478</ele>
        <time>2017-09-24T14:27:30.000Z</time>
      </trkpt>
      <trkpt lat="43.35351" lon="2.44194">
        <ele>478</ele>
        <time>2017-09-24T14:27:31.000Z</time>
      </trkpt>
      <trkpt lat="43.3535" lon="2.44195">
        <ele>478</ele>
        <time>2017-09-24T14:27:32.000Z</time>
      </trkpt>
      <trkpt lat="43.35349" lon="2.44195">
        <ele>478</ele>
        <time>2017-09-24T14:27:33.000Z</time>
      </trkpt>
      <trkpt lat="43.35348" lon="2.44195">
        <ele>478</ele>
        <time>2017-09-24T14:27:34.000Z</time>
      </trkpt>
      <trkpt lat="43.35347" lon="2.44195">
        <ele>478</ele>
        <time>2017-09-24T14:27:35.000Z</time>
      </trkpt>
      <trkpt lat="43.35346" lon="2.44196">
        <ele>477</ele>
        <time>2017-09-24T14:27:36.000Z</time>
      </trkpt>
      <trkpt lat="43.35345" lon="2.44196">
        <ele>477</ele>
        <time>2017-09-24T14:27:37.000Z</time>
      </trkpt>
      <trkpt lat="43.35344" lon="2.44195">
        <ele>477</ele>
        <time>2017-09-24T14:27:38.000Z</time>
      </trkpt>
      <trkpt lat="43.35343" lon="2.44196">
        <ele>476</ele>
        <time>2017-09-24T14:27:39.000Z</time>
      </trkpt>
      <trkpt lat="43.35342" lon="2.44196">
        <ele>476</ele>
        <time>2017-09-24T14:27:40.000Z</time>
      </trkpt>
      <trkpt lat="43.35341" lon="2.44196">
        <ele>476</ele>
        <time>2017-09-24T14:27:41.000Z</time>
      </trkpt>
      <trkpt lat="43.35339" lon="2.44196">
        <ele>476</ele>
        <time>2017-09-24T14:27:42.000Z</time>
      </trkpt>
      <trkpt lat="43.35338" lon="2.44196">
        <ele>475</ele>
        <time>2017-09-24T14:27:43.000Z</time>
      </trkpt>
      <trkpt lat="43.35338" lon="2.44196">
        <ele>475</ele>
        <time>2017-09-24T14:27:44.000Z</time>
      </trkpt>
      <trkpt lat="43.35337" lon="2.44195">
        <ele>475</ele>
        <time>2017-09-24T14:27:45.000Z</time>
      </trkpt>
      <trkpt lat="43.35336" lon="2.44195">
        <ele>475</ele>
        <time>2017-09-24T14:27:46.000Z</time>
      </trkpt>
      <trkpt lat="43.35335" lon="2.44195">
        <ele>475</ele>
        <time>2017-09-24T14:27:47.000Z</time>
      </trkpt>
      <trkpt lat="43.35335" lon="2.44196">
        <ele>475</ele>
        <time>2017-09-24T14:27:48.000Z</time>
      </trkpt>
      <trkpt lat="43.35334" lon="2.44196">
        <ele>474</ele>
        <time>2017-09-24T14:27:49.000Z</time>
      </trkpt>
      <trkpt lat="43.35334" lon="2.44196">
        <ele>474</ele>
        <time>2017-09-24T14:27:50.000Z</time>
      </trkpt>
      <trkpt lat="43.35334" lon="2.44196">
        <ele>474</ele>
        <time>2017-09-24T14:27:51.000Z</time>
      </trkpt>
      <trkpt lat="43.35326" lon="2.4419">
        <ele>475</ele>
        <time>2017-09-24T14:28:06.000Z</time>
      </trkpt>
      <trkpt lat="43.35325" lon="2.44191">
        <ele>474</ele>
        <time>2017-09-24T14:28:07.000Z</time>
      </trkpt>
      <trkpt lat="43.35324" lon="2.44191">
        <ele>474</ele>
        <time>2017-09-24T14:28:08.000Z</time>
      </trkpt>
      <trkpt lat="43.35324" lon="2.44191">
        <ele>474</ele>
        <time>2017-09-24T14:28:09.000Z</time>
      </trkpt>
      <trkpt lat="43.35323" lon="2.44191">
        <ele>473</ele>
        <time>2017-09-24T14:28:10.000Z</time>
      </trkpt>
      <trkpt lat="43.35322" lon="2.44191">
        <ele>473</ele>
        <time>2017-09-24T14:28:11.000Z</time>
      </trkpt>
      <trkpt lat="43.35321" lon="2.44191">
        <ele>473</ele>
        <time>2017-09-24T14:28:12.000Z</time>
      </trkpt>
      <trkpt lat="43.3532" lon="2.44191">
        <ele>473</ele>
        <time>2017-09-24T14:28:13.000Z</time>
      </trkpt>
      <trkpt lat="43.35319" lon="2.44191">
        <ele>473</ele>
        <time>2017-09-24T14:28:14.000Z</time>
      </trkpt>
      <trkpt lat="43.35318" lon="2.44191">
        <ele>472</ele>
        <time>2017-09-24T14:28:15.000Z</time>
      </trkpt>
      <trkpt lat="43.35317" lon="2.44191">
        <ele>472</ele>
        <time>2017-09-24T14:28:16.000Z</time>
      </trkpt>
      <trkpt lat="43.35316" lon="2.4419">
        <ele>472</ele>
        <time>2017-09-24T14:28:17.000Z</time>
      </trkpt>
      <trkpt lat="43.35315" lon="2.4419">
        <ele>472</ele>
        <time>2017-09-24T14:28:18.000Z</time>
      </trkpt>
      <trkpt lat="43.35314" lon="2.44189">
        <ele>472</ele>
        <time>2017-09-24T14:28:19.000Z</time>
      </trkpt>
      <trkpt lat="43.35313" lon="2.44189">
        <ele>472</ele>
        <time>2017-09-24T14:28:20.000Z</time>
      </trkpt>
      <trkpt lat="43.35312" lon="2.44189">
        <ele>472</ele>
        <time>2017-09-24T14:28:21.000Z</time>
      </trkpt>
      <trkpt lat="43.35312" lon="2.44188">
        <ele>472</ele>
        <time>2017-09-24T14:28:22.000Z</time>
      </trkpt>
      <trkpt lat="43.35311" lon="2.44188">
        <ele>472</ele>
        <time>2017-09-24T14:28:23.000Z</time>
      </trkpt>
      <trkpt lat="43.35311" lon="2.44187">
        <ele>472</ele>
        <time>2017-09-24T14:28:24.000Z</time>
      </trkpt>
      <trkpt lat="43.3531" lon="2.44187">
        <ele>472</ele>
        <time>2017-09-24T14:28:25.000Z</time>
      </trkpt>
      <trkpt lat="43.35309" lon="2.44187">
        <ele>472</ele>
        <time>2017-09-24T14:28:26.000Z</time>
      </trkpt>
      <trkpt lat="43.35309" lon="2.44187">
        <ele>472</ele>
        <time>2017-09-24T14:28:27.000Z</time>
      </trkpt>
      <trkpt lat="43.35308" lon="2.44187">
        <ele>472</ele>
        <time>2017-09-24T14:28:28.000Z</time>
      </trkpt>
      <trkpt lat="43.35307" lon="2.44187">
        <ele>472</ele>
        <time>2017-09-24T14:28:29.000Z</time>
      </trkpt>
      <trkpt lat="43.35307" lon="2.44186">
        <ele>471</ele>
        <time>2017-09-24T14:28:30.000Z</time>
      </trkpt>
      <trkpt lat="43.35306" lon="2.44186">
        <ele>471</ele>
        <time>2017-09-24T14:28:31.000Z</time>
      </trkpt>
      <trkpt lat="43.35305" lon="2.44186">
        <ele>471</ele>
        <time>2017-09-24T14:28:32.000Z</time>
      </trkpt>
      <trkpt lat="43.35304" lon="2.44186">
        <ele>471</ele>
        <time>2017-09-24T14:28:33.000Z</time>
      </trkpt>
      <trkpt lat="43.35303" lon="2.44186">
        <ele>471</ele>
        <time>2017-09-24T14:28:34.000Z</time>
      </trkpt>
      <trkpt lat="43.35302" lon="2.44185">
        <ele>471</ele>
        <time>2017-09-24T14:28:35.000Z</time>
      </trkpt>
      <trkpt lat="43.35301" lon="2.44185">
        <ele>471</ele>
        <time>2017-09-24T14:28:36.000Z</time>
      </trkpt>
      <trkpt lat="43.35301" lon="2.44185">
        <ele>471</ele>
        <time>2017-09-24T14:28:37.000Z</time>
      </trkpt>
      <trkpt lat="43.353" lon="2.44184">
        <ele>471</ele>
        <time>2017-09-24T14:28:38.000Z</time>
      </trkpt>
      <trkpt lat="43.35299" lon="2.44184">
        <ele>470</ele>
        <time>2017-09-24T14:28:39.000Z</time>
      </trkpt>
      <trkpt lat="43.35298" lon="2.44184">
        <ele>470</ele>
        <time>2017-09-24T14:28:40.000Z</time>
      </trkpt>
      <trkpt lat="43.35297" lon="2.44184">
        <ele>470</ele>
        <time>2017-09-24T14:28:41.000Z</time>
      </trkpt>
      <trkpt lat="43.35296" lon="2.44183">
        <ele>470</ele>
        <time>2017-09-24T14:28:42.000Z</time>
      </trkpt>
      <trkpt lat="43.35295" lon="2.44182">
        <ele>470</ele>
        <time>2017-09-24T14:28:43.000Z</time>
      </trkpt>
      <trkpt lat="43.35294" lon="2.44182">
        <ele>470</ele>
        <time>2017-09-24T14:28:44.000Z</time>
      </trkpt>
      <trkpt lat="43.35293" lon="2.44182">
        <ele>470</ele>
        <time>2017-09-24T14:28:45.000Z</time>
      </trkpt>
      <trkpt lat="43.35293" lon="2.44181">
        <ele>470</ele>
        <time>2017-09-24T14:28:46.000Z</time>
      </trkpt>
      <trkpt lat="43.35292" lon="2.44181">
        <ele>470</ele>
        <time>2017-09-24T14:28:47.000Z</time>
      </trkpt>
      <trkpt lat="43.35291" lon="2.4418">
        <ele>470</ele>
        <time>2017-09-24T14:28:48.000Z</time>
      </trkpt>
      <trkpt lat="43.35291" lon="2.4418">
        <ele>470</ele>
        <time>2017-09-24T14:28:49.000Z</time>
      </trkpt>
      <trkpt lat="43.3529" lon="2.44179">
        <ele>470</ele>
        <time>2017-09-24T14:28:50.000Z</time>
      </trkpt>
      <trkpt lat="43.35289" lon="2.44179">
        <ele>470</ele>
        <time>2017-09-24T14:28:51.000Z</time>
      </trkpt>
      <trkpt lat="43.35289" lon="2.44178">
        <ele>470</ele>
        <time>2017-09-24T14:28:52.000Z</time>
      </trkpt>
      <trkpt lat="43.35288" lon="2.44178">
        <ele>470</ele>
        <time>2017-09-24T14:28:53.000Z</time>
      </trkpt>
      <trkpt lat="43.35287" lon="2.44177">
        <ele>470</ele>
        <time>2017-09-24T14:28:54.000Z</time>
      </trkpt>
      <trkpt lat="43.35286" lon="2.44176">
        <ele>470</ele>
        <time>2017-09-24T14:28:55.000Z</time>
      </trkpt>
      <trkpt lat="43.35285" lon="2.44176">
        <ele>470</ele>
        <time>2017-09-24T14:28:56.000Z</time>
      </trkpt>
      <trkpt lat="43.35285" lon="2.44176">
        <ele>470</ele>
        <time>2017-09-24T14:28:57.000Z</time>
      </trkpt>
      <trkpt lat="43.35284" lon="2.44176">
        <ele>470</ele>
        <time>2017-09-24T14:28:58.000Z</time>
      </trkpt>
      <trkpt lat="43.35283" lon="2.44175">
        <ele>470</ele>
        <time>2017-09-24T14:28:59.000Z</time>
      </trkpt>
      <trkpt lat="43.35282" lon="2.44175">
        <ele>470</ele>
        <time>2017-09-24T14:29:00.000Z</time>
      </trkpt>
      <trkpt lat="43.35281" lon="2.44175">
        <ele>470</ele>
        <time>2017-09-24T14:29:01.000Z</time>
      </trkpt>
      <trkpt lat="43.3528" lon="2.44174">
        <ele>470</ele>
        <time>2017-09-24T14:29:02.000Z</time>
      </trkpt>
      <trkpt lat="43.35279" lon="2.44174">
        <ele>470</ele>
        <time>2017-09-24T14:29:03.000Z</time>
      </trkpt>
      <trkpt lat="43.35278" lon="2.44173">
        <ele>470</ele>
        <time>2017-09-24T14:29:04.000Z</time>
      </trkpt>
      <trkpt lat="43.35277" lon="2.44173">
        <ele>470</ele>
        <time>2017-09-24T14:29:05.000Z</time>
      </trkpt>
      <trkpt lat="43.35276" lon="2.44172">
        <ele>470</ele>
        <time>2017-09-24T14:29:06.000Z</time>
      </trkpt>
      <trkpt lat="43.35275" lon="2.44171">
        <ele>470</ele>
        <time>2017-09-24T14:29:07.000Z</time>
      </trkpt>
      <trkpt lat="43.35274" lon="2.4417">
        <ele>470</ele>
        <time>2017-09-24T14:29:08.000Z</time>
      </trkpt>
      <trkpt lat="43.35274" lon="2.44169">
        <ele>470</ele>
        <time>2017-09-24T14:29:09.000Z</time>
      </trkpt>
      <trkpt lat="43.35273" lon="2.44168">
        <ele>470</ele>
        <time>2017-09-24T14:29:10.000Z</time>
      </trkpt>
      <trkpt lat="43.35272" lon="2.44168">
        <ele>470</ele>
        <time>2017-09-24T14:29:11.000Z</time>
      </trkpt>
      <trkpt lat="43.35271" lon="2.44167">
        <ele>470</ele>
        <time>2017-09-24T14:29:12.000Z</time>
      </trkpt>
      <trkpt lat="43.35271" lon="2.44166">
        <ele>470</ele>
        <time>2017-09-24T14:29:13.000Z</time>
      </trkpt>
      <trkpt lat="43.3527" lon="2.44165">
        <ele>471</ele>
        <time>2017-09-24T14:29:14.000Z</time>
      </trkpt>
      <trkpt lat="43.3527" lon="2.44164">
        <ele>471</ele>
        <time>2017-09-24T14:29:15.000Z</time>
      </trkpt>
      <trkpt lat="43.3527" lon="2.44163">
        <ele>471</ele>
        <time>2017-09-24T14:29:16.000Z</time>
      </trkpt>
      <trkpt lat="43.35269" lon="2.44162">
        <ele>471</ele>
        <time>2017-09-24T14:29:17.000Z</time>
      </trkpt>
      <trkpt lat="43.35269" lon="2.44161">
        <ele>471</ele>
        <time>2017-09-24T14:29:18.000Z</time>
      </trkpt>
      <trkpt lat="43.35269" lon="2.4416">
        <ele>471</ele>
        <time>2017-09-24T14:29:19.000Z</time>
      </trkpt>
      <trkpt lat="43.35269" lon="2.4416">
        <ele>471</ele>
        <time>2017-09-24T14:29:20.000Z</time>
      </trkpt>
      <trkpt lat="43.35269" lon="2.44159">
        <ele>471</ele>
        <time>2017-09-24T14:29:21.000Z</time>
      </trkpt>
      <trkpt lat="43.35268" lon="2.44159">
        <ele>471</ele>
        <time>2017-09-24T14:29:22.000Z</time>
      </trkpt>
      <trkpt lat="43.35268" lon="2.44159">
        <ele>471</ele>
        <time>2017-09-24T14:29:23.000Z</time>
      </trkpt>
      <trkpt lat="43.35267" lon="2.44158">
        <ele>471</ele>
        <time>2017-09-24T14:29:24.000Z</time>
      </trkpt>
      <trkpt lat="43.35267" lon="2.44156">
        <ele>471</ele>
        <time>2017-09-24T14:29:25.000Z</time>
      </trkpt>
      <trkpt lat="43.35267" lon="2.44155">
        <ele>471</ele>
        <time>2017-09-24T14:29:26.000Z</time>
      </trkpt>
      <trkpt lat="43.35266" lon="2.44154">
        <ele>471</ele>
        <time>2017-09-24T14:29:27.000Z</time>
      </trkpt>
      <trkpt lat="43.35266" lon="2.44153">
        <ele>472</ele>
        <time>2017-09-24T14:29:28.000Z</time>
      </trkpt>
      <trkpt lat="43.35266" lon="2.44151">
        <ele>472</ele>
        <time>2017-09-24T14:29:29.000Z</time>
      </trkpt>
      <trkpt lat="43.35265" lon="2.44149">
        <ele>472</ele>
        <time>2017-09-24T14:29:30.000Z</time>
      </trkpt>
      <trkpt lat="43.35265" lon="2.44148">
        <ele>472</ele>
        <time>2017-09-24T14:29:31.000Z</time>
      </trkpt>
      <trkpt lat="43.35265" lon="2.44146">
        <ele>472</ele>
        <time>2017-09-24T14:29:32.000Z</time>
      </trkpt>
      <trkpt lat="43.35265" lon="2.44145">
        <ele>473</ele>
        <time>2017-09-24T14:29:33.000Z</time>
      </trkpt>
      <trkpt lat="43.35265" lon="2.44143">
        <ele>473</ele>
        <time>2017-09-24T14:29:34.000Z</time>
      </trkpt>
      <trkpt lat="43.35265" lon="2.44143">
        <ele>473</ele>
        <time>2017-09-24T14:29:35.000Z</time>
      </trkpt>
      <trkpt lat="43.35265" lon="2.44142">
        <ele>473</ele>
        <time>2017-09-24T14:29:36.000Z</time>
      </trkpt>
      <trkpt lat="43.35264" lon="2.44142">
        <ele>473</ele>
        <time>2017-09-24T14:29:37.000Z</time>
      </trkpt>
      <trkpt lat="43.35263" lon="2.44141">
        <ele>473</ele>
        <time>2017-09-24T14:29:38.000Z</time>
      </trkpt>
      <trkpt lat="43.35263" lon="2.44139">
        <ele>473</ele>
        <time>2017-09-24T14:29:39.000Z</time>
      </trkpt>
      <trkpt lat="43.35262" lon="2.44138">
        <ele>472</ele>
        <time>2017-09-24T14:29:40.000Z</time>
      </trkpt>
      <trkpt lat="43.35261" lon="2.44137">
        <ele>472</ele>
        <time>2017-09-24T14:29:41.000Z</time>
      </trkpt>
      <trkpt lat="43.35261" lon="2.44137">
        <ele>472</ele>
        <time>2017-09-24T14:29:42.000Z</time>
      </trkpt>
      <trkpt lat="43.3526" lon="2.44136">
        <ele>472</ele>
        <time>2017-09-24T14:29:43.000Z</time>
      </trkpt>
      <trkpt lat="43.35259" lon="2.44135">
        <ele>472</ele>
        <time>2017-09-24T14:29:44.000Z</time>
      </trkpt>
      <trkpt lat="43.35258" lon="2.44133">
        <ele>472</ele>
        <time>2017-09-24T14:29:45.000Z</time>
      </trkpt>
      <trkpt lat="43.35258" lon="2.44131">
        <ele>472</ele>
        <time>2017-09-24T14:29:46.000Z</time>
      </trkpt>
      <trkpt lat="43.35257" lon="2.4413">
        <ele>472</ele>
        <time>2017-09-24T14:29:47.000Z</time>
      </trkpt>
      <trkpt lat="43.35257" lon="2.44128">
        <ele>472</ele>
        <time>2017-09-24T14:29:48.000Z</time>
      </trkpt>
      <trkpt lat="43.35257" lon="2.44127">
        <ele>472</ele>
        <time>2017-09-24T14:29:49.000Z</time>
      </trkpt>
      <trkpt lat="43.35256" lon="2.44126">
        <ele>472</ele>
        <time>2017-09-24T14:29:50.000Z</time>
      </trkpt>
      <trkpt lat="43.35256" lon="2.44124">
        <ele>473</ele>
        <time>2017-09-24T14:29:51.000Z</time>
      </trkpt>
      <trkpt lat="43.35256" lon="2.44123">
        <ele>473</ele>
        <time>2017-09-24T14:29:52.000Z</time>
      </trkpt>
      <trkpt lat="43.35255" lon="2.44121">
        <ele>473</ele>
        <time>2017-09-24T14:29:53.000Z</time>
      </trkpt>
      <trkpt lat="43.35255" lon="2.4412">
        <ele>473</ele>
        <time>2017-09-24T14:29:54.000Z</time>
      </trkpt>
      <trkpt lat="43.35254" lon="2.44119">
        <ele>473</ele>
        <time>2017-09-24T14:29:55.000Z</time>
      </trkpt>
      <trkpt lat="43.35254" lon="2.44118">
        <ele>473</ele>
        <time>2017-09-24T14:29:56.000Z</time>
      </trkpt>
      <trkpt lat="43.35254" lon="2.44116">
        <ele>473</ele>
        <time>2017-09-24T14:29:57.000Z</time>
      </trkpt>
      <trkpt lat="43.35253" lon="2.44115">
        <ele>473</ele>
        <time>2017-09-24T14:29:58.000Z</time>
      </trkpt>
      <trkpt lat="43.35253" lon="2.44114">
        <ele>473</ele>
        <time>2017-09-24T14:29:59.000Z</time>
      </trkpt>
      <trkpt lat="43.35253" lon="2.44114">
        <ele>473</ele>
        <time>2017-09-24T14:30:00.000Z</time>
      </trkpt>
      <trkpt lat="43.35252" lon="2.44113">
        <ele>473</ele>
        <time>2017-09-24T14:30:01.000Z</time>
      </trkpt>
      <trkpt lat="43.35252" lon="2.44112">
        <ele>473</ele>
        <time>2017-09-24T14:30:02.000Z</time>
      </trkpt>
      <trkpt lat="43.35252" lon="2.44111">
        <ele>473</ele>
        <time>2017-09-24T14:30:03.000Z</time>
      </trkpt>
      <trkpt lat="43.35251" lon="2.4411">
        <ele>473</ele>
        <time>2017-09-24T14:30:04.000Z</time>
      </trkpt>
      <trkpt lat="43.35251" lon="2.44109">
        <ele>473</ele>
        <time>2017-09-24T14:30:05.000Z</time>
      </trkpt>
      <trkpt lat="43.35251" lon="2.44109">
        <ele>473</ele>
        <time>2017-09-24T14:30:06.000Z</time>
      </trkpt>
      <trkpt lat="43.3525" lon="2.44108">
        <ele>473</ele>
        <time>2017-09-24T14:30:07.000Z</time>
      </trkpt>
      <trkpt lat="43.3525" lon="2.44107">
        <ele>473</ele>
        <time>2017-09-24T14:30:08.000Z</time>
      </trkpt>
      <trkpt lat="43.35249" lon="2.44106">
        <ele>473</ele>
        <time>2017-09-24T14:30:09.000Z</time>
      </trkpt>
      <trkpt lat="43.35249" lon="2.44105">
        <ele>473</ele>
        <time>2017-09-24T14:30:10.000Z</time>
      </trkpt>
      <trkpt lat="43.35249" lon="2.44104">
        <ele>473</ele>
        <time>2017-09-24T14:30:11.000Z</time>
      </trkpt>
      <trkpt lat="43.35249" lon="2.44103">
        <ele>473</ele>
        <time>2017-09-24T14:30:12.000Z</time>
      </trkpt>
      <trkpt lat="43.35249" lon="2.44102">
        <ele>474</ele>
        <time>2017-09-24T14:30:13.000Z</time>
      </trkpt>
      <trkpt lat="43.35249" lon="2.44102">
        <ele>474</ele>
        <time>2017-09-24T14:30:14.000Z</time>
      </trkpt>
      <trkpt lat="43.35249" lon="2.44101">
        <ele>474</ele>
        <time>2017-09-24T14:30:15.000Z</time>
      </trkpt>
      <trkpt lat="43.35248" lon="2.44101">
        <ele>474</ele>
        <time>2017-09-24T14:30:16.000Z</time>
      </trkpt>
      <trkpt lat="43.35247" lon="2.441">
        <ele>473</ele>
        <time>2017-09-24T14:30:17.000Z</time>
      </trkpt>
      <trkpt lat="43.35246" lon="2.44099">
        <ele>473</ele>
        <time>2017-09-24T14:30:18.000Z</time>
      </trkpt>
      <trkpt lat="43.35246" lon="2.44098">
        <ele>473</ele>
        <time>2017-09-24T14:30:19.000Z</time>
      </trkpt>
      <trkpt lat="43.35245" lon="2.44097">
        <ele>473</ele>
        <time>2017-09-24T14:30:20.000Z</time>
      </trkpt>
      <trkpt lat="43.35244" lon="2.44096">
        <ele>473</ele>
        <time>2017-09-24T14:30:21.000Z</time>
      </trkpt>
      <trkpt lat="43.35244" lon="2.44095">
        <ele>473</ele>
        <time>2017-09-24T14:30:22.000Z</time>
      </trkpt>
      <trkpt lat="43.35243" lon="2.44094">
        <ele>473</ele>
        <time>2017-09-24T14:30:23.000Z</time>
      </trkpt>
      <trkpt lat="43.35242" lon="2.44093">
        <ele>473</ele>
        <time>2017-09-24T14:30:24.000Z</time>
      </trkpt>
      <trkpt lat="43.35242" lon="2.44091">
        <ele>473</ele>
        <time>2017-09-24T14:30:25.000Z</time>
      </trkpt>
      <trkpt lat="43.35242" lon="2.44091">
        <ele>473</ele>
        <time>2017-09-24T14:30:26.000Z</time>
      </trkpt>
      <trkpt lat="43.35242" lon="2.4409">
        <ele>473</ele>
        <time>2017-09-24T14:30:27.000Z</time>
      </trkpt>
      <trkpt lat="43.35242" lon="2.44089">
        <ele>473</ele>
        <time>2017-09-24T14:30:28.000Z</time>
      </trkpt>
      <trkpt lat="43.35242" lon="2.44089">
        <ele>473</ele>
        <time>2017-09-24T14:30:29.000Z</time>
      </trkpt>
      <trkpt lat="43.35242" lon="2.44089">
        <ele>473</ele>
        <time>2017-09-24T14:30:30.000Z</time>
      </trkpt>
      <trkpt lat="43.35241" lon="2.44088">
        <ele>473</ele>
        <time>2017-09-24T14:30:31.000Z</time>
      </trkpt>
      <trkpt lat="43.35241" lon="2.44087">
        <ele>473</ele>
        <time>2017-09-24T14:30:32.000Z</time>
      </trkpt>
      <trkpt lat="43.3524" lon="2.44087">
        <ele>473</ele>
        <time>2017-09-24T14:30:33.000Z</time>
      </trkpt>
      <trkpt lat="43.3524" lon="2.44086">
        <ele>473</ele>
        <time>2017-09-24T14:30:34.000Z</time>
      </trkpt>
      <trkpt lat="43.35239" lon="2.44085">
        <ele>473</ele>
        <time>2017-09-24T14:30:35.000Z</time>
      </trkpt>
      <trkpt lat="43.35239" lon="2.44084">
        <ele>473</ele>
        <time>2017-09-24T14:30:36.000Z</time>
      </trkpt>
      <trkpt lat="43.35238" lon="2.44083">
        <ele>473</ele>
        <time>2017-09-24T14:30:37.000Z</time>
      </trkpt>
      <trkpt lat="43.35238" lon="2.44082">
        <ele>473</ele>
        <time>2017-09-24T14:30:38.000Z</time>
      </trkpt>
      <trkpt lat="43.35238" lon="2.44081">
        <ele>473</ele>
        <time>2017-09-24T14:30:39.000Z</time>
      </trkpt>
      <trkpt lat="43.35238" lon="2.4408">
        <ele>473</ele>
        <time>2017-09-24T14:30:40.000Z</time>
      </trkpt>
      <trkpt lat="43.35238" lon="2.44078">
        <ele>474</ele>
        <time>2017-09-24T14:30:41.000Z</time>
      </trkpt>
      <trkpt lat="43.35237" lon="2.44076">
        <ele>474</ele>
        <time>2017-09-24T14:30:42.000Z</time>
      </trkpt>
      <trkpt lat="43.35237" lon="2.44075">
        <ele>474</ele>
        <time>2017-09-24T14:30:43.000Z</time>
      </trkpt>
      <trkpt lat="43.35237" lon="2.44074">
        <ele>474</ele>
        <time>2017-09-24T14:30:44.000Z</time>
      </trkpt>
      <trkpt lat="43.35237" lon="2.44073">
        <ele>474</ele>
        <time>2017-09-24T14:30:45.000Z</time>
      </trkpt>
      <trkpt lat="43.35237" lon="2.44072">
        <ele>474</ele>
        <time>2017-09-24T14:30:46.000Z</time>
      </trkpt>
      <trkpt lat="43.35238" lon="2.44071">
        <ele>475</ele>
        <time>2017-09-24T14:30:47.000Z</time>
      </trkpt>
      <trkpt lat="43.35237" lon="2.44071">
        <ele>475</ele>
        <time>2017-09-24T14:30:48.000Z</time>
      </trkpt>
      <trkpt lat="43.35237" lon="2.4407">
        <ele>475</ele>
        <time>2017-09-24T14:30:49.000Z</time>
      </trkpt>
      <trkpt lat="43.35238" lon="2.4407">
        <ele>475</ele>
        <time>2017-09-24T14:30:50.000Z</time>
      </trkpt>
      <trkpt lat="43.35232" lon="2.44062">
        <ele>474</ele>
        <time>2017-09-24T14:31:10.000Z</time>
      </trkpt>
      <trkpt lat="43.35232" lon="2.44061">
        <ele>474</ele>
        <time>2017-09-24T14:31:11.000Z</time>
      </trkpt>
      <trkpt lat="43.35232" lon="2.4406">
        <ele>474</ele>
        <time>2017-09-24T14:31:12.000Z</time>
      </trkpt>
      <trkpt lat="43.35231" lon="2.44059">
        <ele>474</ele>
        <time>2017-09-24T14:31:13.000Z</time>
      </trkpt>
      <trkpt lat="43.35232" lon="2.44058">
        <ele>475</ele>
        <time>2017-09-24T14:31:14.000Z</time>
      </trkpt>
      <trkpt lat="43.35231" lon="2.44057">
        <ele>475</ele>
        <time>2017-09-24T14:31:15.000Z</time>
      </trkpt>
      <trkpt lat="43.35231" lon="2.44056">
        <ele>475</ele>
        <time>2017-09-24T14:31:16.000Z</time>
      </trkpt>
      <trkpt lat="43.35231" lon="2.44055">
        <ele>475</ele>
        <time>2017-09-24T14:31:17.000Z</time>
      </trkpt>
      <trkpt lat="43.35231" lon="2.44055">
        <ele>475</ele>
        <time>2017-09-24T14:31:18.000Z</time>
      </trkpt>
      <trkpt lat="43.35231" lon="2.44054">
        <ele>475</ele>
        <time>2017-09-24T14:31:19.000Z</time>
      </trkpt>
      <trkpt lat="43.35232" lon="2.44054">
        <ele>475</ele>
        <time>2017-09-24T14:31:20.000Z</time>
      </trkpt>
      <trkpt lat="43.35223" lon="2.44019">
        <ele>477</ele>
        <time>2017-09-24T14:32:15.000Z</time>
      </trkpt>
      <trkpt lat="43.35223" lon="2.44017">
        <ele>477</ele>
        <time>2017-09-24T14:32:16.000Z</time>
      </trkpt>
      <trkpt lat="43.35223" lon="2.44016">
        <ele>477</ele>
        <time>2017-09-24T14:32:17.000Z</time>
      </trkpt>
      <trkpt lat="43.35223" lon="2.44016">
        <ele>477</ele>
        <time>2017-09-24T14:32:18.000Z</time>
      </trkpt>
      <trkpt lat="43.35223" lon="2.44015">
        <ele>477</ele>
        <time>2017-09-24T14:32:19.000Z</time>
      </trkpt>
      <trkpt lat="43.35222" lon="2.44014">
        <ele>477</ele>
        <time>2017-09-24T14:32:20.000Z</time>
      </trkpt>
      <trkpt lat="43.35222" lon="2.44014">
        <ele>477</ele>
        <time>2017-09-24T14:32:21.000Z</time>
      </trkpt>
      <trkpt lat="43.35222" lon="2.44013">
        <ele>477</ele>
        <time>2017-09-24T14:32:22.000Z</time>
      </trkpt>
      <trkpt lat="43.35222" lon="2.44011">
        <ele>477</ele>
        <time>2017-09-24T14:32:23.000Z</time>
      </trkpt>
      <trkpt lat="43.35221" lon="2.44011">
        <ele>477</ele>
        <time>2017-09-24T14:32:24.000Z</time>
      </trkpt>
      <trkpt lat="43.35221" lon="2.4401">
        <ele>477</ele>
        <time>2017-09-24T14:32:25.000Z</time>
      </trkpt>
      <trkpt lat="43.35221" lon="2.44009">
        <ele>477</ele>
        <time>2017-09-24T14:32:26.000Z</time>
      </trkpt>
      <trkpt lat="43.3522" lon="2.44008">
        <ele>477</ele>
        <time>2017-09-24T14:32:27.000Z</time>
      </trkpt>
      <trkpt lat="43.3522" lon="2.44006">
        <ele>477</ele>
        <time>2017-09-24T14:32:28.000Z</time>
      </trkpt>
      <trkpt lat="43.3522" lon="2.44005">
        <ele>477</ele>
        <time>2017-09-24T14:32:29.000Z</time>
      </trkpt>
      <trkpt lat="43.3522" lon="2.44004">
        <ele>477</ele>
        <time>2017-09-24T14:32:30.000Z</time>
      </trkpt>
      <trkpt lat="43.3522" lon="2.44003">
        <ele>477</ele>
        <time>2017-09-24T14:32:31.000Z</time>
      </trkpt>
      <trkpt lat="43.3522" lon="2.44003">
        <ele>477</ele>
        <time>2017-09-24T14:32:32.000Z</time>
      </trkpt>
      <trkpt lat="43.35219" lon="2.44002">
        <ele>477</ele>
        <time>2017-09-24T14:32:33.000Z</time>
      </trkpt>
      <trkpt lat="43.35219" lon="2.44002">
        <ele>477</ele>
        <time>2017-09-24T14:32:34.000Z</time>
      </trkpt>
      <trkpt lat="43.35219" lon="2.44001">
        <ele>477</ele>
        <time>2017-09-24T14:32:35.000Z</time>
      </trkpt>
      <trkpt lat="43.35219" lon="2.44">
        <ele>477</ele>
        <time>2017-09-24T14:32:36.000Z</time>
      </trkpt>
      <trkpt lat="43.35219" lon="2.43999">
        <ele>477</ele>
        <time>2017-09-24T14:32:37.000Z</time>
      </trkpt>
      <trkpt lat="43.35219" lon="2.43999">
        <ele>477</ele>
        <time>2017-09-24T14:32:38.000Z</time>
      </trkpt>
      <trkpt lat="43.35219" lon="2.43998">
        <ele>477</ele>
        <time>2017-09-24T14:32:39.000Z</time>
      </trkpt>
      <trkpt lat="43.35218" lon="2.43997">
        <ele>477</ele>
        <time>2017-09-24T14:32:40.000Z</time>
      </trkpt>
      <trkpt lat="43.35218" lon="2.43997">
        <ele>477</ele>
        <time>2017-09-24T14:32:41.000Z</time>
      </trkpt>
      <trkpt lat="43.35218" lon="2.43996">
        <ele>477</ele>
        <time>2017-09-24T14:32:42.000Z</time>
      </trkpt>
      <trkpt lat="43.35218" lon="2.43996">
        <ele>477</ele>
        <time>2017-09-24T14:32:43.000Z</time>
      </trkpt>
      <trkpt lat="43.35218" lon="2.43995">
        <ele>477</ele>
        <time>2017-09-24T14:32:44.000Z</time>
      </trkpt>
      <trkpt lat="43.35218" lon="2.43994">
        <ele>478</ele>
        <time>2017-09-24T14:32:45.000Z</time>
      </trkpt>
      <trkpt lat="43.35219" lon="2.43994">
        <ele>478</ele>
        <time>2017-09-24T14:32:46.000Z</time>
      </trkpt>
      <trkpt lat="43.35219" lon="2.43993">
        <ele>478</ele>
        <time>2017-09-24T14:32:47.000Z</time>
      </trkpt>
      <trkpt lat="43.35219" lon="2.43992">
        <ele>478</ele>
        <time>2017-09-24T14:32:48.000Z</time>
      </trkpt>
      <trkpt lat="43.35219" lon="2.43991">
        <ele>478</ele>
        <time>2017-09-24T14:32:49.000Z</time>
      </trkpt>
      <trkpt lat="43.35219" lon="2.4399">
        <ele>478</ele>
        <time>2017-09-24T14:32:50.000Z</time>
      </trkpt>
      <trkpt lat="43.35219" lon="2.43989">
        <ele>478</ele>
        <time>2017-09-24T14:32:51.000Z</time>
      </trkpt>
      <trkpt lat="43.35219" lon="2.43989">
        <ele>478</ele>
        <time>2017-09-24T14:32:52.000Z</time>
      </trkpt>
      <trkpt lat="43.35218" lon="2.43988">
        <ele>478</ele>
        <time>2017-09-24T14:32:53.000Z</time>
      </trkpt>
      <trkpt lat="43.35219" lon="2.43987">
        <ele>479</ele>
        <time>2017-09-24T14:32:54.000Z</time>
      </trkpt>
      <trkpt lat="43.35219" lon="2.43986">
        <ele>479</ele>
        <time>2017-09-24T14:32:55.000Z</time>
      </trkpt>
      <trkpt lat="43.35219" lon="2.43986">
        <ele>479</ele>
        <time>2017-09-24T14:32:56.000Z</time>
      </trkpt>
      <trkpt lat="43.35218" lon="2.43985">
        <ele>479</ele>
        <time>2017-09-24T14:32:57.000Z</time>
      </trkpt>
      <trkpt lat="43.35218" lon="2.43985">
        <ele>479</ele>
        <time>2017-09-24T14:32:58.000Z</time>
      </trkpt>
      <trkpt lat="43.35216" lon="2.43953">
        <ele>483</ele>
        <time>2017-09-24T14:33:52.000Z</time>
      </trkpt>
      <trkpt lat="43.35216" lon="2.43952">
        <ele>483</ele>
        <time>2017-09-24T14:33:53.000Z</time>
      </trkpt>
      <trkpt lat="43.35216" lon="2.43951">
        <ele>483</ele>
        <time>2017-09-24T14:33:54.000Z</time>
      </trkpt>
      <trkpt lat="43.35216" lon="2.4395">
        <ele>483</ele>
        <time>2017-09-24T14:33:55.000Z</time>
      </trkpt>
      <trkpt lat="43.35216" lon="2.43949">
        <ele>483</ele>
        <time>2017-09-24T14:33:56.000Z</time>
      </trkpt>
      <trkpt lat="43.35216" lon="2.43948">
        <ele>483</ele>
        <time>2017-09-24T14:33:57.000Z</time>
      </trkpt>
      <trkpt lat="43.35216" lon="2.43948">
        <ele>483</ele>
        <time>2017-09-24T14:33:58.000Z</time>
      </trkpt>
      <trkpt lat="43.35196" lon="2.43904">
        <ele>482</ele>
        <time>2017-09-24T14:43:53.000Z</time>
      </trkpt>
      <trkpt lat="43.35195" lon="2.43905">
        <ele>482</ele>
        <time>2017-09-24T14:43:54.000Z</time>
      </trkpt>
      <trkpt lat="43.35195" lon="2.43905">
        <ele>482</ele>
        <time>2017-09-24T14:43:55.000Z</time>
      </trkpt>
      <trkpt lat="43.35194" lon="2.43906">
        <ele>482</ele>
        <time>2017-09-24T14:43:56.000Z</time>
      </trkpt>
      <trkpt lat="43.35194" lon="2.43908">
        <ele>481</ele>
        <time>2017-09-24T14:43:57.000Z</time>
      </trkpt>
      <trkpt lat="43.35194" lon="2.43908">
        <ele>481</ele>
        <time>2017-09-24T14:43:58.000Z</time>
      </trkpt>
      <trkpt lat="43.35194" lon="2.43909">
        <ele>481</ele>
        <time>2017-09-24T14:43:59.000Z</time>
      </trkpt>
      <trkpt lat="43.35193" lon="2.4391">
        <ele>481</ele>
        <time>2017-09-24T14:44:00.000Z</time>
      </trkpt>
      <trkpt lat="43.35193" lon="2.43911">
        <ele>481</ele>
        <time>2017-09-24T14:44:01.000Z</time>
      </trkpt>
      <trkpt lat="43.35192" lon="2.43912">
        <ele>480</ele>
        <time>2017-09-24T14:44:02.000Z</time>
      </trkpt>
      <trkpt lat="43.35192" lon="2.43913">
        <ele>480</ele>
        <time>2017-09-24T14:44:03.000Z</time>
      </trkpt>
      <trkpt lat="43.35191" lon="2.43914">
        <ele>480</ele>
        <time>2017-09-24T14:44:04.000Z</time>
      </trkpt>
      <trkpt lat="43.3519" lon="2.43916">
        <ele>480</ele>
        <time>2017-09-24T14:44:05.000Z</time>
      </trkpt>
      <trkpt lat="43.3519" lon="2.43917">
        <ele>480</ele>
        <time>2017-09-24T14:44:06.000Z</time>
      </trkpt>
      <trkpt lat="43.35189" lon="2.43918">
        <ele>480</ele>
        <time>2017-09-24T14:44:07.000Z</time>
      </trkpt>
      <trkpt lat="43.35189" lon="2.4392">
        <ele>480</ele>
        <time>2017-09-24T14:44:08.000Z</time>
      </trkpt>
      <trkpt lat="43.35188" lon="2.43921">
        <ele>480</ele>
        <time>2017-09-24T14:44:09.000Z</time>
      </trkpt>
      <trkpt lat="43.35188" lon="2.43922">
        <ele>480</ele>
        <time>2017-09-24T14:44:10.000Z</time>
      </trkpt>
      <trkpt lat="43.35187" lon="2.43923">
        <ele>480</ele>
        <time>2017-09-24T14:44:11.000Z</time>
      </trkpt>
      <trkpt lat="43.35187" lon="2.43924">
        <ele>479</ele>
        <time>2017-09-24T14:44:12.000Z</time>
      </trkpt>
      <trkpt lat="43.35186" lon="2.43925">
        <ele>479</ele>
        <time>2017-09-24T14:44:13.000Z</time>
      </trkpt>
      <trkpt lat="43.35185" lon="2.43925">
        <ele>479</ele>
        <time>2017-09-24T14:44:14.000Z</time>
      </trkpt>
      <trkpt lat="43.35185" lon="2.43926">
        <ele>478</ele>
        <time>2017-09-24T14:44:15.000Z</time>
      </trkpt>
      <trkpt lat="43.35184" lon="2.43927">
        <ele>478</ele>
        <time>2017-09-24T14:44:16.000Z</time>
      </trkpt>
      <trkpt lat="43.35184" lon="2.43927">
        <ele>478</ele>
        <time>2017-09-24T14:44:17.000Z</time>
      </trkpt>
      <trkpt lat="43.35176" lon="2.43935">
        <ele>479</ele>
        <time>2017-09-24T14:45:34.000Z</time>
      </trkpt>
      <trkpt lat="43.35175" lon="2.43935">
        <ele>479</ele>
        <time>2017-09-24T14:45:35.000Z</time>
      </trkpt>
      <trkpt lat="43.35174" lon="2.43935">
        <ele>480</ele>
        <time>2017-09-24T14:45:36.000Z</time>
      </trkpt>
      <trkpt lat="43.35174" lon="2.43935">
        <ele>480</ele>
        <time>2017-09-24T14:45:37.000Z</time>
      </trkpt>
      <trkpt lat="43.35173" lon="2.43935">
        <ele>480</ele>
        <time>2017-09-24T14:45:38.000Z</time>
      </trkpt>
      <trkpt lat="43.35172" lon="2.43935">
        <ele>481</ele>
        <time>2017-09-24T14:45:39.000Z</time>
      </trkpt>
      <trkpt lat="43.35171" lon="2.43935">
        <ele>481</ele>
        <time>2017-09-24T14:45:40.000Z</time>
      </trkpt>
      <trkpt lat="43.35171" lon="2.43935">
        <ele>481</ele>
        <time>2017-09-24T14:45:41.000Z</time>
      </trkpt>
      <trkpt lat="43.3517" lon="2.43935">
        <ele>481</ele>
        <time>2017-09-24T14:45:42.000Z</time>
      </trkpt>
      <trkpt lat="43.3517" lon="2.43935">
        <ele>482</ele>
        <time>2017-09-24T14:45:43.000Z</time>
      </trkpt>
      <trkpt lat="43.35169" lon="2.43935">
        <ele>482</ele>
        <time>2017-09-24T14:45:44.000Z</time>
      </trkpt>
      <trkpt lat="43.35169" lon="2.43935">
        <ele>482</ele>
        <time>2017-09-24T14:45:45.000Z</time>
      </trkpt>
      <trkpt lat="43.35168" lon="2.43936">
        <ele>483</ele>
        <time>2017-09-24T14:45:46.000Z</time>
      </trkpt>
      <trkpt lat="43.35167" lon="2.43936">
        <ele>483</ele>
        <time>2017-09-24T14:45:47.000Z</time>
      </trkpt>
      <trkpt lat="43.35167" lon="2.43936">
        <ele>483</ele>
        <time>2017-09-24T14:45:48.000Z</time>
      </trkpt>
      <trkpt lat="43.35166" lon="2.43936">
        <ele>484</ele>
        <time>2017-09-24T14:45:49.000Z</time>
      </trkpt>
      <trkpt lat="43.35165" lon="2.43936">
        <ele>484</ele>
        <time>2017-09-24T14:45:50.000Z</time>
      </trkpt>
      <trkpt lat="43.35164" lon="2.43936">
        <ele>484</ele>
        <time>2017-09-24T14:45:51.000Z</time>
      </trkpt>
      <trkpt lat="43.35164" lon="2.43936">
        <ele>485</ele>
        <time>2017-09-24T14:45:52.000Z</time>
      </trkpt>
      <trkpt lat="43.35163" lon="2.43936">
        <ele>485</ele>
        <time>2017-09-24T14:45:53.000Z</time>
      </trkpt>
      <trkpt lat="43.35162" lon="2.43936">
        <ele>485</ele>
        <time>2017-09-24T14:45:54.000Z</time>
      </trkpt>
      <trkpt lat="43.35162" lon="2.43937">
        <ele>485</ele>
        <time>2017-09-24T14:45:55.000Z</time>
      </trkpt>
      <trkpt lat="43.35162" lon="2.43937">
        <ele>485</ele>
        <time>2017-09-24T14:45:56.000Z</time>
      </trkpt>
      <trkpt lat="43.35161" lon="2.43938">
        <ele>485</ele>
        <time>2017-09-24T14:45:57.000Z</time>
      </trkpt>
      <trkpt lat="43.35161" lon="2.43938">
        <ele>486</ele>
        <time>2017-09-24T14:45:58.000Z</time>
      </trkpt>
      <trkpt lat="43.35161" lon="2.43939">
        <ele>486</ele>
        <time>2017-09-24T14:45:59.000Z</time>
      </trkpt>
      <trkpt lat="43.35161" lon="2.4394">
        <ele>485</ele>
        <time>2017-09-24T14:46:00.000Z</time>
      </trkpt>
      <trkpt lat="43.3516" lon="2.43941">
        <ele>486</ele>
        <time>2017-09-24T14:46:01.000Z</time>
      </trkpt>
      <trkpt lat="43.3516" lon="2.43941">
        <ele>486</ele>
        <time>2017-09-24T14:46:02.000Z</time>
      </trkpt>
      <trkpt lat="43.3516" lon="2.43942">
        <ele>486</ele>
        <time>2017-09-24T14:46:03.000Z</time>
      </trkpt>
      <trkpt lat="43.3516" lon="2.43942">
        <ele>486</ele>
        <time>2017-09-24T14:46:04.000Z</time>
      </trkpt>
      <trkpt lat="43.3516" lon="2.43943">
        <ele>486</ele>
        <time>2017-09-24T14:46:05.000Z</time>
      </trkpt>
      <trkpt lat="43.3516" lon="2.43943">
        <ele>485</ele>
        <time>2017-09-24T14:46:06.000Z</time>
      </trkpt>
      <trkpt lat="43.3516" lon="2.43944">
        <ele>485</ele>
        <time>2017-09-24T14:46:07.000Z</time>
      </trkpt>
      <trkpt lat="43.35159" lon="2.43945">
        <ele>486</ele>
        <time>2017-09-24T14:46:08.000Z</time>
      </trkpt>
      <trkpt lat="43.35159" lon="2.43945">
        <ele>486</ele>
        <time>2017-09-24T14:46:09.000Z</time>
      </trkpt>
      <trkpt lat="43.35158" lon="2.43946">
        <ele>486</ele>
        <time>2017-09-24T14:46:10.000Z</time>
      </trkpt>
      <trkpt lat="43.35158" lon="2.43946">
        <ele>486</ele>
        <time>2017-09-24T14:46:11.000Z</time>
      </trkpt>
      <trkpt lat="43.35156" lon="2.43956">
        <ele>485</ele>
        <time>2017-09-24T14:46:24.000Z</time>
      </trkpt>
      <trkpt lat="43.35156" lon="2.43957">
        <ele>485</ele>
        <time>2017-09-24T14:46:25.000Z</time>
      </trkpt>
      <trkpt lat="43.35156" lon="2.43958">
        <ele>485</ele>
        <time>2017-09-24T14:46:26.000Z</time>
      </trkpt>
      <trkpt lat="43.35156" lon="2.43959">
        <ele>485</ele>
        <time>2017-09-24T14:46:27.000Z</time>
      </trkpt>
      <trkpt lat="43.35155" lon="2.4396">
        <ele>485</ele>
        <time>2017-09-24T14:46:28.000Z</time>
      </trkpt>
      <trkpt lat="43.35155" lon="2.43961">
        <ele>485</ele>
        <time>2017-09-24T14:46:29.000Z</time>
      </trkpt>
      <trkpt lat="43.35155" lon="2.43962">
        <ele>485</ele>
        <time>2017-09-24T14:46:30.000Z</time>
      </trkpt>
      <trkpt lat="43.35155" lon="2.43963">
        <ele>485</ele>
        <time>2017-09-24T14:46:31.000Z</time>
      </trkpt>
      <trkpt lat="43.35154" lon="2.43963">
        <ele>485</ele>
        <time>2017-09-24T14:46:32.000Z</time>
      </trkpt>
      <trkpt lat="43.35154" lon="2.43964">
        <ele>485</ele>
        <time>2017-09-24T14:46:33.000Z</time>
      </trkpt>
      <trkpt lat="43.35154" lon="2.43965">
        <ele>485</ele>
        <time>2017-09-24T14:46:34.000Z</time>
      </trkpt>
      <trkpt lat="43.35153" lon="2.43966">
        <ele>485</ele>
        <time>2017-09-24T14:46:35.000Z</time>
      </trkpt>
      <trkpt lat="43.35153" lon="2.43966">
        <ele>486</ele>
        <time>2017-09-24T14:46:36.000Z</time>
      </trkpt>
      <trkpt lat="43.35152" lon="2.43967">
        <ele>486</ele>
        <time>2017-09-24T14:46:37.000Z</time>
      </trkpt>
      <trkpt lat="43.35152" lon="2.43968">
        <ele>486</ele>
        <time>2017-09-24T14:46:38.000Z</time>
      </trkpt>
      <trkpt lat="43.35152" lon="2.43969">
        <ele>486</ele>
        <time>2017-09-24T14:46:39.000Z</time>
      </trkpt>
      <trkpt lat="43.35152" lon="2.4397">
        <ele>485</ele>
        <time>2017-09-24T14:46:40.000Z</time>
      </trkpt>
      <trkpt lat="43.35152" lon="2.43971">
        <ele>485</ele>
        <time>2017-09-24T14:46:41.000Z</time>
      </trkpt>
      <trkpt lat="43.35152" lon="2.43973">
        <ele>485</ele>
        <time>2017-09-24T14:46:42.000Z</time>
      </trkpt>
      <trkpt lat="43.35152" lon="2.43974">
        <ele>485</ele>
        <time>2017-09-24T14:46:43.000Z</time>
      </trkpt>
      <trkpt lat="43.35152" lon="2.43975">
        <ele>485</ele>
        <time>2017-09-24T14:46:44.000Z</time>
      </trkpt>
      <trkpt lat="43.35152" lon="2.43976">
        <ele>485</ele>
        <time>2017-09-24T14:46:45.000Z</time>
      </trkpt>
      <trkpt lat="43.35151" lon="2.43977">
        <ele>485</ele>
        <time>2017-09-24T14:46:46.000Z</time>
      </trkpt>
      <trkpt lat="43.35151" lon="2.43978">
        <ele>485</ele>
        <time>2017-09-24T14:46:47.000Z</time>
      </trkpt>
      <trkpt lat="43.35151" lon="2.43979">
        <ele>485</ele>
        <time>2017-09-24T14:46:48.000Z</time>
      </trkpt>
      <trkpt lat="43.3515" lon="2.4398">
        <ele>485</ele>
        <time>2017-09-24T14:46:49.000Z</time>
      </trkpt>
      <trkpt lat="43.3515" lon="2.43981">
        <ele>485</ele>
        <time>2017-09-24T14:46:50.000Z</time>
      </trkpt>
      <trkpt lat="43.35149" lon="2.43981">
        <ele>485</ele>
        <time>2017-09-24T14:46:51.000Z</time>
      </trkpt>
      <trkpt lat="43.35149" lon="2.43982">
        <ele>486</ele>
        <time>2017-09-24T14:46:52.000Z</time>
      </trkpt>
      <trkpt lat="43.35149" lon="2.43982">
        <ele>486</ele>
        <time>2017-09-24T14:46:53.000Z</time>
      </trkpt>
      <trkpt lat="43.35149" lon="2.43983">
        <ele>486</ele>
        <time>2017-09-24T14:46:54.000Z</time>
      </trkpt>
      <trkpt lat="43.35148" lon="2.43984">
        <ele>486</ele>
        <time>2017-09-24T14:46:55.000Z</time>
      </trkpt>
      <trkpt lat="43.35148" lon="2.43985">
        <ele>485</ele>
        <time>2017-09-24T14:46:56.000Z</time>
      </trkpt>
      <trkpt lat="43.35148" lon="2.43986">
        <ele>485</ele>
        <time>2017-09-24T14:46:57.000Z</time>
      </trkpt>
      <trkpt lat="43.35148" lon="2.43987">
        <ele>485</ele>
        <time>2017-09-24T14:46:58.000Z</time>
      </trkpt>
      <trkpt lat="43.35148" lon="2.43988">
        <ele>485</ele>
        <time>2017-09-24T14:46:59.000Z</time>
      </trkpt>
      <trkpt lat="43.35147" lon="2.43989">
        <ele>485</ele>
        <time>2017-09-24T14:47:00.000Z</time>
      </trkpt>
      <trkpt lat="43.35147" lon="2.4399">
        <ele>486</ele>
        <time>2017-09-24T14:47:01.000Z</time>
      </trkpt>
      <trkpt lat="43.35147" lon="2.4399">
        <ele>486</ele>
        <time>2017-09-24T14:47:02.000Z</time>
      </trkpt>
      <trkpt lat="43.35147" lon="2.43991">
        <ele>485</ele>
        <time>2017-09-24T14:47:03.000Z</time>
      </trkpt>
      <trkpt lat="43.35147" lon="2.43993">
        <ele>485</ele>
        <time>2017-09-24T14:47:04.000Z</time>
      </trkpt>
      <trkpt lat="43.35147" lon="2.43994">
        <ele>485</ele>
        <time>2017-09-24T14:47:05.000Z</time>
      </trkpt>
      <trkpt lat="43.35146" lon="2.43995">
        <ele>485</ele>
        <time>2017-09-24T14:47:06.000Z</time>
      </trkpt>
      <trkpt lat="43.35146" lon="2.43996">
        <ele>486</ele>
        <time>2017-09-24T14:47:07.000Z</time>
      </trkpt>
      <trkpt lat="43.35145" lon="2.43997">
        <ele>486</ele>
        <time>2017-09-24T14:47:08.000Z</time>
      </trkpt>
      <trkpt lat="43.35145" lon="2.43998">
        <ele>486</ele>
        <time>2017-09-24T14:47:09.000Z</time>
      </trkpt>
      <trkpt lat="43.35144" lon="2.43998">
        <ele>486</ele>
        <time>2017-09-24T14:47:10.000Z</time>
      </trkpt>
      <trkpt lat="43.35144" lon="2.43999">
        <ele>486</ele>
        <time>2017-09-24T14:47:11.000Z</time>
      </trkpt>
      <trkpt lat="43.35144" lon="2.43999">
        <ele>486</ele>
        <time>2017-09-24T14:47:12.000Z</time>
      </trkpt>
      <trkpt lat="43.35144" lon="2.44">
        <ele>486</ele>
        <time>2017-09-24T14:47:13.000Z</time>
      </trkpt>
      <trkpt lat="43.35143" lon="2.44">
        <ele>486</ele>
        <time>2017-09-24T14:47:14.000Z</time>
      </trkpt>
      <trkpt lat="43.35143" lon="2.44">
        <ele>487</ele>
        <time>2017-09-24T14:47:15.000Z</time>
      </trkpt>
      <trkpt lat="43.35143" lon="2.44">
        <ele>487</ele>
        <time>2017-09-24T14:47:16.000Z</time>
      </trkpt>
      <trkpt lat="43.35142" lon="2.44001">
        <ele>487</ele>
        <time>2017-09-24T14:47:17.000Z</time>
      </trkpt>
      <trkpt lat="43.35142" lon="2.44002">
        <ele>487</ele>
        <time>2017-09-24T14:47:18.000Z</time>
      </trkpt>
      <trkpt lat="43.35142" lon="2.44002">
        <ele>487</ele>
        <time>2017-09-24T14:47:19.000Z</time>
      </trkpt>
      <trkpt lat="43.35141" lon="2.44003">
        <ele>487</ele>
        <time>2017-09-24T14:47:20.000Z</time>
      </trkpt>
      <trkpt lat="43.35141" lon="2.44003">
        <ele>487</ele>
        <time>2017-09-24T14:47:21.000Z</time>
      </trkpt>
      <trkpt lat="43.35141" lon="2.44004">
        <ele>487</ele>
        <time>2017-09-24T14:47:22.000Z</time>
      </trkpt>
      <trkpt lat="43.3514" lon="2.44005">
        <ele>487</ele>
        <time>2017-09-24T14:47:23.000Z</time>
      </trkpt>
      <trkpt lat="43.3514" lon="2.44006">
        <ele>487</ele>
        <time>2017-09-24T14:47:24.000Z</time>
      </trkpt>
      <trkpt lat="43.35139" lon="2.44007">
        <ele>487</ele>
        <time>2017-09-24T14:47:25.000Z</time>
      </trkpt>
      <trkpt lat="43.35139" lon="2.44007">
        <ele>487</ele>
        <time>2017-09-24T14:47:26.000Z</time>
      </trkpt>
      <trkpt lat="43.35138" lon="2.44008">
        <ele>487</ele>
        <time>2017-09-24T14:47:27.000Z</time>
      </trkpt>
      <trkpt lat="43.35138" lon="2.44009">
        <ele>488</ele>
        <time>2017-09-24T14:47:28.000Z</time>
      </trkpt>
      <trkpt lat="43.35138" lon="2.44009">
        <ele>488</ele>
        <time>2017-09-24T14:47:29.000Z</time>
      </trkpt>
      <trkpt lat="43.35137" lon="2.4401">
        <ele>488</ele>
        <time>2017-09-24T14:47:30.000Z</time>
      </trkpt>
      <trkpt lat="43.35137" lon="2.44011">
        <ele>488</ele>
        <time>2017-09-24T14:47:31.000Z</time>
      </trkpt>
      <trkpt lat="43.35137" lon="2.44012">
        <ele>488</ele>
        <time>2017-09-24T14:47:32.000Z</time>
      </trkpt>
      <trkpt lat="43.35136" lon="2.44012">
        <ele>488</ele>
        <time>2017-09-24T14:47:33.000Z</time>
      </trkpt>
      <trkpt lat="43.35136" lon="2.44013">
        <ele>488</ele>
        <time>2017-09-24T14:47:34.000Z</time>
      </trkpt>
      <trkpt lat="43.35135" lon="2.44013">
        <ele>488</ele>
        <time>2017-09-24T14:47:35.000Z</time>
      </trkpt>
      <trkpt lat="43.35135" lon="2.44014">
        <ele>488</ele>
        <time>2017-09-24T14:47:36.000Z</time>
      </trkpt>
      <trkpt lat="43.35135" lon="2.44014">
        <ele>488</ele>
        <time>2017-09-24T14:47:37.000Z</time>
      </trkpt>
      <trkpt lat="43.35134" lon="2.44015">
        <ele>489</ele>
        <time>2017-09-24T14:47:38.000Z</time>
      </trkpt>
      <trkpt lat="43.35134" lon="2.44015">
        <ele>489</ele>
        <time>2017-09-24T14:47:39.000Z</time>
      </trkpt>
      <trkpt lat="43.35133" lon="2.44016">
        <ele>489</ele>
        <time>2017-09-24T14:47:40.000Z</time>
      </trkpt>
      <trkpt lat="43.35133" lon="2.44016">
        <ele>489</ele>
        <time>2017-09-24T14:47:41.000Z</time>
      </trkpt>
      <trkpt lat="43.35132" lon="2.44017">
        <ele>489</ele>
        <time>2017-09-24T14:47:42.000Z</time>
      </trkpt>
      <trkpt lat="43.35132" lon="2.44018">
        <ele>489</ele>
        <time>2017-09-24T14:47:43.000Z</time>
      </trkpt>
      <trkpt lat="43.35132" lon="2.44018">
        <ele>489</ele>
        <time>2017-09-24T14:47:44.000Z</time>
      </trkpt>
      <trkpt lat="43.35131" lon="2.44019">
        <ele>489</ele>
        <time>2017-09-24T14:47:45.000Z</time>
      </trkpt>
      <trkpt lat="43.35131" lon="2.4402">
        <ele>489</ele>
        <time>2017-09-24T14:47:46.000Z</time>
      </trkpt>
      <trkpt lat="43.35131" lon="2.44021">
        <ele>489</ele>
        <time>2017-09-24T14:47:47.000Z</time>
      </trkpt>
      <trkpt lat="43.3513" lon="2.44021">
        <ele>489</ele>
        <time>2017-09-24T14:47:48.000Z</time>
      </trkpt>
      <trkpt lat="43.3513" lon="2.44022">
        <ele>490</ele>
        <time>2017-09-24T14:47:49.000Z</time>
      </trkpt>
      <trkpt lat="43.35129" lon="2.44022">
        <ele>490</ele>
        <time>2017-09-24T14:47:50.000Z</time>
      </trkpt>
      <trkpt lat="43.35129" lon="2.44023">
        <ele>490</ele>
        <time>2017-09-24T14:47:51.000Z</time>
      </trkpt>
      <trkpt lat="43.35129" lon="2.44023">
        <ele>490</ele>
        <time>2017-09-24T14:47:52.000Z</time>
      </trkpt>
      <trkpt lat="43.35128" lon="2.44024">
        <ele>490</ele>
        <time>2017-09-24T14:47:53.000Z</time>
      </trkpt>
      <trkpt lat="43.35128" lon="2.44025">
        <ele>490</ele>
        <time>2017-09-24T14:47:54.000Z</time>
      </trkpt>
      <trkpt lat="43.35127" lon="2.44025">
        <ele>490</ele>
        <time>2017-09-24T14:47:55.000Z</time>
      </trkpt>
      <trkpt lat="43.35127" lon="2.44025">
        <ele>491</ele>
        <time>2017-09-24T14:47:56.000Z</time>
      </trkpt>
      <trkpt lat="43.35126" lon="2.44026">
        <ele>491</ele>
        <time>2017-09-24T14:47:57.000Z</time>
      </trkpt>
      <trkpt lat="43.35126" lon="2.44026">
        <ele>491</ele>
        <time>2017-09-24T14:47:58.000Z</time>
      </trkpt>
      <trkpt lat="43.35126" lon="2.44027">
        <ele>491</ele>
        <time>2017-09-24T14:47:59.000Z</time>
      </trkpt>
      <trkpt lat="43.35125" lon="2.44028">
        <ele>491</ele>
        <time>2017-09-24T14:48:00.000Z</time>
      </trkpt>
      <trkpt lat="43.35125" lon="2.44028">
        <ele>491</ele>
        <time>2017-09-24T14:48:01.000Z</time>
      </trkpt>
      <trkpt lat="43.35125" lon="2.44029">
        <ele>491</ele>
        <time>2017-09-24T14:48:02.000Z</time>
      </trkpt>
      <trkpt lat="43.35125" lon="2.44029">
        <ele>491</ele>
        <time>2017-09-24T14:48:03.000Z</time>
      </trkpt>
      <trkpt lat="43.35124" lon="2.4403">
        <ele>490</ele>
        <time>2017-09-24T14:48:04.000Z</time>
      </trkpt>
      <trkpt lat="43.35124" lon="2.4403">
        <ele>490</ele>
        <time>2017-09-24T14:48:05.000Z</time>
      </trkpt>
      <trkpt lat="43.35124" lon="2.44031">
        <ele>490</ele>
        <time>2017-09-24T14:48:06.000Z</time>
      </trkpt>
      <trkpt lat="43.35124" lon="2.4406">
        <ele>482</ele>
        <time>2017-09-24T14:48:46.000Z</time>
      </trkpt>
      <trkpt lat="43.35124" lon="2.44061">
        <ele>482</ele>
        <time>2017-09-24T14:48:47.000Z</time>
      </trkpt>
      <trkpt lat="43.35124" lon="2.44061">
        <ele>482</ele>
        <time>2017-09-24T14:48:48.000Z</time>
      </trkpt>
      <trkpt lat="43.35124" lon="2.44061">
        <ele>482</ele>
        <time>2017-09-24T14:48:49.000Z</time>
      </trkpt>
      <trkpt lat="43.35103" lon="2.44074">
        <ele>487</ele>
        <time>2017-09-24T14:49:34.000Z</time>
      </trkpt>
      <trkpt lat="43.35102" lon="2.44073">
        <ele>487</ele>
        <time>2017-09-24T14:49:35.000Z</time>
      </trkpt>
      <trkpt lat="43.35101" lon="2.44073">
        <ele>487</ele>
        <time>2017-09-24T14:49:36.000Z</time>
      </trkpt>
      <trkpt lat="43.351" lon="2.44073">
        <ele>488</ele>
        <time>2017-09-24T14:49:37.000Z</time>
      </trkpt>
      <trkpt lat="43.35099" lon="2.44073">
        <ele>488</ele>
        <time>2017-09-24T14:49:38.000Z</time>
      </trkpt>
      <trkpt lat="43.35098" lon="2.44073">
        <ele>489</ele>
        <time>2017-09-24T14:49:39.000Z</time>
      </trkpt>
      <trkpt lat="43.35097" lon="2.44072">
        <ele>489</ele>
        <time>2017-09-24T14:49:40.000Z</time>
      </trkpt>
      <trkpt lat="43.35097" lon="2.44072">
        <ele>489</ele>
        <time>2017-09-24T14:49:41.000Z</time>
      </trkpt>
      <trkpt lat="43.35096" lon="2.44072">
        <ele>490</ele>
        <time>2017-09-24T14:49:42.000Z</time>
      </trkpt>
      <trkpt lat="43.35095" lon="2.44072">
        <ele>490</ele>
        <time>2017-09-24T14:49:43.000Z</time>
      </trkpt>
      <trkpt lat="43.35095" lon="2.44072">
        <ele>490</ele>
        <time>2017-09-24T14:49:44.000Z</time>
      </trkpt>
      <trkpt lat="43.35094" lon="2.44071">
        <ele>490</ele>
        <time>2017-09-24T14:49:45.000Z</time>
      </trkpt>
      <trkpt lat="43.35093" lon="2.44071">
        <ele>491</ele>
        <time>2017-09-24T14:49:46.000Z</time>
      </trkpt>
      <trkpt lat="43.35093" lon="2.44071">
        <ele>491</ele>
        <time>2017-09-24T14:49:47.000Z</time>
      </trkpt>
      <trkpt lat="43.35092" lon="2.44071">
        <ele>491</ele>
        <time>2017-09-24T14:49:48.000Z</time>
      </trkpt>
      <trkpt lat="43.35091" lon="2.44072">
        <ele>491</ele>
        <time>2017-09-24T14:49:49.000Z</time>
      </trkpt>
      <trkpt lat="43.3509" lon="2.44072">
        <ele>492</ele>
        <time>2017-09-24T14:49:50.000Z</time>
      </trkpt>
      <trkpt lat="43.3509" lon="2.44072">
        <ele>492</ele>
        <time>2017-09-24T14:49:51.000Z</time>
      </trkpt>
      <trkpt lat="43.35089" lon="2.44073">
        <ele>492</ele>
        <time>2017-09-24T14:49:52.000Z</time>
      </trkpt>
      <trkpt lat="43.35089" lon="2.44073">
        <ele>492</ele>
        <time>2017-09-24T14:49:53.000Z</time>
      </trkpt>
      <trkpt lat="43.35087" lon="2.44073">
        <ele>493</ele>
        <time>2017-09-24T14:49:54.000Z</time>
      </trkpt>
      <trkpt lat="43.35086" lon="2.44073">
        <ele>493</ele>
        <time>2017-09-24T14:49:55.000Z</time>
      </trkpt>
      <trkpt lat="43.35085" lon="2.44073">
        <ele>494</ele>
        <time>2017-09-24T14:49:56.000Z</time>
      </trkpt>
      <trkpt lat="43.35085" lon="2.44073">
        <ele>494</ele>
        <time>2017-09-24T14:49:57.000Z</time>
      </trkpt>
      <trkpt lat="43.35084" lon="2.44073">
        <ele>494</ele>
        <time>2017-09-24T14:49:58.000Z</time>
      </trkpt>
      <trkpt lat="43.35084" lon="2.44073">
        <ele>494</ele>
        <time>2017-09-24T14:49:59.000Z</time>
      </trkpt>
      <trkpt lat="43.35083" lon="2.44074">
        <ele>495</ele>
        <time>2017-09-24T14:50:00.000Z</time>
      </trkpt>
      <trkpt lat="43.35082" lon="2.44074">
        <ele>495</ele>
        <time>2017-09-24T14:50:01.000Z</time>
      </trkpt>
      <trkpt lat="43.35081" lon="2.44074">
        <ele>495</ele>
        <time>2017-09-24T14:50:02.000Z</time>
      </trkpt>
      <trkpt lat="43.3508" lon="2.44075">
        <ele>496</ele>
        <time>2017-09-24T14:50:03.000Z</time>
      </trkpt>
      <trkpt lat="43.35079" lon="2.44075">
        <ele>496</ele>
        <time>2017-09-24T14:50:04.000Z</time>
      </trkpt>
      <trkpt lat="43.35079" lon="2.44076">
        <ele>496</ele>
        <time>2017-09-24T14:50:05.000Z</time>
      </trkpt>
      <trkpt lat="43.35078" lon="2.44076">
        <ele>496</ele>
        <time>2017-09-24T14:50:06.000Z</time>
      </trkpt>
      <trkpt lat="43.35077" lon="2.44076">
        <ele>497</ele>
        <time>2017-09-24T14:50:07.000Z</time>
      </trkpt>
      <trkpt lat="43.35076" lon="2.44077">
        <ele>497</ele>
        <time>2017-09-24T14:50:08.000Z</time>
      </trkpt>
      <trkpt lat="43.35076" lon="2.44078">
        <ele>497</ele>
        <time>2017-09-24T14:50:09.000Z</time>
      </trkpt>
      <trkpt lat="43.35075" lon="2.44078">
        <ele>497</ele>
        <time>2017-09-24T14:50:10.000Z</time>
      </trkpt>
      <trkpt lat="43.35075" lon="2.44079">
        <ele>497</ele>
        <time>2017-09-24T14:50:11.000Z</time>
      </trkpt>
      <trkpt lat="43.35074" lon="2.44079">
        <ele>497</ele>
        <time>2017-09-24T14:50:12.000Z</time>
      </trkpt>
      <trkpt lat="43.35073" lon="2.4408">
        <ele>498</ele>
        <time>2017-09-24T14:50:13.000Z</time>
      </trkpt>
      <trkpt lat="43.35073" lon="2.44081">
        <ele>498</ele>
        <time>2017-09-24T14:50:14.000Z</time>
      </trkpt>
      <trkpt lat="43.35072" lon="2.44081">
        <ele>498</ele>
        <time>2017-09-24T14:50:15.000Z</time>
      </trkpt>
      <trkpt lat="43.35072" lon="2.44081">
        <ele>498</ele>
        <time>2017-09-24T14:50:16.000Z</time>
      </trkpt>
      <trkpt lat="43.35071" lon="2.44082">
        <ele>498</ele>
        <time>2017-09-24T14:50:17.000Z</time>
      </trkpt>
      <trkpt lat="43.3507" lon="2.44082">
        <ele>498</ele>
        <time>2017-09-24T14:50:18.000Z</time>
      </trkpt>
      <trkpt lat="43.3507" lon="2.44083">
        <ele>499</ele>
        <time>2017-09-24T14:50:19.000Z</time>
      </trkpt>
      <trkpt lat="43.35069" lon="2.44083">
        <ele>499</ele>
        <time>2017-09-24T14:50:20.000Z</time>
      </trkpt>
      <trkpt lat="43.35068" lon="2.44084">
        <ele>499</ele>
        <time>2017-09-24T14:50:21.000Z</time>
      </trkpt>
      <trkpt lat="43.35068" lon="2.44085">
        <ele>499</ele>
        <time>2017-09-24T14:50:22.000Z</time>
      </trkpt>
      <trkpt lat="43.35068" lon="2.44085">
        <ele>499</ele>
        <time>2017-09-24T14:50:23.000Z</time>
      </trkpt>
      <trkpt lat="43.35067" lon="2.44086">
        <ele>499</ele>
        <time>2017-09-24T14:50:24.000Z</time>
      </trkpt>
      <trkpt lat="43.35066" lon="2.44087">
        <ele>499</ele>
        <time>2017-09-24T14:50:25.000Z</time>
      </trkpt>
      <trkpt lat="43.35066" lon="2.44087">
        <ele>499</ele>
        <time>2017-09-24T14:50:26.000Z</time>
      </trkpt>
      <trkpt lat="43.35066" lon="2.44088">
        <ele>499</ele>
        <time>2017-09-24T14:50:27.000Z</time>
      </trkpt>
      <trkpt lat="43.35065" lon="2.44088">
        <ele>499</ele>
        <time>2017-09-24T14:50:28.000Z</time>
      </trkpt>
      <trkpt lat="43.35065" lon="2.44089">
        <ele>499</ele>
        <time>2017-09-24T14:50:29.000Z</time>
      </trkpt>
      <trkpt lat="43.35064" lon="2.4409">
        <ele>499</ele>
        <time>2017-09-24T14:50:30.000Z</time>
      </trkpt>
      <trkpt lat="43.35064" lon="2.44091">
        <ele>499</ele>
        <time>2017-09-24T14:50:31.000Z</time>
      </trkpt>
      <trkpt lat="43.35064" lon="2.44092">
        <ele>499</ele>
        <time>2017-09-24T14:50:32.000Z</time>
      </trkpt>
      <trkpt lat="43.35063" lon="2.44092">
        <ele>499</ele>
        <time>2017-09-24T14:50:33.000Z</time>
      </trkpt>
      <trkpt lat="43.35063" lon="2.44093">
        <ele>499</ele>
        <time>2017-09-24T14:50:34.000Z</time>
      </trkpt>
      <trkpt lat="43.35063" lon="2.44093">
        <ele>499</ele>
        <time>2017-09-24T14:50:35.000Z</time>
      </trkpt>
      <trkpt lat="43.35062" lon="2.44094">
        <ele>499</ele>
        <time>2017-09-24T14:50:36.000Z</time>
      </trkpt>
      <trkpt lat="43.35062" lon="2.44094">
        <ele>499</ele>
        <time>2017-09-24T14:50:37.000Z</time>
      </trkpt>
      <trkpt lat="43.35062" lon="2.44094">
        <ele>499</ele>
        <time>2017-09-24T14:50:38.000Z</time>
      </trkpt>
      <trkpt lat="43.35048" lon="2.44132">
        <ele>493</ele>
        <time>2017-09-24T14:51:46.000Z</time>
      </trkpt>
      <trkpt lat="43.35048" lon="2.44132">
        <ele>493</ele>
        <time>2017-09-24T14:51:47.000Z</time>
      </trkpt>
      <trkpt lat="43.35047" lon="2.44132">
        <ele>493</ele>
        <time>2017-09-24T14:51:48.000Z</time>
      </trkpt>
      <trkpt lat="43.35046" lon="2.44133">
        <ele>494</ele>
        <time>2017-09-24T14:51:49.000Z</time>
      </trkpt>
      <trkpt lat="43.35046" lon="2.44132">
        <ele>494</ele>
        <time>2017-09-24T14:51:50.000Z</time>
      </trkpt>
      <trkpt lat="43.35046" lon="2.44132">
        <ele>494</ele>
        <time>2017-09-24T14:51:51.000Z</time>
      </trkpt>
      <trkpt lat="43.35029" lon="2.44151">
        <ele>492</ele>
        <time>2017-09-24T14:53:02.000Z</time>
      </trkpt>
      <trkpt lat="43.35029" lon="2.44151">
        <ele>493</ele>
        <time>2017-09-24T14:53:03.000Z</time>
      </trkpt>
      <trkpt lat="43.35029" lon="2.4415">
        <ele>493</ele>
        <time>2017-09-24T14:53:04.000Z</time>
      </trkpt>
      <trkpt lat="43.35028" lon="2.4415">
        <ele>493</ele>
        <time>2017-09-24T14:53:05.000Z</time>
      </trkpt>
      <trkpt lat="43.35028" lon="2.4415">
        <ele>493</ele>
        <time>2017-09-24T14:53:06.000Z</time>
      </trkpt>
      <trkpt lat="43.35028" lon="2.4415">
        <ele>493</ele>
        <time>2017-09-24T14:53:07.000Z</time>
      </trkpt>
      <trkpt lat="43.35027" lon="2.4415">
        <ele>494</ele>
        <time>2017-09-24T14:53:08.000Z</time>
      </trkpt>
      <trkpt lat="43.35002" lon="2.44153">
        <ele>497</ele>
        <time>2017-09-24T14:53:58.000Z</time>
      </trkpt>
      <trkpt lat="43.35001" lon="2.44153">
        <ele>497</ele>
        <time>2017-09-24T14:53:59.000Z</time>
      </trkpt>
      <trkpt lat="43.35" lon="2.44154">
        <ele>497</ele>
        <time>2017-09-24T14:54:00.000Z</time>
      </trkpt>
      <trkpt lat="43.35" lon="2.44154">
        <ele>497</ele>
        <time>2017-09-24T14:54:01.000Z</time>
      </trkpt>
      <trkpt lat="43.35" lon="2.44154">
        <ele>497</ele>
        <time>2017-09-24T14:54:02.000Z</time>
      </trkpt>
      <trkpt lat="43.34999" lon="2.44155">
        <ele>497</ele>
        <time>2017-09-24T14:54:03.000Z</time>
      </trkpt>
      <trkpt lat="43.34998" lon="2.44155">
        <ele>497</ele>
        <time>2017-09-24T14:54:04.000Z</time>
      </trkpt>
      <trkpt lat="43.34998" lon="2.44156">
        <ele>497</ele>
        <time>2017-09-24T14:54:05.000Z</time>
      </trkpt>
      <trkpt lat="43.34997" lon="2.44157">
        <ele>497</ele>
        <time>2017-09-24T14:54:06.000Z</time>
      </trkpt>
      <trkpt lat="43.34997" lon="2.44157">
        <ele>497</ele>
        <time>2017-09-24T14:54:07.000Z</time>
      </trkpt>
      <trkpt lat="43.34996" lon="2.44158">
        <ele>497</ele>
        <time>2017-09-24T14:54:08.000Z</time>
      </trkpt>
      <trkpt lat="43.34995" lon="2.44159">
        <ele>497</ele>
        <time>2017-09-24T14:54:09.000Z</time>
      </trkpt>
      <trkpt lat="43.34994" lon="2.4416">
        <ele>497</ele>
        <time>2017-09-24T14:54:10.000Z</time>
      </trkpt>
      <trkpt lat="43.34993" lon="2.4416">
        <ele>497</ele>
        <time>2017-09-24T14:54:11.000Z</time>
      </trkpt>
      <trkpt lat="43.34993" lon="2.4416">
        <ele>497</ele>
        <time>2017-09-24T14:54:12.000Z</time>
      </trkpt>
      <trkpt lat="43.34992" lon="2.4416">
        <ele>497</ele>
        <time>2017-09-24T14:54:13.000Z</time>
      </trkpt>
      <trkpt lat="43.34992" lon="2.44161">
        <ele>497</ele>
        <time>2017-09-24T14:54:14.000Z</time>
      </trkpt>
      <trkpt lat="43.34991" lon="2.44161">
        <ele>497</ele>
        <time>2017-09-24T14:54:15.000Z</time>
      </trkpt>
      <trkpt lat="43.34991" lon="2.44162">
        <ele>497</ele>
        <time>2017-09-24T14:54:16.000Z</time>
      </trkpt>
      <trkpt lat="43.3499" lon="2.44162">
        <ele>497</ele>
        <time>2017-09-24T14:54:17.000Z</time>
      </trkpt>
      <trkpt lat="43.34989" lon="2.44163">
        <ele>497</ele>
        <time>2017-09-24T14:54:18.000Z</time>
      </trkpt>
      <trkpt lat="43.34988" lon="2.44164">
        <ele>498</ele>
        <time>2017-09-24T14:54:19.000Z</time>
      </trkpt>
      <trkpt lat="43.34987" lon="2.44164">
        <ele>498</ele>
        <time>2017-09-24T14:54:20.000Z</time>
      </trkpt>
      <trkpt lat="43.34986" lon="2.44164">
        <ele>498</ele>
        <time>2017-09-24T14:54:21.000Z</time>
      </trkpt>
      <trkpt lat="43.34985" lon="2.44164">
        <ele>498</ele>
        <time>2017-09-24T14:54:22.000Z</time>
      </trkpt>
      <trkpt lat="43.34985" lon="2.44164">
        <ele>498</ele>
        <time>2017-09-24T14:54:23.000Z</time>
      </trkpt>
      <trkpt lat="43.34984" lon="2.44164">
        <ele>498</ele>
        <time>2017-09-24T14:54:24.000Z</time>
      </trkpt>
      <trkpt lat="43.34983" lon="2.44164">
        <ele>498</ele>
        <time>2017-09-24T14:54:25.000Z</time>
      </trkpt>
      <trkpt lat="43.34983" lon="2.44164">
        <ele>498</ele>
        <time>2017-09-24T14:54:26.000Z</time>
      </trkpt>
      <trkpt lat="43.34982" lon="2.44164">
        <ele>499</ele>
        <time>2017-09-24T14:54:27.000Z</time>
      </trkpt>
      <trkpt lat="43.34981" lon="2.44165">
        <ele>499</ele>
        <time>2017-09-24T14:54:28.000Z</time>
      </trkpt>
      <trkpt lat="43.3498" lon="2.44165">
        <ele>499</ele>
        <time>2017-09-24T14:54:29.000Z</time>
      </trkpt>
      <trkpt lat="43.34979" lon="2.44165">
        <ele>499</ele>
        <time>2017-09-24T14:54:30.000Z</time>
      </trkpt>
      <trkpt lat="43.34978" lon="2.44165">
        <ele>499</ele>
        <time>2017-09-24T14:54:31.000Z</time>
      </trkpt>
      <trkpt lat="43.34977" lon="2.44164">
        <ele>499</ele>
        <time>2017-09-24T14:54:32.000Z</time>
      </trkpt>
      <trkpt lat="43.34977" lon="2.44163">
        <ele>500</ele>
        <time>2017-09-24T14:54:33.000Z</time>
      </trkpt>
      <trkpt lat="43.34977" lon="2.44163">
        <ele>500</ele>
        <time>2017-09-24T14:54:34.000Z</time>
      </trkpt>
      <trkpt lat="43.34976" lon="2.44163">
        <ele>500</ele>
        <time>2017-09-24T14:54:35.000Z</time>
      </trkpt>
      <trkpt lat="43.34975" lon="2.44163">
        <ele>500</ele>
        <time>2017-09-24T14:54:36.000Z</time>
      </trkpt>
      <trkpt lat="43.34974" lon="2.44163">
        <ele>500</ele>
        <time>2017-09-24T14:54:37.000Z</time>
      </trkpt>
      <trkpt lat="43.34974" lon="2.44163">
        <ele>500</ele>
        <time>2017-09-24T14:54:38.000Z</time>
      </trkpt>
      <trkpt lat="43.34973" lon="2.44163">
        <ele>500</ele>
        <time>2017-09-24T14:54:39.000Z</time>
      </trkpt>
      <trkpt lat="43.34972" lon="2.44163">
        <ele>501</ele>
        <time>2017-09-24T14:54:40.000Z</time>
      </trkpt>
      <trkpt lat="43.34972" lon="2.44164">
        <ele>501</ele>
        <time>2017-09-24T14:54:41.000Z</time>
      </trkpt>
      <trkpt lat="43.34972" lon="2.44164">
        <ele>501</ele>
        <time>2017-09-24T14:54:42.000Z</time>
      </trkpt>
      <trkpt lat="43.34971" lon="2.44164">
        <ele>501</ele>
        <time>2017-09-24T14:54:43.000Z</time>
      </trkpt>
      <trkpt lat="43.3497" lon="2.44165">
        <ele>501</ele>
        <time>2017-09-24T14:54:44.000Z</time>
      </trkpt>
      <trkpt lat="43.3497" lon="2.44165">
        <ele>501</ele>
        <time>2017-09-24T14:54:45.000Z</time>
      </trkpt>
      <trkpt lat="43.34969" lon="2.44165">
        <ele>501</ele>
        <time>2017-09-24T14:54:46.000Z</time>
      </trkpt>
      <trkpt lat="43.34968" lon="2.44165">
        <ele>501</ele>
        <time>2017-09-24T14:54:47.000Z</time>
      </trkpt>
      <trkpt lat="43.34967" lon="2.44165">
        <ele>501</ele>
        <time>2017-09-24T14:54:48.000Z</time>
      </trkpt>
      <trkpt lat="43.34967" lon="2.44165">
        <ele>501</ele>
        <time>2017-09-24T14:54:49.000Z</time>
      </trkpt>
      <trkpt lat="43.34966" lon="2.44165">
        <ele>501</ele>
        <time>2017-09-24T14:54:50.000Z</time>
      </trkpt>
      <trkpt lat="43.34965" lon="2.44165">
        <ele>501</ele>
        <time>2017-09-24T14:54:51.000Z</time>
      </trkpt>
      <trkpt lat="43.34965" lon="2.44166">
        <ele>502</ele>
        <time>2017-09-24T14:54:52.000Z</time>
      </trkpt>
      <trkpt lat="43.34964" lon="2.44166">
        <ele>502</ele>
        <time>2017-09-24T14:54:53.000Z</time>
      </trkpt>
      <trkpt lat="43.34964" lon="2.44166">
        <ele>502</ele>
        <time>2017-09-24T14:54:54.000Z</time>
      </trkpt>
      <trkpt lat="43.34963" lon="2.44166">
        <ele>502</ele>
        <time>2017-09-24T14:54:55.000Z</time>
      </trkpt>
      <trkpt lat="43.34962" lon="2.44167">
        <ele>501</ele>
        <time>2017-09-24T14:54:56.000Z</time>
      </trkpt>
      <trkpt lat="43.34961" lon="2.44167">
        <ele>502</ele>
        <time>2017-09-24T14:54:57.000Z</time>
      </trkpt>
      <trkpt lat="43.3496" lon="2.44168">
        <ele>502</ele>
        <time>2017-09-24T14:54:58.000Z</time>
      </trkpt>
      <trkpt lat="43.34959" lon="2.44168">
        <ele>502</ele>
        <time>2017-09-24T14:54:59.000Z</time>
      </trkpt>
      <trkpt lat="43.34958" lon="2.44168">
        <ele>502</ele>
        <time>2017-09-24T14:55:00.000Z</time>
      </trkpt>
      <trkpt lat="43.34957" lon="2.44168">
        <ele>502</ele>
        <time>2017-09-24T14:55:01.000Z</time>
      </trkpt>
      <trkpt lat="43.34956" lon="2.44168">
        <ele>502</ele>
        <time>2017-09-24T14:55:02.000Z</time>
      </trkpt>
      <trkpt lat="43.34955" lon="2.44168">
        <ele>502</ele>
        <time>2017-09-24T14:55:03.000Z</time>
      </trkpt>
      <trkpt lat="43.34954" lon="2.44168">
        <ele>502</ele>
        <time>2017-09-24T14:55:04.000Z</time>
      </trkpt>
      <trkpt lat="43.34953" lon="2.44169">
        <ele>502</ele>
        <time>2017-09-24T14:55:05.000Z</time>
      </trkpt>
      <trkpt lat="43.34953" lon="2.44169">
        <ele>502</ele>
        <time>2017-09-24T14:55:06.000Z</time>
      </trkpt>
      <trkpt lat="43.34952" lon="2.44169">
        <ele>503</ele>
        <time>2017-09-24T14:55:07.000Z</time>
      </trkpt>
      <trkpt lat="43.34951" lon="2.4417">
        <ele>503</ele>
        <time>2017-09-24T14:55:08.000Z</time>
      </trkpt>
      <trkpt lat="43.3495" lon="2.4417">
        <ele>503</ele>
        <time>2017-09-24T14:55:09.000Z</time>
      </trkpt>
      <trkpt lat="43.3495" lon="2.4417">
        <ele>503</ele>
        <time>2017-09-24T14:55:10.000Z</time>
      </trkpt>
      <trkpt lat="43.34949" lon="2.44169">
        <ele>503</ele>
        <time>2017-09-24T14:55:11.000Z</time>
      </trkpt>
      <trkpt lat="43.34948" lon="2.44169">
        <ele>503</ele>
        <time>2017-09-24T14:55:12.000Z</time>
      </trkpt>
      <trkpt lat="43.34948" lon="2.44169">
        <ele>503</ele>
        <time>2017-09-24T14:55:13.000Z</time>
      </trkpt>
      <trkpt lat="43.34948" lon="2.44169">
        <ele>503</ele>
        <time>2017-09-24T14:55:14.000Z</time>
      </trkpt>
      <trkpt lat="43.34947" lon="2.44169">
        <ele>503</ele>
        <time>2017-09-24T14:55:15.000Z</time>
      </trkpt>
      <trkpt lat="43.34943" lon="2.44172">
        <ele>503</ele>
        <time>2017-09-24T14:55:32.000Z</time>
      </trkpt>
      <trkpt lat="43.34942" lon="2.44172">
        <ele>504</ele>
        <time>2017-09-24T14:55:33.000Z</time>
      </trkpt>
      <trkpt lat="43.34941" lon="2.44172">
        <ele>504</ele>
        <time>2017-09-24T14:55:34.000Z</time>
      </trkpt>
      <trkpt lat="43.3494" lon="2.44172">
        <ele>504</ele>
        <time>2017-09-24T14:55:35.000Z</time>
      </trkpt>
      <trkpt lat="43.34939" lon="2.44173">
        <ele>504</ele>
        <time>2017-09-24T14:55:36.000Z</time>
      </trkpt>
      <trkpt lat="43.34938" lon="2.44173">
        <ele>504</ele>
        <time>2017-09-24T14:55:37.000Z</time>
      </trkpt>
      <trkpt lat="43.34937" lon="2.44174">
        <ele>504</ele>
        <time>2017-09-24T14:55:38.000Z</time>
      </trkpt>
      <trkpt lat="43.34936" lon="2.44174">
        <ele>504</ele>
        <time>2017-09-24T14:55:39.000Z</time>
      </trkpt>
      <trkpt lat="43.34935" lon="2.44174">
        <ele>504</ele>
        <time>2017-09-24T14:55:40.000Z</time>
      </trkpt>
      <trkpt lat="43.34934" lon="2.44175">
        <ele>504</ele>
        <time>2017-09-24T14:55:41.000Z</time>
      </trkpt>
      <trkpt lat="43.34933" lon="2.44175">
        <ele>504</ele>
        <time>2017-09-24T14:55:42.000Z</time>
      </trkpt>
      <trkpt lat="43.34932" lon="2.44176">
        <ele>504</ele>
        <time>2017-09-24T14:55:43.000Z</time>
      </trkpt>
      <trkpt lat="43.34931" lon="2.44176">
        <ele>505</ele>
        <time>2017-09-24T14:55:44.000Z</time>
      </trkpt>
      <trkpt lat="43.34931" lon="2.44176">
        <ele>504</ele>
        <time>2017-09-24T14:55:45.000Z</time>
      </trkpt>
      <trkpt lat="43.3493" lon="2.44177">
        <ele>504</ele>
        <time>2017-09-24T14:55:46.000Z</time>
      </trkpt>
      <trkpt lat="43.34929" lon="2.44177">
        <ele>504</ele>
        <time>2017-09-24T14:55:47.000Z</time>
      </trkpt>
      <trkpt lat="43.34928" lon="2.44177">
        <ele>504</ele>
        <time>2017-09-24T14:55:48.000Z</time>
      </trkpt>
      <trkpt lat="43.34928" lon="2.44178">
        <ele>504</ele>
        <time>2017-09-24T14:55:49.000Z</time>
      </trkpt>
      <trkpt lat="43.34928" lon="2.44178">
        <ele>503</ele>
        <time>2017-09-24T14:55:50.000Z</time>
      </trkpt>
      <trkpt lat="43.34927" lon="2.44179">
        <ele>503</ele>
        <time>2017-09-24T14:55:51.000Z</time>
      </trkpt>
      <trkpt lat="43.34927" lon="2.44179">
        <ele>503</ele>
        <time>2017-09-24T14:55:52.000Z</time>
      </trkpt>
      <trkpt lat="43.34927" lon="2.44179">
        <ele>503</ele>
        <time>2017-09-24T14:55:53.000Z</time>
      </trkpt>
      <trkpt lat="43.34926" lon="2.44179">
        <ele>503</ele>
        <time>2017-09-24T14:55:54.000Z</time>
      </trkpt>
      <trkpt lat="43.34926" lon="2.44179">
        <ele>503</ele>
        <time>2017-09-24T14:55:55.000Z</time>
      </trkpt>
      <trkpt lat="43.34925" lon="2.44179">
        <ele>503</ele>
        <time>2017-09-24T14:55:56.000Z</time>
      </trkpt>
      <trkpt lat="43.34925" lon="2.4418">
        <ele>503</ele>
        <time>2017-09-24T14:55:57.000Z</time>
      </trkpt>
      <trkpt lat="43.34925" lon="2.4418">
        <ele>502</ele>
        <time>2017-09-24T14:55:58.000Z</time>
      </trkpt>
      <trkpt lat="43.34924" lon="2.44181">
        <ele>502</ele>
        <time>2017-09-24T14:55:59.000Z</time>
      </trkpt>
      <trkpt lat="43.34924" lon="2.44181">
        <ele>502</ele>
        <time>2017-09-24T14:56:00.000Z</time>
      </trkpt>
      <trkpt lat="43.34924" lon="2.44182">
        <ele>502</ele>
        <time>2017-09-24T14:56:01.000Z</time>
      </trkpt>
      <trkpt lat="43.34923" lon="2.44182">
        <ele>502</ele>
        <time>2017-09-24T14:56:02.000Z</time>
      </trkpt>
      <trkpt lat="43.34923" lon="2.44182">
        <ele>501</ele>
        <time>2017-09-24T14:56:03.000Z</time>
      </trkpt>
      <trkpt lat="43.34922" lon="2.44183">
        <ele>501</ele>
        <time>2017-09-24T14:56:04.000Z</time>
      </trkpt>
      <trkpt lat="43.34922" lon="2.44183">
        <ele>501</ele>
        <time>2017-09-24T14:56:05.000Z</time>
      </trkpt>
      <trkpt lat="43.34921" lon="2.44183">
        <ele>501</ele>
        <time>2017-09-24T14:56:06.000Z</time>
      </trkpt>
      <trkpt lat="43.34921" lon="2.44184">
        <ele>501</ele>
        <time>2017-09-24T14:56:07.000Z</time>
      </trkpt>
      <trkpt lat="43.3492" lon="2.44184">
        <ele>500</ele>
        <time>2017-09-24T14:56:08.000Z</time>
      </trkpt>
      <trkpt lat="43.34919" lon="2.44185">
        <ele>500</ele>
        <time>2017-09-24T14:56:09.000Z</time>
      </trkpt>
      <trkpt lat="43.34918" lon="2.44185">
        <ele>500</ele>
        <time>2017-09-24T14:56:10.000Z</time>
      </trkpt>
      <trkpt lat="43.34918" lon="2.44185">
        <ele>500</ele>
        <time>2017-09-24T14:56:11.000Z</time>
      </trkpt>
      <trkpt lat="43.34917" lon="2.44186">
        <ele>499</ele>
        <time>2017-09-24T14:56:12.000Z</time>
      </trkpt>
      <trkpt lat="43.34916" lon="2.44186">
        <ele>499</ele>
        <time>2017-09-24T14:56:13.000Z</time>
      </trkpt>
      <trkpt lat="43.34915" lon="2.44186">
        <ele>499</ele>
        <time>2017-09-24T14:56:14.000Z</time>
      </trkpt>
      <trkpt lat="43.34914" lon="2.44186">
        <ele>499</ele>
        <time>2017-09-24T14:56:15.000Z</time>
      </trkpt>
      <trkpt lat="43.34913" lon="2.44186">
        <ele>499</ele>
        <time>2017-09-24T14:56:16.000Z</time>
      </trkpt>
      <trkpt lat="43.34912" lon="2.44186">
        <ele>498</ele>
        <time>2017-09-24T14:56:17.000Z</time>
      </trkpt>
      <trkpt lat="43.34912" lon="2.44187">
        <ele>498</ele>
        <time>2017-09-24T14:56:18.000Z</time>
      </trkpt>
      <trkpt lat="43.34911" lon="2.44188">
        <ele>498</ele>
        <time>2017-09-24T14:56:19.000Z</time>
      </trkpt>
      <trkpt lat="43.3491" lon="2.44188">
        <ele>498</ele>
        <time>2017-09-24T14:56:20.000Z</time>
      </trkpt>
      <trkpt lat="43.3491" lon="2.44188">
        <ele>497</ele>
        <time>2017-09-24T14:56:21.000Z</time>
      </trkpt>
      <trkpt lat="43.34909" lon="2.44189">
        <ele>497</ele>
        <time>2017-09-24T14:56:22.000Z</time>
      </trkpt>
      <trkpt lat="43.34908" lon="2.4419">
        <ele>497</ele>
        <time>2017-09-24T14:56:23.000Z</time>
      </trkpt>
      <trkpt lat="43.34907" lon="2.4419">
        <ele>496</ele>
        <time>2017-09-24T14:56:24.000Z</time>
      </trkpt>
      <trkpt lat="43.34907" lon="2.4419">
        <ele>496</ele>
        <time>2017-09-24T14:56:25.000Z</time>
      </trkpt>
      <trkpt lat="43.34906" lon="2.44191">
        <ele>496</ele>
        <time>2017-09-24T14:56:26.000Z</time>
      </trkpt>
      <trkpt lat="43.34905" lon="2.44191">
        <ele>496</ele>
        <time>2017-09-24T14:56:27.000Z</time>
      </trkpt>
      <trkpt lat="43.34904" lon="2.44191">
        <ele>496</ele>
        <time>2017-09-24T14:56:28.000Z</time>
      </trkpt>
      <trkpt lat="43.34904" lon="2.44192">
        <ele>495</ele>
        <time>2017-09-24T14:56:29.000Z</time>
      </trkpt>
      <trkpt lat="43.34903" lon="2.44192">
        <ele>495</ele>
        <time>2017-09-24T14:56:30.000Z</time>
      </trkpt>
      <trkpt lat="43.34903" lon="2.44192">
        <ele>495</ele>
        <time>2017-09-24T14:56:31.000Z</time>
      </trkpt>
      <trkpt lat="43.34902" lon="2.44193">
        <ele>495</ele>
        <time>2017-09-24T14:56:32.000Z</time>
      </trkpt>
      <trkpt lat="43.34901" lon="2.44193">
        <ele>495</ele>
        <time>2017-09-24T14:56:33.000Z</time>
      </trkpt>
      <trkpt lat="43.349" lon="2.44193">
        <ele>495</ele>
        <time>2017-09-24T14:56:34.000Z</time>
      </trkpt>
      <trkpt lat="43.34899" lon="2.44192">
        <ele>494</ele>
        <time>2017-09-24T14:56:35.000Z</time>
      </trkpt>
      <trkpt lat="43.34898" lon="2.44192">
        <ele>494</ele>
        <time>2017-09-24T14:56:36.000Z</time>
      </trkpt>
      <trkpt lat="43.34898" lon="2.44191">
        <ele>495</ele>
        <time>2017-09-24T14:56:37.000Z</time>
      </trkpt>
      <trkpt lat="43.34897" lon="2.44191">
        <ele>494</ele>
        <time>2017-09-24T14:56:38.000Z</time>
      </trkpt>
      <trkpt lat="43.34897" lon="2.44191">
        <ele>494</ele>
        <time>2017-09-24T14:56:39.000Z</time>
      </trkpt>
      <trkpt lat="43.34896" lon="2.44191">
        <ele>494</ele>
        <time>2017-09-24T14:56:40.000Z</time>
      </trkpt>
      <trkpt lat="43.34896" lon="2.44191">
        <ele>494</ele>
        <time>2017-09-24T14:56:41.000Z</time>
      </trkpt>
      <trkpt lat="43.34895" lon="2.44192">
        <ele>494</ele>
        <time>2017-09-24T14:56:42.000Z</time>
      </trkpt>
      <trkpt lat="43.34894" lon="2.44192">
        <ele>494</ele>
        <time>2017-09-24T14:56:43.000Z</time>
      </trkpt>
      <trkpt lat="43.34893" lon="2.44193">
        <ele>493</ele>
        <time>2017-09-24T14:56:44.000Z</time>
      </trkpt>
      <trkpt lat="43.34893" lon="2.44193">
        <ele>493</ele>
        <time>2017-09-24T14:56:45.000Z</time>
      </trkpt>
      <trkpt lat="43.34892" lon="2.44193">
        <ele>493</ele>
        <time>2017-09-24T14:56:46.000Z</time>
      </trkpt>
      <trkpt lat="43.34891" lon="2.44193">
        <ele>493</ele>
        <time>2017-09-24T14:56:47.000Z</time>
      </trkpt>
      <trkpt lat="43.3489" lon="2.44192">
        <ele>493</ele>
        <time>2017-09-24T14:56:48.000Z</time>
      </trkpt>
      <trkpt lat="43.34889" lon="2.44192">
        <ele>493</ele>
        <time>2017-09-24T14:56:49.000Z</time>
      </trkpt>
      <trkpt lat="43.34889" lon="2.44191">
        <ele>493</ele>
        <time>2017-09-24T14:56:50.000Z</time>
      </trkpt>
      <trkpt lat="43.34888" lon="2.44191">
        <ele>493</ele>
        <time>2017-09-24T14:56:51.000Z</time>
      </trkpt>
      <trkpt lat="43.34887" lon="2.44191">
        <ele>493</ele>
        <time>2017-09-24T14:56:52.000Z</time>
      </trkpt>
      <trkpt lat="43.34887" lon="2.44191">
        <ele>493</ele>
        <time>2017-09-24T14:56:53.000Z</time>
      </trkpt>
      <trkpt lat="43.34886" lon="2.44191">
        <ele>493</ele>
        <time>2017-09-24T14:56:54.000Z</time>
      </trkpt>
      <trkpt lat="43.34886" lon="2.44191">
        <ele>493</ele>
        <time>2017-09-24T14:56:55.000Z</time>
      </trkpt>
      <trkpt lat="43.34885" lon="2.44191">
        <ele>493</ele>
        <time>2017-09-24T14:56:56.000Z</time>
      </trkpt>
      <trkpt lat="43.34885" lon="2.44192">
        <ele>492</ele>
        <time>2017-09-24T14:56:57.000Z</time>
      </trkpt>
      <trkpt lat="43.34885" lon="2.44192">
        <ele>492</ele>
        <time>2017-09-24T14:56:58.000Z</time>
      </trkpt>
      <trkpt lat="43.34884" lon="2.44192">
        <ele>492</ele>
        <time>2017-09-24T14:56:59.000Z</time>
      </trkpt>
      <trkpt lat="43.34884" lon="2.44192">
        <ele>492</ele>
        <time>2017-09-24T14:57:00.000Z</time>
      </trkpt>
      <trkpt lat="43.34884" lon="2.44193">
        <ele>492</ele>
        <time>2017-09-24T14:57:01.000Z</time>
      </trkpt>
      <trkpt lat="43.34883" lon="2.44193">
        <ele>492</ele>
        <time>2017-09-24T14:57:02.000Z</time>
      </trkpt>
      <trkpt lat="43.34883" lon="2.44194">
        <ele>491</ele>
        <time>2017-09-24T14:57:03.000Z</time>
      </trkpt>
      <trkpt lat="43.34883" lon="2.44194">
        <ele>491</ele>
        <time>2017-09-24T14:57:04.000Z</time>
      </trkpt>
      <trkpt lat="43.34883" lon="2.44194">
        <ele>491</ele>
        <time>2017-09-24T14:57:05.000Z</time>
      </trkpt>
      <trkpt lat="43.34882" lon="2.44195">
        <ele>491</ele>
        <time>2017-09-24T14:57:06.000Z</time>
      </trkpt>
      <trkpt lat="43.34882" lon="2.44196">
        <ele>491</ele>
        <time>2017-09-24T14:57:07.000Z</time>
      </trkpt>
      <trkpt lat="43.34882" lon="2.44196">
        <ele>491</ele>
        <time>2017-09-24T14:57:08.000Z</time>
      </trkpt>
      <trkpt lat="43.34881" lon="2.44197">
        <ele>490</ele>
        <time>2017-09-24T14:57:09.000Z</time>
      </trkpt>
      <trkpt lat="43.34881" lon="2.44197">
        <ele>490</ele>
        <time>2017-09-24T14:57:10.000Z</time>
      </trkpt>
      <trkpt lat="43.3488" lon="2.44198">
        <ele>490</ele>
        <time>2017-09-24T14:57:11.000Z</time>
      </trkpt>
      <trkpt lat="43.3488" lon="2.44198">
        <ele>490</ele>
        <time>2017-09-24T14:57:12.000Z</time>
      </trkpt>
      <trkpt lat="43.34879" lon="2.44199">
        <ele>489</ele>
        <time>2017-09-24T14:57:13.000Z</time>
      </trkpt>
      <trkpt lat="43.34879" lon="2.44199">
        <ele>489</ele>
        <time>2017-09-24T14:57:14.000Z</time>
      </trkpt>
      <trkpt lat="43.34878" lon="2.44199">
        <ele>489</ele>
        <time>2017-09-24T14:57:15.000Z</time>
      </trkpt>
      <trkpt lat="43.34878" lon="2.442">
        <ele>489</ele>
        <time>2017-09-24T14:57:16.000Z</time>
      </trkpt>
      <trkpt lat="43.34878" lon="2.44201">
        <ele>489</ele>
        <time>2017-09-24T14:57:17.000Z</time>
      </trkpt>
      <trkpt lat="43.34877" lon="2.44201">
        <ele>489</ele>
        <time>2017-09-24T14:57:18.000Z</time>
      </trkpt>
      <trkpt lat="43.34877" lon="2.44202">
        <ele>489</ele>
        <time>2017-09-24T14:57:19.000Z</time>
      </trkpt>
      <trkpt lat="43.34877" lon="2.44202">
        <ele>489</ele>
        <time>2017-09-24T14:57:20.000Z</time>
      </trkpt>
      <trkpt lat="43.34876" lon="2.44202">
        <ele>489</ele>
        <time>2017-09-24T14:57:21.000Z</time>
      </trkpt>
      <trkpt lat="43.34876" lon="2.44203">
        <ele>489</ele>
        <time>2017-09-24T14:57:22.000Z</time>
      </trkpt>
      <trkpt lat="43.34863" lon="2.44231">
        <ele>485</ele>
        <time>2017-09-24T14:58:07.000Z</time>
      </trkpt>
      <trkpt lat="43.34863" lon="2.44232">
        <ele>484</ele>
        <time>2017-09-24T14:58:08.000Z</time>
      </trkpt>
      <trkpt lat="43.34862" lon="2.44233">
        <ele>484</ele>
        <time>2017-09-24T14:58:09.000Z</time>
      </trkpt>
      <trkpt lat="43.34862" lon="2.44234">
        <ele>484</ele>
        <time>2017-09-24T14:58:10.000Z</time>
      </trkpt>
      <trkpt lat="43.34862" lon="2.44235">
        <ele>484</ele>
        <time>2017-09-24T14:58:11.000Z</time>
      </trkpt>
      <trkpt lat="43.34861" lon="2.44236">
        <ele>484</ele>
        <time>2017-09-24T14:58:12.000Z</time>
      </trkpt>
      <trkpt lat="43.34861" lon="2.44237">
        <ele>484</ele>
        <time>2017-09-24T14:58:13.000Z</time>
      </trkpt>
      <trkpt lat="43.34861" lon="2.44238">
        <ele>484</ele>
        <time>2017-09-24T14:58:14.000Z</time>
      </trkpt>
      <trkpt lat="43.3486" lon="2.44239">
        <ele>483</ele>
        <time>2017-09-24T14:58:15.000Z</time>
      </trkpt>
      <trkpt lat="43.3486" lon="2.4424">
        <ele>483</ele>
        <time>2017-09-24T14:58:16.000Z</time>
      </trkpt>
      <trkpt lat="43.34859" lon="2.4424">
        <ele>483</ele>
        <time>2017-09-24T14:58:17.000Z</time>
      </trkpt>
      <trkpt lat="43.34859" lon="2.44241">
        <ele>483</ele>
        <time>2017-09-24T14:58:18.000Z</time>
      </trkpt>
      <trkpt lat="43.34858" lon="2.44242">
        <ele>483</ele>
        <time>2017-09-24T14:58:19.000Z</time>
      </trkpt>
      <trkpt lat="43.34858" lon="2.44243">
        <ele>483</ele>
        <time>2017-09-24T14:58:20.000Z</time>
      </trkpt>
      <trkpt lat="43.34858" lon="2.44243">
        <ele>483</ele>
        <time>2017-09-24T14:58:21.000Z</time>
      </trkpt>
      <trkpt lat="43.34858" lon="2.44244">
        <ele>483</ele>
        <time>2017-09-24T14:58:22.000Z</time>
      </trkpt>
      <trkpt lat="43.34857" lon="2.44244">
        <ele>483</ele>
        <time>2017-09-24T14:58:23.000Z</time>
      </trkpt>
      <trkpt lat="43.34857" lon="2.44245">
        <ele>483</ele>
        <time>2017-09-24T14:58:24.000Z</time>
      </trkpt>
      <trkpt lat="43.34857" lon="2.44246">
        <ele>482</ele>
        <time>2017-09-24T14:58:25.000Z</time>
      </trkpt>
      <trkpt lat="43.34857" lon="2.44247">
        <ele>482</ele>
        <time>2017-09-24T14:58:26.000Z</time>
      </trkpt>
      <trkpt lat="43.34857" lon="2.44248">
        <ele>482</ele>
        <time>2017-09-24T14:58:27.000Z</time>
      </trkpt>
      <trkpt lat="43.34857" lon="2.4425">
        <ele>482</ele>
        <time>2017-09-24T14:58:28.000Z</time>
      </trkpt>
      <trkpt lat="43.34856" lon="2.44251">
        <ele>481</ele>
        <time>2017-09-24T14:58:29.000Z</time>
      </trkpt>
      <trkpt lat="43.34856" lon="2.44252">
        <ele>481</ele>
        <time>2017-09-24T14:58:30.000Z</time>
      </trkpt>
      <trkpt lat="43.34856" lon="2.44254">
        <ele>480</ele>
        <time>2017-09-24T14:58:31.000Z</time>
      </trkpt>
      <trkpt lat="43.34856" lon="2.44255">
        <ele>480</ele>
        <time>2017-09-24T14:58:32.000Z</time>
      </trkpt>
      <trkpt lat="43.34855" lon="2.44257">
        <ele>480</ele>
        <time>2017-09-24T14:58:33.000Z</time>
      </trkpt>
      <trkpt lat="43.34855" lon="2.44258">
        <ele>479</ele>
        <time>2017-09-24T14:58:34.000Z</time>
      </trkpt>
      <trkpt lat="43.34855" lon="2.4426">
        <ele>479</ele>
        <time>2017-09-24T14:58:35.000Z</time>
      </trkpt>
      <trkpt lat="43.34855" lon="2.44261">
        <ele>479</ele>
        <time>2017-09-24T14:58:36.000Z</time>
      </trkpt>
      <trkpt lat="43.34855" lon="2.44262">
        <ele>479</ele>
        <time>2017-09-24T14:58:37.000Z</time>
      </trkpt>
      <trkpt lat="43.34855" lon="2.44264">
        <ele>479</ele>
        <time>2017-09-24T14:58:38.000Z</time>
      </trkpt>
      <trkpt lat="43.34855" lon="2.44265">
        <ele>479</ele>
        <time>2017-09-24T14:58:39.000Z</time>
      </trkpt>
      <trkpt lat="43.34854" lon="2.44266">
        <ele>479</ele>
        <time>2017-09-24T14:58:40.000Z</time>
      </trkpt>
      <trkpt lat="43.34854" lon="2.44267">
        <ele>479</ele>
        <time>2017-09-24T14:58:41.000Z</time>
      </trkpt>
      <trkpt lat="43.34854" lon="2.44269">
        <ele>479</ele>
        <time>2017-09-24T14:58:42.000Z</time>
      </trkpt>
      <trkpt lat="43.34854" lon="2.4427">
        <ele>479</ele>
        <time>2017-09-24T14:58:43.000Z</time>
      </trkpt>
      <trkpt lat="43.34854" lon="2.44271">
        <ele>479</ele>
        <time>2017-09-24T14:58:44.000Z</time>
      </trkpt>
      <trkpt lat="43.34854" lon="2.44272">
        <ele>479</ele>
        <time>2017-09-24T14:58:45.000Z</time>
      </trkpt>
      <trkpt lat="43.34854" lon="2.44273">
        <ele>479</ele>
        <time>2017-09-24T14:58:46.000Z</time>
      </trkpt>
      <trkpt lat="43.34853" lon="2.44274">
        <ele>479</ele>
        <time>2017-09-24T14:58:47.000Z</time>
      </trkpt>
      <trkpt lat="43.34853" lon="2.44275">
        <ele>479</ele>
        <time>2017-09-24T14:58:48.000Z</time>
      </trkpt>
      <trkpt lat="43.34853" lon="2.44276">
        <ele>479</ele>
        <time>2017-09-24T14:58:49.000Z</time>
      </trkpt>
      <trkpt lat="43.34853" lon="2.44277">
        <ele>479</ele>
        <time>2017-09-24T14:58:50.000Z</time>
      </trkpt>
      <trkpt lat="43.34853" lon="2.44277">
        <ele>479</ele>
        <time>2017-09-24T14:58:51.000Z</time>
      </trkpt>
      <trkpt lat="43.34857" lon="2.4428">
        <ele>478</ele>
        <time>2017-09-24T14:59:07.000Z</time>
      </trkpt>
      <trkpt lat="43.34858" lon="2.44281">
        <ele>478</ele>
        <time>2017-09-24T14:59:08.000Z</time>
      </trkpt>
      <trkpt lat="43.34858" lon="2.44281">
        <ele>478</ele>
        <time>2017-09-24T14:59:09.000Z</time>
      </trkpt>
      <trkpt lat="43.34858" lon="2.44282">
        <ele>478</ele>
        <time>2017-09-24T14:59:10.000Z</time>
      </trkpt>
      <trkpt lat="43.34858" lon="2.44282">
        <ele>478</ele>
        <time>2017-09-24T14:59:11.000Z</time>
      </trkpt>
      <trkpt lat="43.34857" lon="2.44279">
        <ele>478</ele>
        <time>2017-09-24T15:00:06.000Z</time>
      </trkpt>
      <trkpt lat="43.34857" lon="2.44279">
        <ele>478</ele>
        <time>2017-09-24T15:00:07.000Z</time>
      </trkpt>
      <trkpt lat="43.34851" lon="2.44292">
        <ele>479</ele>
        <time>2017-09-24T15:03:22.000Z</time>
      </trkpt>
      <trkpt lat="43.34851" lon="2.44293">
        <ele>479</ele>
        <time>2017-09-24T15:03:23.000Z</time>
      </trkpt>
      <trkpt lat="43.34851" lon="2.44294">
        <ele>480</ele>
        <time>2017-09-24T15:03:24.000Z</time>
      </trkpt>
      <trkpt lat="43.3485" lon="2.44294">
        <ele>480</ele>
        <time>2017-09-24T15:03:25.000Z</time>
      </trkpt>
      <trkpt lat="43.3485" lon="2.44296">
        <ele>480</ele>
        <time>2017-09-24T15:03:26.000Z</time>
      </trkpt>
      <trkpt lat="43.3485" lon="2.44296">
        <ele>480</ele>
        <time>2017-09-24T15:03:27.000Z</time>
      </trkpt>
      <trkpt lat="43.34849" lon="2.44298">
        <ele>480</ele>
        <time>2017-09-24T15:03:28.000Z</time>
      </trkpt>
      <trkpt lat="43.34849" lon="2.44299">
        <ele>480</ele>
        <time>2017-09-24T15:03:29.000Z</time>
      </trkpt>
      <trkpt lat="43.34849" lon="2.44299">
        <ele>480</ele>
        <time>2017-09-24T15:03:30.000Z</time>
      </trkpt>
      <trkpt lat="43.34847" lon="2.44301">
        <ele>480</ele>
        <time>2017-09-24T15:03:31.000Z</time>
      </trkpt>
      <trkpt lat="43.34847" lon="2.44302">
        <ele>480</ele>
        <time>2017-09-24T15:03:32.000Z</time>
      </trkpt>
      <trkpt lat="43.34846" lon="2.44302">
        <ele>480</ele>
        <time>2017-09-24T15:03:33.000Z</time>
      </trkpt>
      <trkpt lat="43.34845" lon="2.44303">
        <ele>480</ele>
        <time>2017-09-24T15:03:34.000Z</time>
      </trkpt>
      <trkpt lat="43.34844" lon="2.44303">
        <ele>480</ele>
        <time>2017-09-24T15:03:35.000Z</time>
      </trkpt>
      <trkpt lat="43.34843" lon="2.44304">
        <ele>479</ele>
        <time>2017-09-24T15:03:36.000Z</time>
      </trkpt>
      <trkpt lat="43.34842" lon="2.44304">
        <ele>479</ele>
        <time>2017-09-24T15:03:37.000Z</time>
      </trkpt>
      <trkpt lat="43.34841" lon="2.44305">
        <ele>479</ele>
        <time>2017-09-24T15:03:38.000Z</time>
      </trkpt>
      <trkpt lat="43.34841" lon="2.44305">
        <ele>479</ele>
        <time>2017-09-24T15:03:39.000Z</time>
      </trkpt>
      <trkpt lat="43.3484" lon="2.44305">
        <ele>479</ele>
        <time>2017-09-24T15:03:40.000Z</time>
      </trkpt>
      <trkpt lat="43.34839" lon="2.44306">
        <ele>479</ele>
        <time>2017-09-24T15:03:41.000Z</time>
      </trkpt>
      <trkpt lat="43.34838" lon="2.44307">
        <ele>478</ele>
        <time>2017-09-24T15:03:42.000Z</time>
      </trkpt>
      <trkpt lat="43.34837" lon="2.44307">
        <ele>478</ele>
        <time>2017-09-24T15:03:43.000Z</time>
      </trkpt>
      <trkpt lat="43.34837" lon="2.44308">
        <ele>478</ele>
        <time>2017-09-24T15:03:44.000Z</time>
      </trkpt>
      <trkpt lat="43.34836" lon="2.44309">
        <ele>478</ele>
        <time>2017-09-24T15:03:45.000Z</time>
      </trkpt>
      <trkpt lat="43.34836" lon="2.44309">
        <ele>478</ele>
        <time>2017-09-24T15:03:46.000Z</time>
      </trkpt>
      <trkpt lat="43.34835" lon="2.4431">
        <ele>478</ele>
        <time>2017-09-24T15:03:47.000Z</time>
      </trkpt>
      <trkpt lat="43.34835" lon="2.44311">
        <ele>478</ele>
        <time>2017-09-24T15:03:48.000Z</time>
      </trkpt>
      <trkpt lat="43.34835" lon="2.44311">
        <ele>478</ele>
        <time>2017-09-24T15:03:49.000Z</time>
      </trkpt>
      <trkpt lat="43.34834" lon="2.44312">
        <ele>478</ele>
        <time>2017-09-24T15:03:50.000Z</time>
      </trkpt>
      <trkpt lat="43.34834" lon="2.44312">
        <ele>478</ele>
        <time>2017-09-24T15:03:51.000Z</time>
      </trkpt>
      <trkpt lat="43.34834" lon="2.44313">
        <ele>478</ele>
        <time>2017-09-24T15:03:52.000Z</time>
      </trkpt>
      <trkpt lat="43.34834" lon="2.44313">
        <ele>478</ele>
        <time>2017-09-24T15:03:53.000Z</time>
      </trkpt>
      <trkpt lat="43.34835" lon="2.44314">
        <ele>478</ele>
        <time>2017-09-24T15:03:54.000Z</time>
      </trkpt>
      <trkpt lat="43.34835" lon="2.44314">
        <ele>478</ele>
        <time>2017-09-24T15:03:55.000Z</time>
      </trkpt>
      <trkpt lat="43.34835" lon="2.44314">
        <ele>478</ele>
        <time>2017-09-24T15:03:56.000Z</time>
      </trkpt>
      <trkpt lat="43.34835" lon="2.44315">
        <ele>478</ele>
        <time>2017-09-24T15:03:57.000Z</time>
      </trkpt>
      <trkpt lat="43.34836" lon="2.44316">
        <ele>478</ele>
        <time>2017-09-24T15:03:58.000Z</time>
      </trkpt>
      <trkpt lat="43.34836" lon="2.44316">
        <ele>478</ele>
        <time>2017-09-24T15:03:59.000Z</time>
      </trkpt>
      <trkpt lat="43.34836" lon="2.44316">
        <ele>478</ele>
        <time>2017-09-24T15:04:00.000Z</time>
      </trkpt>
      <trkpt lat="43.34837" lon="2.44317">
        <ele>478</ele>
        <time>2017-09-24T15:04:01.000Z</time>
      </trkpt>
      <trkpt lat="43.34837" lon="2.44317">
        <ele>478</ele>
        <time>2017-09-24T15:04:02.000Z</time>
      </trkpt>
      <trkpt lat="43.34835" lon="2.44318">
        <ele>478</ele>
        <time>2017-09-24T15:06:16.000Z</time>
      </trkpt>
      <trkpt lat="43.34836" lon="2.44317">
        <ele>478</ele>
        <time>2017-09-24T15:06:17.000Z</time>
      </trkpt>
      <trkpt lat="43.34837" lon="2.44317">
        <ele>478</ele>
        <time>2017-09-24T15:06:18.000Z</time>
      </trkpt>
      <trkpt lat="43.34838" lon="2.44317">
        <ele>478</ele>
        <time>2017-09-24T15:06:19.000Z</time>
      </trkpt>
      <trkpt lat="43.34839" lon="2.44317">
        <ele>478</ele>
        <time>2017-09-24T15:06:20.000Z</time>
      </trkpt>
      <trkpt lat="43.3484" lon="2.44318">
        <ele>478</ele>
        <time>2017-09-24T15:06:21.000Z</time>
      </trkpt>
      <trkpt lat="43.3484" lon="2.44318">
        <ele>478</ele>
        <time>2017-09-24T15:06:22.000Z</time>
      </trkpt>
      <trkpt lat="43.3484" lon="2.44318">
        <ele>478</ele>
        <time>2017-09-24T15:06:23.000Z</time>
      </trkpt>
      <trkpt lat="43.34814" lon="2.44308">
        <ele>476</ele>
        <time>2017-09-24T15:16:38.000Z</time>
      </trkpt>
      <trkpt lat="43.34813" lon="2.44307">
        <ele>476</ele>
        <time>2017-09-24T15:16:39.000Z</time>
      </trkpt>
      <trkpt lat="43.34812" lon="2.44307">
        <ele>476</ele>
        <time>2017-09-24T15:16:40.000Z</time>
      </trkpt>
      <trkpt lat="43.34812" lon="2.44306">
        <ele>475</ele>
        <time>2017-09-24T15:16:41.000Z</time>
      </trkpt>
      <trkpt lat="43.34811" lon="2.44306">
        <ele>475</ele>
        <time>2017-09-24T15:16:42.000Z</time>
      </trkpt>
      <trkpt lat="43.3481" lon="2.44305">
        <ele>475</ele>
        <time>2017-09-24T15:16:43.000Z</time>
      </trkpt>
      <trkpt lat="43.34809" lon="2.44305">
        <ele>475</ele>
        <time>2017-09-24T15:16:44.000Z</time>
      </trkpt>
      <trkpt lat="43.34809" lon="2.44304">
        <ele>475</ele>
        <time>2017-09-24T15:16:45.000Z</time>
      </trkpt>
      <trkpt lat="43.34808" lon="2.44304">
        <ele>475</ele>
        <time>2017-09-24T15:16:46.000Z</time>
      </trkpt>
      <trkpt lat="43.34807" lon="2.44303">
        <ele>475</ele>
        <time>2017-09-24T15:16:47.000Z</time>
      </trkpt>
      <trkpt lat="43.34807" lon="2.44302">
        <ele>475</ele>
        <time>2017-09-24T15:16:48.000Z</time>
      </trkpt>
      <trkpt lat="43.34806" lon="2.44302">
        <ele>475</ele>
        <time>2017-09-24T15:16:49.000Z</time>
      </trkpt>
      <trkpt lat="43.34805" lon="2.44301">
        <ele>475</ele>
        <time>2017-09-24T15:16:50.000Z</time>
      </trkpt>
      <trkpt lat="43.34804" lon="2.44301">
        <ele>475</ele>
        <time>2017-09-24T15:16:51.000Z</time>
      </trkpt>
      <trkpt lat="43.34804" lon="2.44301">
        <ele>475</ele>
        <time>2017-09-24T15:16:52.000Z</time>
      </trkpt>
      <trkpt lat="43.34803" lon="2.443">
        <ele>475</ele>
        <time>2017-09-24T15:16:53.000Z</time>
      </trkpt>
      <trkpt lat="43.34803" lon="2.443">
        <ele>475</ele>
        <time>2017-09-24T15:16:54.000Z</time>
      </trkpt>
      <trkpt lat="43.34802" lon="2.443">
        <ele>475</ele>
        <time>2017-09-24T15:16:55.000Z</time>
      </trkpt>
      <trkpt lat="43.34802" lon="2.443">
        <ele>475</ele>
        <time>2017-09-24T15:16:56.000Z</time>
      </trkpt>
      <trkpt lat="43.34801" lon="2.443">
        <ele>475</ele>
        <time>2017-09-24T15:16:57.000Z</time>
      </trkpt>
      <trkpt lat="43.348" lon="2.443">
        <ele>475</ele>
        <time>2017-09-24T15:16:58.000Z</time>
      </trkpt>
      <trkpt lat="43.34799" lon="2.443">
        <ele>475</ele>
        <time>2017-09-24T15:16:59.000Z</time>
      </trkpt>
      <trkpt lat="43.34799" lon="2.443">
        <ele>475</ele>
        <time>2017-09-24T15:17:00.000Z</time>
      </trkpt>
      <trkpt lat="43.34798" lon="2.443">
        <ele>474</ele>
        <time>2017-09-24T15:17:01.000Z</time>
      </trkpt>
      <trkpt lat="43.34797" lon="2.44299">
        <ele>474</ele>
        <time>2017-09-24T15:17:02.000Z</time>
      </trkpt>
      <trkpt lat="43.34796" lon="2.44299">
        <ele>474</ele>
        <time>2017-09-24T15:17:03.000Z</time>
      </trkpt>
      <trkpt lat="43.34795" lon="2.44299">
        <ele>474</ele>
        <time>2017-09-24T15:17:04.000Z</time>
      </trkpt>
      <trkpt lat="43.34795" lon="2.44299">
        <ele>474</ele>
        <time>2017-09-24T15:17:05.000Z</time>
      </trkpt>
      <trkpt lat="43.34794" lon="2.44298">
        <ele>474</ele>
        <time>2017-09-24T15:17:06.000Z</time>
      </trkpt>
      <trkpt lat="43.34793" lon="2.44298">
        <ele>474</ele>
        <time>2017-09-24T15:17:07.000Z</time>
      </trkpt>
      <trkpt lat="43.34793" lon="2.44297">
        <ele>474</ele>
        <time>2017-09-24T15:17:08.000Z</time>
      </trkpt>
      <trkpt lat="43.34793" lon="2.44297">
        <ele>474</ele>
        <time>2017-09-24T15:17:09.000Z</time>
      </trkpt>
      <trkpt lat="43.34793" lon="2.44297">
        <ele>474</ele>
        <time>2017-09-24T15:17:10.000Z</time>
      </trkpt>
      <trkpt lat="43.3479" lon="2.44291">
        <ele>473</ele>
        <time>2017-09-24T15:17:24.000Z</time>
      </trkpt>
      <trkpt lat="43.3479" lon="2.4429">
        <ele>473</ele>
        <time>2017-09-24T15:17:25.000Z</time>
      </trkpt>
      <trkpt lat="43.3479" lon="2.44289">
        <ele>473</ele>
        <time>2017-09-24T15:17:26.000Z</time>
      </trkpt>
      <trkpt lat="43.3479" lon="2.44288">
        <ele>473</ele>
        <time>2017-09-24T15:17:27.000Z</time>
      </trkpt>
      <trkpt lat="43.34789" lon="2.44287">
        <ele>473</ele>
        <time>2017-09-24T15:17:28.000Z</time>
      </trkpt>
      <trkpt lat="43.34789" lon="2.44286">
        <ele>473</ele>
        <time>2017-09-24T15:17:29.000Z</time>
      </trkpt>
      <trkpt lat="43.34789" lon="2.44285">
        <ele>473</ele>
        <time>2017-09-24T15:17:30.000Z</time>
      </trkpt>
      <trkpt lat="43.34789" lon="2.44284">
        <ele>473</ele>
        <time>2017-09-24T15:17:31.000Z</time>
      </trkpt>
      <trkpt lat="43.34788" lon="2.44283">
        <ele>473</ele>
        <time>2017-09-24T15:17:32.000Z</time>
      </trkpt>
      <trkpt lat="43.34788" lon="2.44282">
        <ele>473</ele>
        <time>2017-09-24T15:17:33.000Z</time>
      </trkpt>
      <trkpt lat="43.34788" lon="2.44281">
        <ele>473</ele>
        <time>2017-09-24T15:17:34.000Z</time>
      </trkpt>
      <trkpt lat="43.34788" lon="2.44281">
        <ele>472</ele>
        <time>2017-09-24T15:17:35.000Z</time>
      </trkpt>
      <trkpt lat="43.34787" lon="2.4428">
        <ele>472</ele>
        <time>2017-09-24T15:17:36.000Z</time>
      </trkpt>
      <trkpt lat="43.34787" lon="2.44279">
        <ele>472</ele>
        <time>2017-09-24T15:17:37.000Z</time>
      </trkpt>
      <trkpt lat="43.34786" lon="2.44278">
        <ele>472</ele>
        <time>2017-09-24T15:17:38.000Z</time>
      </trkpt>
      <trkpt lat="43.34786" lon="2.44278">
        <ele>472</ele>
        <time>2017-09-24T15:17:39.000Z</time>
      </trkpt>
      <trkpt lat="43.34785" lon="2.44277">
        <ele>472</ele>
        <time>2017-09-24T15:17:40.000Z</time>
      </trkpt>
      <trkpt lat="43.34785" lon="2.44277">
        <ele>472</ele>
        <time>2017-09-24T15:17:41.000Z</time>
      </trkpt>
      <trkpt lat="43.34784" lon="2.44277">
        <ele>472</ele>
        <time>2017-09-24T15:17:42.000Z</time>
      </trkpt>
      <trkpt lat="43.34783" lon="2.44276">
        <ele>472</ele>
        <time>2017-09-24T15:17:43.000Z</time>
      </trkpt>
      <trkpt lat="43.34783" lon="2.44276">
        <ele>472</ele>
        <time>2017-09-24T15:17:44.000Z</time>
      </trkpt>
      <trkpt lat="43.34783" lon="2.44275">
        <ele>472</ele>
        <time>2017-09-24T15:17:45.000Z</time>
      </trkpt>
      <trkpt lat="43.34782" lon="2.44274">
        <ele>472</ele>
        <time>2017-09-24T15:17:46.000Z</time>
      </trkpt>
      <trkpt lat="43.34782" lon="2.44273">
        <ele>472</ele>
        <time>2017-09-24T15:17:47.000Z</time>
      </trkpt>
      <trkpt lat="43.34782" lon="2.44273">
        <ele>472</ele>
        <time>2017-09-24T15:17:48.000Z</time>
      </trkpt>
      <trkpt lat="43.34781" lon="2.44273">
        <ele>472</ele>
        <time>2017-09-24T15:17:49.000Z</time>
      </trkpt>
      <trkpt lat="43.3478" lon="2.44272">
        <ele>472</ele>
        <time>2017-09-24T15:17:50.000Z</time>
      </trkpt>
      <trkpt lat="43.34779" lon="2.44272">
        <ele>471</ele>
        <time>2017-09-24T15:17:51.000Z</time>
      </trkpt>
      <trkpt lat="43.34779" lon="2.44272">
        <ele>471</ele>
        <time>2017-09-24T15:17:52.000Z</time>
      </trkpt>
      <trkpt lat="43.34778" lon="2.44272">
        <ele>471</ele>
        <time>2017-09-24T15:17:53.000Z</time>
      </trkpt>
      <trkpt lat="43.34777" lon="2.44272">
        <ele>471</ele>
        <time>2017-09-24T15:17:54.000Z</time>
      </trkpt>
      <trkpt lat="43.34776" lon="2.44272">
        <ele>471</ele>
        <time>2017-09-24T15:17:55.000Z</time>
      </trkpt>
      <trkpt lat="43.34776" lon="2.44271">
        <ele>471</ele>
        <time>2017-09-24T15:17:56.000Z</time>
      </trkpt>
      <trkpt lat="43.34775" lon="2.4427">
        <ele>471</ele>
        <time>2017-09-24T15:17:57.000Z</time>
      </trkpt>
      <trkpt lat="43.34775" lon="2.44269">
        <ele>471</ele>
        <time>2017-09-24T15:17:58.000Z</time>
      </trkpt>
      <trkpt lat="43.34774" lon="2.44268">
        <ele>471</ele>
        <time>2017-09-24T15:17:59.000Z</time>
      </trkpt>
      <trkpt lat="43.34774" lon="2.44266">
        <ele>471</ele>
        <time>2017-09-24T15:18:00.000Z</time>
      </trkpt>
      <trkpt lat="43.34774" lon="2.44265">
        <ele>471</ele>
        <time>2017-09-24T15:18:01.000Z</time>
      </trkpt>
      <trkpt lat="43.34774" lon="2.44264">
        <ele>471</ele>
        <time>2017-09-24T15:18:02.000Z</time>
      </trkpt>
      <trkpt lat="43.34774" lon="2.44263">
        <ele>471</ele>
        <time>2017-09-24T15:18:03.000Z</time>
      </trkpt>
      <trkpt lat="43.34774" lon="2.44262">
        <ele>470</ele>
        <time>2017-09-24T15:18:04.000Z</time>
      </trkpt>
      <trkpt lat="43.34774" lon="2.4426">
        <ele>470</ele>
        <time>2017-09-24T15:18:05.000Z</time>
      </trkpt>
      <trkpt lat="43.34774" lon="2.44259">
        <ele>470</ele>
        <time>2017-09-24T15:18:06.000Z</time>
      </trkpt>
      <trkpt lat="43.34774" lon="2.44258">
        <ele>470</ele>
        <time>2017-09-24T15:18:07.000Z</time>
      </trkpt>
      <trkpt lat="43.34774" lon="2.44257">
        <ele>470</ele>
        <time>2017-09-24T15:18:08.000Z</time>
      </trkpt>
      <trkpt lat="43.34774" lon="2.44256">
        <ele>470</ele>
        <time>2017-09-24T15:18:09.000Z</time>
      </trkpt>
      <trkpt lat="43.34774" lon="2.44255">
        <ele>470</ele>
        <time>2017-09-24T15:18:10.000Z</time>
      </trkpt>
      <trkpt lat="43.34774" lon="2.44254">
        <ele>470</ele>
        <time>2017-09-24T15:18:11.000Z</time>
      </trkpt>
      <trkpt lat="43.34774" lon="2.44253">
        <ele>470</ele>
        <time>2017-09-24T15:18:12.000Z</time>
      </trkpt>
      <trkpt lat="43.34774" lon="2.44252">
        <ele>470</ele>
        <time>2017-09-24T15:18:13.000Z</time>
      </trkpt>
      <trkpt lat="43.34774" lon="2.44251">
        <ele>470</ele>
        <time>2017-09-24T15:18:14.000Z</time>
      </trkpt>
      <trkpt lat="43.34774" lon="2.4425">
        <ele>470</ele>
        <time>2017-09-24T15:18:15.000Z</time>
      </trkpt>
      <trkpt lat="43.34774" lon="2.44249">
        <ele>470</ele>
        <time>2017-09-24T15:18:16.000Z</time>
      </trkpt>
      <trkpt lat="43.34773" lon="2.44248">
        <ele>470</ele>
        <time>2017-09-24T15:18:17.000Z</time>
      </trkpt>
      <trkpt lat="43.34773" lon="2.44247">
        <ele>470</ele>
        <time>2017-09-24T15:18:18.000Z</time>
      </trkpt>
      <trkpt lat="43.34773" lon="2.44246">
        <ele>470</ele>
        <time>2017-09-24T15:18:19.000Z</time>
      </trkpt>
      <trkpt lat="43.34773" lon="2.44245">
        <ele>470</ele>
        <time>2017-09-24T15:18:20.000Z</time>
      </trkpt>
      <trkpt lat="43.34772" lon="2.44245">
        <ele>470</ele>
        <time>2017-09-24T15:18:21.000Z</time>
      </trkpt>
      <trkpt lat="43.34772" lon="2.44244">
        <ele>470</ele>
        <time>2017-09-24T15:18:22.000Z</time>
      </trkpt>
      <trkpt lat="43.34772" lon="2.44243">
        <ele>470</ele>
        <time>2017-09-24T15:18:23.000Z</time>
      </trkpt>
      <trkpt lat="43.34771" lon="2.44242">
        <ele>470</ele>
        <time>2017-09-24T15:18:24.000Z</time>
      </trkpt>
      <trkpt lat="43.34771" lon="2.44241">
        <ele>470</ele>
        <time>2017-09-24T15:18:25.000Z</time>
      </trkpt>
      <trkpt lat="43.3477" lon="2.4424">
        <ele>470</ele>
        <time>2017-09-24T15:18:26.000Z</time>
      </trkpt>
      <trkpt lat="43.3477" lon="2.4424">
        <ele>470</ele>
        <time>2017-09-24T15:18:27.000Z</time>
      </trkpt>
      <trkpt lat="43.34769" lon="2.44239">
        <ele>470</ele>
        <time>2017-09-24T15:18:28.000Z</time>
      </trkpt>
      <trkpt lat="43.34769" lon="2.44239">
        <ele>470</ele>
        <time>2017-09-24T15:18:29.000Z</time>
      </trkpt>
      <trkpt lat="43.34768" lon="2.44238">
        <ele>470</ele>
        <time>2017-09-24T15:18:30.000Z</time>
      </trkpt>
      <trkpt lat="43.34767" lon="2.44237">
        <ele>470</ele>
        <time>2017-09-24T15:18:31.000Z</time>
      </trkpt>
      <trkpt lat="43.34766" lon="2.44237">
        <ele>470</ele>
        <time>2017-09-24T15:18:32.000Z</time>
      </trkpt>
      <trkpt lat="43.34766" lon="2.44237">
        <ele>470</ele>
        <time>2017-09-24T15:18:33.000Z</time>
      </trkpt>
      <trkpt lat="43.34765" lon="2.44236">
        <ele>470</ele>
        <time>2017-09-24T15:18:34.000Z</time>
      </trkpt>
      <trkpt lat="43.34764" lon="2.44235">
        <ele>469</ele>
        <time>2017-09-24T15:18:35.000Z</time>
      </trkpt>
      <trkpt lat="43.34763" lon="2.44234">
        <ele>469</ele>
        <time>2017-09-24T15:18:36.000Z</time>
      </trkpt>
      <trkpt lat="43.34763" lon="2.44233">
        <ele>469</ele>
        <time>2017-09-24T15:18:37.000Z</time>
      </trkpt>
      <trkpt lat="43.34762" lon="2.44232">
        <ele>469</ele>
        <time>2017-09-24T15:18:38.000Z</time>
      </trkpt>
      <trkpt lat="43.34761" lon="2.44232">
        <ele>469</ele>
        <time>2017-09-24T15:18:39.000Z</time>
      </trkpt>
      <trkpt lat="43.34761" lon="2.44231">
        <ele>469</ele>
        <time>2017-09-24T15:18:40.000Z</time>
      </trkpt>
      <trkpt lat="43.3476" lon="2.4423">
        <ele>469</ele>
        <time>2017-09-24T15:18:41.000Z</time>
      </trkpt>
      <trkpt lat="43.34759" lon="2.44229">
        <ele>469</ele>
        <time>2017-09-24T15:18:42.000Z</time>
      </trkpt>
      <trkpt lat="43.34759" lon="2.44228">
        <ele>469</ele>
        <time>2017-09-24T15:18:43.000Z</time>
      </trkpt>
      <trkpt lat="43.34758" lon="2.44228">
        <ele>469</ele>
        <time>2017-09-24T15:18:44.000Z</time>
      </trkpt>
      <trkpt lat="43.34757" lon="2.44227">
        <ele>469</ele>
        <time>2017-09-24T15:18:45.000Z</time>
      </trkpt>
      <trkpt lat="43.34756" lon="2.44226">
        <ele>469</ele>
        <time>2017-09-24T15:18:46.000Z</time>
      </trkpt>
      <trkpt lat="43.34755" lon="2.44225">
        <ele>469</ele>
        <time>2017-09-24T15:18:47.000Z</time>
      </trkpt>
      <trkpt lat="43.34754" lon="2.44225">
        <ele>468</ele>
        <time>2017-09-24T15:18:48.000Z</time>
      </trkpt>
      <trkpt lat="43.34754" lon="2.44224">
        <ele>468</ele>
        <time>2017-09-24T15:18:49.000Z</time>
      </trkpt>
      <trkpt lat="43.34753" lon="2.44223">
        <ele>468</ele>
        <time>2017-09-24T15:18:50.000Z</time>
      </trkpt>
      <trkpt lat="43.34752" lon="2.44222">
        <ele>468</ele>
        <time>2017-09-24T15:18:51.000Z</time>
      </trkpt>
      <trkpt lat="43.34752" lon="2.44221">
        <ele>468</ele>
        <time>2017-09-24T15:18:52.000Z</time>
      </trkpt>
      <trkpt lat="43.34751" lon="2.4422">
        <ele>468</ele>
        <time>2017-09-24T15:18:53.000Z</time>
      </trkpt>
      <trkpt lat="43.34751" lon="2.44219">
        <ele>468</ele>
        <time>2017-09-24T15:18:54.000Z</time>
      </trkpt>
      <trkpt lat="43.3475" lon="2.44217">
        <ele>468</ele>
        <time>2017-09-24T15:18:55.000Z</time>
      </trkpt>
      <trkpt lat="43.34749" lon="2.44216">
        <ele>468</ele>
        <time>2017-09-24T15:18:56.000Z</time>
      </trkpt>
      <trkpt lat="43.34749" lon="2.44214">
        <ele>468</ele>
        <time>2017-09-24T15:18:57.000Z</time>
      </trkpt>
      <trkpt lat="43.34748" lon="2.44213">
        <ele>468</ele>
        <time>2017-09-24T15:18:58.000Z</time>
      </trkpt>
      <trkpt lat="43.34748" lon="2.44212">
        <ele>468</ele>
        <time>2017-09-24T15:18:59.000Z</time>
      </trkpt>
      <trkpt lat="43.34747" lon="2.44211">
        <ele>468</ele>
        <time>2017-09-24T15:19:00.000Z</time>
      </trkpt>
      <trkpt lat="43.34747" lon="2.44209">
        <ele>468</ele>
        <time>2017-09-24T15:19:01.000Z</time>
      </trkpt>
      <trkpt lat="43.34746" lon="2.44208">
        <ele>468</ele>
        <time>2017-09-24T15:19:02.000Z</time>
      </trkpt>
      <trkpt lat="43.34746" lon="2.44206">
        <ele>468</ele>
        <time>2017-09-24T15:19:03.000Z</time>
      </trkpt>
      <trkpt lat="43.34746" lon="2.44205">
        <ele>468</ele>
        <time>2017-09-24T15:19:04.000Z</time>
      </trkpt>
      <trkpt lat="43.34745" lon="2.44203">
        <ele>468</ele>
        <time>2017-09-24T15:19:05.000Z</time>
      </trkpt>
      <trkpt lat="43.34745" lon="2.44202">
        <ele>468</ele>
        <time>2017-09-24T15:19:06.000Z</time>
      </trkpt>
      <trkpt lat="43.34744" lon="2.44201">
        <ele>468</ele>
        <time>2017-09-24T15:19:07.000Z</time>
      </trkpt>
      <trkpt lat="43.34744" lon="2.44199">
        <ele>468</ele>
        <time>2017-09-24T15:19:08.000Z</time>
      </trkpt>
      <trkpt lat="43.34744" lon="2.44198">
        <ele>468</ele>
        <time>2017-09-24T15:19:09.000Z</time>
      </trkpt>
      <trkpt lat="43.34743" lon="2.44197">
        <ele>468</ele>
        <time>2017-09-24T15:19:10.000Z</time>
      </trkpt>
      <trkpt lat="43.34743" lon="2.44195">
        <ele>468</ele>
        <time>2017-09-24T15:19:11.000Z</time>
      </trkpt>
      <trkpt lat="43.34742" lon="2.44194">
        <ele>468</ele>
        <time>2017-09-24T15:19:12.000Z</time>
      </trkpt>
      <trkpt lat="43.34742" lon="2.44192">
        <ele>468</ele>
        <time>2017-09-24T15:19:13.000Z</time>
      </trkpt>
      <trkpt lat="43.34742" lon="2.44191">
        <ele>468</ele>
        <time>2017-09-24T15:19:14.000Z</time>
      </trkpt>
      <trkpt lat="43.34742" lon="2.44189">
        <ele>468</ele>
        <time>2017-09-24T15:19:15.000Z</time>
      </trkpt>
      <trkpt lat="43.34741" lon="2.44188">
        <ele>468</ele>
        <time>2017-09-24T15:19:16.000Z</time>
      </trkpt>
      <trkpt lat="43.34741" lon="2.44186">
        <ele>468</ele>
        <time>2017-09-24T15:19:17.000Z</time>
      </trkpt>
      <trkpt lat="43.3474" lon="2.44185">
        <ele>468</ele>
        <time>2017-09-24T15:19:18.000Z</time>
      </trkpt>
      <trkpt lat="43.3474" lon="2.44183">
        <ele>468</ele>
        <time>2017-09-24T15:19:19.000Z</time>
      </trkpt>
      <trkpt lat="43.3474" lon="2.44182">
        <ele>468</ele>
        <time>2017-09-24T15:19:20.000Z</time>
      </trkpt>
      <trkpt lat="43.34739" lon="2.4418">
        <ele>468</ele>
        <time>2017-09-24T15:19:21.000Z</time>
      </trkpt>
      <trkpt lat="43.34739" lon="2.44179">
        <ele>468</ele>
        <time>2017-09-24T15:19:22.000Z</time>
      </trkpt>
      <trkpt lat="43.34739" lon="2.44177">
        <ele>468</ele>
        <time>2017-09-24T15:19:23.000Z</time>
      </trkpt>
      <trkpt lat="43.34739" lon="2.44176">
        <ele>468</ele>
        <time>2017-09-24T15:19:24.000Z</time>
      </trkpt>
      <trkpt lat="43.34739" lon="2.44175">
        <ele>468</ele>
        <time>2017-09-24T15:19:25.000Z</time>
      </trkpt>
      <trkpt lat="43.34739" lon="2.44173">
        <ele>468</ele>
        <time>2017-09-24T15:19:26.000Z</time>
      </trkpt>
      <trkpt lat="43.34739" lon="2.44172">
        <ele>468</ele>
        <time>2017-09-24T15:19:27.000Z</time>
      </trkpt>
      <trkpt lat="43.34738" lon="2.44171">
        <ele>468</ele>
        <time>2017-09-24T15:19:28.000Z</time>
      </trkpt>
      <trkpt lat="43.34738" lon="2.44169">
        <ele>468</ele>
        <time>2017-09-24T15:19:29.000Z</time>
      </trkpt>
      <trkpt lat="43.34738" lon="2.44168">
        <ele>468</ele>
        <time>2017-09-24T15:19:30.000Z</time>
      </trkpt>
      <trkpt lat="43.34738" lon="2.44166">
        <ele>468</ele>
        <time>2017-09-24T15:19:31.000Z</time>
      </trkpt>
      <trkpt lat="43.34738" lon="2.44165">
        <ele>468</ele>
        <time>2017-09-24T15:19:32.000Z</time>
      </trkpt>
      <trkpt lat="43.34738" lon="2.44163">
        <ele>468</ele>
        <time>2017-09-24T15:19:33.000Z</time>
      </trkpt>
      <trkpt lat="43.34737" lon="2.44162">
        <ele>468</ele>
        <time>2017-09-24T15:19:34.000Z</time>
      </trkpt>
      <trkpt lat="43.34737" lon="2.44161">
        <ele>468</ele>
        <time>2017-09-24T15:19:35.000Z</time>
      </trkpt>
      <trkpt lat="43.34737" lon="2.44159">
        <ele>468</ele>
        <time>2017-09-24T15:19:36.000Z</time>
      </trkpt>
      <trkpt lat="43.34737" lon="2.44158">
        <ele>468</ele>
        <time>2017-09-24T15:19:37.000Z</time>
      </trkpt>
      <trkpt lat="43.34737" lon="2.44157">
        <ele>468</ele>
        <time>2017-09-24T15:19:38.000Z</time>
      </trkpt>
      <trkpt lat="43.34737" lon="2.44155">
        <ele>468</ele>
        <time>2017-09-24T15:19:39.000Z</time>
      </trkpt>
      <trkpt lat="43.34737" lon="2.44154">
        <ele>468</ele>
        <time>2017-09-24T15:19:40.000Z</time>
      </trkpt>
      <trkpt lat="43.34737" lon="2.44153">
        <ele>468</ele>
        <time>2017-09-24T15:19:41.000Z</time>
      </trkpt>
      <trkpt lat="43.34736" lon="2.44151">
        <ele>468</ele>
        <time>2017-09-24T15:19:42.000Z</time>
      </trkpt>
      <trkpt lat="43.34736" lon="2.4415">
        <ele>468</ele>
        <time>2017-09-24T15:19:43.000Z</time>
      </trkpt>
      <trkpt lat="43.34736" lon="2.44148">
        <ele>468</ele>
        <time>2017-09-24T15:19:44.000Z</time>
      </trkpt>
      <trkpt lat="43.34736" lon="2.44147">
        <ele>468</ele>
        <time>2017-09-24T15:19:45.000Z</time>
      </trkpt>
      <trkpt lat="43.34736" lon="2.44146">
        <ele>468</ele>
        <time>2017-09-24T15:19:46.000Z</time>
      </trkpt>
      <trkpt lat="43.34735" lon="2.44144">
        <ele>468</ele>
        <time>2017-09-24T15:19:47.000Z</time>
      </trkpt>
      <trkpt lat="43.34735" lon="2.44143">
        <ele>468</ele>
        <time>2017-09-24T15:19:48.000Z</time>
      </trkpt>
      <trkpt lat="43.34735" lon="2.44142">
        <ele>468</ele>
        <time>2017-09-24T15:19:49.000Z</time>
      </trkpt>
      <trkpt lat="43.34735" lon="2.44141">
        <ele>468</ele>
        <time>2017-09-24T15:19:50.000Z</time>
      </trkpt>
      <trkpt lat="43.34734" lon="2.44139">
        <ele>468</ele>
        <time>2017-09-24T15:19:51.000Z</time>
      </trkpt>
      <trkpt lat="43.34734" lon="2.44138">
        <ele>468</ele>
        <time>2017-09-24T15:19:52.000Z</time>
      </trkpt>
      <trkpt lat="43.34734" lon="2.44137">
        <ele>468</ele>
        <time>2017-09-24T15:19:53.000Z</time>
      </trkpt>
      <trkpt lat="43.34733" lon="2.44135">
        <ele>468</ele>
        <time>2017-09-24T15:19:54.000Z</time>
      </trkpt>
      <trkpt lat="43.34733" lon="2.44133">
        <ele>467</ele>
        <time>2017-09-24T15:19:55.000Z</time>
      </trkpt>
      <trkpt lat="43.34732" lon="2.44132">
        <ele>467</ele>
        <time>2017-09-24T15:19:56.000Z</time>
      </trkpt>
      <trkpt lat="43.34732" lon="2.44131">
        <ele>467</ele>
        <time>2017-09-24T15:19:57.000Z</time>
      </trkpt>
      <trkpt lat="43.34732" lon="2.44129">
        <ele>467</ele>
        <time>2017-09-24T15:19:58.000Z</time>
      </trkpt>
      <trkpt lat="43.34732" lon="2.44128">
        <ele>467</ele>
        <time>2017-09-24T15:19:59.000Z</time>
      </trkpt>
      <trkpt lat="43.34731" lon="2.44126">
        <ele>467</ele>
        <time>2017-09-24T15:20:00.000Z</time>
      </trkpt>
      <trkpt lat="43.34731" lon="2.44125">
        <ele>467</ele>
        <time>2017-09-24T15:20:01.000Z</time>
      </trkpt>
      <trkpt lat="43.34731" lon="2.44124">
        <ele>467</ele>
        <time>2017-09-24T15:20:02.000Z</time>
      </trkpt>
      <trkpt lat="43.34731" lon="2.44123">
        <ele>467</ele>
        <time>2017-09-24T15:20:03.000Z</time>
      </trkpt>
      <trkpt lat="43.34731" lon="2.44121">
        <ele>467</ele>
        <time>2017-09-24T15:20:04.000Z</time>
      </trkpt>
      <trkpt lat="43.3473" lon="2.4412">
        <ele>467</ele>
        <time>2017-09-24T15:20:05.000Z</time>
      </trkpt>
      <trkpt lat="43.3473" lon="2.44119">
        <ele>467</ele>
        <time>2017-09-24T15:20:06.000Z</time>
      </trkpt>
      <trkpt lat="43.3473" lon="2.44118">
        <ele>467</ele>
        <time>2017-09-24T15:20:07.000Z</time>
      </trkpt>
      <trkpt lat="43.3473" lon="2.44116">
        <ele>467</ele>
        <time>2017-09-24T15:20:08.000Z</time>
      </trkpt>
      <trkpt lat="43.34729" lon="2.44115">
        <ele>467</ele>
        <time>2017-09-24T15:20:09.000Z</time>
      </trkpt>
      <trkpt lat="43.34729" lon="2.44113">
        <ele>467</ele>
        <time>2017-09-24T15:20:10.000Z</time>
      </trkpt>
      <trkpt lat="43.34729" lon="2.44112">
        <ele>467</ele>
        <time>2017-09-24T15:20:11.000Z</time>
      </trkpt>
      <trkpt lat="43.34729" lon="2.44111">
        <ele>467</ele>
        <time>2017-09-24T15:20:12.000Z</time>
      </trkpt>
      <trkpt lat="43.34729" lon="2.44109">
        <ele>467</ele>
        <time>2017-09-24T15:20:13.000Z</time>
      </trkpt>
      <trkpt lat="43.34728" lon="2.44108">
        <ele>467</ele>
        <time>2017-09-24T15:20:14.000Z</time>
      </trkpt>
      <trkpt lat="43.34728" lon="2.44107">
        <ele>467</ele>
        <time>2017-09-24T15:20:15.000Z</time>
      </trkpt>
      <trkpt lat="43.34728" lon="2.44105">
        <ele>467</ele>
        <time>2017-09-24T15:20:16.000Z</time>
      </trkpt>
      <trkpt lat="43.34727" lon="2.44104">
        <ele>467</ele>
        <time>2017-09-24T15:20:17.000Z</time>
      </trkpt>
      <trkpt lat="43.34727" lon="2.44102">
        <ele>467</ele>
        <time>2017-09-24T15:20:18.000Z</time>
      </trkpt>
      <trkpt lat="43.34726" lon="2.44101">
        <ele>467</ele>
        <time>2017-09-24T15:20:19.000Z</time>
      </trkpt>
      <trkpt lat="43.34726" lon="2.441">
        <ele>467</ele>
        <time>2017-09-24T15:20:20.000Z</time>
      </trkpt>
      <trkpt lat="43.34726" lon="2.44098">
        <ele>467</ele>
        <time>2017-09-24T15:20:21.000Z</time>
      </trkpt>
      <trkpt lat="43.34725" lon="2.44097">
        <ele>467</ele>
        <time>2017-09-24T15:20:22.000Z</time>
      </trkpt>
      <trkpt lat="43.34725" lon="2.44096">
        <ele>467</ele>
        <time>2017-09-24T15:20:23.000Z</time>
      </trkpt>
      <trkpt lat="43.34725" lon="2.44094">
        <ele>467</ele>
        <time>2017-09-24T15:20:24.000Z</time>
      </trkpt>
      <trkpt lat="43.34724" lon="2.44092">
        <ele>467</ele>
        <time>2017-09-24T15:20:25.000Z</time>
      </trkpt>
      <trkpt lat="43.34724" lon="2.44091">
        <ele>467</ele>
        <time>2017-09-24T15:20:26.000Z</time>
      </trkpt>
      <trkpt lat="43.34724" lon="2.44089">
        <ele>467</ele>
        <time>2017-09-24T15:20:27.000Z</time>
      </trkpt>
      <trkpt lat="43.34724" lon="2.44088">
        <ele>467</ele>
        <time>2017-09-24T15:20:28.000Z</time>
      </trkpt>
      <trkpt lat="43.34723" lon="2.44086">
        <ele>467</ele>
        <time>2017-09-24T15:20:29.000Z</time>
      </trkpt>
      <trkpt lat="43.34723" lon="2.44085">
        <ele>467</ele>
        <time>2017-09-24T15:20:30.000Z</time>
      </trkpt>
      <trkpt lat="43.34722" lon="2.44084">
        <ele>467</ele>
        <time>2017-09-24T15:20:31.000Z</time>
      </trkpt>
      <trkpt lat="43.34722" lon="2.44082">
        <ele>467</ele>
        <time>2017-09-24T15:20:32.000Z</time>
      </trkpt>
      <trkpt lat="43.34722" lon="2.44081">
        <ele>467</ele>
        <time>2017-09-24T15:20:33.000Z</time>
      </trkpt>
      <trkpt lat="43.34722" lon="2.44079">
        <ele>467</ele>
        <time>2017-09-24T15:20:34.000Z</time>
      </trkpt>
      <trkpt lat="43.34721" lon="2.44078">
        <ele>467</ele>
        <time>2017-09-24T15:20:35.000Z</time>
      </trkpt>
      <trkpt lat="43.34721" lon="2.44077">
        <ele>467</ele>
        <time>2017-09-24T15:20:36.000Z</time>
      </trkpt>
      <trkpt lat="43.34721" lon="2.44075">
        <ele>467</ele>
        <time>2017-09-24T15:20:37.000Z</time>
      </trkpt>
      <trkpt lat="43.34721" lon="2.44074">
        <ele>467</ele>
        <time>2017-09-24T15:20:38.000Z</time>
      </trkpt>
      <trkpt lat="43.3472" lon="2.44072">
        <ele>467</ele>
        <time>2017-09-24T15:20:39.000Z</time>
      </trkpt>
      <trkpt lat="43.3472" lon="2.44071">
        <ele>466</ele>
        <time>2017-09-24T15:20:40.000Z</time>
      </trkpt>
      <trkpt lat="43.3472" lon="2.4407">
        <ele>466</ele>
        <time>2017-09-24T15:20:41.000Z</time>
      </trkpt>
      <trkpt lat="43.3472" lon="2.44069">
        <ele>466</ele>
        <time>2017-09-24T15:20:42.000Z</time>
      </trkpt>
      <trkpt lat="43.34719" lon="2.44067">
        <ele>466</ele>
        <time>2017-09-24T15:20:43.000Z</time>
      </trkpt>
      <trkpt lat="43.34719" lon="2.44066">
        <ele>466</ele>
        <time>2017-09-24T15:20:44.000Z</time>
      </trkpt>
      <trkpt lat="43.34719" lon="2.44065">
        <ele>466</ele>
        <time>2017-09-24T15:20:45.000Z</time>
      </trkpt>
      <trkpt lat="43.34719" lon="2.44063">
        <ele>466</ele>
        <time>2017-09-24T15:20:46.000Z</time>
      </trkpt>
      <trkpt lat="43.34718" lon="2.44062">
        <ele>466</ele>
        <time>2017-09-24T15:20:47.000Z</time>
      </trkpt>
      <trkpt lat="43.34718" lon="2.44061">
        <ele>466</ele>
        <time>2017-09-24T15:20:48.000Z</time>
      </trkpt>
      <trkpt lat="43.34718" lon="2.44059">
        <ele>466</ele>
        <time>2017-09-24T15:20:49.000Z</time>
      </trkpt>
      <trkpt lat="43.34717" lon="2.44059">
        <ele>466</ele>
        <time>2017-09-24T15:20:50.000Z</time>
      </trkpt>
      <trkpt lat="43.34717" lon="2.44058">
        <ele>466</ele>
        <time>2017-09-24T15:20:51.000Z</time>
      </trkpt>
      <trkpt lat="43.34717" lon="2.44057">
        <ele>466</ele>
        <time>2017-09-24T15:20:52.000Z</time>
      </trkpt>
      <trkpt lat="43.34717" lon="2.44055">
        <ele>466</ele>
        <time>2017-09-24T15:20:53.000Z</time>
      </trkpt>
      <trkpt lat="43.34716" lon="2.44055">
        <ele>466</ele>
        <time>2017-09-24T15:20:54.000Z</time>
      </trkpt>
      <trkpt lat="43.34716" lon="2.44054">
        <ele>466</ele>
        <time>2017-09-24T15:20:55.000Z</time>
      </trkpt>
      <trkpt lat="43.34716" lon="2.44054">
        <ele>466</ele>
        <time>2017-09-24T15:20:56.000Z</time>
      </trkpt>
      <trkpt lat="43.34716" lon="2.44053">
        <ele>465</ele>
        <time>2017-09-24T15:20:57.000Z</time>
      </trkpt>
      <trkpt lat="43.34715" lon="2.44051">
        <ele>465</ele>
        <time>2017-09-24T15:20:58.000Z</time>
      </trkpt>
      <trkpt lat="43.34715" lon="2.44049">
        <ele>465</ele>
        <time>2017-09-24T15:20:59.000Z</time>
      </trkpt>
      <trkpt lat="43.34714" lon="2.44048">
        <ele>465</ele>
        <time>2017-09-24T15:21:00.000Z</time>
      </trkpt>
      <trkpt lat="43.34714" lon="2.44047">
        <ele>465</ele>
        <time>2017-09-24T15:21:01.000Z</time>
      </trkpt>
      <trkpt lat="43.34714" lon="2.44045">
        <ele>465</ele>
        <time>2017-09-24T15:21:02.000Z</time>
      </trkpt>
      <trkpt lat="43.34713" lon="2.44043">
        <ele>465</ele>
        <time>2017-09-24T15:21:03.000Z</time>
      </trkpt>
      <trkpt lat="43.34713" lon="2.44042">
        <ele>465</ele>
        <time>2017-09-24T15:21:04.000Z</time>
      </trkpt>
      <trkpt lat="43.34712" lon="2.4404">
        <ele>465</ele>
        <time>2017-09-24T15:21:05.000Z</time>
      </trkpt>
      <trkpt lat="43.34712" lon="2.44039">
        <ele>465</ele>
        <time>2017-09-24T15:21:06.000Z</time>
      </trkpt>
      <trkpt lat="43.34712" lon="2.44037">
        <ele>465</ele>
        <time>2017-09-24T15:21:07.000Z</time>
      </trkpt>
      <trkpt lat="43.34712" lon="2.44036">
        <ele>465</ele>
        <time>2017-09-24T15:21:08.000Z</time>
      </trkpt>
      <trkpt lat="43.34712" lon="2.44034">
        <ele>465</ele>
        <time>2017-09-24T15:21:09.000Z</time>
      </trkpt>
      <trkpt lat="43.34711" lon="2.44033">
        <ele>465</ele>
        <time>2017-09-24T15:21:10.000Z</time>
      </trkpt>
      <trkpt lat="43.34711" lon="2.44031">
        <ele>464</ele>
        <time>2017-09-24T15:21:11.000Z</time>
      </trkpt>
      <trkpt lat="43.34711" lon="2.4403">
        <ele>464</ele>
        <time>2017-09-24T15:21:12.000Z</time>
      </trkpt>
      <trkpt lat="43.3471" lon="2.44028">
        <ele>464</ele>
        <time>2017-09-24T15:21:13.000Z</time>
      </trkpt>
      <trkpt lat="43.3471" lon="2.44027">
        <ele>464</ele>
        <time>2017-09-24T15:21:14.000Z</time>
      </trkpt>
      <trkpt lat="43.3471" lon="2.44026">
        <ele>464</ele>
        <time>2017-09-24T15:21:15.000Z</time>
      </trkpt>
      <trkpt lat="43.3471" lon="2.44024">
        <ele>464</ele>
        <time>2017-09-24T15:21:16.000Z</time>
      </trkpt>
      <trkpt lat="43.34709" lon="2.44023">
        <ele>464</ele>
        <time>2017-09-24T15:21:17.000Z</time>
      </trkpt>
      <trkpt lat="43.34709" lon="2.44021">
        <ele>464</ele>
        <time>2017-09-24T15:21:18.000Z</time>
      </trkpt>
      <trkpt lat="43.34708" lon="2.44019">
        <ele>464</ele>
        <time>2017-09-24T15:21:19.000Z</time>
      </trkpt>
      <trkpt lat="43.34708" lon="2.44018">
        <ele>464</ele>
        <time>2017-09-24T15:21:20.000Z</time>
      </trkpt>
      <trkpt lat="43.34708" lon="2.44017">
        <ele>464</ele>
        <time>2017-09-24T15:21:21.000Z</time>
      </trkpt>
      <trkpt lat="43.34708" lon="2.44015">
        <ele>464</ele>
        <time>2017-09-24T15:21:22.000Z</time>
      </trkpt>
      <trkpt lat="43.34708" lon="2.44014">
        <ele>464</ele>
        <time>2017-09-24T15:21:23.000Z</time>
      </trkpt>
      <trkpt lat="43.34708" lon="2.44012">
        <ele>463</ele>
        <time>2017-09-24T15:21:24.000Z</time>
      </trkpt>
      <trkpt lat="43.34707" lon="2.44011">
        <ele>463</ele>
        <time>2017-09-24T15:21:25.000Z</time>
      </trkpt>
      <trkpt lat="43.34707" lon="2.44009">
        <ele>463</ele>
        <time>2017-09-24T15:21:26.000Z</time>
      </trkpt>
      <trkpt lat="43.34707" lon="2.44008">
        <ele>463</ele>
        <time>2017-09-24T15:21:27.000Z</time>
      </trkpt>
      <trkpt lat="43.34707" lon="2.44007">
        <ele>463</ele>
        <time>2017-09-24T15:21:28.000Z</time>
      </trkpt>
      <trkpt lat="43.34707" lon="2.44005">
        <ele>463</ele>
        <time>2017-09-24T15:21:29.000Z</time>
      </trkpt>
      <trkpt lat="43.34706" lon="2.44003">
        <ele>463</ele>
        <time>2017-09-24T15:21:30.000Z</time>
      </trkpt>
      <trkpt lat="43.34706" lon="2.44002">
        <ele>463</ele>
        <time>2017-09-24T15:21:31.000Z</time>
      </trkpt>
      <trkpt lat="43.34706" lon="2.44001">
        <ele>463</ele>
        <time>2017-09-24T15:21:32.000Z</time>
      </trkpt>
      <trkpt lat="43.34706" lon="2.43999">
        <ele>463</ele>
        <time>2017-09-24T15:21:33.000Z</time>
      </trkpt>
      <trkpt lat="43.34706" lon="2.43998">
        <ele>463</ele>
        <time>2017-09-24T15:21:34.000Z</time>
      </trkpt>
      <trkpt lat="43.34706" lon="2.43996">
        <ele>463</ele>
        <time>2017-09-24T15:21:35.000Z</time>
      </trkpt>
      <trkpt lat="43.34705" lon="2.43994">
        <ele>463</ele>
        <time>2017-09-24T15:21:36.000Z</time>
      </trkpt>
      <trkpt lat="43.34705" lon="2.43992">
        <ele>463</ele>
        <time>2017-09-24T15:21:37.000Z</time>
      </trkpt>
      <trkpt lat="43.34705" lon="2.43991">
        <ele>463</ele>
        <time>2017-09-24T15:21:38.000Z</time>
      </trkpt>
      <trkpt lat="43.34705" lon="2.43989">
        <ele>462</ele>
        <time>2017-09-24T15:21:39.000Z</time>
      </trkpt>
      <trkpt lat="43.34705" lon="2.43988">
        <ele>462</ele>
        <time>2017-09-24T15:21:40.000Z</time>
      </trkpt>
      <trkpt lat="43.34706" lon="2.43986">
        <ele>462</ele>
        <time>2017-09-24T15:21:41.000Z</time>
      </trkpt>
      <trkpt lat="43.34706" lon="2.43985">
        <ele>462</ele>
        <time>2017-09-24T15:21:42.000Z</time>
      </trkpt>
      <trkpt lat="43.34706" lon="2.43983">
        <ele>462</ele>
        <time>2017-09-24T15:21:43.000Z</time>
      </trkpt>
      <trkpt lat="43.34706" lon="2.43981">
        <ele>462</ele>
        <time>2017-09-24T15:21:44.000Z</time>
      </trkpt>
      <trkpt lat="43.34706" lon="2.43979">
        <ele>462</ele>
        <time>2017-09-24T15:21:45.000Z</time>
      </trkpt>
      <trkpt lat="43.34706" lon="2.43977">
        <ele>462</ele>
        <time>2017-09-24T15:21:46.000Z</time>
      </trkpt>
      <trkpt lat="43.34706" lon="2.43976">
        <ele>462</ele>
        <time>2017-09-24T15:21:47.000Z</time>
      </trkpt>
      <trkpt lat="43.34707" lon="2.43974">
        <ele>462</ele>
        <time>2017-09-24T15:21:48.000Z</time>
      </trkpt>
      <trkpt lat="43.34707" lon="2.43972">
        <ele>462</ele>
        <time>2017-09-24T15:21:49.000Z</time>
      </trkpt>
      <trkpt lat="43.34707" lon="2.43971">
        <ele>462</ele>
        <time>2017-09-24T15:21:50.000Z</time>
      </trkpt>
      <trkpt lat="43.34707" lon="2.43969">
        <ele>462</ele>
        <time>2017-09-24T15:21:51.000Z</time>
      </trkpt>
      <trkpt lat="43.34707" lon="2.43968">
        <ele>462</ele>
        <time>2017-09-24T15:21:52.000Z</time>
      </trkpt>
      <trkpt lat="43.34707" lon="2.43966">
        <ele>462</ele>
        <time>2017-09-24T15:21:53.000Z</time>
      </trkpt>
      <trkpt lat="43.34707" lon="2.43965">
        <ele>462</ele>
        <time>2017-09-24T15:21:54.000Z</time>
      </trkpt>
      <trkpt lat="43.34707" lon="2.43963">
        <ele>462</ele>
        <time>2017-09-24T15:21:55.000Z</time>
      </trkpt>
      <trkpt lat="43.34707" lon="2.43961">
        <ele>462</ele>
        <time>2017-09-24T15:21:56.000Z</time>
      </trkpt>
      <trkpt lat="43.34707" lon="2.4396">
        <ele>462</ele>
        <time>2017-09-24T15:21:57.000Z</time>
      </trkpt>
      <trkpt lat="43.34707" lon="2.43959">
        <ele>462</ele>
        <time>2017-09-24T15:21:58.000Z</time>
      </trkpt>
      <trkpt lat="43.34707" lon="2.43957">
        <ele>462</ele>
        <time>2017-09-24T15:21:59.000Z</time>
      </trkpt>
      <trkpt lat="43.34707" lon="2.43955">
        <ele>462</ele>
        <time>2017-09-24T15:22:00.000Z</time>
      </trkpt>
      <trkpt lat="43.34707" lon="2.43954">
        <ele>461</ele>
        <time>2017-09-24T15:22:01.000Z</time>
      </trkpt>
      <trkpt lat="43.34707" lon="2.43952">
        <ele>461</ele>
        <time>2017-09-24T15:22:02.000Z</time>
      </trkpt>
      <trkpt lat="43.34707" lon="2.4395">
        <ele>461</ele>
        <time>2017-09-24T15:22:03.000Z</time>
      </trkpt>
      <trkpt lat="43.34707" lon="2.43949">
        <ele>461</ele>
        <time>2017-09-24T15:22:04.000Z</time>
      </trkpt>
      <trkpt lat="43.34707" lon="2.43947">
        <ele>461</ele>
        <time>2017-09-24T15:22:05.000Z</time>
      </trkpt>
      <trkpt lat="43.34707" lon="2.43945">
        <ele>461</ele>
        <time>2017-09-24T15:22:06.000Z</time>
      </trkpt>
      <trkpt lat="43.34706" lon="2.43943">
        <ele>461</ele>
        <time>2017-09-24T15:22:07.000Z</time>
      </trkpt>
      <trkpt lat="43.34706" lon="2.43942">
        <ele>461</ele>
        <time>2017-09-24T15:22:08.000Z</time>
      </trkpt>
      <trkpt lat="43.34706" lon="2.4394">
        <ele>461</ele>
        <time>2017-09-24T15:22:09.000Z</time>
      </trkpt>
      <trkpt lat="43.34706" lon="2.43939">
        <ele>461</ele>
        <time>2017-09-24T15:22:10.000Z</time>
      </trkpt>
      <trkpt lat="43.34705" lon="2.43937">
        <ele>461</ele>
        <time>2017-09-24T15:22:11.000Z</time>
      </trkpt>
      <trkpt lat="43.34705" lon="2.43936">
        <ele>461</ele>
        <time>2017-09-24T15:22:12.000Z</time>
      </trkpt>
      <trkpt lat="43.34705" lon="2.43934">
        <ele>461</ele>
        <time>2017-09-24T15:22:13.000Z</time>
      </trkpt>
      <trkpt lat="43.34705" lon="2.43932">
        <ele>461</ele>
        <time>2017-09-24T15:22:14.000Z</time>
      </trkpt>
      <trkpt lat="43.34705" lon="2.43931">
        <ele>460</ele>
        <time>2017-09-24T15:22:15.000Z</time>
      </trkpt>
      <trkpt lat="43.34705" lon="2.43929">
        <ele>460</ele>
        <time>2017-09-24T15:22:16.000Z</time>
      </trkpt>
      <trkpt lat="43.34705" lon="2.43927">
        <ele>460</ele>
        <time>2017-09-24T15:22:17.000Z</time>
      </trkpt>
      <trkpt lat="43.34704" lon="2.43925">
        <ele>460</ele>
        <time>2017-09-24T15:22:18.000Z</time>
      </trkpt>
      <trkpt lat="43.34704" lon="2.43923">
        <ele>460</ele>
        <time>2017-09-24T15:22:19.000Z</time>
      </trkpt>
      <trkpt lat="43.34704" lon="2.43922">
        <ele>460</ele>
        <time>2017-09-24T15:22:20.000Z</time>
      </trkpt>
      <trkpt lat="43.34704" lon="2.4392">
        <ele>460</ele>
        <time>2017-09-24T15:22:21.000Z</time>
      </trkpt>
      <trkpt lat="43.34704" lon="2.43919">
        <ele>460</ele>
        <time>2017-09-24T15:22:22.000Z</time>
      </trkpt>
      <trkpt lat="43.34704" lon="2.43917">
        <ele>460</ele>
        <time>2017-09-24T15:22:23.000Z</time>
      </trkpt>
      <trkpt lat="43.34703" lon="2.43915">
        <ele>460</ele>
        <time>2017-09-24T15:22:24.000Z</time>
      </trkpt>
      <trkpt lat="43.34703" lon="2.43914">
        <ele>460</ele>
        <time>2017-09-24T15:22:25.000Z</time>
      </trkpt>
      <trkpt lat="43.34703" lon="2.43912">
        <ele>460</ele>
        <time>2017-09-24T15:22:26.000Z</time>
      </trkpt>
      <trkpt lat="43.34703" lon="2.4391">
        <ele>460</ele>
        <time>2017-09-24T15:22:27.000Z</time>
      </trkpt>
      <trkpt lat="43.34702" lon="2.43908">
        <ele>460</ele>
        <time>2017-09-24T15:22:28.000Z</time>
      </trkpt>
      <trkpt lat="43.34702" lon="2.43906">
        <ele>459</ele>
        <time>2017-09-24T15:22:29.000Z</time>
      </trkpt>
      <trkpt lat="43.34702" lon="2.43905">
        <ele>459</ele>
        <time>2017-09-24T15:22:30.000Z</time>
      </trkpt>
      <trkpt lat="43.34702" lon="2.43903">
        <ele>459</ele>
        <time>2017-09-24T15:22:31.000Z</time>
      </trkpt>
      <trkpt lat="43.34702" lon="2.43901">
        <ele>459</ele>
        <time>2017-09-24T15:22:32.000Z</time>
      </trkpt>
      <trkpt lat="43.34702" lon="2.439">
        <ele>459</ele>
        <time>2017-09-24T15:22:33.000Z</time>
      </trkpt>
      <trkpt lat="43.34702" lon="2.43898">
        <ele>459</ele>
        <time>2017-09-24T15:22:34.000Z</time>
      </trkpt>
      <trkpt lat="43.34702" lon="2.43896">
        <ele>459</ele>
        <time>2017-09-24T15:22:35.000Z</time>
      </trkpt>
      <trkpt lat="43.34702" lon="2.43895">
        <ele>459</ele>
        <time>2017-09-24T15:22:36.000Z</time>
      </trkpt>
      <trkpt lat="43.34702" lon="2.43893">
        <ele>459</ele>
        <time>2017-09-24T15:22:37.000Z</time>
      </trkpt>
      <trkpt lat="43.34702" lon="2.43892">
        <ele>459</ele>
        <time>2017-09-24T15:22:38.000Z</time>
      </trkpt>
      <trkpt lat="43.34702" lon="2.4389">
        <ele>459</ele>
        <time>2017-09-24T15:22:39.000Z</time>
      </trkpt>
      <trkpt lat="43.34702" lon="2.43888">
        <ele>459</ele>
        <time>2017-09-24T15:22:40.000Z</time>
      </trkpt>
      <trkpt lat="43.34702" lon="2.43887">
        <ele>459</ele>
        <time>2017-09-24T15:22:41.000Z</time>
      </trkpt>
      <trkpt lat="43.34701" lon="2.43885">
        <ele>459</ele>
        <time>2017-09-24T15:22:42.000Z</time>
      </trkpt>
      <trkpt lat="43.34702" lon="2.43884">
        <ele>459</ele>
        <time>2017-09-24T15:22:43.000Z</time>
      </trkpt>
      <trkpt lat="43.34702" lon="2.43882">
        <ele>459</ele>
        <time>2017-09-24T15:22:44.000Z</time>
      </trkpt>
      <trkpt lat="43.34701" lon="2.43881">
        <ele>458</ele>
        <time>2017-09-24T15:22:45.000Z</time>
      </trkpt>
      <trkpt lat="43.34701" lon="2.43879">
        <ele>458</ele>
        <time>2017-09-24T15:22:46.000Z</time>
      </trkpt>
      <trkpt lat="43.34701" lon="2.43877">
        <ele>458</ele>
        <time>2017-09-24T15:22:47.000Z</time>
      </trkpt>
      <trkpt lat="43.34701" lon="2.43876">
        <ele>458</ele>
        <time>2017-09-24T15:22:48.000Z</time>
      </trkpt>
      <trkpt lat="43.347" lon="2.43874">
        <ele>458</ele>
        <time>2017-09-24T15:22:49.000Z</time>
      </trkpt>
      <trkpt lat="43.347" lon="2.43872">
        <ele>458</ele>
        <time>2017-09-24T15:22:50.000Z</time>
      </trkpt>
      <trkpt lat="43.347" lon="2.4387">
        <ele>458</ele>
        <time>2017-09-24T15:22:51.000Z</time>
      </trkpt>
      <trkpt lat="43.347" lon="2.43869">
        <ele>458</ele>
        <time>2017-09-24T15:22:52.000Z</time>
      </trkpt>
      <trkpt lat="43.347" lon="2.43867">
        <ele>458</ele>
        <time>2017-09-24T15:22:53.000Z</time>
      </trkpt>
      <trkpt lat="43.347" lon="2.43865">
        <ele>458</ele>
        <time>2017-09-24T15:22:54.000Z</time>
      </trkpt>
      <trkpt lat="43.347" lon="2.43864">
        <ele>458</ele>
        <time>2017-09-24T15:22:55.000Z</time>
      </trkpt>
      <trkpt lat="43.34699" lon="2.43862">
        <ele>457</ele>
        <time>2017-09-24T15:22:56.000Z</time>
      </trkpt>
      <trkpt lat="43.34699" lon="2.43861">
        <ele>457</ele>
        <time>2017-09-24T15:22:57.000Z</time>
      </trkpt>
      <trkpt lat="43.34699" lon="2.43859">
        <ele>457</ele>
        <time>2017-09-24T15:22:58.000Z</time>
      </trkpt>
      <trkpt lat="43.34699" lon="2.43858">
        <ele>457</ele>
        <time>2017-09-24T15:22:59.000Z</time>
      </trkpt>
      <trkpt lat="43.34699" lon="2.43856">
        <ele>457</ele>
        <time>2017-09-24T15:23:00.000Z</time>
      </trkpt>
      <trkpt lat="43.34699" lon="2.43854">
        <ele>457</ele>
        <time>2017-09-24T15:23:01.000Z</time>
      </trkpt>
      <trkpt lat="43.34699" lon="2.43852">
        <ele>457</ele>
        <time>2017-09-24T15:23:02.000Z</time>
      </trkpt>
      <trkpt lat="43.34699" lon="2.43851">
        <ele>457</ele>
        <time>2017-09-24T15:23:03.000Z</time>
      </trkpt>
      <trkpt lat="43.34699" lon="2.43849">
        <ele>457</ele>
        <time>2017-09-24T15:23:04.000Z</time>
      </trkpt>
      <trkpt lat="43.34699" lon="2.43847">
        <ele>457</ele>
        <time>2017-09-24T15:23:05.000Z</time>
      </trkpt>
      <trkpt lat="43.34699" lon="2.43846">
        <ele>457</ele>
        <time>2017-09-24T15:23:06.000Z</time>
      </trkpt>
      <trkpt lat="43.34699" lon="2.43844">
        <ele>457</ele>
        <time>2017-09-24T15:23:07.000Z</time>
      </trkpt>
      <trkpt lat="43.347" lon="2.43843">
        <ele>457</ele>
        <time>2017-09-24T15:23:08.000Z</time>
      </trkpt>
      <trkpt lat="43.347" lon="2.43841">
        <ele>457</ele>
        <time>2017-09-24T15:23:09.000Z</time>
      </trkpt>
      <trkpt lat="43.347" lon="2.43839">
        <ele>457</ele>
        <time>2017-09-24T15:23:10.000Z</time>
      </trkpt>
      <trkpt lat="43.347" lon="2.43838">
        <ele>457</ele>
        <time>2017-09-24T15:23:11.000Z</time>
      </trkpt>
      <trkpt lat="43.347" lon="2.43836">
        <ele>458</ele>
        <time>2017-09-24T15:23:12.000Z</time>
      </trkpt>
      <trkpt lat="43.347" lon="2.43834">
        <ele>458</ele>
        <time>2017-09-24T15:23:13.000Z</time>
      </trkpt>
      <trkpt lat="43.347" lon="2.43833">
        <ele>458</ele>
        <time>2017-09-24T15:23:14.000Z</time>
      </trkpt>
      <trkpt lat="43.34701" lon="2.43831">
        <ele>458</ele>
        <time>2017-09-24T15:23:15.000Z</time>
      </trkpt>
      <trkpt lat="43.34701" lon="2.43829">
        <ele>458</ele>
        <time>2017-09-24T15:23:16.000Z</time>
      </trkpt>
      <trkpt lat="43.34701" lon="2.43827">
        <ele>458</ele>
        <time>2017-09-24T15:23:17.000Z</time>
      </trkpt>
      <trkpt lat="43.34702" lon="2.43826">
        <ele>458</ele>
        <time>2017-09-24T15:23:18.000Z</time>
      </trkpt>
      <trkpt lat="43.34702" lon="2.43824">
        <ele>458</ele>
        <time>2017-09-24T15:23:19.000Z</time>
      </trkpt>
      <trkpt lat="43.34702" lon="2.43822">
        <ele>458</ele>
        <time>2017-09-24T15:23:20.000Z</time>
      </trkpt>
      <trkpt lat="43.34703" lon="2.43821">
        <ele>458</ele>
        <time>2017-09-24T15:23:21.000Z</time>
      </trkpt>
      <trkpt lat="43.34703" lon="2.43819">
        <ele>458</ele>
        <time>2017-09-24T15:23:22.000Z</time>
      </trkpt>
      <trkpt lat="43.34704" lon="2.43818">
        <ele>458</ele>
        <time>2017-09-24T15:23:23.000Z</time>
      </trkpt>
      <trkpt lat="43.34704" lon="2.43816">
        <ele>458</ele>
        <time>2017-09-24T15:23:24.000Z</time>
      </trkpt>
      <trkpt lat="43.34704" lon="2.43815">
        <ele>458</ele>
        <time>2017-09-24T15:23:25.000Z</time>
      </trkpt>
      <trkpt lat="43.34705" lon="2.43813">
        <ele>458</ele>
        <time>2017-09-24T15:23:26.000Z</time>
      </trkpt>
      <trkpt lat="43.34705" lon="2.43812">
        <ele>458</ele>
        <time>2017-09-24T15:23:27.000Z</time>
      </trkpt>
      <trkpt lat="43.34706" lon="2.4381">
        <ele>458</ele>
        <time>2017-09-24T15:23:28.000Z</time>
      </trkpt>
      <trkpt lat="43.34706" lon="2.43808">
        <ele>458</ele>
        <time>2017-09-24T15:23:29.000Z</time>
      </trkpt>
      <trkpt lat="43.34706" lon="2.43807">
        <ele>458</ele>
        <time>2017-09-24T15:23:30.000Z</time>
      </trkpt>
      <trkpt lat="43.34707" lon="2.43805">
        <ele>458</ele>
        <time>2017-09-24T15:23:31.000Z</time>
      </trkpt>
      <trkpt lat="43.34707" lon="2.43804">
        <ele>458</ele>
        <time>2017-09-24T15:23:32.000Z</time>
      </trkpt>
      <trkpt lat="43.34707" lon="2.43802">
        <ele>458</ele>
        <time>2017-09-24T15:23:33.000Z</time>
      </trkpt>
      <trkpt lat="43.34708" lon="2.438">
        <ele>458</ele>
        <time>2017-09-24T15:23:34.000Z</time>
      </trkpt>
      <trkpt lat="43.34708" lon="2.43798">
        <ele>458</ele>
        <time>2017-09-24T15:23:35.000Z</time>
      </trkpt>
      <trkpt lat="43.34708" lon="2.43797">
        <ele>458</ele>
        <time>2017-09-24T15:23:36.000Z</time>
      </trkpt>
      <trkpt lat="43.34709" lon="2.43795">
        <ele>458</ele>
        <time>2017-09-24T15:23:37.000Z</time>
      </trkpt>
      <trkpt lat="43.34709" lon="2.43794">
        <ele>458</ele>
        <time>2017-09-24T15:23:38.000Z</time>
      </trkpt>
      <trkpt lat="43.34709" lon="2.43792">
        <ele>458</ele>
        <time>2017-09-24T15:23:39.000Z</time>
      </trkpt>
      <trkpt lat="43.34709" lon="2.4379">
        <ele>458</ele>
        <time>2017-09-24T15:23:40.000Z</time>
      </trkpt>
      <trkpt lat="43.3471" lon="2.43789">
        <ele>458</ele>
        <time>2017-09-24T15:23:41.000Z</time>
      </trkpt>
      <trkpt lat="43.3471" lon="2.43787">
        <ele>458</ele>
        <time>2017-09-24T15:23:42.000Z</time>
      </trkpt>
      <trkpt lat="43.3471" lon="2.43786">
        <ele>458</ele>
        <time>2017-09-24T15:23:43.000Z</time>
      </trkpt>
      <trkpt lat="43.3471" lon="2.43784">
        <ele>458</ele>
        <time>2017-09-24T15:23:44.000Z</time>
      </trkpt>
      <trkpt lat="43.3471" lon="2.43783">
        <ele>458</ele>
        <time>2017-09-24T15:23:45.000Z</time>
      </trkpt>
      <trkpt lat="43.3471" lon="2.43781">
        <ele>458</ele>
        <time>2017-09-24T15:23:46.000Z</time>
      </trkpt>
      <trkpt lat="43.3471" lon="2.43779">
        <ele>458</ele>
        <time>2017-09-24T15:23:47.000Z</time>
      </trkpt>
      <trkpt lat="43.3471" lon="2.43778">
        <ele>458</ele>
        <time>2017-09-24T15:23:48.000Z</time>
      </trkpt>
      <trkpt lat="43.3471" lon="2.43776">
        <ele>458</ele>
        <time>2017-09-24T15:23:49.000Z</time>
      </trkpt>
      <trkpt lat="43.3471" lon="2.43774">
        <ele>458</ele>
        <time>2017-09-24T15:23:50.000Z</time>
      </trkpt>
      <trkpt lat="43.3471" lon="2.43773">
        <ele>458</ele>
        <time>2017-09-24T15:23:51.000Z</time>
      </trkpt>
      <trkpt lat="43.3471" lon="2.43771">
        <ele>458</ele>
        <time>2017-09-24T15:23:52.000Z</time>
      </trkpt>
      <trkpt lat="43.3471" lon="2.4377">
        <ele>458</ele>
        <time>2017-09-24T15:23:53.000Z</time>
      </trkpt>
      <trkpt lat="43.34709" lon="2.43768">
        <ele>458</ele>
        <time>2017-09-24T15:23:54.000Z</time>
      </trkpt>
      <trkpt lat="43.34709" lon="2.43766">
        <ele>458</ele>
        <time>2017-09-24T15:23:55.000Z</time>
      </trkpt>
      <trkpt lat="43.34709" lon="2.43765">
        <ele>458</ele>
        <time>2017-09-24T15:23:56.000Z</time>
      </trkpt>
      <trkpt lat="43.34709" lon="2.43763">
        <ele>458</ele>
        <time>2017-09-24T15:23:57.000Z</time>
      </trkpt>
      <trkpt lat="43.34709" lon="2.43762">
        <ele>458</ele>
        <time>2017-09-24T15:23:58.000Z</time>
      </trkpt>
      <trkpt lat="43.34708" lon="2.4376">
        <ele>458</ele>
        <time>2017-09-24T15:23:59.000Z</time>
      </trkpt>
      <trkpt lat="43.34708" lon="2.43759">
        <ele>458</ele>
        <time>2017-09-24T15:24:00.000Z</time>
      </trkpt>
      <trkpt lat="43.34708" lon="2.43757">
        <ele>458</ele>
        <time>2017-09-24T15:24:01.000Z</time>
      </trkpt>
      <trkpt lat="43.34708" lon="2.43756">
        <ele>458</ele>
        <time>2017-09-24T15:24:02.000Z</time>
      </trkpt>
      <trkpt lat="43.34708" lon="2.43755">
        <ele>458</ele>
        <time>2017-09-24T15:24:03.000Z</time>
      </trkpt>
      <trkpt lat="43.34707" lon="2.43753">
        <ele>457</ele>
        <time>2017-09-24T15:24:04.000Z</time>
      </trkpt>
      <trkpt lat="43.34706" lon="2.43752">
        <ele>457</ele>
        <time>2017-09-24T15:24:05.000Z</time>
      </trkpt>
      <trkpt lat="43.34706" lon="2.43751">
        <ele>457</ele>
        <time>2017-09-24T15:24:06.000Z</time>
      </trkpt>
      <trkpt lat="43.34705" lon="2.43749">
        <ele>457</ele>
        <time>2017-09-24T15:24:07.000Z</time>
      </trkpt>
      <trkpt lat="43.34705" lon="2.43748">
        <ele>457</ele>
        <time>2017-09-24T15:24:08.000Z</time>
      </trkpt>
      <trkpt lat="43.34704" lon="2.43746">
        <ele>457</ele>
        <time>2017-09-24T15:24:09.000Z</time>
      </trkpt>
      <trkpt lat="43.34703" lon="2.43745">
        <ele>457</ele>
        <time>2017-09-24T15:24:10.000Z</time>
      </trkpt>
      <trkpt lat="43.34702" lon="2.43743">
        <ele>456</ele>
        <time>2017-09-24T15:24:11.000Z</time>
      </trkpt>
      <trkpt lat="43.34701" lon="2.43742">
        <ele>456</ele>
        <time>2017-09-24T15:24:12.000Z</time>
      </trkpt>
      <trkpt lat="43.34701" lon="2.4374">
        <ele>456</ele>
        <time>2017-09-24T15:24:13.000Z</time>
      </trkpt>
      <trkpt lat="43.347" lon="2.43739">
        <ele>456</ele>
        <time>2017-09-24T15:24:14.000Z</time>
      </trkpt>
      <trkpt lat="43.34699" lon="2.43738">
        <ele>456</ele>
        <time>2017-09-24T15:24:15.000Z</time>
      </trkpt>
      <trkpt lat="43.34698" lon="2.43737">
        <ele>455</ele>
        <time>2017-09-24T15:24:16.000Z</time>
      </trkpt>
      <trkpt lat="43.34697" lon="2.43735">
        <ele>455</ele>
        <time>2017-09-24T15:24:17.000Z</time>
      </trkpt>
      <trkpt lat="43.34697" lon="2.43734">
        <ele>455</ele>
        <time>2017-09-24T15:24:18.000Z</time>
      </trkpt>
      <trkpt lat="43.34696" lon="2.43732">
        <ele>455</ele>
        <time>2017-09-24T15:24:19.000Z</time>
      </trkpt>
      <trkpt lat="43.34695" lon="2.43731">
        <ele>455</ele>
        <time>2017-09-24T15:24:20.000Z</time>
      </trkpt>
      <trkpt lat="43.34694" lon="2.4373">
        <ele>455</ele>
        <time>2017-09-24T15:24:21.000Z</time>
      </trkpt>
      <trkpt lat="43.34694" lon="2.43728">
        <ele>454</ele>
        <time>2017-09-24T15:24:22.000Z</time>
      </trkpt>
      <trkpt lat="43.34693" lon="2.43727">
        <ele>454</ele>
        <time>2017-09-24T15:24:23.000Z</time>
      </trkpt>
      <trkpt lat="43.34692" lon="2.43726">
        <ele>454</ele>
        <time>2017-09-24T15:24:24.000Z</time>
      </trkpt>
      <trkpt lat="43.34692" lon="2.43725">
        <ele>454</ele>
        <time>2017-09-24T15:24:25.000Z</time>
      </trkpt>
      <trkpt lat="43.34691" lon="2.43723">
        <ele>454</ele>
        <time>2017-09-24T15:24:26.000Z</time>
      </trkpt>
      <trkpt lat="43.3469" lon="2.43723">
        <ele>454</ele>
        <time>2017-09-24T15:24:27.000Z</time>
      </trkpt>
      <trkpt lat="43.34689" lon="2.43722">
        <ele>453</ele>
        <time>2017-09-24T15:24:28.000Z</time>
      </trkpt>
      <trkpt lat="43.34688" lon="2.43721">
        <ele>453</ele>
        <time>2017-09-24T15:24:29.000Z</time>
      </trkpt>
      <trkpt lat="43.34687" lon="2.4372">
        <ele>453</ele>
        <time>2017-09-24T15:24:30.000Z</time>
      </trkpt>
      <trkpt lat="43.34686" lon="2.43719">
        <ele>453</ele>
        <time>2017-09-24T15:24:31.000Z</time>
      </trkpt>
      <trkpt lat="43.34686" lon="2.43718">
        <ele>452</ele>
        <time>2017-09-24T15:24:32.000Z</time>
      </trkpt>
      <trkpt lat="43.34684" lon="2.43718">
        <ele>452</ele>
        <time>2017-09-24T15:24:33.000Z</time>
      </trkpt>
      <trkpt lat="43.34683" lon="2.43717">
        <ele>452</ele>
        <time>2017-09-24T15:24:34.000Z</time>
      </trkpt>
      <trkpt lat="43.34683" lon="2.43716">
        <ele>452</ele>
        <time>2017-09-24T15:24:35.000Z</time>
      </trkpt>
      <trkpt lat="43.34682" lon="2.43715">
        <ele>452</ele>
        <time>2017-09-24T15:24:36.000Z</time>
      </trkpt>
      <trkpt lat="43.34681" lon="2.43715">
        <ele>451</ele>
        <time>2017-09-24T15:24:37.000Z</time>
      </trkpt>
      <trkpt lat="43.3468" lon="2.43715">
        <ele>451</ele>
        <time>2017-09-24T15:24:38.000Z</time>
      </trkpt>
      <trkpt lat="43.34679" lon="2.43714">
        <ele>451</ele>
        <time>2017-09-24T15:24:39.000Z</time>
      </trkpt>
      <trkpt lat="43.34678" lon="2.43714">
        <ele>451</ele>
        <time>2017-09-24T15:24:40.000Z</time>
      </trkpt>
      <trkpt lat="43.34677" lon="2.43713">
        <ele>451</ele>
        <time>2017-09-24T15:24:41.000Z</time>
      </trkpt>
      <trkpt lat="43.34676" lon="2.43713">
        <ele>451</ele>
        <time>2017-09-24T15:24:42.000Z</time>
      </trkpt>
      <trkpt lat="43.34675" lon="2.43713">
        <ele>451</ele>
        <time>2017-09-24T15:24:43.000Z</time>
      </trkpt>
      <trkpt lat="43.34674" lon="2.43713">
        <ele>450</ele>
        <time>2017-09-24T15:24:44.000Z</time>
      </trkpt>
      <trkpt lat="43.34673" lon="2.43713">
        <ele>450</ele>
        <time>2017-09-24T15:24:45.000Z</time>
      </trkpt>
      <trkpt lat="43.34672" lon="2.43713">
        <ele>450</ele>
        <time>2017-09-24T15:24:46.000Z</time>
      </trkpt>
      <trkpt lat="43.34671" lon="2.43713">
        <ele>450</ele>
        <time>2017-09-24T15:24:47.000Z</time>
      </trkpt>
      <trkpt lat="43.34669" lon="2.43714">
        <ele>450</ele>
        <time>2017-09-24T15:24:48.000Z</time>
      </trkpt>
      <trkpt lat="43.34668" lon="2.43714">
        <ele>450</ele>
        <time>2017-09-24T15:24:49.000Z</time>
      </trkpt>
      <trkpt lat="43.34667" lon="2.43715">
        <ele>450</ele>
        <time>2017-09-24T15:24:50.000Z</time>
      </trkpt>
      <trkpt lat="43.34665" lon="2.43715">
        <ele>449</ele>
        <time>2017-09-24T15:24:51.000Z</time>
      </trkpt>
      <trkpt lat="43.34664" lon="2.43715">
        <ele>449</ele>
        <time>2017-09-24T15:24:52.000Z</time>
      </trkpt>
      <trkpt lat="43.34663" lon="2.43716">
        <ele>449</ele>
        <time>2017-09-24T15:24:53.000Z</time>
      </trkpt>
      <trkpt lat="43.34663" lon="2.43716">
        <ele>449</ele>
        <time>2017-09-24T15:24:54.000Z</time>
      </trkpt>
      <trkpt lat="43.34662" lon="2.43717">
        <ele>449</ele>
        <time>2017-09-24T15:24:55.000Z</time>
      </trkpt>
      <trkpt lat="43.34662" lon="2.43717">
        <ele>449</ele>
        <time>2017-09-24T15:24:56.000Z</time>
      </trkpt>
      <trkpt lat="43.34661" lon="2.43718">
        <ele>449</ele>
        <time>2017-09-24T15:24:57.000Z</time>
      </trkpt>
      <trkpt lat="43.3466" lon="2.43718">
        <ele>449</ele>
        <time>2017-09-24T15:24:58.000Z</time>
      </trkpt>
      <trkpt lat="43.34659" lon="2.43719">
        <ele>448</ele>
        <time>2017-09-24T15:24:59.000Z</time>
      </trkpt>
      <trkpt lat="43.34658" lon="2.43719">
        <ele>448</ele>
        <time>2017-09-24T15:25:00.000Z</time>
      </trkpt>
      <trkpt lat="43.34657" lon="2.43719">
        <ele>448</ele>
        <time>2017-09-24T15:25:01.000Z</time>
      </trkpt>
      <trkpt lat="43.34656" lon="2.43719">
        <ele>448</ele>
        <time>2017-09-24T15:25:02.000Z</time>
      </trkpt>
      <trkpt lat="43.34655" lon="2.4372">
        <ele>448</ele>
        <time>2017-09-24T15:25:03.000Z</time>
      </trkpt>
      <trkpt lat="43.34655" lon="2.4372">
        <ele>448</ele>
        <time>2017-09-24T15:25:04.000Z</time>
      </trkpt>
      <trkpt lat="43.34654" lon="2.4372">
        <ele>448</ele>
        <time>2017-09-24T15:25:05.000Z</time>
      </trkpt>
      <trkpt lat="43.34653" lon="2.4372">
        <ele>448</ele>
        <time>2017-09-24T15:25:06.000Z</time>
      </trkpt>
      <trkpt lat="43.34652" lon="2.43719">
        <ele>448</ele>
        <time>2017-09-24T15:25:07.000Z</time>
      </trkpt>
      <trkpt lat="43.3465" lon="2.43719">
        <ele>447</ele>
        <time>2017-09-24T15:25:08.000Z</time>
      </trkpt>
      <trkpt lat="43.34649" lon="2.43718">
        <ele>447</ele>
        <time>2017-09-24T15:25:09.000Z</time>
      </trkpt>
      <trkpt lat="43.34648" lon="2.43717">
        <ele>447</ele>
        <time>2017-09-24T15:25:10.000Z</time>
      </trkpt>
      <trkpt lat="43.34647" lon="2.43716">
        <ele>447</ele>
        <time>2017-09-24T15:25:11.000Z</time>
      </trkpt>
      <trkpt lat="43.34646" lon="2.43714">
        <ele>447</ele>
        <time>2017-09-24T15:25:12.000Z</time>
      </trkpt>
      <trkpt lat="43.34645" lon="2.43713">
        <ele>447</ele>
        <time>2017-09-24T15:25:13.000Z</time>
      </trkpt>
      <trkpt lat="43.34644" lon="2.43712">
        <ele>447</ele>
        <time>2017-09-24T15:25:14.000Z</time>
      </trkpt>
      <trkpt lat="43.34643" lon="2.43711">
        <ele>447</ele>
        <time>2017-09-24T15:25:15.000Z</time>
      </trkpt>
      <trkpt lat="43.34642" lon="2.4371">
        <ele>447</ele>
        <time>2017-09-24T15:25:16.000Z</time>
      </trkpt>
      <trkpt lat="43.34641" lon="2.4371">
        <ele>447</ele>
        <time>2017-09-24T15:25:17.000Z</time>
      </trkpt>
      <trkpt lat="43.3464" lon="2.43709">
        <ele>447</ele>
        <time>2017-09-24T15:25:18.000Z</time>
      </trkpt>
      <trkpt lat="43.3464" lon="2.43709">
        <ele>447</ele>
        <time>2017-09-24T15:25:19.000Z</time>
      </trkpt>
      <trkpt lat="43.34639" lon="2.43708">
        <ele>447</ele>
        <time>2017-09-24T15:25:20.000Z</time>
      </trkpt>
      <trkpt lat="43.34639" lon="2.43708">
        <ele>447</ele>
        <time>2017-09-24T15:25:21.000Z</time>
      </trkpt>
      <trkpt lat="43.34639" lon="2.43708">
        <ele>447</ele>
        <time>2017-09-24T15:25:22.000Z</time>
      </trkpt>
      <trkpt lat="43.34639" lon="2.43708">
        <ele>447</ele>
        <time>2017-09-24T15:25:23.000Z</time>
      </trkpt>
      <trkpt lat="43.34635" lon="2.43705">
        <ele>446</ele>
        <time>2017-09-24T15:25:31.000Z</time>
      </trkpt>
      <trkpt lat="43.34634" lon="2.43704">
        <ele>446</ele>
        <time>2017-09-24T15:25:32.000Z</time>
      </trkpt>
      <trkpt lat="43.34633" lon="2.43703">
        <ele>446</ele>
        <time>2017-09-24T15:25:33.000Z</time>
      </trkpt>
      <trkpt lat="43.34632" lon="2.43702">
        <ele>446</ele>
        <time>2017-09-24T15:25:34.000Z</time>
      </trkpt>
      <trkpt lat="43.34632" lon="2.43701">
        <ele>446</ele>
        <time>2017-09-24T15:25:35.000Z</time>
      </trkpt>
      <trkpt lat="43.34631" lon="2.437">
        <ele>446</ele>
        <time>2017-09-24T15:25:36.000Z</time>
      </trkpt>
      <trkpt lat="43.3463" lon="2.437">
        <ele>446</ele>
        <time>2017-09-24T15:25:37.000Z</time>
      </trkpt>
      <trkpt lat="43.34628" lon="2.437">
        <ele>446</ele>
        <time>2017-09-24T15:25:38.000Z</time>
      </trkpt>
      <trkpt lat="43.34627" lon="2.43698">
        <ele>446</ele>
        <time>2017-09-24T15:25:39.000Z</time>
      </trkpt>
      <trkpt lat="43.34627" lon="2.43697">
        <ele>446</ele>
        <time>2017-09-24T15:25:40.000Z</time>
      </trkpt>
      <trkpt lat="43.34626" lon="2.43696">
        <ele>446</ele>
        <time>2017-09-24T15:25:41.000Z</time>
      </trkpt>
      <trkpt lat="43.34625" lon="2.43695">
        <ele>446</ele>
        <time>2017-09-24T15:25:42.000Z</time>
      </trkpt>
      <trkpt lat="43.34624" lon="2.43694">
        <ele>445</ele>
        <time>2017-09-24T15:25:43.000Z</time>
      </trkpt>
      <trkpt lat="43.34623" lon="2.43693">
        <ele>445</ele>
        <time>2017-09-24T15:25:44.000Z</time>
      </trkpt>
      <trkpt lat="43.34622" lon="2.43692">
        <ele>445</ele>
        <time>2017-09-24T15:25:45.000Z</time>
      </trkpt>
      <trkpt lat="43.34622" lon="2.43691">
        <ele>445</ele>
        <time>2017-09-24T15:25:46.000Z</time>
      </trkpt>
      <trkpt lat="43.34621" lon="2.4369">
        <ele>445</ele>
        <time>2017-09-24T15:25:47.000Z</time>
      </trkpt>
      <trkpt lat="43.3462" lon="2.43688">
        <ele>445</ele>
        <time>2017-09-24T15:25:48.000Z</time>
      </trkpt>
      <trkpt lat="43.34619" lon="2.43687">
        <ele>445</ele>
        <time>2017-09-24T15:25:49.000Z</time>
      </trkpt>
      <trkpt lat="43.34619" lon="2.43685">
        <ele>445</ele>
        <time>2017-09-24T15:25:50.000Z</time>
      </trkpt>
      <trkpt lat="43.34618" lon="2.43684">
        <ele>445</ele>
        <time>2017-09-24T15:25:51.000Z</time>
      </trkpt>
      <trkpt lat="43.34618" lon="2.43683">
        <ele>445</ele>
        <time>2017-09-24T15:25:52.000Z</time>
      </trkpt>
      <trkpt lat="43.34617" lon="2.43682">
        <ele>445</ele>
        <time>2017-09-24T15:25:53.000Z</time>
      </trkpt>
      <trkpt lat="43.34617" lon="2.4368">
        <ele>445</ele>
        <time>2017-09-24T15:25:54.000Z</time>
      </trkpt>
      <trkpt lat="43.34616" lon="2.43678">
        <ele>445</ele>
        <time>2017-09-24T15:25:55.000Z</time>
      </trkpt>
      <trkpt lat="43.34616" lon="2.43677">
        <ele>445</ele>
        <time>2017-09-24T15:25:56.000Z</time>
      </trkpt>
      <trkpt lat="43.34615" lon="2.43676">
        <ele>445</ele>
        <time>2017-09-24T15:25:57.000Z</time>
      </trkpt>
      <trkpt lat="43.34615" lon="2.43674">
        <ele>445</ele>
        <time>2017-09-24T15:25:58.000Z</time>
      </trkpt>
      <trkpt lat="43.34614" lon="2.43673">
        <ele>445</ele>
        <time>2017-09-24T15:25:59.000Z</time>
      </trkpt>
      <trkpt lat="43.34614" lon="2.43671">
        <ele>445</ele>
        <time>2017-09-24T15:26:00.000Z</time>
      </trkpt>
      <trkpt lat="43.34614" lon="2.4367">
        <ele>445</ele>
        <time>2017-09-24T15:26:01.000Z</time>
      </trkpt>
      <trkpt lat="43.34613" lon="2.43669">
        <ele>445</ele>
        <time>2017-09-24T15:26:02.000Z</time>
      </trkpt>
      <trkpt lat="43.34613" lon="2.43667">
        <ele>445</ele>
        <time>2017-09-24T15:26:03.000Z</time>
      </trkpt>
      <trkpt lat="43.34613" lon="2.43665">
        <ele>445</ele>
        <time>2017-09-24T15:26:04.000Z</time>
      </trkpt>
      <trkpt lat="43.34612" lon="2.43664">
        <ele>445</ele>
        <time>2017-09-24T15:26:05.000Z</time>
      </trkpt>
      <trkpt lat="43.34612" lon="2.43663">
        <ele>445</ele>
        <time>2017-09-24T15:26:06.000Z</time>
      </trkpt>
      <trkpt lat="43.34612" lon="2.43661">
        <ele>444</ele>
        <time>2017-09-24T15:26:07.000Z</time>
      </trkpt>
      <trkpt lat="43.34611" lon="2.4366">
        <ele>444</ele>
        <time>2017-09-24T15:26:08.000Z</time>
      </trkpt>
      <trkpt lat="43.34611" lon="2.43658">
        <ele>444</ele>
        <time>2017-09-24T15:26:09.000Z</time>
      </trkpt>
      <trkpt lat="43.34611" lon="2.43657">
        <ele>444</ele>
        <time>2017-09-24T15:26:10.000Z</time>
      </trkpt>
      <trkpt lat="43.34611" lon="2.43656">
        <ele>444</ele>
        <time>2017-09-24T15:26:11.000Z</time>
      </trkpt>
      <trkpt lat="43.34611" lon="2.43657">
        <ele>444</ele>
        <time>2017-09-24T15:26:12.000Z</time>
      </trkpt>
      <trkpt lat="43.34611" lon="2.43657">
        <ele>444</ele>
        <time>2017-09-24T15:26:13.000Z</time>
      </trkpt>
      <trkpt lat="43.34609" lon="2.43655">
        <ele>444</ele>
        <time>2017-09-24T15:26:22.000Z</time>
      </trkpt>
      <trkpt lat="43.34608" lon="2.43654">
        <ele>444</ele>
        <time>2017-09-24T15:26:23.000Z</time>
      </trkpt>
      <trkpt lat="43.34607" lon="2.43653">
        <ele>444</ele>
        <time>2017-09-24T15:26:24.000Z</time>
      </trkpt>
      <trkpt lat="43.34606" lon="2.43651">
        <ele>443</ele>
        <time>2017-09-24T15:26:25.000Z</time>
      </trkpt>
      <trkpt lat="43.34606" lon="2.4365">
        <ele>443</ele>
        <time>2017-09-24T15:26:26.000Z</time>
      </trkpt>
      <trkpt lat="43.34606" lon="2.43648">
        <ele>443</ele>
        <time>2017-09-24T15:26:27.000Z</time>
      </trkpt>
      <trkpt lat="43.34606" lon="2.43647">
        <ele>443</ele>
        <time>2017-09-24T15:26:28.000Z</time>
      </trkpt>
      <trkpt lat="43.34606" lon="2.43645">
        <ele>443</ele>
        <time>2017-09-24T15:26:29.000Z</time>
      </trkpt>
      <trkpt lat="43.34606" lon="2.43643">
        <ele>443</ele>
        <time>2017-09-24T15:26:30.000Z</time>
      </trkpt>
      <trkpt lat="43.34606" lon="2.43642">
        <ele>443</ele>
        <time>2017-09-24T15:26:31.000Z</time>
      </trkpt>
      <trkpt lat="43.34606" lon="2.43641">
        <ele>443</ele>
        <time>2017-09-24T15:26:32.000Z</time>
      </trkpt>
      <trkpt lat="43.34606" lon="2.43639">
        <ele>443</ele>
        <time>2017-09-24T15:26:33.000Z</time>
      </trkpt>
      <trkpt lat="43.34607" lon="2.43637">
        <ele>443</ele>
        <time>2017-09-24T15:26:34.000Z</time>
      </trkpt>
      <trkpt lat="43.34607" lon="2.43636">
        <ele>443</ele>
        <time>2017-09-24T15:26:35.000Z</time>
      </trkpt>
      <trkpt lat="43.34607" lon="2.43634">
        <ele>443</ele>
        <time>2017-09-24T15:26:36.000Z</time>
      </trkpt>
      <trkpt lat="43.34607" lon="2.43633">
        <ele>443</ele>
        <time>2017-09-24T15:26:37.000Z</time>
      </trkpt>
      <trkpt lat="43.34608" lon="2.43632">
        <ele>443</ele>
        <time>2017-09-24T15:26:38.000Z</time>
      </trkpt>
      <trkpt lat="43.34608" lon="2.43631">
        <ele>443</ele>
        <time>2017-09-24T15:26:39.000Z</time>
      </trkpt>
      <trkpt lat="43.34609" lon="2.43629">
        <ele>443</ele>
        <time>2017-09-24T15:26:40.000Z</time>
      </trkpt>
      <trkpt lat="43.34609" lon="2.43628">
        <ele>443</ele>
        <time>2017-09-24T15:26:41.000Z</time>
      </trkpt>
      <trkpt lat="43.34609" lon="2.43627">
        <ele>443</ele>
        <time>2017-09-24T15:26:42.000Z</time>
      </trkpt>
      <trkpt lat="43.3461" lon="2.43627">
        <ele>443</ele>
        <time>2017-09-24T15:26:43.000Z</time>
      </trkpt>
      <trkpt lat="43.3461" lon="2.43627">
        <ele>443</ele>
        <time>2017-09-24T15:26:44.000Z</time>
      </trkpt>
      <trkpt lat="43.3461" lon="2.43626">
        <ele>443</ele>
        <time>2017-09-24T15:26:45.000Z</time>
      </trkpt>
      <trkpt lat="43.34613" lon="2.43632">
        <ele>443</ele>
        <time>2017-09-24T15:27:56.000Z</time>
      </trkpt>
      <trkpt lat="43.34612" lon="2.43633">
        <ele>443</ele>
        <time>2017-09-24T15:27:57.000Z</time>
      </trkpt>
      <trkpt lat="43.34611" lon="2.43633">
        <ele>443</ele>
        <time>2017-09-24T15:27:58.000Z</time>
      </trkpt>
      <trkpt lat="43.34611" lon="2.43633">
        <ele>443</ele>
        <time>2017-09-24T15:27:59.000Z</time>
      </trkpt>
      <trkpt lat="43.34611" lon="2.43633">
        <ele>443</ele>
        <time>2017-09-24T15:28:00.000Z</time>
      </trkpt>
    </trkseg>
  </trk>
</gpx>